<?xml version='1.0' encoding='UTF-8'?><gpx version="1.1" creator="JPX - https://github.com/jenetics/jpx" xmlns="http://www.topografix.com/GPX/1/1"><trk><trkseg><trkpt lat="42.08977508284931" lon="11.792504071783899"><ele>1.9999999999999998</ele><time>2026-04-19T07:29:58.997Z</time></trkpt><trkpt lat="42.08969467799446" lon="11.792527908124288"><ele>2.0</ele><time>2026-04-19T07:54:27.951Z</time></trkpt><trkpt lat="42.089638753500736" lon="11.79259176477902"><ele>2.0</ele><time>2026-04-19T07:54:29.951Z</time></trkpt><trkpt lat="42.08961599503743" lon="11.792707270061001"><ele>2.0</ele><time>2026-04-19T07:54:32.951Z</time></trkpt><trkpt lat="42.08961101304181" lon="11.79281053840664"><ele>1.9999999999999998</ele><time>2026-04-19T07:54:34.951Z</time></trkpt><trkpt lat="42.08959793485466" lon="11.792917230632996"><ele>2.0</ele><time>2026-04-19T07:54:37.951Z</time></trkpt><trkpt lat="42.08956668266762" lon="11.792993098619927"><ele>2.0</ele><time>2026-04-19T07:54:46.95Z</time></trkpt><trkpt lat="42.089517653448546" lon="11.793093589467066"><ele>2.0</ele><time>2026-04-19T07:54:48.95Z</time></trkpt><trkpt lat="42.08946415957523" lon="11.793233654091011"><ele>2.0</ele><time>2026-04-19T07:54:50.95Z</time></trkpt><trkpt lat="42.089403360889854" lon="11.793355281149582"><ele>2.0</ele><time>2026-04-19T07:54:52.95Z</time></trkpt><trkpt lat="42.089341425802175" lon="11.793483639552916"><ele>2.0</ele><time>2026-04-19T07:54:54.95Z</time></trkpt><trkpt lat="42.08930530016571" lon="11.793557999566364"><ele>2.1666666666666665</ele><time>2026-04-19T07:54:55.95Z</time></trkpt><trkpt lat="42.08926616971565" lon="11.793634223560028"><ele>2.333333333333333</ele><time>2026-04-19T07:54:56.95Z</time></trkpt><trkpt lat="42.08922299483079" lon="11.793721761762471"><ele>2.5</ele><time>2026-04-19T07:54:57.95Z</time></trkpt><trkpt lat="42.089178818005834" lon="11.793802320370478"><ele>2.6666666666666665</ele><time>2026-04-19T07:54:58.95Z</time></trkpt><trkpt lat="42.08914222410186" lon="11.793886785990681"><ele>2.8333333333333335</ele><time>2026-04-19T07:54:59.95Z</time></trkpt><trkpt lat="42.08909089776705" lon="11.794005251764313"><ele>3.0</ele><time>2026-04-19T07:55:01.95Z</time></trkpt><trkpt lat="42.089051944840804" lon="11.794099435536156"><ele>2.6666666666666665</ele><time>2026-04-19T07:55:04.95Z</time></trkpt><trkpt lat="42.089011017764626" lon="11.794178803911622"><ele>2.3333333333333335</ele><time>2026-04-19T07:55:07.95Z</time></trkpt><trkpt lat="42.088967387864415" lon="11.79427477242599"><ele>2.0</ele><time>2026-04-19T07:55:09.95Z</time></trkpt><trkpt lat="42.088925277443415" lon="11.794364525169389"><ele>1.6666666666666665</ele><time>2026-04-19T07:55:11.95Z</time></trkpt><trkpt lat="42.088887184160455" lon="11.794440120242838"><ele>1.3333333333333333</ele><time>2026-04-19T07:55:13.95Z</time></trkpt><trkpt lat="42.08883968014862" lon="11.794541353612054"><ele>1.0</ele><time>2026-04-19T07:55:15.95Z</time></trkpt><trkpt lat="42.08878876350066" lon="11.794645418387828"><ele>1.0</ele><time>2026-04-19T07:55:17.95Z</time></trkpt><trkpt lat="42.088741430537155" lon="11.794756151172908"><ele>1.0</ele><time>2026-04-19T07:55:19.95Z</time></trkpt><trkpt lat="42.088691519957706" lon="11.794857194266632"><ele>1.0</ele><time>2026-04-19T07:55:21.95Z</time></trkpt><trkpt lat="42.08864612556009" lon="11.794963557340724"><ele>1.0</ele><time>2026-04-19T07:55:23.95Z</time></trkpt><trkpt lat="42.088596130630314" lon="11.795075559771087"><ele>1.0</ele><time>2026-04-19T07:55:25.95Z</time></trkpt><trkpt lat="42.08842119266741" lon="11.795130564700905"><ele>0.8</ele><time>2026-04-19T07:55:27.95Z</time></trkpt><trkpt lat="42.08838122489988" lon="11.795264587032278"><ele>0.6000000000000001</ele><time>2026-04-19T07:55:29.95Z</time></trkpt><trkpt lat="42.08833303098724" lon="11.795418644320673"><ele>0.4</ele><time>2026-04-19T07:55:31.95Z</time></trkpt><trkpt lat="42.088276115697965" lon="11.79556342885813"><ele>0.2</ele><time>2026-04-19T07:55:33.95Z</time></trkpt><trkpt lat="42.08824579557722" lon="11.795639478914895"><ele>0.0</ele><time>2026-04-19T07:55:34.95Z</time></trkpt><trkpt lat="42.08818180147815" lon="11.795805542197336"><ele>0.0</ele><time>2026-04-19T07:55:36.95Z</time></trkpt><trkpt lat="42.08813779302668" lon="11.79595230519597"><ele>0.0</ele><time>2026-04-19T07:55:38.95Z</time></trkpt><trkpt lat="42.08810798545674" lon="11.79608383013969"><ele>0.0</ele><time>2026-04-19T07:55:40.95Z</time></trkpt><trkpt lat="42.08808952858602" lon="11.796202607022428"><ele>0.0</ele><time>2026-04-19T07:55:42.95Z</time></trkpt><trkpt lat="42.08807474799037" lon="11.796301750675937"><ele>0.0</ele><time>2026-04-19T07:55:44.95Z</time></trkpt><trkpt lat="42.088066091981545" lon="11.796390268012365"><ele>0.5</ele><time>2026-04-19T07:55:46.95Z</time></trkpt><trkpt lat="42.088204288186844" lon="11.7964741581192"><ele>1.0</ele><time>2026-04-19T07:55:47.95Z</time></trkpt><trkpt lat="42.08817891239328" lon="11.796558714443211"><ele>1.5</ele><time>2026-04-19T07:55:49.95Z</time></trkpt><trkpt lat="42.08803385979571" lon="11.79657527264618"><ele>2.0</ele><time>2026-04-19T07:55:51.95Z</time></trkpt><trkpt lat="42.08811086967511" lon="11.796721546688847"><ele>1.9999999999999998</ele><time>2026-04-19T07:55:53.95Z</time></trkpt><trkpt lat="42.08811801417667" lon="11.796829567706496"><ele>2.0</ele><time>2026-04-19T07:55:56.95Z</time></trkpt><trkpt lat="42.08818824861275" lon="11.796852365249013"><ele>2.0</ele><time>2026-04-19T07:55:59.95Z</time></trkpt><trkpt lat="42.08823621043088" lon="11.796917612280295"><ele>2.0</ele><time>2026-04-19T07:56:04.95Z</time></trkpt><trkpt lat="42.088323856506065" lon="11.796783767946476"><ele>1.9999999999999998</ele><time>2026-04-19T07:56:06.95Z</time></trkpt><trkpt lat="42.08836315140096" lon="11.79671407650274"><ele>2.0</ele><time>2026-04-19T07:56:07.95Z</time></trkpt><trkpt lat="42.088424595285936" lon="11.796614211972992"><ele>2.6</ele><time>2026-04-19T07:56:09.95Z</time></trkpt><trkpt lat="42.08849871917193" lon="11.796469382108967"><ele>3.2</ele><time>2026-04-19T07:56:11.95Z</time></trkpt><trkpt lat="42.08853795794811" lon="11.79638012530643"><ele>3.8</ele><time>2026-04-19T07:56:12.95Z</time></trkpt><trkpt lat="42.08858023127864" lon="11.796288493017283"><ele>4.4</ele><time>2026-04-19T07:56:13.95Z</time></trkpt><trkpt lat="42.08862053786311" lon="11.796195926833809"><ele>5.0</ele><time>2026-04-19T07:56:14.95Z</time></trkpt><trkpt lat="42.088662197835056" lon="11.796097685664654"><ele>5.0</ele><time>2026-04-19T07:56:15.945Z</time></trkpt><trkpt lat="42.08870450732917" lon="11.796003702698377"><ele>5.0</ele><time>2026-04-19T07:56:16.945Z</time></trkpt><trkpt lat="42.08874282348764" lon="11.795922268365203"><ele>5.0</ele><time>2026-04-19T07:56:17.945Z</time></trkpt><trkpt lat="42.088778048360226" lon="11.795847850811459"><ele>5.0</ele><time>2026-04-19T07:56:18.944Z</time></trkpt><trkpt lat="42.088812173580976" lon="11.795772387673228"><ele>5.0</ele><time>2026-04-19T07:56:19.944Z</time></trkpt><trkpt lat="42.08884765788831" lon="11.79569368760601"><ele>5.0</ele><time>2026-04-19T07:56:20.944Z</time></trkpt><trkpt lat="42.0888848589799" lon="11.79561808906293"><ele>5.0</ele><time>2026-04-19T07:56:21.944Z</time></trkpt><trkpt lat="42.088920468083494" lon="11.795539466248366"><ele>4.666666666666667</ele><time>2026-04-19T07:56:22.944Z</time></trkpt><trkpt lat="42.08896096013937" lon="11.795458340851498"><ele>4.333333333333334</ele><time>2026-04-19T07:56:23.944Z</time></trkpt><trkpt lat="42.08900217237833" lon="11.795371546831198"><ele>4.0</ele><time>2026-04-19T07:56:24.944Z</time></trkpt><trkpt lat="42.089045182552304" lon="11.79528321361905"><ele>3.666666666666667</ele><time>2026-04-19T07:56:25.944Z</time></trkpt><trkpt lat="42.089089662690554" lon="11.795191386910192"><ele>3.3333333333333335</ele><time>2026-04-19T07:56:26.944Z</time></trkpt><trkpt lat="42.08913564523406" lon="11.795095526145715"><ele>3.0</ele><time>2026-04-19T07:56:27.944Z</time></trkpt><trkpt lat="42.08918003579361" lon="11.795006964008675"><ele>3.666666666666667</ele><time>2026-04-19T07:56:28.944Z</time></trkpt><trkpt lat="42.08922242744414" lon="11.794923828769214"><ele>4.333333333333334</ele><time>2026-04-19T07:56:29.944Z</time></trkpt><trkpt lat="42.08926080642034" lon="11.794844164590373"><ele>5.0</ele><time>2026-04-19T07:56:30.944Z</time></trkpt><trkpt lat="42.08929533236196" lon="11.794770069106656"><ele>5.666666666666667</ele><time>2026-04-19T07:56:31.944Z</time></trkpt><trkpt lat="42.08933959519666" lon="11.794679670142791"><ele>6.333333333333334</ele><time>2026-04-19T07:56:33.944Z</time></trkpt><trkpt lat="42.08937813895004" lon="11.794588422886546"><ele>7.0</ele><time>2026-04-19T07:56:35.944Z</time></trkpt><trkpt lat="42.08943517906529" lon="11.794464464014958"><ele>6.333333333333334</ele><time>2026-04-19T07:56:37.944Z</time></trkpt><trkpt lat="42.08950147914233" lon="11.794316348067362"><ele>5.666666666666667</ele><time>2026-04-19T07:56:39.944Z</time></trkpt><trkpt lat="42.089534083400956" lon="11.794232698333612"><ele>5.0</ele><time>2026-04-19T07:56:40.944Z</time></trkpt><trkpt lat="42.089574083332046" lon="11.794139796311118"><ele>4.333333333333334</ele><time>2026-04-19T07:56:41.944Z</time></trkpt><trkpt lat="42.08962074328041" lon="11.794042095564329"><ele>3.666666666666667</ele><time>2026-04-19T07:56:42.944Z</time></trkpt><trkpt lat="42.08966200812429" lon="11.793952592818671"><ele>3.0</ele><time>2026-04-19T07:56:43.944Z</time></trkpt><trkpt lat="42.0897049119582" lon="11.793861702740477"><ele>3.0</ele><time>2026-04-19T07:56:44.944Z</time></trkpt><trkpt lat="42.089745603450794" lon="11.793772016702148"><ele>3.0</ele><time>2026-04-19T07:56:45.944Z</time></trkpt><trkpt lat="42.08978473794936" lon="11.793693718130651"><ele>3.0</ele><time>2026-04-19T07:56:46.944Z</time></trkpt><trkpt lat="42.08982054096457" lon="11.79361483600669"><ele>3.0</ele><time>2026-04-19T07:56:47.944Z</time></trkpt><trkpt lat="42.08985643050539" lon="11.793537331752605"><ele>3.0</ele><time>2026-04-19T07:56:48.944Z</time></trkpt><trkpt lat="42.089893173500684" lon="11.793465115512832"><ele>3.0</ele><time>2026-04-19T07:56:49.944Z</time></trkpt><trkpt lat="42.089956767002505" lon="11.79333723995788"><ele>4.0</ele><time>2026-04-19T07:56:51.944Z</time></trkpt><trkpt lat="42.09001348630829" lon="11.793218773688965"><ele>5.0</ele><time>2026-04-19T07:56:53.944Z</time></trkpt><trkpt lat="42.09007710638991" lon="11.793073795058103"><ele>6.000000000000001</ele><time>2026-04-19T07:56:55.944Z</time></trkpt><trkpt lat="42.09011340194623" lon="11.792990653427706"><ele>7.0</ele><time>2026-04-19T07:56:56.944Z</time></trkpt><trkpt lat="42.09015100791988" lon="11.792902541914456"><ele>8.0</ele><time>2026-04-19T07:56:57.944Z</time></trkpt><trkpt lat="42.09019594316105" lon="11.792815029455758"><ele>8.0</ele><time>2026-04-19T07:56:58.944Z</time></trkpt><trkpt lat="42.090243144227166" lon="11.792727114982545"><ele>7.999999999999999</ele><time>2026-04-19T07:56:59.944Z</time></trkpt><trkpt lat="42.0902904595834" lon="11.792645880325734"><ele>8.0</ele><time>2026-04-19T07:57:00.944Z</time></trkpt><trkpt lat="42.09033112486469" lon="11.792572166724238"><ele>8.0</ele><time>2026-04-19T07:57:01.944Z</time></trkpt><trkpt lat="42.09037220589777" lon="11.792505684994902"><ele>7.999999999999999</ele><time>2026-04-19T07:57:02.944Z</time></trkpt><trkpt lat="42.090426727305" lon="11.792451883181103"><ele>8.0</ele><time>2026-04-19T07:57:03.944Z</time></trkpt><trkpt lat="42.090488788438535" lon="11.792420185418669"><ele>8.0</ele><time>2026-04-19T07:57:04.944Z</time></trkpt><trkpt lat="42.090607883561745" lon="11.792422115942726"><ele>7.6000000000000005</ele><time>2026-04-19T07:57:06.944Z</time></trkpt><trkpt lat="42.09070780687409" lon="11.792481193607815"><ele>7.200000000000001</ele><time>2026-04-19T07:57:08.944Z</time></trkpt><trkpt lat="42.09078915325914" lon="11.792562357740609"><ele>6.8</ele><time>2026-04-19T07:57:10.943Z</time></trkpt><trkpt lat="42.09085976411397" lon="11.792658470914098"><ele>6.4</ele><time>2026-04-19T07:57:12.943Z</time></trkpt><trkpt lat="42.09092145295956" lon="11.79272658406744"><ele>6.0</ele><time>2026-04-19T07:57:14.943Z</time></trkpt><trkpt lat="42.09097551186133" lon="11.792813064655887"><ele>7.0</ele><time>2026-04-19T07:57:17.943Z</time></trkpt><trkpt lat="42.0910584659337" lon="11.792865935146393"><ele>8.0</ele><time>2026-04-19T07:57:19.943Z</time></trkpt><trkpt lat="42.09115505815682" lon="11.792884656403258"><ele>9.0</ele><time>2026-04-19T07:57:22.943Z</time></trkpt><trkpt lat="42.091216846774536" lon="11.792784895092035"><ele>10.0</ele><time>2026-04-19T07:57:23.943Z</time></trkpt><trkpt lat="42.09128730232496" lon="11.79271966909792"><ele>11.0</ele><time>2026-04-19T07:57:24.943Z</time></trkpt><trkpt lat="42.09134534706934" lon="11.792656176601408"><ele>12.0</ele><time>2026-04-19T07:57:25.943Z</time></trkpt><trkpt lat="42.09140630417084" lon="11.792618780996143"><ele>12.0</ele><time>2026-04-19T07:57:26.943Z</time></trkpt><trkpt lat="42.09149997616784" lon="11.792534078022435"><ele>12.0</ele><time>2026-04-19T07:57:28.943Z</time></trkpt><trkpt lat="42.091558156707414" lon="11.792481468217511"><ele>12.0</ele><time>2026-04-19T07:57:29.943Z</time></trkpt><trkpt lat="42.091630862728934" lon="11.792416213749094"><ele>12.0</ele><time>2026-04-19T07:57:30.943Z</time></trkpt><trkpt lat="42.09171063412802" lon="11.792344419489917"><ele>12.0</ele><time>2026-04-19T07:57:31.943Z</time></trkpt><trkpt lat="42.091798187324315" lon="11.792265621649095"><ele>12.5</ele><time>2026-04-19T07:57:32.943Z</time></trkpt><trkpt lat="42.09187953097753" lon="11.792165247796909"><ele>13.0</ele><time>2026-04-19T07:57:33.943Z</time></trkpt><trkpt lat="42.09195903906" lon="11.792100632442915"><ele>13.5</ele><time>2026-04-19T07:57:34.943Z</time></trkpt><trkpt lat="42.09202042931967" lon="11.792027008014239"><ele>14.0</ele><time>2026-04-19T07:57:35.943Z</time></trkpt><trkpt lat="42.092078245656396" lon="11.791962344442375"><ele>14.5</ele><time>2026-04-19T07:57:36.943Z</time></trkpt><trkpt lat="42.09215051372231" lon="11.791942891140424"><ele>15.0</ele><time>2026-04-19T07:57:37.943Z</time></trkpt><trkpt lat="42.092205163375695" lon="11.791892364575356"><ele>15.4</ele><time>2026-04-19T07:57:38.943Z</time></trkpt><trkpt lat="42.092262392896764" lon="11.791839452783364"><ele>15.8</ele><time>2026-04-19T07:57:39.943Z</time></trkpt><trkpt lat="42.09231633870961" lon="11.791789576981122"><ele>16.2</ele><time>2026-04-19T07:57:40.943Z</time></trkpt><trkpt lat="42.09241378056008" lon="11.791700103260219"><ele>16.6</ele><time>2026-04-19T07:57:42.943Z</time></trkpt><trkpt lat="42.09249658449658" lon="11.791592384257296"><ele>17.0</ele><time>2026-04-19T07:57:44.943Z</time></trkpt><trkpt lat="42.092566731535584" lon="11.791532315081001"><ele>17.0</ele><time>2026-04-19T07:57:48.943Z</time></trkpt><trkpt lat="42.0926517960514" lon="11.791468340721819"><ele>17.0</ele><time>2026-04-19T07:57:50.943Z</time></trkpt><trkpt lat="42.09272122790416" lon="11.791426980537635"><ele>17.0</ele><time>2026-04-19T07:57:51.943Z</time></trkpt><trkpt lat="42.09279186644165" lon="11.79136584166315"><ele>17.0</ele><time>2026-04-19T07:57:52.943Z</time></trkpt><trkpt lat="42.092877519597685" lon="11.791292890332608"><ele>17.0</ele><time>2026-04-19T07:57:53.943Z</time></trkpt><trkpt lat="42.09295935054104" lon="11.791223667783054"><ele>17.0</ele><time>2026-04-19T07:57:54.943Z</time></trkpt><trkpt lat="42.09304190044236" lon="11.791153837050866"><ele>17.0</ele><time>2026-04-19T07:57:55.943Z</time></trkpt><trkpt lat="42.09312656946434" lon="11.791083590044328"><ele>17.0</ele><time>2026-04-19T07:57:56.943Z</time></trkpt><trkpt lat="42.09321196994725" lon="11.791017463157363"><ele>17.0</ele><time>2026-04-19T07:57:57.943Z</time></trkpt><trkpt lat="42.09330300107922" lon="11.790955900941455"><ele>17.0</ele><time>2026-04-19T07:57:58.943Z</time></trkpt><trkpt lat="42.093402554855096" lon="11.790892586562213"><ele>17.5</ele><time>2026-04-19T07:57:59.943Z</time></trkpt><trkpt lat="42.093502764730026" lon="11.790841040143455"><ele>18.0</ele><time>2026-04-19T07:58:00.943Z</time></trkpt><trkpt lat="42.09359940505836" lon="11.790774615386413"><ele>18.5</ele><time>2026-04-19T07:58:01.943Z</time></trkpt><trkpt lat="42.09371825781141" lon="11.790727460371583"><ele>19.0</ele><time>2026-04-19T07:58:02.943Z</time></trkpt><trkpt lat="42.09384057874449" lon="11.790662988772997"><ele>19.0</ele><time>2026-04-19T07:58:03.943Z</time></trkpt><trkpt lat="42.09396898092861" lon="11.790590535775578"><ele>19.0</ele><time>2026-04-19T07:58:04.943Z</time></trkpt><trkpt lat="42.09410677679143" lon="11.790545766451952"><ele>19.0</ele><time>2026-04-19T07:58:05.943Z</time></trkpt><trkpt lat="42.094233819519594" lon="11.790472403294402"><ele>19.0</ele><time>2026-04-19T07:58:06.943Z</time></trkpt><trkpt lat="42.0943347244449" lon="11.790385431008959"><ele>18.2</ele><time>2026-04-19T07:58:07.943Z</time></trkpt><trkpt lat="42.09441872795668" lon="11.790289884324814"><ele>17.4</ele><time>2026-04-19T07:58:08.943Z</time></trkpt><trkpt lat="42.094503468000504" lon="11.790195687776384"><ele>16.6</ele><time>2026-04-19T07:58:09.943Z</time></trkpt><trkpt lat="42.09458888156363" lon="11.790132836201572"><ele>15.8</ele><time>2026-04-19T07:58:10.943Z</time></trkpt><trkpt lat="42.09467428155696" lon="11.790060718970196"><ele>15.0</ele><time>2026-04-19T07:58:11.943Z</time></trkpt><trkpt lat="42.09476313466753" lon="11.789995033313327"><ele>14.0</ele><time>2026-04-19T07:58:12.943Z</time></trkpt><trkpt lat="42.094859214437065" lon="11.789948721726288"><ele>13.0</ele><time>2026-04-19T07:58:13.943Z</time></trkpt><trkpt lat="42.09496484339897" lon="11.789920979471011"><ele>12.0</ele><time>2026-04-19T07:58:14.943Z</time></trkpt><trkpt lat="42.095066390870834" lon="11.789899051861052"><ele>11.0</ele><time>2026-04-19T07:58:15.943Z</time></trkpt><trkpt lat="42.09515885211539" lon="11.78988378211724"><ele>10.0</ele><time>2026-04-19T07:58:16.943Z</time></trkpt><trkpt lat="42.09525075307419" lon="11.789866031098018"><ele>10.0</ele><time>2026-04-19T07:58:17.943Z</time></trkpt><trkpt lat="42.09535004215965" lon="11.789851306079402"><ele>10.0</ele><time>2026-04-19T07:58:18.943Z</time></trkpt><trkpt lat="42.09546893384438" lon="11.789813247265355"><ele>10.0</ele><time>2026-04-19T07:58:19.943Z</time></trkpt><trkpt lat="42.09560129002296" lon="11.78977001741013"><ele>10.0</ele><time>2026-04-19T07:58:20.943Z</time></trkpt><trkpt lat="42.09572340760073" lon="11.789733880752376"><ele>10.0</ele><time>2026-04-19T07:58:21.939Z</time></trkpt><trkpt lat="42.0958407719066" lon="11.789709456128788"><ele>10.0</ele><time>2026-04-19T07:58:22.939Z</time></trkpt><trkpt lat="42.09594753477894" lon="11.789686360071164"><ele>10.0</ele><time>2026-04-19T07:58:23.939Z</time></trkpt><trkpt lat="42.09604410707236" lon="11.789662260674454"><ele>10.0</ele><time>2026-04-19T07:58:24.939Z</time></trkpt><trkpt lat="42.096135813033015" lon="11.789637945338505"><ele>10.0</ele><time>2026-04-19T07:58:25.939Z</time></trkpt><trkpt lat="42.09623028331319" lon="11.789607975982134"><ele>10.0</ele><time>2026-04-19T07:58:26.939Z</time></trkpt><trkpt lat="42.096326738713124" lon="11.789573641283411"><ele>10.0</ele><time>2026-04-19T07:58:27.939Z</time></trkpt><trkpt lat="42.09643076702264" lon="11.789547790255266"><ele>10.0</ele><time>2026-04-19T07:58:28.938Z</time></trkpt><trkpt lat="42.096536119317534" lon="11.78951816781898"><ele>10.0</ele><time>2026-04-19T07:58:29.938Z</time></trkpt><trkpt lat="42.096622349959155" lon="11.78949643627842"><ele>10.0</ele><time>2026-04-19T07:58:30.939Z</time></trkpt><trkpt lat="42.096697988521065" lon="11.78954789687896"><ele>9.571428571428571</ele><time>2026-04-19T07:58:31.938Z</time></trkpt><trkpt lat="42.096762030449796" lon="11.789543578294364"><ele>9.142857142857142</ele><time>2026-04-19T07:58:32.938Z</time></trkpt><trkpt lat="42.096829126265064" lon="11.78953447494876"><ele>8.714285714285715</ele><time>2026-04-19T07:58:33.938Z</time></trkpt><trkpt lat="42.09690240196783" lon="11.789531511309963"><ele>8.285714285714285</ele><time>2026-04-19T07:58:35.938Z</time></trkpt><trkpt lat="42.096973135661315" lon="11.78949982398149"><ele>7.857142857142858</ele><time>2026-04-19T07:58:37.938Z</time></trkpt><trkpt lat="42.09702792514501" lon="11.789426810897378"><ele>7.428571428571429</ele><time>2026-04-19T07:58:38.938Z</time></trkpt><trkpt lat="42.097083911745464" lon="11.789355677537733"><ele>7.0</ele><time>2026-04-19T07:58:39.938Z</time></trkpt><trkpt lat="42.097149337573555" lon="11.789300418765198"><ele>7.000000000000001</ele><time>2026-04-19T07:58:40.938Z</time></trkpt><trkpt lat="42.09721714052483" lon="11.789247966417395"><ele>7.0</ele><time>2026-04-19T07:58:41.938Z</time></trkpt><trkpt lat="42.097292676537634" lon="11.789223920993816"><ele>7.0</ele><time>2026-04-19T07:58:42.938Z</time></trkpt><trkpt lat="42.09741535026599" lon="11.789184999533504"><ele>7.0</ele><time>2026-04-19T07:58:44.938Z</time></trkpt><trkpt lat="42.09747873701139" lon="11.789176205882013"><ele>7.000000000000001</ele><time>2026-04-19T07:58:45.938Z</time></trkpt><trkpt lat="42.09754265597601" lon="11.789173285567001"><ele>7.0</ele><time>2026-04-19T07:58:46.938Z</time></trkpt><trkpt lat="42.0976678193049" lon="11.789178605097247"><ele>7.0</ele><time>2026-04-19T07:58:48.938Z</time></trkpt><trkpt lat="42.09772924901845" lon="11.789151826603563"><ele>7.0</ele><time>2026-04-19T07:58:50.075Z</time></trkpt><trkpt lat="42.09785150008608" lon="11.78907078785501"><ele>7.0</ele><time>2026-04-19T07:58:51.938Z</time></trkpt><trkpt lat="42.09796208460319" lon="11.78901890901962"><ele>7.0</ele><time>2026-04-19T07:58:52.938Z</time></trkpt><trkpt lat="42.098098507728785" lon="11.7889548861243"><ele>7.0</ele><time>2026-04-19T07:58:53.938Z</time></trkpt><trkpt lat="42.09820103533447" lon="11.788899489493378"><ele>6.999999999999999</ele><time>2026-04-19T07:58:54.938Z</time></trkpt><trkpt lat="42.09827923923253" lon="11.788870699447614"><ele>6.999999999999999</ele><time>2026-04-19T07:58:55.938Z</time></trkpt><trkpt lat="42.098365775633866" lon="11.788836141731899"><ele>7.0</ele><time>2026-04-19T07:58:56.938Z</time></trkpt><trkpt lat="42.09845882354248" lon="11.788790436155063"><ele>7.0</ele><time>2026-04-19T07:58:57.938Z</time></trkpt><trkpt lat="42.09854297707362" lon="11.788744637456096"><ele>7.0</ele><time>2026-04-19T07:58:58.938Z</time></trkpt><trkpt lat="42.09862434681513" lon="11.788708614498777"><ele>7.0</ele><time>2026-04-19T07:58:59.938Z</time></trkpt><trkpt lat="42.098739851252844" lon="11.78865306430721"><ele>7.0</ele><time>2026-04-19T07:59:01.938Z</time></trkpt><trkpt lat="42.09882921593942" lon="11.788568646616852"><ele>7.0</ele><time>2026-04-19T07:59:03.938Z</time></trkpt><trkpt lat="42.09889685090786" lon="11.788413659023965"><ele>6.6</ele><time>2026-04-19T07:59:05.938Z</time></trkpt><trkpt lat="42.09894779525805" lon="11.788333159317286"><ele>6.199999999999999</ele><time>2026-04-19T07:59:06.938Z</time></trkpt><trkpt lat="42.09901028656742" lon="11.788247308804465"><ele>5.8</ele><time>2026-04-19T07:59:07.938Z</time></trkpt><trkpt lat="42.09907780073172" lon="11.788159536135945"><ele>5.4</ele><time>2026-04-19T07:59:08.938Z</time></trkpt><trkpt lat="42.09917345346209" lon="11.78804315561668"><ele>5.0</ele><time>2026-04-19T07:59:09.938Z</time></trkpt><trkpt lat="42.09927956881851" lon="11.787940017888277"><ele>6.0</ele><time>2026-04-19T07:59:10.938Z</time></trkpt><trkpt lat="42.09936774393587" lon="11.78784748690028"><ele>7.0</ele><time>2026-04-19T07:59:11.938Z</time></trkpt><trkpt lat="42.09943786216286" lon="11.787765472029832"><ele>8.0</ele><time>2026-04-19T07:59:12.938Z</time></trkpt><trkpt lat="42.099504115878936" lon="11.787697351796892"><ele>9.0</ele><time>2026-04-19T07:59:13.938Z</time></trkpt><trkpt lat="42.09956708149629" lon="11.787627407382905"><ele>10.0</ele><time>2026-04-19T07:59:14.938Z</time></trkpt><trkpt lat="42.09963450703966" lon="11.787526863261377"><ele>10.0</ele><time>2026-04-19T07:59:15.938Z</time></trkpt><trkpt lat="42.09972113505287" lon="11.787419889411243"><ele>10.0</ele><time>2026-04-19T07:59:16.938Z</time></trkpt><trkpt lat="42.09982317042284" lon="11.78729974068819"><ele>10.0</ele><time>2026-04-19T07:59:17.938Z</time></trkpt><trkpt lat="42.09994673560397" lon="11.78718074950401"><ele>10.0</ele><time>2026-04-19T07:59:18.938Z</time></trkpt><trkpt lat="42.100087124097676" lon="11.787063030664376"><ele>10.0</ele><time>2026-04-19T07:59:19.938Z</time></trkpt><trkpt lat="42.10023070552794" lon="11.786937620787112"><ele>10.0</ele><time>2026-04-19T07:59:20.938Z</time></trkpt><trkpt lat="42.100375192921575" lon="11.786800828331776"><ele>10.0</ele><time>2026-04-19T07:59:21.938Z</time></trkpt><trkpt lat="42.100521637964505" lon="11.786691299448437"><ele>10.0</ele><time>2026-04-19T07:59:22.938Z</time></trkpt><trkpt lat="42.10066463990858" lon="11.786606222981506"><ele>10.0</ele><time>2026-04-19T07:59:23.938Z</time></trkpt><trkpt lat="42.10081711988499" lon="11.786540989037004"><ele>10.0</ele><time>2026-04-19T07:59:24.938Z</time></trkpt><trkpt lat="42.100966661635745" lon="11.786500283810136"><ele>9.25</ele><time>2026-04-19T07:59:25.938Z</time></trkpt><trkpt lat="42.101103526916106" lon="11.786471604672215"><ele>8.5</ele><time>2026-04-19T07:59:26.938Z</time></trkpt><trkpt lat="42.10123712962191" lon="11.786451678982656"><ele>7.75</ele><time>2026-04-19T07:59:27.938Z</time></trkpt><trkpt lat="42.10136693554275" lon="11.786437139891298"><ele>7.0</ele><time>2026-04-19T07:59:28.938Z</time></trkpt><trkpt lat="42.10149624331574" lon="11.786427029799942"><ele>7.5</ele><time>2026-04-19T07:59:29.938Z</time></trkpt><trkpt lat="42.10161874535456" lon="11.786424780088895"><ele>8.0</ele><time>2026-04-19T07:59:30.938Z</time></trkpt><trkpt lat="42.10175686724655" lon="11.786423339759466"><ele>8.5</ele><time>2026-04-19T07:59:31.938Z</time></trkpt><trkpt lat="42.10190890944622" lon="11.78642161246429"><ele>9.0</ele><time>2026-04-19T07:59:32.938Z</time></trkpt><trkpt lat="42.10207355980748" lon="11.78642806602453"><ele>9.0</ele><time>2026-04-19T07:59:33.938Z</time></trkpt><trkpt lat="42.102245127732786" lon="11.78644497149011"><ele>9.0</ele><time>2026-04-19T07:59:34.938Z</time></trkpt><trkpt lat="42.10240980718129" lon="11.786459297310143"><ele>9.0</ele><time>2026-04-19T07:59:35.938Z</time></trkpt><trkpt lat="42.10255934747003" lon="11.786476206404798"><ele>8.25</ele><time>2026-04-19T07:59:36.938Z</time></trkpt><trkpt lat="42.102699453082316" lon="11.786487562741046"><ele>7.5</ele><time>2026-04-19T07:59:37.938Z</time></trkpt><trkpt lat="42.102833553984276" lon="11.78649653679218"><ele>6.75</ele><time>2026-04-19T07:59:38.938Z</time></trkpt><trkpt lat="42.10296122992772" lon="11.786509949621012"><ele>6.0</ele><time>2026-04-19T07:59:39.938Z</time></trkpt><trkpt lat="42.103105678128365" lon="11.786517836180023"><ele>6.333333333333334</ele><time>2026-04-19T07:59:40.938Z</time></trkpt><trkpt lat="42.10326282700291" lon="11.786511291102629"><ele>6.666666666666667</ele><time>2026-04-19T07:59:41.938Z</time></trkpt><trkpt lat="42.10342542249236" lon="11.786491085730603"><ele>7.0</ele><time>2026-04-19T07:59:42.938Z</time></trkpt><trkpt lat="42.103590472329714" lon="11.786431948543544"><ele>7.0</ele><time>2026-04-19T07:59:43.938Z</time></trkpt><trkpt lat="42.10375207251959" lon="11.78632912261358"><ele>7.0</ele><time>2026-04-19T07:59:44.938Z</time></trkpt><trkpt lat="42.103915917749624" lon="11.786191369834588"><ele>7.0</ele><time>2026-04-19T07:59:45.938Z</time></trkpt><trkpt lat="42.104071156938204" lon="11.786030371213137"><ele>6.666666666666667</ele><time>2026-04-19T07:59:46.938Z</time></trkpt><trkpt lat="42.104207024157425" lon="11.785851435112649"><ele>6.333333333333334</ele><time>2026-04-19T07:59:47.938Z</time></trkpt><trkpt lat="42.10432421315778" lon="11.785650882090271"><ele>6.0</ele><time>2026-04-19T07:59:48.938Z</time></trkpt><trkpt lat="42.10440395862562" lon="11.785433681535562"><ele>6.0</ele><time>2026-04-19T07:59:49.938Z</time></trkpt><trkpt lat="42.104482047245135" lon="11.785224858679587"><ele>6.0</ele><time>2026-04-19T07:59:50.937Z</time></trkpt><trkpt lat="42.10456387885209" lon="11.785030751102758"><ele>6.0</ele><time>2026-04-19T07:59:51.937Z</time></trkpt><trkpt lat="42.104660508435295" lon="11.784843539079764"><ele>6.333333333333334</ele><time>2026-04-19T07:59:52.937Z</time></trkpt><trkpt lat="42.10478822922866" lon="11.784659751305496"><ele>6.666666666666667</ele><time>2026-04-19T07:59:53.937Z</time></trkpt><trkpt lat="42.10492317076519" lon="11.784464410026555"><ele>7.0</ele><time>2026-04-19T07:59:54.937Z</time></trkpt><trkpt lat="42.105058602658005" lon="11.784250730794046"><ele>6.333333333333334</ele><time>2026-04-19T07:59:55.937Z</time></trkpt><trkpt lat="42.10518821550986" lon="11.784060667920539"><ele>5.666666666666667</ele><time>2026-04-19T07:59:56.937Z</time></trkpt><trkpt lat="42.10530969081474" lon="11.783877199570304"><ele>5.0</ele><time>2026-04-19T07:59:57.937Z</time></trkpt><trkpt lat="42.10542955135295" lon="11.783706793574238"><ele>5.0</ele><time>2026-04-19T07:59:58.937Z</time></trkpt><trkpt lat="42.10554822621259" lon="11.783561033657419"><ele>5.0</ele><time>2026-04-19T07:59:59.937Z</time></trkpt><trkpt lat="42.10565981544874" lon="11.783424415113576"><ele>5.0</ele><time>2026-04-19T08:00:00.937Z</time></trkpt><trkpt lat="42.105776531296705" lon="11.783281648614603"><ele>5.0</ele><time>2026-04-19T08:00:01.937Z</time></trkpt><trkpt lat="42.10589615624397" lon="11.78313871468837"><ele>5.0</ele><time>2026-04-19T08:00:02.937Z</time></trkpt><trkpt lat="42.10601303706372" lon="11.782987041987791"><ele>5.0</ele><time>2026-04-19T08:00:03.937Z</time></trkpt><trkpt lat="42.106141004895306" lon="11.782819578602446"><ele>5.0</ele><time>2026-04-19T08:00:04.937Z</time></trkpt><trkpt lat="42.106292221161056" lon="11.782641292409483"><ele>5.0</ele><time>2026-04-19T08:00:05.937Z</time></trkpt><trkpt lat="42.10644745926041" lon="11.78245334555649"><ele>5.0</ele><time>2026-04-19T08:00:06.937Z</time></trkpt><trkpt lat="42.106608519948516" lon="11.782252939352274"><ele>5.0</ele><time>2026-04-19T08:00:07.937Z</time></trkpt><trkpt lat="42.10677528973261" lon="11.782039403888396"><ele>5.0</ele><time>2026-04-19T08:00:08.937Z</time></trkpt><trkpt lat="42.10694559629606" lon="11.781818452161602"><ele>4.666666666666667</ele><time>2026-04-19T08:00:09.937Z</time></trkpt><trkpt lat="42.10710035573196" lon="11.781591830629687"><ele>4.333333333333333</ele><time>2026-04-19T08:00:10.937Z</time></trkpt><trkpt lat="42.10723805833249" lon="11.781371326629829"><ele>4.0</ele><time>2026-04-19T08:00:11.937Z</time></trkpt><trkpt lat="42.107357579059055" lon="11.781133953536212"><ele>4.333333333333333</ele><time>2026-04-19T08:00:12.937Z</time></trkpt><trkpt lat="42.10746434301929" lon="11.780883465835478"><ele>4.666666666666667</ele><time>2026-04-19T08:00:13.937Z</time></trkpt><trkpt lat="42.107561038546635" lon="11.780624414287521"><ele>5.0</ele><time>2026-04-19T08:00:14.937Z</time></trkpt><trkpt lat="42.10765515579475" lon="11.780377476226127"><ele>5.0</ele><time>2026-04-19T08:00:15.937Z</time></trkpt><trkpt lat="42.10774375458396" lon="11.780158478977556"><ele>5.0</ele><time>2026-04-19T08:00:16.937Z</time></trkpt><trkpt lat="42.10782408360028" lon="11.77997368244905"><ele>5.0</ele><time>2026-04-19T08:00:17.937Z</time></trkpt><trkpt lat="42.107893614940934" lon="11.779808457971946"><ele>5.0</ele><time>2026-04-19T08:00:18.937Z</time></trkpt><trkpt lat="42.10797100526774" lon="11.779658237778337"><ele>5.0</ele><time>2026-04-19T08:00:19.937Z</time></trkpt><trkpt lat="42.10805592190646" lon="11.779506365830489"><ele>5.0</ele><time>2026-04-19T08:00:20.937Z</time></trkpt><trkpt lat="42.10814208458709" lon="11.779341466932548"><ele>5.0</ele><time>2026-04-19T08:00:21.937Z</time></trkpt><trkpt lat="42.108230800634544" lon="11.779162883647722"><ele>4.5</ele><time>2026-04-19T08:00:22.937Z</time></trkpt><trkpt lat="42.10832807567876" lon="11.779001586477104"><ele>4.0</ele><time>2026-04-19T08:00:23.937Z</time></trkpt><trkpt lat="42.10842435209509" lon="11.778855049448152"><ele>3.5</ele><time>2026-04-19T08:00:24.937Z</time></trkpt><trkpt lat="42.108523845229044" lon="11.77870912267678"><ele>3.0</ele><time>2026-04-19T08:00:25.937Z</time></trkpt><trkpt lat="42.10863954664267" lon="11.778550883140829"><ele>3.333333333333333</ele><time>2026-04-19T08:00:26.937Z</time></trkpt><trkpt lat="42.10878060098961" lon="11.778397927809705"><ele>3.6666666666666665</ele><time>2026-04-19T08:00:27.934Z</time></trkpt><trkpt lat="42.10893583321473" lon="11.778242421184919"><ele>4.0</ele><time>2026-04-19T08:00:28.933Z</time></trkpt><trkpt lat="42.10910156639539" lon="11.778087112279511"><ele>4.333333333333333</ele><time>2026-04-19T08:00:29.933Z</time></trkpt><trkpt lat="42.109275327202795" lon="11.77794940471966"><ele>4.666666666666667</ele><time>2026-04-19T08:00:30.933Z</time></trkpt><trkpt lat="42.10945798502508" lon="11.777834723442922"><ele>5.0</ele><time>2026-04-19T08:00:31.934Z</time></trkpt><trkpt lat="42.10965261018937" lon="11.777729467933224"><ele>4.0</ele><time>2026-04-19T08:00:32.934Z</time></trkpt><trkpt lat="42.10985439439223" lon="11.777644401642153"><ele>3.0</ele><time>2026-04-19T08:00:33.933Z</time></trkpt><trkpt lat="42.110044390416704" lon="11.77755623112247"><ele>2.0</ele><time>2026-04-19T08:00:34.933Z</time></trkpt><trkpt lat="42.11021642849098" lon="11.777468153019049"><ele>1.6666666666666665</ele><time>2026-04-19T08:00:35.933Z</time></trkpt><trkpt lat="42.11039247939426" lon="11.777367493173845"><ele>1.3333333333333333</ele><time>2026-04-19T08:00:36.933Z</time></trkpt><trkpt lat="42.110572856162044" lon="11.777260484440342"><ele>1.0</ele><time>2026-04-19T08:00:37.933Z</time></trkpt><trkpt lat="42.11074710204328" lon="11.777164469116016"><ele>2.0</ele><time>2026-04-19T08:00:38.933Z</time></trkpt><trkpt lat="42.11090921551517" lon="11.777074367473405"><ele>3.0</ele><time>2026-04-19T08:00:39.933Z</time></trkpt><trkpt lat="42.11105912749644" lon="11.776990231566867"><ele>4.0</ele><time>2026-04-19T08:00:40.932Z</time></trkpt><trkpt lat="42.11119890230755" lon="11.776909587864116"><ele>3.75</ele><time>2026-04-19T08:00:41.932Z</time></trkpt><trkpt lat="42.111326922590905" lon="11.776839272294009"><ele>3.5</ele><time>2026-04-19T08:00:42.932Z</time></trkpt><trkpt lat="42.111449516482125" lon="11.776758536908071"><ele>3.25</ele><time>2026-04-19T08:00:43.932Z</time></trkpt><trkpt lat="42.11157929352938" lon="11.77667019477402"><ele>3.0</ele><time>2026-04-19T08:00:44.932Z</time></trkpt><trkpt lat="42.11170985069342" lon="11.77655524934281"><ele>4.666666666666666</ele><time>2026-04-19T08:00:45.932Z</time></trkpt><trkpt lat="42.11183403304009" lon="11.7764247805963"><ele>6.333333333333333</ele><time>2026-04-19T08:00:46.932Z</time></trkpt><trkpt lat="42.1119620278125" lon="11.77627935947807"><ele>8.0</ele><time>2026-04-19T08:00:47.932Z</time></trkpt><trkpt lat="42.11208999138582" lon="11.77614171510589"><ele>7.333333333333333</ele><time>2026-04-19T08:00:48.932Z</time></trkpt><trkpt lat="42.11221205130085" lon="11.77600540420457"><ele>6.666666666666666</ele><time>2026-04-19T08:00:49.932Z</time></trkpt><trkpt lat="42.11233065786951" lon="11.775867608091392"><ele>6.0</ele><time>2026-04-19T08:00:50.932Z</time></trkpt><trkpt lat="42.112450390717406" lon="11.775734098494423"><ele>6.0</ele><time>2026-04-19T08:00:51.932Z</time></trkpt><trkpt lat="42.11257092373442" lon="11.775587948921158"><ele>6.0</ele><time>2026-04-19T08:00:52.932Z</time></trkpt><trkpt lat="42.1126950279248" lon="11.775444032973507"><ele>6.0</ele><time>2026-04-19T08:00:53.932Z</time></trkpt><trkpt lat="42.11282101248063" lon="11.775303050708091"><ele>5.0</ele><time>2026-04-19T08:00:54.932Z</time></trkpt><trkpt lat="42.112952658698596" lon="11.775167398975976"><ele>4.0</ele><time>2026-04-19T08:00:55.932Z</time></trkpt><trkpt lat="42.113080044787075" lon="11.775026480048199"><ele>3.0</ele><time>2026-04-19T08:00:56.932Z</time></trkpt><trkpt lat="42.11322286838026" lon="11.774888569559526"><ele>3.666666666666667</ele><time>2026-04-19T08:00:57.932Z</time></trkpt><trkpt lat="42.1133666613364" lon="11.774742917119086"><ele>4.333333333333334</ele><time>2026-04-19T08:00:58.932Z</time></trkpt><trkpt lat="42.1134966467245" lon="11.774592336112704"><ele>5.0</ele><time>2026-04-19T08:00:59.932Z</time></trkpt><trkpt lat="42.11362954135585" lon="11.774435614928588"><ele>4.666666666666667</ele><time>2026-04-19T08:01:00.932Z</time></trkpt><trkpt lat="42.113767439271655" lon="11.77427771390981"><ele>4.333333333333333</ele><time>2026-04-19T08:01:01.932Z</time></trkpt><trkpt lat="42.113902737162796" lon="11.774110204201605"><ele>4.0</ele><time>2026-04-19T08:01:02.932Z</time></trkpt><trkpt lat="42.11404436546831" lon="11.773942048611163"><ele>6.0</ele><time>2026-04-19T08:01:03.932Z</time></trkpt><trkpt lat="42.11418336929695" lon="11.773775295132147"><ele>8.0</ele><time>2026-04-19T08:01:04.932Z</time></trkpt><trkpt lat="42.11432587871404" lon="11.773612291985332"><ele>10.0</ele><time>2026-04-19T08:01:05.932Z</time></trkpt><trkpt lat="42.114464100596564" lon="11.773446600100595"><ele>10.333333333333334</ele><time>2026-04-19T08:01:06.932Z</time></trkpt><trkpt lat="42.11460312858339" lon="11.773279460149556"><ele>10.666666666666666</ele><time>2026-04-19T08:01:07.932Z</time></trkpt><trkpt lat="42.11474365371984" lon="11.773118214071168"><ele>11.0</ele><time>2026-04-19T08:01:08.932Z</time></trkpt><trkpt lat="42.114885722727706" lon="11.772956149613359"><ele>11.0</ele><time>2026-04-19T08:01:09.932Z</time></trkpt><trkpt lat="42.11502460121838" lon="11.772793323566436"><ele>11.0</ele><time>2026-04-19T08:01:10.932Z</time></trkpt><trkpt lat="42.115167369065475" lon="11.772628782881627"><ele>11.0</ele><time>2026-04-19T08:01:11.932Z</time></trkpt><trkpt lat="42.11531283485605" lon="11.77246055519584"><ele>11.666666666666666</ele><time>2026-04-19T08:01:12.932Z</time></trkpt><trkpt lat="42.115462719535174" lon="11.772291111621907"><ele>12.333333333333332</ele><time>2026-04-19T08:01:13.932Z</time></trkpt><trkpt lat="42.11561020561312" lon="11.772129274312817"><ele>13.0</ele><time>2026-04-19T08:01:14.932Z</time></trkpt><trkpt lat="42.115748152672374" lon="11.771978418094173"><ele>13.333333333333332</ele><time>2026-04-19T08:01:15.932Z</time></trkpt><trkpt lat="42.115883201601086" lon="11.77181697574208"><ele>13.666666666666668</ele><time>2026-04-19T08:01:16.932Z</time></trkpt><trkpt lat="42.11601976456956" lon="11.771661721768742"><ele>14.0</ele><time>2026-04-19T08:01:17.932Z</time></trkpt><trkpt lat="42.11615886258118" lon="11.771517788250012"><ele>14.0</ele><time>2026-04-19T08:01:18.932Z</time></trkpt><trkpt lat="42.11629657122152" lon="11.771389582668585"><ele>14.0</ele><time>2026-04-19T08:01:19.932Z</time></trkpt><trkpt lat="42.11643589295572" lon="11.771278380164551"><ele>14.0</ele><time>2026-04-19T08:01:20.932Z</time></trkpt><trkpt lat="42.1165851156465" lon="11.771183587908586"><ele>13.333333333333334</ele><time>2026-04-19T08:01:21.932Z</time></trkpt><trkpt lat="42.116743244574856" lon="11.771115025216602"><ele>12.666666666666668</ele><time>2026-04-19T08:01:22.932Z</time></trkpt><trkpt lat="42.11690621248406" lon="11.77108979563123"><ele>12.0</ele><time>2026-04-19T08:01:23.932Z</time></trkpt><trkpt lat="42.11706340895927" lon="11.771091480999226"><ele>12.0</ele><time>2026-04-19T08:01:24.932Z</time></trkpt><trkpt lat="42.117221985541434" lon="11.771141951037311"><ele>12.0</ele><time>2026-04-19T08:01:25.932Z</time></trkpt><trkpt lat="42.11738376198644" lon="11.771200595206075"><ele>12.0</ele><time>2026-04-19T08:01:26.932Z</time></trkpt><trkpt lat="42.11754145047232" lon="11.771249704631359"><ele>11.333333333333334</ele><time>2026-04-19T08:01:27.932Z</time></trkpt><trkpt lat="42.11770275356541" lon="11.7712902635973"><ele>10.666666666666668</ele><time>2026-04-19T08:01:28.932Z</time></trkpt><trkpt lat="42.11786279075661" lon="11.771334360832986"><ele>10.0</ele><time>2026-04-19T08:01:29.932Z</time></trkpt><trkpt lat="42.11802720808759" lon="11.771379303691287"><ele>10.0</ele><time>2026-04-19T08:01:30.932Z</time></trkpt><trkpt lat="42.118187471966614" lon="11.77142744517596"><ele>10.0</ele><time>2026-04-19T08:01:31.932Z</time></trkpt><trkpt lat="42.118338858669844" lon="11.771469127601353"><ele>10.0</ele><time>2026-04-19T08:01:32.932Z</time></trkpt><trkpt lat="42.118486560002594" lon="11.771505540985514"><ele>11.666666666666668</ele><time>2026-04-19T08:01:33.932Z</time></trkpt><trkpt lat="42.11863228761326" lon="11.771538266039135"><ele>13.333333333333334</ele><time>2026-04-19T08:01:34.932Z</time></trkpt><trkpt lat="42.11878248713539" lon="11.771562993447352"><ele>15.0</ele><time>2026-04-19T08:01:35.932Z</time></trkpt><trkpt lat="42.11894046551954" lon="11.77157332658904"><ele>13.333333333333334</ele><time>2026-04-19T08:01:36.932Z</time></trkpt><trkpt lat="42.119102965897724" lon="11.771562659365093"><ele>11.666666666666668</ele><time>2026-04-19T08:01:37.932Z</time></trkpt><trkpt lat="42.11926654201995" lon="11.771538942535358"><ele>10.0</ele><time>2026-04-19T08:01:38.932Z</time></trkpt><trkpt lat="42.119435967779154" lon="11.771497053552899"><ele>10.0</ele><time>2026-04-19T08:01:39.932Z</time></trkpt><trkpt lat="42.11960473035455" lon="11.771420465909738"><ele>10.0</ele><time>2026-04-19T08:01:40.932Z</time></trkpt><trkpt lat="42.119775407127875" lon="11.77133125479154"><ele>10.0</ele><time>2026-04-19T08:01:41.932Z</time></trkpt><trkpt lat="42.1199442299255" lon="11.771245097111406"><ele>9.666666666666668</ele><time>2026-04-19T08:01:42.932Z</time></trkpt><trkpt lat="42.12011260704682" lon="11.771160796366532"><ele>9.333333333333334</ele><time>2026-04-19T08:01:43.932Z</time></trkpt><trkpt lat="42.12027925346364" lon="11.771075488672883"><ele>9.0</ele><time>2026-04-19T08:01:44.932Z</time></trkpt><trkpt lat="42.120444433104176" lon="11.770988644297288"><ele>9.333333333333334</ele><time>2026-04-19T08:01:45.932Z</time></trkpt><trkpt lat="42.12060551188" lon="11.770898600752327"><ele>9.666666666666668</ele><time>2026-04-19T08:01:46.932Z</time></trkpt><trkpt lat="42.120766939001996" lon="11.770811247191329"><ele>10.0</ele><time>2026-04-19T08:01:47.932Z</time></trkpt><trkpt lat="42.120928077239945" lon="11.77072470147721"><ele>10.0</ele><time>2026-04-19T08:01:48.932Z</time></trkpt><trkpt lat="42.12108962017677" lon="11.770641075797085"><ele>10.0</ele><time>2026-04-19T08:01:49.932Z</time></trkpt><trkpt lat="42.121252283027225" lon="11.770571348928579"><ele>10.0</ele><time>2026-04-19T08:01:50.932Z</time></trkpt><trkpt lat="42.121422324385335" lon="11.77051456513993"><ele>10.333333333333334</ele><time>2026-04-19T08:01:51.932Z</time></trkpt><trkpt lat="42.121596466200025" lon="11.77046637509556"><ele>10.666666666666666</ele><time>2026-04-19T08:01:52.932Z</time></trkpt><trkpt lat="42.12177494252991" lon="11.77042600417487"><ele>11.0</ele><time>2026-04-19T08:01:53.932Z</time></trkpt><trkpt lat="42.12195240093318" lon="11.770396901841151"><ele>11.0</ele><time>2026-04-19T08:01:54.932Z</time></trkpt><trkpt lat="42.12212882985202" lon="11.770385150800283"><ele>11.0</ele><time>2026-04-19T08:01:55.932Z</time></trkpt><trkpt lat="42.12230003120851" lon="11.770393354469107"><ele>11.0</ele><time>2026-04-19T08:01:56.932Z</time></trkpt><trkpt lat="42.12246767240104" lon="11.77041877505892"><ele>11.333333333333332</ele><time>2026-04-19T08:01:57.932Z</time></trkpt><trkpt lat="42.12263539714869" lon="11.77045316081325"><ele>11.666666666666666</ele><time>2026-04-19T08:01:58.932Z</time></trkpt><trkpt lat="42.12280379149262" lon="11.770491970949038"><ele>12.0</ele><time>2026-04-19T08:01:59.932Z</time></trkpt><trkpt lat="42.12297360430658" lon="11.770537881673413"><ele>12.0</ele><time>2026-04-19T08:02:00.931Z</time></trkpt><trkpt lat="42.123141899291845" lon="11.77059016425558"><ele>12.0</ele><time>2026-04-19T08:02:01.931Z</time></trkpt><trkpt lat="42.123308158122796" lon="11.770649597685104"><ele>12.0</ele><time>2026-04-19T08:02:02.931Z</time></trkpt><trkpt lat="42.12347141835605" lon="11.77071357295827"><ele>12.0</ele><time>2026-04-19T08:02:03.931Z</time></trkpt><trkpt lat="42.12363423107502" lon="11.77077804062562"><ele>12.0</ele><time>2026-04-19T08:02:04.931Z</time></trkpt><trkpt lat="42.123800357608054" lon="11.770844694778777"><ele>12.0</ele><time>2026-04-19T08:02:05.931Z</time></trkpt><trkpt lat="42.12396350479358" lon="11.77090828142511"><ele>13.666666666666668</ele><time>2026-04-19T08:02:06.931Z</time></trkpt><trkpt lat="42.12412738881765" lon="11.77097341631636"><ele>15.333333333333334</ele><time>2026-04-19T08:02:07.931Z</time></trkpt><trkpt lat="42.12429315627498" lon="11.771035297047655"><ele>17.0</ele><time>2026-04-19T08:02:08.931Z</time></trkpt><trkpt lat="42.124458643683674" lon="11.771098093315159"><ele>17.0</ele><time>2026-04-19T08:02:09.931Z</time></trkpt><trkpt lat="42.12461836527442" lon="11.771159835069689"><ele>17.0</ele><time>2026-04-19T08:02:10.931Z</time></trkpt><trkpt lat="42.12477463048889" lon="11.771218867880794"><ele>17.0</ele><time>2026-04-19T08:02:11.931Z</time></trkpt><trkpt lat="42.12493596657283" lon="11.771273758806858"><ele>18.0</ele><time>2026-04-19T08:02:12.931Z</time></trkpt><trkpt lat="42.1250960926295" lon="11.77133133503081"><ele>19.0</ele><time>2026-04-19T08:02:13.931Z</time></trkpt><trkpt lat="42.12525821878737" lon="11.77139021419915"><ele>20.0</ele><time>2026-04-19T08:02:14.931Z</time></trkpt><trkpt lat="42.12541732915785" lon="11.771464611012599"><ele>20.0</ele><time>2026-04-19T08:02:15.931Z</time></trkpt><trkpt lat="42.125572542325884" lon="11.771552994245843"><ele>20.0</ele><time>2026-04-19T08:02:16.931Z</time></trkpt><trkpt lat="42.125730387718136" lon="11.771652355879608"><ele>20.0</ele><time>2026-04-19T08:02:17.931Z</time></trkpt><trkpt lat="42.1258878776091" lon="11.77177429488717"><ele>21.333333333333336</ele><time>2026-04-19T08:02:18.931Z</time></trkpt><trkpt lat="42.12603869183072" lon="11.771911673870862"><ele>22.666666666666668</ele><time>2026-04-19T08:02:19.931Z</time></trkpt><trkpt lat="42.12618770416354" lon="11.772061118613188"><ele>24.0</ele><time>2026-04-19T08:02:20.931Z</time></trkpt><trkpt lat="42.126337494470704" lon="11.772207799727523"><ele>24.0</ele><time>2026-04-19T08:02:21.931Z</time></trkpt><trkpt lat="42.126483890638745" lon="11.772358661191593"><ele>24.0</ele><time>2026-04-19T08:02:22.931Z</time></trkpt><trkpt lat="42.12663167600548" lon="11.772501234864007"><ele>24.0</ele><time>2026-04-19T08:02:23.931Z</time></trkpt><trkpt lat="42.12678785521877" lon="11.772635912655632"><ele>23.666666666666668</ele><time>2026-04-19T08:02:24.931Z</time></trkpt><trkpt lat="42.12695310603256" lon="11.772750890058047"><ele>23.333333333333336</ele><time>2026-04-19T08:02:25.931Z</time></trkpt><trkpt lat="42.12712131865568" lon="11.772845223476303"><ele>23.0</ele><time>2026-04-19T08:02:26.931Z</time></trkpt><trkpt lat="42.1272898979833" lon="11.772926701520015"><ele>24.333333333333336</ele><time>2026-04-19T08:02:27.931Z</time></trkpt><trkpt lat="42.127461241564006" lon="11.772990696713245"><ele>25.666666666666668</ele><time>2026-04-19T08:02:28.931Z</time></trkpt><trkpt lat="42.12763807798339" lon="11.773031132698268"><ele>27.0</ele><time>2026-04-19T08:02:29.931Z</time></trkpt><trkpt lat="42.127821115274976" lon="11.773059917536083"><ele>27.0</ele><time>2026-04-19T08:02:30.931Z</time></trkpt><trkpt lat="42.12800800422353" lon="11.773078599292601"><ele>27.0</ele><time>2026-04-19T08:02:31.931Z</time></trkpt><trkpt lat="42.128195569033586" lon="11.77308816625968"><ele>27.0</ele><time>2026-04-19T08:02:32.931Z</time></trkpt><trkpt lat="42.128383849039324" lon="11.773089755919283"><ele>27.333333333333336</ele><time>2026-04-19T08:02:33.928Z</time></trkpt><trkpt lat="42.12856194591575" lon="11.773094076271377"><ele>27.666666666666668</ele><time>2026-04-19T08:02:34.927Z</time></trkpt><trkpt lat="42.12873641729106" lon="11.77309709648504"><ele>28.0</ele><time>2026-04-19T08:02:35.927Z</time></trkpt><trkpt lat="42.12890844949355" lon="11.773106152847458"><ele>29.0</ele><time>2026-04-19T08:02:36.928Z</time></trkpt><trkpt lat="42.12907202688684" lon="11.773113540810062"><ele>30.0</ele><time>2026-04-19T08:02:37.928Z</time></trkpt><trkpt lat="42.1292342524509" lon="11.773118753342496"><ele>31.0</ele><time>2026-04-19T08:02:38.928Z</time></trkpt><trkpt lat="42.12939551130686" lon="11.773124641699342"><ele>31.0</ele><time>2026-04-19T08:02:39.927Z</time></trkpt><trkpt lat="42.12955219682242" lon="11.773128609727674"><ele>31.0</ele><time>2026-04-19T08:02:40.928Z</time></trkpt><trkpt lat="42.12970846135941" lon="11.773128580221426"><ele>31.0</ele><time>2026-04-19T08:02:41.928Z</time></trkpt><trkpt lat="42.12986256527248" lon="11.773124529706356"><ele>31.75</ele><time>2026-04-19T08:02:42.927Z</time></trkpt><trkpt lat="42.13000847643484" lon="11.773120523652212"><ele>32.5</ele><time>2026-04-19T08:02:43.927Z</time></trkpt><trkpt lat="42.13014109913334" lon="11.773110764127537"><ele>33.25</ele><time>2026-04-19T08:02:44.927Z</time></trkpt><trkpt lat="42.130268131238" lon="11.773098232453238"><ele>34.0</ele><time>2026-04-19T08:02:45.927Z</time></trkpt><trkpt lat="42.130384984641395" lon="11.773087726605686"><ele>34.0</ele><time>2026-04-19T08:02:46.928Z</time></trkpt><trkpt lat="42.130490506193865" lon="11.773077403263267"><ele>34.0</ele><time>2026-04-19T08:02:47.928Z</time></trkpt><trkpt lat="42.130593116076305" lon="11.773085360358229"><ele>34.0</ele><time>2026-04-19T08:02:48.928Z</time></trkpt><trkpt lat="42.13068814186151" lon="11.773120075085306"><ele>34.0</ele><time>2026-04-19T08:02:49.928Z</time></trkpt><trkpt lat="42.130777423276164" lon="11.773181006725878"><ele>34.0</ele><time>2026-04-19T08:02:50.928Z</time></trkpt><trkpt lat="42.13084350286567" lon="11.773287915189321"><ele>34.0</ele><time>2026-04-19T08:02:51.928Z</time></trkpt><trkpt lat="42.13088959541055" lon="11.773419135546815"><ele>34.0</ele><time>2026-04-19T08:02:52.928Z</time></trkpt><trkpt lat="42.13092213325542" lon="11.773572044058017"><ele>34.0</ele><time>2026-04-19T08:02:53.928Z</time></trkpt><trkpt lat="42.130953848998686" lon="11.773731727138886"><ele>34.0</ele><time>2026-04-19T08:02:54.928Z</time></trkpt><trkpt lat="42.131008091222" lon="11.773900289004251"><ele>33.333333333333336</ele><time>2026-04-19T08:02:55.928Z</time></trkpt><trkpt lat="42.13108072805802" lon="11.774074246270706"><ele>32.666666666666664</ele><time>2026-04-19T08:02:56.928Z</time></trkpt><trkpt lat="42.13117510322292" lon="11.774249205270557"><ele>32.0</ele><time>2026-04-19T08:02:57.928Z</time></trkpt><trkpt lat="42.13128026393617" lon="11.774427380346856"><ele>32.666666666666664</ele><time>2026-04-19T08:02:58.928Z</time></trkpt><trkpt lat="42.13138795008118" lon="11.774597276721117"><ele>33.333333333333336</ele><time>2026-04-19T08:02:59.927Z</time></trkpt><trkpt lat="42.13148562235164" lon="11.774760630235017"><ele>34.0</ele><time>2026-04-19T08:03:00.927Z</time></trkpt><trkpt lat="42.13157962046799" lon="11.774918437406743"><ele>34.0</ele><time>2026-04-19T08:03:01.927Z</time></trkpt><trkpt lat="42.1316752796309" lon="11.775073786659402"><ele>34.0</ele><time>2026-04-19T08:03:02.927Z</time></trkpt><trkpt lat="42.131767878444464" lon="11.775219702266131"><ele>34.0</ele><time>2026-04-19T08:03:03.927Z</time></trkpt><trkpt lat="42.131862640355806" lon="11.775364326456046"><ele>34.0</ele><time>2026-04-19T08:03:04.927Z</time></trkpt><trkpt lat="42.13196274963335" lon="11.775510462590985"><ele>34.25</ele><time>2026-04-19T08:03:05.927Z</time></trkpt><trkpt lat="42.13205953314926" lon="11.775649274959932"><ele>34.5</ele><time>2026-04-19T08:03:06.927Z</time></trkpt><trkpt lat="42.132157634575194" lon="11.775755166847315"><ele>34.75</ele><time>2026-04-19T08:03:07.927Z</time></trkpt><trkpt lat="42.132260556299066" lon="11.775821528190738"><ele>35.0</ele><time>2026-04-19T08:03:08.927Z</time></trkpt><trkpt lat="42.1323748926056" lon="11.775851580648983"><ele>36.5</ele><time>2026-04-19T08:03:09.927Z</time></trkpt><trkpt lat="42.132497676363606" lon="11.775856198169066"><ele>38.0</ele><time>2026-04-19T08:03:10.927Z</time></trkpt><trkpt lat="42.132627462699375" lon="11.775829989287816"><ele>39.5</ele><time>2026-04-19T08:03:11.927Z</time></trkpt><trkpt lat="42.13276117502385" lon="11.775796463814196"><ele>41.0</ele><time>2026-04-19T08:03:12.927Z</time></trkpt><trkpt lat="42.13290066532621" lon="11.775754920026671"><ele>41.0</ele><time>2026-04-19T08:03:13.927Z</time></trkpt><trkpt lat="42.13305017867059" lon="11.775729618984903"><ele>41.0</ele><time>2026-04-19T08:03:14.927Z</time></trkpt><trkpt lat="42.1332088041714" lon="11.775719264605193"><ele>41.0</ele><time>2026-04-19T08:03:15.927Z</time></trkpt><trkpt lat="42.13337188330856" lon="11.775725361552201"><ele>43.33333333333333</ele><time>2026-04-19T08:03:16.927Z</time></trkpt><trkpt lat="42.13353742277312" lon="11.775748281502675"><ele>45.666666666666664</ele><time>2026-04-19T08:03:17.927Z</time></trkpt><trkpt lat="42.13370018755781" lon="11.77578570911949"><ele>48.0</ele><time>2026-04-19T08:03:18.927Z</time></trkpt><trkpt lat="42.13385872975101" lon="11.775834776509145"><ele>48.0</ele><time>2026-04-19T08:03:19.927Z</time></trkpt><trkpt lat="42.13401948398966" lon="11.775895962100366"><ele>48.0</ele><time>2026-04-19T08:03:20.927Z</time></trkpt><trkpt lat="42.134176568769696" lon="11.775978624836785"><ele>48.0</ele><time>2026-04-19T08:03:21.927Z</time></trkpt><trkpt lat="42.134335684432436" lon="11.776086741323214"><ele>49.33333333333333</ele><time>2026-04-19T08:03:22.927Z</time></trkpt><trkpt lat="42.134487118159086" lon="11.7762195113155"><ele>50.666666666666664</ele><time>2026-04-19T08:03:23.927Z</time></trkpt><trkpt lat="42.13462722478857" lon="11.77636021841558"><ele>52.0</ele><time>2026-04-19T08:03:24.927Z</time></trkpt><trkpt lat="42.13476408736051" lon="11.776513293049975"><ele>53.33333333333333</ele><time>2026-04-19T08:03:25.927Z</time></trkpt><trkpt lat="42.13489104299098" lon="11.776675216191066"><ele>54.66666666666667</ele><time>2026-04-19T08:03:26.927Z</time></trkpt><trkpt lat="42.135013557294556" lon="11.776832206621307"><ele>56.0</ele><time>2026-04-19T08:03:27.927Z</time></trkpt><trkpt lat="42.13513273426032" lon="11.776989552805153"><ele>56.0</ele><time>2026-04-19T08:03:28.927Z</time></trkpt><trkpt lat="42.13524993709844" lon="11.777145320243346"><ele>56.0</ele><time>2026-04-19T08:03:29.927Z</time></trkpt><trkpt lat="42.135361369250084" lon="11.777318953964555"><ele>56.0</ele><time>2026-04-19T08:03:30.927Z</time></trkpt><trkpt lat="42.13546768465131" lon="11.777490603296593"><ele>56.0</ele><time>2026-04-19T08:03:31.927Z</time></trkpt><trkpt lat="42.13557557979391" lon="11.777665486073621"><ele>56.0</ele><time>2026-04-19T08:03:32.927Z</time></trkpt><trkpt lat="42.13568663253191" lon="11.777842525804806"><ele>56.0</ele><time>2026-04-19T08:03:33.927Z</time></trkpt><trkpt lat="42.13579876197708" lon="11.778013008145761"><ele>55.333333333333336</ele><time>2026-04-19T08:03:34.927Z</time></trkpt><trkpt lat="42.13591308171332" lon="11.778198598927245"><ele>54.66666666666667</ele><time>2026-04-19T08:03:35.927Z</time></trkpt><trkpt lat="42.13602974894184" lon="11.778374408799493"><ele>54.0</ele><time>2026-04-19T08:03:36.927Z</time></trkpt><trkpt lat="42.13614195715749" lon="11.778542310852064"><ele>53.0</ele><time>2026-04-19T08:03:37.927Z</time></trkpt><trkpt lat="42.13624961833412" lon="11.778707989590576"><ele>52.0</ele><time>2026-04-19T08:03:38.927Z</time></trkpt><trkpt lat="42.136357849731475" lon="11.778872551531082"><ele>51.0</ele><time>2026-04-19T08:03:39.927Z</time></trkpt><trkpt lat="42.13646748815844" lon="11.779035250394829"><ele>52.33333333333333</ele><time>2026-04-19T08:03:40.927Z</time></trkpt><trkpt lat="42.1365755022441" lon="11.779198595148467"><ele>53.666666666666664</ele><time>2026-04-19T08:03:41.927Z</time></trkpt><trkpt lat="42.13668372392517" lon="11.779363152817986"><ele>55.0</ele><time>2026-04-19T08:03:42.927Z</time></trkpt><trkpt lat="42.136789334030475" lon="11.779529192440965"><ele>55.0</ele><time>2026-04-19T08:03:43.927Z</time></trkpt><trkpt lat="42.13689806043304" lon="11.779697997059415"><ele>55.0</ele><time>2026-04-19T08:03:44.927Z</time></trkpt><trkpt lat="42.137006908698076" lon="11.779866145268551"><ele>55.0</ele><time>2026-04-19T08:03:45.927Z</time></trkpt><trkpt lat="42.13712022361963" lon="11.780038040032602"><ele>55.33333333333333</ele><time>2026-04-19T08:03:46.927Z</time></trkpt><trkpt lat="42.13723488673714" lon="11.780209091068992"><ele>55.66666666666667</ele><time>2026-04-19T08:03:47.927Z</time></trkpt><trkpt lat="42.13734244641877" lon="11.780376545807028"><ele>56.0</ele><time>2026-04-19T08:03:48.927Z</time></trkpt><trkpt lat="42.13743832631668" lon="11.780528043272218"><ele>56.0</ele><time>2026-04-19T08:03:49.927Z</time></trkpt><trkpt lat="42.1375351442841" lon="11.780681819127238"><ele>56.0</ele><time>2026-04-19T08:03:50.927Z</time></trkpt><trkpt lat="42.137636109584804" lon="11.780838395518947"><ele>56.0</ele><time>2026-04-19T08:03:51.927Z</time></trkpt><trkpt lat="42.13773815574268" lon="11.780998855898535"><ele>56.333333333333336</ele><time>2026-04-19T08:03:52.927Z</time></trkpt><trkpt lat="42.137840977088935" lon="11.781159546918834"><ele>56.66666666666667</ele><time>2026-04-19T08:03:53.927Z</time></trkpt><trkpt lat="42.13794382209831" lon="11.781314953540369"><ele>57.0</ele><time>2026-04-19T08:03:54.927Z</time></trkpt><trkpt lat="42.138048387437884" lon="11.781470728124322"><ele>57.0</ele><time>2026-04-19T08:03:55.927Z</time></trkpt><trkpt lat="42.13815112859364" lon="11.781619698243928"><ele>57.0</ele><time>2026-04-19T08:03:56.927Z</time></trkpt><trkpt lat="42.13825099468197" lon="11.7817633931315"><ele>57.0</ele><time>2026-04-19T08:03:57.927Z</time></trkpt><trkpt lat="42.138339602045825" lon="11.781902980582602"><ele>57.0</ele><time>2026-04-19T08:03:58.927Z</time></trkpt><trkpt lat="42.138423810627394" lon="11.782036791170734"><ele>58.0</ele><time>2026-04-19T08:03:59.927Z</time></trkpt><trkpt lat="42.138506312837784" lon="11.782168125663507"><ele>59.0</ele><time>2026-04-19T08:04:00.927Z</time></trkpt><trkpt lat="42.138591166000495" lon="11.782299762663461"><ele>60.0</ele><time>2026-04-19T08:04:01.927Z</time></trkpt><trkpt lat="42.13867706127096" lon="11.78243198692313"><ele>61.0</ele><time>2026-04-19T08:04:02.927Z</time></trkpt><trkpt lat="42.138761296412" lon="11.78256408402688"><ele>61.25</ele><time>2026-04-19T08:04:03.927Z</time></trkpt><trkpt lat="42.13884530687314" lon="11.782695860463123"><ele>61.5</ele><time>2026-04-19T08:04:04.927Z</time></trkpt><trkpt lat="42.13892948855989" lon="11.782823512200501"><ele>61.75</ele><time>2026-04-19T08:04:05.927Z</time></trkpt><trkpt lat="42.139008782167814" lon="11.78295724698933"><ele>62.0</ele><time>2026-04-19T08:04:06.927Z</time></trkpt><trkpt lat="42.13908917128994" lon="11.783086575860153"><ele>62.0</ele><time>2026-04-19T08:04:07.927Z</time></trkpt><trkpt lat="42.1391699435671" lon="11.783212669266659"><ele>62.0</ele><time>2026-04-19T08:04:08.927Z</time></trkpt><trkpt lat="42.13925294147176" lon="11.783340140461442"><ele>62.0</ele><time>2026-04-19T08:04:09.927Z</time></trkpt><trkpt lat="42.13933949873462" lon="11.783465591536448"><ele>62.0</ele><time>2026-04-19T08:04:10.927Z</time></trkpt><trkpt lat="42.13942722369644" lon="11.783588391049255"><ele>62.25</ele><time>2026-04-19T08:04:11.927Z</time></trkpt><trkpt lat="42.13951548159391" lon="11.783717953401002"><ele>62.5</ele><time>2026-04-19T08:04:12.927Z</time></trkpt><trkpt lat="42.13959966753126" lon="11.783842266764376"><ele>62.75</ele><time>2026-04-19T08:04:13.927Z</time></trkpt><trkpt lat="42.13968636938547" lon="11.783968857039294"><ele>63.0</ele><time>2026-04-19T08:04:14.927Z</time></trkpt><trkpt lat="42.13977134364373" lon="11.784098011641232"><ele>63.0</ele><time>2026-04-19T08:04:15.927Z</time></trkpt><trkpt lat="42.139854048714774" lon="11.784224908200597"><ele>63.0</ele><time>2026-04-19T08:04:16.927Z</time></trkpt><trkpt lat="42.139932607488795" lon="11.784350839200984"><ele>63.0</ele><time>2026-04-19T08:04:17.927Z</time></trkpt><trkpt lat="42.140011560804716" lon="11.784472864485855"><ele>63.0</ele><time>2026-04-19T08:04:18.927Z</time></trkpt><trkpt lat="42.140095390203854" lon="11.784591124726667"><ele>63.0</ele><time>2026-04-19T08:04:19.927Z</time></trkpt><trkpt lat="42.14017086441382" lon="11.784703258190985"><ele>63.0</ele><time>2026-04-19T08:04:20.927Z</time></trkpt><trkpt lat="42.14024308180488" lon="11.784816819351722"><ele>63.0</ele><time>2026-04-19T08:04:21.927Z</time></trkpt><trkpt lat="42.140320685082415" lon="11.78492120125075"><ele>63.0</ele><time>2026-04-19T08:04:22.927Z</time></trkpt><trkpt lat="42.140401198267874" lon="11.785024836993426"><ele>63.0</ele><time>2026-04-19T08:04:23.927Z</time></trkpt><trkpt lat="42.14047818524759" lon="11.785132638094057"><ele>63.0</ele><time>2026-04-19T08:04:24.927Z</time></trkpt><trkpt lat="42.14055162236478" lon="11.785252487471073"><ele>63.0</ele><time>2026-04-19T08:04:25.927Z</time></trkpt><trkpt lat="42.14061779515562" lon="11.785366471369393"><ele>63.0</ele><time>2026-04-19T08:04:26.927Z</time></trkpt><trkpt lat="42.14069164516778" lon="11.78547813522655"><ele>63.0</ele><time>2026-04-19T08:04:27.927Z</time></trkpt><trkpt lat="42.140765113794146" lon="11.785590354177819"><ele>63.0</ele><time>2026-04-19T08:04:28.927Z</time></trkpt><trkpt lat="42.140835642900676" lon="11.785701314696748"><ele>63.0</ele><time>2026-04-19T08:04:29.927Z</time></trkpt><trkpt lat="42.140912943380485" lon="11.785814126448733"><ele>63.0</ele><time>2026-04-19T08:04:30.927Z</time></trkpt><trkpt lat="42.14098979283767" lon="11.785924636747396"><ele>63.0</ele><time>2026-04-19T08:04:31.927Z</time></trkpt><trkpt lat="42.14106814977513" lon="11.786037470963324"><ele>63.0</ele><time>2026-04-19T08:04:32.927Z</time></trkpt><trkpt lat="42.14115133163876" lon="11.786163275378545"><ele>63.0</ele><time>2026-04-19T08:04:33.927Z</time></trkpt><trkpt lat="42.14123704283839" lon="11.786300750779247"><ele>63.0</ele><time>2026-04-19T08:04:34.927Z</time></trkpt><trkpt lat="42.141323450669276" lon="11.786441717510197"><ele>63.0</ele><time>2026-04-19T08:04:35.927Z</time></trkpt><trkpt lat="42.141419846379584" lon="11.786589382457917"><ele>63.0</ele><time>2026-04-19T08:04:36.927Z</time></trkpt><trkpt lat="42.14151075296467" lon="11.786743763305468"><ele>62.75</ele><time>2026-04-19T08:04:37.926Z</time></trkpt><trkpt lat="42.14160535907833" lon="11.786897916846804"><ele>62.5</ele><time>2026-04-19T08:04:38.926Z</time></trkpt><trkpt lat="42.14170344075288" lon="11.787052068553818"><ele>62.25</ele><time>2026-04-19T08:04:39.922Z</time></trkpt><trkpt lat="42.141794777215345" lon="11.787205760016512"><ele>62.0</ele><time>2026-04-19T08:04:40.922Z</time></trkpt><trkpt lat="42.14189388903881" lon="11.787351939777535"><ele>62.0</ele><time>2026-04-19T08:04:41.922Z</time></trkpt><trkpt lat="42.14199440745986" lon="11.787487949479726"><ele>62.0</ele><time>2026-04-19T08:04:42.922Z</time></trkpt><trkpt lat="42.14210353395486" lon="11.787613012067913"><ele>62.0</ele><time>2026-04-19T08:04:43.922Z</time></trkpt><trkpt lat="42.14223538353584" lon="11.787706462659829"><ele>62.0</ele><time>2026-04-19T08:04:44.922Z</time></trkpt><trkpt lat="42.14238997073075" lon="11.787793231384272"><ele>60.0</ele><time>2026-04-19T08:04:45.922Z</time></trkpt><trkpt lat="42.14254333982901" lon="11.787881024893306"><ele>58.0</ele><time>2026-04-19T08:04:46.922Z</time></trkpt><trkpt lat="42.14269002964856" lon="11.787974642777423"><ele>56.0</ele><time>2026-04-19T08:04:47.922Z</time></trkpt><trkpt lat="42.1428318738627" lon="11.788061797176233"><ele>56.0</ele><time>2026-04-19T08:04:48.922Z</time></trkpt><trkpt lat="42.14296835600267" lon="11.788142283916937"><ele>56.0</ele><time>2026-04-19T08:04:49.921Z</time></trkpt><trkpt lat="42.1431053755669" lon="11.78822126229288"><ele>56.0</ele><time>2026-04-19T08:04:50.921Z</time></trkpt><trkpt lat="42.14324901106717" lon="11.78830180830262"><ele>54.333333333333336</ele><time>2026-04-19T08:04:51.921Z</time></trkpt><trkpt lat="42.14339247083213" lon="11.788382458802786"><ele>52.66666666666667</ele><time>2026-04-19T08:04:52.922Z</time></trkpt><trkpt lat="42.14353929098257" lon="11.788463357425215"><ele>51.0</ele><time>2026-04-19T08:04:53.922Z</time></trkpt><trkpt lat="42.14368729023617" lon="11.788541825090492"><ele>50.66666666666667</ele><time>2026-04-19T08:04:54.922Z</time></trkpt><trkpt lat="42.143838521142314" lon="11.788616422027657"><ele>50.333333333333336</ele><time>2026-04-19T08:04:55.922Z</time></trkpt><trkpt lat="42.14399119696338" lon="11.788686803661207"><ele>50.0</ele><time>2026-04-19T08:04:56.922Z</time></trkpt><trkpt lat="42.14414545684151" lon="11.788749570124995"><ele>48.333333333333336</ele><time>2026-04-19T08:04:57.922Z</time></trkpt><trkpt lat="42.14430697635919" lon="11.788794848627852"><ele>46.66666666666667</ele><time>2026-04-19T08:04:58.922Z</time></trkpt><trkpt lat="42.14447214263758" lon="11.788821632297822"><ele>45.0</ele><time>2026-04-19T08:04:59.922Z</time></trkpt><trkpt lat="42.14464173373608" lon="11.788843053827113"><ele>45.0</ele><time>2026-04-19T08:05:00.922Z</time></trkpt><trkpt lat="42.14480742791401" lon="11.788859449861974"><ele>45.0</ele><time>2026-04-19T08:05:01.922Z</time></trkpt><trkpt lat="42.144966868089696" lon="11.788875711729899"><ele>45.0</ele><time>2026-04-19T08:05:02.922Z</time></trkpt><trkpt lat="42.14512836916155" lon="11.788892032516227"><ele>43.333333333333336</ele><time>2026-04-19T08:05:03.922Z</time></trkpt><trkpt lat="42.145284509358746" lon="11.788904230395067"><ele>41.66666666666667</ele><time>2026-04-19T08:05:04.922Z</time></trkpt><trkpt lat="42.14544693120675" lon="11.788917014464136"><ele>40.0</ele><time>2026-04-19T08:05:05.922Z</time></trkpt><trkpt lat="42.14561044447303" lon="11.788924758048282"><ele>38.333333333333336</ele><time>2026-04-19T08:05:06.922Z</time></trkpt><trkpt lat="42.14577902476668" lon="11.78892522764303"><ele>36.666666666666664</ele><time>2026-04-19T08:05:07.922Z</time></trkpt><trkpt lat="42.14595262593701" lon="11.788932284984707"><ele>35.0</ele><time>2026-04-19T08:05:08.921Z</time></trkpt><trkpt lat="42.146126854681526" lon="11.788935162189677"><ele>35.0</ele><time>2026-04-19T08:05:09.921Z</time></trkpt><trkpt lat="42.14629550835952" lon="11.788932099426015"><ele>35.0</ele><time>2026-04-19T08:05:10.921Z</time></trkpt><trkpt lat="42.146462661672565" lon="11.78892469995491"><ele>35.0</ele><time>2026-04-19T08:05:11.921Z</time></trkpt><trkpt lat="42.14662745076925" lon="11.788906991491556"><ele>34.0</ele><time>2026-04-19T08:05:12.921Z</time></trkpt><trkpt lat="42.14679645859842" lon="11.788881605148589"><ele>33.0</ele><time>2026-04-19T08:05:13.921Z</time></trkpt><trkpt lat="42.1469711011555" lon="11.78884868414975"><ele>32.0</ele><time>2026-04-19T08:05:14.921Z</time></trkpt><trkpt lat="42.147146673788995" lon="11.788812603561498"><ele>32.0</ele><time>2026-04-19T08:05:15.921Z</time></trkpt><trkpt lat="42.14732228264529" lon="11.788774558499695"><ele>32.0</ele><time>2026-04-19T08:05:16.921Z</time></trkpt><trkpt lat="42.14748910090978" lon="11.788733972190686"><ele>32.0</ele><time>2026-04-19T08:05:17.921Z</time></trkpt><trkpt lat="42.14765603996671" lon="11.788688728552426"><ele>32.0</ele><time>2026-04-19T08:05:18.921Z</time></trkpt><trkpt lat="42.147824414838716" lon="11.788634053721353"><ele>32.0</ele><time>2026-04-19T08:05:19.921Z</time></trkpt><trkpt lat="42.1479927615758" lon="11.788570105522886"><ele>32.0</ele><time>2026-04-19T08:05:20.921Z</time></trkpt><trkpt lat="42.1481598889418" lon="11.788500200334552"><ele>30.666666666666664</ele><time>2026-04-19T08:05:21.921Z</time></trkpt><trkpt lat="42.14832503464181" lon="11.788425898586505"><ele>29.333333333333336</ele><time>2026-04-19T08:05:22.921Z</time></trkpt><trkpt lat="42.14849306057585" lon="11.788345492439358"><ele>28.0</ele><time>2026-04-19T08:05:23.921Z</time></trkpt><trkpt lat="42.14865969590595" lon="11.788264901136259"><ele>28.0</ele><time>2026-04-19T08:05:24.921Z</time></trkpt><trkpt lat="42.148823030304584" lon="11.788190532361837"><ele>28.0</ele><time>2026-04-19T08:05:25.921Z</time></trkpt><trkpt lat="42.14898237641001" lon="11.788126247348282"><ele>28.0</ele><time>2026-04-19T08:05:26.921Z</time></trkpt><trkpt lat="42.14914464061721" lon="11.788066890631445"><ele>27.0</ele><time>2026-04-19T08:05:27.921Z</time></trkpt><trkpt lat="42.14931786438916" lon="11.788022629121164"><ele>26.0</ele><time>2026-04-19T08:05:28.921Z</time></trkpt><trkpt lat="42.14949460608841" lon="11.787976292993713"><ele>25.0</ele><time>2026-04-19T08:05:29.921Z</time></trkpt><trkpt lat="42.14966121921454" lon="11.78794250839006"><ele>25.0</ele><time>2026-04-19T08:05:30.921Z</time></trkpt><trkpt lat="42.149835435324924" lon="11.787945818637693"><ele>25.0</ele><time>2026-04-19T08:05:31.921Z</time></trkpt><trkpt lat="42.15001045132073" lon="11.787981041204988"><ele>25.0</ele><time>2026-04-19T08:05:32.921Z</time></trkpt><trkpt lat="42.150188064802045" lon="11.788043632508366"><ele>24.0</ele><time>2026-04-19T08:05:33.921Z</time></trkpt><trkpt lat="42.15036184814951" lon="11.788130985513956"><ele>23.0</ele><time>2026-04-19T08:05:34.921Z</time></trkpt><trkpt lat="42.15052908366508" lon="11.788224661693532"><ele>22.0</ele><time>2026-04-19T08:05:35.921Z</time></trkpt><trkpt lat="42.15068924258559" lon="11.788320947645584"><ele>22.333333333333332</ele><time>2026-04-19T08:05:36.921Z</time></trkpt><trkpt lat="42.15085007378383" lon="11.788419221438598"><ele>22.666666666666668</ele><time>2026-04-19T08:05:37.921Z</time></trkpt><trkpt lat="42.151013712012634" lon="11.788517631724206"><ele>23.0</ele><time>2026-04-19T08:05:38.921Z</time></trkpt><trkpt lat="42.15117781864344" lon="11.788611843262272"><ele>24.666666666666668</ele><time>2026-04-19T08:05:39.921Z</time></trkpt><trkpt lat="42.15134297303027" lon="11.788704139520942"><ele>26.333333333333336</ele><time>2026-04-19T08:05:40.921Z</time></trkpt><trkpt lat="42.151505720540506" lon="11.788789163266026"><ele>28.0</ele><time>2026-04-19T08:05:41.921Z</time></trkpt><trkpt lat="42.15166727709235" lon="11.78887127691165"><ele>28.333333333333336</ele><time>2026-04-19T08:05:42.921Z</time></trkpt><trkpt lat="42.15183170005857" lon="11.78894843565086"><ele>28.666666666666664</ele><time>2026-04-19T08:05:43.921Z</time></trkpt><trkpt lat="42.151990953864185" lon="11.789021209599218"><ele>29.0</ele><time>2026-04-19T08:05:44.921Z</time></trkpt><trkpt lat="42.1521484648052" lon="11.789089413554313"><ele>29.0</ele><time>2026-04-19T08:05:45.921Z</time></trkpt><trkpt lat="42.15230495599166" lon="11.789150150244286"><ele>29.0</ele><time>2026-04-19T08:05:46.921Z</time></trkpt><trkpt lat="42.15246524740549" lon="11.789201458437327"><ele>29.0</ele><time>2026-04-19T08:05:47.921Z</time></trkpt><trkpt lat="42.152625569352736" lon="11.789250409912658"><ele>30.0</ele><time>2026-04-19T08:05:48.921Z</time></trkpt><trkpt lat="42.15278856770022" lon="11.789295426437372"><ele>31.0</ele><time>2026-04-19T08:05:49.921Z</time></trkpt><trkpt lat="42.152954426748046" lon="11.789335358783676"><ele>32.0</ele><time>2026-04-19T08:05:50.921Z</time></trkpt><trkpt lat="42.15312486904671" lon="11.789365135022976"><ele>35.33333333333333</ele><time>2026-04-19T08:05:51.921Z</time></trkpt><trkpt lat="42.15329765305919" lon="11.789383413151734"><ele>38.666666666666664</ele><time>2026-04-19T08:05:52.921Z</time></trkpt><trkpt lat="42.153470066570634" lon="11.789393927795194"><ele>42.0</ele><time>2026-04-19T08:05:53.921Z</time></trkpt><trkpt lat="42.15364052277321" lon="11.789396530275505"><ele>42.0</ele><time>2026-04-19T08:05:54.921Z</time></trkpt><trkpt lat="42.153812226172256" lon="11.78939809946554"><ele>42.0</ele><time>2026-04-19T08:05:55.921Z</time></trkpt><trkpt lat="42.153979976826214" lon="11.789398816983136"><ele>42.0</ele><time>2026-04-19T08:05:56.921Z</time></trkpt><trkpt lat="42.15414403885529" lon="11.789397779813243"><ele>42.666666666666664</ele><time>2026-04-19T08:05:57.921Z</time></trkpt><trkpt lat="42.154300856207186" lon="11.789397323545515"><ele>43.33333333333333</ele><time>2026-04-19T08:05:58.921Z</time></trkpt><trkpt lat="42.15445902854133" lon="11.789398184254651"><ele>44.0</ele><time>2026-04-19T08:05:59.921Z</time></trkpt><trkpt lat="42.15461774907855" lon="11.789398670500415"><ele>44.0</ele><time>2026-04-19T08:06:00.921Z</time></trkpt><trkpt lat="42.15477645690337" lon="11.789400352460714"><ele>44.0</ele><time>2026-04-19T08:06:01.921Z</time></trkpt><trkpt lat="42.15493333611515" lon="11.789405952059054"><ele>44.0</ele><time>2026-04-19T08:06:02.921Z</time></trkpt><trkpt lat="42.15509447350686" lon="11.78941377658584"><ele>44.0</ele><time>2026-04-19T08:06:03.921Z</time></trkpt><trkpt lat="42.15525776499008" lon="11.78942191047897"><ele>44.0</ele><time>2026-04-19T08:06:04.921Z</time></trkpt><trkpt lat="42.155411859578" lon="11.789426304267185"><ele>44.0</ele><time>2026-04-19T08:06:05.921Z</time></trkpt><trkpt lat="42.15556593766857" lon="11.789428059313906"><ele>43.666666666666664</ele><time>2026-04-19T08:06:06.921Z</time></trkpt><trkpt lat="42.15572329767632" lon="11.789435140632047"><ele>43.333333333333336</ele><time>2026-04-19T08:06:07.921Z</time></trkpt><trkpt lat="42.15587563714756" lon="11.7894481002401"><ele>43.0</ele><time>2026-04-19T08:06:08.921Z</time></trkpt><trkpt lat="42.15603348082224" lon="11.78947194487191"><ele>43.0</ele><time>2026-04-19T08:06:09.921Z</time></trkpt><trkpt lat="42.15619557780656" lon="11.789527137656714"><ele>43.0</ele><time>2026-04-19T08:06:10.921Z</time></trkpt><trkpt lat="42.1563407250468" lon="11.789617151757053"><ele>43.0</ele><time>2026-04-19T08:06:11.921Z</time></trkpt><trkpt lat="42.15649613054517" lon="11.78973210899473"><ele>42.0</ele><time>2026-04-19T08:06:12.921Z</time></trkpt><trkpt lat="42.15662471619628" lon="11.78986095205278"><ele>41.0</ele><time>2026-04-19T08:06:13.921Z</time></trkpt><trkpt lat="42.15675222192193" lon="11.79000225638709"><ele>40.0</ele><time>2026-04-19T08:06:14.921Z</time></trkpt><trkpt lat="42.15688751707466" lon="11.790139370248045"><ele>40.0</ele><time>2026-04-19T08:06:15.921Z</time></trkpt><trkpt lat="42.15701162210596" lon="11.790297629083465"><ele>40.0</ele><time>2026-04-19T08:06:16.921Z</time></trkpt><trkpt lat="42.15712404437145" lon="11.790442760012931"><ele>40.0</ele><time>2026-04-19T08:06:17.921Z</time></trkpt><trkpt lat="42.15725233689674" lon="11.790540000171625"><ele>39.333333333333336</ele><time>2026-04-19T08:06:18.921Z</time></trkpt><trkpt lat="42.15739652852747" lon="11.79059785423927"><ele>38.666666666666664</ele><time>2026-04-19T08:06:19.921Z</time></trkpt><trkpt lat="42.15754905202742" lon="11.790610235423223"><ele>38.0</ele><time>2026-04-19T08:06:20.921Z</time></trkpt><trkpt lat="42.15770476628864" lon="11.790594184003343"><ele>38.0</ele><time>2026-04-19T08:06:21.921Z</time></trkpt><trkpt lat="42.15785656547062" lon="11.790537583375233"><ele>38.0</ele><time>2026-04-19T08:06:22.921Z</time></trkpt><trkpt lat="42.15800627431941" lon="11.790457945180094"><ele>38.0</ele><time>2026-04-19T08:06:23.921Z</time></trkpt><trkpt lat="42.15816116268413" lon="11.79036391827473"><ele>37.0</ele><time>2026-04-19T08:06:24.921Z</time></trkpt><trkpt lat="42.15831241068967" lon="11.790268298909009"><ele>36.0</ele><time>2026-04-19T08:06:25.921Z</time></trkpt><trkpt lat="42.158465652156714" lon="11.790182035664609"><ele>35.0</ele><time>2026-04-19T08:06:26.921Z</time></trkpt><trkpt lat="42.158624315501164" lon="11.790095351881765"><ele>33.33333333333333</ele><time>2026-04-19T08:06:27.921Z</time></trkpt><trkpt lat="42.15879177862219" lon="11.790002639629366"><ele>31.666666666666664</ele><time>2026-04-19T08:06:28.921Z</time></trkpt><trkpt lat="42.15895978505524" lon="11.789914209604385"><ele>30.0</ele><time>2026-04-19T08:06:29.921Z</time></trkpt><trkpt lat="42.15912090661034" lon="11.789829966817857"><ele>28.333333333333336</ele><time>2026-04-19T08:06:30.921Z</time></trkpt><trkpt lat="42.15928336521779" lon="11.78974382214238"><ele>26.666666666666668</ele><time>2026-04-19T08:06:31.921Z</time></trkpt><trkpt lat="42.159441943312274" lon="11.78965468894797"><ele>25.0</ele><time>2026-04-19T08:06:32.921Z</time></trkpt><trkpt lat="42.15959851950766" lon="11.789565649328939"><ele>25.0</ele><time>2026-04-19T08:06:33.921Z</time></trkpt><trkpt lat="42.15975674455555" lon="11.789480591071076"><ele>25.0</ele><time>2026-04-19T08:06:34.921Z</time></trkpt><trkpt lat="42.15991331821055" lon="11.78939685659079"><ele>25.0</ele><time>2026-04-19T08:06:35.921Z</time></trkpt><trkpt lat="42.16006951580221" lon="11.789313270828691"><ele>25.333333333333336</ele><time>2026-04-19T08:06:36.921Z</time></trkpt><trkpt lat="42.16023032504826" lon="11.789231069655493"><ele>25.666666666666664</ele><time>2026-04-19T08:06:37.921Z</time></trkpt><trkpt lat="42.160396756309545" lon="11.78914874689786"><ele>26.0</ele><time>2026-04-19T08:06:38.921Z</time></trkpt><trkpt lat="42.160557389186565" lon="11.789075755908918"><ele>28.0</ele><time>2026-04-19T08:06:39.921Z</time></trkpt><trkpt lat="42.1607123749519" lon="11.789006299061906"><ele>30.0</ele><time>2026-04-19T08:06:40.921Z</time></trkpt><trkpt lat="42.16085745305582" lon="11.78894165918913"><ele>32.0</ele><time>2026-04-19T08:06:41.921Z</time></trkpt><trkpt lat="42.1610056003212" lon="11.788878599820398"><ele>32.0</ele><time>2026-04-19T08:06:42.921Z</time></trkpt><trkpt lat="42.16115107607839" lon="11.78881382020732"><ele>32.0</ele><time>2026-04-19T08:06:43.921Z</time></trkpt><trkpt lat="42.16129899715513" lon="11.788743264895917"><ele>32.0</ele><time>2026-04-19T08:06:44.921Z</time></trkpt><trkpt lat="42.161462132016986" lon="11.788672118208375"><ele>33.33333333333333</ele><time>2026-04-19T08:06:45.917Z</time></trkpt><trkpt lat="42.16161237255163" lon="11.788605926617604"><ele>34.666666666666664</ele><time>2026-04-19T08:06:46.918Z</time></trkpt><trkpt lat="42.16176911404384" lon="11.788535653239043"><ele>36.0</ele><time>2026-04-19T08:06:47.918Z</time></trkpt><trkpt lat="42.16191453354768" lon="11.788461909964091"><ele>36.0</ele><time>2026-04-19T08:06:48.917Z</time></trkpt><trkpt lat="42.162052714451846" lon="11.788371527562253"><ele>36.0</ele><time>2026-04-19T08:06:49.917Z</time></trkpt><trkpt lat="42.162183910417426" lon="11.78827249570579"><ele>36.0</ele><time>2026-04-19T08:06:50.917Z</time></trkpt><trkpt lat="42.16230834929328" lon="11.788180016954469"><ele>36.0</ele><time>2026-04-19T08:06:51.917Z</time></trkpt><trkpt lat="42.16244231313503" lon="11.788083791917058"><ele>36.0</ele><time>2026-04-19T08:06:52.917Z</time></trkpt><trkpt lat="42.162584184404416" lon="11.78800294037767"><ele>36.0</ele><time>2026-04-19T08:06:53.917Z</time></trkpt><trkpt lat="42.16273308788939" lon="11.787944213496814"><ele>36.0</ele><time>2026-04-19T08:06:54.917Z</time></trkpt><trkpt lat="42.162874993319896" lon="11.787933364075487"><ele>36.0</ele><time>2026-04-19T08:06:55.916Z</time></trkpt><trkpt lat="42.16300998508343" lon="11.787942602932683"><ele>36.0</ele><time>2026-04-19T08:06:56.916Z</time></trkpt><trkpt lat="42.16313618199538" lon="11.787981316754395"><ele>36.0</ele><time>2026-04-19T08:06:57.917Z</time></trkpt><trkpt lat="42.16324653377398" lon="11.788051219564812"><ele>36.0</ele><time>2026-04-19T08:06:58.917Z</time></trkpt><trkpt lat="42.1633382543701" lon="11.788134871886932"><ele>35.833333333333336</ele><time>2026-04-19T08:06:59.917Z</time></trkpt><trkpt lat="42.16340898235708" lon="11.788234389204693"><ele>35.666666666666664</ele><time>2026-04-19T08:07:00.917Z</time></trkpt><trkpt lat="42.163455588546356" lon="11.788339706571152"><ele>35.5</ele><time>2026-04-19T08:07:01.917Z</time></trkpt><trkpt lat="42.163472639590765" lon="11.788442013032112"><ele>35.33333333333333</ele><time>2026-04-19T08:07:02.917Z</time></trkpt><trkpt lat="42.1634708993791" lon="11.788554291339388"><ele>35.166666666666664</ele><time>2026-04-19T08:07:03.917Z</time></trkpt><trkpt lat="42.16345074252831" lon="11.788675376882235"><ele>35.0</ele><time>2026-04-19T08:07:04.917Z</time></trkpt><trkpt lat="42.16340671803898" lon="11.788808425935391"><ele>35.5</ele><time>2026-04-19T08:07:05.917Z</time></trkpt><trkpt lat="42.16337217359579" lon="11.788966320942485"><ele>36.0</ele><time>2026-04-19T08:07:06.917Z</time></trkpt><trkpt lat="42.163365457123106" lon="11.789129090601268"><ele>36.5</ele><time>2026-04-19T08:07:07.917Z</time></trkpt><trkpt lat="42.16338897006434" lon="11.789286444632767"><ele>37.0</ele><time>2026-04-19T08:07:08.917Z</time></trkpt><trkpt lat="42.16343567555456" lon="11.789433457684698"><ele>37.5</ele><time>2026-04-19T08:07:09.917Z</time></trkpt><trkpt lat="42.16350050364996" lon="11.789594023946051"><ele>38.0</ele><time>2026-04-19T08:07:10.917Z</time></trkpt><trkpt lat="42.16358866813609" lon="11.789703480779496"><ele>38.5</ele><time>2026-04-19T08:07:11.917Z</time></trkpt><trkpt lat="42.163675334776315" lon="11.789802864193073"><ele>39.0</ele><time>2026-04-19T08:07:12.917Z</time></trkpt><trkpt lat="42.163703685585155" lon="11.789910138030237"><ele>39.0</ele><time>2026-04-19T08:07:13.917Z</time></trkpt><trkpt lat="42.16383540842224" lon="11.789944385011779"><ele>39.0</ele><time>2026-04-19T08:07:14.917Z</time></trkpt><trkpt lat="42.16396579532993" lon="11.78995769978451"><ele>39.0</ele><time>2026-04-19T08:07:15.917Z</time></trkpt><trkpt lat="42.164088377094764" lon="11.78995488384102"><ele>39.0</ele><time>2026-04-19T08:07:16.917Z</time></trkpt><trkpt lat="42.16428973014098" lon="11.790042107900568"><ele>38.75</ele><time>2026-04-19T08:07:18.917Z</time></trkpt><trkpt lat="42.164359182856835" lon="11.790159900242362"><ele>38.5</ele><time>2026-04-19T08:07:19.917Z</time></trkpt><trkpt lat="42.16442384438426" lon="11.790297343863328"><ele>38.25</ele><time>2026-04-19T08:07:20.917Z</time></trkpt><trkpt lat="42.164495944305294" lon="11.790427816078198"><ele>38.0</ele><time>2026-04-19T08:07:21.917Z</time></trkpt><trkpt lat="42.16458389233129" lon="11.790554272257118"><ele>38.5</ele><time>2026-04-19T08:07:22.917Z</time></trkpt><trkpt lat="42.16468017100126" lon="11.790675047211385"><ele>39.0</ele><time>2026-04-19T08:07:23.917Z</time></trkpt><trkpt lat="42.16479633110327" lon="11.790787208475193"><ele>39.5</ele><time>2026-04-19T08:07:24.917Z</time></trkpt><trkpt lat="42.16491733667077" lon="11.790905440026139"><ele>40.0</ele><time>2026-04-19T08:07:25.917Z</time></trkpt><trkpt lat="42.165037940837244" lon="11.791030592465878"><ele>42.0</ele><time>2026-04-19T08:07:26.917Z</time></trkpt><trkpt lat="42.16516095269578" lon="11.791169441834908"><ele>44.0</ele><time>2026-04-19T08:07:27.917Z</time></trkpt><trkpt lat="42.16527279546229" lon="11.791325876956362"><ele>46.0</ele><time>2026-04-19T08:07:28.917Z</time></trkpt><trkpt lat="42.16536570596321" lon="11.791504246363658"><ele>46.0</ele><time>2026-04-19T08:07:29.917Z</time></trkpt><trkpt lat="42.16543353042665" lon="11.791678814537127"><ele>46.0</ele><time>2026-04-19T08:07:30.917Z</time></trkpt><trkpt lat="42.165479702260114" lon="11.791867536020963"><ele>46.0</ele><time>2026-04-19T08:07:31.917Z</time></trkpt><trkpt lat="42.165516230025005" lon="11.792064277094175"><ele>46.0</ele><time>2026-04-19T08:07:32.917Z</time></trkpt><trkpt lat="42.165539648179845" lon="11.792263348231613"><ele>46.0</ele><time>2026-04-19T08:07:33.917Z</time></trkpt><trkpt lat="42.16555370028772" lon="11.792446008577322"><ele>46.0</ele><time>2026-04-19T08:07:34.917Z</time></trkpt><trkpt lat="42.16554333740859" lon="11.792627811974913"><ele>46.0</ele><time>2026-04-19T08:07:35.917Z</time></trkpt><trkpt lat="42.16555962722828" lon="11.792793568475492"><ele>46.0</ele><time>2026-04-19T08:07:36.917Z</time></trkpt><trkpt lat="42.16558073091838" lon="11.792964947795486"><ele>46.0</ele><time>2026-04-19T08:07:37.917Z</time></trkpt><trkpt lat="42.165596068945376" lon="11.793132630371007"><ele>46.0</ele><time>2026-04-19T08:07:38.917Z</time></trkpt><trkpt lat="42.16561453484194" lon="11.79330179810774"><ele>46.0</ele><time>2026-04-19T08:07:39.917Z</time></trkpt><trkpt lat="42.1656363371006" lon="11.793478187521531"><ele>46.0</ele><time>2026-04-19T08:07:40.917Z</time></trkpt><trkpt lat="42.165662604275816" lon="11.793661763744817"><ele>46.75</ele><time>2026-04-19T08:07:41.917Z</time></trkpt><trkpt lat="42.1656825531747" lon="11.79385240354404"><ele>47.5</ele><time>2026-04-19T08:07:42.917Z</time></trkpt><trkpt lat="42.16570364738309" lon="11.794048364129583"><ele>48.25</ele><time>2026-04-19T08:07:43.917Z</time></trkpt><trkpt lat="42.165723276145194" lon="11.794238522941065"><ele>49.0</ele><time>2026-04-19T08:07:44.917Z</time></trkpt><trkpt lat="42.16574596227132" lon="11.794412562071853"><ele>49.0</ele><time>2026-04-19T08:07:45.917Z</time></trkpt><trkpt lat="42.165768327819166" lon="11.794579776519669"><ele>49.0</ele><time>2026-04-19T08:07:46.917Z</time></trkpt><trkpt lat="42.165783347388064" lon="11.794747018126055"><ele>49.0</ele><time>2026-04-19T08:07:47.917Z</time></trkpt><trkpt lat="42.16580159345787" lon="11.79491391171036"><ele>49.0</ele><time>2026-04-19T08:07:48.917Z</time></trkpt><trkpt lat="42.16582125136589" lon="11.79508541896318"><ele>49.25</ele><time>2026-04-19T08:07:49.917Z</time></trkpt><trkpt lat="42.16583930246026" lon="11.795254352491929"><ele>49.5</ele><time>2026-04-19T08:07:50.917Z</time></trkpt><trkpt lat="42.16585555206621" lon="11.795419448677356"><ele>49.75</ele><time>2026-04-19T08:07:51.916Z</time></trkpt><trkpt lat="42.16587124648337" lon="11.795578605468382"><ele>50.0</ele><time>2026-04-19T08:07:52.916Z</time></trkpt><trkpt lat="42.16588923353385" lon="11.795730705666017"><ele>50.0</ele><time>2026-04-19T08:07:53.916Z</time></trkpt><trkpt lat="42.16590597718388" lon="11.79589676385283"><ele>50.0</ele><time>2026-04-19T08:07:54.916Z</time></trkpt><trkpt lat="42.16592501945008" lon="11.796056547972041"><ele>50.0</ele><time>2026-04-19T08:07:55.916Z</time></trkpt><trkpt lat="42.16594528070361" lon="11.796220842439379"><ele>50.0</ele><time>2026-04-19T08:07:56.916Z</time></trkpt><trkpt lat="42.16595940897747" lon="11.796384851589421"><ele>51.0</ele><time>2026-04-19T08:07:57.916Z</time></trkpt><trkpt lat="42.165981287048744" lon="11.796561196478613"><ele>52.0</ele><time>2026-04-19T08:07:58.916Z</time></trkpt><trkpt lat="42.16599787410137" lon="11.796745391134937"><ele>53.0</ele><time>2026-04-19T08:07:59.916Z</time></trkpt><trkpt lat="42.166022921122554" lon="11.796931367286607"><ele>54.0</ele><time>2026-04-19T08:08:00.916Z</time></trkpt><trkpt lat="42.16603490602538" lon="11.797118200764308"><ele>55.0</ele><time>2026-04-19T08:08:01.916Z</time></trkpt><trkpt lat="42.16606079329278" lon="11.797316536946564"><ele>56.0</ele><time>2026-04-19T08:08:02.916Z</time></trkpt><trkpt lat="42.16608504889407" lon="11.797511131147006"><ele>57.0</ele><time>2026-04-19T08:08:03.916Z</time></trkpt><trkpt lat="42.16610721463947" lon="11.79771405426629"><ele>58.0</ele><time>2026-04-19T08:08:04.916Z</time></trkpt><trkpt lat="42.166124871863424" lon="11.797916747435774"><ele>58.0</ele><time>2026-04-19T08:08:05.916Z</time></trkpt><trkpt lat="42.16614687446357" lon="11.798120895932843"><ele>58.0</ele><time>2026-04-19T08:08:06.916Z</time></trkpt><trkpt lat="42.16616702686306" lon="11.798329560812828"><ele>58.0</ele><time>2026-04-19T08:08:07.916Z</time></trkpt><trkpt lat="42.166189173074045" lon="11.798545611113589"><ele>58.666666666666664</ele><time>2026-04-19T08:08:08.916Z</time></trkpt><trkpt lat="42.16621078033442" lon="11.79876238337731"><ele>59.33333333333333</ele><time>2026-04-19T08:08:09.916Z</time></trkpt><trkpt lat="42.16622476127905" lon="11.798981495847345"><ele>60.0</ele><time>2026-04-19T08:08:10.916Z</time></trkpt><trkpt lat="42.16624856215501" lon="11.799195159597405"><ele>60.33333333333333</ele><time>2026-04-19T08:08:11.916Z</time></trkpt><trkpt lat="42.16627757548534" lon="11.799411129484563"><ele>60.666666666666664</ele><time>2026-04-19T08:08:12.916Z</time></trkpt><trkpt lat="42.16630439333561" lon="11.799629557645199"><ele>61.0</ele><time>2026-04-19T08:08:13.916Z</time></trkpt><trkpt lat="42.166325200482135" lon="11.79984161259117"><ele>61.0</ele><time>2026-04-19T08:08:14.916Z</time></trkpt><trkpt lat="42.16634109575432" lon="11.8000441026127"><ele>61.0</ele><time>2026-04-19T08:08:15.916Z</time></trkpt><trkpt lat="42.16636845529827" lon="11.80025634897892"><ele>61.0</ele><time>2026-04-19T08:08:16.916Z</time></trkpt><trkpt lat="42.16638803827708" lon="11.800462150117369"><ele>61.0</ele><time>2026-04-19T08:08:17.916Z</time></trkpt><trkpt lat="42.16640973280407" lon="11.800656849599871"><ele>61.0</ele><time>2026-04-19T08:08:18.916Z</time></trkpt><trkpt lat="42.166431920251675" lon="11.800844815548432"><ele>61.0</ele><time>2026-04-19T08:08:19.916Z</time></trkpt><trkpt lat="42.16645423117034" lon="11.801014566397807"><ele>61.0</ele><time>2026-04-19T08:08:20.916Z</time></trkpt><trkpt lat="42.16647053029846" lon="11.801196400761862"><ele>61.0</ele><time>2026-04-19T08:08:21.916Z</time></trkpt><trkpt lat="42.166489655316155" lon="11.801371683328544"><ele>61.0</ele><time>2026-04-19T08:08:22.916Z</time></trkpt><trkpt lat="42.16650533379802" lon="11.801541003158647"><ele>61.0</ele><time>2026-04-19T08:08:23.916Z</time></trkpt><trkpt lat="42.16651423144983" lon="11.801700640117174"><ele>61.0</ele><time>2026-04-19T08:08:24.916Z</time></trkpt><trkpt lat="42.16652411195589" lon="11.801851113580428"><ele>61.49999999999999</ele><time>2026-04-19T08:08:25.916Z</time></trkpt><trkpt lat="42.16654139310862" lon="11.801989695977678"><ele>62.0</ele><time>2026-04-19T08:08:26.916Z</time></trkpt><trkpt lat="42.166553757408565" lon="11.802107465162322"><ele>62.5</ele><time>2026-04-19T08:08:27.916Z</time></trkpt><trkpt lat="42.16657807670944" lon="11.802209510583522"><ele>63.0</ele><time>2026-04-19T08:08:28.916Z</time></trkpt><trkpt lat="42.16660808652994" lon="11.802292067661288"><ele>63.49999999999999</ele><time>2026-04-19T08:08:29.916Z</time></trkpt><trkpt lat="42.16668532913981" lon="11.802305188558003"><ele>64.0</ele><time>2026-04-19T08:08:31.916Z</time></trkpt><trkpt lat="42.166800278974314" lon="11.80224148276189"><ele>64.0</ele><time>2026-04-19T08:08:33.916Z</time></trkpt><trkpt lat="42.1668859061651" lon="11.802205099394316"><ele>64.0</ele><time>2026-04-19T08:08:34.916Z</time></trkpt><trkpt lat="42.16698900125409" lon="11.802169249132614"><ele>64.0</ele><time>2026-04-19T08:08:35.916Z</time></trkpt><trkpt lat="42.16710478899047" lon="11.802121877667041"><ele>64.0</ele><time>2026-04-19T08:08:36.916Z</time></trkpt><trkpt lat="42.16722950113662" lon="11.802062605765833"><ele>64.0</ele><time>2026-04-19T08:08:37.916Z</time></trkpt><trkpt lat="42.1673551703303" lon="11.802000557784751"><ele>63.2</ele><time>2026-04-19T08:08:38.916Z</time></trkpt><trkpt lat="42.16746230842778" lon="11.80196284105136"><ele>62.400000000000006</ele><time>2026-04-19T08:08:39.916Z</time></trkpt><trkpt lat="42.16756140032638" lon="11.80192649736028"><ele>61.6</ele><time>2026-04-19T08:08:40.916Z</time></trkpt><trkpt lat="42.16765889244261" lon="11.801884450555946"><ele>60.8</ele><time>2026-04-19T08:08:41.916Z</time></trkpt><trkpt lat="42.16776252177713" lon="11.80184073888263"><ele>60.0</ele><time>2026-04-19T08:08:42.916Z</time></trkpt><trkpt lat="42.16788238440694" lon="11.80179052024159"><ele>59.25</ele><time>2026-04-19T08:08:43.916Z</time></trkpt><trkpt lat="42.16801428817578" lon="11.801728228852383"><ele>58.5</ele><time>2026-04-19T08:08:44.916Z</time></trkpt><trkpt lat="42.16815660432195" lon="11.801663085826856"><ele>57.75</ele><time>2026-04-19T08:08:45.916Z</time></trkpt><trkpt lat="42.168306836179404" lon="11.801598766311006"><ele>57.0</ele><time>2026-04-19T08:08:46.916Z</time></trkpt><trkpt lat="42.1684630295049" lon="11.801535914056545"><ele>57.0</ele><time>2026-04-19T08:08:47.916Z</time></trkpt><trkpt lat="42.1686233128017" lon="11.801469108246861"><ele>57.0</ele><time>2026-04-19T08:08:48.916Z</time></trkpt><trkpt lat="42.168787612883186" lon="11.801392090302127"><ele>57.0</ele><time>2026-04-19T08:08:49.916Z</time></trkpt><trkpt lat="42.16896288111947" lon="11.80131927760628"><ele>58.0</ele><time>2026-04-19T08:08:50.916Z</time></trkpt><trkpt lat="42.16914084765103" lon="11.8012356661114"><ele>59.0</ele><time>2026-04-19T08:08:51.912Z</time></trkpt><trkpt lat="42.16931964454526" lon="11.801159383294554"><ele>60.0</ele><time>2026-04-19T08:08:52.912Z</time></trkpt><trkpt lat="42.169487674422456" lon="11.801080837030813"><ele>60.0</ele><time>2026-04-19T08:08:53.912Z</time></trkpt><trkpt lat="42.16965685656885" lon="11.801004718430484"><ele>60.0</ele><time>2026-04-19T08:08:54.912Z</time></trkpt><trkpt lat="42.169829642641965" lon="11.800926164611285"><ele>60.0</ele><time>2026-04-19T08:08:55.912Z</time></trkpt><trkpt lat="42.17000215644892" lon="11.80085239009636"><ele>60.0</ele><time>2026-04-19T08:08:56.912Z</time></trkpt><trkpt lat="42.17017398358398" lon="11.800782386174905"><ele>60.0</ele><time>2026-04-19T08:08:57.911Z</time></trkpt><trkpt lat="42.17035112860963" lon="11.80069058990335"><ele>60.0</ele><time>2026-04-19T08:08:58.912Z</time></trkpt><trkpt lat="42.170529846591876" lon="11.800569980398528"><ele>60.0</ele><time>2026-04-19T08:08:59.912Z</time></trkpt><trkpt lat="42.17070745440102" lon="11.80042265427028"><ele>60.0</ele><time>2026-04-19T08:09:00.912Z</time></trkpt><trkpt lat="42.17089414490496" lon="11.800277600033686"><ele>60.0</ele><time>2026-04-19T08:09:01.911Z</time></trkpt><trkpt lat="42.17107782276187" lon="11.800145626085573"><ele>59.33333333333333</ele><time>2026-04-19T08:09:02.911Z</time></trkpt><trkpt lat="42.17125544370007" lon="11.800019331311551"><ele>58.666666666666664</ele><time>2026-04-19T08:09:03.911Z</time></trkpt><trkpt lat="42.17143423685917" lon="11.79989909347018"><ele>58.0</ele><time>2026-04-19T08:09:04.911Z</time></trkpt><trkpt lat="42.17161262633454" lon="11.799777452304438"><ele>57.666666666666664</ele><time>2026-04-19T08:09:05.911Z</time></trkpt><trkpt lat="42.17178090416597" lon="11.799667104377594"><ele>57.33333333333333</ele><time>2026-04-19T08:09:06.911Z</time></trkpt><trkpt lat="42.17195024302142" lon="11.799552597557023"><ele>57.0</ele><time>2026-04-19T08:09:07.911Z</time></trkpt><trkpt lat="42.17211849457222" lon="11.79943860108476"><ele>56.66666666666667</ele><time>2026-04-19T08:09:08.911Z</time></trkpt><trkpt lat="42.17228234350097" lon="11.799323601586789"><ele>56.333333333333336</ele><time>2026-04-19T08:09:09.911Z</time></trkpt><trkpt lat="42.17244070645629" lon="11.799207759859113"><ele>56.0</ele><time>2026-04-19T08:09:10.911Z</time></trkpt><trkpt lat="42.172595815654795" lon="11.799094736468216"><ele>56.0</ele><time>2026-04-19T08:09:11.911Z</time></trkpt><trkpt lat="42.17276458870275" lon="11.79897281517726"><ele>56.0</ele><time>2026-04-19T08:09:12.911Z</time></trkpt><trkpt lat="42.17294471630577" lon="11.798852175398348"><ele>56.0</ele><time>2026-04-19T08:09:13.911Z</time></trkpt><trkpt lat="42.17311799915173" lon="11.79873300686307"><ele>56.0</ele><time>2026-04-19T08:09:14.911Z</time></trkpt><trkpt lat="42.173282279193586" lon="11.798617341550115"><ele>56.0</ele><time>2026-04-19T08:09:15.911Z</time></trkpt><trkpt lat="42.17343891291037" lon="11.798498556773739"><ele>56.0</ele><time>2026-04-19T08:09:16.911Z</time></trkpt><trkpt lat="42.17359322638267" lon="11.79838541271096"><ele>56.0</ele><time>2026-04-19T08:09:17.911Z</time></trkpt><trkpt lat="42.173747588200676" lon="11.798270583038283"><ele>56.0</ele><time>2026-04-19T08:09:18.911Z</time></trkpt><trkpt lat="42.17390207198339" lon="11.798155990854244"><ele>56.0</ele><time>2026-04-19T08:09:19.911Z</time></trkpt><trkpt lat="42.174057912232" lon="11.79804022003479"><ele>56.0</ele><time>2026-04-19T08:09:20.911Z</time></trkpt><trkpt lat="42.17421567466823" lon="11.797926742716916"><ele>56.0</ele><time>2026-04-19T08:09:21.911Z</time></trkpt><trkpt lat="42.174374316116754" lon="11.797816247538213"><ele>56.0</ele><time>2026-04-19T08:09:22.911Z</time></trkpt><trkpt lat="42.174531031937555" lon="11.797709647881653"><ele>56.0</ele><time>2026-04-19T08:09:23.911Z</time></trkpt><trkpt lat="42.1746839218848" lon="11.797603365336535"><ele>56.0</ele><time>2026-04-19T08:09:24.911Z</time></trkpt><trkpt lat="42.17483564713199" lon="11.797497037828622"><ele>56.0</ele><time>2026-04-19T08:09:25.911Z</time></trkpt><trkpt lat="42.17499127465467" lon="11.797383981457946"><ele>56.0</ele><time>2026-04-19T08:09:26.911Z</time></trkpt><trkpt lat="42.175150489442984" lon="11.79727211207223"><ele>56.0</ele><time>2026-04-19T08:09:27.911Z</time></trkpt><trkpt lat="42.17530353287754" lon="11.797159594886693"><ele>56.0</ele><time>2026-04-19T08:09:28.911Z</time></trkpt><trkpt lat="42.175457778118684" lon="11.797052547400195"><ele>56.0</ele><time>2026-04-19T08:09:29.911Z</time></trkpt><trkpt lat="42.17561092807158" lon="11.796942823019592"><ele>56.0</ele><time>2026-04-19T08:09:30.911Z</time></trkpt><trkpt lat="42.175770085389345" lon="11.796833608043332"><ele>56.0</ele><time>2026-04-19T08:09:31.911Z</time></trkpt><trkpt lat="42.175927603308956" lon="11.796726585249413"><ele>56.333333333333336</ele><time>2026-04-19T08:09:32.911Z</time></trkpt><trkpt lat="42.1760856830991" lon="11.796617033674181"><ele>56.66666666666667</ele><time>2026-04-19T08:09:33.911Z</time></trkpt><trkpt lat="42.17624784085799" lon="11.796511520996692"><ele>57.0</ele><time>2026-04-19T08:09:34.911Z</time></trkpt><trkpt lat="42.1764059586444" lon="11.796399583487535"><ele>57.33333333333333</ele><time>2026-04-19T08:09:35.911Z</time></trkpt><trkpt lat="42.176557569531674" lon="11.796289525290211"><ele>57.666666666666664</ele><time>2026-04-19T08:09:36.911Z</time></trkpt><trkpt lat="42.17670511063152" lon="11.796180038565266"><ele>58.0</ele><time>2026-04-19T08:09:37.911Z</time></trkpt><trkpt lat="42.176860560577374" lon="11.796072982828923"><ele>58.0</ele><time>2026-04-19T08:09:38.911Z</time></trkpt><trkpt lat="42.17701313367639" lon="11.795969502638979"><ele>58.0</ele><time>2026-04-19T08:09:39.911Z</time></trkpt><trkpt lat="42.17716562192751" lon="11.79587487949847"><ele>58.0</ele><time>2026-04-19T08:09:40.911Z</time></trkpt><trkpt lat="42.17729919105956" lon="11.795771185323908"><ele>57.75</ele><time>2026-04-19T08:09:41.911Z</time></trkpt><trkpt lat="42.17742037948878" lon="11.79567279165408"><ele>57.5</ele><time>2026-04-19T08:09:42.911Z</time></trkpt><trkpt lat="42.177528617591" lon="11.795586145827468"><ele>57.25</ele><time>2026-04-19T08:09:43.911Z</time></trkpt><trkpt lat="42.1776293054449" lon="11.79550846480245"><ele>57.0</ele><time>2026-04-19T08:09:44.911Z</time></trkpt><trkpt lat="42.177738741538874" lon="11.795447307745768"><ele>57.0</ele><time>2026-04-19T08:09:45.911Z</time></trkpt><trkpt lat="42.17786268296347" lon="11.795422937893688"><ele>57.0</ele><time>2026-04-19T08:09:46.911Z</time></trkpt><trkpt lat="42.177994952742395" lon="11.795440375793946"><ele>57.0</ele><time>2026-04-19T08:09:47.911Z</time></trkpt><trkpt lat="42.178141814967915" lon="11.795468888473"><ele>57.0</ele><time>2026-04-19T08:09:48.911Z</time></trkpt><trkpt lat="42.17829762451762" lon="11.79550381526221"><ele>56.33333333333333</ele><time>2026-04-19T08:09:49.911Z</time></trkpt><trkpt lat="42.17846488841735" lon="11.795533117463387"><ele>55.666666666666664</ele><time>2026-04-19T08:09:50.911Z</time></trkpt><trkpt lat="42.1786201170647" lon="11.795555997000593"><ele>55.0</ele><time>2026-04-19T08:09:51.911Z</time></trkpt><trkpt lat="42.17876564993694" lon="11.795576186516195"><ele>55.0</ele><time>2026-04-19T08:09:52.911Z</time></trkpt><trkpt lat="42.1788957318141" lon="11.79558434186674"><ele>55.0</ele><time>2026-04-19T08:09:53.911Z</time></trkpt><trkpt lat="42.179026080252434" lon="11.795607367050442"><ele>55.0</ele><time>2026-04-19T08:09:54.911Z</time></trkpt><trkpt lat="42.179135682991365" lon="11.795638811381778"><ele>55.0</ele><time>2026-04-19T08:09:55.911Z</time></trkpt><trkpt lat="42.179246853204596" lon="11.795668152194732"><ele>54.0</ele><time>2026-04-19T08:09:56.911Z</time></trkpt><trkpt lat="42.179363630259466" lon="11.79569454911408"><ele>53.0</ele><time>2026-04-19T08:09:57.911Z</time></trkpt><trkpt lat="42.17948322586148" lon="11.795711044398468"><ele>52.0</ele><time>2026-04-19T08:09:58.911Z</time></trkpt><trkpt lat="42.17961159204825" lon="11.795733058865684"><ele>51.0</ele><time>2026-04-19T08:09:59.911Z</time></trkpt><trkpt lat="42.179747224870496" lon="11.795765033441624"><ele>49.0</ele><time>2026-04-19T08:10:00.911Z</time></trkpt><trkpt lat="42.17988128111841" lon="11.795797127138359"><ele>47.0</ele><time>2026-04-19T08:10:01.911Z</time></trkpt><trkpt lat="42.18002355946134" lon="11.795820318295922"><ele>45.0</ele><time>2026-04-19T08:10:02.911Z</time></trkpt><trkpt lat="42.180159161215656" lon="11.795838020047183"><ele>43.0</ele><time>2026-04-19T08:10:03.911Z</time></trkpt><trkpt lat="42.180293208508395" lon="11.79586057158327"><ele>43.0</ele><time>2026-04-19T08:10:04.911Z</time></trkpt><trkpt lat="42.180435336516915" lon="11.795891091387928"><ele>43.0</ele><time>2026-04-19T08:10:05.911Z</time></trkpt><trkpt lat="42.18058610160307" lon="11.795924618444992"><ele>43.0</ele><time>2026-04-19T08:10:06.911Z</time></trkpt><trkpt lat="42.18074150816153" lon="11.795958198206375"><ele>39.66666666666667</ele><time>2026-04-19T08:10:07.911Z</time></trkpt><trkpt lat="42.18089571056115" lon="11.795984013779982"><ele>36.333333333333336</ele><time>2026-04-19T08:10:08.911Z</time></trkpt><trkpt lat="42.18105371698975" lon="11.796003051903245"><ele>33.0</ele><time>2026-04-19T08:10:09.911Z</time></trkpt><trkpt lat="42.18121562825848" lon="11.796022490781278"><ele>32.333333333333336</ele><time>2026-04-19T08:10:10.911Z</time></trkpt><trkpt lat="42.18137646854751" lon="11.7960420380352"><ele>31.666666666666668</ele><time>2026-04-19T08:10:11.911Z</time></trkpt><trkpt lat="42.1815368354776" lon="11.796059382192148"><ele>31.0</ele><time>2026-04-19T08:10:12.911Z</time></trkpt><trkpt lat="42.181697531139655" lon="11.796071372095318"><ele>27.333333333333336</ele><time>2026-04-19T08:10:13.911Z</time></trkpt><trkpt lat="42.1818534261818" lon="11.79608112185747"><ele>23.666666666666668</ele><time>2026-04-19T08:10:14.911Z</time></trkpt><trkpt lat="42.18201274327814" lon="11.79609500067754"><ele>20.0</ele><time>2026-04-19T08:10:15.911Z</time></trkpt><trkpt lat="42.182168884844415" lon="11.796104792008558"><ele>20.0</ele><time>2026-04-19T08:10:16.911Z</time></trkpt><trkpt lat="42.18232003810748" lon="11.79611607789595"><ele>20.0</ele><time>2026-04-19T08:10:17.911Z</time></trkpt><trkpt lat="42.18247209246529" lon="11.79612818111321"><ele>20.0</ele><time>2026-04-19T08:10:18.911Z</time></trkpt><trkpt lat="42.182629521359274" lon="11.79613805199989"><ele>18.666666666666668</ele><time>2026-04-19T08:10:19.911Z</time></trkpt><trkpt lat="42.18278785843229" lon="11.796146404460934"><ele>17.333333333333332</ele><time>2026-04-19T08:10:20.911Z</time></trkpt><trkpt lat="42.182950391593494" lon="11.796147387002293"><ele>16.0</ele><time>2026-04-19T08:10:21.911Z</time></trkpt><trkpt lat="42.18311213479449" lon="11.796140396176972"><ele>15.0</ele><time>2026-04-19T08:10:22.911Z</time></trkpt><trkpt lat="42.18327885270273" lon="11.796105335959066"><ele>14.0</ele><time>2026-04-19T08:10:23.911Z</time></trkpt><trkpt lat="42.183430432971" lon="11.796065889759387"><ele>13.0</ele><time>2026-04-19T08:10:24.911Z</time></trkpt><trkpt lat="42.18357269689926" lon="11.796022872614763"><ele>13.0</ele><time>2026-04-19T08:10:25.911Z</time></trkpt><trkpt lat="42.18370846046716" lon="11.795997387807297"><ele>13.0</ele><time>2026-04-19T08:10:26.911Z</time></trkpt><trkpt lat="42.18384494568612" lon="11.7959989572403"><ele>13.0</ele><time>2026-04-19T08:10:27.911Z</time></trkpt><trkpt lat="42.183969888790116" lon="11.796039390034307"><ele>13.0</ele><time>2026-04-19T08:10:28.911Z</time></trkpt><trkpt lat="42.18409271407916" lon="11.796109428166549"><ele>12.75</ele><time>2026-04-19T08:10:29.911Z</time></trkpt><trkpt lat="42.18421805962986" lon="11.79621509870642"><ele>12.5</ele><time>2026-04-19T08:10:30.911Z</time></trkpt><trkpt lat="42.184347315224734" lon="11.79632312307077"><ele>12.25</ele><time>2026-04-19T08:10:31.911Z</time></trkpt><trkpt lat="42.18446261474967" lon="11.79642304496631"><ele>12.0</ele><time>2026-04-19T08:10:32.911Z</time></trkpt><trkpt lat="42.1845598913451" lon="11.796509121828018"><ele>12.0</ele><time>2026-04-19T08:10:33.911Z</time></trkpt><trkpt lat="42.18464707554061" lon="11.796583828497074"><ele>12.0</ele><time>2026-04-19T08:10:34.911Z</time></trkpt><trkpt lat="42.184715519990355" lon="11.796639212785994"><ele>12.0</ele><time>2026-04-19T08:10:35.91Z</time></trkpt><trkpt lat="42.18482538749257" lon="11.796651050891494"><ele>12.0</ele><time>2026-04-19T08:10:37.91Z</time></trkpt><trkpt lat="42.1848905406394" lon="11.796540315079598"><ele>12.0</ele><time>2026-04-19T08:10:39.91Z</time></trkpt><trkpt lat="42.184898676984865" lon="11.796440744103105"><ele>12.0</ele><time>2026-04-19T08:10:40.91Z</time></trkpt><trkpt lat="42.184905723559275" lon="11.796317065285598"><ele>12.0</ele><time>2026-04-19T08:10:41.91Z</time></trkpt><trkpt lat="42.18493160047193" lon="11.796173620654102"><ele>12.0</ele><time>2026-04-19T08:10:42.91Z</time></trkpt><trkpt lat="42.18498451586005" lon="11.79601635108744"><ele>12.0</ele><time>2026-04-19T08:10:43.91Z</time></trkpt><trkpt lat="42.1850541629495" lon="11.795855620260404"><ele>12.0</ele><time>2026-04-19T08:10:44.91Z</time></trkpt><trkpt lat="42.185137747250195" lon="11.795688624545287"><ele>12.0</ele><time>2026-04-19T08:10:45.91Z</time></trkpt><trkpt lat="42.18523055433354" lon="11.795544631324793"><ele>12.0</ele><time>2026-04-19T08:10:46.91Z</time></trkpt><trkpt lat="42.18534973034473" lon="11.79541793808451"><ele>12.0</ele><time>2026-04-19T08:10:47.91Z</time></trkpt><trkpt lat="42.18547781353731" lon="11.795291310715255"><ele>13.0</ele><time>2026-04-19T08:10:48.91Z</time></trkpt><trkpt lat="42.18560842202266" lon="11.795152433510612"><ele>14.0</ele><time>2026-04-19T08:10:49.91Z</time></trkpt><trkpt lat="42.18573967175048" lon="11.795016521098589"><ele>15.0</ele><time>2026-04-19T08:10:50.91Z</time></trkpt><trkpt lat="42.18587458432853" lon="11.794882828310119"><ele>15.0</ele><time>2026-04-19T08:10:51.91Z</time></trkpt><trkpt lat="42.18600127496613" lon="11.794766421259965"><ele>15.0</ele><time>2026-04-19T08:10:52.91Z</time></trkpt><trkpt lat="42.186115266260416" lon="11.794646759899308"><ele>15.0</ele><time>2026-04-19T08:10:53.91Z</time></trkpt><trkpt lat="42.18622337302975" lon="11.794500975267237"><ele>13.666666666666666</ele><time>2026-04-19T08:10:54.91Z</time></trkpt><trkpt lat="42.18632274539519" lon="11.794324218793863"><ele>12.333333333333332</ele><time>2026-04-19T08:10:55.91Z</time></trkpt><trkpt lat="42.186422234339695" lon="11.794131039207336"><ele>11.0</ele><time>2026-04-19T08:10:56.91Z</time></trkpt><trkpt lat="42.186526593593705" lon="11.793937316319235"><ele>11.0</ele><time>2026-04-19T08:10:57.907Z</time></trkpt><trkpt lat="42.18663145821584" lon="11.793762628776438"><ele>11.0</ele><time>2026-04-19T08:10:58.907Z</time></trkpt><trkpt lat="42.18673230517382" lon="11.793585196984596"><ele>11.0</ele><time>2026-04-19T08:10:59.907Z</time></trkpt><trkpt lat="42.18682297916659" lon="11.793418619234224"><ele>13.666666666666666</ele><time>2026-04-19T08:11:00.907Z</time></trkpt><trkpt lat="42.18690429555025" lon="11.793253523208412"><ele>16.333333333333332</ele><time>2026-04-19T08:11:01.907Z</time></trkpt><trkpt lat="42.186983891431" lon="11.793080690216268"><ele>19.0</ele><time>2026-04-19T08:11:02.907Z</time></trkpt><trkpt lat="42.18706594680414" lon="11.792899959542773"><ele>19.0</ele><time>2026-04-19T08:11:03.907Z</time></trkpt><trkpt lat="42.18714519784397" lon="11.792721245972684"><ele>19.0</ele><time>2026-04-19T08:11:04.907Z</time></trkpt><trkpt lat="42.187215477416764" lon="11.792551747372846"><ele>19.0</ele><time>2026-04-19T08:11:05.907Z</time></trkpt><trkpt lat="42.18728663037261" lon="11.792391864919843"><ele>19.0</ele><time>2026-04-19T08:11:06.907Z</time></trkpt><trkpt lat="42.18735898399031" lon="11.792238623264602"><ele>18.25</ele><time>2026-04-19T08:11:07.906Z</time></trkpt><trkpt lat="42.187429339834615" lon="11.792078344832765"><ele>17.5</ele><time>2026-04-19T08:11:08.906Z</time></trkpt><trkpt lat="42.18749603778329" lon="11.791902250338357"><ele>16.75</ele><time>2026-04-19T08:11:09.907Z</time></trkpt><trkpt lat="42.18757216769661" lon="11.791733028703236"><ele>16.0</ele><time>2026-04-19T08:11:10.906Z</time></trkpt><trkpt lat="42.18765352349124" lon="11.791566141993604"><ele>16.0</ele><time>2026-04-19T08:11:11.906Z</time></trkpt><trkpt lat="42.187729891110415" lon="11.791407673187726"><ele>16.0</ele><time>2026-04-19T08:11:12.906Z</time></trkpt><trkpt lat="42.18779980808889" lon="11.791247300391259"><ele>16.0</ele><time>2026-04-19T08:11:13.906Z</time></trkpt><trkpt lat="42.18786367590839" lon="11.791097381801537"><ele>16.0</ele><time>2026-04-19T08:11:14.906Z</time></trkpt><trkpt lat="42.18791949628054" lon="11.79096077935768"><ele>16.5</ele><time>2026-04-19T08:11:15.906Z</time></trkpt><trkpt lat="42.187965050160535" lon="11.790841597414106"><ele>17.0</ele><time>2026-04-19T08:11:16.906Z</time></trkpt><trkpt lat="42.18800150432206" lon="11.790753593984968"><ele>17.5</ele><time>2026-04-19T08:11:17.906Z</time></trkpt><trkpt lat="42.18808005749857" lon="11.790710719921751"><ele>18.0</ele><time>2026-04-19T08:11:19.906Z</time></trkpt><trkpt lat="42.18815851733389" lon="11.79078217750108"><ele>18.5</ele><time>2026-04-19T08:11:21.906Z</time></trkpt><trkpt lat="42.18818496083053" lon="11.790897448652947"><ele>19.0</ele><time>2026-04-19T08:11:22.906Z</time></trkpt><trkpt lat="42.188206937612584" lon="11.791014226743041"><ele>16.25</ele><time>2026-04-19T08:11:23.906Z</time></trkpt><trkpt lat="42.188246833218514" lon="11.791151527603278"><ele>13.5</ele><time>2026-04-19T08:11:24.906Z</time></trkpt><trkpt lat="42.18830812795536" lon="11.79129877731497"><ele>10.75</ele><time>2026-04-19T08:11:25.906Z</time></trkpt><trkpt lat="42.188383911628456" lon="11.79146279046326"><ele>8.0</ele><time>2026-04-19T08:11:26.906Z</time></trkpt><trkpt lat="42.18845567153023" lon="11.79164100836608"><ele>8.0</ele><time>2026-04-19T08:11:27.906Z</time></trkpt><trkpt lat="42.188530203491254" lon="11.791831376506728"><ele>8.0</ele><time>2026-04-19T08:11:28.906Z</time></trkpt><trkpt lat="42.188614090287444" lon="11.792032760569116"><ele>8.0</ele><time>2026-04-19T08:11:29.906Z</time></trkpt><trkpt lat="42.18869750615261" lon="11.792238847389378"><ele>8.0</ele><time>2026-04-19T08:11:30.906Z</time></trkpt><trkpt lat="42.18878320527775" lon="11.792446690434469"><ele>8.0</ele><time>2026-04-19T08:11:31.906Z</time></trkpt><trkpt lat="42.18886222149456" lon="11.792644897484202"><ele>8.0</ele><time>2026-04-19T08:11:32.906Z</time></trkpt><trkpt lat="42.188940773782335" lon="11.792832890078625"><ele>8.333333333333332</ele><time>2026-04-19T08:11:33.906Z</time></trkpt><trkpt lat="42.18902267211717" lon="11.793024097125482"><ele>8.666666666666666</ele><time>2026-04-19T08:11:34.906Z</time></trkpt><trkpt lat="42.189104255424795" lon="11.793216398749086"><ele>9.0</ele><time>2026-04-19T08:11:35.906Z</time></trkpt><trkpt lat="42.18918252874233" lon="11.793405140775198"><ele>9.0</ele><time>2026-04-19T08:11:36.906Z</time></trkpt><trkpt lat="42.18925587923252" lon="11.793595233346888"><ele>9.0</ele><time>2026-04-19T08:11:37.906Z</time></trkpt><trkpt lat="42.189328788463065" lon="11.793775812152145"><ele>9.0</ele><time>2026-04-19T08:11:38.906Z</time></trkpt><trkpt lat="42.18940491597929" lon="11.793957573449797"><ele>9.0</ele><time>2026-04-19T08:11:39.906Z</time></trkpt><trkpt lat="42.18948544777129" lon="11.794131855014914"><ele>9.0</ele><time>2026-04-19T08:11:40.906Z</time></trkpt><trkpt lat="42.189563163624946" lon="11.794299763287688"><ele>9.0</ele><time>2026-04-19T08:11:41.906Z</time></trkpt><trkpt lat="42.18963815623109" lon="11.794471147951727"><ele>9.0</ele><time>2026-04-19T08:11:42.906Z</time></trkpt><trkpt lat="42.189709812200235" lon="11.794641174373924"><ele>9.0</ele><time>2026-04-19T08:11:43.906Z</time></trkpt><trkpt lat="42.1897770585248" lon="11.79480795248269"><ele>9.0</ele><time>2026-04-19T08:11:44.906Z</time></trkpt><trkpt lat="42.18984363672572" lon="11.794963904206188"><ele>9.0</ele><time>2026-04-19T08:11:45.906Z</time></trkpt><trkpt lat="42.189912572062156" lon="11.795124624978325"><ele>9.0</ele><time>2026-04-19T08:11:46.906Z</time></trkpt><trkpt lat="42.18997261940652" lon="11.79529081339578"><ele>9.25</ele><time>2026-04-19T08:11:47.906Z</time></trkpt><trkpt lat="42.190014366981615" lon="11.795465595679111"><ele>9.5</ele><time>2026-04-19T08:11:48.906Z</time></trkpt><trkpt lat="42.19001589983385" lon="11.79565047151213"><ele>9.75</ele><time>2026-04-19T08:11:49.906Z</time></trkpt><trkpt lat="42.18998521866082" lon="11.795834481956"><ele>10.0</ele><time>2026-04-19T08:11:50.906Z</time></trkpt><trkpt lat="42.18992073424437" lon="11.79600367367198"><ele>10.333333333333334</ele><time>2026-04-19T08:11:51.906Z</time></trkpt><trkpt lat="42.189832226284175" lon="11.79615933477469"><ele>10.666666666666666</ele><time>2026-04-19T08:11:52.906Z</time></trkpt><trkpt lat="42.189725988810586" lon="11.796300219244106"><ele>11.0</ele><time>2026-04-19T08:11:53.906Z</time></trkpt><trkpt lat="42.18961173460519" lon="11.796445938916705"><ele>11.0</ele><time>2026-04-19T08:11:54.906Z</time></trkpt><trkpt lat="42.18949393445479" lon="11.796591506362677"><ele>11.0</ele><time>2026-04-19T08:11:55.906Z</time></trkpt><trkpt lat="42.18937940988691" lon="11.796743042164548"><ele>11.0</ele><time>2026-04-19T08:11:56.906Z</time></trkpt><trkpt lat="42.189260120310365" lon="11.796898609666052"><ele>11.666666666666666</ele><time>2026-04-19T08:11:57.905Z</time></trkpt><trkpt lat="42.18913940045585" lon="11.797060551073395"><ele>12.333333333333332</ele><time>2026-04-19T08:11:58.905Z</time></trkpt><trkpt lat="42.18901754399914" lon="11.797228908815908"><ele>13.0</ele><time>2026-04-19T08:11:59.905Z</time></trkpt><trkpt lat="42.188896220876586" lon="11.797391012384978"><ele>13.0</ele><time>2026-04-19T08:12:00.905Z</time></trkpt><trkpt lat="42.188776701331705" lon="11.797559305387846"><ele>13.0</ele><time>2026-04-19T08:12:01.905Z</time></trkpt><trkpt lat="42.188659463041844" lon="11.797747225712186"><ele>13.0</ele><time>2026-04-19T08:12:02.905Z</time></trkpt><trkpt lat="42.18856090390547" lon="11.797942536305927"><ele>14.333333333333332</ele><time>2026-04-19T08:12:03.905Z</time></trkpt><trkpt lat="42.18847463843742" lon="11.798149492177945"><ele>15.666666666666668</ele><time>2026-04-19T08:12:04.905Z</time></trkpt><trkpt lat="42.188386644528215" lon="11.798354797113573"><ele>17.0</ele><time>2026-04-19T08:12:05.905Z</time></trkpt><trkpt lat="42.18830242683289" lon="11.798544719249778"><ele>18.0</ele><time>2026-04-19T08:12:06.905Z</time></trkpt><trkpt lat="42.18821412201381" lon="11.798731902027617"><ele>19.0</ele><time>2026-04-19T08:12:07.905Z</time></trkpt><trkpt lat="42.188125832208165" lon="11.798920027429373"><ele>20.0</ele><time>2026-04-19T08:12:08.905Z</time></trkpt><trkpt lat="42.18804015881762" lon="11.799113084186457"><ele>18.0</ele><time>2026-04-19T08:12:09.905Z</time></trkpt><trkpt lat="42.18794975073504" lon="11.799305110907962"><ele>16.0</ele><time>2026-04-19T08:12:10.905Z</time></trkpt><trkpt lat="42.18785904792798" lon="11.799503182493375"><ele>14.0</ele><time>2026-04-19T08:12:11.905Z</time></trkpt><trkpt lat="42.18777373600382" lon="11.79970048131811"><ele>14.0</ele><time>2026-04-19T08:12:12.905Z</time></trkpt><trkpt lat="42.187685517237306" lon="11.799902657913032"><ele>14.0</ele><time>2026-04-19T08:12:13.905Z</time></trkpt><trkpt lat="42.187596830580766" lon="11.800108181855697"><ele>14.0</ele><time>2026-04-19T08:12:14.905Z</time></trkpt><trkpt lat="42.18750446756661" lon="11.800311559379187"><ele>14.333333333333334</ele><time>2026-04-19T08:12:15.905Z</time></trkpt><trkpt lat="42.187410460686394" lon="11.800515048824577"><ele>14.666666666666668</ele><time>2026-04-19T08:12:16.905Z</time></trkpt><trkpt lat="42.187317270739904" lon="11.800722262739837"><ele>15.0</ele><time>2026-04-19T08:12:17.905Z</time></trkpt><trkpt lat="42.18722443902575" lon="11.800913729407112"><ele>14.333333333333332</ele><time>2026-04-19T08:12:18.905Z</time></trkpt><trkpt lat="42.18713822878317" lon="11.801104469424828"><ele>13.666666666666666</ele><time>2026-04-19T08:12:19.905Z</time></trkpt><trkpt lat="42.187051114883516" lon="11.801299158296537"><ele>13.0</ele><time>2026-04-19T08:12:20.905Z</time></trkpt><trkpt lat="42.18697250026587" lon="11.80148227086953"><ele>13.0</ele><time>2026-04-19T08:12:21.905Z</time></trkpt><trkpt lat="42.18690715783511" lon="11.801679755360288"><ele>13.0</ele><time>2026-04-19T08:12:22.905Z</time></trkpt><trkpt lat="42.18684644815375" lon="11.801880519234617"><ele>13.0</ele><time>2026-04-19T08:12:23.905Z</time></trkpt><trkpt lat="42.186797304901965" lon="11.802074455541346"><ele>13.666666666666666</ele><time>2026-04-19T08:12:24.905Z</time></trkpt><trkpt lat="42.186768751739784" lon="11.802282663060822"><ele>14.333333333333332</ele><time>2026-04-19T08:12:25.905Z</time></trkpt><trkpt lat="42.186757489259115" lon="11.802481390334124"><ele>15.0</ele><time>2026-04-19T08:12:26.905Z</time></trkpt><trkpt lat="42.18677982337681" lon="11.802676186944877"><ele>15.0</ele><time>2026-04-19T08:12:27.905Z</time></trkpt><trkpt lat="42.18683448867583" lon="11.802879496289673"><ele>15.0</ele><time>2026-04-19T08:12:28.905Z</time></trkpt><trkpt lat="42.18690313807876" lon="11.803089113225846"><ele>15.0</ele><time>2026-04-19T08:12:29.905Z</time></trkpt><trkpt lat="42.18696352332184" lon="11.803318220407395"><ele>15.0</ele><time>2026-04-19T08:12:30.905Z</time></trkpt><trkpt lat="42.18701201579634" lon="11.803556644624003"><ele>15.0</ele><time>2026-04-19T08:12:31.905Z</time></trkpt><trkpt lat="42.18703979651126" lon="11.80379480190951"><ele>15.0</ele><time>2026-04-19T08:12:32.905Z</time></trkpt><trkpt lat="42.18705076592864" lon="11.80403575398409"><ele>15.0</ele><time>2026-04-19T08:12:33.905Z</time></trkpt><trkpt lat="42.18706813515385" lon="11.80427754020692"><ele>15.0</ele><time>2026-04-19T08:12:34.905Z</time></trkpt><trkpt lat="42.187083791611926" lon="11.804506891297438"><ele>15.0</ele><time>2026-04-19T08:12:35.905Z</time></trkpt><trkpt lat="42.18710081170855" lon="11.804742190288419"><ele>15.333333333333332</ele><time>2026-04-19T08:12:36.905Z</time></trkpt><trkpt lat="42.187116560983426" lon="11.804981656159834"><ele>15.666666666666666</ele><time>2026-04-19T08:12:37.905Z</time></trkpt><trkpt lat="42.18712959419578" lon="11.805221556713787"><ele>16.0</ele><time>2026-04-19T08:12:38.905Z</time></trkpt><trkpt lat="42.187140628262696" lon="11.805447173868451"><ele>16.0</ele><time>2026-04-19T08:12:39.905Z</time></trkpt><trkpt lat="42.18715137294756" lon="11.80567426507536"><ele>16.0</ele><time>2026-04-19T08:12:40.905Z</time></trkpt><trkpt lat="42.18716240687012" lon="11.805906609445042"><ele>16.0</ele><time>2026-04-19T08:12:41.905Z</time></trkpt><trkpt lat="42.18717179594798" lon="11.806138122066777"><ele>16.0</ele><time>2026-04-19T08:12:42.905Z</time></trkpt><trkpt lat="42.18718564138995" lon="11.80636912153007"><ele>16.0</ele><time>2026-04-19T08:12:43.905Z</time></trkpt><trkpt lat="42.18719870200414" lon="11.806592895473274"><ele>16.0</ele><time>2026-04-19T08:12:44.905Z</time></trkpt><trkpt lat="42.18720953519247" lon="11.806816772467046"><ele>15.666666666666666</ele><time>2026-04-19T08:12:45.905Z</time></trkpt><trkpt lat="42.18722002913736" lon="11.807049148615024"><ele>15.333333333333332</ele><time>2026-04-19T08:12:46.905Z</time></trkpt><trkpt lat="42.187230443353045" lon="11.807279125504179"><ele>15.0</ele><time>2026-04-19T08:12:47.905Z</time></trkpt><trkpt lat="42.18724012798762" lon="11.807518590968936"><ele>15.666666666666668</ele><time>2026-04-19T08:12:48.905Z</time></trkpt><trkpt lat="42.18724920330455" lon="11.807751131108162"><ele>16.333333333333336</ele><time>2026-04-19T08:12:49.905Z</time></trkpt><trkpt lat="42.18726029142678" lon="11.807980546948171"><ele>17.0</ele><time>2026-04-19T08:12:50.905Z</time></trkpt><trkpt lat="42.18726865764887" lon="11.808203040837121"><ele>17.0</ele><time>2026-04-19T08:12:51.905Z</time></trkpt><trkpt lat="42.18727662780528" lon="11.808428423385537"><ele>17.0</ele><time>2026-04-19T08:12:52.905Z</time></trkpt><trkpt lat="42.187282606912326" lon="11.808653987325162"><ele>17.0</ele><time>2026-04-19T08:12:53.905Z</time></trkpt><trkpt lat="42.187295025420994" lon="11.808875102229546"><ele>17.0</ele><time>2026-04-19T08:12:54.905Z</time></trkpt><trkpt lat="42.187312533998174" lon="11.80910296396885"><ele>17.0</ele><time>2026-04-19T08:12:55.905Z</time></trkpt><trkpt lat="42.18733985024441" lon="11.809335008463727"><ele>17.0</ele><time>2026-04-19T08:12:56.905Z</time></trkpt><trkpt lat="42.187372784172275" lon="11.80956668823974"><ele>18.0</ele><time>2026-04-19T08:12:57.905Z</time></trkpt><trkpt lat="42.187407047011675" lon="11.80980021544714"><ele>19.0</ele><time>2026-04-19T08:12:58.905Z</time></trkpt><trkpt lat="42.187443608052234" lon="11.810037733255216"><ele>20.0</ele><time>2026-04-19T08:12:59.905Z</time></trkpt><trkpt lat="42.187478652155406" lon="11.81026456434296"><ele>20.0</ele><time>2026-04-19T08:13:00.905Z</time></trkpt><trkpt lat="42.18751231982143" lon="11.810494367627125"><ele>20.0</ele><time>2026-04-19T08:13:01.905Z</time></trkpt><trkpt lat="42.187549260458816" lon="11.81072592213079"><ele>20.0</ele><time>2026-04-19T08:13:02.905Z</time></trkpt><trkpt lat="42.18757947983765" lon="11.810957024447"><ele>19.666666666666668</ele><time>2026-04-19T08:13:03.902Z</time></trkpt><trkpt lat="42.18761661822191" lon="11.811197270185623"><ele>19.333333333333332</ele><time>2026-04-19T08:13:04.901Z</time></trkpt><trkpt lat="42.18765004178237" lon="11.811430873534572"><ele>19.0</ele><time>2026-04-19T08:13:05.901Z</time></trkpt><trkpt lat="42.18768564795779" lon="11.811665224887463"><ele>18.666666666666664</ele><time>2026-04-19T08:13:06.901Z</time></trkpt><trkpt lat="42.187722871160155" lon="11.811907948181725"><ele>18.333333333333332</ele><time>2026-04-19T08:13:07.902Z</time></trkpt><trkpt lat="42.18776065063782" lon="11.812149671924077"><ele>18.0</ele><time>2026-04-19T08:13:08.902Z</time></trkpt><trkpt lat="42.18779650631944" lon="11.812394117130326"><ele>18.0</ele><time>2026-04-19T08:13:09.901Z</time></trkpt><trkpt lat="42.18783392381238" lon="11.812634112705716"><ele>18.0</ele><time>2026-04-19T08:13:10.901Z</time></trkpt><trkpt lat="42.18787533934717" lon="11.81287734912855"><ele>18.0</ele><time>2026-04-19T08:13:11.901Z</time></trkpt><trkpt lat="42.18791256330909" lon="11.813121296369355"><ele>18.666666666666668</ele><time>2026-04-19T08:13:12.901Z</time></trkpt><trkpt lat="42.18795119504114" lon="11.813361697406997"><ele>19.333333333333336</ele><time>2026-04-19T08:13:13.902Z</time></trkpt><trkpt lat="42.187985469393055" lon="11.813605661500322"><ele>20.0</ele><time>2026-04-19T08:13:14.902Z</time></trkpt><trkpt lat="42.18802213209271" lon="11.813855703283856"><ele>20.0</ele><time>2026-04-19T08:13:15.902Z</time></trkpt><trkpt lat="42.18805741174805" lon="11.814098465919589"><ele>20.0</ele><time>2026-04-19T08:13:16.9Z</time></trkpt><trkpt lat="42.18809379254625" lon="11.814350042558738"><ele>20.0</ele><time>2026-04-19T08:13:17.9Z</time></trkpt><trkpt lat="42.188134019276106" lon="11.814596082455632"><ele>20.333333333333336</ele><time>2026-04-19T08:13:18.9Z</time></trkpt><trkpt lat="42.188173113996115" lon="11.814827540908427"><ele>20.666666666666668</ele><time>2026-04-19T08:13:19.9Z</time></trkpt><trkpt lat="42.188205423369" lon="11.81506895035161"><ele>21.0</ele><time>2026-04-19T08:13:20.9Z</time></trkpt><trkpt lat="42.188235064145495" lon="11.815311744289051"><ele>22.333333333333336</ele><time>2026-04-19T08:13:21.9Z</time></trkpt><trkpt lat="42.18825966826515" lon="11.815553524378878"><ele>23.666666666666668</ele><time>2026-04-19T08:13:22.9Z</time></trkpt><trkpt lat="42.188270487365706" lon="11.815802216155298"><ele>25.0</ele><time>2026-04-19T08:13:23.9Z</time></trkpt><trkpt lat="42.18827541658926" lon="11.816050723386086"><ele>25.333333333333336</ele><time>2026-04-19T08:13:24.9Z</time></trkpt><trkpt lat="42.188277279807714" lon="11.816291375279338"><ele>25.666666666666664</ele><time>2026-04-19T08:13:25.9Z</time></trkpt><trkpt lat="42.18827826279109" lon="11.816522600248755"><ele>26.0</ele><time>2026-04-19T08:13:26.9Z</time></trkpt><trkpt lat="42.18827701182433" lon="11.816745697693738"><ele>26.25</ele><time>2026-04-19T08:13:27.9Z</time></trkpt><trkpt lat="42.188280596291854" lon="11.81695351689804"><ele>26.5</ele><time>2026-04-19T08:13:28.9Z</time></trkpt><trkpt lat="42.188284297506854" lon="11.817151915184576"><ele>26.75</ele><time>2026-04-19T08:13:29.9Z</time></trkpt><trkpt lat="42.18828227529005" lon="11.817339122518094"><ele>27.0</ele><time>2026-04-19T08:13:30.9Z</time></trkpt><trkpt lat="42.188281688694936" lon="11.817512024108519"><ele>27.200000000000003</ele><time>2026-04-19T08:13:31.9Z</time></trkpt><trkpt lat="42.188276656908286" lon="11.817675802640201"><ele>27.400000000000002</ele><time>2026-04-19T08:13:32.9Z</time></trkpt><trkpt lat="42.18827307281766" lon="11.817819285366037"><ele>27.599999999999998</ele><time>2026-04-19T08:13:33.9Z</time></trkpt><trkpt lat="42.188271456297585" lon="11.8179342410949"><ele>27.799999999999997</ele><time>2026-04-19T08:13:34.9Z</time></trkpt><trkpt lat="42.18826897974126" lon="11.818021862072012"><ele>28.0</ele><time>2026-04-19T08:13:35.9Z</time></trkpt><trkpt lat="42.1882635955137" lon="11.818148476077823"><ele>28.000000000000004</ele><time>2026-04-19T08:13:37.9Z</time></trkpt><trkpt lat="42.18826058143503" lon="11.81825981973304"><ele>28.0</ele><time>2026-04-19T08:13:40.9Z</time></trkpt><trkpt lat="42.18825095752091" lon="11.818344297651588"><ele>28.0</ele><time>2026-04-19T08:14:10.9Z</time></trkpt><trkpt lat="42.188251917284916" lon="11.818443161058505"><ele>28.0</ele><time>2026-04-19T08:14:12.9Z</time></trkpt><trkpt lat="42.188252487068766" lon="11.81859558909083"><ele>28.000000000000004</ele><time>2026-04-19T08:14:14.9Z</time></trkpt><trkpt lat="42.18825439357843" lon="11.81870569913104"><ele>28.0</ele><time>2026-04-19T08:14:15.9Z</time></trkpt><trkpt lat="42.188261608701374" lon="11.818840492774378"><ele>27.799999999999997</ele><time>2026-04-19T08:14:16.9Z</time></trkpt><trkpt lat="42.18826118824162" lon="11.818994448191301"><ele>27.599999999999998</ele><time>2026-04-19T08:14:17.9Z</time></trkpt><trkpt lat="42.18824535315879" lon="11.819132899342632"><ele>27.400000000000002</ele><time>2026-04-19T08:14:18.9Z</time></trkpt><trkpt lat="42.18820461176345" lon="11.819249110226847"><ele>27.200000000000003</ele><time>2026-04-19T08:14:19.9Z</time></trkpt><trkpt lat="42.188138057655934" lon="11.819363983519606"><ele>27.0</ele><time>2026-04-19T08:14:20.9Z</time></trkpt><trkpt lat="42.188050186485576" lon="11.819464650739036"><ele>26.5</ele><time>2026-04-19T08:14:21.9Z</time></trkpt><trkpt lat="42.18794228532308" lon="11.819552940119774"><ele>26.0</ele><time>2026-04-19T08:14:22.9Z</time></trkpt><trkpt lat="42.18782050236935" lon="11.819622276785266"><ele>25.5</ele><time>2026-04-19T08:14:23.9Z</time></trkpt><trkpt lat="42.187701533055076" lon="11.819675918792969"><ele>25.0</ele><time>2026-04-19T08:14:24.9Z</time></trkpt><trkpt lat="42.1875725393476" lon="11.819748265618088"><ele>25.0</ele><time>2026-04-19T08:14:25.9Z</time></trkpt><trkpt lat="42.18743598636109" lon="11.819835926734548"><ele>25.0</ele><time>2026-04-19T08:14:26.9Z</time></trkpt><trkpt lat="42.18730452926769" lon="11.819917388507607"><ele>25.0</ele><time>2026-04-19T08:14:27.9Z</time></trkpt><trkpt lat="42.187170759439354" lon="11.820000476567028"><ele>25.0</ele><time>2026-04-19T08:14:28.9Z</time></trkpt><trkpt lat="42.187035030545054" lon="11.820079954867946"><ele>25.0</ele><time>2026-04-19T08:14:29.9Z</time></trkpt><trkpt lat="42.18690164428272" lon="11.820162114321606"><ele>25.0</ele><time>2026-04-19T08:14:30.9Z</time></trkpt><trkpt lat="42.186765518584885" lon="11.820244278072687"><ele>25.0</ele><time>2026-04-19T08:14:31.9Z</time></trkpt><trkpt lat="42.186628329600055" lon="11.82033066257643"><ele>25.0</ele><time>2026-04-19T08:14:32.9Z</time></trkpt><trkpt lat="42.18649618883246" lon="11.82042030270333"><ele>24.5</ele><time>2026-04-19T08:14:33.9Z</time></trkpt><trkpt lat="42.1863715427948" lon="11.820504644274255"><ele>24.0</ele><time>2026-04-19T08:14:34.9Z</time></trkpt><trkpt lat="42.18624225028214" lon="11.820587495455358"><ele>23.5</ele><time>2026-04-19T08:14:35.9Z</time></trkpt><trkpt lat="42.186109000710246" lon="11.820670251546147"><ele>23.0</ele><time>2026-04-19T08:14:36.9Z</time></trkpt><trkpt lat="42.18597877541351" lon="11.820752963819404"><ele>23.0</ele><time>2026-04-19T08:14:37.9Z</time></trkpt><trkpt lat="42.185857140964856" lon="11.82082661974169"><ele>23.0</ele><time>2026-04-19T08:14:38.9Z</time></trkpt><trkpt lat="42.18573544593728" lon="11.820905168797813"><ele>23.0</ele><time>2026-04-19T08:14:39.9Z</time></trkpt><trkpt lat="42.185610885684206" lon="11.820992818727499"><ele>23.0</ele><time>2026-04-19T08:14:40.9Z</time></trkpt><trkpt lat="42.1854801687574" lon="11.821064838251461"><ele>23.5</ele><time>2026-04-19T08:14:41.9Z</time></trkpt><trkpt lat="42.1853482527667" lon="11.821134739545437"><ele>24.0</ele><time>2026-04-19T08:14:42.9Z</time></trkpt><trkpt lat="42.18521997928323" lon="11.821209598019628"><ele>24.5</ele><time>2026-04-19T08:14:43.9Z</time></trkpt><trkpt lat="42.185095065485015" lon="11.821295066431126"><ele>25.0</ele><time>2026-04-19T08:14:44.9Z</time></trkpt><trkpt lat="42.18499020443537" lon="11.821396109265038"><ele>25.0</ele><time>2026-04-19T08:14:45.9Z</time></trkpt><trkpt lat="42.18490294430086" lon="11.821511469070835"><ele>25.0</ele><time>2026-04-19T08:14:46.9Z</time></trkpt><trkpt lat="42.18483487140175" lon="11.821637832211824"><ele>25.0</ele><time>2026-04-19T08:14:47.9Z</time></trkpt><trkpt lat="42.18478158398904" lon="11.821779018977017"><ele>25.0</ele><time>2026-04-19T08:14:48.9Z</time></trkpt><trkpt lat="42.18475441181854" lon="11.82193901991167"><ele>26.25</ele><time>2026-04-19T08:14:49.9Z</time></trkpt><trkpt lat="42.18474013341181" lon="11.822111206843047"><ele>27.5</ele><time>2026-04-19T08:14:50.9Z</time></trkpt><trkpt lat="42.18473614810327" lon="11.822292495177932"><ele>28.75</ele><time>2026-04-19T08:14:51.9Z</time></trkpt><trkpt lat="42.184740834825774" lon="11.82246639644306"><ele>30.0</ele><time>2026-04-19T08:14:52.9Z</time></trkpt><trkpt lat="42.18474523736155" lon="11.822650081030924"><ele>32.0</ele><time>2026-04-19T08:14:53.9Z</time></trkpt><trkpt lat="42.18474864064578" lon="11.82284176695134"><ele>34.0</ele><time>2026-04-19T08:14:54.9Z</time></trkpt><trkpt lat="42.18475185404578" lon="11.823030511000924"><ele>36.0</ele><time>2026-04-19T08:14:55.899Z</time></trkpt><trkpt lat="42.18475265772086" lon="11.823215335704436"><ele>38.0</ele><time>2026-04-19T08:14:56.899Z</time></trkpt><trkpt lat="42.184752658382706" lon="11.823382791057629"><ele>39.5</ele><time>2026-04-19T08:14:57.899Z</time></trkpt><trkpt lat="42.18475517226559" lon="11.823561685793486"><ele>41.0</ele><time>2026-04-19T08:14:58.899Z</time></trkpt><trkpt lat="42.18475458123177" lon="11.823745252343192"><ele>42.5</ele><time>2026-04-19T08:14:59.899Z</time></trkpt><trkpt lat="42.18475202556361" lon="11.823926856617966"><ele>44.0</ele><time>2026-04-19T08:15:00.899Z</time></trkpt><trkpt lat="42.184756943540656" lon="11.824107386251006"><ele>44.0</ele><time>2026-04-19T08:15:01.899Z</time></trkpt><trkpt lat="42.18476196361147" lon="11.824296909598392"><ele>44.0</ele><time>2026-04-19T08:15:02.899Z</time></trkpt><trkpt lat="42.18476531400573" lon="11.82448321438051"><ele>44.0</ele><time>2026-04-19T08:15:03.899Z</time></trkpt><trkpt lat="42.18476595563726" lon="11.824673523042897"><ele>44.0</ele><time>2026-04-19T08:15:04.899Z</time></trkpt><trkpt lat="42.18476986017616" lon="11.824872358944841"><ele>44.33333333333333</ele><time>2026-04-19T08:15:05.899Z</time></trkpt><trkpt lat="42.18476881212889" lon="11.825076235661145"><ele>44.666666666666664</ele><time>2026-04-19T08:15:06.899Z</time></trkpt><trkpt lat="42.18476837332034" lon="11.825288361788719"><ele>45.0</ele><time>2026-04-19T08:15:07.899Z</time></trkpt><trkpt lat="42.184767532745816" lon="11.825502603673616"><ele>45.0</ele><time>2026-04-19T08:15:08.899Z</time></trkpt><trkpt lat="42.18476886323646" lon="11.825703024929819"><ele>45.0</ele><time>2026-04-19T08:15:09.897Z</time></trkpt><trkpt lat="42.184774017620505" lon="11.825903858743503"><ele>45.0</ele><time>2026-04-19T08:15:10.897Z</time></trkpt><trkpt lat="42.18476984898912" lon="11.826084707676198"><ele>45.0</ele><time>2026-04-19T08:15:11.897Z</time></trkpt><trkpt lat="42.18477148913708" lon="11.826282984031268"><ele>43.0</ele><time>2026-04-19T08:15:12.897Z</time></trkpt><trkpt lat="42.18477007386776" lon="11.826493043581873"><ele>41.0</ele><time>2026-04-19T08:15:13.897Z</time></trkpt><trkpt lat="42.18477311093106" lon="11.826714128743612"><ele>39.0</ele><time>2026-04-19T08:15:14.897Z</time></trkpt><trkpt lat="42.184775491238845" lon="11.82693245786881"><ele>38.0</ele><time>2026-04-19T08:15:15.897Z</time></trkpt><trkpt lat="42.184777224782785" lon="11.82715474242949"><ele>37.0</ele><time>2026-04-19T08:15:16.897Z</time></trkpt><trkpt lat="42.18477458284608" lon="11.827381929697866"><ele>36.0</ele><time>2026-04-19T08:15:17.897Z</time></trkpt><trkpt lat="42.18477527256454" lon="11.82761339692823"><ele>35.666666666666664</ele><time>2026-04-19T08:15:18.897Z</time></trkpt><trkpt lat="42.18477588812501" lon="11.827851715784256"><ele>35.33333333333333</ele><time>2026-04-19T08:15:19.897Z</time></trkpt><trkpt lat="42.184776560636976" lon="11.828090501842738"><ele>35.0</ele><time>2026-04-19T08:15:20.897Z</time></trkpt><trkpt lat="42.1847773718771" lon="11.828321743904464"><ele>35.33333333333333</ele><time>2026-04-19T08:15:21.897Z</time></trkpt><trkpt lat="42.184773302074305" lon="11.8285442126842"><ele>35.666666666666664</ele><time>2026-04-19T08:15:22.897Z</time></trkpt><trkpt lat="42.1847766902873" lon="11.828762845109052"><ele>36.0</ele><time>2026-04-19T08:15:23.897Z</time></trkpt><trkpt lat="42.18478173578187" lon="11.828964403496077"><ele>36.0</ele><time>2026-04-19T08:15:24.897Z</time></trkpt><trkpt lat="42.18478503454175" lon="11.829157251739984"><ele>36.0</ele><time>2026-04-19T08:15:25.897Z</time></trkpt><trkpt lat="42.18478630755931" lon="11.829354061668067"><ele>36.0</ele><time>2026-04-19T08:15:26.897Z</time></trkpt><trkpt lat="42.18478266528145" lon="11.829548529227445"><ele>36.0</ele><time>2026-04-19T08:15:27.897Z</time></trkpt><trkpt lat="42.18478363059178" lon="11.82974596067632"><ele>36.5</ele><time>2026-04-19T08:15:28.897Z</time></trkpt><trkpt lat="42.18478370923723" lon="11.829944013241207"><ele>37.0</ele><time>2026-04-19T08:15:29.897Z</time></trkpt><trkpt lat="42.18478684306015" lon="11.830141710518879"><ele>37.5</ele><time>2026-04-19T08:15:30.897Z</time></trkpt><trkpt lat="42.18479957778915" lon="11.830319920850616"><ele>38.0</ele><time>2026-04-19T08:15:31.897Z</time></trkpt><trkpt lat="42.184823906856934" lon="11.830490752483458"><ele>38.75</ele><time>2026-04-19T08:15:32.897Z</time></trkpt><trkpt lat="42.18486850317761" lon="11.830665629745104"><ele>39.5</ele><time>2026-04-19T08:15:33.897Z</time></trkpt><trkpt lat="42.18491906256446" lon="11.830823652824122"><ele>40.25</ele><time>2026-04-19T08:15:34.897Z</time></trkpt><trkpt lat="42.18498709216139" lon="11.830971675220617"><ele>41.0</ele><time>2026-04-19T08:15:35.897Z</time></trkpt><trkpt lat="42.18506361683214" lon="11.831130330566536"><ele>41.0</ele><time>2026-04-19T08:15:36.897Z</time></trkpt><trkpt lat="42.185151643832896" lon="11.83128196805317"><ele>41.0</ele><time>2026-04-19T08:15:37.897Z</time></trkpt><trkpt lat="42.185231526125875" lon="11.831458984466602"><ele>41.0</ele><time>2026-04-19T08:15:38.897Z</time></trkpt><trkpt lat="42.185328958036415" lon="11.831603241530187"><ele>41.0</ele><time>2026-04-19T08:15:39.897Z</time></trkpt><trkpt lat="42.18540267989878" lon="11.831779782850985"><ele>39.5</ele><time>2026-04-19T08:15:40.897Z</time></trkpt><trkpt lat="42.18548941257029" lon="11.831941423984118"><ele>38.0</ele><time>2026-04-19T08:15:41.897Z</time></trkpt><trkpt lat="42.185574134949334" lon="11.832095073703389"><ele>36.5</ele><time>2026-04-19T08:15:42.897Z</time></trkpt><trkpt lat="42.18566719396692" lon="11.832263842480893"><ele>35.0</ele><time>2026-04-19T08:15:43.897Z</time></trkpt><trkpt lat="42.18575820231451" lon="11.832427686100237"><ele>35.0</ele><time>2026-04-19T08:15:44.897Z</time></trkpt><trkpt lat="42.185853724348945" lon="11.832599430513087"><ele>35.0</ele><time>2026-04-19T08:15:45.897Z</time></trkpt><trkpt lat="42.18595083443596" lon="11.83277371320856"><ele>35.0</ele><time>2026-04-19T08:15:46.896Z</time></trkpt><trkpt lat="42.18604230461291" lon="11.832936295365247"><ele>36.0</ele><time>2026-04-19T08:15:47.896Z</time></trkpt><trkpt lat="42.18614342388978" lon="11.833116028151945"><ele>37.0</ele><time>2026-04-19T08:15:48.896Z</time></trkpt><trkpt lat="42.18623438844682" lon="11.833277711604383"><ele>38.0</ele><time>2026-04-19T08:15:49.896Z</time></trkpt><trkpt lat="42.18632210612354" lon="11.833433623935239"><ele>37.0</ele><time>2026-04-19T08:15:50.896Z</time></trkpt><trkpt lat="42.18642236170226" lon="11.833580925876344"><ele>36.0</ele><time>2026-04-19T08:15:51.896Z</time></trkpt><trkpt lat="42.186516429029666" lon="11.833750328157665"><ele>35.0</ele><time>2026-04-19T08:15:52.896Z</time></trkpt><trkpt lat="42.18660533424769" lon="11.83391749473071"><ele>35.0</ele><time>2026-04-19T08:15:53.896Z</time></trkpt><trkpt lat="42.18670099094367" lon="11.834088631427642"><ele>35.0</ele><time>2026-04-19T08:15:54.896Z</time></trkpt><trkpt lat="42.18679797680082" lon="11.83426225911622"><ele>35.0</ele><time>2026-04-19T08:15:55.896Z</time></trkpt><trkpt lat="42.18689160211149" lon="11.83442726336155"><ele>36.0</ele><time>2026-04-19T08:15:56.896Z</time></trkpt><trkpt lat="42.18697926489438" lon="11.834578341386955"><ele>37.0</ele><time>2026-04-19T08:15:57.896Z</time></trkpt><trkpt lat="42.187051060520545" lon="11.834739623683182"><ele>38.0</ele><time>2026-04-19T08:15:58.896Z</time></trkpt><trkpt lat="42.18713461881589" lon="11.834888179223523"><ele>39.0</ele><time>2026-04-19T08:15:59.896Z</time></trkpt><trkpt lat="42.187222408259736" lon="11.83504425718143"><ele>39.75</ele><time>2026-04-19T08:16:00.896Z</time></trkpt><trkpt lat="42.18730481795417" lon="11.835190770665667"><ele>40.5</ele><time>2026-04-19T08:16:01.896Z</time></trkpt><trkpt lat="42.187390070316646" lon="11.835342338032593"><ele>41.25</ele><time>2026-04-19T08:16:02.896Z</time></trkpt><trkpt lat="42.1874731893545" lon="11.835490112621669"><ele>42.0</ele><time>2026-04-19T08:16:03.896Z</time></trkpt><trkpt lat="42.187556733070465" lon="11.835639665983782"><ele>40.75</ele><time>2026-04-19T08:16:04.896Z</time></trkpt><trkpt lat="42.187639347282904" lon="11.835788458773067"><ele>39.5</ele><time>2026-04-19T08:16:05.896Z</time></trkpt><trkpt lat="42.187721920774585" lon="11.835937178236506"><ele>38.25</ele><time>2026-04-19T08:16:06.896Z</time></trkpt><trkpt lat="42.1878155851192" lon="11.836070537510189"><ele>37.0</ele><time>2026-04-19T08:16:07.896Z</time></trkpt><trkpt lat="42.18787138475324" lon="11.836211939332163"><ele>37.0</ele><time>2026-04-19T08:16:08.896Z</time></trkpt><trkpt lat="42.18794743465299" lon="11.836362326069155"><ele>37.0</ele><time>2026-04-19T08:16:09.896Z</time></trkpt><trkpt lat="42.18802387799383" lon="11.836501969484239"><ele>37.0</ele><time>2026-04-19T08:16:10.896Z</time></trkpt><trkpt lat="42.18808009422693" lon="11.836635287344267"><ele>37.0</ele><time>2026-04-19T08:16:11.896Z</time></trkpt><trkpt lat="42.18811278175987" lon="11.836769881500572"><ele>37.2</ele><time>2026-04-19T08:16:12.896Z</time></trkpt><trkpt lat="42.18810525143608" lon="11.836891072132783"><ele>37.400000000000006</ele><time>2026-04-19T08:16:13.896Z</time></trkpt><trkpt lat="42.18809646531562" lon="11.837012555130384"><ele>37.599999999999994</ele><time>2026-04-19T08:16:14.896Z</time></trkpt><trkpt lat="42.18806588260843" lon="11.837142330550114"><ele>37.8</ele><time>2026-04-19T08:16:15.896Z</time></trkpt><trkpt lat="42.18804375770305" lon="11.837262626779344"><ele>38.0</ele><time>2026-04-19T08:16:16.896Z</time></trkpt><trkpt lat="42.18799655693899" lon="11.837367967026273"><ele>38.0</ele><time>2026-04-19T08:16:17.896Z</time></trkpt><trkpt lat="42.187916716871406" lon="11.83742908342231"><ele>38.0</ele><time>2026-04-19T08:16:18.896Z</time></trkpt><trkpt lat="42.18783367757369" lon="11.837518494565721"><ele>38.0</ele><time>2026-04-19T08:16:19.896Z</time></trkpt><trkpt lat="42.1877431196804" lon="11.837606775842278"><ele>38.0</ele><time>2026-04-19T08:16:20.896Z</time></trkpt><trkpt lat="42.18764427918674" lon="11.837691036413654"><ele>38.0</ele><time>2026-04-19T08:16:21.896Z</time></trkpt><trkpt lat="42.18754094789705" lon="11.837780619363821"><ele>38.0</ele><time>2026-04-19T08:16:22.896Z</time></trkpt><trkpt lat="42.187445783927714" lon="11.837872083751806"><ele>38.0</ele><time>2026-04-19T08:16:23.896Z</time></trkpt><trkpt lat="42.18735693164818" lon="11.837966781634078"><ele>38.0</ele><time>2026-04-19T08:16:24.896Z</time></trkpt><trkpt lat="42.18726160716711" lon="11.838062309054868"><ele>38.0</ele><time>2026-04-19T08:16:25.896Z</time></trkpt><trkpt lat="42.18716039419702" lon="11.838154094213825"><ele>38.0</ele><time>2026-04-19T08:16:26.896Z</time></trkpt><trkpt lat="42.18705723045496" lon="11.838245325426675"><ele>38.0</ele><time>2026-04-19T08:16:27.896Z</time></trkpt><trkpt lat="42.18695184269816" lon="11.838335967493865"><ele>38.0</ele><time>2026-04-19T08:16:28.896Z</time></trkpt><trkpt lat="42.18685244647517" lon="11.838437234017182"><ele>38.0</ele><time>2026-04-19T08:16:29.896Z</time></trkpt><trkpt lat="42.18674803110285" lon="11.83853148732693"><ele>38.5</ele><time>2026-04-19T08:16:30.896Z</time></trkpt><trkpt lat="42.1866503433381" lon="11.838620196362763"><ele>39.0</ele><time>2026-04-19T08:16:31.896Z</time></trkpt><trkpt lat="42.18655063843845" lon="11.838716182470856"><ele>39.5</ele><time>2026-04-19T08:16:32.896Z</time></trkpt><trkpt lat="42.18645758074894" lon="11.838811453530763"><ele>40.0</ele><time>2026-04-19T08:16:33.896Z</time></trkpt><trkpt lat="42.18636701093164" lon="11.838917015276012"><ele>40.0</ele><time>2026-04-19T08:16:34.896Z</time></trkpt><trkpt lat="42.186278360478056" lon="11.839014993502259"><ele>40.0</ele><time>2026-04-19T08:16:35.896Z</time></trkpt><trkpt lat="42.186208462519204" lon="11.839111214692968"><ele>40.0</ele><time>2026-04-19T08:16:36.896Z</time></trkpt><trkpt lat="42.186146226046674" lon="11.839219795919462"><ele>40.0</ele><time>2026-04-19T08:16:37.896Z</time></trkpt><trkpt lat="42.1860858967916" lon="11.839354467016541"><ele>40.0</ele><time>2026-04-19T08:16:38.896Z</time></trkpt><trkpt lat="42.18603575895177" lon="11.83948932177362"><ele>40.0</ele><time>2026-04-19T08:16:39.896Z</time></trkpt><trkpt lat="42.18600062373579" lon="11.839632980119175"><ele>40.0</ele><time>2026-04-19T08:16:40.896Z</time></trkpt><trkpt lat="42.18597469323393" lon="11.839764432715555"><ele>40.0</ele><time>2026-04-19T08:16:41.896Z</time></trkpt><trkpt lat="42.18596327877074" lon="11.83991178612514"><ele>40.0</ele><time>2026-04-19T08:16:42.896Z</time></trkpt><trkpt lat="42.185950359587935" lon="11.840064708203531"><ele>40.0</ele><time>2026-04-19T08:16:43.896Z</time></trkpt><trkpt lat="42.18592527376507" lon="11.84022025348742"><ele>40.0</ele><time>2026-04-19T08:16:44.896Z</time></trkpt><trkpt lat="42.18590064351402" lon="11.840390504172282"><ele>40.0</ele><time>2026-04-19T08:16:45.896Z</time></trkpt><trkpt lat="42.18587280825542" lon="11.840562270292256"><ele>40.0</ele><time>2026-04-19T08:16:46.896Z</time></trkpt><trkpt lat="42.18584210320468" lon="11.840736511221207"><ele>40.0</ele><time>2026-04-19T08:16:47.896Z</time></trkpt><trkpt lat="42.185815718414325" lon="11.840906362320155"><ele>40.75</ele><time>2026-04-19T08:16:48.896Z</time></trkpt><trkpt lat="42.18579331541873" lon="11.841073136985242"><ele>41.5</ele><time>2026-04-19T08:16:49.896Z</time></trkpt><trkpt lat="42.18576645804134" lon="11.841244770864638"><ele>42.25</ele><time>2026-04-19T08:16:50.896Z</time></trkpt><trkpt lat="42.185746224776054" lon="11.84142679356338"><ele>43.0</ele><time>2026-04-19T08:16:51.896Z</time></trkpt><trkpt lat="42.18572647197988" lon="11.84160443844104"><ele>43.0</ele><time>2026-04-19T08:16:52.896Z</time></trkpt><trkpt lat="42.1857099073102" lon="11.841787324683063"><ele>43.0</ele><time>2026-04-19T08:16:53.896Z</time></trkpt><trkpt lat="42.18568185912392" lon="11.841975944017138"><ele>43.0</ele><time>2026-04-19T08:16:54.896Z</time></trkpt><trkpt lat="42.18565069374946" lon="11.842164148425336"><ele>43.0</ele><time>2026-04-19T08:16:55.896Z</time></trkpt><trkpt lat="42.185618037385865" lon="11.842329542705945"><ele>43.5</ele><time>2026-04-19T08:16:56.896Z</time></trkpt><trkpt lat="42.18559024664981" lon="11.842478548951917"><ele>44.0</ele><time>2026-04-19T08:16:57.896Z</time></trkpt><trkpt lat="42.18557139820699" lon="11.842623981244639"><ele>44.5</ele><time>2026-04-19T08:16:58.896Z</time></trkpt><trkpt lat="42.18556791469605" lon="11.842779841092009"><ele>45.0</ele><time>2026-04-19T08:16:59.896Z</time></trkpt><trkpt lat="42.185584526291606" lon="11.84293414625499"><ele>45.0</ele><time>2026-04-19T08:17:00.896Z</time></trkpt><trkpt lat="42.18561739198765" lon="11.84309162621827"><ele>45.0</ele><time>2026-04-19T08:17:01.896Z</time></trkpt><trkpt lat="42.18567418559125" lon="11.843239405097055"><ele>45.0</ele><time>2026-04-19T08:17:02.896Z</time></trkpt><trkpt lat="42.18573940030819" lon="11.843379533004152"><ele>45.0</ele><time>2026-04-19T08:17:03.896Z</time></trkpt><trkpt lat="42.18582618141577" lon="11.84351263485904"><ele>45.25</ele><time>2026-04-19T08:17:04.896Z</time></trkpt><trkpt lat="42.1859219529048" lon="11.843645594982037"><ele>45.5</ele><time>2026-04-19T08:17:05.896Z</time></trkpt><trkpt lat="42.18602024200457" lon="11.843757964754756"><ele>45.75</ele><time>2026-04-19T08:17:06.896Z</time></trkpt><trkpt lat="42.18611778941577" lon="11.843856383415947"><ele>46.0</ele><time>2026-04-19T08:17:07.896Z</time></trkpt><trkpt lat="42.18622478135737" lon="11.843945407376484"><ele>46.0</ele><time>2026-04-19T08:17:08.896Z</time></trkpt><trkpt lat="42.18634311212824" lon="11.844041325888702"><ele>46.0</ele><time>2026-04-19T08:17:09.896Z</time></trkpt><trkpt lat="42.18646107342102" lon="11.844143149553313"><ele>46.0</ele><time>2026-04-19T08:17:10.896Z</time></trkpt><trkpt lat="42.18656375550699" lon="11.844252477091132"><ele>46.0</ele><time>2026-04-19T08:17:11.896Z</time></trkpt><trkpt lat="42.18666052332395" lon="11.844366351309167"><ele>48.25</ele><time>2026-04-19T08:17:12.896Z</time></trkpt><trkpt lat="42.18675191372944" lon="11.84446938257841"><ele>50.5</ele><time>2026-04-19T08:17:13.896Z</time></trkpt><trkpt lat="42.186846918546415" lon="11.844584735037731"><ele>52.75</ele><time>2026-04-19T08:17:14.896Z</time></trkpt><trkpt lat="42.18694347178761" lon="11.844693590819265"><ele>55.0</ele><time>2026-04-19T08:17:15.892Z</time></trkpt><trkpt lat="42.187036610981295" lon="11.844772434362826"><ele>55.0</ele><time>2026-04-19T08:17:16.892Z</time></trkpt><trkpt lat="42.18713249034803" lon="11.844840111246194"><ele>55.0</ele><time>2026-04-19T08:17:17.892Z</time></trkpt><trkpt lat="42.18722714044142" lon="11.844927056280168"><ele>55.0</ele><time>2026-04-19T08:17:18.892Z</time></trkpt><trkpt lat="42.18731881276959" lon="11.84503616740766"><ele>55.0</ele><time>2026-04-19T08:17:19.891Z</time></trkpt><trkpt lat="42.18741594112587" lon="11.845144841174953"><ele>55.25</ele><time>2026-04-19T08:17:20.891Z</time></trkpt><trkpt lat="42.18751450855077" lon="11.84524806050026"><ele>55.5</ele><time>2026-04-19T08:17:21.891Z</time></trkpt><trkpt lat="42.18761280126123" lon="11.845342747829235"><ele>55.75</ele><time>2026-04-19T08:17:22.891Z</time></trkpt><trkpt lat="42.18771691442688" lon="11.845438935045076"><ele>56.0</ele><time>2026-04-19T08:17:23.891Z</time></trkpt><trkpt lat="42.18782454642642" lon="11.845542258648823"><ele>56.0</ele><time>2026-04-19T08:17:24.891Z</time></trkpt><trkpt lat="42.187918859518476" lon="11.845624254467499"><ele>55.99999999999999</ele><time>2026-04-19T08:17:25.892Z</time></trkpt><trkpt lat="42.18799366979654" lon="11.845700308888285"><ele>55.99999999999999</ele><time>2026-04-19T08:17:26.891Z</time></trkpt><trkpt lat="42.18805959225255" lon="11.84577183999112"><ele>56.0</ele><time>2026-04-19T08:17:27.892Z</time></trkpt><trkpt lat="42.18810420984346" lon="11.84586197796611"><ele>56.0</ele><time>2026-04-19T08:17:28.891Z</time></trkpt><trkpt lat="42.18815219364537" lon="11.845958891214387"><ele>58.0</ele><time>2026-04-19T08:17:29.891Z</time></trkpt><trkpt lat="42.18818187403132" lon="11.846079930562599"><ele>59.99999999999999</ele><time>2026-04-19T08:17:30.891Z</time></trkpt><trkpt lat="42.18823694809639" lon="11.846181993961176"><ele>61.99999999999999</ele><time>2026-04-19T08:17:31.891Z</time></trkpt><trkpt lat="42.188256657348" lon="11.84627655983697"><ele>64.0</ele><time>2026-04-19T08:17:32.891Z</time></trkpt><trkpt lat="42.18832115239792" lon="11.846406351744614"><ele>66.0</ele><time>2026-04-19T08:17:34.891Z</time></trkpt><trkpt lat="42.18836549637729" lon="11.84651274719899"><ele>66.0</ele><time>2026-04-19T08:17:35.891Z</time></trkpt><trkpt lat="42.18840957696549" lon="11.84664849852997"><ele>66.0</ele><time>2026-04-19T08:17:36.891Z</time></trkpt><trkpt lat="42.18843964299004" lon="11.846770624335138"><ele>66.0</ele><time>2026-04-19T08:17:37.891Z</time></trkpt><trkpt lat="42.18846035647065" lon="11.846872134263604"><ele>66.0</ele><time>2026-04-19T08:17:38.891Z</time></trkpt><trkpt lat="42.188475095088684" lon="11.847010899871472"><ele>66.0</ele><time>2026-04-19T08:17:40.891Z</time></trkpt><trkpt lat="42.18852940307268" lon="11.847125682643231"><ele>66.5</ele><time>2026-04-19T08:17:42.891Z</time></trkpt><trkpt lat="42.18858631438822" lon="11.847174387639347"><ele>67.0</ele><time>2026-04-19T08:17:43.891Z</time></trkpt><trkpt lat="42.18864872376451" lon="11.847220251596472"><ele>67.5</ele><time>2026-04-19T08:17:44.891Z</time></trkpt><trkpt lat="42.18871001134861" lon="11.84725666166049"><ele>68.0</ele><time>2026-04-19T08:17:45.891Z</time></trkpt><trkpt lat="42.188824603582916" lon="11.847331429363754"><ele>68.5</ele><time>2026-04-19T08:17:47.891Z</time></trkpt><trkpt lat="42.18885526674497" lon="11.847432731285096"><ele>69.0</ele><time>2026-04-19T08:17:48.891Z</time></trkpt><trkpt lat="42.18892047884196" lon="11.847508941715903"><ele>69.0</ele><time>2026-04-19T08:17:49.891Z</time></trkpt><trkpt lat="42.1889681358322" lon="11.847576191690479"><ele>69.0</ele><time>2026-04-19T08:17:50.891Z</time></trkpt><trkpt lat="42.1890506963405" lon="11.847727909061424"><ele>69.0</ele><time>2026-04-19T08:17:52.891Z</time></trkpt><trkpt lat="42.18908692421441" lon="11.847820201658397"><ele>69.0</ele><time>2026-04-19T08:17:53.891Z</time></trkpt><trkpt lat="42.18911575032409" lon="11.847911846377414"><ele>69.0</ele><time>2026-04-19T08:17:54.891Z</time></trkpt><trkpt lat="42.18915783959449" lon="11.848010339026402"><ele>69.0</ele><time>2026-04-19T08:17:55.891Z</time></trkpt><trkpt lat="42.18920569466019" lon="11.848090558324294"><ele>69.5</ele><time>2026-04-19T08:17:56.891Z</time></trkpt><trkpt lat="42.18927363734917" lon="11.84818235968762"><ele>70.0</ele><time>2026-04-19T08:17:57.891Z</time></trkpt><trkpt lat="42.189337420902326" lon="11.848263581577687"><ele>70.5</ele><time>2026-04-19T08:17:58.891Z</time></trkpt><trkpt lat="42.18939226207208" lon="11.84833182532656"><ele>71.0</ele><time>2026-04-19T08:17:59.891Z</time></trkpt><trkpt lat="42.18944290106996" lon="11.848393235356676"><ele>71.5</ele><time>2026-04-19T08:18:00.891Z</time></trkpt><trkpt lat="42.18948874657556" lon="11.848471858759014"><ele>72.0</ele><time>2026-04-19T08:18:01.891Z</time></trkpt><trkpt lat="42.189523571704406" lon="11.848566132820073"><ele>72.6</ele><time>2026-04-19T08:18:02.891Z</time></trkpt><trkpt lat="42.189545383303575" lon="11.848649526739356"><ele>73.2</ele><time>2026-04-19T08:18:03.891Z</time></trkpt><trkpt lat="42.189571770893004" lon="11.848823596296587"><ele>73.8</ele><time>2026-04-19T08:18:05.891Z</time></trkpt><trkpt lat="42.18956968406249" lon="11.848937176576348"><ele>74.4</ele><time>2026-04-19T08:18:06.891Z</time></trkpt><trkpt lat="42.189550596621324" lon="11.849084452159987"><ele>75.0</ele><time>2026-04-19T08:18:07.891Z</time></trkpt><trkpt lat="42.18951553164039" lon="11.849235089529033"><ele>76.2</ele><time>2026-04-19T08:18:08.891Z</time></trkpt><trkpt lat="42.18948186635775" lon="11.849376918414778"><ele>77.4</ele><time>2026-04-19T08:18:09.891Z</time></trkpt><trkpt lat="42.1894337523458" lon="11.849510149587353"><ele>78.6</ele><time>2026-04-19T08:18:10.891Z</time></trkpt><trkpt lat="42.18938569403616" lon="11.849612956930237"><ele>79.8</ele><time>2026-04-19T08:18:11.891Z</time></trkpt><trkpt lat="42.189349145110164" lon="11.849696665777197"><ele>81.0</ele><time>2026-04-19T08:18:12.891Z</time></trkpt><trkpt lat="42.18928829462814" lon="11.84983289351427"><ele>81.0</ele><time>2026-04-19T08:18:14.891Z</time></trkpt><trkpt lat="42.1892533558398" lon="11.84991107491533"><ele>81.0</ele><time>2026-04-19T08:18:15.891Z</time></trkpt><trkpt lat="42.189242585873814" lon="11.850002448432381"><ele>81.0</ele><time>2026-04-19T08:18:16.891Z</time></trkpt><trkpt lat="42.189255160366464" lon="11.850120624973876"><ele>81.0</ele><time>2026-04-19T08:18:17.891Z</time></trkpt><trkpt lat="42.189289684975776" lon="11.850225942696532"><ele>81.0</ele><time>2026-04-19T08:18:18.891Z</time></trkpt><trkpt lat="42.18933449689851" lon="11.850308292502753"><ele>81.0</ele><time>2026-04-19T08:18:19.891Z</time></trkpt><trkpt lat="42.1893982057653" lon="11.850382978474128"><ele>81.5</ele><time>2026-04-19T08:18:20.891Z</time></trkpt><trkpt lat="42.18947866928293" lon="11.850456841304798"><ele>82.0</ele><time>2026-04-19T08:18:21.891Z</time></trkpt><trkpt lat="42.18955273266325" lon="11.850533859631966"><ele>82.5</ele><time>2026-04-19T08:18:22.891Z</time></trkpt><trkpt lat="42.18961130928235" lon="11.850600615571999"><ele>83.0</ele><time>2026-04-19T08:18:23.891Z</time></trkpt><trkpt lat="42.189661183906885" lon="11.850680989836262"><ele>83.5</ele><time>2026-04-19T08:18:24.891Z</time></trkpt><trkpt lat="42.18969775371373" lon="11.850780477687444"><ele>84.0</ele><time>2026-04-19T08:18:25.891Z</time></trkpt><trkpt lat="42.18972616978573" lon="11.850908889500158"><ele>85.2</ele><time>2026-04-19T08:18:26.891Z</time></trkpt><trkpt lat="42.18974326813903" lon="11.851045973218147"><ele>86.4</ele><time>2026-04-19T08:18:27.891Z</time></trkpt><trkpt lat="42.18975901866367" lon="11.851177085275905"><ele>87.6</ele><time>2026-04-19T08:18:28.891Z</time></trkpt><trkpt lat="42.18976053730517" lon="11.851320193556974"><ele>88.8</ele><time>2026-04-19T08:18:29.891Z</time></trkpt><trkpt lat="42.18975619898048" lon="11.851457247190154"><ele>90.0</ele><time>2026-04-19T08:18:30.891Z</time></trkpt><trkpt lat="42.18975869926213" lon="11.851576195715037"><ele>90.0</ele><time>2026-04-19T08:18:31.891Z</time></trkpt><trkpt lat="42.1897658036525" lon="11.851693540033363"><ele>90.0</ele><time>2026-04-19T08:18:32.891Z</time></trkpt><trkpt lat="42.1897754771418" lon="11.851813686779723"><ele>90.0</ele><time>2026-04-19T08:18:33.891Z</time></trkpt><trkpt lat="42.189785406468374" lon="11.851931197807284"><ele>90.0</ele><time>2026-04-19T08:18:34.891Z</time></trkpt><trkpt lat="42.189793579008786" lon="11.852037326904217"><ele>90.0</ele><time>2026-04-19T08:18:35.891Z</time></trkpt><trkpt lat="42.18622478135737" lon="11.843945407376484"><ele>81.25</ele><time>2026-04-19T08:17:08.896Z</time></trkpt><trkpt lat="42.18634311212824" lon="11.844041325888702"><ele>72.5</ele><time>2026-04-19T08:17:09.896Z</time></trkpt><trkpt lat="42.18646107342102" lon="11.844143149553313"><ele>63.75</ele><time>2026-04-19T08:17:10.896Z</time></trkpt><trkpt lat="42.18656375550699" lon="11.844252477091132"><ele>55.0</ele><time>2026-04-19T08:17:11.896Z</time></trkpt><trkpt lat="42.18666052332395" lon="11.844366351309167"><ele>55.0</ele><time>2026-04-19T08:17:12.896Z</time></trkpt><trkpt lat="42.18675191372944" lon="11.84446938257841"><ele>55.0</ele><time>2026-04-19T08:17:13.896Z</time></trkpt><trkpt lat="42.186846918546415" lon="11.844584735037731"><ele>55.0</ele><time>2026-04-19T08:17:14.896Z</time></trkpt><trkpt lat="42.18694347178761" lon="11.844693590819265"><ele>55.0</ele><time>2026-04-19T08:17:15.892Z</time></trkpt><trkpt lat="42.187036610981295" lon="11.844772434362826"><ele>55.0</ele><time>2026-04-19T08:17:16.892Z</time></trkpt><trkpt lat="42.18713249034803" lon="11.844840111246194"><ele>55.0</ele><time>2026-04-19T08:17:17.892Z</time></trkpt><trkpt lat="42.18722714044142" lon="11.844927056280168"><ele>55.0</ele><time>2026-04-19T08:17:18.892Z</time></trkpt><trkpt lat="42.18731881276959" lon="11.84503616740766"><ele>55.0</ele><time>2026-04-19T08:17:19.891Z</time></trkpt><trkpt lat="42.18741594112587" lon="11.845144841174953"><ele>55.25</ele><time>2026-04-19T08:17:20.891Z</time></trkpt><trkpt lat="42.18751450855077" lon="11.84524806050026"><ele>55.5</ele><time>2026-04-19T08:17:21.891Z</time></trkpt><trkpt lat="42.18761280126123" lon="11.845342747829235"><ele>55.75</ele><time>2026-04-19T08:17:22.891Z</time></trkpt><trkpt lat="42.18771691442688" lon="11.845438935045076"><ele>56.0</ele><time>2026-04-19T08:17:23.891Z</time></trkpt><trkpt lat="42.18782454642642" lon="11.845542258648823"><ele>56.0</ele><time>2026-04-19T08:17:24.891Z</time></trkpt><trkpt lat="42.187918859518476" lon="11.845624254467499"><ele>55.99999999999999</ele><time>2026-04-19T08:17:25.892Z</time></trkpt><trkpt lat="42.18799366979654" lon="11.845700308888285"><ele>55.99999999999999</ele><time>2026-04-19T08:17:26.891Z</time></trkpt><trkpt lat="42.18805959225255" lon="11.84577183999112"><ele>56.0</ele><time>2026-04-19T08:17:27.892Z</time></trkpt><trkpt lat="42.18810420984346" lon="11.84586197796611"><ele>56.0</ele><time>2026-04-19T08:17:28.891Z</time></trkpt><trkpt lat="42.18815219364537" lon="11.845958891214387"><ele>58.0</ele><time>2026-04-19T08:17:29.891Z</time></trkpt><trkpt lat="42.18818187403132" lon="11.846079930562599"><ele>59.99999999999999</ele><time>2026-04-19T08:17:30.891Z</time></trkpt><trkpt lat="42.18823694809639" lon="11.846181993961176"><ele>61.99999999999999</ele><time>2026-04-19T08:17:31.891Z</time></trkpt><trkpt lat="42.188256657348" lon="11.84627655983697"><ele>64.0</ele><time>2026-04-19T08:17:32.891Z</time></trkpt><trkpt lat="42.18832115239792" lon="11.846406351744614"><ele>66.0</ele><time>2026-04-19T08:17:34.891Z</time></trkpt><trkpt lat="42.18836549637729" lon="11.84651274719899"><ele>66.0</ele><time>2026-04-19T08:17:35.891Z</time></trkpt><trkpt lat="42.18840957696549" lon="11.84664849852997"><ele>66.0</ele><time>2026-04-19T08:17:36.891Z</time></trkpt><trkpt lat="42.18843964299004" lon="11.846770624335138"><ele>66.0</ele><time>2026-04-19T08:17:37.891Z</time></trkpt><trkpt lat="42.18846035647065" lon="11.846872134263604"><ele>66.0</ele><time>2026-04-19T08:17:38.891Z</time></trkpt><trkpt lat="42.188475095088684" lon="11.847010899871472"><ele>66.0</ele><time>2026-04-19T08:17:40.891Z</time></trkpt><trkpt lat="42.18852940307268" lon="11.847125682643231"><ele>66.5</ele><time>2026-04-19T08:17:42.891Z</time></trkpt><trkpt lat="42.18858631438822" lon="11.847174387639347"><ele>67.0</ele><time>2026-04-19T08:17:43.891Z</time></trkpt><trkpt lat="42.18864872376451" lon="11.847220251596472"><ele>67.5</ele><time>2026-04-19T08:17:44.891Z</time></trkpt><trkpt lat="42.18871001134861" lon="11.84725666166049"><ele>68.0</ele><time>2026-04-19T08:17:45.891Z</time></trkpt><trkpt lat="42.188824603582916" lon="11.847331429363754"><ele>68.5</ele><time>2026-04-19T08:17:47.891Z</time></trkpt><trkpt lat="42.18885526674497" lon="11.847432731285096"><ele>69.0</ele><time>2026-04-19T08:17:48.891Z</time></trkpt><trkpt lat="42.18892047884196" lon="11.847508941715903"><ele>69.0</ele><time>2026-04-19T08:17:49.891Z</time></trkpt><trkpt lat="42.1889681358322" lon="11.847576191690479"><ele>69.0</ele><time>2026-04-19T08:17:50.891Z</time></trkpt><trkpt lat="42.1890506963405" lon="11.847727909061424"><ele>69.0</ele><time>2026-04-19T08:17:52.891Z</time></trkpt><trkpt lat="42.18908692421441" lon="11.847820201658397"><ele>69.0</ele><time>2026-04-19T08:17:53.891Z</time></trkpt><trkpt lat="42.18911575032409" lon="11.847911846377414"><ele>69.0</ele><time>2026-04-19T08:17:54.891Z</time></trkpt><trkpt lat="42.18915783959449" lon="11.848010339026402"><ele>69.0</ele><time>2026-04-19T08:17:55.891Z</time></trkpt><trkpt lat="42.18920569466019" lon="11.848090558324294"><ele>69.5</ele><time>2026-04-19T08:17:56.891Z</time></trkpt><trkpt lat="42.18927363734917" lon="11.84818235968762"><ele>70.0</ele><time>2026-04-19T08:17:57.891Z</time></trkpt><trkpt lat="42.189337420902326" lon="11.848263581577687"><ele>70.5</ele><time>2026-04-19T08:17:58.891Z</time></trkpt><trkpt lat="42.18939226207208" lon="11.84833182532656"><ele>71.0</ele><time>2026-04-19T08:17:59.891Z</time></trkpt><trkpt lat="42.18944290106996" lon="11.848393235356676"><ele>71.5</ele><time>2026-04-19T08:18:00.891Z</time></trkpt><trkpt lat="42.18948874657556" lon="11.848471858759014"><ele>72.0</ele><time>2026-04-19T08:18:01.891Z</time></trkpt><trkpt lat="42.189523571704406" lon="11.848566132820073"><ele>72.6</ele><time>2026-04-19T08:18:02.891Z</time></trkpt><trkpt lat="42.189545383303575" lon="11.848649526739356"><ele>73.2</ele><time>2026-04-19T08:18:03.891Z</time></trkpt><trkpt lat="42.189571770893004" lon="11.848823596296587"><ele>73.8</ele><time>2026-04-19T08:18:05.891Z</time></trkpt><trkpt lat="42.18956968406249" lon="11.848937176576348"><ele>74.4</ele><time>2026-04-19T08:18:06.891Z</time></trkpt><trkpt lat="42.189550596621324" lon="11.849084452159987"><ele>75.0</ele><time>2026-04-19T08:18:07.891Z</time></trkpt><trkpt lat="42.18951553164039" lon="11.849235089529033"><ele>76.2</ele><time>2026-04-19T08:18:08.891Z</time></trkpt><trkpt lat="42.18948186635775" lon="11.849376918414778"><ele>77.4</ele><time>2026-04-19T08:18:09.891Z</time></trkpt><trkpt lat="42.1894337523458" lon="11.849510149587353"><ele>78.6</ele><time>2026-04-19T08:18:10.891Z</time></trkpt><trkpt lat="42.18938569403616" lon="11.849612956930237"><ele>79.8</ele><time>2026-04-19T08:18:11.891Z</time></trkpt><trkpt lat="42.189349145110164" lon="11.849696665777197"><ele>81.0</ele><time>2026-04-19T08:18:12.891Z</time></trkpt><trkpt lat="42.18928829462814" lon="11.84983289351427"><ele>81.0</ele><time>2026-04-19T08:18:14.891Z</time></trkpt><trkpt lat="42.1892533558398" lon="11.84991107491533"><ele>81.0</ele><time>2026-04-19T08:18:15.891Z</time></trkpt><trkpt lat="42.189242585873814" lon="11.850002448432381"><ele>81.0</ele><time>2026-04-19T08:18:16.891Z</time></trkpt><trkpt lat="42.189255160366464" lon="11.850120624973876"><ele>81.0</ele><time>2026-04-19T08:18:17.891Z</time></trkpt><trkpt lat="42.189289684975776" lon="11.850225942696532"><ele>81.0</ele><time>2026-04-19T08:18:18.891Z</time></trkpt><trkpt lat="42.18933449689851" lon="11.850308292502753"><ele>81.0</ele><time>2026-04-19T08:18:19.891Z</time></trkpt><trkpt lat="42.1893982057653" lon="11.850382978474128"><ele>81.5</ele><time>2026-04-19T08:18:20.891Z</time></trkpt><trkpt lat="42.18947866928293" lon="11.850456841304798"><ele>82.0</ele><time>2026-04-19T08:18:21.891Z</time></trkpt><trkpt lat="42.18955273266325" lon="11.850533859631966"><ele>82.5</ele><time>2026-04-19T08:18:22.891Z</time></trkpt><trkpt lat="42.18961130928235" lon="11.850600615571999"><ele>83.0</ele><time>2026-04-19T08:18:23.891Z</time></trkpt><trkpt lat="42.189661183906885" lon="11.850680989836262"><ele>83.5</ele><time>2026-04-19T08:18:24.891Z</time></trkpt><trkpt lat="42.18969775371373" lon="11.850780477687444"><ele>84.0</ele><time>2026-04-19T08:18:25.891Z</time></trkpt><trkpt lat="42.18972616978573" lon="11.850908889500158"><ele>85.2</ele><time>2026-04-19T08:18:26.891Z</time></trkpt><trkpt lat="42.18974326813903" lon="11.851045973218147"><ele>86.4</ele><time>2026-04-19T08:18:27.891Z</time></trkpt><trkpt lat="42.18975901866367" lon="11.851177085275905"><ele>87.6</ele><time>2026-04-19T08:18:28.891Z</time></trkpt><trkpt lat="42.18976053730517" lon="11.851320193556974"><ele>88.8</ele><time>2026-04-19T08:18:29.891Z</time></trkpt><trkpt lat="42.18975619898048" lon="11.851457247190154"><ele>90.0</ele><time>2026-04-19T08:18:30.891Z</time></trkpt><trkpt lat="42.18975869926213" lon="11.851576195715037"><ele>90.0</ele><time>2026-04-19T08:18:31.891Z</time></trkpt><trkpt lat="42.1897658036525" lon="11.851693540033363"><ele>90.0</ele><time>2026-04-19T08:18:32.891Z</time></trkpt><trkpt lat="42.1897754771418" lon="11.851813686779723"><ele>90.0</ele><time>2026-04-19T08:18:33.891Z</time></trkpt><trkpt lat="42.189785406468374" lon="11.851931197807284"><ele>90.0</ele><time>2026-04-19T08:18:34.891Z</time></trkpt><trkpt lat="42.189793579008786" lon="11.852037326904217"><ele>90.0</ele><time>2026-04-19T08:18:35.891Z</time></trkpt><trkpt lat="42.18979759395618" lon="11.852144101010495"><ele>90.0</ele><time>2026-04-19T08:18:36.891Z</time></trkpt><trkpt lat="42.18980553990602" lon="11.852245233542227"><ele>90.83333333333333</ele><time>2026-04-19T08:18:37.891Z</time></trkpt><trkpt lat="42.18981813475818" lon="11.852330516027026"><ele>91.66666666666667</ele><time>2026-04-19T08:18:38.891Z</time></trkpt><trkpt lat="42.1898344288777" lon="11.852437585916272"><ele>92.5</ele><time>2026-04-19T08:18:39.891Z</time></trkpt><trkpt lat="42.18986319184065" lon="11.852555150856904"><ele>93.33333333333334</ele><time>2026-04-19T08:18:40.891Z</time></trkpt><trkpt lat="42.18990574157284" lon="11.85266984915735"><ele>94.16666666666667</ele><time>2026-04-19T08:18:41.891Z</time></trkpt><trkpt lat="42.18995320342659" lon="11.852794381240837"><ele>95.0</ele><time>2026-04-19T08:18:42.891Z</time></trkpt><trkpt lat="42.18999569708032" lon="11.852899284052166"><ele>96.2</ele><time>2026-04-19T08:18:43.891Z</time></trkpt><trkpt lat="42.190025288117276" lon="11.85303088071512"><ele>97.4</ele><time>2026-04-19T08:18:44.891Z</time></trkpt><trkpt lat="42.19007204047767" lon="11.853151989952853"><ele>98.6</ele><time>2026-04-19T08:18:45.891Z</time></trkpt><trkpt lat="42.19012143389822" lon="11.853273989047839"><ele>99.8</ele><time>2026-04-19T08:18:46.891Z</time></trkpt><trkpt lat="42.19017360373488" lon="11.853395265363252"><ele>101.0</ele><time>2026-04-19T08:18:47.891Z</time></trkpt><trkpt lat="42.19022112478839" lon="11.853498050444449"><ele>101.19999999999999</ele><time>2026-04-19T08:18:48.891Z</time></trkpt><trkpt lat="42.190274902078606" lon="11.853605341652724"><ele>101.39999999999999</ele><time>2026-04-19T08:18:49.891Z</time></trkpt><trkpt lat="42.19033850464867" lon="11.853712279345297"><ele>101.6</ele><time>2026-04-19T08:18:50.891Z</time></trkpt><trkpt lat="42.190410331052185" lon="11.853812385916232"><ele>101.8</ele><time>2026-04-19T08:18:51.891Z</time></trkpt><trkpt lat="42.1904945321888" lon="11.85388538368504"><ele>102.0</ele><time>2026-04-19T08:18:52.891Z</time></trkpt><trkpt lat="42.19057489075828" lon="11.853977078886897"><ele>102.0</ele><time>2026-04-19T08:18:53.891Z</time></trkpt><trkpt lat="42.19064688972454" lon="11.854077592712978"><ele>102.0</ele><time>2026-04-19T08:18:54.891Z</time></trkpt><trkpt lat="42.19073312792648" lon="11.854181120738073"><ele>102.0</ele><time>2026-04-19T08:18:55.891Z</time></trkpt><trkpt lat="42.1908191257084" lon="11.854288755829275"><ele>102.0</ele><time>2026-04-19T08:18:56.891Z</time></trkpt><trkpt lat="42.19089854819025" lon="11.854382806791653"><ele>102.0</ele><time>2026-04-19T08:18:57.891Z</time></trkpt><trkpt lat="42.19097042844536" lon="11.85447759553994"><ele>103.6</ele><time>2026-04-19T08:18:58.891Z</time></trkpt><trkpt lat="42.19104096577889" lon="11.854569588511316"><ele>105.19999999999999</ele><time>2026-04-19T08:18:59.891Z</time></trkpt><trkpt lat="42.1911096563456" lon="11.854670401248011"><ele>106.8</ele><time>2026-04-19T08:19:00.891Z</time></trkpt><trkpt lat="42.19115977432793" lon="11.854777954894015"><ele>108.4</ele><time>2026-04-19T08:19:01.891Z</time></trkpt><trkpt lat="42.1912002575172" lon="11.854901092357016"><ele>110.0</ele><time>2026-04-19T08:19:02.891Z</time></trkpt><trkpt lat="42.19122543352414" lon="11.855019118572349"><ele>110.2</ele><time>2026-04-19T08:19:03.891Z</time></trkpt><trkpt lat="42.19124164724727" lon="11.855152629020802"><ele>110.4</ele><time>2026-04-19T08:19:04.891Z</time></trkpt><trkpt lat="42.19124604458968" lon="11.855293163191085"><ele>110.6</ele><time>2026-04-19T08:19:05.891Z</time></trkpt><trkpt lat="42.191253519196664" lon="11.855444584995778"><ele>110.8</ele><time>2026-04-19T08:19:06.89Z</time></trkpt><trkpt lat="42.191261361632584" lon="11.855608535750498"><ele>111.0</ele><time>2026-04-19T08:19:07.89Z</time></trkpt><trkpt lat="42.191271241613705" lon="11.855781533653163"><ele>111.0</ele><time>2026-04-19T08:19:08.89Z</time></trkpt><trkpt lat="42.19128053053836" lon="11.855948975096027"><ele>111.0</ele><time>2026-04-19T08:19:09.89Z</time></trkpt><trkpt lat="42.19130136504573" lon="11.856100576506979"><ele>111.0</ele><time>2026-04-19T08:19:10.89Z</time></trkpt><trkpt lat="42.191344645641195" lon="11.856265220607066"><ele>111.0</ele><time>2026-04-19T08:19:11.89Z</time></trkpt><trkpt lat="42.1914044812808" lon="11.8564225250315"><ele>112.5</ele><time>2026-04-19T08:19:12.89Z</time></trkpt><trkpt lat="42.191474787391584" lon="11.856574041580904"><ele>114.0</ele><time>2026-04-19T08:19:13.89Z</time></trkpt><trkpt lat="42.19155576328517" lon="11.856703177785494"><ele>115.5</ele><time>2026-04-19T08:19:14.89Z</time></trkpt><trkpt lat="42.19162632766512" lon="11.856851251446042"><ele>117.0</ele><time>2026-04-19T08:19:15.89Z</time></trkpt><trkpt lat="42.19171061892535" lon="11.85698629250555"><ele>118.75</ele><time>2026-04-19T08:19:16.89Z</time></trkpt><trkpt lat="42.19178118378013" lon="11.85714066507175"><ele>120.5</ele><time>2026-04-19T08:19:17.89Z</time></trkpt><trkpt lat="42.191833314456964" lon="11.85729862472242"><ele>122.25</ele><time>2026-04-19T08:19:18.89Z</time></trkpt><trkpt lat="42.19190555530514" lon="11.857438710434623"><ele>124.0</ele><time>2026-04-19T08:19:19.89Z</time></trkpt><trkpt lat="42.19199715079031" lon="11.857553609409726"><ele>124.75</ele><time>2026-04-19T08:19:20.89Z</time></trkpt><trkpt lat="42.19207335786997" lon="11.857667689573937"><ele>125.5</ele><time>2026-04-19T08:19:21.886Z</time></trkpt><trkpt lat="42.1921622501406" lon="11.857769221401607"><ele>126.25</ele><time>2026-04-19T08:19:22.887Z</time></trkpt><trkpt lat="42.19225997406195" lon="11.85786476956423"><ele>127.0</ele><time>2026-04-19T08:19:23.887Z</time></trkpt><trkpt lat="42.192350485148104" lon="11.857969323453855"><ele>127.0</ele><time>2026-04-19T08:19:24.886Z</time></trkpt><trkpt lat="42.19243601818296" lon="11.85806068020689"><ele>126.99999999999999</ele><time>2026-04-19T08:19:25.886Z</time></trkpt><trkpt lat="42.1925303997189" lon="11.858149439641814"><ele>126.99999999999999</ele><time>2026-04-19T08:19:26.886Z</time></trkpt><trkpt lat="42.19261849271" lon="11.858235550426159"><ele>127.0</ele><time>2026-04-19T08:19:27.887Z</time></trkpt><trkpt lat="42.19269251136397" lon="11.85830866417888"><ele>127.0</ele><time>2026-04-19T08:19:28.886Z</time></trkpt><trkpt lat="42.19276419420395" lon="11.858393485598924"><ele>128.33333333333334</ele><time>2026-04-19T08:19:29.886Z</time></trkpt><trkpt lat="42.19283539388032" lon="11.858468094123262"><ele>129.66666666666669</ele><time>2026-04-19T08:19:30.886Z</time></trkpt><trkpt lat="42.19290440775995" lon="11.858549375667176"><ele>131.0</ele><time>2026-04-19T08:19:31.886Z</time></trkpt><trkpt lat="42.19295598337017" lon="11.85862493475507"><ele>132.33333333333334</ele><time>2026-04-19T08:19:32.886Z</time></trkpt><trkpt lat="42.193012899456015" lon="11.858673446082785"><ele>133.66666666666666</ele><time>2026-04-19T08:19:33.886Z</time></trkpt><trkpt lat="42.193048226798055" lon="11.858805664476128"><ele>135.0</ele><time>2026-04-19T08:19:35.886Z</time></trkpt><trkpt lat="42.19296312051273" lon="11.85892429864558"><ele>135.0</ele><time>2026-04-19T08:19:37.886Z</time></trkpt><trkpt lat="42.19290756602835" lon="11.8590048251384"><ele>135.0</ele><time>2026-04-19T08:19:38.886Z</time></trkpt><trkpt lat="42.19285717846822" lon="11.8590639181186"><ele>135.0</ele><time>2026-04-19T08:19:39.886Z</time></trkpt><trkpt lat="42.19278093613196" lon="11.859146439060792"><ele>135.0</ele><time>2026-04-19T08:19:41.886Z</time></trkpt><trkpt lat="42.19284997999862" lon="11.859399982039186"><ele>135.0</ele><time>2026-04-19T08:19:42.886Z</time></trkpt><trkpt lat="42.192894738660954" lon="11.859495088406753"><ele>135.75</ele><time>2026-04-19T08:19:43.886Z</time></trkpt><trkpt lat="42.192966701107125" lon="11.859623075321558"><ele>136.5</ele><time>2026-04-19T08:19:44.886Z</time></trkpt><trkpt lat="42.19304856603698" lon="11.859769262851572"><ele>137.25</ele><time>2026-04-19T08:19:45.886Z</time></trkpt><trkpt lat="42.19313816560053" lon="11.859903049492539"><ele>138.0</ele><time>2026-04-19T08:19:46.886Z</time></trkpt><trkpt lat="42.19319298600594" lon="11.860020019356911"><ele>139.25</ele><time>2026-04-19T08:19:47.886Z</time></trkpt><trkpt lat="42.19324318945476" lon="11.860136867501593"><ele>140.5</ele><time>2026-04-19T08:19:48.886Z</time></trkpt><trkpt lat="42.1933121403033" lon="11.860304954056886"><ele>141.75</ele><time>2026-04-19T08:19:49.886Z</time></trkpt><trkpt lat="42.19340591098953" lon="11.860492097115726"><ele>143.0</ele><time>2026-04-19T08:19:50.886Z</time></trkpt><trkpt lat="42.19351286484288" lon="11.860670963872158"><ele>143.0</ele><time>2026-04-19T08:19:51.886Z</time></trkpt><trkpt lat="42.193620325269734" lon="11.860859059698322"><ele>143.0</ele><time>2026-04-19T08:19:52.885Z</time></trkpt><trkpt lat="42.19372249246501" lon="11.86104964973976"><ele>143.0</ele><time>2026-04-19T08:19:53.884Z</time></trkpt><trkpt lat="42.19381827996082" lon="11.861228912756992"><ele>144.0</ele><time>2026-04-19T08:19:54.883Z</time></trkpt><trkpt lat="42.193903827263334" lon="11.861396355579481"><ele>145.0</ele><time>2026-04-19T08:19:55.882Z</time></trkpt><trkpt lat="42.19397476955993" lon="11.861564739481064"><ele>146.0</ele><time>2026-04-19T08:19:56.88Z</time></trkpt><trkpt lat="42.194064839694164" lon="11.861742661521498"><ele>144.33333333333331</ele><time>2026-04-19T08:19:57.879Z</time></trkpt><trkpt lat="42.19415725495602" lon="11.861906945686009"><ele>142.66666666666666</ele><time>2026-04-19T08:19:58.879Z</time></trkpt><trkpt lat="42.194259742059515" lon="11.862066038675923"><ele>141.0</ele><time>2026-04-19T08:19:59.878Z</time></trkpt><trkpt lat="42.19437149554157" lon="11.8622145299044"><ele>141.0</ele><time>2026-04-19T08:20:00.877Z</time></trkpt><trkpt lat="42.194470414884286" lon="11.862336849008997"><ele>141.0</ele><time>2026-04-19T08:20:01.876Z</time></trkpt><trkpt lat="42.1945793144675" lon="11.862433585962595"><ele>141.0</ele><time>2026-04-19T08:20:02.875Z</time></trkpt><trkpt lat="42.19469280930628" lon="11.86252948366735"><ele>141.0</ele><time>2026-04-19T08:20:03.875Z</time></trkpt><trkpt lat="42.19478916132079" lon="11.862656453259815"><ele>140.75</ele><time>2026-04-19T08:20:04.874Z</time></trkpt><trkpt lat="42.19489309264622" lon="11.862781252540515"><ele>140.5</ele><time>2026-04-19T08:20:05.873Z</time></trkpt><trkpt lat="42.19497765112359" lon="11.862930745235719"><ele>140.25</ele><time>2026-04-19T08:20:06.873Z</time></trkpt><trkpt lat="42.19506176353029" lon="11.863067563584725"><ele>140.0</ele><time>2026-04-19T08:20:07.872Z</time></trkpt><trkpt lat="42.195123416898376" lon="11.863208455773194"><ele>140.0</ele><time>2026-04-19T08:20:08.872Z</time></trkpt><trkpt lat="42.1952035156564" lon="11.863363824005454"><ele>140.0</ele><time>2026-04-19T08:20:09.871Z</time></trkpt><trkpt lat="42.195278314453525" lon="11.86353975509664"><ele>140.0</ele><time>2026-04-19T08:20:10.871Z</time></trkpt><trkpt lat="42.195363398079614" lon="11.863693274219692"><ele>140.0</ele><time>2026-04-19T08:20:11.87Z</time></trkpt><trkpt lat="42.19545693806609" lon="11.863830585457023"><ele>141.0</ele><time>2026-04-19T08:20:12.87Z</time></trkpt><trkpt lat="42.19552446408819" lon="11.863963577532571"><ele>142.0</ele><time>2026-04-19T08:20:13.87Z</time></trkpt><trkpt lat="42.19559776250324" lon="11.864097917545905"><ele>143.0</ele><time>2026-04-19T08:20:14.869Z</time></trkpt><trkpt lat="42.19567637807995" lon="11.864222880814532"><ele>144.0</ele><time>2026-04-19T08:20:15.869Z</time></trkpt><trkpt lat="42.19574376467489" lon="11.864358729451576"><ele>142.0</ele><time>2026-04-19T08:20:16.869Z</time></trkpt><trkpt lat="42.19581301878393" lon="11.864491187572941"><ele>140.0</ele><time>2026-04-19T08:20:17.868Z</time></trkpt><trkpt lat="42.195879477524926" lon="11.864623400498603"><ele>138.0</ele><time>2026-04-19T08:20:18.868Z</time></trkpt><trkpt lat="42.19594499158317" lon="11.864750674382"><ele>136.0</ele><time>2026-04-19T08:20:19.868Z</time></trkpt><trkpt lat="42.19601436631341" lon="11.864870980088488"><ele>136.0</ele><time>2026-04-19T08:20:20.868Z</time></trkpt><trkpt lat="42.19607384671194" lon="11.864983975046789"><ele>136.0</ele><time>2026-04-19T08:20:21.867Z</time></trkpt><trkpt lat="42.196128663898406" lon="11.865094973316692"><ele>136.0</ele><time>2026-04-19T08:20:22.867Z</time></trkpt><trkpt lat="42.196197032598064" lon="11.86521221440228"><ele>136.0</ele><time>2026-04-19T08:20:23.867Z</time></trkpt><trkpt lat="42.19627797807403" lon="11.86533013609613"><ele>136.0</ele><time>2026-04-19T08:20:24.867Z</time></trkpt><trkpt lat="42.196352542511235" lon="11.865467241373661"><ele>134.0</ele><time>2026-04-19T08:20:25.867Z</time></trkpt><trkpt lat="42.19640878861256" lon="11.865623177122018"><ele>132.0</ele><time>2026-04-19T08:20:26.866Z</time></trkpt><trkpt lat="42.196474176124866" lon="11.865757378125732"><ele>130.0</ele><time>2026-04-19T08:20:27.866Z</time></trkpt><trkpt lat="42.19653892889536" lon="11.865888333213933"><ele>128.0</ele><time>2026-04-19T08:20:28.866Z</time></trkpt><trkpt lat="42.19660632371635" lon="11.86602548825287"><ele>128.0</ele><time>2026-04-19T08:20:29.866Z</time></trkpt><trkpt lat="42.1966733724001" lon="11.866157594989318"><ele>128.0</ele><time>2026-04-19T08:20:30.866Z</time></trkpt><trkpt lat="42.19675056746764" lon="11.866258547714724"><ele>128.0</ele><time>2026-04-19T08:20:31.866Z</time></trkpt><trkpt lat="42.19682311551493" lon="11.866382689782444"><ele>128.0</ele><time>2026-04-19T08:20:32.866Z</time></trkpt><trkpt lat="42.19689134130698" lon="11.866534999360868"><ele>128.0</ele><time>2026-04-19T08:20:33.866Z</time></trkpt><trkpt lat="42.1969794215605" lon="11.866691715166153"><ele>128.0</ele><time>2026-04-19T08:20:34.865Z</time></trkpt><trkpt lat="42.197071003967245" lon="11.866827289043513"><ele>128.0</ele><time>2026-04-19T08:20:35.865Z</time></trkpt><trkpt lat="42.19478916132079" lon="11.862656453259815"><ele>131.0</ele><time>2026-04-19T08:20:04.874Z</time></trkpt><trkpt lat="42.19489309264622" lon="11.862781252540515"><ele>134.0</ele><time>2026-04-19T08:20:05.873Z</time></trkpt><trkpt lat="42.19497765112359" lon="11.862930745235719"><ele>137.0</ele><time>2026-04-19T08:20:06.873Z</time></trkpt><trkpt lat="42.19506176353029" lon="11.863067563584725"><ele>140.0</ele><time>2026-04-19T08:20:07.872Z</time></trkpt><trkpt lat="42.195123416898376" lon="11.863208455773194"><ele>140.0</ele><time>2026-04-19T08:20:08.872Z</time></trkpt><trkpt lat="42.1952035156564" lon="11.863363824005454"><ele>140.0</ele><time>2026-04-19T08:20:09.871Z</time></trkpt><trkpt lat="42.195278314453525" lon="11.86353975509664"><ele>140.0</ele><time>2026-04-19T08:20:10.871Z</time></trkpt><trkpt lat="42.195363398079614" lon="11.863693274219692"><ele>140.0</ele><time>2026-04-19T08:20:11.87Z</time></trkpt><trkpt lat="42.19545693806609" lon="11.863830585457023"><ele>141.0</ele><time>2026-04-19T08:20:12.87Z</time></trkpt><trkpt lat="42.19552446408819" lon="11.863963577532571"><ele>142.0</ele><time>2026-04-19T08:20:13.87Z</time></trkpt><trkpt lat="42.19559776250324" lon="11.864097917545905"><ele>143.0</ele><time>2026-04-19T08:20:14.869Z</time></trkpt><trkpt lat="42.19567637807995" lon="11.864222880814532"><ele>144.0</ele><time>2026-04-19T08:20:15.869Z</time></trkpt><trkpt lat="42.19574376467489" lon="11.864358729451576"><ele>142.0</ele><time>2026-04-19T08:20:16.869Z</time></trkpt><trkpt lat="42.19581301878393" lon="11.864491187572941"><ele>140.0</ele><time>2026-04-19T08:20:17.868Z</time></trkpt><trkpt lat="42.195879477524926" lon="11.864623400498603"><ele>138.0</ele><time>2026-04-19T08:20:18.868Z</time></trkpt><trkpt lat="42.19594499158317" lon="11.864750674382"><ele>136.0</ele><time>2026-04-19T08:20:19.868Z</time></trkpt><trkpt lat="42.19601436631341" lon="11.864870980088488"><ele>136.0</ele><time>2026-04-19T08:20:20.868Z</time></trkpt><trkpt lat="42.19607384671194" lon="11.864983975046789"><ele>136.0</ele><time>2026-04-19T08:20:21.867Z</time></trkpt><trkpt lat="42.196128663898406" lon="11.865094973316692"><ele>136.0</ele><time>2026-04-19T08:20:22.867Z</time></trkpt><trkpt lat="42.196197032598064" lon="11.86521221440228"><ele>136.0</ele><time>2026-04-19T08:20:23.867Z</time></trkpt><trkpt lat="42.19627797807403" lon="11.86533013609613"><ele>136.0</ele><time>2026-04-19T08:20:24.867Z</time></trkpt><trkpt lat="42.196352542511235" lon="11.865467241373661"><ele>134.0</ele><time>2026-04-19T08:20:25.867Z</time></trkpt><trkpt lat="42.19640878861256" lon="11.865623177122018"><ele>132.0</ele><time>2026-04-19T08:20:26.866Z</time></trkpt><trkpt lat="42.196474176124866" lon="11.865757378125732"><ele>130.0</ele><time>2026-04-19T08:20:27.866Z</time></trkpt><trkpt lat="42.19653892889536" lon="11.865888333213933"><ele>128.0</ele><time>2026-04-19T08:20:28.866Z</time></trkpt><trkpt lat="42.19660632371635" lon="11.86602548825287"><ele>128.0</ele><time>2026-04-19T08:20:29.866Z</time></trkpt><trkpt lat="42.1966733724001" lon="11.866157594989318"><ele>128.0</ele><time>2026-04-19T08:20:30.866Z</time></trkpt><trkpt lat="42.19675056746764" lon="11.866258547714724"><ele>128.0</ele><time>2026-04-19T08:20:31.866Z</time></trkpt><trkpt lat="42.19682311551493" lon="11.866382689782444"><ele>128.0</ele><time>2026-04-19T08:20:32.866Z</time></trkpt><trkpt lat="42.19689134130698" lon="11.866534999360868"><ele>128.0</ele><time>2026-04-19T08:20:33.866Z</time></trkpt><trkpt lat="42.1969794215605" lon="11.866691715166153"><ele>128.0</ele><time>2026-04-19T08:20:34.865Z</time></trkpt><trkpt lat="42.197071003967245" lon="11.866827289043513"><ele>128.0</ele><time>2026-04-19T08:20:35.865Z</time></trkpt><trkpt lat="42.1971472124728" lon="11.866978141936848"><ele>128.0</ele><time>2026-04-19T08:20:36.865Z</time></trkpt><trkpt lat="42.19721869143586" lon="11.86710531920085"><ele>128.5</ele><time>2026-04-19T08:20:37.865Z</time></trkpt><trkpt lat="42.19729883770379" lon="11.867226308945767"><ele>129.0</ele><time>2026-04-19T08:20:38.865Z</time></trkpt><trkpt lat="42.1973697373654" lon="11.867371262814641"><ele>129.5</ele><time>2026-04-19T08:20:39.865Z</time></trkpt><trkpt lat="42.19743959452409" lon="11.867517607284864"><ele>130.0</ele><time>2026-04-19T08:20:40.865Z</time></trkpt><trkpt lat="42.19750822078139" lon="11.867656818617043"><ele>130.0</ele><time>2026-04-19T08:20:41.865Z</time></trkpt><trkpt lat="42.197576738877345" lon="11.867783471251002"><ele>130.0</ele><time>2026-04-19T08:20:42.865Z</time></trkpt><trkpt lat="42.1976467625601" lon="11.867915786175802"><ele>130.0</ele><time>2026-04-19T08:20:43.865Z</time></trkpt><trkpt lat="42.19771980902272" lon="11.868054921557661"><ele>130.0</ele><time>2026-04-19T08:20:44.865Z</time></trkpt><trkpt lat="42.197790493430375" lon="11.868191071352747"><ele>130.0</ele><time>2026-04-19T08:20:45.865Z</time></trkpt><trkpt lat="42.19785512677032" lon="11.868310665801047"><ele>130.0</ele><time>2026-04-19T08:20:46.864Z</time></trkpt><trkpt lat="42.19792030418823" lon="11.868421596439171"><ele>130.0</ele><time>2026-04-19T08:20:47.864Z</time></trkpt><trkpt lat="42.19797957186542" lon="11.868533805454843"><ele>130.0</ele><time>2026-04-19T08:20:48.864Z</time></trkpt><trkpt lat="42.1980325787943" lon="11.86865737898527"><ele>130.0</ele><time>2026-04-19T08:20:49.864Z</time></trkpt><trkpt lat="42.19807557119393" lon="11.868780515313603"><ele>130.6</ele><time>2026-04-19T08:20:50.864Z</time></trkpt><trkpt lat="42.19811338625382" lon="11.868903366780529"><ele>131.2</ele><time>2026-04-19T08:20:51.864Z</time></trkpt><trkpt lat="42.19814362409349" lon="11.86902842937273"><ele>131.8</ele><time>2026-04-19T08:20:52.864Z</time></trkpt><trkpt lat="42.19814013057323" lon="11.869171171566926"><ele>132.4</ele><time>2026-04-19T08:20:53.864Z</time></trkpt><trkpt lat="42.19816559474611" lon="11.869315888012181"><ele>133.0</ele><time>2026-04-19T08:20:54.864Z</time></trkpt><trkpt lat="42.19816376115269" lon="11.869450156978148"><ele>133.0</ele><time>2026-04-19T08:20:55.864Z</time></trkpt><trkpt lat="42.19816475137594" lon="11.869566847954147"><ele>133.0</ele><time>2026-04-19T08:20:56.864Z</time></trkpt><trkpt lat="42.198181465295846" lon="11.86965932224525"><ele>133.0</ele><time>2026-04-19T08:20:57.864Z</time></trkpt><trkpt lat="42.1982346584805" lon="11.869754406029642"><ele>133.0</ele><time>2026-04-19T08:20:58.864Z</time></trkpt><trkpt lat="42.198295817536646" lon="11.869856037528324"><ele>133.0</ele><time>2026-04-19T08:20:59.864Z</time></trkpt><trkpt lat="42.198372408577846" lon="11.869948066132187"><ele>133.0</ele><time>2026-04-19T08:21:00.864Z</time></trkpt><trkpt lat="42.19844349575592" lon="11.87004007084637"><ele>134.6</ele><time>2026-04-19T08:21:01.864Z</time></trkpt><trkpt lat="42.198503309497866" lon="11.87012868190058"><ele>136.20000000000002</ele><time>2026-04-19T08:21:02.864Z</time></trkpt><trkpt lat="42.19857140792244" lon="11.870235285328079"><ele>137.8</ele><time>2026-04-19T08:21:03.864Z</time></trkpt><trkpt lat="42.19863820838819" lon="11.870329589827394"><ele>139.4</ele><time>2026-04-19T08:21:04.864Z</time></trkpt><trkpt lat="42.198690545588775" lon="11.870442431364776"><ele>141.0</ele><time>2026-04-19T08:21:05.864Z</time></trkpt><trkpt lat="42.19876911367407" lon="11.870518154677825"><ele>141.0</ele><time>2026-04-19T08:21:06.864Z</time></trkpt><trkpt lat="42.19882102036804" lon="11.870593289407516"><ele>141.0</ele><time>2026-04-19T08:21:07.864Z</time></trkpt><trkpt lat="42.19892034943367" lon="11.870656102830539"><ele>141.0</ele><time>2026-04-19T08:21:09.864Z</time></trkpt><trkpt lat="42.199014702252875" lon="11.870632086519027"><ele>141.0</ele><time>2026-04-19T08:21:10.864Z</time></trkpt><trkpt lat="42.19910302311812" lon="11.870585328035249"><ele>141.0</ele><time>2026-04-19T08:21:11.864Z</time></trkpt><trkpt lat="42.19918726014837" lon="11.870478289003223"><ele>139.75</ele><time>2026-04-19T08:21:12.864Z</time></trkpt><trkpt lat="42.19927273628891" lon="11.870363421574584"><ele>138.5</ele><time>2026-04-19T08:21:13.864Z</time></trkpt><trkpt lat="42.199339861491325" lon="11.870215128463192"><ele>137.25</ele><time>2026-04-19T08:21:14.864Z</time></trkpt><trkpt lat="42.19937689738003" lon="11.870044551407638"><ele>136.0</ele><time>2026-04-19T08:21:15.864Z</time></trkpt><trkpt lat="42.19942826230637" lon="11.869875022918883"><ele>134.0</ele><time>2026-04-19T08:21:16.863Z</time></trkpt><trkpt lat="42.19946428243355" lon="11.869719696454192"><ele>132.0</ele><time>2026-04-19T08:21:17.863Z</time></trkpt><trkpt lat="42.1995100328648" lon="11.869579323968635"><ele>130.0</ele><time>2026-04-19T08:21:18.863Z</time></trkpt><trkpt lat="42.19955759746945" lon="11.869444567463546"><ele>128.0</ele><time>2026-04-19T08:21:19.863Z</time></trkpt><trkpt lat="42.19959956444753" lon="11.869320598227834"><ele>126.0</ele><time>2026-04-19T08:21:20.863Z</time></trkpt><trkpt lat="42.19965077409964" lon="11.869194486477532"><ele>124.5</ele><time>2026-04-19T08:21:21.863Z</time></trkpt><trkpt lat="42.19970611837627" lon="11.869062939677816"><ele>123.0</ele><time>2026-04-19T08:21:22.863Z</time></trkpt><trkpt lat="42.19976562914479" lon="11.868935783622755"><ele>121.5</ele><time>2026-04-19T08:21:23.863Z</time></trkpt><trkpt lat="42.199836664965964" lon="11.868796456754609"><ele>120.0</ele><time>2026-04-19T08:21:24.863Z</time></trkpt><trkpt lat="42.19992106356201" lon="11.868662476677848"><ele>121.75</ele><time>2026-04-19T08:21:25.863Z</time></trkpt><trkpt lat="42.200010653101174" lon="11.868531794317654"><ele>123.5</ele><time>2026-04-19T08:21:26.863Z</time></trkpt><trkpt lat="42.200101797109134" lon="11.868404984126911"><ele>125.25</ele><time>2026-04-19T08:21:27.86Z</time></trkpt><trkpt lat="42.200194768151896" lon="11.868276031480843"><ele>127.0</ele><time>2026-04-19T08:21:28.859Z</time></trkpt><trkpt lat="42.200289028901594" lon="11.868155457419546"><ele>127.0</ele><time>2026-04-19T08:21:29.859Z</time></trkpt><trkpt lat="42.20037335554775" lon="11.86803994034022"><ele>126.99999999999999</ele><time>2026-04-19T08:21:30.859Z</time></trkpt><trkpt lat="42.20044728401261" lon="11.867941867115137"><ele>126.99999999999999</ele><time>2026-04-19T08:21:31.86Z</time></trkpt><trkpt lat="42.20050953678701" lon="11.867857761086965"><ele>127.0</ele><time>2026-04-19T08:21:32.86Z</time></trkpt><trkpt lat="42.20056463958184" lon="11.867794519821993"><ele>127.0</ele><time>2026-04-19T08:21:33.859Z</time></trkpt><trkpt lat="42.2006338924214" lon="11.867778072480174"><ele>128.79999999999998</ele><time>2026-04-19T08:21:34.859Z</time></trkpt><trkpt lat="42.20073803420692" lon="11.867787486970512"><ele>130.6</ele><time>2026-04-19T08:21:36.859Z</time></trkpt><trkpt lat="42.200783682943936" lon="11.867874907732903"><ele>132.39999999999998</ele><time>2026-04-19T08:21:40.859Z</time></trkpt><trkpt lat="42.20075696649107" lon="11.867980211456814"><ele>134.2</ele><time>2026-04-19T08:21:51.859Z</time></trkpt><trkpt lat="42.200727260348195" lon="11.868129734676423"><ele>136.0</ele><time>2026-04-19T08:21:53.859Z</time></trkpt><trkpt lat="42.20069451304275" lon="11.868220731041632"><ele>135.2</ele><time>2026-04-19T08:21:54.859Z</time></trkpt><trkpt lat="42.2006573009491" lon="11.868347327810724"><ele>134.39999999999998</ele><time>2026-04-19T08:21:55.859Z</time></trkpt><trkpt lat="42.200626722481594" lon="11.868487954422825"><ele>133.6</ele><time>2026-04-19T08:21:56.859Z</time></trkpt><trkpt lat="42.2006054760385" lon="11.868629340915277"><ele>132.79999999999998</ele><time>2026-04-19T08:21:57.859Z</time></trkpt><trkpt lat="42.20058608490365" lon="11.868775076683246"><ele>132.0</ele><time>2026-04-19T08:21:58.859Z</time></trkpt><trkpt lat="42.20054296870833" lon="11.86890129447228"><ele>132.0</ele><time>2026-04-19T08:21:59.859Z</time></trkpt><trkpt lat="42.20050831893281" lon="11.869042249446121"><ele>132.0</ele><time>2026-04-19T08:22:00.859Z</time></trkpt><trkpt lat="42.20046170672062" lon="11.869207026657543"><ele>132.0</ele><time>2026-04-19T08:22:01.859Z</time></trkpt><trkpt lat="42.20040437852609" lon="11.869378111012155"><ele>132.0</ele><time>2026-04-19T08:22:02.859Z</time></trkpt><trkpt lat="42.20033976880062" lon="11.86954611872513"><ele>133.75</ele><time>2026-04-19T08:22:03.859Z</time></trkpt><trkpt lat="42.20026858308699" lon="11.869690009119832"><ele>135.5</ele><time>2026-04-19T08:22:04.859Z</time></trkpt><trkpt lat="42.200195855619626" lon="11.869816676176772"><ele>137.25</ele><time>2026-04-19T08:22:05.859Z</time></trkpt><trkpt lat="42.20012118344738" lon="11.869946608958115"><ele>139.0</ele><time>2026-04-19T08:22:06.859Z</time></trkpt><trkpt lat="42.20004538905765" lon="11.87008188708943"><ele>141.0</ele><time>2026-04-19T08:22:07.859Z</time></trkpt><trkpt lat="42.19998516867039" lon="11.870220965923567"><ele>143.0</ele><time>2026-04-19T08:22:08.859Z</time></trkpt><trkpt lat="42.199921936235604" lon="11.870347397145851"><ele>145.0</ele><time>2026-04-19T08:22:09.858Z</time></trkpt><trkpt lat="42.199876694563685" lon="11.870494817162164"><ele>147.0</ele><time>2026-04-19T08:22:10.858Z</time></trkpt><trkpt lat="42.19984536029846" lon="11.870632242211068"><ele>147.0</ele><time>2026-04-19T08:22:11.858Z</time></trkpt><trkpt lat="42.199825938175685" lon="11.87077118404815"><ele>147.0</ele><time>2026-04-19T08:22:12.858Z</time></trkpt><trkpt lat="42.19980214810337" lon="11.870908089415432"><ele>147.0</ele><time>2026-04-19T08:22:13.858Z</time></trkpt><trkpt lat="42.19979293296976" lon="11.871043370291671"><ele>147.0</ele><time>2026-04-19T08:22:14.858Z</time></trkpt><trkpt lat="42.19978723313627" lon="11.871167468786107"><ele>147.0</ele><time>2026-04-19T08:22:15.858Z</time></trkpt><trkpt lat="42.19978414066668" lon="11.87128663053254"><ele>147.0</ele><time>2026-04-19T08:22:16.858Z</time></trkpt><trkpt lat="42.19977998422657" lon="11.871419033631112"><ele>147.0</ele><time>2026-04-19T08:22:17.858Z</time></trkpt><trkpt lat="42.19978708468042" lon="11.871549572990991"><ele>147.0</ele><time>2026-04-19T08:22:18.858Z</time></trkpt><trkpt lat="42.19982200667401" lon="11.871685926275095"><ele>147.0</ele><time>2026-04-19T08:22:19.858Z</time></trkpt><trkpt lat="42.19986853152289" lon="11.871825156301346"><ele>147.0</ele><time>2026-04-19T08:22:20.858Z</time></trkpt><trkpt lat="42.199862650734104" lon="11.871945651668318"><ele>148.25</ele><time>2026-04-19T08:22:21.858Z</time></trkpt><trkpt lat="42.199864966009024" lon="11.872067743285918"><ele>149.5</ele><time>2026-04-19T08:22:22.858Z</time></trkpt><trkpt lat="42.1998467489357" lon="11.872209436460636"><ele>150.75</ele><time>2026-04-19T08:22:23.858Z</time></trkpt><trkpt lat="42.199811830931154" lon="11.872374082404868"><ele>152.0</ele><time>2026-04-19T08:22:24.858Z</time></trkpt><trkpt lat="42.199777515808016" lon="11.872542016051375"><ele>154.0</ele><time>2026-04-19T08:22:25.858Z</time></trkpt><trkpt lat="42.199746496346954" lon="11.87269399218681"><ele>156.0</ele><time>2026-04-19T08:22:26.858Z</time></trkpt><trkpt lat="42.199716331247586" lon="11.872845325204002"><ele>158.0</ele><time>2026-04-19T08:22:27.858Z</time></trkpt><trkpt lat="42.199703689386716" lon="11.87299222712396"><ele>160.0</ele><time>2026-04-19T08:22:28.858Z</time></trkpt><trkpt lat="42.19967835099087" lon="11.8731170024502"><ele>162.0</ele><time>2026-04-19T08:22:29.858Z</time></trkpt><trkpt lat="42.19965832654334" lon="11.873251260122899"><ele>162.0</ele><time>2026-04-19T08:22:30.858Z</time></trkpt><trkpt lat="42.19965375335555" lon="11.873394510255658"><ele>162.0</ele><time>2026-04-19T08:22:31.858Z</time></trkpt><trkpt lat="42.199652656377374" lon="11.873546409677529"><ele>162.0</ele><time>2026-04-19T08:22:32.858Z</time></trkpt><trkpt lat="42.1996666562481" lon="11.873697967640762"><ele>162.0</ele><time>2026-04-19T08:22:33.858Z</time></trkpt><trkpt lat="42.19969608033647" lon="11.873833815701621"><ele>162.0</ele><time>2026-04-19T08:22:34.858Z</time></trkpt><trkpt lat="42.19972865093262" lon="11.873960288875"><ele>162.5</ele><time>2026-04-19T08:22:35.858Z</time></trkpt><trkpt lat="42.19976516996878" lon="11.874097028038252"><ele>163.0</ele><time>2026-04-19T08:22:36.858Z</time></trkpt><trkpt lat="42.19980942470429" lon="11.874254150978953"><ele>163.5</ele><time>2026-04-19T08:22:37.858Z</time></trkpt><trkpt lat="42.19984445426656" lon="11.874421682020248"><ele>164.0</ele><time>2026-04-19T08:22:38.858Z</time></trkpt><trkpt lat="42.199884239201964" lon="11.874597540264636"><ele>163.0</ele><time>2026-04-19T08:22:39.858Z</time></trkpt><trkpt lat="42.199916013735624" lon="11.874772324933126"><ele>162.0</ele><time>2026-04-19T08:22:40.858Z</time></trkpt><trkpt lat="42.199950585720316" lon="11.874954595396144"><ele>161.0</ele><time>2026-04-19T08:22:41.858Z</time></trkpt><trkpt lat="42.19998196627267" lon="11.875136891912398"><ele>160.0</ele><time>2026-04-19T08:22:42.858Z</time></trkpt><trkpt lat="42.20000641539757" lon="11.875314272988051"><ele>159.83333333333334</ele><time>2026-04-19T08:22:43.858Z</time></trkpt><trkpt lat="42.200036176063115" lon="11.875472101487265"><ele>159.66666666666669</ele><time>2026-04-19T08:22:44.858Z</time></trkpt><trkpt lat="42.200062256547774" lon="11.875605774744232"><ele>159.5</ele><time>2026-04-19T08:22:45.858Z</time></trkpt><trkpt lat="42.200077507281414" lon="11.875711264237802"><ele>159.33333333333334</ele><time>2026-04-19T08:22:46.858Z</time></trkpt><trkpt lat="42.200083441994494" lon="11.875798591414558"><ele>159.16666666666666</ele><time>2026-04-19T08:22:47.858Z</time></trkpt><trkpt lat="42.200048029091164" lon="11.875891070306963"><ele>159.0</ele><time>2026-04-19T08:22:48.858Z</time></trkpt><trkpt lat="42.19999619640465" lon="11.875975786206245"><ele>159.25</ele><time>2026-04-19T08:22:49.858Z</time></trkpt><trkpt lat="42.19992586306274" lon="11.876074235058708"><ele>159.5</ele><time>2026-04-19T08:22:50.858Z</time></trkpt><trkpt lat="42.19984776770607" lon="11.876200520261387"><ele>159.75</ele><time>2026-04-19T08:22:51.858Z</time></trkpt><trkpt lat="42.19975875327074" lon="11.876333762253262"><ele>160.0</ele><time>2026-04-19T08:22:52.858Z</time></trkpt><trkpt lat="42.19966862876429" lon="11.87645190799132"><ele>160.0</ele><time>2026-04-19T08:22:53.858Z</time></trkpt><trkpt lat="42.19958191186708" lon="11.876566171975414"><ele>160.0</ele><time>2026-04-19T08:22:54.858Z</time></trkpt><trkpt lat="42.19951161930233" lon="11.876695583511005"><ele>160.0</ele><time>2026-04-19T08:22:55.858Z</time></trkpt><trkpt lat="42.19941691621898" lon="11.876809239585329"><ele>160.0</ele><time>2026-04-19T08:22:56.858Z</time></trkpt><trkpt lat="42.19932596300731" lon="11.876947160605942"><ele>158.5</ele><time>2026-04-19T08:22:57.858Z</time></trkpt><trkpt lat="42.199246860141365" lon="11.87707195167865"><ele>157.0</ele><time>2026-04-19T08:22:58.858Z</time></trkpt><trkpt lat="42.19917376799893" lon="11.877186569058184"><ele>155.5</ele><time>2026-04-19T08:22:59.858Z</time></trkpt><trkpt lat="42.19909139551694" lon="11.877306030447347"><ele>154.0</ele><time>2026-04-19T08:23:00.858Z</time></trkpt><trkpt lat="42.199010632344965" lon="11.877436602581515"><ele>154.5</ele><time>2026-04-19T08:23:01.858Z</time></trkpt><trkpt lat="42.198918592214746" lon="11.87757039363255"><ele>155.0</ele><time>2026-04-19T08:23:02.858Z</time></trkpt><trkpt lat="42.1988229423885" lon="11.87767546314389"><ele>155.5</ele><time>2026-04-19T08:23:03.858Z</time></trkpt><trkpt lat="42.19872938689764" lon="11.877807518239125"><ele>156.0</ele><time>2026-04-19T08:23:04.858Z</time></trkpt><trkpt lat="42.198647250626266" lon="11.877924721512928"><ele>156.0</ele><time>2026-04-19T08:23:05.858Z</time></trkpt><trkpt lat="42.198562940893815" lon="11.878041627527004"><ele>156.0</ele><time>2026-04-19T08:23:06.858Z</time></trkpt><trkpt lat="42.19848273696273" lon="11.878166082618925"><ele>156.0</ele><time>2026-04-19T08:23:07.858Z</time></trkpt><trkpt lat="42.19840127069263" lon="11.878285511733003"><ele>156.0</ele><time>2026-04-19T08:23:08.858Z</time></trkpt><trkpt lat="42.19832176115702" lon="11.878408697691368"><ele>155.6</ele><time>2026-04-19T08:23:09.858Z</time></trkpt><trkpt lat="42.198238570418404" lon="11.878536547392642"><ele>155.2</ele><time>2026-04-19T08:23:10.858Z</time></trkpt><trkpt lat="42.19816494314005" lon="11.878650213116412"><ele>154.8</ele><time>2026-04-19T08:23:11.858Z</time></trkpt><trkpt lat="42.198087971810835" lon="11.878742856593"><ele>154.4</ele><time>2026-04-19T08:23:12.858Z</time></trkpt><trkpt lat="42.19801026683595" lon="11.878824000525626"><ele>154.0</ele><time>2026-04-19T08:23:13.858Z</time></trkpt><trkpt lat="42.19794823365308" lon="11.878891292703486"><ele>154.0</ele><time>2026-04-19T08:23:14.858Z</time></trkpt><trkpt lat="42.19789561731647" lon="11.878954497720306"><ele>154.0</ele><time>2026-04-19T08:23:15.858Z</time></trkpt><trkpt lat="42.1977817061235" lon="11.879018920049006"><ele>154.0</ele><time>2026-04-19T08:23:17.857Z</time></trkpt><trkpt lat="42.19771366796327" lon="11.879050725644731"><ele>154.0</ele><time>2026-04-19T08:23:18.857Z</time></trkpt><trkpt lat="42.19763012620048" lon="11.879047141120518"><ele>154.0</ele><time>2026-04-19T08:23:19.857Z</time></trkpt><trkpt lat="42.197528658282955" lon="11.879055091480234"><ele>154.0</ele><time>2026-04-19T08:23:20.857Z</time></trkpt><trkpt lat="42.19742027987129" lon="11.879072801505833"><ele>154.0</ele><time>2026-04-19T08:23:21.857Z</time></trkpt><trkpt lat="42.19732406258425" lon="11.879066736218784"><ele>154.0</ele><time>2026-04-19T08:23:22.857Z</time></trkpt><trkpt lat="42.197241138692675" lon="11.879052135860007"><ele>154.0</ele><time>2026-04-19T08:23:23.857Z</time></trkpt><trkpt lat="42.19715749329968" lon="11.879040104304174"><ele>154.0</ele><time>2026-04-19T08:23:24.857Z</time></trkpt><trkpt lat="42.19708013177984" lon="11.879035474997467"><ele>153.6</ele><time>2026-04-19T08:23:25.857Z</time></trkpt><trkpt lat="42.196951179952144" lon="11.879031234653588"><ele>153.2</ele><time>2026-04-19T08:23:27.857Z</time></trkpt><trkpt lat="42.19686829775739" lon="11.879100416591195"><ele>152.79999999999998</ele><time>2026-04-19T08:23:28.857Z</time></trkpt><trkpt lat="42.19683067264894" lon="11.879211542706805"><ele>152.4</ele><time>2026-04-19T08:23:29.857Z</time></trkpt><trkpt lat="42.19688110495057" lon="11.879376118668961"><ele>152.0</ele><time>2026-04-19T08:23:30.857Z</time></trkpt><trkpt lat="42.19687900027259" lon="11.879533726324187"><ele>152.33333333333331</ele><time>2026-04-19T08:23:31.857Z</time></trkpt><trkpt lat="42.196879893796535" lon="11.87973253966624"><ele>152.66666666666666</ele><time>2026-04-19T08:23:32.857Z</time></trkpt><trkpt lat="42.1968942444901" lon="11.879956689724251"><ele>153.0</ele><time>2026-04-19T08:23:33.853Z</time></trkpt><trkpt lat="42.19688094454644" lon="11.880167617831255"><ele>153.0</ele><time>2026-04-19T08:23:34.853Z</time></trkpt><trkpt lat="42.19688825668449" lon="11.88035587030221"><ele>153.0</ele><time>2026-04-19T08:23:35.853Z</time></trkpt><trkpt lat="42.19690310190474" lon="11.880523949107438"><ele>153.0</ele><time>2026-04-19T08:23:36.853Z</time></trkpt><trkpt lat="42.19690840119165" lon="11.880682908152577"><ele>153.0</ele><time>2026-04-19T08:23:37.853Z</time></trkpt><trkpt lat="42.19692216796609" lon="11.880840802906194"><ele>154.25</ele><time>2026-04-19T08:23:38.853Z</time></trkpt><trkpt lat="42.196929021873544" lon="11.881010192176312"><ele>155.5</ele><time>2026-04-19T08:23:39.853Z</time></trkpt><trkpt lat="42.19693259594175" lon="11.88119137016162"><ele>156.75</ele><time>2026-04-19T08:23:40.853Z</time></trkpt><trkpt lat="42.19693423958568" lon="11.881379379547704"><ele>158.0</ele><time>2026-04-19T08:23:41.853Z</time></trkpt><trkpt lat="42.196940690578266" lon="11.881546197935604"><ele>158.0</ele><time>2026-04-19T08:23:42.852Z</time></trkpt><trkpt lat="42.1969445788765" lon="11.881720086636017"><ele>158.0</ele><time>2026-04-19T08:23:43.853Z</time></trkpt><trkpt lat="42.196943445021574" lon="11.88188624211744"><ele>158.0</ele><time>2026-04-19T08:23:44.853Z</time></trkpt><trkpt lat="42.196938744616816" lon="11.882040136351089"><ele>158.0</ele><time>2026-04-19T08:23:45.853Z</time></trkpt><trkpt lat="42.19692908647667" lon="11.882157850327102"><ele>158.8</ele><time>2026-04-19T08:23:46.852Z</time></trkpt><trkpt lat="42.19691812108499" lon="11.882250481022469"><ele>159.60000000000002</ele><time>2026-04-19T08:23:47.852Z</time></trkpt><trkpt lat="42.196894764158806" lon="11.88239787807146"><ele>160.39999999999998</ele><time>2026-04-19T08:23:49.852Z</time></trkpt><trkpt lat="42.196888767304685" lon="11.882501534124568"><ele>161.2</ele><time>2026-04-19T08:23:51.852Z</time></trkpt><trkpt lat="42.19679914809311" lon="11.88252469869911"><ele>162.0</ele><time>2026-04-19T08:23:52.852Z</time></trkpt><trkpt lat="42.19691216998948" lon="11.882526908498994"><ele>162.0</ele><time>2026-04-19T08:24:16.852Z</time></trkpt><trkpt lat="42.19697494603632" lon="11.882490023111275"><ele>162.0</ele><time>2026-04-19T08:24:17.852Z</time></trkpt><trkpt lat="42.19706977493197" lon="11.882500097795441"><ele>162.0</ele><time>2026-04-19T08:24:19.852Z</time></trkpt><trkpt lat="42.197132465035274" lon="11.882568708858201"><ele>162.0</ele><time>2026-04-19T08:24:24.852Z</time></trkpt><trkpt lat="42.19716653924561" lon="11.882640675483339"><ele>162.0</ele><time>2026-04-19T08:24:25.852Z</time></trkpt><trkpt lat="42.19721453422785" lon="11.882750031598475"><ele>162.0</ele><time>2026-04-19T08:24:26.852Z</time></trkpt><trkpt lat="42.19723920178616" lon="11.88287793488128"><ele>162.2</ele><time>2026-04-19T08:24:27.852Z</time></trkpt><trkpt lat="42.197277992658016" lon="11.883013676031949"><ele>162.39999999999998</ele><time>2026-04-19T08:24:28.852Z</time></trkpt><trkpt lat="42.19731828140582" lon="11.883147266429592"><ele>162.60000000000002</ele><time>2026-04-19T08:24:29.852Z</time></trkpt><trkpt lat="42.197347878473096" lon="11.883270781196693"><ele>162.8</ele><time>2026-04-19T08:24:30.852Z</time></trkpt><trkpt lat="42.19738618299316" lon="11.883388600957883"><ele>163.0</ele><time>2026-04-19T08:24:31.852Z</time></trkpt><trkpt lat="42.197428213088614" lon="11.883504913315491"><ele>164.25</ele><time>2026-04-19T08:24:32.852Z</time></trkpt><trkpt lat="42.19748151853422" lon="11.883635138598597"><ele>165.5</ele><time>2026-04-19T08:24:33.852Z</time></trkpt><trkpt lat="42.197543252437136" lon="11.883756424788528"><ele>166.75</ele><time>2026-04-19T08:24:34.852Z</time></trkpt><trkpt lat="42.19761270136858" lon="11.883886797063393"><ele>168.0</ele><time>2026-04-19T08:24:35.852Z</time></trkpt><trkpt lat="42.19768769326366" lon="11.883998534610043"><ele>168.0</ele><time>2026-04-19T08:24:36.852Z</time></trkpt><trkpt lat="42.19776512134451" lon="11.884093418139104"><ele>168.0</ele><time>2026-04-19T08:24:37.852Z</time></trkpt><trkpt lat="42.19784084027383" lon="11.884190346135918"><ele>168.0</ele><time>2026-04-19T08:24:38.851Z</time></trkpt><trkpt lat="42.19791958049835" lon="11.884251501157275"><ele>168.0</ele><time>2026-04-19T08:24:39.851Z</time></trkpt><trkpt lat="42.198008106452164" lon="11.884304603843066"><ele>168.0</ele><time>2026-04-19T08:24:40.851Z</time></trkpt><trkpt lat="42.1980977769573" lon="11.884328767872182"><ele>168.0</ele><time>2026-04-19T08:24:41.851Z</time></trkpt><trkpt lat="42.19819690790223" lon="11.88433285865417"><ele>168.0</ele><time>2026-04-19T08:24:43.851Z</time></trkpt><trkpt lat="42.198270820957006" lon="11.884360324625154"><ele>168.0</ele><time>2026-04-19T08:24:47.851Z</time></trkpt><trkpt lat="42.198429222508025" lon="11.88439584418648"><ele>168.0</ele><time>2026-04-19T08:25:36.851Z</time></trkpt><trkpt lat="42.198498803838085" lon="11.884461861555979"><ele>168.0</ele><time>2026-04-19T08:25:37.851Z</time></trkpt><trkpt lat="42.198569583590846" lon="11.884549395475304"><ele>168.0</ele><time>2026-04-19T08:25:38.851Z</time></trkpt><trkpt lat="42.19862185133699" lon="11.884678190641"><ele>168.0</ele><time>2026-04-19T08:25:39.847Z</time></trkpt><trkpt lat="42.19869367218506" lon="11.884779547172242"><ele>168.0</ele><time>2026-04-19T08:25:40.847Z</time></trkpt><trkpt lat="42.198767681421415" lon="11.88487266681123"><ele>168.0</ele><time>2026-04-19T08:25:41.847Z</time></trkpt><trkpt lat="42.19882370222724" lon="11.884993208494967"><ele>168.0</ele><time>2026-04-19T08:25:42.848Z</time></trkpt><trkpt lat="42.19889303768477" lon="11.885102433915248"><ele>169.5</ele><time>2026-04-19T08:25:43.848Z</time></trkpt><trkpt lat="42.19896003110548" lon="11.885207470271382"><ele>171.0</ele><time>2026-04-19T08:25:44.848Z</time></trkpt><trkpt lat="42.19903313171897" lon="11.885324649328018"><ele>172.5</ele><time>2026-04-19T08:25:45.847Z</time></trkpt><trkpt lat="42.199100306772515" lon="11.885443252191651"><ele>174.0</ele><time>2026-04-19T08:25:46.847Z</time></trkpt><trkpt lat="42.199182827521945" lon="11.885580548562851"><ele>171.25</ele><time>2026-04-19T08:25:47.847Z</time></trkpt><trkpt lat="42.199281204379666" lon="11.885739592513447"><ele>168.5</ele><time>2026-04-19T08:25:48.847Z</time></trkpt><trkpt lat="42.199373766437425" lon="11.88589267061816"><ele>165.75</ele><time>2026-04-19T08:25:49.848Z</time></trkpt><trkpt lat="42.19945797850795" lon="11.886041878229355"><ele>163.0</ele><time>2026-04-19T08:25:50.848Z</time></trkpt><trkpt lat="42.19953805879328" lon="11.886161862900103"><ele>163.0</ele><time>2026-04-19T08:25:51.847Z</time></trkpt><trkpt lat="42.19961155527398" lon="11.88626679229868"><ele>163.0</ele><time>2026-04-19T08:25:52.847Z</time></trkpt><trkpt lat="42.19969282244205" lon="11.886333905055608"><ele>163.0</ele><time>2026-04-19T08:25:53.847Z</time></trkpt><trkpt lat="42.199773785928905" lon="11.886378996512402"><ele>163.0</ele><time>2026-04-19T08:25:54.847Z</time></trkpt><trkpt lat="42.19987890819413" lon="11.886407852344576"><ele>163.0</ele><time>2026-04-19T08:25:55.847Z</time></trkpt><trkpt lat="42.199999656665874" lon="11.886459143170551"><ele>163.33333333333334</ele><time>2026-04-19T08:25:56.847Z</time></trkpt><trkpt lat="42.200106099447154" lon="11.886518971420337"><ele>163.66666666666669</ele><time>2026-04-19T08:25:57.847Z</time></trkpt><trkpt lat="42.20019265368481" lon="11.886543702497349"><ele>164.0</ele><time>2026-04-19T08:25:58.847Z</time></trkpt><trkpt lat="42.200256794464124" lon="11.886569501618027"><ele>164.33333333333334</ele><time>2026-04-19T08:25:59.847Z</time></trkpt><trkpt lat="42.20033430314475" lon="11.886644561132446"><ele>164.66666666666666</ele><time>2026-04-19T08:26:01.847Z</time></trkpt><trkpt lat="42.20036893848949" lon="11.886718832160254"><ele>165.0</ele><time>2026-04-19T08:26:02.847Z</time></trkpt><trkpt lat="42.200420306544785" lon="11.88682638268639"><ele>165.0</ele><time>2026-04-19T08:26:03.847Z</time></trkpt><trkpt lat="42.20047426734837" lon="11.886959914847225"><ele>165.0</ele><time>2026-04-19T08:26:04.847Z</time></trkpt><trkpt lat="42.20052965955683" lon="11.887084621239868"><ele>165.0</ele><time>2026-04-19T08:26:05.847Z</time></trkpt><trkpt lat="42.20058799215985" lon="11.88721254418584"><ele>165.0</ele><time>2026-04-19T08:26:06.847Z</time></trkpt><trkpt lat="42.20064915414033" lon="11.887327326495699"><ele>165.0</ele><time>2026-04-19T08:26:07.847Z</time></trkpt><trkpt lat="42.20069447292362" lon="11.88742731248304"><ele>163.2</ele><time>2026-04-19T08:26:08.847Z</time></trkpt><trkpt lat="42.20074831370752" lon="11.887536703862878"><ele>161.4</ele><time>2026-04-19T08:26:09.847Z</time></trkpt><trkpt lat="42.200808126329115" lon="11.887629264362793"><ele>159.6</ele><time>2026-04-19T08:26:10.847Z</time></trkpt><trkpt lat="42.20087816888808" lon="11.88770490752344"><ele>157.8</ele><time>2026-04-19T08:26:11.847Z</time></trkpt><trkpt lat="42.20095709958311" lon="11.887769492716368"><ele>156.0</ele><time>2026-04-19T08:26:12.847Z</time></trkpt><trkpt lat="42.20101789646697" lon="11.887859218477876"><ele>156.0</ele><time>2026-04-19T08:26:13.847Z</time></trkpt><trkpt lat="42.20105958302936" lon="11.887930289118811"><ele>156.0</ele><time>2026-04-19T08:26:14.847Z</time></trkpt><trkpt lat="42.20108102552905" lon="11.888015300716164"><ele>156.0</ele><time>2026-04-19T08:26:15.847Z</time></trkpt><trkpt lat="42.20107607811583" lon="11.888103193497988"><ele>156.0</ele><time>2026-04-19T08:26:16.847Z</time></trkpt><trkpt lat="42.20105392837012" lon="11.88828223064243"><ele>156.0</ele><time>2026-04-19T08:26:18.847Z</time></trkpt><trkpt lat="42.20105682086628" lon="11.888426022555004"><ele>156.0</ele><time>2026-04-19T08:26:19.847Z</time></trkpt><trkpt lat="42.201064081476304" lon="11.888541313475047"><ele>156.6</ele><time>2026-04-19T08:26:20.847Z</time></trkpt><trkpt lat="42.20108757856202" lon="11.888667631340391"><ele>157.2</ele><time>2026-04-19T08:26:21.847Z</time></trkpt><trkpt lat="42.201142604601756" lon="11.888825188798858"><ele>157.8</ele><time>2026-04-19T08:26:22.847Z</time></trkpt><trkpt lat="42.20117838704651" lon="11.888946890524151"><ele>158.4</ele><time>2026-04-19T08:26:23.847Z</time></trkpt><trkpt lat="42.20119799923278" lon="11.889050362022521"><ele>159.0</ele><time>2026-04-19T08:26:24.847Z</time></trkpt><trkpt lat="42.201207738414084" lon="11.889145275495805"><ele>159.0</ele><time>2026-04-19T08:26:25.847Z</time></trkpt><trkpt lat="42.201202490783416" lon="11.889249268973618"><ele>159.0</ele><time>2026-04-19T08:26:26.847Z</time></trkpt><trkpt lat="42.20119497957242" lon="11.88935378680336"><ele>159.0</ele><time>2026-04-19T08:26:27.847Z</time></trkpt><trkpt lat="42.20121253012858" lon="11.889484096537021"><ele>159.0</ele><time>2026-04-19T08:26:28.847Z</time></trkpt><trkpt lat="42.20123707849629" lon="11.889606903928483"><ele>159.0</ele><time>2026-04-19T08:26:29.846Z</time></trkpt><trkpt lat="42.20126345532795" lon="11.889711653355445"><ele>159.0</ele><time>2026-04-19T08:26:30.846Z</time></trkpt><trkpt lat="42.20128291812631" lon="11.889812159579211"><ele>160.33333333333334</ele><time>2026-04-19T08:26:31.846Z</time></trkpt><trkpt lat="42.201305993629205" lon="11.889913465152919"><ele>161.66666666666666</ele><time>2026-04-19T08:26:32.846Z</time></trkpt><trkpt lat="42.20134447381768" lon="11.889991319009509"><ele>163.0</ele><time>2026-04-19T08:26:33.846Z</time></trkpt><trkpt lat="42.20140829044568" lon="11.890088076531745"><ele>164.33333333333331</ele><time>2026-04-19T08:26:34.846Z</time></trkpt><trkpt lat="42.20149445160913" lon="11.890165552613691"><ele>165.66666666666666</ele><time>2026-04-19T08:26:35.846Z</time></trkpt><trkpt lat="42.201580824493846" lon="11.890238100128704"><ele>167.0</ele><time>2026-04-19T08:26:36.846Z</time></trkpt><trkpt lat="42.201660946612606" lon="11.890277876548327"><ele>167.2</ele><time>2026-04-19T08:26:37.846Z</time></trkpt><trkpt lat="42.201747010758154" lon="11.890309111213623"><ele>167.39999999999998</ele><time>2026-04-19T08:26:38.846Z</time></trkpt><trkpt lat="42.20184140057111" lon="11.890335456588872"><ele>167.60000000000002</ele><time>2026-04-19T08:26:39.846Z</time></trkpt><trkpt lat="42.20193936509537" lon="11.890389756439292"><ele>167.8</ele><time>2026-04-19T08:26:40.846Z</time></trkpt><trkpt lat="42.20202560357959" lon="11.890444043828612"><ele>168.0</ele><time>2026-04-19T08:26:41.846Z</time></trkpt><trkpt lat="42.202078740022664" lon="11.890507548907438"><ele>168.0</ele><time>2026-04-19T08:26:42.846Z</time></trkpt><trkpt lat="42.2021436819027" lon="11.89058380769144"><ele>168.0</ele><time>2026-04-19T08:26:43.846Z</time></trkpt><trkpt lat="42.20221228139155" lon="11.890681784137637"><ele>168.0</ele><time>2026-04-19T08:26:44.846Z</time></trkpt><trkpt lat="42.20228423460866" lon="11.890788701316543"><ele>168.0</ele><time>2026-04-19T08:26:45.846Z</time></trkpt><trkpt lat="42.20235834814947" lon="11.890889758592436"><ele>168.0</ele><time>2026-04-19T08:26:46.846Z</time></trkpt><trkpt lat="42.2024173982889" lon="11.89098293909132"><ele>169.0</ele><time>2026-04-19T08:26:47.846Z</time></trkpt><trkpt lat="42.20248818104547" lon="11.89107870340244"><ele>170.0</ele><time>2026-04-19T08:26:48.846Z</time></trkpt><trkpt lat="42.20254350928186" lon="11.891200515391198"><ele>171.0</ele><time>2026-04-19T08:26:49.846Z</time></trkpt><trkpt lat="42.2025870928215" lon="11.891309753570575"><ele>172.0</ele><time>2026-04-19T08:26:50.846Z</time></trkpt><trkpt lat="42.20263817882588" lon="11.891403562290307"><ele>173.0</ele><time>2026-04-19T08:26:51.846Z</time></trkpt><trkpt lat="42.20266238951269" lon="11.89152822254388"><ele>173.0</ele><time>2026-04-19T08:26:52.846Z</time></trkpt><trkpt lat="42.20268230278446" lon="11.891671402749985"><ele>173.0</ele><time>2026-04-19T08:26:53.846Z</time></trkpt><trkpt lat="42.2027040549403" lon="11.89182374363952"><ele>173.0</ele><time>2026-04-19T08:26:54.846Z</time></trkpt><trkpt lat="42.20271091178756" lon="11.891981061867059"><ele>173.0</ele><time>2026-04-19T08:26:55.846Z</time></trkpt><trkpt lat="42.20270237702068" lon="11.892151088446477"><ele>173.75</ele><time>2026-04-19T08:26:56.846Z</time></trkpt><trkpt lat="42.20269271938826" lon="11.892337005443252"><ele>174.5</ele><time>2026-04-19T08:26:57.846Z</time></trkpt><trkpt lat="42.20268198911067" lon="11.892493823291034"><ele>175.25</ele><time>2026-04-19T08:26:58.846Z</time></trkpt><trkpt lat="42.202679062351294" lon="11.892630130126104"><ele>176.0</ele><time>2026-04-19T08:26:59.846Z</time></trkpt><trkpt lat="42.20263846511179" lon="11.892759673416617"><ele>176.0</ele><time>2026-04-19T08:27:00.846Z</time></trkpt><trkpt lat="42.202616813532785" lon="11.892872966332844"><ele>176.0</ele><time>2026-04-19T08:27:01.846Z</time></trkpt><trkpt lat="42.202627338199264" lon="11.892976801521968"><ele>176.0</ele><time>2026-04-19T08:27:03.846Z</time></trkpt><trkpt lat="42.202629249126105" lon="11.89311366832"><ele>176.0</ele><time>2026-04-19T08:27:08.846Z</time></trkpt><trkpt lat="42.20263693977193" lon="11.89322848490958"><ele>176.0</ele><time>2026-04-19T08:27:09.846Z</time></trkpt><trkpt lat="42.2026465165515" lon="11.893364337546378"><ele>176.4</ele><time>2026-04-19T08:27:10.846Z</time></trkpt><trkpt lat="42.20265803967158" lon="11.89352476559286"><ele>176.8</ele><time>2026-04-19T08:27:11.846Z</time></trkpt><trkpt lat="42.20267254402426" lon="11.893685971131909"><ele>177.20000000000002</ele><time>2026-04-19T08:27:12.846Z</time></trkpt><trkpt lat="42.20269393583986" lon="11.893819871890564"><ele>177.60000000000002</ele><time>2026-04-19T08:27:13.846Z</time></trkpt><trkpt lat="42.20270504371339" lon="11.893948196376328"><ele>178.0</ele><time>2026-04-19T08:27:14.846Z</time></trkpt><trkpt lat="42.20270626595113" lon="11.894095634530641"><ele>178.0</ele><time>2026-04-19T08:27:15.846Z</time></trkpt><trkpt lat="42.20271232200003" lon="11.894254407382206"><ele>178.0</ele><time>2026-04-19T08:27:16.846Z</time></trkpt><trkpt lat="42.2027281689109" lon="11.894416005844276"><ele>178.0</ele><time>2026-04-19T08:27:17.846Z</time></trkpt><trkpt lat="42.20272957586342" lon="11.89456364841654"><ele>178.0</ele><time>2026-04-19T08:27:18.846Z</time></trkpt><trkpt lat="42.20273590023831" lon="11.894706844019188"><ele>178.0</ele><time>2026-04-19T08:27:19.846Z</time></trkpt><trkpt lat="42.20274373680949" lon="11.894832304907371"><ele>178.0</ele><time>2026-04-19T08:27:20.846Z</time></trkpt><trkpt lat="42.20274494858656" lon="11.894937545533084"><ele>178.0</ele><time>2026-04-19T08:27:21.846Z</time></trkpt><trkpt lat="42.20273563684369" lon="11.895065407156856"><ele>178.0</ele><time>2026-04-19T08:27:23.846Z</time></trkpt><trkpt lat="42.202684220458416" lon="11.895119090914806"><ele>178.0</ele><time>2026-04-19T08:27:25.846Z</time></trkpt><trkpt lat="42.20256217832809" lon="11.8951728780085"><ele>178.0</ele><time>2026-04-19T08:27:27.846Z</time></trkpt><trkpt lat="42.20248898109831" lon="11.895182611086135"><ele>178.0</ele><time>2026-04-19T08:27:28.846Z</time></trkpt><trkpt lat="42.20241606940649" lon="11.895158493281178"><ele>178.0</ele><time>2026-04-19T08:27:29.846Z</time></trkpt><trkpt lat="42.2023547135917" lon="11.895186759143707"><ele>178.0</ele><time>2026-04-19T08:27:30.846Z</time></trkpt><trkpt lat="42.202281902443495" lon="11.895218852099573"><ele>178.0</ele><time>2026-04-19T08:27:31.846Z</time></trkpt><trkpt lat="42.20219247648577" lon="11.895268389674525"><ele>178.0</ele><time>2026-04-19T08:27:32.846Z</time></trkpt><trkpt lat="42.202111882563536" lon="11.89530857809333"><ele>180.0</ele><time>2026-04-19T08:27:33.846Z</time></trkpt><trkpt lat="42.20202191174434" lon="11.895348481471055"><ele>182.0</ele><time>2026-04-19T08:27:34.846Z</time></trkpt><trkpt lat="42.20193156608762" lon="11.895388487832678"><ele>184.0</ele><time>2026-04-19T08:27:35.845Z</time></trkpt><trkpt lat="42.201836630537706" lon="11.895411389605538"><ele>186.0</ele><time>2026-04-19T08:27:36.845Z</time></trkpt><trkpt lat="42.2017434031915" lon="11.895430179306846"><ele>188.0</ele><time>2026-04-19T08:27:37.845Z</time></trkpt><trkpt lat="42.201660413096185" lon="11.89543215471198"><ele>188.0</ele><time>2026-04-19T08:27:38.845Z</time></trkpt><trkpt lat="42.20158112789433" lon="11.895428361553853"><ele>188.0</ele><time>2026-04-19T08:27:39.845Z</time></trkpt><trkpt lat="42.201510715564616" lon="11.895428653902442"><ele>188.0</ele><time>2026-04-19T08:27:40.845Z</time></trkpt><trkpt lat="42.20144504189007" lon="11.895414842498829"><ele>188.0</ele><time>2026-04-19T08:27:41.845Z</time></trkpt><trkpt lat="42.20132155881306" lon="11.895341750340544"><ele>188.0</ele><time>2026-04-19T08:27:43.845Z</time></trkpt><trkpt lat="42.201259342067374" lon="11.895281547135866"><ele>188.0</ele><time>2026-04-19T08:27:44.845Z</time></trkpt><trkpt lat="42.201185102263935" lon="11.895231287679179"><ele>190.2</ele><time>2026-04-19T08:27:45.842Z</time></trkpt><trkpt lat="42.20109418877088" lon="11.895156633528574"><ele>192.4</ele><time>2026-04-19T08:27:46.842Z</time></trkpt><trkpt lat="42.201010672096054" lon="11.895087710398705"><ele>194.6</ele><time>2026-04-19T08:27:47.842Z</time></trkpt><trkpt lat="42.20092521912681" lon="11.895015285976339"><ele>196.79999999999998</ele><time>2026-04-19T08:27:48.842Z</time></trkpt><trkpt lat="42.2008515795287" lon="11.894981317438383"><ele>199.0</ele><time>2026-04-19T08:27:49.841Z</time></trkpt><trkpt lat="42.20074195318264" lon="11.89497819053004"><ele>201.6</ele><time>2026-04-19T08:27:51.841Z</time></trkpt><trkpt lat="42.20066001929064" lon="11.895057163477157"><ele>204.2</ele><time>2026-04-19T08:27:53.841Z</time></trkpt><trkpt lat="42.20061580598984" lon="11.895122022148351"><ele>206.79999999999998</ele><time>2026-04-19T08:27:54.841Z</time></trkpt><trkpt lat="42.20055233522257" lon="11.895208152956746"><ele>209.39999999999998</ele><time>2026-04-19T08:27:55.842Z</time></trkpt><trkpt lat="42.200483609542324" lon="11.895316490701342"><ele>212.0</ele><time>2026-04-19T08:27:56.842Z</time></trkpt><trkpt lat="42.200413423896784" lon="11.895453727825554"><ele>212.0</ele><time>2026-04-19T08:27:57.841Z</time></trkpt><trkpt lat="42.20031863988518" lon="11.895583499672183"><ele>212.0</ele><time>2026-04-19T08:27:58.841Z</time></trkpt><trkpt lat="42.20022503874953" lon="11.895720017780993"><ele>212.0</ele><time>2026-04-19T08:27:59.841Z</time></trkpt><trkpt lat="42.20014394451569" lon="11.895852161559741"><ele>212.0</ele><time>2026-04-19T08:28:00.841Z</time></trkpt><trkpt lat="42.20007783188002" lon="11.895983358694659"><ele>211.5</ele><time>2026-04-19T08:28:01.841Z</time></trkpt><trkpt lat="42.200011484246296" lon="11.896088237376086"><ele>211.0</ele><time>2026-04-19T08:28:02.841Z</time></trkpt><trkpt lat="42.1999469893985" lon="11.896208656761724"><ele>210.5</ele><time>2026-04-19T08:28:03.841Z</time></trkpt><trkpt lat="42.1998796918325" lon="11.896344517816145"><ele>210.0</ele><time>2026-04-19T08:28:04.841Z</time></trkpt><trkpt lat="42.199774104275264" lon="11.896440052261399"><ele>214.25</ele><time>2026-04-19T08:28:05.841Z</time></trkpt><trkpt lat="42.199706558422314" lon="11.89657353255746"><ele>218.5</ele><time>2026-04-19T08:28:06.841Z</time></trkpt><trkpt lat="42.19963994007342" lon="11.89671153011823"><ele>222.75</ele><time>2026-04-19T08:28:07.841Z</time></trkpt><trkpt lat="42.199580919676784" lon="11.896836858096462"><ele>227.0</ele><time>2026-04-19T08:28:08.841Z</time></trkpt><trkpt lat="42.19952842914275" lon="11.896952556756887"><ele>227.0</ele><time>2026-04-19T08:28:09.841Z</time></trkpt><trkpt lat="42.19947823627768" lon="11.897066809111394"><ele>227.0</ele><time>2026-04-19T08:28:10.841Z</time></trkpt><trkpt lat="42.19942638852284" lon="11.8971848284703"><ele>227.0</ele><time>2026-04-19T08:28:11.841Z</time></trkpt><trkpt lat="42.19937959194064" lon="11.897292467897307"><ele>227.0</ele><time>2026-04-19T08:28:12.841Z</time></trkpt><trkpt lat="42.19932799614599" lon="11.897411573757262"><ele>227.0</ele><time>2026-04-19T08:28:13.841Z</time></trkpt><trkpt lat="42.199273986150175" lon="11.897536252561022"><ele>227.5</ele><time>2026-04-19T08:28:14.841Z</time></trkpt><trkpt lat="42.19921274520712" lon="11.897676609116132"><ele>228.0</ele><time>2026-04-19T08:28:15.841Z</time></trkpt><trkpt lat="42.19915308260844" lon="11.897810845333503"><ele>228.5</ele><time>2026-04-19T08:28:16.84Z</time></trkpt><trkpt lat="42.199088322839685" lon="11.897953395155191"><ele>229.0</ele><time>2026-04-19T08:28:17.84Z</time></trkpt><trkpt lat="42.19901866413806" lon="11.89810507048244"><ele>235.75</ele><time>2026-04-19T08:28:18.84Z</time></trkpt><trkpt lat="42.19895889447771" lon="11.898225698919402"><ele>242.5</ele><time>2026-04-19T08:28:19.84Z</time></trkpt><trkpt lat="42.19889399864229" lon="11.89835329484182"><ele>249.25</ele><time>2026-04-19T08:28:20.84Z</time></trkpt><trkpt lat="42.198821893876016" lon="11.898504129891617"><ele>256.0</ele><time>2026-04-19T08:28:21.84Z</time></trkpt><trkpt lat="42.19877379883673" lon="11.898641730689006"><ele>256.8</ele><time>2026-04-19T08:28:22.84Z</time></trkpt><trkpt lat="42.19872180096075" lon="11.89875292193381"><ele>257.6</ele><time>2026-04-19T08:28:23.84Z</time></trkpt><trkpt lat="42.19870492282084" lon="11.898855113634323"><ele>258.4</ele><time>2026-04-19T08:28:24.84Z</time></trkpt><trkpt lat="42.198699348166606" lon="11.898983271185116"><ele>259.2</ele><time>2026-04-19T08:28:25.84Z</time></trkpt><trkpt lat="42.19869527574611" lon="11.899129404185807"><ele>260.0</ele><time>2026-04-19T08:28:26.84Z</time></trkpt><trkpt lat="42.19870672665361" lon="11.89927154637654"><ele>260.0</ele><time>2026-04-19T08:28:27.84Z</time></trkpt><trkpt lat="42.198718516621945" lon="11.899386890906177"><ele>260.0</ele><time>2026-04-19T08:28:28.84Z</time></trkpt><trkpt lat="42.198713850804765" lon="11.899488112163711"><ele>260.0</ele><time>2026-04-19T08:28:29.84Z</time></trkpt><trkpt lat="42.198695180126336" lon="11.899594674077044"><ele>260.0</ele><time>2026-04-19T08:28:30.84Z</time></trkpt><trkpt lat="42.198668156769685" lon="11.899719856063603"><ele>260.0</ele><time>2026-04-19T08:28:31.84Z</time></trkpt><trkpt lat="42.19864082927006" lon="11.899858974210925"><ele>260.0</ele><time>2026-04-19T08:28:32.84Z</time></trkpt><trkpt lat="42.19861493436139" lon="11.899977805654652"><ele>260.0</ele><time>2026-04-19T08:28:33.84Z</time></trkpt><trkpt lat="42.19857696124311" lon="11.900089355161347"><ele>260.0</ele><time>2026-04-19T08:28:35.84Z</time></trkpt><trkpt lat="42.19850782478755" lon="11.900095687090475"><ele>260.0</ele><time>2026-04-19T08:28:37.84Z</time></trkpt><trkpt lat="42.19847499592654" lon="11.89996696194546"><ele>260.0</ele><time>2026-04-19T08:28:39.84Z</time></trkpt><trkpt lat="42.198426538260875" lon="11.899786987390435"><ele>260.0</ele><time>2026-04-19T08:28:41.84Z</time></trkpt><trkpt lat="42.19839477289819" lon="11.899643495246691"><ele>260.0</ele><time>2026-04-19T08:28:42.84Z</time></trkpt><trkpt lat="42.198371223697706" lon="11.89951456037758"><ele>260.0</ele><time>2026-04-19T08:28:43.84Z</time></trkpt><trkpt lat="42.19833920843725" lon="11.899339896136194"><ele>260.0</ele><time>2026-04-19T08:28:44.84Z</time></trkpt><trkpt lat="42.19831072587101" lon="11.899172602885601"><ele>260.0</ele><time>2026-04-19T08:28:45.84Z</time></trkpt><trkpt lat="42.19827948534044" lon="11.89900865614079"><ele>260.0</ele><time>2026-04-19T08:28:46.84Z</time></trkpt><trkpt lat="42.19824817432041" lon="11.898872226005231"><ele>260.0</ele><time>2026-04-19T08:28:47.84Z</time></trkpt><trkpt lat="42.19820170304015" lon="11.898745903527669"><ele>260.0</ele><time>2026-04-19T08:28:48.84Z</time></trkpt><trkpt lat="42.19815455728867" lon="11.89861847030748"><ele>260.0</ele><time>2026-04-19T08:28:49.84Z</time></trkpt><trkpt lat="42.19809679710899" lon="11.898488732580068"><ele>260.0</ele><time>2026-04-19T08:28:50.84Z</time></trkpt><trkpt lat="42.19800320166252" lon="11.898332373022692"><ele>265.25</ele><time>2026-04-19T08:28:51.84Z</time></trkpt><trkpt lat="42.1979590548305" lon="11.898136091589611"><ele>270.5</ele><time>2026-04-19T08:28:52.84Z</time></trkpt><trkpt lat="42.197898132907355" lon="11.897983887826326"><ele>275.75</ele><time>2026-04-19T08:28:53.84Z</time></trkpt><trkpt lat="42.19783812192405" lon="11.897825708674395"><ele>281.0</ele><time>2026-04-19T08:28:54.84Z</time></trkpt><trkpt lat="42.19778203374293" lon="11.897676433250426"><ele>280.0</ele><time>2026-04-19T08:28:55.84Z</time></trkpt><trkpt lat="42.19772785269624" lon="11.897532797780956"><ele>279.0</ele><time>2026-04-19T08:28:56.84Z</time></trkpt><trkpt lat="42.19765807491453" lon="11.897377737797001"><ele>278.0</ele><time>2026-04-19T08:28:57.84Z</time></trkpt><trkpt lat="42.1976046684132" lon="11.897205562635616"><ele>277.0</ele><time>2026-04-19T08:28:58.84Z</time></trkpt><trkpt lat="42.19754816308324" lon="11.897035773016578"><ele>277.0</ele><time>2026-04-19T08:28:59.84Z</time></trkpt><trkpt lat="42.197502729464425" lon="11.896870777491815"><ele>277.0</ele><time>2026-04-19T08:29:00.84Z</time></trkpt><trkpt lat="42.197451832855315" lon="11.896707018934034"><ele>277.0</ele><time>2026-04-19T08:29:01.84Z</time></trkpt><trkpt lat="42.19739882881527" lon="11.896546119859705"><ele>277.0</ele><time>2026-04-19T08:29:02.84Z</time></trkpt><trkpt lat="42.19734955984397" lon="11.896413547328617"><ele>279.66666666666663</ele><time>2026-04-19T08:29:03.84Z</time></trkpt><trkpt lat="42.19729657071144" lon="11.896302959624817"><ele>282.3333333333333</ele><time>2026-04-19T08:29:04.84Z</time></trkpt><trkpt lat="42.19722898666412" lon="11.896227137786767"><ele>285.0</ele><time>2026-04-19T08:29:05.84Z</time></trkpt><trkpt lat="42.19717608214113" lon="11.89615010767605"><ele>287.6666666666667</ele><time>2026-04-19T08:29:06.84Z</time></trkpt><trkpt lat="42.19712444673326" lon="11.896083157415347"><ele>290.33333333333337</ele><time>2026-04-19T08:29:07.84Z</time></trkpt><trkpt lat="42.197039672015116" lon="11.896071470006133"><ele>293.0</ele><time>2026-04-19T08:29:08.84Z</time></trkpt><trkpt lat="42.196976223689326" lon="11.896023824151284"><ele>293.0</ele><time>2026-04-19T08:29:09.84Z</time></trkpt><trkpt lat="42.19691013813099" lon="11.895972641816064"><ele>293.0</ele><time>2026-04-19T08:29:10.84Z</time></trkpt><trkpt lat="42.19683669563748" lon="11.895935061602287"><ele>293.0</ele><time>2026-04-19T08:29:11.84Z</time></trkpt><trkpt lat="42.19675638588856" lon="11.895948116075497"><ele>293.0</ele><time>2026-04-19T08:29:12.84Z</time></trkpt><trkpt lat="42.196663336644576" lon="11.895955248189836"><ele>293.0</ele><time>2026-04-19T08:29:13.84Z</time></trkpt><trkpt lat="42.19657770532923" lon="11.895977162432867"><ele>293.0</ele><time>2026-04-19T08:29:14.84Z</time></trkpt><trkpt lat="42.19650316063711" lon="11.896013513544581"><ele>293.8</ele><time>2026-04-19T08:29:15.84Z</time></trkpt><trkpt lat="42.196425406851624" lon="11.896066354195405"><ele>294.6</ele><time>2026-04-19T08:29:16.84Z</time></trkpt><trkpt lat="42.19635749120033" lon="11.896131285903845"><ele>295.4</ele><time>2026-04-19T08:29:17.84Z</time></trkpt><trkpt lat="42.196280676014254" lon="11.896211750778988"><ele>296.2</ele><time>2026-04-19T08:29:18.84Z</time></trkpt><trkpt lat="42.19619721710908" lon="11.89628849717567"><ele>297.0</ele><time>2026-04-19T08:29:19.84Z</time></trkpt><trkpt lat="42.196121100954244" lon="11.89639122550601"><ele>297.0</ele><time>2026-04-19T08:29:20.84Z</time></trkpt><trkpt lat="42.19604370702592" lon="11.896484541911414"><ele>297.0</ele><time>2026-04-19T08:29:21.84Z</time></trkpt><trkpt lat="42.19596497911447" lon="11.896572063980607"><ele>297.0</ele><time>2026-04-19T08:29:22.839Z</time></trkpt><trkpt lat="42.19588406984319" lon="11.896634940463391"><ele>297.0</ele><time>2026-04-19T08:29:23.839Z</time></trkpt><trkpt lat="42.19578258225211" lon="11.896691542385188"><ele>297.0</ele><time>2026-04-19T08:29:24.839Z</time></trkpt><trkpt lat="42.19565990769132" lon="11.896748908193837"><ele>302.4</ele><time>2026-04-19T08:29:25.839Z</time></trkpt><trkpt lat="42.19554508534667" lon="11.896799502928381"><ele>307.79999999999995</ele><time>2026-04-19T08:29:26.839Z</time></trkpt><trkpt lat="42.19543360004269" lon="11.896845779420106"><ele>313.2</ele><time>2026-04-19T08:29:27.839Z</time></trkpt><trkpt lat="42.19532490544122" lon="11.89685520733825"><ele>318.59999999999997</ele><time>2026-04-19T08:29:28.839Z</time></trkpt><trkpt lat="42.19522958099788" lon="11.896856481712234"><ele>324.0</ele><time>2026-04-19T08:29:29.839Z</time></trkpt><trkpt lat="42.19513708166859" lon="11.8968513016125"><ele>324.0</ele><time>2026-04-19T08:29:30.839Z</time></trkpt><trkpt lat="42.195045022921164" lon="11.896856933569932"><ele>324.0</ele><time>2026-04-19T08:29:31.839Z</time></trkpt><trkpt lat="42.194931995999106" lon="11.896854552570103"><ele>324.0</ele><time>2026-04-19T08:29:32.839Z</time></trkpt><trkpt lat="42.19481343685291" lon="11.89687707580271"><ele>324.0</ele><time>2026-04-19T08:29:33.839Z</time></trkpt><trkpt lat="42.19468775770346" lon="11.896901030743123"><ele>325.25</ele><time>2026-04-19T08:29:34.839Z</time></trkpt><trkpt lat="42.19454681358638" lon="11.896905190005796"><ele>326.5</ele><time>2026-04-19T08:29:35.839Z</time></trkpt><trkpt lat="42.19442010240833" lon="11.896935657261533"><ele>327.75</ele><time>2026-04-19T08:29:36.839Z</time></trkpt><trkpt lat="42.19428792494935" lon="11.897009445919462"><ele>329.0</ele><time>2026-04-19T08:29:37.839Z</time></trkpt><trkpt lat="42.19415901190961" lon="11.897088885682921"><ele>329.0</ele><time>2026-04-19T08:29:38.839Z</time></trkpt><trkpt lat="42.19401830124735" lon="11.897161130580574"><ele>329.0</ele><time>2026-04-19T08:29:39.839Z</time></trkpt><trkpt lat="42.193864157233385" lon="11.897207552705419"><ele>329.0</ele><time>2026-04-19T08:29:40.839Z</time></trkpt><trkpt lat="42.193749096687256" lon="11.897253055745097"><ele>329.0</ele><time>2026-04-19T08:29:41.839Z</time></trkpt><trkpt lat="42.193633847415704" lon="11.897307280434411"><ele>328.6</ele><time>2026-04-19T08:29:42.839Z</time></trkpt><trkpt lat="42.1935315980754" lon="11.89740012672872"><ele>328.2</ele><time>2026-04-19T08:29:43.839Z</time></trkpt><trkpt lat="42.19343547487103" lon="11.897483186145957"><ele>327.8</ele><time>2026-04-19T08:29:44.839Z</time></trkpt><trkpt lat="42.193356669749946" lon="11.897552745865557"><ele>327.40000000000003</ele><time>2026-04-19T08:29:45.839Z</time></trkpt><trkpt lat="42.19326785957412" lon="11.897579772865306"><ele>327.0</ele><time>2026-04-19T08:29:46.839Z</time></trkpt><trkpt lat="42.193175676890924" lon="11.897572994074922"><ele>328.0</ele><time>2026-04-19T08:29:47.839Z</time></trkpt><trkpt lat="42.1930912566162" lon="11.897572434041868"><ele>329.0</ele><time>2026-04-19T08:29:48.839Z</time></trkpt><trkpt lat="42.19300760421375" lon="11.897537260409123"><ele>330.0</ele><time>2026-04-19T08:29:49.839Z</time></trkpt><trkpt lat="42.19291052632466" lon="11.897493052190688"><ele>331.0</ele><time>2026-04-19T08:29:50.839Z</time></trkpt><trkpt lat="42.19278904271013" lon="11.897431487429662"><ele>332.0</ele><time>2026-04-19T08:29:51.836Z</time></trkpt><trkpt lat="42.192665785920106" lon="11.897379990207618"><ele>332.0</ele><time>2026-04-19T08:29:52.836Z</time></trkpt><trkpt lat="42.19255180785229" lon="11.897354836915078"><ele>332.0</ele><time>2026-04-19T08:29:53.836Z</time></trkpt><trkpt lat="42.19245909405477" lon="11.897336934930147"><ele>332.0</ele><time>2026-04-19T08:29:54.836Z</time></trkpt><trkpt lat="42.192365288204726" lon="11.897357986913473"><ele>332.0</ele><time>2026-04-19T08:29:55.835Z</time></trkpt><trkpt lat="42.19228148135266" lon="11.897382727585086"><ele>332.0</ele><time>2026-04-19T08:29:56.835Z</time></trkpt><trkpt lat="42.192213172280475" lon="11.897476969009052"><ele>332.40000000000003</ele><time>2026-04-19T08:29:57.836Z</time></trkpt><trkpt lat="42.19216294971218" lon="11.89757519740878"><ele>332.8</ele><time>2026-04-19T08:29:58.836Z</time></trkpt><trkpt lat="42.19210632858393" lon="11.897718007730232"><ele>333.2</ele><time>2026-04-19T08:29:59.836Z</time></trkpt><trkpt lat="42.19205366828865" lon="11.897880464475305"><ele>333.6</ele><time>2026-04-19T08:30:00.835Z</time></trkpt><trkpt lat="42.19201029917415" lon="11.897997344896398"><ele>334.0</ele><time>2026-04-19T08:30:01.836Z</time></trkpt><trkpt lat="42.19196881761603" lon="11.898100270515519"><ele>334.0</ele><time>2026-04-19T08:30:02.836Z</time></trkpt><trkpt lat="42.19193038508077" lon="11.898203788791522"><ele>334.0</ele><time>2026-04-19T08:30:03.836Z</time></trkpt><trkpt lat="42.19187226130147" lon="11.898272086355801"><ele>334.0</ele><time>2026-04-19T08:30:04.835Z</time></trkpt><trkpt lat="42.19182980584093" lon="11.898375630001388"><ele>334.0</ele><time>2026-04-19T08:30:05.835Z</time></trkpt><trkpt lat="42.191769254215345" lon="11.898503120519658"><ele>334.0</ele><time>2026-04-19T08:30:06.835Z</time></trkpt><trkpt lat="42.19170142977451" lon="11.898646455212214"><ele>334.25</ele><time>2026-04-19T08:30:07.835Z</time></trkpt><trkpt lat="42.19163178294248" lon="11.898803225499524"><ele>334.5</ele><time>2026-04-19T08:30:08.835Z</time></trkpt><trkpt lat="42.19154868682956" lon="11.898972119037579"><ele>334.75</ele><time>2026-04-19T08:30:09.835Z</time></trkpt><trkpt lat="42.19147154662834" lon="11.899135622785316"><ele>335.0</ele><time>2026-04-19T08:30:10.835Z</time></trkpt><trkpt lat="42.191369617204046" lon="11.89929224175372"><ele>335.0</ele><time>2026-04-19T08:30:11.835Z</time></trkpt><trkpt lat="42.191297592948395" lon="11.899433744695667"><ele>335.0</ele><time>2026-04-19T08:30:12.835Z</time></trkpt><trkpt lat="42.19123079733449" lon="11.899555454871031"><ele>335.0</ele><time>2026-04-19T08:30:13.835Z</time></trkpt><trkpt lat="42.19116506389753" lon="11.899672035775424"><ele>335.0</ele><time>2026-04-19T08:30:14.835Z</time></trkpt><trkpt lat="42.19112208251419" lon="11.899805094385657"><ele>335.0</ele><time>2026-04-19T08:30:15.835Z</time></trkpt><trkpt lat="42.19109211344375" lon="11.899942253943676"><ele>335.0</ele><time>2026-04-19T08:30:16.835Z</time></trkpt><trkpt lat="42.191070776443205" lon="11.90011372307452"><ele>335.0</ele><time>2026-04-19T08:30:17.835Z</time></trkpt><trkpt lat="42.191070002378616" lon="11.900319773664751"><ele>335.0</ele><time>2026-04-19T08:30:18.835Z</time></trkpt><trkpt lat="42.19105946322965" lon="11.90054813243228"><ele>334.6666666666667</ele><time>2026-04-19T08:30:19.835Z</time></trkpt><trkpt lat="42.191046179440725" lon="11.900775237251235"><ele>334.3333333333333</ele><time>2026-04-19T08:30:20.835Z</time></trkpt><trkpt lat="42.191040345252276" lon="11.900995270481733"><ele>334.0</ele><time>2026-04-19T08:30:21.835Z</time></trkpt><trkpt lat="42.19100830866309" lon="11.901183098728131"><ele>335.0</ele><time>2026-04-19T08:30:22.835Z</time></trkpt><trkpt lat="42.19099695404336" lon="11.901336922604484"><ele>336.0</ele><time>2026-04-19T08:30:23.835Z</time></trkpt><trkpt lat="42.190970765101135" lon="11.901464583986828"><ele>337.0</ele><time>2026-04-19T08:30:24.835Z</time></trkpt><trkpt lat="42.19091966519856" lon="11.901580379148305"><ele>338.0</ele><time>2026-04-19T08:30:25.835Z</time></trkpt><trkpt lat="42.19085043592646" lon="11.901695320614254"><ele>339.0</ele><time>2026-04-19T08:30:26.835Z</time></trkpt><trkpt lat="42.19078192071001" lon="11.901822506845003"><ele>340.0</ele><time>2026-04-19T08:30:27.835Z</time></trkpt><trkpt lat="42.19073243550835" lon="11.901946174687884"><ele>341.0</ele><time>2026-04-19T08:30:28.835Z</time></trkpt><trkpt lat="42.1907078818777" lon="11.902095557446046"><ele>342.0</ele><time>2026-04-19T08:30:29.835Z</time></trkpt><trkpt lat="42.19070560244789" lon="11.902238762910816"><ele>343.0</ele><time>2026-04-19T08:30:30.835Z</time></trkpt><trkpt lat="42.19069300809771" lon="11.902362964599583"><ele>344.0</ele><time>2026-04-19T08:30:31.835Z</time></trkpt><trkpt lat="42.19067859926395" lon="11.9025330495583"><ele>347.0</ele><time>2026-04-19T08:30:33.835Z</time></trkpt><trkpt lat="42.19065355059645" lon="11.902666340789631"><ele>350.0</ele><time>2026-04-19T08:30:35.835Z</time></trkpt><trkpt lat="42.19064145670046" lon="11.902761469083707"><ele>353.0</ele><time>2026-04-19T08:30:37.835Z</time></trkpt><trkpt lat="42.19062643154311" lon="11.902861406017088"><ele>356.0</ele><time>2026-04-19T08:30:40.835Z</time></trkpt><trkpt lat="42.19058111560279" lon="11.903003083609532"><ele>359.0</ele><time>2026-04-19T08:30:42.835Z</time></trkpt><trkpt lat="42.19055320397262" lon="11.903133709993597"><ele>359.0</ele><time>2026-04-19T08:30:43.835Z</time></trkpt><trkpt lat="42.19052617965882" lon="11.903267543557572"><ele>359.0</ele><time>2026-04-19T08:30:44.835Z</time></trkpt><trkpt lat="42.190498912334334" lon="11.903437285724914"><ele>359.0</ele><time>2026-04-19T08:30:45.835Z</time></trkpt><trkpt lat="42.190475628858785" lon="11.90359831828112"><ele>359.0</ele><time>2026-04-19T08:30:46.835Z</time></trkpt><trkpt lat="42.190453530751014" lon="11.903762984899084"><ele>361.0</ele><time>2026-04-19T08:30:47.835Z</time></trkpt><trkpt lat="42.19043276275326" lon="11.903926888234624"><ele>363.0</ele><time>2026-04-19T08:30:48.835Z</time></trkpt><trkpt lat="42.19041162852105" lon="11.90410293970393"><ele>365.0</ele><time>2026-04-19T08:30:49.835Z</time></trkpt><trkpt lat="42.190398633942614" lon="11.904277970462227"><ele>367.0</ele><time>2026-04-19T08:30:50.835Z</time></trkpt><trkpt lat="42.19039102371401" lon="11.904400593287058"><ele>367.0</ele><time>2026-04-19T08:30:51.835Z</time></trkpt><trkpt lat="42.190365661026895" lon="11.904517760526728"><ele>367.0</ele><time>2026-04-19T08:30:52.835Z</time></trkpt><trkpt lat="42.19035032885824" lon="11.904633199661529"><ele>367.0</ele><time>2026-04-19T08:30:53.835Z</time></trkpt><trkpt lat="42.19030324564348" lon="11.904754378829415"><ele>367.0</ele><time>2026-04-19T08:30:54.835Z</time></trkpt><trkpt lat="42.19022841836828" lon="11.904856887354356"><ele>367.0</ele><time>2026-04-19T08:30:55.834Z</time></trkpt><trkpt lat="42.19015336022535" lon="11.90495370636146"><ele>367.0</ele><time>2026-04-19T08:30:56.834Z</time></trkpt><trkpt lat="42.19006679807564" lon="11.905045607537616"><ele>367.0</ele><time>2026-04-19T08:30:57.834Z</time></trkpt><trkpt lat="42.18998396299944" lon="11.905154891771074"><ele>367.0</ele><time>2026-04-19T08:30:58.834Z</time></trkpt><trkpt lat="42.18995215472305" lon="11.905295113515868"><ele>367.0</ele><time>2026-04-19T08:30:59.834Z</time></trkpt><trkpt lat="42.18992546768172" lon="11.905418256530695"><ele>367.0</ele><time>2026-04-19T08:31:00.834Z</time></trkpt><trkpt lat="42.18990317166136" lon="11.905555606838957"><ele>366.5</ele><time>2026-04-19T08:31:01.834Z</time></trkpt><trkpt lat="42.18987454778804" lon="11.905702712410976"><ele>366.0</ele><time>2026-04-19T08:31:02.834Z</time></trkpt><trkpt lat="42.18984727530755" lon="11.90586058030347"><ele>365.5</ele><time>2026-04-19T08:31:03.834Z</time></trkpt><trkpt lat="42.18982575669084" lon="11.906032653935533"><ele>365.0</ele><time>2026-04-19T08:31:04.834Z</time></trkpt><trkpt lat="42.18982518165322" lon="11.906217445734628"><ele>373.6</ele><time>2026-04-19T08:31:05.834Z</time></trkpt><trkpt lat="42.189798899326036" lon="11.9063479789138"><ele>382.2</ele><time>2026-04-19T08:31:06.834Z</time></trkpt><trkpt lat="42.1897858074046" lon="11.90646203906205"><ele>390.79999999999995</ele><time>2026-04-19T08:31:07.834Z</time></trkpt><trkpt lat="42.189740106916105" lon="11.906602693226588"><ele>399.4</ele><time>2026-04-19T08:31:08.834Z</time></trkpt><trkpt lat="42.18967219417989" lon="11.906755261882411"><ele>408.0</ele><time>2026-04-19T08:31:09.834Z</time></trkpt><trkpt lat="42.18964159816738" lon="11.906917330532615"><ele>408.0</ele><time>2026-04-19T08:31:10.834Z</time></trkpt><trkpt lat="42.189631979907986" lon="11.907065471074755"><ele>408.0</ele><time>2026-04-19T08:31:11.834Z</time></trkpt><trkpt lat="42.18962682343084" lon="11.90719977949151"><ele>408.0</ele><time>2026-04-19T08:31:12.834Z</time></trkpt><trkpt lat="42.18961797616053" lon="11.907313643826672"><ele>408.0</ele><time>2026-04-19T08:31:13.834Z</time></trkpt><trkpt lat="42.189593716645845" lon="11.907421221069612"><ele>408.0</ele><time>2026-04-19T08:31:14.834Z</time></trkpt><trkpt lat="42.18952869909837" lon="11.907528476998328"><ele>405.25</ele><time>2026-04-19T08:31:15.834Z</time></trkpt><trkpt lat="42.18946701204085" lon="11.907704663484923"><ele>402.5</ele><time>2026-04-19T08:31:16.834Z</time></trkpt><trkpt lat="42.18942667509878" lon="11.907882990460305"><ele>399.75</ele><time>2026-04-19T08:31:17.834Z</time></trkpt><trkpt lat="42.18938245567755" lon="11.908042800389484"><ele>397.0</ele><time>2026-04-19T08:31:18.834Z</time></trkpt><trkpt lat="42.18932875809783" lon="11.908189732322628"><ele>397.0</ele><time>2026-04-19T08:31:19.834Z</time></trkpt><trkpt lat="42.189301360782146" lon="11.908321048648935"><ele>397.0</ele><time>2026-04-19T08:31:20.834Z</time></trkpt><trkpt lat="42.18925960237982" lon="11.908437947361644"><ele>397.0</ele><time>2026-04-19T08:31:21.834Z</time></trkpt><trkpt lat="42.18918411734835" lon="11.908543218029225"><ele>397.0</ele><time>2026-04-19T08:31:22.834Z</time></trkpt><trkpt lat="42.189105035142646" lon="11.90866917653724"><ele>397.0</ele><time>2026-04-19T08:31:23.834Z</time></trkpt><trkpt lat="42.18903597420824" lon="11.908795984937386"><ele>399.50000000000006</ele><time>2026-04-19T08:31:24.834Z</time></trkpt><trkpt lat="42.18897737099302" lon="11.908893680087761"><ele>402.0</ele><time>2026-04-19T08:31:25.834Z</time></trkpt><trkpt lat="42.1889250491416" lon="11.908986431929174"><ele>404.5</ele><time>2026-04-19T08:31:26.834Z</time></trkpt><trkpt lat="42.18888538179192" lon="11.90908456307088"><ele>407.0</ele><time>2026-04-19T08:31:27.834Z</time></trkpt><trkpt lat="42.18885204026877" lon="11.909177096595196"><ele>409.50000000000006</ele><time>2026-04-19T08:31:28.834Z</time></trkpt><trkpt lat="42.18881376195563" lon="11.909290498793048"><ele>412.0</ele><time>2026-04-19T08:31:29.834Z</time></trkpt><trkpt lat="42.18879199564573" lon="11.909446259687188"><ele>412.0</ele><time>2026-04-19T08:31:30.834Z</time></trkpt><trkpt lat="42.18876183388379" lon="11.909624318842937"><ele>412.0</ele><time>2026-04-19T08:31:31.834Z</time></trkpt><trkpt lat="42.1887349738249" lon="11.909809977743821"><ele>412.0</ele><time>2026-04-19T08:31:32.834Z</time></trkpt><trkpt lat="42.18871545307203" lon="11.909969615168245"><ele>412.0</ele><time>2026-04-19T08:31:33.834Z</time></trkpt><trkpt lat="42.18870183625738" lon="11.910078166847631"><ele>412.0</ele><time>2026-04-19T08:31:34.834Z</time></trkpt><trkpt lat="42.18871226850245" lon="11.910176120766454"><ele>412.0</ele><time>2026-04-19T08:31:35.834Z</time></trkpt><trkpt lat="42.18874946420185" lon="11.910295995929737"><ele>412.0</ele><time>2026-04-19T08:31:36.834Z</time></trkpt><trkpt lat="42.18878364245808" lon="11.910446374054501"><ele>412.0</ele><time>2026-04-19T08:31:37.834Z</time></trkpt><trkpt lat="42.188783533947095" lon="11.910600000195753"><ele>412.0</ele><time>2026-04-19T08:31:38.834Z</time></trkpt><trkpt lat="42.18874145826835" lon="11.91072814839742"><ele>412.0</ele><time>2026-04-19T08:31:39.834Z</time></trkpt><trkpt lat="42.18871443955694" lon="11.910842687023193"><ele>412.0</ele><time>2026-04-19T08:31:40.834Z</time></trkpt><trkpt lat="42.18869593519551" lon="11.910947856535723"><ele>412.0</ele><time>2026-04-19T08:31:41.834Z</time></trkpt><trkpt lat="42.18864371478124" lon="11.91106207374892"><ele>412.0</ele><time>2026-04-19T08:31:42.834Z</time></trkpt><trkpt lat="42.188605843070945" lon="11.911195265074381"><ele>412.0</ele><time>2026-04-19T08:31:43.834Z</time></trkpt><trkpt lat="42.18858414832606" lon="11.911322765440216"><ele>411.6</ele><time>2026-04-19T08:31:44.834Z</time></trkpt><trkpt lat="42.18855932941897" lon="11.911441865693865"><ele>411.20000000000005</ele><time>2026-04-19T08:31:45.834Z</time></trkpt><trkpt lat="42.18856781541067" lon="11.911555667549086"><ele>410.8</ele><time>2026-04-19T08:31:46.834Z</time></trkpt><trkpt lat="42.18859276843465" lon="11.911706762098571"><ele>410.4</ele><time>2026-04-19T08:31:47.834Z</time></trkpt><trkpt lat="42.1886203567315" lon="11.911847079028032"><ele>410.0</ele><time>2026-04-19T08:31:48.834Z</time></trkpt><trkpt lat="42.18863736117719" lon="11.91195741449397"><ele>409.8</ele><time>2026-04-19T08:31:49.834Z</time></trkpt><trkpt lat="42.18864213227785" lon="11.912075210868107"><ele>409.6</ele><time>2026-04-19T08:31:50.834Z</time></trkpt><trkpt lat="42.18862352972737" lon="11.912196251394803"><ele>409.4</ele><time>2026-04-19T08:31:51.834Z</time></trkpt><trkpt lat="42.18858235789146" lon="11.912330402954927"><ele>409.2</ele><time>2026-04-19T08:31:52.834Z</time></trkpt><trkpt lat="42.18853337542562" lon="11.912451759180634"><ele>409.0</ele><time>2026-04-19T08:31:53.834Z</time></trkpt><trkpt lat="42.18847275289348" lon="11.91257917008718"><ele>406.25</ele><time>2026-04-19T08:31:54.834Z</time></trkpt><trkpt lat="42.18836183881983" lon="11.912661586767722"><ele>403.5</ele><time>2026-04-19T08:31:55.834Z</time></trkpt><trkpt lat="42.18826766865541" lon="11.912768477018206"><ele>400.75</ele><time>2026-04-19T08:31:56.834Z</time></trkpt><trkpt lat="42.18816508995096" lon="11.912849807070474"><ele>398.0</ele><time>2026-04-19T08:31:57.829Z</time></trkpt><trkpt lat="42.18806035412642" lon="11.912900094209016"><ele>403.4</ele><time>2026-04-19T08:31:58.829Z</time></trkpt><trkpt lat="42.18795529676968" lon="11.912970173173079"><ele>408.79999999999995</ele><time>2026-04-19T08:31:59.829Z</time></trkpt><trkpt lat="42.187851742029345" lon="11.91302871946405"><ele>414.2</ele><time>2026-04-19T08:32:00.83Z</time></trkpt><trkpt lat="42.187772807746285" lon="11.913072150840184"><ele>419.6</ele><time>2026-04-19T08:32:01.829Z</time></trkpt><trkpt lat="42.18771113571631" lon="11.91311384038153"><ele>425.0</ele><time>2026-04-19T08:32:02.829Z</time></trkpt><trkpt lat="42.18765784232539" lon="11.913205573398697"><ele>425.0</ele><time>2026-04-19T08:32:03.83Z</time></trkpt><trkpt lat="42.1875799655098" lon="11.91327792316651"><ele>425.0</ele><time>2026-04-19T08:32:04.829Z</time></trkpt><trkpt lat="42.1875332025735" lon="11.913393137329942"><ele>425.0</ele><time>2026-04-19T08:32:05.829Z</time></trkpt><trkpt lat="42.18749525523268" lon="11.913535732361963"><ele>425.0</ele><time>2026-04-19T08:32:06.829Z</time></trkpt><trkpt lat="42.18747837408474" lon="11.913691605974241"><ele>425.0</ele><time>2026-04-19T08:32:07.829Z</time></trkpt><trkpt lat="42.18747439223439" lon="11.913815052581546"><ele>425.0</ele><time>2026-04-19T08:32:08.829Z</time></trkpt><trkpt lat="42.18747592877266" lon="11.91392991928271"><ele>425.0</ele><time>2026-04-19T08:32:09.829Z</time></trkpt><trkpt lat="42.187496740494396" lon="11.914071158961333"><ele>425.0</ele><time>2026-04-19T08:32:10.829Z</time></trkpt><trkpt lat="42.18755006400183" lon="11.914232591794356"><ele>425.0</ele><time>2026-04-19T08:32:11.829Z</time></trkpt><trkpt lat="42.18761535913182" lon="11.914389780910495"><ele>425.0</ele><time>2026-04-19T08:32:12.829Z</time></trkpt><trkpt lat="42.18768025206359" lon="11.91453198483528"><ele>425.0</ele><time>2026-04-19T08:32:13.829Z</time></trkpt><trkpt lat="42.187730439174665" lon="11.914664575116468"><ele>425.0</ele><time>2026-04-19T08:32:14.829Z</time></trkpt><trkpt lat="42.18776485253626" lon="11.914804734531508"><ele>425.0</ele><time>2026-04-19T08:32:15.829Z</time></trkpt><trkpt lat="42.18780955230026" lon="11.914949613585302"><ele>424.0</ele><time>2026-04-19T08:32:16.829Z</time></trkpt><trkpt lat="42.187827333050045" lon="11.915115070173393"><ele>423.0</ele><time>2026-04-19T08:32:17.829Z</time></trkpt><trkpt lat="42.18784992020549" lon="11.915256305485173"><ele>422.0</ele><time>2026-04-19T08:32:18.829Z</time></trkpt><trkpt lat="42.18786943013899" lon="11.915372218650486"><ele>421.0</ele><time>2026-04-19T08:32:19.829Z</time></trkpt><trkpt lat="42.18782707263484" lon="11.915495386309672"><ele>420.0</ele><time>2026-04-19T08:32:21.829Z</time></trkpt><trkpt lat="42.18772441148627" lon="11.915630541098373"><ele>420.0</ele><time>2026-04-19T08:32:23.829Z</time></trkpt><trkpt lat="42.18764256437819" lon="11.915695093165612"><ele>420.0</ele><time>2026-04-19T08:32:24.829Z</time></trkpt><trkpt lat="42.18752814936346" lon="11.915744599486287"><ele>420.0</ele><time>2026-04-19T08:32:25.829Z</time></trkpt><trkpt lat="42.18740649896558" lon="11.915796855600819"><ele>420.0</ele><time>2026-04-19T08:32:26.829Z</time></trkpt><trkpt lat="42.18728191771557" lon="11.915831353109654"><ele>418.75</ele><time>2026-04-19T08:32:27.829Z</time></trkpt><trkpt lat="42.18715529118855" lon="11.915915720433"><ele>417.5</ele><time>2026-04-19T08:32:28.829Z</time></trkpt><trkpt lat="42.18702392571325" lon="11.916002658011832"><ele>416.25</ele><time>2026-04-19T08:32:29.829Z</time></trkpt><trkpt lat="42.186890663754205" lon="11.91607741370101"><ele>415.0</ele><time>2026-04-19T08:32:30.829Z</time></trkpt><trkpt lat="42.186762165475045" lon="11.91616209319522"><ele>415.0</ele><time>2026-04-19T08:32:31.829Z</time></trkpt><trkpt lat="42.18662214796516" lon="11.916253612750177"><ele>415.0</ele><time>2026-04-19T08:32:32.829Z</time></trkpt><trkpt lat="42.18651178076839" lon="11.916341589332045"><ele>415.0</ele><time>2026-04-19T08:32:33.829Z</time></trkpt><trkpt lat="42.1864177455493" lon="11.916395855509355"><ele>415.0</ele><time>2026-04-19T08:32:34.829Z</time></trkpt><trkpt lat="42.1863218061507" lon="11.91646636821466"><ele>414.6</ele><time>2026-04-19T08:32:35.829Z</time></trkpt><trkpt lat="42.18623863780799" lon="11.916563080930194"><ele>414.2</ele><time>2026-04-19T08:32:36.829Z</time></trkpt><trkpt lat="42.18615280378422" lon="11.916645606415646"><ele>413.79999999999995</ele><time>2026-04-19T08:32:37.829Z</time></trkpt><trkpt lat="42.18607927787653" lon="11.91676159275871"><ele>413.4</ele><time>2026-04-19T08:32:38.829Z</time></trkpt><trkpt lat="42.18598542057968" lon="11.916861365593647"><ele>413.0</ele><time>2026-04-19T08:32:39.829Z</time></trkpt><trkpt lat="42.18590205830617" lon="11.91699214070782"><ele>413.0</ele><time>2026-04-19T08:32:40.829Z</time></trkpt><trkpt lat="42.185821392777335" lon="11.91710453641393"><ele>413.0</ele><time>2026-04-19T08:32:41.829Z</time></trkpt><trkpt lat="42.18574724277091" lon="11.917237778832446"><ele>413.0</ele><time>2026-04-19T08:32:42.829Z</time></trkpt><trkpt lat="42.18566104136926" lon="11.917377968909246"><ele>413.0</ele><time>2026-04-19T08:32:43.829Z</time></trkpt><trkpt lat="42.1855733854346" lon="11.917503935769593"><ele>414.0</ele><time>2026-04-19T08:32:44.829Z</time></trkpt><trkpt lat="42.18549044995802" lon="11.917626570007938"><ele>415.0</ele><time>2026-04-19T08:32:45.829Z</time></trkpt><trkpt lat="42.18542827649399" lon="11.917739975317403"><ele>416.0</ele><time>2026-04-19T08:32:46.829Z</time></trkpt><trkpt lat="42.185380751964146" lon="11.917851863188464"><ele>417.0</ele><time>2026-04-19T08:32:47.829Z</time></trkpt><trkpt lat="42.185319215924515" lon="11.917956412722221"><ele>418.0</ele><time>2026-04-19T08:32:48.829Z</time></trkpt><trkpt lat="42.185272182461794" lon="11.91805002037485"><ele>418.00000000000006</ele><time>2026-04-19T08:32:49.829Z</time></trkpt><trkpt lat="42.185234923355026" lon="11.91814652911241"><ele>418.0</ele><time>2026-04-19T08:32:50.828Z</time></trkpt><trkpt lat="42.185168589012974" lon="11.918214887461822"><ele>418.0</ele><time>2026-04-19T08:32:51.828Z</time></trkpt><trkpt lat="42.185106125628735" lon="11.918245724602633"><ele>418.0</ele><time>2026-04-19T08:32:52.828Z</time></trkpt><trkpt lat="42.18498042178166" lon="11.918217598818988"><ele>418.00000000000006</ele><time>2026-04-19T08:32:54.828Z</time></trkpt><trkpt lat="42.18490155290552" lon="11.918181330246542"><ele>418.0</ele><time>2026-04-19T08:32:55.828Z</time></trkpt><trkpt lat="42.184819506847106" lon="11.918152529161118"><ele>419.4</ele><time>2026-04-19T08:32:56.828Z</time></trkpt><trkpt lat="42.18472928479571" lon="11.91813049443225"><ele>420.79999999999995</ele><time>2026-04-19T08:32:57.828Z</time></trkpt><trkpt lat="42.184621820281585" lon="11.918123793362719"><ele>422.2</ele><time>2026-04-19T08:32:58.828Z</time></trkpt><trkpt lat="42.18450776955983" lon="11.918089790397412"><ele>423.6</ele><time>2026-04-19T08:32:59.828Z</time></trkpt><trkpt lat="42.18438528780518" lon="11.918097202050077"><ele>425.0</ele><time>2026-04-19T08:33:00.828Z</time></trkpt><trkpt lat="42.1842706302395" lon="11.91806459947566"><ele>425.0</ele><time>2026-04-19T08:33:01.828Z</time></trkpt><trkpt lat="42.18415883190866" lon="11.918048076083185"><ele>425.0</ele><time>2026-04-19T08:33:02.828Z</time></trkpt><trkpt lat="42.18403495304451" lon="11.918024420199197"><ele>425.0</ele><time>2026-04-19T08:33:03.828Z</time></trkpt><trkpt lat="42.18389738346648" lon="11.918011306486653"><ele>425.0</ele><time>2026-04-19T08:33:04.828Z</time></trkpt><trkpt lat="42.18376385422582" lon="11.918008671575317"><ele>427.0</ele><time>2026-04-19T08:33:05.828Z</time></trkpt><trkpt lat="42.18364503488452" lon="11.918038901712578"><ele>429.0</ele><time>2026-04-19T08:33:06.828Z</time></trkpt><trkpt lat="42.18354797707661" lon="11.918074143787633"><ele>431.0</ele><time>2026-04-19T08:33:07.828Z</time></trkpt><trkpt lat="42.18344936615469" lon="11.918111000081161"><ele>433.0</ele><time>2026-04-19T08:33:08.828Z</time></trkpt><trkpt lat="42.183348417772706" lon="11.918171434837273"><ele>435.0</ele><time>2026-04-19T08:33:09.828Z</time></trkpt><trkpt lat="42.1832508339598" lon="11.918237061469616"><ele>437.4</ele><time>2026-04-19T08:33:10.828Z</time></trkpt><trkpt lat="42.1831516890765" lon="11.918292564602497"><ele>439.8</ele><time>2026-04-19T08:33:11.828Z</time></trkpt><trkpt lat="42.183045068914254" lon="11.918343734235028"><ele>442.20000000000005</ele><time>2026-04-19T08:33:12.828Z</time></trkpt><trkpt lat="42.182942898460105" lon="11.918375751113812"><ele>444.6</ele><time>2026-04-19T08:33:13.828Z</time></trkpt><trkpt lat="42.182853651102924" lon="11.918393774183555"><ele>447.0</ele><time>2026-04-19T08:33:14.828Z</time></trkpt><trkpt lat="42.182769173055654" lon="11.918352442470434"><ele>447.0</ele><time>2026-04-19T08:33:15.828Z</time></trkpt><trkpt lat="42.18267186361489" lon="11.9182742834411"><ele>447.00000000000006</ele><time>2026-04-19T08:33:16.828Z</time></trkpt><trkpt lat="42.1825943325401" lon="11.91815433613789"><ele>447.00000000000006</ele><time>2026-04-19T08:33:17.828Z</time></trkpt><trkpt lat="42.182533101897455" lon="11.918046153191915"><ele>447.0</ele><time>2026-04-19T08:33:18.828Z</time></trkpt><trkpt lat="42.18245851104527" lon="11.917987250176019"><ele>447.0</ele><time>2026-04-19T08:33:19.828Z</time></trkpt><trkpt lat="42.18236542747193" lon="11.918008476878457"><ele>448.25</ele><time>2026-04-19T08:33:20.828Z</time></trkpt><trkpt lat="42.182281824265466" lon="11.918043866199081"><ele>449.5</ele><time>2026-04-19T08:33:21.828Z</time></trkpt><trkpt lat="42.18218080245566" lon="11.918079978033585"><ele>450.75</ele><time>2026-04-19T08:33:22.828Z</time></trkpt><trkpt lat="42.18206743046008" lon="11.918169572474064"><ele>452.0</ele><time>2026-04-19T08:33:23.828Z</time></trkpt><trkpt lat="42.18192745358151" lon="11.918256192840195"><ele>452.0</ele><time>2026-04-19T08:33:24.828Z</time></trkpt><trkpt lat="42.181803598051715" lon="11.918344597319999"><ele>452.0</ele><time>2026-04-19T08:33:25.828Z</time></trkpt><trkpt lat="42.18169493110929" lon="11.918415439977803"><ele>452.0</ele><time>2026-04-19T08:33:26.828Z</time></trkpt><trkpt lat="42.181600337202894" lon="11.91847894242694"><ele>452.0</ele><time>2026-04-19T08:33:27.828Z</time></trkpt><trkpt lat="42.18151103778269" lon="11.918512503348792"><ele>449.5</ele><time>2026-04-19T08:33:28.828Z</time></trkpt><trkpt lat="42.18140486563605" lon="11.918512438991106"><ele>447.0</ele><time>2026-04-19T08:33:29.828Z</time></trkpt><trkpt lat="42.18130463716271" lon="11.918500893584715"><ele>444.5</ele><time>2026-04-19T08:33:30.828Z</time></trkpt><trkpt lat="42.18116243114246" lon="11.918482149918907"><ele>442.0</ele><time>2026-04-19T08:33:31.828Z</time></trkpt><trkpt lat="42.18100065993565" lon="11.91847068065927"><ele>442.0</ele><time>2026-04-19T08:33:32.828Z</time></trkpt><trkpt lat="42.1808357244932" lon="11.918437918456924"><ele>442.0</ele><time>2026-04-19T08:33:33.828Z</time></trkpt><trkpt lat="42.180705655023964" lon="11.918405317959555"><ele>442.0</ele><time>2026-04-19T08:33:34.828Z</time></trkpt><trkpt lat="42.1806064945072" lon="11.91839132977393"><ele>442.0</ele><time>2026-04-19T08:33:35.828Z</time></trkpt><trkpt lat="42.180502746860896" lon="11.918358030649822"><ele>441.75</ele><time>2026-04-19T08:33:36.828Z</time></trkpt><trkpt lat="42.18038624830356" lon="11.918333863047346"><ele>441.5</ele><time>2026-04-19T08:33:37.828Z</time></trkpt><trkpt lat="42.180269345094075" lon="11.918303835168919"><ele>441.25</ele><time>2026-04-19T08:33:38.828Z</time></trkpt><trkpt lat="42.18014281907692" lon="11.918256320925174"><ele>441.0</ele><time>2026-04-19T08:33:39.828Z</time></trkpt><trkpt lat="42.180020355348404" lon="11.918201196997162"><ele>441.0</ele><time>2026-04-19T08:33:40.828Z</time></trkpt><trkpt lat="42.179895229815166" lon="11.918132452329303"><ele>441.0</ele><time>2026-04-19T08:33:41.828Z</time></trkpt><trkpt lat="42.17974721310113" lon="11.918094117514604"><ele>441.0</ele><time>2026-04-19T08:33:42.828Z</time></trkpt><trkpt lat="42.17959267665929" lon="11.918053794795048"><ele>441.0</ele><time>2026-04-19T08:33:43.828Z</time></trkpt><trkpt lat="42.179458781380376" lon="11.918019271696805"><ele>440.75</ele><time>2026-04-19T08:33:44.828Z</time></trkpt><trkpt lat="42.179339857528994" lon="11.918001077397523"><ele>440.5</ele><time>2026-04-19T08:33:45.828Z</time></trkpt><trkpt lat="42.17924294221152" lon="11.918028895842617"><ele>440.25</ele><time>2026-04-19T08:33:46.828Z</time></trkpt><trkpt lat="42.179153178259156" lon="11.918106468895445"><ele>440.0</ele><time>2026-04-19T08:33:47.828Z</time></trkpt><trkpt lat="42.17905651809595" lon="11.918220035111347"><ele>441.25</ele><time>2026-04-19T08:33:48.828Z</time></trkpt><trkpt lat="42.17895977285144" lon="11.918352340900094"><ele>442.5</ele><time>2026-04-19T08:33:49.828Z</time></trkpt><trkpt lat="42.17884340480933" lon="11.918480629288032"><ele>443.75</ele><time>2026-04-19T08:33:50.828Z</time></trkpt><trkpt lat="42.178742566226504" lon="11.918628696865504"><ele>445.0</ele><time>2026-04-19T08:33:51.828Z</time></trkpt><trkpt lat="42.17863211035185" lon="11.918749886554481"><ele>445.0</ele><time>2026-04-19T08:33:52.828Z</time></trkpt><trkpt lat="42.17853580361093" lon="11.918860669534158"><ele>445.0</ele><time>2026-04-19T08:33:53.828Z</time></trkpt><trkpt lat="42.17842531414579" lon="11.91894688432699"><ele>445.0</ele><time>2026-04-19T08:33:54.827Z</time></trkpt><trkpt lat="42.178286679303156" lon="11.919025199627788"><ele>445.0</ele><time>2026-04-19T08:33:55.827Z</time></trkpt><trkpt lat="42.178142429143975" lon="11.919127584470802"><ele>444.33333333333337</ele><time>2026-04-19T08:33:56.827Z</time></trkpt><trkpt lat="42.17799007254381" lon="11.91921281679931"><ele>443.66666666666663</ele><time>2026-04-19T08:33:57.827Z</time></trkpt><trkpt lat="42.17785092334233" lon="11.919312849533469"><ele>443.0</ele><time>2026-04-19T08:33:58.827Z</time></trkpt><trkpt lat="42.17770879479491" lon="11.919389207558673"><ele>443.0</ele><time>2026-04-19T08:33:59.827Z</time></trkpt><trkpt lat="42.17754839265331" lon="11.919491441781016"><ele>443.0</ele><time>2026-04-19T08:34:00.827Z</time></trkpt><trkpt lat="42.177372341002304" lon="11.919587173919556"><ele>443.0</ele><time>2026-04-19T08:34:01.827Z</time></trkpt><trkpt lat="42.17722007235085" lon="11.91968483289292"><ele>443.66666666666663</ele><time>2026-04-19T08:34:02.827Z</time></trkpt><trkpt lat="42.17706822158206" lon="11.91980809792807"><ele>444.33333333333337</ele><time>2026-04-19T08:34:03.824Z</time></trkpt><trkpt lat="42.17690604472485" lon="11.919922616376539"><ele>445.0</ele><time>2026-04-19T08:34:04.824Z</time></trkpt><trkpt lat="42.17676282824437" lon="11.920067666575667"><ele>443.6666666666667</ele><time>2026-04-19T08:34:05.824Z</time></trkpt><trkpt lat="42.17664577101139" lon="11.920200728092519"><ele>442.33333333333337</ele><time>2026-04-19T08:34:06.824Z</time></trkpt><trkpt lat="42.17651598192067" lon="11.920314855739951"><ele>441.0</ele><time>2026-04-19T08:34:07.823Z</time></trkpt><trkpt lat="42.176371304331326" lon="11.92040433714257"><ele>441.0</ele><time>2026-04-19T08:34:08.823Z</time></trkpt><trkpt lat="42.17621972716424" lon="11.92046669289837"><ele>441.0</ele><time>2026-04-19T08:34:09.824Z</time></trkpt><trkpt lat="42.176065812329185" lon="11.920521794260164"><ele>441.0</ele><time>2026-04-19T08:34:10.824Z</time></trkpt><trkpt lat="42.17591450366007" lon="11.920588763309556"><ele>441.0</ele><time>2026-04-19T08:34:11.824Z</time></trkpt><trkpt lat="42.175786518044006" lon="11.920706761909795"><ele>441.0</ele><time>2026-04-19T08:34:12.824Z</time></trkpt><trkpt lat="42.17568634900883" lon="11.920835082839199"><ele>441.0</ele><time>2026-04-19T08:34:13.823Z</time></trkpt><trkpt lat="42.17560376991962" lon="11.920974274466468"><ele>441.0</ele><time>2026-04-19T08:34:14.823Z</time></trkpt><trkpt lat="42.17551519967158" lon="11.921128825233014"><ele>440.0</ele><time>2026-04-19T08:34:15.823Z</time></trkpt><trkpt lat="42.17541734511579" lon="11.921285874713057"><ele>439.0</ele><time>2026-04-19T08:34:16.823Z</time></trkpt><trkpt lat="42.17529297823031" lon="11.921407053333125"><ele>438.0</ele><time>2026-04-19T08:34:17.823Z</time></trkpt><trkpt lat="42.17517663434957" lon="11.92152629542131"><ele>438.0</ele><time>2026-04-19T08:34:18.823Z</time></trkpt><trkpt lat="42.175062582600596" lon="11.921636104076926"><ele>438.0</ele><time>2026-04-19T08:34:19.823Z</time></trkpt><trkpt lat="42.17495321428588" lon="11.921738476583569"><ele>438.0</ele><time>2026-04-19T08:34:20.823Z</time></trkpt><trkpt lat="42.1748360900705" lon="11.921844668917448"><ele>438.0</ele><time>2026-04-19T08:34:21.823Z</time></trkpt><trkpt lat="42.17471880550438" lon="11.921944400632206"><ele>436.75</ele><time>2026-04-19T08:34:22.823Z</time></trkpt><trkpt lat="42.17459662545031" lon="11.92205095323914"><ele>435.5</ele><time>2026-04-19T08:34:23.823Z</time></trkpt><trkpt lat="42.17447952659086" lon="11.922118326077698"><ele>434.25</ele><time>2026-04-19T08:34:24.823Z</time></trkpt><trkpt lat="42.17434274828374" lon="11.922155114565332"><ele>433.0</ele><time>2026-04-19T08:34:25.823Z</time></trkpt><trkpt lat="42.17421922716472" lon="11.922205586539006"><ele>433.0</ele><time>2026-04-19T08:34:26.823Z</time></trkpt><trkpt lat="42.17410927802402" lon="11.922273424896357"><ele>433.0</ele><time>2026-04-19T08:34:27.823Z</time></trkpt><trkpt lat="42.17398776297831" lon="11.92231910496423"><ele>433.0</ele><time>2026-04-19T08:34:28.823Z</time></trkpt><trkpt lat="42.17387595310405" lon="11.922413375629958"><ele>433.0</ele><time>2026-04-19T08:34:29.823Z</time></trkpt><trkpt lat="42.17376417273457" lon="11.922515719624899"><ele>433.0</ele><time>2026-04-19T08:34:30.823Z</time></trkpt><trkpt lat="42.173652962522446" lon="11.922612329984833"><ele>433.0</ele><time>2026-04-19T08:34:31.823Z</time></trkpt><trkpt lat="42.17353523165135" lon="11.922698698309308"><ele>433.0</ele><time>2026-04-19T08:34:32.823Z</time></trkpt><trkpt lat="42.17341640340768" lon="11.922789984529187"><ele>433.0</ele><time>2026-04-19T08:34:33.823Z</time></trkpt><trkpt lat="42.17330412604743" lon="11.922861074549413"><ele>433.0</ele><time>2026-04-19T08:34:34.823Z</time></trkpt><trkpt lat="42.17319799491019" lon="11.92293912071233"><ele>432.99999999999994</ele><time>2026-04-19T08:34:35.823Z</time></trkpt><trkpt lat="42.17309415526562" lon="11.923021216922647"><ele>432.99999999999994</ele><time>2026-04-19T08:34:36.823Z</time></trkpt><trkpt lat="42.17299298798728" lon="11.923087645341598"><ele>433.0</ele><time>2026-04-19T08:34:37.823Z</time></trkpt><trkpt lat="42.172915879031585" lon="11.923143249067692"><ele>433.0</ele><time>2026-04-19T08:34:38.823Z</time></trkpt><trkpt lat="42.17284946261584" lon="11.923181988343588"><ele>432.50000000000006</ele><time>2026-04-19T08:34:39.823Z</time></trkpt><trkpt lat="42.17278442277534" lon="11.923229377567724"><ele>432.0</ele><time>2026-04-19T08:34:41.823Z</time></trkpt><trkpt lat="42.17270444625472" lon="11.923288138122361"><ele>431.5</ele><time>2026-04-19T08:34:44.823Z</time></trkpt><trkpt lat="42.17275688643276" lon="11.923427398189911"><ele>431.0</ele><time>2026-04-19T08:34:45.823Z</time></trkpt><trkpt lat="42.17272145527974" lon="11.923529505582843"><ele>430.50000000000006</ele><time>2026-04-19T08:34:48.823Z</time></trkpt><trkpt lat="42.17269787837568" lon="11.923634717439226"><ele>430.0</ele><time>2026-04-19T08:34:55.823Z</time></trkpt><trkpt lat="42.17267379855497" lon="11.923776490609383"><ele>430.00000000000006</ele><time>2026-04-19T08:34:57.823Z</time></trkpt><trkpt lat="42.172681618337364" lon="11.92388234487524"><ele>430.0</ele><time>2026-04-19T08:34:58.823Z</time></trkpt><trkpt lat="42.172690854207914" lon="11.923987733156256"><ele>430.0</ele><time>2026-04-19T08:34:59.824Z</time></trkpt><trkpt lat="42.17270675811148" lon="11.924085862285645"><ele>430.0</ele><time>2026-04-19T08:35:00.826Z</time></trkpt><trkpt lat="42.17273931133339" lon="11.92416894580218"><ele>430.00000000000006</ele><time>2026-04-19T08:35:01.827Z</time></trkpt><trkpt lat="42.172784302393914" lon="11.924253561406617"><ele>430.0</ele><time>2026-04-19T08:35:02.829Z</time></trkpt><trkpt lat="42.17283888307244" lon="11.924339190994237"><ele>430.0</ele><time>2026-04-19T08:35:03.83Z</time></trkpt><trkpt lat="42.172900602537105" lon="11.924438324662804"><ele>430.0</ele><time>2026-04-19T08:35:04.831Z</time></trkpt><trkpt lat="42.17296332385011" lon="11.924560939748549"><ele>430.0</ele><time>2026-04-19T08:35:05.832Z</time></trkpt><trkpt lat="42.17304538147896" lon="11.924673354106941"><ele>430.0</ele><time>2026-04-19T08:35:06.833Z</time></trkpt><trkpt lat="42.173113401444844" lon="11.924768459494073"><ele>430.0</ele><time>2026-04-19T08:35:07.834Z</time></trkpt><trkpt lat="42.17320426196284" lon="11.924895169494075"><ele>431.33333333333337</ele><time>2026-04-19T08:35:09.836Z</time></trkpt><trkpt lat="42.17324306172081" lon="11.924963103137076"><ele>432.6666666666667</ele><time>2026-04-19T08:35:10.837Z</time></trkpt><trkpt lat="42.17330755398074" lon="11.925085889444341"><ele>434.0</ele><time>2026-04-19T08:35:12.838Z</time></trkpt><trkpt lat="42.17333308323311" lon="11.925201309407596"><ele>435.33333333333337</ele><time>2026-04-19T08:35:14.84Z</time></trkpt><trkpt lat="42.173334693671606" lon="11.925296898138262"><ele>436.6666666666667</ele><time>2026-04-19T08:35:15.84Z</time></trkpt><trkpt lat="42.17333818287748" lon="11.925425889239186"><ele>438.0</ele><time>2026-04-19T08:35:16.841Z</time></trkpt><trkpt lat="42.17338107950219" lon="11.925592067676542"><ele>438.0</ele><time>2026-04-19T08:35:17.841Z</time></trkpt><trkpt lat="42.173363745976914" lon="11.925705008704544"><ele>437.99999999999994</ele><time>2026-04-19T08:35:18.842Z</time></trkpt><trkpt lat="42.17336447007144" lon="11.925846559500322"><ele>437.99999999999994</ele><time>2026-04-19T08:35:19.842Z</time></trkpt><trkpt lat="42.17336451932937" lon="11.925987765041139"><ele>438.0</ele><time>2026-04-19T08:35:20.842Z</time></trkpt><trkpt lat="42.17338077903515" lon="11.926108192067792"><ele>438.0</ele><time>2026-04-19T08:35:21.843Z</time></trkpt><trkpt lat="42.17337086593888" lon="11.926222415691063"><ele>438.0</ele><time>2026-04-19T08:35:22.843Z</time></trkpt><trkpt lat="42.173375937345156" lon="11.926326669115562"><ele>438.0</ele><time>2026-04-19T08:35:23.844Z</time></trkpt><trkpt lat="42.17337593899665" lon="11.926437231826377"><ele>438.0</ele><time>2026-04-19T08:35:24.844Z</time></trkpt><trkpt lat="42.1733727356721" lon="11.926527451914737"><ele>438.0</ele><time>2026-04-19T08:35:25.844Z</time></trkpt><trkpt lat="42.17335474596848" lon="11.92664794979797"><ele>438.0</ele><time>2026-04-19T08:35:26.844Z</time></trkpt><trkpt lat="42.173355313706416" lon="11.926774843638373"><ele>438.0</ele><time>2026-04-19T08:35:27.845Z</time></trkpt><trkpt lat="42.17336500010139" lon="11.926921056369647"><ele>437.1666666666667</ele><time>2026-04-19T08:35:28.845Z</time></trkpt><trkpt lat="42.17337878680685" lon="11.927046770983878"><ele>436.33333333333337</ele><time>2026-04-19T08:35:29.845Z</time></trkpt><trkpt lat="42.17339197251572" lon="11.927148989597352"><ele>435.5</ele><time>2026-04-19T08:35:30.845Z</time></trkpt><trkpt lat="42.173410587652675" lon="11.927242326669878"><ele>434.6666666666667</ele><time>2026-04-19T08:35:31.846Z</time></trkpt><trkpt lat="42.173458928490284" lon="11.927381523885709"><ele>433.83333333333337</ele><time>2026-04-19T08:35:33.846Z</time></trkpt><trkpt lat="42.17350895528827" lon="11.92745596119231"><ele>433.0</ele><time>2026-04-19T08:35:34.846Z</time></trkpt><trkpt lat="42.17356504895384" lon="11.92749653530706"><ele>433.0</ele><time>2026-04-19T08:35:35.846Z</time></trkpt><trkpt lat="42.173663642413835" lon="11.927530885960595"><ele>432.99999999999994</ele><time>2026-04-19T08:35:37.847Z</time></trkpt><trkpt lat="42.17376451256551" lon="11.927565047386132"><ele>432.99999999999994</ele><time>2026-04-19T08:35:39.847Z</time></trkpt><trkpt lat="42.173855271483944" lon="11.927632997387374"><ele>433.0</ele><time>2026-04-19T08:35:41.847Z</time></trkpt><trkpt lat="42.17393213120222" lon="11.927662739004283"><ele>433.0</ele><time>2026-04-19T08:35:42.847Z</time></trkpt><trkpt lat="42.17399376921604" lon="11.927781379193586"><ele>430.79999999999995</ele><time>2026-04-19T08:35:43.847Z</time></trkpt><trkpt lat="42.17405521202712" lon="11.927913692550884"><ele>428.59999999999997</ele><time>2026-04-19T08:35:44.847Z</time></trkpt><trkpt lat="42.174100020039546" lon="11.927982790338072"><ele>426.4</ele><time>2026-04-19T08:35:45.847Z</time></trkpt><trkpt lat="42.17414227616634" lon="11.928086327661578"><ele>424.20000000000005</ele><time>2026-04-19T08:35:49.848Z</time></trkpt><trkpt lat="42.174230877845574" lon="11.928200477767483"><ele>422.0</ele><time>2026-04-19T08:35:51.848Z</time></trkpt><trkpt lat="42.174297981798574" lon="11.928262798943452"><ele>422.0</ele><time>2026-04-19T08:35:52.848Z</time></trkpt><trkpt lat="42.17436260461739" lon="11.928326603730355"><ele>422.0</ele><time>2026-04-19T08:35:53.848Z</time></trkpt><trkpt lat="42.17444026224593" lon="11.928440341179563"><ele>422.0</ele><time>2026-04-19T08:35:55.848Z</time></trkpt><trkpt lat="42.174510723982436" lon="11.92858664176234"><ele>422.0</ele><time>2026-04-19T08:35:57.848Z</time></trkpt><trkpt lat="42.17455481081758" lon="11.928657015794627"><ele>422.0</ele><time>2026-04-19T08:35:58.848Z</time></trkpt><trkpt lat="42.17459140139419" lon="11.928737492842462"><ele>421.3333333333333</ele><time>2026-04-19T08:35:59.848Z</time></trkpt><trkpt lat="42.174632567834216" lon="11.92881871942171"><ele>420.66666666666663</ele><time>2026-04-19T08:36:00.848Z</time></trkpt><trkpt lat="42.17467890774071" lon="11.928885602994724"><ele>420.0</ele><time>2026-04-19T08:36:01.848Z</time></trkpt><trkpt lat="42.174720168863" lon="11.928971207962636"><ele>419.33333333333337</ele><time>2026-04-19T08:36:02.848Z</time></trkpt><trkpt lat="42.17474536138426" lon="11.929050236081848"><ele>418.6666666666667</ele><time>2026-04-19T08:36:03.848Z</time></trkpt><trkpt lat="42.17476660492904" lon="11.929170386491728"><ele>418.0</ele><time>2026-04-19T08:36:05.848Z</time></trkpt><trkpt lat="42.174775118220225" lon="11.929299820599665"><ele>416.0</ele><time>2026-04-19T08:36:07.848Z</time></trkpt><trkpt lat="42.17477319193215" lon="11.929412319561907"><ele>414.0</ele><time>2026-04-19T08:36:09.844Z</time></trkpt><trkpt lat="42.174785870641635" lon="11.929516381450279"><ele>412.0</ele><time>2026-04-19T08:36:12.844Z</time></trkpt><trkpt lat="42.17487538203534" lon="11.929543070823778"><ele>410.0</ele><time>2026-04-19T08:36:14.844Z</time></trkpt><trkpt lat="42.1749600546001" lon="11.929527664647278"><ele>408.0</ele><time>2026-04-19T08:36:17.844Z</time></trkpt><trkpt lat="42.17507104320301" lon="11.929541739868679"><ele>407.5</ele><time>2026-04-19T08:36:20.844Z</time></trkpt><trkpt lat="42.175146669483404" lon="11.929576138548555"><ele>407.0</ele><time>2026-04-19T08:36:22.844Z</time></trkpt><trkpt lat="42.1752178929406" lon="11.929626916830786"><ele>406.5</ele><time>2026-04-19T08:36:25.844Z</time></trkpt><trkpt lat="42.175303644936605" lon="11.929653188544297"><ele>406.0</ele><time>2026-04-19T08:36:28.844Z</time></trkpt><trkpt lat="42.175389212309426" lon="11.929597121357322"><ele>405.5</ele><time>2026-04-19T08:36:30.844Z</time></trkpt><trkpt lat="42.175450705717594" lon="11.929489321093232"><ele>405.0</ele><time>2026-04-19T08:36:33.844Z</time></trkpt><trkpt lat="42.17549000452053" lon="11.929415424571983"><ele>405.0</ele><time>2026-04-19T08:36:36.844Z</time></trkpt><trkpt lat="42.175525907038796" lon="11.929278642355907"><ele>405.0</ele><time>2026-04-19T08:36:39.844Z</time></trkpt><trkpt lat="42.175555995276504" lon="11.929184381571364"><ele>405.0</ele><time>2026-04-19T08:36:40.844Z</time></trkpt><trkpt lat="42.17560758774034" lon="11.929113403096038"><ele>405.0</ele><time>2026-04-19T08:36:42.844Z</time></trkpt><trkpt lat="42.17567157752406" lon="11.929060956856382"><ele>405.0</ele><time>2026-04-19T08:36:45.844Z</time></trkpt><trkpt lat="42.175748986285356" lon="11.92900187128888"><ele>405.0</ele><time>2026-04-19T08:36:48.844Z</time></trkpt><trkpt lat="42.17580911890078" lon="11.928946916647629"><ele>402.6666666666667</ele><time>2026-04-19T08:36:52.844Z</time></trkpt><trkpt lat="42.17586842158537" lon="11.928863547987548"><ele>400.33333333333337</ele><time>2026-04-19T08:37:18.843Z</time></trkpt><trkpt lat="42.17592036376711" lon="11.928815180082328"><ele>398.0</ele><time>2026-04-19T08:38:12.843Z</time></trkpt><trkpt lat="42.175976912885965" lon="11.928751294839568"><ele>395.6666666666667</ele><time>2026-04-19T08:38:14.843Z</time></trkpt><trkpt lat="42.176046391034944" lon="11.928659874886607"><ele>393.33333333333337</ele><time>2026-04-19T08:38:16.839Z</time></trkpt><trkpt lat="42.17611691902079" lon="11.928681632071665"><ele>391.0</ele><time>2026-04-19T08:38:19.839Z</time></trkpt><trkpt lat="42.17621093827513" lon="11.928690546862644"><ele>391.00000000000006</ele><time>2026-04-19T08:38:22.839Z</time></trkpt><trkpt lat="42.17630724566398" lon="11.92875721437401"><ele>391.0</ele><time>2026-04-19T08:38:25.839Z</time></trkpt><trkpt lat="42.17639304239497" lon="11.92881145711962"><ele>391.0</ele><time>2026-04-19T08:38:27.839Z</time></trkpt><trkpt lat="42.17645440203609" lon="11.92875374094375"><ele>391.0</ele><time>2026-04-19T08:38:29.839Z</time></trkpt><trkpt lat="42.17652244774096" lon="11.928685902185974"><ele>391.00000000000006</ele><time>2026-04-19T08:38:31.839Z</time></trkpt><trkpt lat="42.17659243817397" lon="11.928647373256934"><ele>391.0</ele><time>2026-04-19T08:38:34.839Z</time></trkpt><trkpt lat="42.17669033608641" lon="11.928612810987397"><ele>391.0</ele><time>2026-04-19T08:38:36.839Z</time></trkpt><trkpt lat="42.17677042174913" lon="11.928568960161313"><ele>391.0</ele><time>2026-04-19T08:38:38.839Z</time></trkpt><trkpt lat="42.17686746232891" lon="11.92852259422302"><ele>391.0</ele><time>2026-04-19T08:38:41.839Z</time></trkpt><trkpt lat="42.17695591641302" lon="11.92850783985313"><ele>391.0</ele><time>2026-04-19T08:38:43.839Z</time></trkpt><trkpt lat="42.177041877422816" lon="11.928422535630936"><ele>391.0</ele><time>2026-04-19T08:38:45.838Z</time></trkpt><trkpt lat="42.17709713977573" lon="11.928346463194408"><ele>391.0</ele><time>2026-04-19T08:38:46.838Z</time></trkpt><trkpt lat="42.17714025936314" lon="11.928266408308572"><ele>391.0</ele><time>2026-04-19T08:38:47.838Z</time></trkpt><trkpt lat="42.17721919889484" lon="11.928158425824542"><ele>391.0</ele><time>2026-04-19T08:38:49.838Z</time></trkpt><trkpt lat="42.177271217320914" lon="11.92808859971574"><ele>391.0</ele><time>2026-04-19T08:38:50.838Z</time></trkpt><trkpt lat="42.17733984813282" lon="11.927983100159386"><ele>391.0</ele><time>2026-04-19T08:38:52.838Z</time></trkpt><trkpt lat="42.1774209169703" lon="11.927882637457119"><ele>392.0</ele><time>2026-04-19T08:38:54.838Z</time></trkpt><trkpt lat="42.17749397463252" lon="11.927818718918838"><ele>393.0</ele><time>2026-04-19T08:38:56.838Z</time></trkpt><trkpt lat="42.177592490949394" lon="11.927723054893342"><ele>394.0</ele><time>2026-04-19T08:38:58.838Z</time></trkpt><trkpt lat="42.17765248320545" lon="11.927670612682473"><ele>395.0</ele><time>2026-04-19T08:38:59.838Z</time></trkpt><trkpt lat="42.177747646697064" lon="11.927583834710958"><ele>396.0</ele><time>2026-04-19T08:39:01.838Z</time></trkpt><trkpt lat="42.17782914455133" lon="11.92754786609394"><ele>396.0</ele><time>2026-04-19T08:39:03.838Z</time></trkpt><trkpt lat="42.17791542608218" lon="11.927546531116175"><ele>396.0</ele><time>2026-04-19T08:39:06.838Z</time></trkpt><trkpt lat="42.17801101054294" lon="11.92755783099357"><ele>396.0</ele><time>2026-04-19T08:39:09.838Z</time></trkpt><trkpt lat="42.178084465493214" lon="11.927627127428801"><ele>396.0</ele><time>2026-04-19T08:39:11.838Z</time></trkpt><trkpt lat="42.178140809042375" lon="11.9277039797204"><ele>396.0</ele><time>2026-04-19T08:39:13.838Z</time></trkpt><trkpt lat="42.1781858273062" lon="11.927812057497762"><ele>396.0</ele><time>2026-04-19T08:39:15.838Z</time></trkpt><trkpt lat="42.178244524504734" lon="11.92791330484334"><ele>398.1666666666667</ele><time>2026-04-19T08:39:17.838Z</time></trkpt><trkpt lat="42.17831147401503" lon="11.92798179189465"><ele>400.33333333333337</ele><time>2026-04-19T08:39:19.838Z</time></trkpt><trkpt lat="42.178396921294045" lon="11.928046869481934"><ele>402.5</ele><time>2026-04-19T08:39:22.838Z</time></trkpt><trkpt lat="42.178431482440956" lon="11.92814183977374"><ele>404.6666666666667</ele><time>2026-04-19T08:39:24.838Z</time></trkpt><trkpt lat="42.17847109916193" lon="11.92825573509212"><ele>406.83333333333337</ele><time>2026-04-19T08:39:26.838Z</time></trkpt><trkpt lat="42.17854350796689" lon="11.928295739915914"><ele>409.0</ele><time>2026-04-19T08:39:29.838Z</time></trkpt><trkpt lat="42.17862263646609" lon="11.928236957476942"><ele>409.0</ele><time>2026-04-19T08:39:33.838Z</time></trkpt><trkpt lat="42.17871006687829" lon="11.928238516673582"><ele>409.0</ele><time>2026-04-19T08:39:36.838Z</time></trkpt><trkpt lat="42.17878812847731" lon="11.928298716108262"><ele>409.0</ele><time>2026-04-19T08:39:39.838Z</time></trkpt><trkpt lat="42.17891381034884" lon="11.928361945296581"><ele>409.0</ele><time>2026-04-19T08:39:41.838Z</time></trkpt><trkpt lat="42.17898453435932" lon="11.92841233200491"><ele>409.0</ele><time>2026-04-19T08:39:42.838Z</time></trkpt><trkpt lat="42.17905133528832" lon="11.928458846011932"><ele>410.00000000000006</ele><time>2026-04-19T08:39:43.838Z</time></trkpt><trkpt lat="42.17912527218712" lon="11.92849291280716"><ele>411.0</ele><time>2026-04-19T08:39:45.838Z</time></trkpt><trkpt lat="42.17919013639735" lon="11.928509619183862"><ele>412.0</ele><time>2026-04-19T08:39:47.838Z</time></trkpt><trkpt lat="42.179262202840604" lon="11.928580278515327"><ele>413.0</ele><time>2026-04-19T08:39:50.838Z</time></trkpt><trkpt lat="42.179288570789645" lon="11.928696173931739"><ele>414.00000000000006</ele><time>2026-04-19T08:39:53.838Z</time></trkpt><trkpt lat="42.17934488891985" lon="11.928770663342748"><ele>415.0</ele><time>2026-04-19T08:40:28.834Z</time></trkpt><trkpt lat="42.179361948073556" lon="11.928871292166995"><ele>415.0</ele><time>2026-04-19T08:40:29.834Z</time></trkpt><trkpt lat="42.17937242019363" lon="11.928990033209248"><ele>415.0</ele><time>2026-04-19T08:40:30.833Z</time></trkpt><trkpt lat="42.179419431347085" lon="11.929131932488968"><ele>415.0</ele><time>2026-04-19T08:40:31.833Z</time></trkpt><trkpt lat="42.17946581735846" lon="11.929220383323681"><ele>415.0</ele><time>2026-04-19T08:40:32.833Z</time></trkpt><trkpt lat="42.17948401359081" lon="11.929330954133855"><ele>415.0</ele><time>2026-04-19T08:40:33.833Z</time></trkpt><trkpt lat="42.17946763552517" lon="11.929517411824651"><ele>415.2</ele><time>2026-04-19T08:40:35.833Z</time></trkpt><trkpt lat="42.179435487189295" lon="11.92960763950788"><ele>415.4</ele><time>2026-04-19T08:40:36.833Z</time></trkpt><trkpt lat="42.179398143420606" lon="11.929720487768813"><ele>415.6</ele><time>2026-04-19T08:40:37.833Z</time></trkpt><trkpt lat="42.17936245298503" lon="11.929845239992826"><ele>415.8</ele><time>2026-04-19T08:40:38.833Z</time></trkpt><trkpt lat="42.17934240331178" lon="11.929966813053348"><ele>416.0</ele><time>2026-04-19T08:40:39.833Z</time></trkpt><trkpt lat="42.17931930591318" lon="11.930100559540405"><ele>416.4</ele><time>2026-04-19T08:40:40.833Z</time></trkpt><trkpt lat="42.17929648621254" lon="11.930235192683911"><ele>416.8</ele><time>2026-04-19T08:40:41.833Z</time></trkpt><trkpt lat="42.17926449824117" lon="11.930368040229771"><ele>417.2</ele><time>2026-04-19T08:40:42.833Z</time></trkpt><trkpt lat="42.17923858284529" lon="11.9304617985559"><ele>417.59999999999997</ele><time>2026-04-19T08:40:43.833Z</time></trkpt><trkpt lat="42.17919522603753" lon="11.930562842330898"><ele>418.0</ele><time>2026-04-19T08:40:44.833Z</time></trkpt><trkpt lat="42.17912549822634" lon="11.930678378985641"><ele>418.0</ele><time>2026-04-19T08:40:45.833Z</time></trkpt><trkpt lat="42.17902505315202" lon="11.930787175779752"><ele>418.0</ele><time>2026-04-19T08:40:46.833Z</time></trkpt><trkpt lat="42.17892809560324" lon="11.930870101852447"><ele>418.0</ele><time>2026-04-19T08:40:47.833Z</time></trkpt><trkpt lat="42.17885490906568" lon="11.93093888146417"><ele>418.0</ele><time>2026-04-19T08:40:48.833Z</time></trkpt><trkpt lat="42.17881458095324" lon="11.931009879914546"><ele>418.0</ele><time>2026-04-19T08:40:49.833Z</time></trkpt><trkpt lat="42.17879499698108" lon="11.931114721254495"><ele>417.79999999999995</ele><time>2026-04-19T08:40:50.833Z</time></trkpt><trkpt lat="42.178739025417485" lon="11.931180182377219"><ele>417.6</ele><time>2026-04-19T08:40:51.833Z</time></trkpt><trkpt lat="42.178712281591984" lon="11.931260759874956"><ele>417.4</ele><time>2026-04-19T08:40:53.833Z</time></trkpt><trkpt lat="42.178801522395666" lon="11.931296143688902"><ele>417.20000000000005</ele><time>2026-04-19T08:40:54.833Z</time></trkpt><trkpt lat="42.1787330602406" lon="11.931392499025828"><ele>417.0</ele><time>2026-04-19T08:41:02.833Z</time></trkpt><trkpt lat="42.17867064509435" lon="11.931557741565301"><ele>417.0</ele><time>2026-04-19T08:41:04.833Z</time></trkpt><trkpt lat="42.17863541206509" lon="11.931644113872807"><ele>417.0</ele><time>2026-04-19T08:41:05.833Z</time></trkpt><trkpt lat="42.17855464885699" lon="11.931682094867025"><ele>417.0</ele><time>2026-04-19T08:41:06.833Z</time></trkpt><trkpt lat="42.17850005974376" lon="11.931759637871481"><ele>417.0</ele><time>2026-04-19T08:41:08.833Z</time></trkpt><trkpt lat="42.178404282940704" lon="11.931846397716532"><ele>417.0</ele><time>2026-04-19T08:41:10.833Z</time></trkpt><trkpt lat="42.178324776613884" lon="11.931896787482454"><ele>417.0</ele><time>2026-04-19T08:41:11.833Z</time></trkpt><trkpt lat="42.17824669342021" lon="11.931996127512294"><ele>416.20000000000005</ele><time>2026-04-19T08:41:12.833Z</time></trkpt><trkpt lat="42.17817952266733" lon="11.932129797243336"><ele>415.4</ele><time>2026-04-19T08:41:13.833Z</time></trkpt><trkpt lat="42.178115558723725" lon="11.932237288554376"><ele>414.6</ele><time>2026-04-19T08:41:14.833Z</time></trkpt><trkpt lat="42.178045508942674" lon="11.932312831050501"><ele>413.79999999999995</ele><time>2026-04-19T08:41:15.833Z</time></trkpt><trkpt lat="42.17797725348211" lon="11.932385747804984"><ele>413.0</ele><time>2026-04-19T08:41:16.833Z</time></trkpt><trkpt lat="42.17791107475411" lon="11.932458587152036"><ele>413.0</ele><time>2026-04-19T08:41:17.833Z</time></trkpt><trkpt lat="42.17783167716207" lon="11.932559635022935"><ele>413.0</ele><time>2026-04-19T08:41:18.833Z</time></trkpt><trkpt lat="42.177765258011746" lon="11.932686615004032"><ele>413.0</ele><time>2026-04-19T08:41:19.833Z</time></trkpt><trkpt lat="42.17769314258576" lon="11.932797202379401"><ele>413.0</ele><time>2026-04-19T08:41:20.833Z</time></trkpt><trkpt lat="42.17762223327409" lon="11.932893280068779"><ele>413.0</ele><time>2026-04-19T08:41:21.833Z</time></trkpt><trkpt lat="42.177554149707255" lon="11.932974889131486"><ele>413.0</ele><time>2026-04-19T08:41:22.833Z</time></trkpt><trkpt lat="42.17749828309922" lon="11.933071842202535"><ele>413.0</ele><time>2026-04-19T08:41:23.833Z</time></trkpt><trkpt lat="42.177441127188864" lon="11.933167381882773"><ele>413.0</ele><time>2026-04-19T08:41:24.833Z</time></trkpt><trkpt lat="42.177373533147446" lon="11.933265914684267"><ele>413.0</ele><time>2026-04-19T08:41:25.833Z</time></trkpt><trkpt lat="42.17730213097064" lon="11.933372927412098"><ele>413.0</ele><time>2026-04-19T08:41:26.833Z</time></trkpt><trkpt lat="42.17732000152596" lon="11.93352784173961"><ele>413.8333333333333</ele><time>2026-04-19T08:41:27.833Z</time></trkpt><trkpt lat="42.17726510105773" lon="11.933611560749576"><ele>414.66666666666663</ele><time>2026-04-19T08:41:28.833Z</time></trkpt><trkpt lat="42.17728216904865" lon="11.933723899383093"><ele>415.5</ele><time>2026-04-19T08:41:29.833Z</time></trkpt><trkpt lat="42.17727187394434" lon="11.933823605605978"><ele>416.33333333333337</ele><time>2026-04-19T08:41:30.833Z</time></trkpt><trkpt lat="42.17729993643482" lon="11.933928560681803"><ele>417.1666666666667</ele><time>2026-04-19T08:41:31.833Z</time></trkpt><trkpt lat="42.17735897431739" lon="11.934047613845397"><ele>418.0</ele><time>2026-04-19T08:41:33.833Z</time></trkpt><trkpt lat="42.177390515509515" lon="11.934142693976035"><ele>415.6666666666667</ele><time>2026-04-19T08:41:35.833Z</time></trkpt><trkpt lat="42.177419864147254" lon="11.934232015609965"><ele>413.33333333333337</ele><time>2026-04-19T08:41:37.833Z</time></trkpt><trkpt lat="42.177429607728065" lon="11.934318345139818"><ele>411.0</ele><time>2026-04-19T08:41:38.833Z</time></trkpt><trkpt lat="42.17746853992032" lon="11.934467484714068"><ele>408.66666666666663</ele><time>2026-04-19T08:41:40.833Z</time></trkpt><trkpt lat="42.17750941275346" lon="11.934563766467496"><ele>406.3333333333333</ele><time>2026-04-19T08:41:41.833Z</time></trkpt><trkpt lat="42.177549895215925" lon="11.934649609524799"><ele>404.0</ele><time>2026-04-19T08:41:42.833Z</time></trkpt><trkpt lat="42.177608041157896" lon="11.93472117915603"><ele>403.99999999999994</ele><time>2026-04-19T08:41:43.833Z</time></trkpt><trkpt lat="42.17768969907933" lon="11.934783391078092"><ele>404.0</ele><time>2026-04-19T08:41:45.833Z</time></trkpt><trkpt lat="42.1777536232146" lon="11.934815281359597"><ele>404.0</ele><time>2026-04-19T08:41:46.833Z</time></trkpt><trkpt lat="42.1778401287111" lon="11.934892879587697"><ele>404.0</ele><time>2026-04-19T08:41:48.833Z</time></trkpt><trkpt lat="42.17785686491674" lon="11.935011657539356"><ele>403.99999999999994</ele><time>2026-04-19T08:41:50.833Z</time></trkpt><trkpt lat="42.17788059233996" lon="11.935107685158346"><ele>404.0</ele><time>2026-04-19T08:41:51.833Z</time></trkpt><trkpt lat="42.1779230149992" lon="11.935246036256006"><ele>402.8333333333333</ele><time>2026-04-19T08:41:52.833Z</time></trkpt><trkpt lat="42.17796689653248" lon="11.935358100715568"><ele>401.66666666666663</ele><time>2026-04-19T08:41:53.832Z</time></trkpt><trkpt lat="42.17801580874694" lon="11.935450977530273"><ele>400.5</ele><time>2026-04-19T08:41:54.832Z</time></trkpt><trkpt lat="42.17804651751841" lon="11.935539134002946"><ele>399.33333333333337</ele><time>2026-04-19T08:41:55.832Z</time></trkpt><trkpt lat="42.17805947040645" lon="11.935637566741624"><ele>398.1666666666667</ele><time>2026-04-19T08:41:56.832Z</time></trkpt><trkpt lat="42.17809489558154" lon="11.935716506391493"><ele>397.0</ele><time>2026-04-19T08:41:57.832Z</time></trkpt><trkpt lat="42.178132735941126" lon="11.935811253343749"><ele>397.0</ele><time>2026-04-19T08:41:58.832Z</time></trkpt><trkpt lat="42.17815655448532" lon="11.93599320260327"><ele>397.0</ele><time>2026-04-19T08:42:00.832Z</time></trkpt><trkpt lat="42.17814892746539" lon="11.936084571684395"><ele>397.0</ele><time>2026-04-19T08:42:01.832Z</time></trkpt><trkpt lat="42.17814309303075" lon="11.936206751959908"><ele>397.0</ele><time>2026-04-19T08:42:03.832Z</time></trkpt><trkpt lat="42.178147841876594" lon="11.936303638854717"><ele>397.0</ele><time>2026-04-19T08:42:05.832Z</time></trkpt><trkpt lat="42.17812978385268" lon="11.936421824299627"><ele>397.00000000000006</ele><time>2026-04-19T08:42:07.832Z</time></trkpt><trkpt lat="42.17810346168954" lon="11.936518557802124"><ele>397.0</ele><time>2026-04-19T08:42:08.832Z</time></trkpt><trkpt lat="42.17808394885933" lon="11.936622810474345"><ele>397.0</ele><time>2026-04-19T08:42:09.832Z</time></trkpt><trkpt lat="42.17807002924129" lon="11.936719816688147"><ele>397.0</ele><time>2026-04-19T08:42:10.832Z</time></trkpt><trkpt lat="42.178105568036145" lon="11.936790082531974"><ele>397.00000000000006</ele><time>2026-04-19T08:42:11.832Z</time></trkpt><trkpt lat="42.17816728208751" lon="11.936900993112783"><ele>397.0</ele><time>2026-04-19T08:42:13.832Z</time></trkpt><trkpt lat="42.17815061673279" lon="11.93699544254822"><ele>399.20000000000005</ele><time>2026-04-19T08:42:15.832Z</time></trkpt><trkpt lat="42.178091547812436" lon="11.937151334818164"><ele>401.4</ele><time>2026-04-19T08:42:17.832Z</time></trkpt><trkpt lat="42.1780267449795" lon="11.937250564877072"><ele>403.6</ele><time>2026-04-19T08:42:18.832Z</time></trkpt><trkpt lat="42.177943599016885" lon="11.93733979078258"><ele>405.79999999999995</ele><time>2026-04-19T08:42:19.832Z</time></trkpt><trkpt lat="42.177879333907384" lon="11.937438180399484"><ele>408.0</ele><time>2026-04-19T08:42:20.832Z</time></trkpt><trkpt lat="42.17782258180779" lon="11.937539149894274"><ele>408.6666666666667</ele><time>2026-04-19T08:42:21.832Z</time></trkpt><trkpt lat="42.17778488382655" lon="11.937622934628097"><ele>409.33333333333337</ele><time>2026-04-19T08:42:22.832Z</time></trkpt><trkpt lat="42.17775570987635" lon="11.93772586809376"><ele>410.0</ele><time>2026-04-19T08:42:23.832Z</time></trkpt><trkpt lat="42.17773119998602" lon="11.93783351214"><ele>410.6666666666667</ele><time>2026-04-19T08:42:24.832Z</time></trkpt><trkpt lat="42.17771382108817" lon="11.93794571500544"><ele>411.33333333333337</ele><time>2026-04-19T08:42:25.832Z</time></trkpt><trkpt lat="42.17770250924229" lon="11.938062343400194"><ele>412.0</ele><time>2026-04-19T08:42:26.832Z</time></trkpt><trkpt lat="42.17770321103282" lon="11.938170617247524"><ele>412.00000000000006</ele><time>2026-04-19T08:42:27.829Z</time></trkpt><trkpt lat="42.1777089118388" lon="11.938281318185753"><ele>412.0</ele><time>2026-04-19T08:42:28.828Z</time></trkpt><trkpt lat="42.17770291218844" lon="11.938410865090749"><ele>412.0</ele><time>2026-04-19T08:42:29.828Z</time></trkpt><trkpt lat="42.17768630102572" lon="11.938526881740204"><ele>412.0</ele><time>2026-04-19T08:42:30.828Z</time></trkpt><trkpt lat="42.17768949417876" lon="11.938638048395575"><ele>412.00000000000006</ele><time>2026-04-19T08:42:31.828Z</time></trkpt><trkpt lat="42.17771264369771" lon="11.938747600908398"><ele>412.0</ele><time>2026-04-19T08:42:32.828Z</time></trkpt><trkpt lat="42.17772821922252" lon="11.938893299348438"><ele>411.6</ele><time>2026-04-19T08:42:33.829Z</time></trkpt><trkpt lat="42.17774112373198" lon="11.939038814318607"><ele>411.20000000000005</ele><time>2026-04-19T08:42:34.829Z</time></trkpt><trkpt lat="42.17773125387027" lon="11.939177033665358"><ele>410.8</ele><time>2026-04-19T08:42:35.829Z</time></trkpt><trkpt lat="42.177696038714565" lon="11.93931169120921"><ele>410.4</ele><time>2026-04-19T08:42:36.828Z</time></trkpt><trkpt lat="42.177665000255956" lon="11.939431196638088"><ele>410.0</ele><time>2026-04-19T08:42:37.828Z</time></trkpt><trkpt lat="42.17760250829058" lon="11.939515620888708"><ele>409.8333333333333</ele><time>2026-04-19T08:42:39.828Z</time></trkpt><trkpt lat="42.17754781214453" lon="11.93956497206114"><ele>409.66666666666663</ele><time>2026-04-19T08:42:40.828Z</time></trkpt><trkpt lat="42.17748819408007" lon="11.939629857596543"><ele>409.5</ele><time>2026-04-19T08:42:41.828Z</time></trkpt><trkpt lat="42.1774197742216" lon="11.939733104542908"><ele>409.33333333333337</ele><time>2026-04-19T08:42:42.828Z</time></trkpt><trkpt lat="42.177362263184804" lon="11.939823334542638"><ele>409.1666666666667</ele><time>2026-04-19T08:42:43.828Z</time></trkpt><trkpt lat="42.17731364616121" lon="11.93990877856216"><ele>409.0</ele><time>2026-04-19T08:42:44.828Z</time></trkpt><trkpt lat="42.17728939677197" lon="11.940007096557945"><ele>408.4</ele><time>2026-04-19T08:42:45.828Z</time></trkpt><trkpt lat="42.17726727693959" lon="11.940126044870627"><ele>407.79999999999995</ele><time>2026-04-19T08:42:46.828Z</time></trkpt><trkpt lat="42.17721969999351" lon="11.940239937408576"><ele>407.20000000000005</ele><time>2026-04-19T08:42:47.828Z</time></trkpt><trkpt lat="42.177154160609426" lon="11.940366213669108"><ele>406.6</ele><time>2026-04-19T08:42:48.828Z</time></trkpt><trkpt lat="42.17709796832497" lon="11.940481402957227"><ele>406.0</ele><time>2026-04-19T08:42:49.828Z</time></trkpt><trkpt lat="42.177054875799804" lon="11.940588620388652"><ele>406.00000000000006</ele><time>2026-04-19T08:42:50.828Z</time></trkpt><trkpt lat="42.17701829690776" lon="11.940667997013907"><ele>406.0</ele><time>2026-04-19T08:42:51.828Z</time></trkpt><trkpt lat="42.17697991490626" lon="11.940748218561282"><ele>406.0</ele><time>2026-04-19T08:42:52.828Z</time></trkpt><trkpt lat="42.17692433905291" lon="11.940904386315559"><ele>406.0</ele><time>2026-04-19T08:42:54.828Z</time></trkpt><trkpt lat="42.176929821184345" lon="11.941008471011312"><ele>406.00000000000006</ele><time>2026-04-19T08:42:55.828Z</time></trkpt><trkpt lat="42.17693004318157" lon="11.941127415129598"><ele>406.0</ele><time>2026-04-19T08:42:56.828Z</time></trkpt><trkpt lat="42.176934839393674" lon="11.941268460993994"><ele>405.8</ele><time>2026-04-19T08:42:57.828Z</time></trkpt><trkpt lat="42.17692470018358" lon="11.9414205086213"><ele>405.6</ele><time>2026-04-19T08:42:58.828Z</time></trkpt><trkpt lat="42.1769160522047" lon="11.941547398567115"><ele>405.4</ele><time>2026-04-19T08:42:59.828Z</time></trkpt><trkpt lat="42.17689924792725" lon="11.941675553783302"><ele>405.2</ele><time>2026-04-19T08:43:00.828Z</time></trkpt><trkpt lat="42.17688654074088" lon="11.94179035577839"><ele>405.0</ele><time>2026-04-19T08:43:01.828Z</time></trkpt><trkpt lat="42.176867275992315" lon="11.941883839667218"><ele>404.4</ele><time>2026-04-19T08:43:02.828Z</time></trkpt><trkpt lat="42.176794433042936" lon="11.941971659509086"><ele>403.8</ele><time>2026-04-19T08:43:04.828Z</time></trkpt><trkpt lat="42.176642480049104" lon="11.941990066858818"><ele>403.20000000000005</ele><time>2026-04-19T08:43:06.828Z</time></trkpt><trkpt lat="42.1765474550167" lon="11.94201164223363"><ele>402.6</ele><time>2026-04-19T08:43:07.828Z</time></trkpt><trkpt lat="42.176448628037775" lon="11.942045785486266"><ele>402.0</ele><time>2026-04-19T08:43:08.828Z</time></trkpt><trkpt lat="42.17635081611616" lon="11.942097547401763"><ele>402.0</ele><time>2026-04-19T08:43:09.828Z</time></trkpt><trkpt lat="42.17624466987138" lon="11.942185493018412"><ele>402.0</ele><time>2026-04-19T08:43:10.828Z</time></trkpt><trkpt lat="42.176127000071666" lon="11.942300916154338"><ele>402.0</ele><time>2026-04-19T08:43:11.828Z</time></trkpt><trkpt lat="42.17602828654345" lon="11.94241673121782"><ele>402.0</ele><time>2026-04-19T08:43:12.828Z</time></trkpt><trkpt lat="42.175947544482625" lon="11.942525424067965"><ele>402.0</ele><time>2026-04-19T08:43:13.828Z</time></trkpt><trkpt lat="42.17587682960986" lon="11.94264262084995"><ele>402.0</ele><time>2026-04-19T08:43:14.828Z</time></trkpt><trkpt lat="42.17583303863904" lon="11.942790522802962"><ele>402.0</ele><time>2026-04-19T08:43:15.828Z</time></trkpt><trkpt lat="42.17580213607362" lon="11.942965433668174"><ele>402.0</ele><time>2026-04-19T08:43:16.828Z</time></trkpt><trkpt lat="42.1757936154728" lon="11.943141582307343"><ele>402.0</ele><time>2026-04-19T08:43:17.828Z</time></trkpt><trkpt lat="42.175797372714136" lon="11.943334009295876"><ele>402.0</ele><time>2026-04-19T08:43:18.828Z</time></trkpt><trkpt lat="42.175826700257026" lon="11.943515542611859"><ele>402.0</ele><time>2026-04-19T08:43:19.828Z</time></trkpt><trkpt lat="42.17587479989822" lon="11.943692656778916"><ele>402.0</ele><time>2026-04-19T08:43:20.828Z</time></trkpt><trkpt lat="42.17593609273793" lon="11.943851762407455"><ele>401.0</ele><time>2026-04-19T08:43:21.828Z</time></trkpt><trkpt lat="42.17601039481948" lon="11.94400922814558"><ele>400.0</ele><time>2026-04-19T08:43:22.828Z</time></trkpt><trkpt lat="42.17607081284102" lon="11.944145987828644"><ele>399.0</ele><time>2026-04-19T08:43:23.828Z</time></trkpt><trkpt lat="42.17612351828054" lon="11.944263790642482"><ele>398.0</ele><time>2026-04-19T08:43:24.828Z</time></trkpt><trkpt lat="42.17615428156584" lon="11.94438259534621"><ele>397.16666666666663</ele><time>2026-04-19T08:43:25.828Z</time></trkpt><trkpt lat="42.17618343175246" lon="11.944495656279313"><ele>396.3333333333333</ele><time>2026-04-19T08:43:26.828Z</time></trkpt><trkpt lat="42.1761989047503" lon="11.944601722444958"><ele>395.5</ele><time>2026-04-19T08:43:27.828Z</time></trkpt><trkpt lat="42.17616684587425" lon="11.94470060538849"><ele>394.66666666666663</ele><time>2026-04-19T08:43:28.828Z</time></trkpt><trkpt lat="42.17613521187092" lon="11.944794274262204"><ele>393.8333333333333</ele><time>2026-04-19T08:43:29.828Z</time></trkpt><trkpt lat="42.17608402787874" lon="11.944886685926408"><ele>393.0</ele><time>2026-04-19T08:43:30.828Z</time></trkpt><trkpt lat="42.17600920675354" lon="11.944993760765618"><ele>391.79999999999995</ele><time>2026-04-19T08:43:31.828Z</time></trkpt><trkpt lat="42.17594126235195" lon="11.945112729756607"><ele>390.6</ele><time>2026-04-19T08:43:32.828Z</time></trkpt><trkpt lat="42.1758736508016" lon="11.945188411410381"><ele>389.4</ele><time>2026-04-19T08:43:33.828Z</time></trkpt><trkpt lat="42.17581385422655" lon="11.945290484621623"><ele>388.20000000000005</ele><time>2026-04-19T08:43:34.828Z</time></trkpt><trkpt lat="42.17574951104667" lon="11.945363240610886"><ele>387.0</ele><time>2026-04-19T08:43:35.828Z</time></trkpt><trkpt lat="42.175694145799454" lon="11.945436086027708"><ele>384.3333333333333</ele><time>2026-04-19T08:43:36.828Z</time></trkpt><trkpt lat="42.175615150781105" lon="11.945496255520489"><ele>381.6666666666667</ele><time>2026-04-19T08:43:37.828Z</time></trkpt><trkpt lat="42.175557099626644" lon="11.94558494261694"><ele>379.0</ele><time>2026-04-19T08:43:38.828Z</time></trkpt><trkpt lat="42.175476675323885" lon="11.945613975980407"><ele>376.33333333333337</ele><time>2026-04-19T08:43:39.828Z</time></trkpt><trkpt lat="42.1754134023516" lon="11.945653623083759"><ele>373.6666666666667</ele><time>2026-04-19T08:43:40.828Z</time></trkpt><trkpt lat="42.17536888940094" lon="11.945716759715763"><ele>371.0</ele><time>2026-04-19T08:43:41.828Z</time></trkpt><trkpt lat="42.1753183640621" lon="11.945822384404545"><ele>371.6666666666667</ele><time>2026-04-19T08:43:42.828Z</time></trkpt><trkpt lat="42.17528016468928" lon="11.945936753650296"><ele>372.33333333333337</ele><time>2026-04-19T08:43:43.828Z</time></trkpt><trkpt lat="42.175236910196055" lon="11.946050215578458"><ele>373.0</ele><time>2026-04-19T08:43:44.828Z</time></trkpt><trkpt lat="42.175179801133275" lon="11.946156294871745"><ele>373.6666666666667</ele><time>2026-04-19T08:43:45.828Z</time></trkpt><trkpt lat="42.17513446111311" lon="11.946242156005557"><ele>374.3333333333333</ele><time>2026-04-19T08:43:46.828Z</time></trkpt><trkpt lat="42.17509453618817" lon="11.946313471648905"><ele>375.0</ele><time>2026-04-19T08:43:47.828Z</time></trkpt><trkpt lat="42.17504101966715" lon="11.946379991322338"><ele>375.0</ele><time>2026-04-19T08:43:48.828Z</time></trkpt><trkpt lat="42.174951516569514" lon="11.946356441467307"><ele>375.0</ele><time>2026-04-19T08:43:50.828Z</time></trkpt><trkpt lat="42.17487961659842" lon="11.94621513370354"><ele>375.0</ele><time>2026-04-19T08:43:52.828Z</time></trkpt><trkpt lat="42.17484838475961" lon="11.946118256759526"><ele>375.0</ele><time>2026-04-19T08:43:53.828Z</time></trkpt><trkpt lat="42.17479524517293" lon="11.945992599543738"><ele>375.0</ele><time>2026-04-19T08:43:54.828Z</time></trkpt><trkpt lat="42.17475568422921" lon="11.945913186175241"><ele>371.0</ele><time>2026-04-19T08:43:55.828Z</time></trkpt><trkpt lat="42.1747043068174" lon="11.945848376415329"><ele>367.0</ele><time>2026-04-19T08:43:56.828Z</time></trkpt><trkpt lat="42.174604533298734" lon="11.945784997407491"><ele>363.0</ele><time>2026-04-19T08:43:57.828Z</time></trkpt><trkpt lat="42.1745046164133" lon="11.945720411813193"><ele>359.0</ele><time>2026-04-19T08:43:58.828Z</time></trkpt><trkpt lat="42.174399756012804" lon="11.94565479225622"><ele>355.0</ele><time>2026-04-19T08:43:59.828Z</time></trkpt><trkpt lat="42.17428689040853" lon="11.945588748061262"><ele>355.0</ele><time>2026-04-19T08:44:00.828Z</time></trkpt><trkpt lat="42.17416838061706" lon="11.945535787586147"><ele>355.0</ele><time>2026-04-19T08:44:01.828Z</time></trkpt><trkpt lat="42.174045303446455" lon="11.945503386245514"><ele>355.0</ele><time>2026-04-19T08:44:02.828Z</time></trkpt><trkpt lat="42.17392419964343" lon="11.945453697702563"><ele>355.0</ele><time>2026-04-19T08:44:03.828Z</time></trkpt><trkpt lat="42.17380259199676" lon="11.945404094394311"><ele>350.0</ele><time>2026-04-19T08:44:04.828Z</time></trkpt><trkpt lat="42.17367017486137" lon="11.945354777548442"><ele>345.0</ele><time>2026-04-19T08:44:05.827Z</time></trkpt><trkpt lat="42.173550666973455" lon="11.945282454926812"><ele>340.0</ele><time>2026-04-19T08:44:06.827Z</time></trkpt><trkpt lat="42.173439562078016" lon="11.945247568014684"><ele>335.0</ele><time>2026-04-19T08:44:07.827Z</time></trkpt><trkpt lat="42.17332806105458" lon="11.945232384485891"><ele>335.0</ele><time>2026-04-19T08:44:08.827Z</time></trkpt><trkpt lat="42.17322068105117" lon="11.94518921526615"><ele>335.0</ele><time>2026-04-19T08:44:09.827Z</time></trkpt><trkpt lat="42.173133103910416" lon="11.945140765021167"><ele>335.0</ele><time>2026-04-19T08:44:10.827Z</time></trkpt><trkpt lat="42.17307793596253" lon="11.945061784004299"><ele>335.0</ele><time>2026-04-19T08:44:11.827Z</time></trkpt><trkpt lat="42.173025366551094" lon="11.944974049853455"><ele>335.0</ele><time>2026-04-19T08:44:12.827Z</time></trkpt><trkpt lat="42.172961368177404" lon="11.944861796594482"><ele>333.0</ele><time>2026-04-19T08:44:13.827Z</time></trkpt><trkpt lat="42.17290157859603" lon="11.944721346839835"><ele>331.0</ele><time>2026-04-19T08:44:14.827Z</time></trkpt><trkpt lat="42.17285526165461" lon="11.944593146305936"><ele>329.0</ele><time>2026-04-19T08:44:15.827Z</time></trkpt><trkpt lat="42.172809601985946" lon="11.944491931916765"><ele>327.0</ele><time>2026-04-19T08:44:16.827Z</time></trkpt><trkpt lat="42.172739207645165" lon="11.944373008928254"><ele>325.0</ele><time>2026-04-19T08:44:18.827Z</time></trkpt><trkpt lat="42.17259265125149" lon="11.944405113490351"><ele>325.0</ele><time>2026-04-19T08:44:21.827Z</time></trkpt><trkpt lat="42.17254151362273" lon="11.944577700621533"><ele>325.0</ele><time>2026-04-19T08:44:23.827Z</time></trkpt><trkpt lat="42.17257629529505" lon="11.944680232871876"><ele>325.0</ele><time>2026-04-19T08:44:24.827Z</time></trkpt><trkpt lat="42.172590839372006" lon="11.944778695468484"><ele>325.0</ele><time>2026-04-19T08:44:25.827Z</time></trkpt><trkpt lat="42.17262347364467" lon="11.94489308375859"><ele>325.0</ele><time>2026-04-19T08:44:26.827Z</time></trkpt><trkpt lat="42.172649324066136" lon="11.945001733317632"><ele>323.16666666666663</ele><time>2026-04-19T08:44:27.827Z</time></trkpt><trkpt lat="42.172650142061535" lon="11.945111520373459"><ele>321.3333333333333</ele><time>2026-04-19T08:44:28.827Z</time></trkpt><trkpt lat="42.17266605407833" lon="11.94521879679565"><ele>319.5</ele><time>2026-04-19T08:44:29.827Z</time></trkpt><trkpt lat="42.17268510678901" lon="11.945347244976386"><ele>317.6666666666667</ele><time>2026-04-19T08:44:31.827Z</time></trkpt><trkpt lat="42.17259232169212" lon="11.945308569097245"><ele>315.83333333333337</ele><time>2026-04-19T08:44:35.823Z</time></trkpt><trkpt lat="42.17254765433894" lon="11.945221639855129"><ele>314.0</ele><time>2026-04-19T08:44:36.823Z</time></trkpt><trkpt lat="42.172504484280026" lon="11.94509208893043"><ele>314.25</ele><time>2026-04-19T08:44:37.823Z</time></trkpt><trkpt lat="42.172446425389175" lon="11.94494715626532"><ele>314.5</ele><time>2026-04-19T08:44:38.823Z</time></trkpt><trkpt lat="42.17237302187642" lon="11.944785945305737"><ele>314.75</ele><time>2026-04-19T08:44:39.822Z</time></trkpt><trkpt lat="42.17229130575623" lon="11.94462952084975"><ele>315.0</ele><time>2026-04-19T08:44:40.822Z</time></trkpt><trkpt lat="42.17220444829509" lon="11.94449821451216"><ele>315.0</ele><time>2026-04-19T08:44:41.822Z</time></trkpt><trkpt lat="42.17211273708439" lon="11.944381236683892"><ele>315.0</ele><time>2026-04-19T08:44:42.823Z</time></trkpt><trkpt lat="42.17201762301103" lon="11.944264585425978"><ele>315.0</ele><time>2026-04-19T08:44:43.822Z</time></trkpt><trkpt lat="42.17191597997102" lon="11.944136081021258"><ele>315.0</ele><time>2026-04-19T08:44:44.822Z</time></trkpt><trkpt lat="42.171849907723704" lon="11.943976730510213"><ele>314.4</ele><time>2026-04-19T08:44:45.822Z</time></trkpt><trkpt lat="42.17179094402784" lon="11.943827754102331"><ele>313.8</ele><time>2026-04-19T08:44:46.823Z</time></trkpt><trkpt lat="42.171733771030176" lon="11.943707782393666"><ele>313.2</ele><time>2026-04-19T08:44:47.823Z</time></trkpt><trkpt lat="42.17164666634843" lon="11.943622250597096"><ele>312.6</ele><time>2026-04-19T08:44:48.823Z</time></trkpt><trkpt lat="42.171552211135726" lon="11.943556059547406"><ele>312.0</ele><time>2026-04-19T08:44:49.823Z</time></trkpt><trkpt lat="42.17146732423093" lon="11.943491219582231"><ele>312.8</ele><time>2026-04-19T08:44:50.823Z</time></trkpt><trkpt lat="42.17138151784628" lon="11.943410460112228"><ele>313.6</ele><time>2026-04-19T08:44:51.823Z</time></trkpt><trkpt lat="42.171293783339834" lon="11.943353745336228"><ele>314.40000000000003</ele><time>2026-04-19T08:44:52.823Z</time></trkpt><trkpt lat="42.17121239082509" lon="11.943267552395834"><ele>315.2</ele><time>2026-04-19T08:44:53.823Z</time></trkpt><trkpt lat="42.17111511525011" lon="11.943193751127536"><ele>316.0</ele><time>2026-04-19T08:44:54.823Z</time></trkpt><trkpt lat="42.17100884167163" lon="11.943077947124644"><ele>316.0</ele><time>2026-04-19T08:44:55.823Z</time></trkpt><trkpt lat="42.170910480493575" lon="11.942936766828295"><ele>316.0</ele><time>2026-04-19T08:44:56.822Z</time></trkpt><trkpt lat="42.17081480456817" lon="11.9428353614185"><ele>316.0</ele><time>2026-04-19T08:44:57.822Z</time></trkpt><trkpt lat="42.1707103427523" lon="11.942771070811592"><ele>316.0</ele><time>2026-04-19T08:44:58.822Z</time></trkpt><trkpt lat="42.1705887762155" lon="11.942693915819664"><ele>314.75</ele><time>2026-04-19T08:44:59.822Z</time></trkpt><trkpt lat="42.17044252736255" lon="11.942642040549103"><ele>313.5</ele><time>2026-04-19T08:45:00.822Z</time></trkpt><trkpt lat="42.17030673562274" lon="11.942581656355065"><ele>312.25</ele><time>2026-04-19T08:45:01.822Z</time></trkpt><trkpt lat="42.17019992883797" lon="11.942509982330446"><ele>311.0</ele><time>2026-04-19T08:45:02.822Z</time></trkpt><trkpt lat="42.17013541462451" lon="11.942427111100075"><ele>311.0</ele><time>2026-04-19T08:45:03.822Z</time></trkpt><trkpt lat="42.17006531512821" lon="11.942350257241477"><ele>311.0</ele><time>2026-04-19T08:45:04.822Z</time></trkpt><trkpt lat="42.17000612262421" lon="11.942315327539202"><ele>311.0</ele><time>2026-04-19T08:45:05.822Z</time></trkpt><trkpt lat="42.16987208866994" lon="11.942337814330058"><ele>311.0</ele><time>2026-04-19T08:45:07.822Z</time></trkpt><trkpt lat="42.16977250428659" lon="11.942282682684995"><ele>311.0</ele><time>2026-04-19T08:45:09.822Z</time></trkpt><trkpt lat="42.16974220586579" lon="11.94208515854063"><ele>312.6</ele><time>2026-04-19T08:45:11.822Z</time></trkpt><trkpt lat="42.16969788301842" lon="11.941993827562502"><ele>314.20000000000005</ele><time>2026-04-19T08:45:12.822Z</time></trkpt><trkpt lat="42.16965924118517" lon="11.94189705255521"><ele>315.79999999999995</ele><time>2026-04-19T08:45:13.822Z</time></trkpt><trkpt lat="42.16961455103684" lon="11.941788101843198"><ele>317.4</ele><time>2026-04-19T08:45:14.822Z</time></trkpt><trkpt lat="42.16954036101648" lon="11.941691110019402"><ele>319.0</ele><time>2026-04-19T08:45:15.822Z</time></trkpt><trkpt lat="42.16945473447317" lon="11.941581462487573"><ele>319.0</ele><time>2026-04-19T08:45:16.822Z</time></trkpt><trkpt lat="42.16934685420644" lon="11.941491940742562"><ele>319.0</ele><time>2026-04-19T08:45:17.822Z</time></trkpt><trkpt lat="42.169235022446856" lon="11.941385496137007"><ele>319.0</ele><time>2026-04-19T08:45:18.822Z</time></trkpt><trkpt lat="42.16910773128045" lon="11.941313108271288"><ele>319.0</ele><time>2026-04-19T08:45:19.822Z</time></trkpt><trkpt lat="42.168991815793056" lon="11.941213295114519"><ele>323.25</ele><time>2026-04-19T08:45:20.822Z</time></trkpt><trkpt lat="42.168863661738094" lon="11.941141078199927"><ele>327.5</ele><time>2026-04-19T08:45:21.822Z</time></trkpt><trkpt lat="42.16873016819091" lon="11.941096833906048"><ele>331.75</ele><time>2026-04-19T08:45:22.822Z</time></trkpt><trkpt lat="42.16860076103425" lon="11.941086889183834"><ele>336.0</ele><time>2026-04-19T08:45:23.822Z</time></trkpt><trkpt lat="42.16845629010706" lon="11.941125195243195"><ele>336.0</ele><time>2026-04-19T08:45:24.822Z</time></trkpt><trkpt lat="42.16831332136051" lon="11.94116806525462"><ele>336.0</ele><time>2026-04-19T08:45:25.822Z</time></trkpt><trkpt lat="42.168170868790234" lon="11.941205868382218"><ele>336.0</ele><time>2026-04-19T08:45:26.822Z</time></trkpt><trkpt lat="42.16802703745414" lon="11.941220064647819"><ele>336.0</ele><time>2026-04-19T08:45:27.822Z</time></trkpt><trkpt lat="42.16787657306218" lon="11.941185768798151"><ele>339.0</ele><time>2026-04-19T08:45:28.822Z</time></trkpt><trkpt lat="42.16771425863241" lon="11.941180156066189"><ele>342.0</ele><time>2026-04-19T08:45:29.822Z</time></trkpt><trkpt lat="42.16755780710983" lon="11.9411475546129"><ele>345.0</ele><time>2026-04-19T08:45:30.822Z</time></trkpt><trkpt lat="42.16739600204209" lon="11.941108046065645"><ele>345.5</ele><time>2026-04-19T08:45:31.822Z</time></trkpt><trkpt lat="42.16725113276504" lon="11.94107126888378"><ele>346.0</ele><time>2026-04-19T08:45:32.822Z</time></trkpt><trkpt lat="42.1671124024056" lon="11.94105367721481"><ele>346.5</ele><time>2026-04-19T08:45:33.822Z</time></trkpt><trkpt lat="42.16698360985689" lon="11.941050320777117"><ele>347.0</ele><time>2026-04-19T08:45:34.822Z</time></trkpt><trkpt lat="42.166863909574396" lon="11.941065167927079"><ele>347.0</ele><time>2026-04-19T08:45:35.822Z</time></trkpt><trkpt lat="42.16674500684458" lon="11.941101013856132"><ele>347.0</ele><time>2026-04-19T08:45:36.822Z</time></trkpt><trkpt lat="42.16663031349137" lon="11.941146844629946"><ele>347.0</ele><time>2026-04-19T08:45:37.822Z</time></trkpt><trkpt lat="42.16650784755061" lon="11.941200026190907"><ele>347.0</ele><time>2026-04-19T08:45:38.822Z</time></trkpt><trkpt lat="42.16638400388431" lon="11.941252717270698"><ele>346.0</ele><time>2026-04-19T08:45:39.822Z</time></trkpt><trkpt lat="42.16625575694716" lon="11.941315459093916"><ele>345.0</ele><time>2026-04-19T08:45:40.822Z</time></trkpt><trkpt lat="42.16612059006569" lon="11.94139019784906"><ele>344.0</ele><time>2026-04-19T08:45:41.822Z</time></trkpt><trkpt lat="42.16597382229447" lon="11.941442510669383"><ele>343.0</ele><time>2026-04-19T08:45:42.822Z</time></trkpt><trkpt lat="42.165815820009776" lon="11.941464628112032"><ele>342.66666666666663</ele><time>2026-04-19T08:45:43.822Z</time></trkpt><trkpt lat="42.16566749338739" lon="11.941476300904304"><ele>342.3333333333333</ele><time>2026-04-19T08:45:44.822Z</time></trkpt><trkpt lat="42.16552885816457" lon="11.941511672159207"><ele>342.0</ele><time>2026-04-19T08:45:45.822Z</time></trkpt><trkpt lat="42.165369460794736" lon="11.94156403649243"><ele>342.0</ele><time>2026-04-19T08:45:46.822Z</time></trkpt><trkpt lat="42.16524113000969" lon="11.941664555430945"><ele>342.0</ele><time>2026-04-19T08:45:47.822Z</time></trkpt><trkpt lat="42.16510790647736" lon="11.941737614231902"><ele>342.0</ele><time>2026-04-19T08:45:48.822Z</time></trkpt><trkpt lat="42.164984294391424" lon="11.941806603641277"><ele>342.0</ele><time>2026-04-19T08:45:49.822Z</time></trkpt><trkpt lat="42.164857136069315" lon="11.941880926603297"><ele>344.75</ele><time>2026-04-19T08:45:50.822Z</time></trkpt><trkpt lat="42.16472143781016" lon="11.941892497368656"><ele>347.5</ele><time>2026-04-19T08:45:51.822Z</time></trkpt><trkpt lat="42.16458692748451" lon="11.94188979840049"><ele>350.25</ele><time>2026-04-19T08:45:52.822Z</time></trkpt><trkpt lat="42.16444907222961" lon="11.941855692314311"><ele>353.0</ele><time>2026-04-19T08:45:53.822Z</time></trkpt><trkpt lat="42.164309339535905" lon="11.941830917567666"><ele>353.0</ele><time>2026-04-19T08:45:54.822Z</time></trkpt><trkpt lat="42.164182477820056" lon="11.94177751233611"><ele>353.0</ele><time>2026-04-19T08:45:55.822Z</time></trkpt><trkpt lat="42.16405752212238" lon="11.941682495718506"><ele>353.0</ele><time>2026-04-19T08:45:56.822Z</time></trkpt><trkpt lat="42.163949000095506" lon="11.941600801539133"><ele>353.0</ele><time>2026-04-19T08:45:57.822Z</time></trkpt><trkpt lat="42.163855282429424" lon="11.941555788464905"><ele>353.75</ele><time>2026-04-19T08:45:58.822Z</time></trkpt><trkpt lat="42.16373925197729" lon="11.941567096347535"><ele>354.5</ele><time>2026-04-19T08:45:59.822Z</time></trkpt><trkpt lat="42.16362179511711" lon="11.941570019434488"><ele>355.25</ele><time>2026-04-19T08:46:00.822Z</time></trkpt><trkpt lat="42.16350301276854" lon="11.941576565425038"><ele>356.0</ele><time>2026-04-19T08:46:01.822Z</time></trkpt><trkpt lat="42.16340299452877" lon="11.941593040102818"><ele>356.0</ele><time>2026-04-19T08:46:02.822Z</time></trkpt><trkpt lat="42.163314818948464" lon="11.941641144950522"><ele>356.0</ele><time>2026-04-19T08:46:03.822Z</time></trkpt><trkpt lat="42.16322406554857" lon="11.941710322142747"><ele>356.0</ele><time>2026-04-19T08:46:04.822Z</time></trkpt><trkpt lat="42.16313559574996" lon="11.941802693110093"><ele>356.0</ele><time>2026-04-19T08:46:05.822Z</time></trkpt><trkpt lat="42.1630435391864" lon="11.941908844001945"><ele>356.0</ele><time>2026-04-19T08:46:06.822Z</time></trkpt><trkpt lat="42.16294545989911" lon="11.942014397287233"><ele>357.6</ele><time>2026-04-19T08:46:07.822Z</time></trkpt><trkpt lat="42.162844185207724" lon="11.942089683469238"><ele>359.20000000000005</ele><time>2026-04-19T08:46:08.822Z</time></trkpt><trkpt lat="42.162751146403586" lon="11.94213948946819"><ele>360.79999999999995</ele><time>2026-04-19T08:46:09.822Z</time></trkpt><trkpt lat="42.16265914756107" lon="11.942169612998311"><ele>362.4</ele><time>2026-04-19T08:46:10.822Z</time></trkpt><trkpt lat="42.162567984736725" lon="11.942189998550207"><ele>364.0</ele><time>2026-04-19T08:46:11.822Z</time></trkpt><trkpt lat="42.16249499417415" lon="11.942209770129429"><ele>364.0</ele><time>2026-04-19T08:46:12.822Z</time></trkpt><trkpt lat="42.16243361955123" lon="11.94218836537362"><ele>364.0</ele><time>2026-04-19T08:46:15.822Z</time></trkpt><trkpt lat="42.162407627672074" lon="11.94210633861165"><ele>363.99999999999994</ele><time>2026-04-19T08:46:17.822Z</time></trkpt><trkpt lat="42.16240919758234" lon="11.942006274026063"><ele>364.0</ele><time>2026-04-19T08:46:19.822Z</time></trkpt><trkpt lat="42.162384094537316" lon="11.941911594581054"><ele>364.0</ele><time>2026-04-19T08:46:22.822Z</time></trkpt><trkpt lat="42.16237440054505" lon="11.94180300031166"><ele>364.0</ele><time>2026-04-19T08:46:25.822Z</time></trkpt><trkpt lat="42.16234398085279" lon="11.941704483385482"><ele>364.0</ele><time>2026-04-19T08:46:27.822Z</time></trkpt><trkpt lat="42.16234398085279" lon="11.941704483385482"><ele>364.0</ele><time>2026-04-19T08:46:27.822Z</time></trkpt><trkpt lat="42.16234398085279" lon="11.941704483385482"><ele>364.0</ele><time>2026-04-19T08:46:27.822Z</time></trkpt><trkpt lat="42.16234398085279" lon="11.941704483385482"><ele>364.0</ele><time>2026-04-19T08:46:27.822Z</time></trkpt><trkpt lat="42.16234398085279" lon="11.941704483385482"><ele>364.0</ele><time>2026-04-19T08:46:27.822Z</time></trkpt><trkpt lat="42.16234398085279" lon="11.941704483385482"><ele>364.0</ele><time>2026-04-19T08:46:27.822Z</time></trkpt><trkpt lat="42.16234398085279" lon="11.941704483385482"><ele>364.0</ele><time>2026-04-19T08:46:27.822Z</time></trkpt><trkpt lat="42.16234398085279" lon="11.941704483385482"><ele>364.0</ele><time>2026-04-19T08:46:27.822Z</time></trkpt><trkpt lat="42.16234398085279" lon="11.941704483385482"><ele>364.0</ele><time>2026-04-19T08:46:27.822Z</time></trkpt><trkpt lat="42.16234398085279" lon="11.941704483385482"><ele>364.0</ele><time>2026-04-19T08:46:27.822Z</time></trkpt><trkpt lat="42.16234398085279" lon="11.941704483385482"><ele>364.0</ele><time>2026-04-19T08:46:27.822Z</time></trkpt><trkpt lat="42.16234398085279" lon="11.941704483385482"><ele>364.0</ele><time>2026-04-19T08:46:27.822Z</time></trkpt><trkpt lat="42.16234398085279" lon="11.941704483385482"><ele>364.0</ele><time>2026-04-19T08:46:27.822Z</time></trkpt><trkpt lat="42.16234398085279" lon="11.941704483385482"><ele>364.0</ele><time>2026-04-19T08:46:27.822Z</time></trkpt><trkpt lat="42.16234398085279" lon="11.941704483385482"><ele>364.0</ele><time>2026-04-19T08:46:27.822Z</time></trkpt><trkpt lat="42.16234398085279" lon="11.941704483385482"><ele>364.0</ele><time>2026-04-19T08:46:27.822Z</time></trkpt><trkpt lat="42.16234398085279" lon="11.941704483385482"><ele>364.0</ele><time>2026-04-19T08:46:27.822Z</time></trkpt><trkpt lat="42.16234398085279" lon="11.941704483385482"><ele>364.0</ele><time>2026-04-19T08:46:27.822Z</time></trkpt><trkpt lat="42.16234398085279" lon="11.941704483385482"><ele>364.0</ele><time>2026-04-19T08:46:27.822Z</time></trkpt><trkpt lat="42.16234398085279" lon="11.941704483385482"><ele>364.0</ele><time>2026-04-19T08:46:27.822Z</time></trkpt><trkpt lat="42.16234398085279" lon="11.941704483385482"><ele>363.99999999999994</ele><time>2026-04-19T08:46:27.822Z</time></trkpt><trkpt lat="42.16234398085279" lon="11.941704483385482"><ele>364.0</ele><time>2026-04-19T08:46:27.822Z</time></trkpt><trkpt lat="42.16234398085279" lon="11.941704483385482"><ele>364.0</ele><time>2026-04-19T08:46:27.822Z</time></trkpt><trkpt lat="42.16234398085279" lon="11.941704483385482"><ele>364.0</ele><time>2026-04-19T08:46:27.822Z</time></trkpt><trkpt lat="42.162291767" lon="11.94159452761453"><ele>369.0</ele><time>2026-04-19T08:55:29.007Z</time></trkpt><trkpt lat="42.162226830307354" lon="11.941451029245503"><ele>374.0</ele><time>2026-04-19T08:55:31.008Z</time></trkpt><trkpt lat="42.16219303477586" lon="11.94135381644366"><ele>379.0</ele><time>2026-04-19T08:55:32.008Z</time></trkpt><trkpt lat="42.16214654018214" lon="11.941238705702757"><ele>384.0</ele><time>2026-04-19T08:55:33.008Z</time></trkpt><trkpt lat="42.16209353608082" lon="11.941133907153686"><ele>389.0</ele><time>2026-04-19T08:55:34.008Z</time></trkpt><trkpt lat="42.162041550981215" lon="11.941032145042831"><ele>389.0</ele><time>2026-04-19T08:55:35.008Z</time></trkpt><trkpt lat="42.161991953200186" lon="11.940929365877743"><ele>389.0</ele><time>2026-04-19T08:55:36.008Z</time></trkpt><trkpt lat="42.16193853953713" lon="11.940816748581492"><ele>389.0</ele><time>2026-04-19T08:55:37.008Z</time></trkpt><trkpt lat="42.16188387522082" lon="11.940703407556336"><ele>389.0</ele><time>2026-04-19T08:55:38.008Z</time></trkpt><trkpt lat="42.16182829948116" lon="11.94058067875116"><ele>389.0</ele><time>2026-04-19T08:55:39.008Z</time></trkpt><trkpt lat="42.1617737668739" lon="11.94045918423426"><ele>390.0</ele><time>2026-04-19T08:55:40.008Z</time></trkpt><trkpt lat="42.16171400714199" lon="11.940333947524328"><ele>391.0</ele><time>2026-04-19T08:55:41.008Z</time></trkpt><trkpt lat="42.16165998188382" lon="11.940204628121064"><ele>392.0</ele><time>2026-04-19T08:55:42.008Z</time></trkpt><trkpt lat="42.16159549313339" lon="11.940078630303733"><ele>393.0</ele><time>2026-04-19T08:55:43.008Z</time></trkpt><trkpt lat="42.16151255777096" lon="11.939967291714149"><ele>390.25</ele><time>2026-04-19T08:55:44.008Z</time></trkpt><trkpt lat="42.16141100313584" lon="11.939890316415013"><ele>387.5</ele><time>2026-04-19T08:55:45.008Z</time></trkpt><trkpt lat="42.161294284572115" lon="11.939860158393254"><ele>384.75</ele><time>2026-04-19T08:55:46.008Z</time></trkpt><trkpt lat="42.161170765070295" lon="11.939869606936947"><ele>382.0</ele><time>2026-04-19T08:55:47.008Z</time></trkpt><trkpt lat="42.1610455801534" lon="11.939916978303865"><ele>382.0</ele><time>2026-04-19T08:55:48.008Z</time></trkpt><trkpt lat="42.16089137572315" lon="11.940000424778216"><ele>382.0</ele><time>2026-04-19T08:55:49.008Z</time></trkpt><trkpt lat="42.160767742985996" lon="11.940023267352325"><ele>382.0</ele><time>2026-04-19T08:55:50.008Z</time></trkpt><trkpt lat="42.16064728182623" lon="11.940039942525077"><ele>382.0</ele><time>2026-04-19T08:55:51.008Z</time></trkpt><trkpt lat="42.16052414315206" lon="11.940094636443273"><ele>384.75</ele><time>2026-04-19T08:55:52.008Z</time></trkpt><trkpt lat="42.16041615316453" lon="11.9401923308131"><ele>387.5</ele><time>2026-04-19T08:55:53.008Z</time></trkpt><trkpt lat="42.160323973264134" lon="11.940319613559078"><ele>390.25</ele><time>2026-04-19T08:55:54.008Z</time></trkpt><trkpt lat="42.16026508826581" lon="11.940474810349635"><ele>393.0</ele><time>2026-04-19T08:55:55.008Z</time></trkpt><trkpt lat="42.16022621699599" lon="11.940638498305184"><ele>393.0</ele><time>2026-04-19T08:55:56.008Z</time></trkpt><trkpt lat="42.16019769832496" lon="11.940818261348305"><ele>393.0</ele><time>2026-04-19T08:55:57.008Z</time></trkpt><trkpt lat="42.1601714323259" lon="11.940996142713026"><ele>393.0</ele><time>2026-04-19T08:55:58.008Z</time></trkpt><trkpt lat="42.160130086850835" lon="11.941168916764576"><ele>393.0</ele><time>2026-04-19T08:55:59.008Z</time></trkpt><trkpt lat="42.16008099419501" lon="11.941343201270039"><ele>393.75</ele><time>2026-04-19T08:56:00.008Z</time></trkpt><trkpt lat="42.160020275445355" lon="11.941502117320788"><ele>394.5</ele><time>2026-04-19T08:56:01.008Z</time></trkpt><trkpt lat="42.159942558682914" lon="11.941654872293983"><ele>395.25</ele><time>2026-04-19T08:56:02.008Z</time></trkpt><trkpt lat="42.15985093552028" lon="11.941785473240895"><ele>396.0</ele><time>2026-04-19T08:56:03.008Z</time></trkpt><trkpt lat="42.159750294827376" lon="11.941903370019954"><ele>396.5</ele><time>2026-04-19T08:56:04.008Z</time></trkpt><trkpt lat="42.15964161437606" lon="11.942025031346962"><ele>397.0</ele><time>2026-04-19T08:56:05.008Z</time></trkpt><trkpt lat="42.15953866462824" lon="11.942132706721205"><ele>397.5</ele><time>2026-04-19T08:56:06.009Z</time></trkpt><trkpt lat="42.15942774542876" lon="11.942232006268785"><ele>398.0</ele><time>2026-04-19T08:56:07.009Z</time></trkpt><trkpt lat="42.15931612451006" lon="11.942301661921286"><ele>398.0</ele><time>2026-04-19T08:56:08.009Z</time></trkpt><trkpt lat="42.15920207347591" lon="11.942301809166159"><ele>398.0</ele><time>2026-04-19T08:56:09.009Z</time></trkpt><trkpt lat="42.15910493381872" lon="11.942282529910019"><ele>398.0</ele><time>2026-04-19T08:56:10.009Z</time></trkpt><trkpt lat="42.159000129064715" lon="11.942301339072385"><ele>398.0</ele><time>2026-04-19T08:56:11.009Z</time></trkpt><trkpt lat="42.158919104977" lon="11.942147998179257"><ele>398.75</ele><time>2026-04-19T08:56:12.009Z</time></trkpt><trkpt lat="42.15884514152434" lon="11.942016020726442"><ele>399.5</ele><time>2026-04-19T08:56:13.009Z</time></trkpt><trkpt lat="42.158765959142436" lon="11.941900210159435"><ele>400.25</ele><time>2026-04-19T08:56:14.009Z</time></trkpt><trkpt lat="42.15867354566927" lon="11.94179975847663"><ele>401.0</ele><time>2026-04-19T08:56:15.009Z</time></trkpt><trkpt lat="42.15855161124499" lon="11.941740171911126"><ele>405.25</ele><time>2026-04-19T08:56:16.009Z</time></trkpt><trkpt lat="42.15843320473583" lon="11.941684337684285"><ele>409.5</ele><time>2026-04-19T08:56:17.009Z</time></trkpt><trkpt lat="42.15830792329636" lon="11.941668270729773"><ele>413.75</ele><time>2026-04-19T08:56:18.009Z</time></trkpt><trkpt lat="42.15817621607871" lon="11.941690942381518"><ele>418.0</ele><time>2026-04-19T08:56:19.009Z</time></trkpt><trkpt lat="42.15805072768391" lon="11.941759437854103"><ele>420.0</ele><time>2026-04-19T08:56:20.009Z</time></trkpt><trkpt lat="42.15792929145681" lon="11.941826675120614"><ele>422.0</ele><time>2026-04-19T08:56:21.009Z</time></trkpt><trkpt lat="42.15779920990772" lon="11.94187242940211"><ele>424.0</ele><time>2026-04-19T08:56:22.009Z</time></trkpt><trkpt lat="42.157674197073256" lon="11.941937187803664"><ele>426.0</ele><time>2026-04-19T08:56:23.009Z</time></trkpt><trkpt lat="42.157540997281714" lon="11.94200205481564"><ele>426.0</ele><time>2026-04-19T08:56:24.009Z</time></trkpt><trkpt lat="42.15742271962524" lon="11.942087086469021"><ele>426.0</ele><time>2026-04-19T08:56:25.009Z</time></trkpt><trkpt lat="42.1573146620766" lon="11.942214955753451"><ele>426.0</ele><time>2026-04-19T08:56:26.009Z</time></trkpt><trkpt lat="42.157230700392" lon="11.942354770194099"><ele>426.0</ele><time>2026-04-19T08:56:27.009Z</time></trkpt><trkpt lat="42.15716318161944" lon="11.942502804978345"><ele>423.5</ele><time>2026-04-19T08:56:28.009Z</time></trkpt><trkpt lat="42.157080357878726" lon="11.942647431462076"><ele>421.0</ele><time>2026-04-19T08:56:29.009Z</time></trkpt><trkpt lat="42.1569750554412" lon="11.942752198921445"><ele>418.5</ele><time>2026-04-19T08:56:30.009Z</time></trkpt><trkpt lat="42.15686016068223" lon="11.94283666956598"><ele>416.0</ele><time>2026-04-19T08:56:31.009Z</time></trkpt><trkpt lat="42.156740065993965" lon="11.942901887555388"><ele>416.0</ele><time>2026-04-19T08:56:32.009Z</time></trkpt><trkpt lat="42.15660757302813" lon="11.94293952670514"><ele>416.0</ele><time>2026-04-19T08:56:33.009Z</time></trkpt><trkpt lat="42.15647982997898" lon="11.942942694272823"><ele>416.0</ele><time>2026-04-19T08:56:34.009Z</time></trkpt><trkpt lat="42.15635254354239" lon="11.942915850372499"><ele>416.0</ele><time>2026-04-19T08:56:35.009Z</time></trkpt><trkpt lat="42.156239739906795" lon="11.942845944649426"><ele>413.0</ele><time>2026-04-19T08:56:36.009Z</time></trkpt><trkpt lat="42.156138316744176" lon="11.94275411952638"><ele>410.0</ele><time>2026-04-19T08:56:37.009Z</time></trkpt><trkpt lat="42.15604559254669" lon="11.942632585088418"><ele>407.0</ele><time>2026-04-19T08:56:38.009Z</time></trkpt><trkpt lat="42.15594886207508" lon="11.94250032880748"><ele>404.0</ele><time>2026-04-19T08:56:39.009Z</time></trkpt><trkpt lat="42.155891212433616" lon="11.942316553995797"><ele>409.5</ele><time>2026-04-19T08:56:40.009Z</time></trkpt><trkpt lat="42.15581381576118" lon="11.942167883926825"><ele>415.0</ele><time>2026-04-19T08:56:41.009Z</time></trkpt><trkpt lat="42.155724355544166" lon="11.94203656989433"><ele>420.5</ele><time>2026-04-19T08:56:42.01Z</time></trkpt><trkpt lat="42.155599883459345" lon="11.941932325180774"><ele>426.0</ele><time>2026-04-19T08:56:43.01Z</time></trkpt><trkpt lat="42.15549250525662" lon="11.941806071762576"><ele>428.0</ele><time>2026-04-19T08:56:44.01Z</time></trkpt><trkpt lat="42.15539651097727" lon="11.941693910569768"><ele>430.0</ele><time>2026-04-19T08:56:45.01Z</time></trkpt><trkpt lat="42.15531844751923" lon="11.9415901368419"><ele>432.0</ele><time>2026-04-19T08:56:46.01Z</time></trkpt><trkpt lat="42.15524056215739" lon="11.94148448261646"><ele>434.0</ele><time>2026-04-19T08:56:47.01Z</time></trkpt><trkpt lat="42.15516900350062" lon="11.941363467346749"><ele>434.0</ele><time>2026-04-19T08:56:48.01Z</time></trkpt><trkpt lat="42.15509439678252" lon="11.941240890780044"><ele>434.0</ele><time>2026-04-19T08:56:49.01Z</time></trkpt><trkpt lat="42.155014428562176" lon="11.941117309485865"><ele>434.0</ele><time>2026-04-19T08:56:50.01Z</time></trkpt><trkpt lat="42.15494219459173" lon="11.941003807838381"><ele>434.0</ele><time>2026-04-19T08:56:51.01Z</time></trkpt><trkpt lat="42.15488601767613" lon="11.940888528747976"><ele>436.0</ele><time>2026-04-19T08:56:52.01Z</time></trkpt><trkpt lat="42.15482915587979" lon="11.940762990545652"><ele>438.0</ele><time>2026-04-19T08:56:53.01Z</time></trkpt><trkpt lat="42.15477648027786" lon="11.94062798911104"><ele>440.0</ele><time>2026-04-19T08:56:54.01Z</time></trkpt><trkpt lat="42.15473082164041" lon="11.94049730168895"><ele>442.0</ele><time>2026-04-19T08:56:55.01Z</time></trkpt><trkpt lat="42.154692122899235" lon="11.940358770919897"><ele>444.0</ele><time>2026-04-19T08:56:56.01Z</time></trkpt><trkpt lat="42.154666421524155" lon="11.940210917189471"><ele>444.0</ele><time>2026-04-19T08:56:57.01Z</time></trkpt><trkpt lat="42.15464966301841" lon="11.940063475386408"><ele>444.0</ele><time>2026-04-19T08:56:58.01Z</time></trkpt><trkpt lat="42.15463098604013" lon="11.939918148366768"><ele>444.0</ele><time>2026-04-19T08:56:59.01Z</time></trkpt><trkpt lat="42.15461147245713" lon="11.939777281452395"><ele>444.0</ele><time>2026-04-19T08:57:00.01Z</time></trkpt><trkpt lat="42.15458724797831" lon="11.939635035963871"><ele>444.0</ele><time>2026-04-19T08:57:01.01Z</time></trkpt><trkpt lat="42.154545204074445" lon="11.939500247634168"><ele>445.2</ele><time>2026-04-19T08:57:02.01Z</time></trkpt><trkpt lat="42.15448358704719" lon="11.939401156228566"><ele>446.4</ele><time>2026-04-19T08:57:03.01Z</time></trkpt><trkpt lat="42.15440193771156" lon="11.939355502241181"><ele>447.6</ele><time>2026-04-19T08:57:04.01Z</time></trkpt><trkpt lat="42.154326941372666" lon="11.939310320209009"><ele>448.8</ele><time>2026-04-19T08:57:05.01Z</time></trkpt><trkpt lat="42.154229591047226" lon="11.939294570712512"><ele>450.0</ele><time>2026-04-19T08:57:06.01Z</time></trkpt><trkpt lat="42.154116883261956" lon="11.939316744602632"><ele>454.75</ele><time>2026-04-19T08:57:07.01Z</time></trkpt><trkpt lat="42.15399819936085" lon="11.939337066919979"><ele>459.5</ele><time>2026-04-19T08:57:08.01Z</time></trkpt><trkpt lat="42.15386357481184" lon="11.939356286765543"><ele>464.25</ele><time>2026-04-19T08:57:09.01Z</time></trkpt><trkpt lat="42.153736512609406" lon="11.939372458858161"><ele>469.0</ele><time>2026-04-19T08:57:10.01Z</time></trkpt><trkpt lat="42.15363014231184" lon="11.939382494513822"><ele>469.0</ele><time>2026-04-19T08:57:11.01Z</time></trkpt><trkpt lat="42.15353353770181" lon="11.939413932709328"><ele>469.0</ele><time>2026-04-19T08:57:12.01Z</time></trkpt><trkpt lat="42.153445587027925" lon="11.939479143686512"><ele>469.0</ele><time>2026-04-19T08:57:13.01Z</time></trkpt><trkpt lat="42.15338339157166" lon="11.939585528347312"><ele>469.0</ele><time>2026-04-19T08:57:14.01Z</time></trkpt><trkpt lat="42.15335564638738" lon="11.939730676635254"><ele>469.0</ele><time>2026-04-19T08:57:15.01Z</time></trkpt><trkpt lat="42.15336634360544" lon="11.939884517700815"><ele>469.0</ele><time>2026-04-19T08:57:16.01Z</time></trkpt><trkpt lat="42.1534024988078" lon="11.94003089280718"><ele>469.0</ele><time>2026-04-19T08:57:17.01Z</time></trkpt><trkpt lat="42.15342415844514" lon="11.940182181775896"><ele>469.0</ele><time>2026-04-19T08:57:18.011Z</time></trkpt><trkpt lat="42.15346350840668" lon="11.940314969758639"><ele>469.0</ele><time>2026-04-19T08:57:19.011Z</time></trkpt><trkpt lat="42.15348546251707" lon="11.940452174564454"><ele>469.0</ele><time>2026-04-19T08:57:20.011Z</time></trkpt><trkpt lat="42.153512687971855" lon="11.940588032006218"><ele>469.33333333333337</ele><time>2026-04-19T08:57:21.011Z</time></trkpt><trkpt lat="42.15354228214819" lon="11.940702822628818"><ele>469.6666666666667</ele><time>2026-04-19T08:57:22.011Z</time></trkpt><trkpt lat="42.15354756970636" lon="11.940807450871189"><ele>470.0</ele><time>2026-04-19T08:57:23.011Z</time></trkpt><trkpt lat="42.15354279984321" lon="11.940901851898635"><ele>470.33333333333337</ele><time>2026-04-19T08:57:24.011Z</time></trkpt><trkpt lat="42.153501639472815" lon="11.94097749211643"><ele>470.6666666666667</ele><time>2026-04-19T08:57:25.011Z</time></trkpt><trkpt lat="42.15345392987708" lon="11.941033251632417"><ele>471.0</ele><time>2026-04-19T08:57:26.011Z</time></trkpt><trkpt lat="42.15334873267428" lon="11.941138294861204"><ele>471.1428571428572</ele><time>2026-04-19T08:57:28.011Z</time></trkpt><trkpt lat="42.15328450227961" lon="11.941195412156786"><ele>471.28571428571433</ele><time>2026-04-19T08:57:29.011Z</time></trkpt><trkpt lat="42.15322420175105" lon="11.941259552701604"><ele>471.42857142857144</ele><time>2026-04-19T08:57:30.011Z</time></trkpt><trkpt lat="42.15316063552723" lon="11.941296457151514"><ele>471.5714285714286</ele><time>2026-04-19T08:57:31.011Z</time></trkpt><trkpt lat="42.153113894014005" lon="11.941359674637788"><ele>471.7142857142858</ele><time>2026-04-19T08:57:32.011Z</time></trkpt><trkpt lat="42.15305017296028" lon="11.94139787826141"><ele>471.85714285714283</ele><time>2026-04-19T08:57:34.011Z</time></trkpt><trkpt lat="42.15299404328271" lon="11.941348225405436"><ele>472.0</ele><time>2026-04-19T08:57:36.011Z</time></trkpt><trkpt lat="42.15293079119898" lon="11.941300291421198"><ele>473.50000000000006</ele><time>2026-04-19T08:57:37.011Z</time></trkpt><trkpt lat="42.15286078196753" lon="11.941310161320914"><ele>475.0</ele><time>2026-04-19T08:57:38.011Z</time></trkpt><trkpt lat="42.152757184422406" lon="11.941260697325141"><ele>476.5</ele><time>2026-04-19T08:57:41.011Z</time></trkpt><trkpt lat="42.15268083107401" lon="11.941223936198734"><ele>478.0</ele><time>2026-04-19T08:57:43.011Z</time></trkpt><trkpt lat="42.15261582026915" lon="11.941127367924068"><ele>479.50000000000006</ele><time>2026-04-19T08:57:45.011Z</time></trkpt><trkpt lat="42.1525917173263" lon="11.941029127540242"><ele>481.0</ele><time>2026-04-19T08:57:47.011Z</time></trkpt><trkpt lat="42.15256954195796" lon="11.94090050984748"><ele>480.8</ele><time>2026-04-19T08:57:49.011Z</time></trkpt><trkpt lat="42.152492714108305" lon="11.940775666624566"><ele>480.6</ele><time>2026-04-19T08:57:51.011Z</time></trkpt><trkpt lat="42.15243308787727" lon="11.940720106044823"><ele>480.4</ele><time>2026-04-19T08:57:52.011Z</time></trkpt><trkpt lat="42.15237831836768" lon="11.940673551559613"><ele>480.2</ele><time>2026-04-19T08:57:53.011Z</time></trkpt><trkpt lat="42.152282346269935" lon="11.940560590696698"><ele>480.0</ele><time>2026-04-19T08:57:55.012Z</time></trkpt><trkpt lat="42.152215853336514" lon="11.940520876222166"><ele>477.3333333333333</ele><time>2026-04-19T08:57:56.012Z</time></trkpt><trkpt lat="42.152151043371475" lon="11.940481310767996"><ele>474.66666666666663</ele><time>2026-04-19T08:57:57.012Z</time></trkpt><trkpt lat="42.15209444848849" lon="11.94043926944997"><ele>472.0</ele><time>2026-04-19T08:57:58.012Z</time></trkpt><trkpt lat="42.15202867339736" lon="11.940402341001285"><ele>469.3333333333333</ele><time>2026-04-19T08:57:59.012Z</time></trkpt><trkpt lat="42.151959839560604" lon="11.940342988827178"><ele>466.66666666666663</ele><time>2026-04-19T08:58:00.012Z</time></trkpt><trkpt lat="42.151869966628254" lon="11.94021430686293"><ele>464.0</ele><time>2026-04-19T08:58:02.012Z</time></trkpt><trkpt lat="42.151816482035024" lon="11.940156596043538"><ele>463.99999999999994</ele><time>2026-04-19T08:58:03.012Z</time></trkpt><trkpt lat="42.151738329089476" lon="11.940112221503764"><ele>464.0</ele><time>2026-04-19T08:58:04.012Z</time></trkpt><trkpt lat="42.1516659588713" lon="11.940073538552786"><ele>464.0</ele><time>2026-04-19T08:58:05.012Z</time></trkpt><trkpt lat="42.15160894702389" lon="11.939998974492049"><ele>464.0</ele><time>2026-04-19T08:58:06.012Z</time></trkpt><trkpt lat="42.15155174642967" lon="11.939937579127518"><ele>463.99999999999994</ele><time>2026-04-19T08:58:07.012Z</time></trkpt><trkpt lat="42.151500371214645" lon="11.93986808477976"><ele>464.0</ele><time>2026-04-19T08:58:08.012Z</time></trkpt><trkpt lat="42.15144498588675" lon="11.939808688119458"><ele>463.3333333333333</ele><time>2026-04-19T08:58:09.012Z</time></trkpt><trkpt lat="42.151378405547504" lon="11.939756858697738"><ele>462.66666666666663</ele><time>2026-04-19T08:58:10.012Z</time></trkpt><trkpt lat="42.15131116348805" lon="11.939695037081359"><ele>462.0</ele><time>2026-04-19T08:58:11.012Z</time></trkpt><trkpt lat="42.15124011872504" lon="11.939627156685924"><ele>461.33333333333337</ele><time>2026-04-19T08:58:12.012Z</time></trkpt><trkpt lat="42.15116722136406" lon="11.939557427471508"><ele>460.6666666666667</ele><time>2026-04-19T08:58:13.012Z</time></trkpt><trkpt lat="42.15109194009299" lon="11.939485633857098"><ele>460.0</ele><time>2026-04-19T08:58:14.012Z</time></trkpt><trkpt lat="42.15101340884133" lon="11.93943245802465"><ele>460.00000000000006</ele><time>2026-04-19T08:58:15.012Z</time></trkpt><trkpt lat="42.15094041837271" lon="11.939374845833699"><ele>460.0</ele><time>2026-04-19T08:58:16.012Z</time></trkpt><trkpt lat="42.15086827808041" lon="11.939316612972682"><ele>460.0</ele><time>2026-04-19T08:58:17.012Z</time></trkpt><trkpt lat="42.15079626834819" lon="11.939256294818442"><ele>460.0</ele><time>2026-04-19T08:58:18.012Z</time></trkpt><trkpt lat="42.15072423953862" lon="11.939199440276372"><ele>460.00000000000006</ele><time>2026-04-19T08:58:19.012Z</time></trkpt><trkpt lat="42.15064927072791" lon="11.939150117630112"><ele>460.0</ele><time>2026-04-19T08:58:20.012Z</time></trkpt><trkpt lat="42.150581343959026" lon="11.939094347638765"><ele>462.1428571428571</ele><time>2026-04-19T08:58:21.012Z</time></trkpt><trkpt lat="42.150512230913584" lon="11.939045133213895"><ele>464.2857142857143</ele><time>2026-04-19T08:58:22.012Z</time></trkpt><trkpt lat="42.15044180295039" lon="11.93901091077178"><ele>466.42857142857144</ele><time>2026-04-19T08:58:23.012Z</time></trkpt><trkpt lat="42.150379691695576" lon="11.938971513740285"><ele>468.57142857142856</ele><time>2026-04-19T08:58:24.012Z</time></trkpt><trkpt lat="42.15032568389339" lon="11.938923166333414"><ele>470.7142857142858</ele><time>2026-04-19T08:58:25.012Z</time></trkpt><trkpt lat="42.15027064179142" lon="11.938853157914828"><ele>472.8571428571429</ele><time>2026-04-19T08:58:26.012Z</time></trkpt><trkpt lat="42.150218329138525" lon="11.938796562573636"><ele>475.0</ele><time>2026-04-19T08:58:27.012Z</time></trkpt><trkpt lat="42.15014148066262" lon="11.938663741421154"><ele>475.0</ele><time>2026-04-19T08:58:29.012Z</time></trkpt><trkpt lat="42.15010427164729" lon="11.938503577641105"><ele>475.0</ele><time>2026-04-19T08:58:31.013Z</time></trkpt><trkpt lat="42.15010352743487" lon="11.938409090452698"><ele>475.0</ele><time>2026-04-19T08:58:32.013Z</time></trkpt><trkpt lat="42.15010748961595" lon="11.938316414128412"><ele>475.0</ele><time>2026-04-19T08:58:33.013Z</time></trkpt><trkpt lat="42.150113182631245" lon="11.938225925402076"><ele>475.0</ele><time>2026-04-19T08:58:34.013Z</time></trkpt><trkpt lat="42.15012190182073" lon="11.938060012876234"><ele>476.8</ele><time>2026-04-19T08:58:36.013Z</time></trkpt><trkpt lat="42.15012223876885" lon="11.937902837059855"><ele>478.6</ele><time>2026-04-19T08:58:38.013Z</time></trkpt><trkpt lat="42.15012099936799" lon="11.937756982531512"><ele>480.4</ele><time>2026-04-19T08:58:40.013Z</time></trkpt><trkpt lat="42.15012463807462" lon="11.937621736914842"><ele>482.2</ele><time>2026-04-19T08:58:42.013Z</time></trkpt><trkpt lat="42.150124258086336" lon="11.937505798415927"><ele>484.0</ele><time>2026-04-19T08:58:44.013Z</time></trkpt><trkpt lat="42.15012147158992" lon="11.937417848621696"><ele>484.33333333333337</ele><time>2026-04-19T08:58:46.013Z</time></trkpt><trkpt lat="42.150136843150335" lon="11.937334558428134"><ele>484.6666666666667</ele><time>2026-04-19T08:58:52.013Z</time></trkpt><trkpt lat="42.1501282400889" lon="11.937216714062526"><ele>485.0</ele><time>2026-04-19T08:58:56.013Z</time></trkpt><trkpt lat="42.15013128059925" lon="11.937092027236574"><ele>485.33333333333337</ele><time>2026-04-19T08:58:58.013Z</time></trkpt><trkpt lat="42.150140695100355" lon="11.93691592259757"><ele>485.6666666666667</ele><time>2026-04-19T08:59:00.013Z</time></trkpt><trkpt lat="42.150139416830264" lon="11.9368208865048"><ele>486.0</ele><time>2026-04-19T08:59:01.013Z</time></trkpt><trkpt lat="42.15013294217668" lon="11.936720884455632"><ele>485.8</ele><time>2026-04-19T08:59:02.013Z</time></trkpt><trkpt lat="42.15014465791465" lon="11.9366138705315"><ele>485.6</ele><time>2026-04-19T08:59:03.013Z</time></trkpt><trkpt lat="42.15015178549177" lon="11.936501506742733"><ele>485.4</ele><time>2026-04-19T08:59:04.013Z</time></trkpt><trkpt lat="42.150163345962106" lon="11.936374910861018"><ele>485.2</ele><time>2026-04-19T08:59:05.013Z</time></trkpt><trkpt lat="42.150158971065196" lon="11.936227892826064"><ele>485.0</ele><time>2026-04-19T08:59:06.014Z</time></trkpt><trkpt lat="42.15015772408617" lon="11.936060236990365"><ele>485.0</ele><time>2026-04-19T08:59:07.014Z</time></trkpt><trkpt lat="42.1501579235716" lon="11.935892746974766"><ele>485.0</ele><time>2026-04-19T08:59:08.014Z</time></trkpt><trkpt lat="42.150155678674246" lon="11.935720783814011"><ele>485.0</ele><time>2026-04-19T08:59:09.014Z</time></trkpt><trkpt lat="42.15015344822411" lon="11.93554952109531"><ele>485.0</ele><time>2026-04-19T08:59:10.014Z</time></trkpt><trkpt lat="42.15015711570422" lon="11.93537794338991"><ele>485.25</ele><time>2026-04-19T08:59:11.014Z</time></trkpt><trkpt lat="42.15015582500236" lon="11.935188001338627"><ele>485.5</ele><time>2026-04-19T08:59:12.014Z</time></trkpt><trkpt lat="42.1501558806035" lon="11.935009719078248"><ele>485.75</ele><time>2026-04-19T08:59:13.014Z</time></trkpt><trkpt lat="42.15016351970524" lon="11.934822720075388"><ele>486.0</ele><time>2026-04-19T08:59:14.014Z</time></trkpt><trkpt lat="42.150168770283486" lon="11.934638645275253"><ele>486.25</ele><time>2026-04-19T08:59:15.014Z</time></trkpt><trkpt lat="42.150168013251125" lon="11.934466560388408"><ele>486.5</ele><time>2026-04-19T08:59:16.014Z</time></trkpt><trkpt lat="42.15012686129831" lon="11.934303106246878"><ele>486.75</ele><time>2026-04-19T08:59:17.014Z</time></trkpt><trkpt lat="42.150066364581356" lon="11.934160144744533"><ele>487.0</ele><time>2026-04-19T08:59:18.014Z</time></trkpt><trkpt lat="42.149998853287826" lon="11.934050369410283"><ele>488.20000000000005</ele><time>2026-04-19T08:59:19.014Z</time></trkpt><trkpt lat="42.14993952948503" lon="11.933945676523477"><ele>489.40000000000003</ele><time>2026-04-19T08:59:20.014Z</time></trkpt><trkpt lat="42.14988259564004" lon="11.933843871021676"><ele>490.59999999999997</ele><time>2026-04-19T08:59:21.014Z</time></trkpt><trkpt lat="42.149820195725006" lon="11.933729291009573"><ele>491.79999999999995</ele><time>2026-04-19T08:59:22.014Z</time></trkpt><trkpt lat="42.14975079703569" lon="11.93360615073938"><ele>493.0</ele><time>2026-04-19T08:59:23.014Z</time></trkpt><trkpt lat="42.14967809668914" lon="11.933474690991202"><ele>490.4</ele><time>2026-04-19T08:59:24.014Z</time></trkpt><trkpt lat="42.14961081309225" lon="11.933351840256973"><ele>487.79999999999995</ele><time>2026-04-19T08:59:25.014Z</time></trkpt><trkpt lat="42.14955268558086" lon="11.933233672976046"><ele>485.2</ele><time>2026-04-19T08:59:26.014Z</time></trkpt><trkpt lat="42.149501228913344" lon="11.933105379752424"><ele>482.6</ele><time>2026-04-19T08:59:27.014Z</time></trkpt><trkpt lat="42.149451710699815" lon="11.932974312349534"><ele>480.0</ele><time>2026-04-19T08:59:28.014Z</time></trkpt><trkpt lat="42.149416743118415" lon="11.9328338674012"><ele>480.0</ele><time>2026-04-19T08:59:29.014Z</time></trkpt><trkpt lat="42.14939046955553" lon="11.932687547917897"><ele>480.0</ele><time>2026-04-19T08:59:30.014Z</time></trkpt><trkpt lat="42.149370069493045" lon="11.93253946688828"><ele>480.0</ele><time>2026-04-19T08:59:31.014Z</time></trkpt><trkpt lat="42.149356904635496" lon="11.932395074150635"><ele>480.0</ele><time>2026-04-19T08:59:32.014Z</time></trkpt><trkpt lat="42.14935804844105" lon="11.9322455117175"><ele>480.0</ele><time>2026-04-19T08:59:33.014Z</time></trkpt><trkpt lat="42.1493667602862" lon="11.93209674943916"><ele>483.5</ele><time>2026-04-19T08:59:34.014Z</time></trkpt><trkpt lat="42.149377008730006" lon="11.931948360800478"><ele>487.0</ele><time>2026-04-19T08:59:35.014Z</time></trkpt><trkpt lat="42.14942575129284" lon="11.931798844963335"><ele>490.5</ele><time>2026-04-19T08:59:36.014Z</time></trkpt><trkpt lat="42.1494637801772" lon="11.931650463245981"><ele>494.0</ele><time>2026-04-19T08:59:37.014Z</time></trkpt><trkpt lat="42.14950415948317" lon="11.931496912316572"><ele>494.5</ele><time>2026-04-19T08:59:38.014Z</time></trkpt><trkpt lat="42.14955737775641" lon="11.931343138995098"><ele>495.0</ele><time>2026-04-19T08:59:39.014Z</time></trkpt><trkpt lat="42.14960902823477" lon="11.931198896459389"><ele>495.5</ele><time>2026-04-19T08:59:40.014Z</time></trkpt><trkpt lat="42.14966274048121" lon="11.931054608471326"><ele>496.0</ele><time>2026-04-19T08:59:41.014Z</time></trkpt><trkpt lat="42.14971352906241" lon="11.930911660487007"><ele>494.25</ele><time>2026-04-19T08:59:42.015Z</time></trkpt><trkpt lat="42.149757249287525" lon="11.930762933738329"><ele>492.5</ele><time>2026-04-19T08:59:43.015Z</time></trkpt><trkpt lat="42.14981007818087" lon="11.930604879390009"><ele>490.75</ele><time>2026-04-19T08:59:44.015Z</time></trkpt><trkpt lat="42.14986262142987" lon="11.930439677060543"><ele>489.0</ele><time>2026-04-19T08:59:45.015Z</time></trkpt><trkpt lat="42.14992092666501" lon="11.930270411006248"><ele>493.5</ele><time>2026-04-19T08:59:46.015Z</time></trkpt><trkpt lat="42.14997160750076" lon="11.930106471204184"><ele>498.0</ele><time>2026-04-19T08:59:47.015Z</time></trkpt><trkpt lat="42.150019158900214" lon="11.929940896909029"><ele>502.5</ele><time>2026-04-19T08:59:48.015Z</time></trkpt><trkpt lat="42.15007250633154" lon="11.929781795777853"><ele>507.0</ele><time>2026-04-19T08:59:49.015Z</time></trkpt><trkpt lat="42.15012416966811" lon="11.92963960134028"><ele>507.0</ele><time>2026-04-19T08:59:50.015Z</time></trkpt><trkpt lat="42.15017267075667" lon="11.929525580567589"><ele>507.0</ele><time>2026-04-19T08:59:51.015Z</time></trkpt><trkpt lat="42.1502277783025" lon="11.92942404250927"><ele>507.0</ele><time>2026-04-19T08:59:52.015Z</time></trkpt><trkpt lat="42.150276928762075" lon="11.929340766446549"><ele>507.0</ele><time>2026-04-19T08:59:53.015Z</time></trkpt><trkpt lat="42.15033447445786" lon="11.92926996668317"><ele>507.0</ele><time>2026-04-19T08:59:54.015Z</time></trkpt><trkpt lat="42.150406486799206" lon="11.929248029190656"><ele>507.0</ele><time>2026-04-19T08:59:55.015Z</time></trkpt><trkpt lat="42.15041324519681" lon="11.9291082393393"><ele>507.6666666666667</ele><time>2026-04-19T08:59:56.015Z</time></trkpt><trkpt lat="42.15043161835462" lon="11.929008519762835"><ele>508.33333333333337</ele><time>2026-04-19T08:59:57.015Z</time></trkpt><trkpt lat="42.15044727297679" lon="11.928912615786652"><ele>509.0</ele><time>2026-04-19T08:59:58.015Z</time></trkpt><trkpt lat="42.15047063673294" lon="11.928814351505824"><ele>509.6666666666667</ele><time>2026-04-19T08:59:59.015Z</time></trkpt><trkpt lat="42.15050254294828" lon="11.928713049385063"><ele>510.33333333333337</ele><time>2026-04-19T09:00:00.015Z</time></trkpt><trkpt lat="42.150523487479" lon="11.928613385105855"><ele>511.0</ele><time>2026-04-19T09:00:01.015Z</time></trkpt><trkpt lat="42.15054371936431" lon="11.92850180995964"><ele>511.00000000000006</ele><time>2026-04-19T09:00:02.015Z</time></trkpt><trkpt lat="42.15056620887823" lon="11.928400697965488"><ele>511.0</ele><time>2026-04-19T09:00:03.015Z</time></trkpt><trkpt lat="42.15058996859004" lon="11.928297607363705"><ele>511.0</ele><time>2026-04-19T09:00:04.015Z</time></trkpt><trkpt lat="42.150600972371684" lon="11.92820628624548"><ele>511.0</ele><time>2026-04-19T09:00:05.015Z</time></trkpt><trkpt lat="42.15062127813994" lon="11.928086684813884"><ele>511.00000000000006</ele><time>2026-04-19T09:00:07.015Z</time></trkpt><trkpt lat="42.15063775750401" lon="11.927994690542901"><ele>511.0</ele><time>2026-04-19T09:00:09.015Z</time></trkpt><trkpt lat="42.150663203412876" lon="11.927894680127702"><ele>511.6666666666667</ele><time>2026-04-19T09:00:11.015Z</time></trkpt><trkpt lat="42.15067425753224" lon="11.927788566480324"><ele>512.3333333333334</ele><time>2026-04-19T09:00:13.015Z</time></trkpt><trkpt lat="42.15069069298661" lon="11.927687089966078"><ele>513.0</ele><time>2026-04-19T09:00:16.015Z</time></trkpt><trkpt lat="42.150706563866095" lon="11.92759945705887"><ele>513.6666666666666</ele><time>2026-04-19T09:00:30.016Z</time></trkpt><trkpt lat="42.15072029542908" lon="11.927470129774717"><ele>514.3333333333333</ele><time>2026-04-19T09:00:32.016Z</time></trkpt><trkpt lat="42.150723835344515" lon="11.92737424442258"><ele>515.0</ele><time>2026-04-19T09:00:33.016Z</time></trkpt><trkpt lat="42.15072779560829" lon="11.927251228125327"><ele>517.4</ele><time>2026-04-19T09:00:34.016Z</time></trkpt><trkpt lat="42.150736676317294" lon="11.927114479344407"><ele>519.8</ele><time>2026-04-19T09:00:35.016Z</time></trkpt><trkpt lat="42.15075032229561" lon="11.926987165632505"><ele>522.2</ele><time>2026-04-19T09:00:36.016Z</time></trkpt><trkpt lat="42.150763936105406" lon="11.92685875238344"><ele>524.6</ele><time>2026-04-19T09:00:37.016Z</time></trkpt><trkpt lat="42.15077738508234" lon="11.926739916240141"><ele>527.0</ele><time>2026-04-19T09:00:38.016Z</time></trkpt><trkpt lat="42.15078898759457" lon="11.926625036468922"><ele>527.8333333333333</ele><time>2026-04-19T09:00:39.016Z</time></trkpt><trkpt lat="42.15080364568841" lon="11.926511041247796"><ele>528.6666666666666</ele><time>2026-04-19T09:00:40.016Z</time></trkpt><trkpt lat="42.15081377430326" lon="11.926396542195125"><ele>529.5</ele><time>2026-04-19T09:00:41.016Z</time></trkpt><trkpt lat="42.15082561930703" lon="11.926274727709918"><ele>530.3333333333334</ele><time>2026-04-19T09:00:42.016Z</time></trkpt><trkpt lat="42.150841330377624" lon="11.926148065569784"><ele>531.1666666666667</ele><time>2026-04-19T09:00:43.016Z</time></trkpt><trkpt lat="42.15086141361954" lon="11.926029513998794"><ele>532.0</ele><time>2026-04-19T09:00:44.016Z</time></trkpt><trkpt lat="42.150882284058525" lon="11.925893843248186"><ele>532.5</ele><time>2026-04-19T09:00:45.016Z</time></trkpt><trkpt lat="42.15090358249762" lon="11.92575130456005"><ele>533.0</ele><time>2026-04-19T09:00:46.016Z</time></trkpt><trkpt lat="42.15092619122915" lon="11.925607476486427"><ele>533.5</ele><time>2026-04-19T09:00:47.016Z</time></trkpt><trkpt lat="42.15095342214372" lon="11.925458131511006"><ele>534.0</ele><time>2026-04-19T09:00:48.016Z</time></trkpt><trkpt lat="42.15097900900399" lon="11.925299632934903"><ele>534.0</ele><time>2026-04-19T09:00:49.016Z</time></trkpt><trkpt lat="42.151010387355335" lon="11.925142697799687"><ele>534.0</ele><time>2026-04-19T09:00:50.016Z</time></trkpt><trkpt lat="42.151055289011" lon="11.924977501307"><ele>534.0</ele><time>2026-04-19T09:00:51.016Z</time></trkpt><trkpt lat="42.15110986755878" lon="11.9248180051865"><ele>534.0</ele><time>2026-04-19T09:00:52.016Z</time></trkpt><trkpt lat="42.151184587536164" lon="11.924677128290611"><ele>535.25</ele><time>2026-04-19T09:00:53.016Z</time></trkpt><trkpt lat="42.15128947051076" lon="11.924548913215999"><ele>536.5</ele><time>2026-04-19T09:00:54.016Z</time></trkpt><trkpt lat="42.151397084701124" lon="11.924420266532366"><ele>537.75</ele><time>2026-04-19T09:00:55.017Z</time></trkpt><trkpt lat="42.15148511439141" lon="11.924289598358863"><ele>539.0</ele><time>2026-04-19T09:00:56.017Z</time></trkpt><trkpt lat="42.1515558776963" lon="11.924157395920927"><ele>536.5</ele><time>2026-04-19T09:00:57.017Z</time></trkpt><trkpt lat="42.15159639113894" lon="11.924002541346098"><ele>534.0</ele><time>2026-04-19T09:00:58.017Z</time></trkpt><trkpt lat="42.15161138259578" lon="11.923819054459821"><ele>531.5</ele><time>2026-04-19T09:00:59.017Z</time></trkpt><trkpt lat="42.15161293622457" lon="11.923603309488252"><ele>529.0</ele><time>2026-04-19T09:01:00.017Z</time></trkpt><trkpt lat="42.15160833713604" lon="11.923403435669925"><ele>529.25</ele><time>2026-04-19T09:01:01.017Z</time></trkpt><trkpt lat="42.151606520301044" lon="11.923207557147535"><ele>529.5</ele><time>2026-04-19T09:01:02.017Z</time></trkpt><trkpt lat="42.151603313285186" lon="11.923009141330374"><ele>529.75</ele><time>2026-04-19T09:01:03.017Z</time></trkpt><trkpt lat="42.15159515622818" lon="11.922813676261807"><ele>530.0</ele><time>2026-04-19T09:01:04.017Z</time></trkpt><trkpt lat="42.151579376101765" lon="11.922625707697508"><ele>529.25</ele><time>2026-04-19T09:01:05.017Z</time></trkpt><trkpt lat="42.151563204480986" lon="11.922450711580849"><ele>528.5</ele><time>2026-04-19T09:01:06.017Z</time></trkpt><trkpt lat="42.151544998547706" lon="11.922281195599549"><ele>527.75</ele><time>2026-04-19T09:01:07.017Z</time></trkpt><trkpt lat="42.15151517637028" lon="11.922115857959753"><ele>527.0</ele><time>2026-04-19T09:01:08.017Z</time></trkpt><trkpt lat="42.151459543818135" lon="11.921976435433793"><ele>526.75</ele><time>2026-04-19T09:01:09.017Z</time></trkpt><trkpt lat="42.15137990196697" lon="11.921845851716212"><ele>526.5</ele><time>2026-04-19T09:01:10.017Z</time></trkpt><trkpt lat="42.15128622592609" lon="11.921709106847633"><ele>526.25</ele><time>2026-04-19T09:01:11.017Z</time></trkpt><trkpt lat="42.151188730181495" lon="11.921562950576053"><ele>526.0</ele><time>2026-04-19T09:01:12.017Z</time></trkpt><trkpt lat="42.15109192156458" lon="11.92140731505068"><ele>526.75</ele><time>2026-04-19T09:01:13.017Z</time></trkpt><trkpt lat="42.15101001629306" lon="11.921250625766405"><ele>527.5</ele><time>2026-04-19T09:01:14.017Z</time></trkpt><trkpt lat="42.15092659795344" lon="11.921104386202272"><ele>528.25</ele><time>2026-04-19T09:01:15.017Z</time></trkpt><trkpt lat="42.1508459889091" lon="11.920961615062492"><ele>529.0</ele><time>2026-04-19T09:01:16.017Z</time></trkpt><trkpt lat="42.1507624258538" lon="11.92082374161866"><ele>523.25</ele><time>2026-04-19T09:01:17.017Z</time></trkpt><trkpt lat="42.15067957332757" lon="11.920681270802005"><ele>517.5</ele><time>2026-04-19T09:01:18.017Z</time></trkpt><trkpt lat="42.150604122718285" lon="11.920537794135852"><ele>511.75</ele><time>2026-04-19T09:01:19.017Z</time></trkpt><trkpt lat="42.15052993606005" lon="11.920409080410666"><ele>506.0</ele><time>2026-04-19T09:01:20.017Z</time></trkpt><trkpt lat="42.15046582195759" lon="11.92028146864029"><ele>506.0</ele><time>2026-04-19T09:01:21.017Z</time></trkpt><trkpt lat="42.15040534269736" lon="11.92016219678365"><ele>506.0</ele><time>2026-04-19T09:01:22.017Z</time></trkpt><trkpt lat="42.15036669182939" lon="11.92007893354619"><ele>506.0</ele><time>2026-04-19T09:01:23.017Z</time></trkpt><trkpt lat="42.15031284451622" lon="11.919981824153988"><ele>506.0</ele><time>2026-04-19T09:01:25.017Z</time></trkpt><trkpt lat="42.15002464343441" lon="11.92005928118508"><ele>506.16666666666663</ele><time>2026-04-19T09:01:28.017Z</time></trkpt><trkpt lat="42.149943915437724" lon="11.920025618586367"><ele>506.3333333333333</ele><time>2026-04-19T09:01:29.017Z</time></trkpt><trkpt lat="42.14985708946894" lon="11.920047158674043"><ele>506.5</ele><time>2026-04-19T09:01:30.017Z</time></trkpt><trkpt lat="42.14977170175917" lon="11.920130145915998"><ele>506.66666666666663</ele><time>2026-04-19T09:01:31.018Z</time></trkpt><trkpt lat="42.14971756951379" lon="11.920219914837809"><ele>506.8333333333333</ele><time>2026-04-19T09:01:32.018Z</time></trkpt><trkpt lat="42.14968331868907" lon="11.920314406973683"><ele>507.0</ele><time>2026-04-19T09:01:33.018Z</time></trkpt><trkpt lat="42.149676458437476" lon="11.920432108515183"><ele>505.5</ele><time>2026-04-19T09:01:34.018Z</time></trkpt><trkpt lat="42.14967011646122" lon="11.920533707272167"><ele>504.0</ele><time>2026-04-19T09:01:35.018Z</time></trkpt><trkpt lat="42.149647953813634" lon="11.92064962077013"><ele>502.5</ele><time>2026-04-19T09:01:36.018Z</time></trkpt><trkpt lat="42.14961604879709" lon="11.920763026204467"><ele>501.0</ele><time>2026-04-19T09:01:37.018Z</time></trkpt><trkpt lat="42.14957060475255" lon="11.920858754024568"><ele>499.5</ele><time>2026-04-19T09:01:38.018Z</time></trkpt><trkpt lat="42.149510654573014" lon="11.920932873740872"><ele>498.0</ele><time>2026-04-19T09:01:39.018Z</time></trkpt><trkpt lat="42.14945389763357" lon="11.9209882113023"><ele>496.0</ele><time>2026-04-19T09:01:40.018Z</time></trkpt><trkpt lat="42.1493827858905" lon="11.92103997813539"><ele>493.99999999999994</ele><time>2026-04-19T09:01:41.018Z</time></trkpt><trkpt lat="42.14930911401797" lon="11.921072983492996"><ele>491.99999999999994</ele><time>2026-04-19T09:01:42.018Z</time></trkpt><trkpt lat="42.14920750456367" lon="11.921109506813675"><ele>490.0</ele><time>2026-04-19T09:01:43.018Z</time></trkpt><trkpt lat="42.1491049224334" lon="11.92113581730668"><ele>488.0</ele><time>2026-04-19T09:01:44.018Z</time></trkpt><trkpt lat="42.14900118653692" lon="11.921160526247673"><ele>521.0</ele><time>2026-04-19T09:01:45.018Z</time></trkpt><trkpt lat="42.15092659795344" lon="11.921104386202272"><ele>521.0</ele><time>2026-04-19T09:01:15.017Z</time></trkpt><trkpt lat="42.1508459889091" lon="11.920961615062492"><ele>521.0</ele><time>2026-04-19T09:01:16.017Z</time></trkpt><trkpt lat="42.1507624258538" lon="11.92082374161866"><ele>521.0</ele><time>2026-04-19T09:01:17.017Z</time></trkpt><trkpt lat="42.15067957332757" lon="11.920681270802005"><ele>521.0</ele><time>2026-04-19T09:01:18.017Z</time></trkpt><trkpt lat="42.150604122718285" lon="11.920537794135852"><ele>519.8</ele><time>2026-04-19T09:01:19.017Z</time></trkpt><trkpt lat="42.15052993606005" lon="11.920409080410666"><ele>518.6</ele><time>2026-04-19T09:01:20.017Z</time></trkpt><trkpt lat="42.15046582195759" lon="11.92028146864029"><ele>517.4</ele><time>2026-04-19T09:01:21.017Z</time></trkpt><trkpt lat="42.15040534269736" lon="11.92016219678365"><ele>516.2</ele><time>2026-04-19T09:01:22.017Z</time></trkpt><trkpt lat="42.15036669182939" lon="11.92007893354619"><ele>515.0</ele><time>2026-04-19T09:01:23.017Z</time></trkpt><trkpt lat="42.15031284451622" lon="11.919981824153988"><ele>515.0</ele><time>2026-04-19T09:01:25.017Z</time></trkpt><trkpt lat="42.15002464343441" lon="11.92005928118508"><ele>515.0</ele><time>2026-04-19T09:01:28.017Z</time></trkpt><trkpt lat="42.149943915437724" lon="11.920025618586367"><ele>515.0</ele><time>2026-04-19T09:01:29.017Z</time></trkpt><trkpt lat="42.14985708946894" lon="11.920047158674043"><ele>512.1666666666666</ele><time>2026-04-19T09:01:30.017Z</time></trkpt><trkpt lat="42.14977170175917" lon="11.920130145915998"><ele>509.3333333333333</ele><time>2026-04-19T09:01:31.018Z</time></trkpt><trkpt lat="42.14971756951379" lon="11.920219914837809"><ele>506.5</ele><time>2026-04-19T09:01:32.018Z</time></trkpt><trkpt lat="42.14968331868907" lon="11.920314406973683"><ele>503.66666666666663</ele><time>2026-04-19T09:01:33.018Z</time></trkpt><trkpt lat="42.149676458437476" lon="11.920432108515183"><ele>500.8333333333333</ele><time>2026-04-19T09:01:34.018Z</time></trkpt><trkpt lat="42.14967011646122" lon="11.920533707272167"><ele>498.0</ele><time>2026-04-19T09:01:35.018Z</time></trkpt><trkpt lat="42.149647953813634" lon="11.92064962077013"><ele>498.0</ele><time>2026-04-19T09:01:36.018Z</time></trkpt><trkpt lat="42.14961604879709" lon="11.920763026204467"><ele>498.0</ele><time>2026-04-19T09:01:37.018Z</time></trkpt><trkpt lat="42.14957060475255" lon="11.920858754024568"><ele>498.0</ele><time>2026-04-19T09:01:38.018Z</time></trkpt><trkpt lat="42.149510654573014" lon="11.920932873740872"><ele>498.0</ele><time>2026-04-19T09:01:39.018Z</time></trkpt><trkpt lat="42.14945389763357" lon="11.9209882113023"><ele>498.0</ele><time>2026-04-19T09:01:40.018Z</time></trkpt><trkpt lat="42.1493827858905" lon="11.92103997813539"><ele>498.0</ele><time>2026-04-19T09:01:41.018Z</time></trkpt><trkpt lat="42.14930911401797" lon="11.921072983492996"><ele>496.0</ele><time>2026-04-19T09:01:42.018Z</time></trkpt><trkpt lat="42.14920750456367" lon="11.921109506813675"><ele>493.99999999999994</ele><time>2026-04-19T09:01:43.018Z</time></trkpt><trkpt lat="42.1491049224334" lon="11.92113581730668"><ele>491.99999999999994</ele><time>2026-04-19T09:01:44.018Z</time></trkpt><trkpt lat="42.14900118653692" lon="11.921160526247673"><ele>490.0</ele><time>2026-04-19T09:01:45.018Z</time></trkpt><trkpt lat="42.14889524147659" lon="11.921175955989819"><ele>488.0</ele><time>2026-04-19T09:01:46.018Z</time></trkpt><trkpt lat="42.14878647080883" lon="11.921190623285385"><ele>486.4</ele><time>2026-04-19T09:01:47.018Z</time></trkpt><trkpt lat="42.148679894060564" lon="11.921218822958876"><ele>484.79999999999995</ele><time>2026-04-19T09:01:48.018Z</time></trkpt><trkpt lat="42.148571263609256" lon="11.921236393433064"><ele>483.2</ele><time>2026-04-19T09:01:49.018Z</time></trkpt><trkpt lat="42.14847185700142" lon="11.921250522116207"><ele>481.6</ele><time>2026-04-19T09:01:50.018Z</time></trkpt><trkpt lat="42.148374013458046" lon="11.921262905366865"><ele>480.0</ele><time>2026-04-19T09:01:51.018Z</time></trkpt><trkpt lat="42.1482821481886" lon="11.921218602484151"><ele>480.0</ele><time>2026-04-19T09:01:52.018Z</time></trkpt><trkpt lat="42.148218579317145" lon="11.921180778237636"><ele>480.0</ele><time>2026-04-19T09:01:53.018Z</time></trkpt><trkpt lat="42.148142170952745" lon="11.921153118111059"><ele>480.0</ele><time>2026-04-19T09:01:54.018Z</time></trkpt><trkpt lat="42.148079728022076" lon="11.921100342929272"><ele>480.0</ele><time>2026-04-19T09:01:55.018Z</time></trkpt><trkpt lat="42.14803927109715" lon="11.92101976680602"><ele>480.0</ele><time>2026-04-19T09:01:56.018Z</time></trkpt><trkpt lat="42.14800092906461" lon="11.920904123478024"><ele>480.0</ele><time>2026-04-19T09:01:57.018Z</time></trkpt><trkpt lat="42.14795567883689" lon="11.92078066570505"><ele>477.6</ele><time>2026-04-19T09:01:58.018Z</time></trkpt><trkpt lat="42.14791715772539" lon="11.920640004449158"><ele>475.2</ele><time>2026-04-19T09:01:59.018Z</time></trkpt><trkpt lat="42.147878638859076" lon="11.92052362456363"><ele>472.79999999999995</ele><time>2026-04-19T09:02:00.018Z</time></trkpt><trkpt lat="42.14783447585466" lon="11.920402688863042"><ele>470.4</ele><time>2026-04-19T09:02:01.018Z</time></trkpt><trkpt lat="42.14779899449926" lon="11.920280582457334"><ele>468.0</ele><time>2026-04-19T09:02:02.018Z</time></trkpt><trkpt lat="42.14778833582718" lon="11.920143363048794"><ele>468.5</ele><time>2026-04-19T09:02:03.018Z</time></trkpt><trkpt lat="42.147805720097374" lon="11.919998199056439"><ele>469.0</ele><time>2026-04-19T09:02:04.018Z</time></trkpt><trkpt lat="42.147828705363544" lon="11.919878420570395"><ele>469.5</ele><time>2026-04-19T09:02:05.018Z</time></trkpt><trkpt lat="42.14783001519446" lon="11.919779295351438"><ele>470.0</ele><time>2026-04-19T09:02:06.018Z</time></trkpt><trkpt lat="42.14781546372902" lon="11.919694951208514"><ele>470.5</ele><time>2026-04-19T09:02:07.019Z</time></trkpt><trkpt lat="42.14776260776362" lon="11.919599653590971"><ele>471.0</ele><time>2026-04-19T09:02:08.019Z</time></trkpt><trkpt lat="42.14770098653123" lon="11.91947826022129"><ele>471.0</ele><time>2026-04-19T09:02:09.019Z</time></trkpt><trkpt lat="42.14762081329253" lon="11.919364692762203"><ele>471.0</ele><time>2026-04-19T09:02:10.019Z</time></trkpt><trkpt lat="42.14754093803208" lon="11.919259759645675"><ele>471.0</ele><time>2026-04-19T09:02:11.019Z</time></trkpt><trkpt lat="42.147447767419386" lon="11.91915412718462"><ele>471.0</ele><time>2026-04-19T09:02:12.019Z</time></trkpt><trkpt lat="42.14735482862885" lon="11.919062114528481"><ele>468.8</ele><time>2026-04-19T09:02:13.019Z</time></trkpt><trkpt lat="42.14726363033483" lon="11.918982906119213"><ele>466.6</ele><time>2026-04-19T09:02:14.019Z</time></trkpt><trkpt lat="42.14717555430354" lon="11.91892079818415"><ele>464.4</ele><time>2026-04-19T09:02:15.019Z</time></trkpt><trkpt lat="42.14708934363797" lon="11.91887049463212"><ele>462.2</ele><time>2026-04-19T09:02:16.019Z</time></trkpt><trkpt lat="42.14700667221538" lon="11.91883094466677"><ele>460.0</ele><time>2026-04-19T09:02:17.019Z</time></trkpt><trkpt lat="42.146908562737316" lon="11.918795581621014"><ele>460.0</ele><time>2026-04-19T09:02:18.019Z</time></trkpt><trkpt lat="42.14682295093357" lon="11.918776446537924"><ele>460.0</ele><time>2026-04-19T09:02:19.019Z</time></trkpt><trkpt lat="42.14673998358875" lon="11.918766390503441"><ele>460.0</ele><time>2026-04-19T09:02:20.019Z</time></trkpt><trkpt lat="42.14666920672399" lon="11.9187619256079"><ele>460.0</ele><time>2026-04-19T09:02:22.019Z</time></trkpt><trkpt lat="42.14659071838469" lon="11.918760404150127"><ele>460.0</ele><time>2026-04-19T09:02:26.019Z</time></trkpt><trkpt lat="42.14644850791553" lon="11.918791124834717"><ele>458.33333333333337</ele><time>2026-04-19T09:02:28.019Z</time></trkpt><trkpt lat="42.146371276113854" lon="11.918827966726314"><ele>456.6666666666667</ele><time>2026-04-19T09:02:29.019Z</time></trkpt><trkpt lat="42.14630609504482" lon="11.918852291542262"><ele>455.0</ele><time>2026-04-19T09:02:30.019Z</time></trkpt><trkpt lat="42.14623201936569" lon="11.918874792599386"><ele>453.33333333333337</ele><time>2026-04-19T09:02:31.019Z</time></trkpt><trkpt lat="42.146155963877234" lon="11.91887229063656"><ele>451.6666666666667</ele><time>2026-04-19T09:02:32.019Z</time></trkpt><trkpt lat="42.14607155933368" lon="11.918846202053281"><ele>450.0</ele><time>2026-04-19T09:02:33.019Z</time></trkpt><trkpt lat="42.14597727124554" lon="11.91879486364328"><ele>450.0</ele><time>2026-04-19T09:02:34.019Z</time></trkpt><trkpt lat="42.14590320637309" lon="11.918716594837074"><ele>450.0</ele><time>2026-04-19T09:02:35.019Z</time></trkpt><trkpt lat="42.14582352829709" lon="11.918619991073408"><ele>450.0</ele><time>2026-04-19T09:02:36.019Z</time></trkpt><trkpt lat="42.14572922646633" lon="11.918528697705433"><ele>450.0</ele><time>2026-04-19T09:02:37.019Z</time></trkpt><trkpt lat="42.14564420207517" lon="11.918384928489846"><ele>445.75</ele><time>2026-04-19T09:02:38.019Z</time></trkpt><trkpt lat="42.14555038781028" lon="11.9182574653733"><ele>441.5</ele><time>2026-04-19T09:02:39.019Z</time></trkpt><trkpt lat="42.14545477278966" lon="11.918131054850035"><ele>437.25</ele><time>2026-04-19T09:02:40.019Z</time></trkpt><trkpt lat="42.14536870037664" lon="11.918000860207828"><ele>433.0</ele><time>2026-04-19T09:02:41.019Z</time></trkpt><trkpt lat="42.14530713541173" lon="11.917846648207872"><ele>433.0</ele><time>2026-04-19T09:02:42.019Z</time></trkpt><trkpt lat="42.14522851147855" lon="11.917711188164004"><ele>433.0</ele><time>2026-04-19T09:02:43.02Z</time></trkpt><trkpt lat="42.145165783260644" lon="11.91757061742241"><ele>433.0</ele><time>2026-04-19T09:02:44.02Z</time></trkpt><trkpt lat="42.145106406927816" lon="11.917455871321607"><ele>433.0</ele><time>2026-04-19T09:02:45.02Z</time></trkpt><trkpt lat="42.145043107349395" lon="11.917348620596494"><ele>432.2</ele><time>2026-04-19T09:02:46.02Z</time></trkpt><trkpt lat="42.144968636072015" lon="11.917280483933897"><ele>431.4</ele><time>2026-04-19T09:02:47.02Z</time></trkpt><trkpt lat="42.144882798787165" lon="11.91723514637524"><ele>430.59999999999997</ele><time>2026-04-19T09:02:48.02Z</time></trkpt><trkpt lat="42.144766721970825" lon="11.917238054179247"><ele>429.79999999999995</ele><time>2026-04-19T09:02:49.02Z</time></trkpt><trkpt lat="42.14466451834255" lon="11.91725893694309"><ele>429.0</ele><time>2026-04-19T09:02:50.02Z</time></trkpt><trkpt lat="42.14455413499525" lon="11.917299861793554"><ele>429.0</ele><time>2026-04-19T09:02:52.02Z</time></trkpt><trkpt lat="42.14452339612214" lon="11.917388104592366"><ele>429.0</ele><time>2026-04-19T09:02:53.02Z</time></trkpt><trkpt lat="42.14457714397007" lon="11.917489566836878"><ele>429.0</ele><time>2026-04-19T09:02:54.02Z</time></trkpt><trkpt lat="42.14457975523599" lon="11.917594016369799"><ele>429.0</ele><time>2026-04-19T09:02:55.02Z</time></trkpt><trkpt lat="42.144594009176465" lon="11.917712687606445"><ele>429.0</ele><time>2026-04-19T09:02:56.02Z</time></trkpt><trkpt lat="42.14461236920177" lon="11.917822640338434"><ele>429.0</ele><time>2026-04-19T09:02:57.02Z</time></trkpt><trkpt lat="42.14461522470885" lon="11.91793251909074"><ele>426.5</ele><time>2026-04-19T09:02:58.02Z</time></trkpt><trkpt lat="42.1446268122966" lon="11.918031279212723"><ele>424.0</ele><time>2026-04-19T09:02:59.02Z</time></trkpt><trkpt lat="42.14468544558241" lon="11.9182033871961"><ele>421.5</ele><time>2026-04-19T09:03:01.02Z</time></trkpt><trkpt lat="42.144739111790095" lon="11.918303478546934"><ele>419.0</ele><time>2026-04-19T09:03:02.02Z</time></trkpt><trkpt lat="42.14476355658334" lon="11.91839154429875"><ele>416.5</ele><time>2026-04-19T09:03:03.02Z</time></trkpt><trkpt lat="42.14480069808148" lon="11.918472814333287"><ele>414.0</ele><time>2026-04-19T09:03:04.02Z</time></trkpt><trkpt lat="42.14483726949813" lon="11.918551731329304"><ele>411.8333333333333</ele><time>2026-04-19T09:03:05.02Z</time></trkpt><trkpt lat="42.14489118816718" lon="11.918662990884462"><ele>409.66666666666663</ele><time>2026-04-19T09:03:07.02Z</time></trkpt><trkpt lat="42.14490153288582" lon="11.918749567694002"><ele>407.5</ele><time>2026-04-19T09:03:08.02Z</time></trkpt><trkpt lat="42.1448862880192" lon="11.918839136620445"><ele>405.3333333333333</ele><time>2026-04-19T09:03:09.02Z</time></trkpt><trkpt lat="42.144881089456035" lon="11.918926753681973"><ele>403.16666666666663</ele><time>2026-04-19T09:03:10.02Z</time></trkpt><trkpt lat="42.144873630413585" lon="11.919025249125092"><ele>401.0</ele><time>2026-04-19T09:03:11.02Z</time></trkpt><trkpt lat="42.14485337704524" lon="11.919205339856628"><ele>400.14285714285717</ele><time>2026-04-19T09:03:13.02Z</time></trkpt><trkpt lat="42.14484058181676" lon="11.91930384539158"><ele>399.28571428571433</ele><time>2026-04-19T09:03:14.02Z</time></trkpt><trkpt lat="42.1448294333629" lon="11.919390368563544"><ele>398.42857142857144</ele><time>2026-04-19T09:03:15.02Z</time></trkpt><trkpt lat="42.14481565975489" lon="11.919481027328594"><ele>397.57142857142856</ele><time>2026-04-19T09:03:16.02Z</time></trkpt><trkpt lat="42.144799111539136" lon="11.919578004875923"><ele>396.7142857142857</ele><time>2026-04-19T09:03:17.02Z</time></trkpt><trkpt lat="42.14479738331762" lon="11.919683962454632"><ele>395.85714285714283</ele><time>2026-04-19T09:03:18.02Z</time></trkpt><trkpt lat="42.144821488780735" lon="11.919784524254437"><ele>395.0</ele><time>2026-04-19T09:03:19.021Z</time></trkpt><trkpt lat="42.144865149063456" lon="11.9198751590041"><ele>397.99999999999994</ele><time>2026-04-19T09:03:20.021Z</time></trkpt><trkpt lat="42.14493341014631" lon="11.919970728529098"><ele>401.0</ele><time>2026-04-19T09:03:21.021Z</time></trkpt><trkpt lat="42.145010219573386" lon="11.920031766308744"><ele>404.0</ele><time>2026-04-19T09:03:22.021Z</time></trkpt><trkpt lat="42.14507020221605" lon="11.920073202123227"><ele>407.0</ele><time>2026-04-19T09:03:23.021Z</time></trkpt><trkpt lat="42.14507242468498" lon="11.920206060991976"><ele>409.99999999999994</ele><time>2026-04-19T09:03:28.021Z</time></trkpt><trkpt lat="42.145002349823336" lon="11.920131804106058"><ele>413.0</ele><time>2026-04-19T09:03:29.021Z</time></trkpt><trkpt lat="42.14492415795579" lon="11.920080016721402"><ele>409.4</ele><time>2026-04-19T09:03:30.021Z</time></trkpt><trkpt lat="42.14481995993819" lon="11.920013617043523"><ele>405.79999999999995</ele><time>2026-04-19T09:03:31.021Z</time></trkpt><trkpt lat="42.14472143290015" lon="11.919954467763965"><ele>402.2</ele><time>2026-04-19T09:03:32.021Z</time></trkpt><trkpt lat="42.14463384460026" lon="11.91989924243104"><ele>398.6</ele><time>2026-04-19T09:03:33.021Z</time></trkpt><trkpt lat="42.144558747158996" lon="11.919849648655818"><ele>395.0</ele><time>2026-04-19T09:03:34.021Z</time></trkpt><trkpt lat="42.14448365214625" lon="11.919797245308532"><ele>394.99999999999994</ele><time>2026-04-19T09:03:35.021Z</time></trkpt><trkpt lat="42.144404860289306" lon="11.919758809466202"><ele>395.0</ele><time>2026-04-19T09:03:36.021Z</time></trkpt><trkpt lat="42.14433228651938" lon="11.91972312040567"><ele>395.0</ele><time>2026-04-19T09:03:37.021Z</time></trkpt><trkpt lat="42.14425428416041" lon="11.919669940569277"><ele>395.0</ele><time>2026-04-19T09:03:39.021Z</time></trkpt><trkpt lat="42.14418683262435" lon="11.919607156535795"><ele>394.99999999999994</ele><time>2026-04-19T09:03:46.021Z</time></trkpt><trkpt lat="42.144125545117525" lon="11.919561677618653"><ele>395.0</ele><time>2026-04-19T09:03:49.021Z</time></trkpt><trkpt lat="42.14406223723794" lon="11.919509626702798"><ele>395.0</ele><time>2026-04-19T09:03:52.021Z</time></trkpt><trkpt lat="42.14403404502662" lon="11.919421816107755"><ele>395.0</ele><time>2026-04-19T09:03:53.021Z</time></trkpt><trkpt lat="42.144051812119365" lon="11.919325679201537"><ele>395.0</ele><time>2026-04-19T09:03:54.021Z</time></trkpt><trkpt lat="42.14401227654132" lon="11.919182760601792"><ele>395.0</ele><time>2026-04-19T09:03:56.022Z</time></trkpt><trkpt lat="42.14394637569095" lon="11.919043276749406"><ele>395.0</ele><time>2026-04-19T09:03:58.022Z</time></trkpt><trkpt lat="42.14388137697654" lon="11.918954835730695"><ele>392.0</ele><time>2026-04-19T09:04:00.022Z</time></trkpt><trkpt lat="42.143798722286476" lon="11.918864278508462"><ele>389.0</ele><time>2026-04-19T09:04:02.022Z</time></trkpt><trkpt lat="42.143719154974946" lon="11.918871269481208"><ele>386.0</ele><time>2026-04-19T09:04:03.022Z</time></trkpt><trkpt lat="42.14361413207604" lon="11.918896948558652"><ele>383.0</ele><time>2026-04-19T09:04:05.022Z</time></trkpt><trkpt lat="42.14350803916995" lon="11.918919699505162"><ele>380.0</ele><time>2026-04-19T09:04:07.022Z</time></trkpt><trkpt lat="42.14337985126351" lon="11.91889320866222"><ele>380.0</ele><time>2026-04-19T09:04:09.022Z</time></trkpt><trkpt lat="42.143283896956824" lon="11.91878824110312"><ele>380.0</ele><time>2026-04-19T09:04:11.022Z</time></trkpt><trkpt lat="42.14324470099125" lon="11.918691084470996"><ele>380.0</ele><time>2026-04-19T09:04:12.022Z</time></trkpt><trkpt lat="42.14321150172542" lon="11.918612132832356"><ele>380.0</ele><time>2026-04-19T09:04:13.022Z</time></trkpt><trkpt lat="42.14316496407292" lon="11.91853342768335"><ele>380.0</ele><time>2026-04-19T09:04:14.022Z</time></trkpt><trkpt lat="42.14311497294202" lon="11.918435591324078"><ele>380.0</ele><time>2026-04-19T09:04:15.022Z</time></trkpt><trkpt lat="42.1430674325482" lon="11.918333847743344"><ele>380.0</ele><time>2026-04-19T09:04:16.022Z</time></trkpt><trkpt lat="42.143040022064326" lon="11.918245718101003"><ele>380.0</ele><time>2026-04-19T09:04:17.022Z</time></trkpt><trkpt lat="42.14299881773052" lon="11.91816062816587"><ele>380.0</ele><time>2026-04-19T09:04:18.022Z</time></trkpt><trkpt lat="42.14295862667079" lon="11.918079478371086"><ele>380.0</ele><time>2026-04-19T09:04:19.022Z</time></trkpt><trkpt lat="42.14292171696801" lon="11.917968825246259"><ele>380.0</ele><time>2026-04-19T09:04:20.022Z</time></trkpt><trkpt lat="42.14289438189357" lon="11.917866823526236"><ele>380.0</ele><time>2026-04-19T09:04:21.022Z</time></trkpt><trkpt lat="42.14285300747503" lon="11.91774189570058"><ele>380.0</ele><time>2026-04-19T09:04:22.022Z</time></trkpt><trkpt lat="42.142835953092224" lon="11.917624258469663"><ele>380.0</ele><time>2026-04-19T09:04:23.022Z</time></trkpt><trkpt lat="42.14281254236224" lon="11.917537182253477"><ele>380.0</ele><time>2026-04-19T09:04:24.022Z</time></trkpt><trkpt lat="42.14279268579336" lon="11.917451885384585"><ele>380.0</ele><time>2026-04-19T09:04:25.022Z</time></trkpt><trkpt lat="42.14277170333919" lon="11.917354582890779"><ele>380.0</ele><time>2026-04-19T09:04:26.022Z</time></trkpt><trkpt lat="42.14275982345573" lon="11.917239081703578"><ele>380.0</ele><time>2026-04-19T09:04:27.022Z</time></trkpt><trkpt lat="42.1427689098451" lon="11.91711908466104"><ele>380.2</ele><time>2026-04-19T09:04:28.022Z</time></trkpt><trkpt lat="42.142807817291185" lon="11.916986071436924"><ele>380.4</ele><time>2026-04-19T09:04:29.022Z</time></trkpt><trkpt lat="42.14284507116212" lon="11.91686811340784"><ele>380.6</ele><time>2026-04-19T09:04:30.022Z</time></trkpt><trkpt lat="42.14288837377638" lon="11.916744145890707"><ele>380.8</ele><time>2026-04-19T09:04:31.023Z</time></trkpt><trkpt lat="42.1429360953892" lon="11.91662494486516"><ele>381.0</ele><time>2026-04-19T09:04:32.023Z</time></trkpt><trkpt lat="42.14297978380213" lon="11.916503425238"><ele>381.4</ele><time>2026-04-19T09:04:33.023Z</time></trkpt><trkpt lat="42.1430294716041" lon="11.916394798186085"><ele>381.8</ele><time>2026-04-19T09:04:34.023Z</time></trkpt><trkpt lat="42.143095558258786" lon="11.916294937908079"><ele>382.2</ele><time>2026-04-19T09:04:35.023Z</time></trkpt><trkpt lat="42.1431557065241" lon="11.916199411894603"><ele>382.59999999999997</ele><time>2026-04-19T09:04:36.023Z</time></trkpt><trkpt lat="42.14321206717013" lon="11.916118867091589"><ele>383.0</ele><time>2026-04-19T09:04:37.023Z</time></trkpt><trkpt lat="42.14326599153484" lon="11.916035388081898"><ele>384.6666666666667</ele><time>2026-04-19T09:04:38.023Z</time></trkpt><trkpt lat="42.143322390396456" lon="11.915937188145096"><ele>386.33333333333337</ele><time>2026-04-19T09:04:40.023Z</time></trkpt><trkpt lat="42.143322558645465" lon="11.915843262651197"><ele>388.0</ele><time>2026-04-19T09:04:41.023Z</time></trkpt><trkpt lat="42.14332276613957" lon="11.91571124021339"><ele>389.6666666666667</ele><time>2026-04-19T09:04:42.023Z</time></trkpt><trkpt lat="42.143338160804305" lon="11.915590730602354"><ele>391.3333333333333</ele><time>2026-04-19T09:04:43.023Z</time></trkpt><trkpt lat="42.143348615800925" lon="11.915476293324017"><ele>393.0</ele><time>2026-04-19T09:04:44.023Z</time></trkpt><trkpt lat="42.143367059458335" lon="11.915361547910397"><ele>393.0</ele><time>2026-04-19T09:04:45.023Z</time></trkpt><trkpt lat="42.143385250441845" lon="11.915267101125231"><ele>393.0</ele><time>2026-04-19T09:04:46.023Z</time></trkpt><trkpt lat="42.14344791946929" lon="11.915147943741118"><ele>393.0</ele><time>2026-04-19T09:04:48.023Z</time></trkpt><trkpt lat="42.143502582503835" lon="11.9150884249682"><ele>393.0</ele><time>2026-04-19T09:04:50.023Z</time></trkpt><trkpt lat="42.14360771352306" lon="11.915013218131946"><ele>393.0</ele><time>2026-04-19T09:04:52.023Z</time></trkpt><trkpt lat="42.14366501630288" lon="11.914952141309868"><ele>393.0</ele><time>2026-04-19T09:04:53.023Z</time></trkpt><trkpt lat="42.143722331475054" lon="11.914909825138993"><ele>392.3333333333333</ele><time>2026-04-19T09:04:54.023Z</time></trkpt><trkpt lat="42.14379750701722" lon="11.914865780508245"><ele>391.66666666666663</ele><time>2026-04-19T09:04:55.023Z</time></trkpt><trkpt lat="42.14387994143869" lon="11.914829872653037"><ele>391.0</ele><time>2026-04-19T09:04:56.023Z</time></trkpt><trkpt lat="42.14396979077249" lon="11.914778786876388"><ele>390.3333333333333</ele><time>2026-04-19T09:04:57.023Z</time></trkpt><trkpt lat="42.144045024671364" lon="11.914764999411943"><ele>389.66666666666663</ele><time>2026-04-19T09:04:58.023Z</time></trkpt><trkpt lat="42.144130002117336" lon="11.914784660979914"><ele>389.0</ele><time>2026-04-19T09:04:59.023Z</time></trkpt><trkpt lat="42.144222836493334" lon="11.914815523131983"><ele>393.4</ele><time>2026-04-19T09:05:00.023Z</time></trkpt><trkpt lat="42.144319474432024" lon="11.914863471820022"><ele>397.79999999999995</ele><time>2026-04-19T09:05:01.023Z</time></trkpt><trkpt lat="42.14439642754367" lon="11.914882468733811"><ele>402.20000000000005</ele><time>2026-04-19T09:05:02.023Z</time></trkpt><trkpt lat="42.144450721513046" lon="11.914837542374176"><ele>406.6</ele><time>2026-04-19T09:05:04.023Z</time></trkpt><trkpt lat="42.14446422949113" lon="11.914718840577894"><ele>411.0</ele><time>2026-04-19T09:05:06.023Z</time></trkpt><trkpt lat="42.14435338691788" lon="11.914576119673157"><ele>411.0</ele><time>2026-04-19T09:05:08.024Z</time></trkpt><trkpt lat="42.144256963331834" lon="11.914465440883918"><ele>411.0</ele><time>2026-04-19T09:05:09.024Z</time></trkpt><trkpt lat="42.1441745714057" lon="11.91437860834095"><ele>411.0</ele><time>2026-04-19T09:05:10.024Z</time></trkpt><trkpt lat="42.14409046908679" lon="11.914304378815759"><ele>411.0</ele><time>2026-04-19T09:05:11.024Z</time></trkpt><trkpt lat="42.1440371940312" lon="11.914232061605858"><ele>411.0</ele><time>2026-04-19T09:05:12.024Z</time></trkpt><trkpt lat="42.143985902141864" lon="11.914146394929114"><ele>408.8</ele><time>2026-04-19T09:05:13.024Z</time></trkpt><trkpt lat="42.14397451974153" lon="11.914056708043354"><ele>406.6</ele><time>2026-04-19T09:05:14.024Z</time></trkpt><trkpt lat="42.143988595007066" lon="11.913948120366138"><ele>404.4</ele><time>2026-04-19T09:05:15.024Z</time></trkpt><trkpt lat="42.144020516100916" lon="11.913828141965805"><ele>402.2</ele><time>2026-04-19T09:05:16.024Z</time></trkpt><trkpt lat="42.1440744245183" lon="11.913690844664599"><ele>400.0</ele><time>2026-04-19T09:05:17.024Z</time></trkpt><trkpt lat="42.14413437022852" lon="11.913540224837101"><ele>400.75</ele><time>2026-04-19T09:05:18.024Z</time></trkpt><trkpt lat="42.144187953169016" lon="11.913384092349943"><ele>401.5</ele><time>2026-04-19T09:05:19.024Z</time></trkpt><trkpt lat="42.14423292919843" lon="11.913225738304508"><ele>402.25</ele><time>2026-04-19T09:05:20.024Z</time></trkpt><trkpt lat="42.14426456729713" lon="11.913059366054407"><ele>403.0</ele><time>2026-04-19T09:05:21.024Z</time></trkpt><trkpt lat="42.144285829051945" lon="11.91290072932348"><ele>403.0</ele><time>2026-04-19T09:05:22.024Z</time></trkpt><trkpt lat="42.144327302530186" lon="11.912740795199072"><ele>403.0</ele><time>2026-04-19T09:05:23.024Z</time></trkpt><trkpt lat="42.1443686213936" lon="11.91258843297537"><ele>403.0</ele><time>2026-04-19T09:05:24.024Z</time></trkpt><trkpt lat="42.14439313491512" lon="11.912443148482078"><ele>403.0</ele><time>2026-04-19T09:05:25.024Z</time></trkpt><trkpt lat="42.14443626831155" lon="11.912313702763901"><ele>403.59999999999997</ele><time>2026-04-19T09:05:26.024Z</time></trkpt><trkpt lat="42.144467839715574" lon="11.912209538756821"><ele>404.2</ele><time>2026-04-19T09:05:27.024Z</time></trkpt><trkpt lat="42.14457301193682" lon="11.912126167439792"><ele>404.8</ele><time>2026-04-19T09:05:29.024Z</time></trkpt><trkpt lat="42.14463787360814" lon="11.912102591496485"><ele>405.4</ele><time>2026-04-19T09:05:30.024Z</time></trkpt><trkpt lat="42.14473417035426" lon="11.912071468903402"><ele>406.0</ele><time>2026-04-19T09:05:31.024Z</time></trkpt><trkpt lat="42.144841060961284" lon="11.912073248706298"><ele>410.20000000000005</ele><time>2026-04-19T09:05:32.024Z</time></trkpt><trkpt lat="42.14493166710435" lon="11.912051824501098"><ele>414.40000000000003</ele><time>2026-04-19T09:05:33.024Z</time></trkpt><trkpt lat="42.14505455442261" lon="11.912018690674456"><ele>418.6</ele><time>2026-04-19T09:05:34.024Z</time></trkpt><trkpt lat="42.14516211084249" lon="11.912009081363196"><ele>422.8</ele><time>2026-04-19T09:05:35.024Z</time></trkpt><trkpt lat="42.145234727623084" lon="11.911970037850528"><ele>427.0</ele><time>2026-04-19T09:05:37.024Z</time></trkpt><trkpt lat="42.14520332454239" lon="11.911866219495344"><ele>427.0</ele><time>2026-04-19T09:05:40.024Z</time></trkpt><trkpt lat="42.14505389325052" lon="11.911806388988825"><ele>427.0</ele><time>2026-04-19T09:05:42.024Z</time></trkpt><trkpt lat="42.14494262831042" lon="11.911749451667784"><ele>427.0</ele><time>2026-04-19T09:05:43.025Z</time></trkpt><trkpt lat="42.144829707999094" lon="11.911675382803114"><ele>427.0</ele><time>2026-04-19T09:05:44.025Z</time></trkpt><trkpt lat="42.144775568236696" lon="11.91159996391948"><ele>424.5</ele><time>2026-04-19T09:05:45.025Z</time></trkpt><trkpt lat="42.14478696602459" lon="11.911311173632221"><ele>422.0</ele><time>2026-04-19T09:05:48.025Z</time></trkpt><trkpt lat="42.14481488931976" lon="11.911172059373317"><ele>419.5</ele><time>2026-04-19T09:05:49.025Z</time></trkpt><trkpt lat="42.144846713236554" lon="11.91101069496581"><ele>417.0</ele><time>2026-04-19T09:05:50.025Z</time></trkpt><trkpt lat="42.14484397324053" lon="11.910868917584585"><ele>417.0</ele><time>2026-04-19T09:05:51.025Z</time></trkpt><trkpt lat="42.14480603196489" lon="11.910771725615419"><ele>417.0</ele><time>2026-04-19T09:05:52.025Z</time></trkpt><trkpt lat="42.14475015019262" lon="11.910707717055804"><ele>417.0</ele><time>2026-04-19T09:05:53.025Z</time></trkpt><trkpt lat="42.14469963795102" lon="11.910619144217142"><ele>417.0</ele><time>2026-04-19T09:05:54.025Z</time></trkpt><trkpt lat="42.1446665360572" lon="11.910524082968598"><ele>417.0</ele><time>2026-04-19T09:05:55.025Z</time></trkpt><trkpt lat="42.14467158239476" lon="11.910425409489138"><ele>417.0</ele><time>2026-04-19T09:05:56.025Z</time></trkpt><trkpt lat="42.14469925391641" lon="11.910348344515864"><ele>417.0</ele><time>2026-04-19T09:05:57.025Z</time></trkpt><trkpt lat="42.14478926694676" lon="11.910226633810833"><ele>417.0</ele><time>2026-04-19T09:05:59.025Z</time></trkpt><trkpt lat="42.14483868396011" lon="11.910167632738954"><ele>417.0</ele><time>2026-04-19T09:06:00.025Z</time></trkpt><trkpt lat="42.14486442897996" lon="11.910082055365196"><ele>417.0</ele><time>2026-04-19T09:06:01.025Z</time></trkpt><trkpt lat="42.14487314519324" lon="11.90999197149707"><ele>417.0</ele><time>2026-04-19T09:06:02.025Z</time></trkpt><trkpt lat="42.14487671171653" lon="11.909874690921036"><ele>417.0</ele><time>2026-04-19T09:06:03.025Z</time></trkpt><trkpt lat="42.14488846351923" lon="11.909748620350909"><ele>419.8</ele><time>2026-04-19T09:06:04.025Z</time></trkpt><trkpt lat="42.144916536028404" lon="11.909623917068272"><ele>422.6</ele><time>2026-04-19T09:06:05.025Z</time></trkpt><trkpt lat="42.14494669352697" lon="11.909487299683716"><ele>425.40000000000003</ele><time>2026-04-19T09:06:06.025Z</time></trkpt><trkpt lat="42.14493819769266" lon="11.90936688439241"><ele>428.20000000000005</ele><time>2026-04-19T09:06:07.025Z</time></trkpt><trkpt lat="42.14494827092389" lon="11.90928000178925"><ele>431.0</ele><time>2026-04-19T09:06:08.025Z</time></trkpt><trkpt lat="42.145058846791926" lon="11.909153091718327"><ele>432.0</ele><time>2026-04-19T09:06:10.025Z</time></trkpt><trkpt lat="42.1451078663395" lon="11.9090785492964"><ele>433.0</ele><time>2026-04-19T09:06:11.025Z</time></trkpt><trkpt lat="42.14510516825497" lon="11.908915740977339"><ele>434.0</ele><time>2026-04-19T09:06:13.025Z</time></trkpt><trkpt lat="42.14512064654817" lon="11.908787227831407"><ele>435.0</ele><time>2026-04-19T09:06:15.025Z</time></trkpt><trkpt lat="42.14514568251688" lon="11.908685162835916"><ele>436.0</ele><time>2026-04-19T09:06:16.025Z</time></trkpt><trkpt lat="42.14517137934362" lon="11.908578875070505"><ele>436.00000000000006</ele><time>2026-04-19T09:06:17.025Z</time></trkpt><trkpt lat="42.14520223958057" lon="11.908483092047012"><ele>436.0</ele><time>2026-04-19T09:06:18.025Z</time></trkpt><trkpt lat="42.145218253844924" lon="11.908385472721344"><ele>436.0</ele><time>2026-04-19T09:06:20.026Z</time></trkpt><trkpt lat="42.145135474211834" lon="11.908368280437896"><ele>436.0</ele><time>2026-04-19T09:06:23.026Z</time></trkpt><trkpt lat="42.145051454874384" lon="11.908469678898303"><ele>436.00000000000006</ele><time>2026-04-19T09:06:25.026Z</time></trkpt><trkpt lat="42.1449692496654" lon="11.908522085492033"><ele>436.0</ele><time>2026-04-19T09:06:26.026Z</time></trkpt><trkpt lat="42.14490169248477" lon="11.90862485244694"><ele>434.20000000000005</ele><time>2026-04-19T09:06:27.026Z</time></trkpt><trkpt lat="42.14482748048927" lon="11.908703710363952"><ele>432.40000000000003</ele><time>2026-04-19T09:06:28.026Z</time></trkpt><trkpt lat="42.14474651934717" lon="11.908762040486092"><ele>430.6</ele><time>2026-04-19T09:06:29.026Z</time></trkpt><trkpt lat="42.14465823805313" lon="11.908816052259857"><ele>428.8</ele><time>2026-04-19T09:06:30.026Z</time></trkpt><trkpt lat="42.1445493168619" lon="11.908806221051847"><ele>427.0</ele><time>2026-04-19T09:06:32.026Z</time></trkpt><trkpt lat="42.14450516401117" lon="11.908723368983203"><ele>427.0</ele><time>2026-04-19T09:06:33.026Z</time></trkpt><trkpt lat="42.14446876779303" lon="11.908618555539748"><ele>427.00000000000006</ele><time>2026-04-19T09:06:34.026Z</time></trkpt><trkpt lat="42.1444411572565" lon="11.908490034213937"><ele>427.00000000000006</ele><time>2026-04-19T09:06:35.026Z</time></trkpt><trkpt lat="42.14441692733947" lon="11.908343305620981"><ele>427.0</ele><time>2026-04-19T09:06:36.026Z</time></trkpt><trkpt lat="42.144390335165944" lon="11.908178441855492"><ele>427.0</ele><time>2026-04-19T09:06:37.026Z</time></trkpt><trkpt lat="42.144374633162556" lon="11.908014251363452"><ele>428.20000000000005</ele><time>2026-04-19T09:06:38.026Z</time></trkpt><trkpt lat="42.14434261661451" lon="11.907862576447977"><ele>429.40000000000003</ele><time>2026-04-19T09:06:39.026Z</time></trkpt><trkpt lat="42.14433168690744" lon="11.907733861529026"><ele>430.59999999999997</ele><time>2026-04-19T09:06:40.026Z</time></trkpt><trkpt lat="42.14431217082245" lon="11.907616363588923"><ele>431.79999999999995</ele><time>2026-04-19T09:06:41.026Z</time></trkpt><trkpt lat="42.14432402298051" lon="11.907482327228493"><ele>433.0</ele><time>2026-04-19T09:06:42.026Z</time></trkpt><trkpt lat="42.144366816787475" lon="11.907338003289114"><ele>434.0</ele><time>2026-04-19T09:06:43.026Z</time></trkpt><trkpt lat="42.1444073173302" lon="11.907179089340117"><ele>434.99999999999994</ele><time>2026-04-19T09:06:44.026Z</time></trkpt><trkpt lat="42.14442617704043" lon="11.907010652932872"><ele>435.99999999999994</ele><time>2026-04-19T09:06:45.026Z</time></trkpt><trkpt lat="42.14444634188262" lon="11.906869866403172"><ele>437.0</ele><time>2026-04-19T09:06:46.026Z</time></trkpt><trkpt lat="42.14445398805791" lon="11.906747852959931"><ele>438.0</ele><time>2026-04-19T09:06:47.026Z</time></trkpt><trkpt lat="42.14450966551028" lon="11.906606897073383"><ele>438.0</ele><time>2026-04-19T09:06:49.026Z</time></trkpt><trkpt lat="42.14456364044287" lon="11.906520104820236"><ele>438.0</ele><time>2026-04-19T09:06:50.026Z</time></trkpt><trkpt lat="42.14462310991257" lon="11.906419309321524"><ele>438.0</ele><time>2026-04-19T09:06:52.026Z</time></trkpt><trkpt lat="42.14467972211378" lon="11.906378730088973"><ele>438.0</ele><time>2026-04-19T09:06:54.026Z</time></trkpt><trkpt lat="42.14473230382807" lon="11.906298615042333"><ele>438.0</ele><time>2026-04-19T09:06:56.027Z</time></trkpt><trkpt lat="42.14478665976932" lon="11.906239926876443"><ele>438.0</ele><time>2026-04-19T09:06:58.027Z</time></trkpt><trkpt lat="42.1448628906503" lon="11.906172799253616"><ele>442.79999999999995</ele><time>2026-04-19T09:07:01.027Z</time></trkpt><trkpt lat="42.144928443492574" lon="11.906142950315093"><ele>447.59999999999997</ele><time>2026-04-19T09:07:02.027Z</time></trkpt><trkpt lat="42.14499387552162" lon="11.906099140567475"><ele>452.40000000000003</ele><time>2026-04-19T09:07:03.027Z</time></trkpt><trkpt lat="42.145108633608295" lon="11.906124296748017"><ele>457.20000000000005</ele><time>2026-04-19T09:07:05.027Z</time></trkpt><trkpt lat="42.14522774699763" lon="11.906083077351857"><ele>462.0</ele><time>2026-04-19T09:07:07.027Z</time></trkpt><trkpt lat="42.145316755141074" lon="11.905972236269045"><ele>460.25</ele><time>2026-04-19T09:07:09.027Z</time></trkpt><trkpt lat="42.14537180740411" lon="11.90584902370187"><ele>458.5</ele><time>2026-04-19T09:07:10.027Z</time></trkpt><trkpt lat="42.14543018088637" lon="11.905684209614636"><ele>456.75</ele><time>2026-04-19T09:07:11.027Z</time></trkpt><trkpt lat="42.14548205546471" lon="11.905537776594842"><ele>455.0</ele><time>2026-04-19T09:07:12.027Z</time></trkpt><trkpt lat="42.145514812030484" lon="11.90541160502548"><ele>455.0</ele><time>2026-04-19T09:07:13.027Z</time></trkpt><trkpt lat="42.145540609712455" lon="11.905285141854659"><ele>455.0</ele><time>2026-04-19T09:07:14.027Z</time></trkpt><trkpt lat="42.145568888288274" lon="11.905166704793048"><ele>455.0</ele><time>2026-04-19T09:07:15.027Z</time></trkpt><trkpt lat="42.14560758069962" lon="11.905053143001595"><ele>455.0</ele><time>2026-04-19T09:07:16.027Z</time></trkpt><trkpt lat="42.145656580805706" lon="11.904971451563364"><ele>455.0</ele><time>2026-04-19T09:07:17.027Z</time></trkpt><trkpt lat="42.14571938353583" lon="11.904874773889835"><ele>457.0</ele><time>2026-04-19T09:07:18.027Z</time></trkpt><trkpt lat="42.14580250944145" lon="11.904782244997909"><ele>459.0</ele><time>2026-04-19T09:07:19.027Z</time></trkpt><trkpt lat="42.14589273338182" lon="11.90471289124075"><ele>461.0</ele><time>2026-04-19T09:07:20.027Z</time></trkpt><trkpt lat="42.145985483725326" lon="11.904647043245284"><ele>463.0</ele><time>2026-04-19T09:07:21.027Z</time></trkpt><trkpt lat="42.146076422997574" lon="11.90456946676388"><ele>465.0</ele><time>2026-04-19T09:07:22.027Z</time></trkpt><trkpt lat="42.146141377734466" lon="11.904496413737292"><ele>465.0</ele><time>2026-04-19T09:07:23.027Z</time></trkpt><trkpt lat="42.146208055092295" lon="11.904452555133483"><ele>465.0</ele><time>2026-04-19T09:07:24.027Z</time></trkpt><trkpt lat="42.1462950902794" lon="11.904422683007237"><ele>465.0</ele><time>2026-04-19T09:07:25.027Z</time></trkpt><trkpt lat="42.14639974639705" lon="11.904440718231385"><ele>465.0</ele><time>2026-04-19T09:07:26.027Z</time></trkpt><trkpt lat="42.1465015343361" lon="11.904416728325133"><ele>465.0</ele><time>2026-04-19T09:07:27.027Z</time></trkpt><trkpt lat="42.14659784365253" lon="11.904403156588115"><ele>466.6</ele><time>2026-04-19T09:07:28.027Z</time></trkpt><trkpt lat="42.14665291044337" lon="11.904349793047983"><ele>468.2</ele><time>2026-04-19T09:07:29.027Z</time></trkpt><trkpt lat="42.146721597550965" lon="11.904212476389878"><ele>469.79999999999995</ele><time>2026-04-19T09:07:31.028Z</time></trkpt><trkpt lat="42.1467518915224" lon="11.904099327014965"><ele>471.4</ele><time>2026-04-19T09:07:32.028Z</time></trkpt><trkpt lat="42.14671704368462" lon="11.90395128731967"><ele>473.0</ele><time>2026-04-19T09:07:33.028Z</time></trkpt><trkpt lat="42.14673238489702" lon="11.903835742510234"><ele>472.99999999999994</ele><time>2026-04-19T09:07:34.028Z</time></trkpt><trkpt lat="42.14677952560538" lon="11.903775324951903"><ele>473.0</ele><time>2026-04-19T09:07:35.028Z</time></trkpt><trkpt lat="42.14685035339583" lon="11.903728308058664"><ele>473.0</ele><time>2026-04-19T09:07:36.028Z</time></trkpt><trkpt lat="42.14693099404315" lon="11.903705332614916"><ele>473.0</ele><time>2026-04-19T09:07:37.028Z</time></trkpt><trkpt lat="42.147007091503745" lon="11.903722823478521"><ele>472.99999999999994</ele><time>2026-04-19T09:07:38.028Z</time></trkpt><trkpt lat="42.147078838615364" lon="11.903714953999321"><ele>473.0</ele><time>2026-04-19T09:07:39.028Z</time></trkpt><trkpt lat="42.14703817383476" lon="11.903538764886974"><ele>473.0</ele><time>2026-04-19T09:07:42.028Z</time></trkpt><trkpt lat="42.14695626433777" lon="11.903444420952754"><ele>472.99999999999994</ele><time>2026-04-19T09:07:43.028Z</time></trkpt><trkpt lat="42.1468738764673" lon="11.903387079908633"><ele>472.99999999999994</ele><time>2026-04-19T09:07:44.028Z</time></trkpt><trkpt lat="42.14681934248527" lon="11.90329889004393"><ele>473.0</ele><time>2026-04-19T09:07:45.028Z</time></trkpt><trkpt lat="42.1467657960466" lon="11.90316207674268"><ele>473.0</ele><time>2026-04-19T09:07:46.028Z</time></trkpt><trkpt lat="42.14673622732878" lon="11.90297529671808"><ele>472.99999999999994</ele><time>2026-04-19T09:07:47.028Z</time></trkpt><trkpt lat="42.146720536937956" lon="11.902827734493785"><ele>473.0</ele><time>2026-04-19T09:07:48.028Z</time></trkpt><trkpt lat="42.14672634359652" lon="11.90271751622102"><ele>473.0</ele><time>2026-04-19T09:07:49.028Z</time></trkpt><trkpt lat="42.146750161607955" lon="11.902626918857196"><ele>473.0</ele><time>2026-04-19T09:07:50.028Z</time></trkpt><trkpt lat="42.1467865392228" lon="11.902526648505132"><ele>472.99999999999994</ele><time>2026-04-19T09:07:51.028Z</time></trkpt><trkpt lat="42.14682913276434" lon="11.902425352195754"><ele>473.0</ele><time>2026-04-19T09:07:52.028Z</time></trkpt><trkpt lat="42.14688054992864" lon="11.902320761510236"><ele>473.0</ele><time>2026-04-19T09:07:53.028Z</time></trkpt><trkpt lat="42.146960259237126" lon="11.902188679433928"><ele>473.0</ele><time>2026-04-19T09:07:54.028Z</time></trkpt><trkpt lat="42.147068565020774" lon="11.902044637006476"><ele>473.0</ele><time>2026-04-19T09:07:55.028Z</time></trkpt><trkpt lat="42.14719064647256" lon="11.901928514826556"><ele>473.0</ele><time>2026-04-19T09:07:56.028Z</time></trkpt><trkpt lat="42.14730177978084" lon="11.901838358952086"><ele>475.2</ele><time>2026-04-19T09:07:57.028Z</time></trkpt><trkpt lat="42.1473963561633" lon="11.901739767487422"><ele>477.4</ele><time>2026-04-19T09:07:58.028Z</time></trkpt><trkpt lat="42.14748669717257" lon="11.901651858226654"><ele>479.59999999999997</ele><time>2026-04-19T09:07:59.028Z</time></trkpt><trkpt lat="42.14757162977796" lon="11.901578458814166"><ele>481.79999999999995</ele><time>2026-04-19T09:08:00.028Z</time></trkpt><trkpt lat="42.14766277675606" lon="11.901518726616937"><ele>484.0</ele><time>2026-04-19T09:08:01.028Z</time></trkpt><trkpt lat="42.147747856758734" lon="11.901467520219967"><ele>484.0</ele><time>2026-04-19T09:08:02.028Z</time></trkpt><trkpt lat="42.14783236425936" lon="11.901419739159286"><ele>484.0</ele><time>2026-04-19T09:08:03.028Z</time></trkpt><trkpt lat="42.14789588110455" lon="11.901371599617327"><ele>484.0</ele><time>2026-04-19T09:08:04.028Z</time></trkpt><trkpt lat="42.14797556935501" lon="11.901247715147209"><ele>484.0</ele><time>2026-04-19T09:08:06.028Z</time></trkpt><trkpt lat="42.14794959615841" lon="11.901034959016512"><ele>484.0</ele><time>2026-04-19T09:08:08.029Z</time></trkpt><trkpt lat="42.14790096649988" lon="11.900939229074316"><ele>483.1666666666667</ele><time>2026-04-19T09:08:09.029Z</time></trkpt><trkpt lat="42.14786864679974" lon="11.900858938930224"><ele>482.33333333333337</ele><time>2026-04-19T09:08:10.029Z</time></trkpt><trkpt lat="42.14786580490501" lon="11.900678232008335"><ele>481.5</ele><time>2026-04-19T09:08:12.029Z</time></trkpt><trkpt lat="42.14787812126608" lon="11.900572056909244"><ele>480.66666666666663</ele><time>2026-04-19T09:08:13.029Z</time></trkpt><trkpt lat="42.14789722637673" lon="11.90047123007917"><ele>479.8333333333333</ele><time>2026-04-19T09:08:14.029Z</time></trkpt><trkpt lat="42.14787178165114" lon="11.900354692155963"><ele>479.0</ele><time>2026-04-19T09:08:15.029Z</time></trkpt><trkpt lat="42.14779116500477" lon="11.900281104322447"><ele>478.99999999999994</ele><time>2026-04-19T09:08:16.029Z</time></trkpt><trkpt lat="42.14771372725828" lon="11.900247809033681"><ele>479.0</ele><time>2026-04-19T09:08:17.029Z</time></trkpt><trkpt lat="42.14764574076572" lon="11.90021877421279"><ele>479.0</ele><time>2026-04-19T09:08:18.029Z</time></trkpt><trkpt lat="42.14756977087613" lon="11.900169375029224"><ele>479.0</ele><time>2026-04-19T09:08:20.029Z</time></trkpt><trkpt lat="42.147529701752504" lon="11.900095025873945"><ele>478.99999999999994</ele><time>2026-04-19T09:08:21.029Z</time></trkpt><trkpt lat="42.14753414972675" lon="11.899990682265923"><ele>479.0</ele><time>2026-04-19T09:08:22.029Z</time></trkpt><trkpt lat="42.147553733708655" lon="11.899892910781961"><ele>480.3333333333333</ele><time>2026-04-19T09:08:23.029Z</time></trkpt><trkpt lat="42.14758566466787" lon="11.899802833366987"><ele>481.66666666666663</ele><time>2026-04-19T09:08:24.029Z</time></trkpt><trkpt lat="42.147622621488026" lon="11.899720615882586"><ele>483.0</ele><time>2026-04-19T09:08:25.029Z</time></trkpt><trkpt lat="42.14769871291416" lon="11.899612358190723"><ele>484.33333333333337</ele><time>2026-04-19T09:08:27.029Z</time></trkpt><trkpt lat="42.14774673493584" lon="11.89955244413529"><ele>485.6666666666667</ele><time>2026-04-19T09:08:31.029Z</time></trkpt><trkpt lat="42.14785204409021" lon="11.89961958887358"><ele>487.0</ele><time>2026-04-19T09:08:33.029Z</time></trkpt><trkpt lat="42.14792338441691" lon="11.899727600220292"><ele>487.00000000000006</ele><time>2026-04-19T09:08:35.029Z</time></trkpt><trkpt lat="42.14801842267086" lon="11.899737978809982"><ele>487.0</ele><time>2026-04-19T09:08:37.029Z</time></trkpt><trkpt lat="42.14809730546025" lon="11.899748414920216"><ele>487.0</ele><time>2026-04-19T09:08:45.03Z</time></trkpt><trkpt lat="42.14816763983944" lon="11.899656831180558"><ele>487.0</ele><time>2026-04-19T09:08:46.03Z</time></trkpt><trkpt lat="42.1482274467087" lon="11.899584712941008"><ele>487.00000000000006</ele><time>2026-04-19T09:08:47.03Z</time></trkpt><trkpt lat="42.14830433706113" lon="11.899512129486872"><ele>487.0</ele><time>2026-04-19T09:08:48.03Z</time></trkpt><trkpt lat="42.14839604942172" lon="11.89945118272769"><ele>486.8</ele><time>2026-04-19T09:08:49.03Z</time></trkpt><trkpt lat="42.14849014759657" lon="11.899397297727075"><ele>486.6</ele><time>2026-04-19T09:08:50.03Z</time></trkpt><trkpt lat="42.148583034434814" lon="11.89933479242476"><ele>486.40000000000003</ele><time>2026-04-19T09:08:51.03Z</time></trkpt><trkpt lat="42.1486757962478" lon="11.89926485526645"><ele>486.20000000000005</ele><time>2026-04-19T09:08:52.03Z</time></trkpt><trkpt lat="42.14876894215447" lon="11.899199186568147"><ele>486.0</ele><time>2026-04-19T09:08:53.03Z</time></trkpt><trkpt lat="42.14886188174305" lon="11.89913603805052"><ele>486.0</ele><time>2026-04-19T09:08:54.03Z</time></trkpt><trkpt lat="42.14895464904529" lon="11.899074997811155"><ele>486.0</ele><time>2026-04-19T09:08:55.03Z</time></trkpt><trkpt lat="42.149048226512114" lon="11.899014275803614"><ele>486.0</ele><time>2026-04-19T09:08:56.03Z</time></trkpt><trkpt lat="42.149147301229185" lon="11.898981459444864"><ele>486.0</ele><time>2026-04-19T09:08:57.03Z</time></trkpt><trkpt lat="42.149250321536776" lon="11.898974525706821"><ele>486.0</ele><time>2026-04-19T09:08:58.03Z</time></trkpt><trkpt lat="42.14935538083858" lon="11.899007512785264"><ele>485.75</ele><time>2026-04-19T09:08:59.03Z</time></trkpt><trkpt lat="42.149454188374555" lon="11.899081799695734"><ele>485.5</ele><time>2026-04-19T09:09:00.03Z</time></trkpt><trkpt lat="42.14955695293074" lon="11.899184963155408"><ele>485.25</ele><time>2026-04-19T09:09:01.03Z</time></trkpt><trkpt lat="42.14965001320824" lon="11.899308129232937"><ele>485.0</ele><time>2026-04-19T09:09:02.03Z</time></trkpt><trkpt lat="42.14973600882381" lon="11.899395058118444"><ele>488.4</ele><time>2026-04-19T09:09:03.03Z</time></trkpt><trkpt lat="42.1498233035996" lon="11.899468286344831"><ele>491.8</ele><time>2026-04-19T09:09:04.03Z</time></trkpt><trkpt lat="42.149907102639226" lon="11.899543070277891"><ele>495.20000000000005</ele><time>2026-04-19T09:09:05.03Z</time></trkpt><trkpt lat="42.15000086189703" lon="11.899573143420001"><ele>498.6</ele><time>2026-04-19T09:09:06.03Z</time></trkpt><trkpt lat="42.15009220105217" lon="11.89956392095119"><ele>502.0</ele><time>2026-04-19T09:09:07.03Z</time></trkpt><trkpt lat="42.15018063012489" lon="11.89957612980017"><ele>502.00000000000006</ele><time>2026-04-19T09:09:08.03Z</time></trkpt><trkpt lat="42.150260732358326" lon="11.899578842055732"><ele>502.0</ele><time>2026-04-19T09:09:09.03Z</time></trkpt><trkpt lat="42.1503344737885" lon="11.899569137950948"><ele>502.0</ele><time>2026-04-19T09:09:10.03Z</time></trkpt><trkpt lat="42.1504002071915" lon="11.899557806757777"><ele>502.0</ele><time>2026-04-19T09:09:11.03Z</time></trkpt><trkpt lat="42.15046677344846" lon="11.899553341903875"><ele>502.00000000000006</ele><time>2026-04-19T09:09:12.03Z</time></trkpt><trkpt lat="42.15053042228424" lon="11.899520686066191"><ele>502.0</ele><time>2026-04-19T09:09:13.03Z</time></trkpt><trkpt lat="42.150608513167555" lon="11.899401548349541"><ele>502.00000000000006</ele><time>2026-04-19T09:09:15.03Z</time></trkpt><trkpt lat="42.150626294502885" lon="11.899316909324117"><ele>502.0</ele><time>2026-04-19T09:09:16.03Z</time></trkpt><trkpt lat="42.150651090468706" lon="11.899228215614784"><ele>502.0</ele><time>2026-04-19T09:09:17.03Z</time></trkpt><trkpt lat="42.1506573941051" lon="11.899143103397382"><ele>502.0</ele><time>2026-04-19T09:09:18.03Z</time></trkpt><trkpt lat="42.15069081157405" lon="11.899070119640566"><ele>502.00000000000006</ele><time>2026-04-19T09:09:22.031Z</time></trkpt><trkpt lat="42.150796297591555" lon="11.89896228180285"><ele>502.0</ele><time>2026-04-19T09:09:24.031Z</time></trkpt><trkpt lat="42.15086412519263" lon="11.898903792061509"><ele>499.6</ele><time>2026-04-19T09:09:25.031Z</time></trkpt><trkpt lat="42.1509340646338" lon="11.898832065743523"><ele>497.20000000000005</ele><time>2026-04-19T09:09:26.031Z</time></trkpt><trkpt lat="42.15101090305203" lon="11.898760319101186"><ele>494.8</ele><time>2026-04-19T09:09:27.031Z</time></trkpt><trkpt lat="42.15109147439914" lon="11.898701069113113"><ele>492.4</ele><time>2026-04-19T09:09:28.031Z</time></trkpt><trkpt lat="42.15117483243188" lon="11.898643391367532"><ele>490.0</ele><time>2026-04-19T09:09:29.031Z</time></trkpt><trkpt lat="42.15126359080246" lon="11.89858054742479"><ele>490.0</ele><time>2026-04-19T09:09:30.031Z</time></trkpt><trkpt lat="42.151358075572595" lon="11.898520115855565"><ele>490.0</ele><time>2026-04-19T09:09:31.031Z</time></trkpt><trkpt lat="42.15145334467104" lon="11.89848142081471"><ele>490.0</ele><time>2026-04-19T09:09:32.031Z</time></trkpt><trkpt lat="42.15154146155323" lon="11.898475997696591"><ele>490.0</ele><time>2026-04-19T09:09:33.031Z</time></trkpt><trkpt lat="42.151625825834856" lon="11.898497502956829"><ele>490.0</ele><time>2026-04-19T09:09:34.031Z</time></trkpt><trkpt lat="42.15171298797295" lon="11.89853886686789"><ele>493.75</ele><time>2026-04-19T09:09:35.031Z</time></trkpt><trkpt lat="42.151798719520535" lon="11.898620267126915"><ele>497.5</ele><time>2026-04-19T09:09:36.031Z</time></trkpt><trkpt lat="42.15187569027044" lon="11.898746669821804"><ele>501.25</ele><time>2026-04-19T09:09:37.031Z</time></trkpt><trkpt lat="42.151956047974" lon="11.89885739526476"><ele>505.0</ele><time>2026-04-19T09:09:38.031Z</time></trkpt><trkpt lat="42.15202817082304" lon="11.898997984050325"><ele>505.0</ele><time>2026-04-19T09:09:39.031Z</time></trkpt><trkpt lat="42.15210594362324" lon="11.899132842496597"><ele>505.0</ele><time>2026-04-19T09:09:40.031Z</time></trkpt><trkpt lat="42.15219166653472" lon="11.899268187081459"><ele>505.0</ele><time>2026-04-19T09:09:41.031Z</time></trkpt><trkpt lat="42.152284994554236" lon="11.899403022608798"><ele>505.0</ele><time>2026-04-19T09:09:42.031Z</time></trkpt><trkpt lat="42.152385759440754" lon="11.899537812866962"><ele>504.75</ele><time>2026-04-19T09:09:43.031Z</time></trkpt><trkpt lat="42.15249185597535" lon="11.899663525583838"><ele>504.5</ele><time>2026-04-19T09:09:44.031Z</time></trkpt><trkpt lat="42.15259815517613" lon="11.899792513541325"><ele>504.25</ele><time>2026-04-19T09:09:45.031Z</time></trkpt><trkpt lat="42.15270008168693" lon="11.89994071738425"><ele>504.0</ele><time>2026-04-19T09:09:46.031Z</time></trkpt><trkpt lat="42.152809737517316" lon="11.900081523224106"><ele>502.75</ele><time>2026-04-19T09:09:47.031Z</time></trkpt><trkpt lat="42.15292649333259" lon="11.900220984736338"><ele>501.5</ele><time>2026-04-19T09:09:48.031Z</time></trkpt><trkpt lat="42.15302708365679" lon="11.900351174182259"><ele>500.25</ele><time>2026-04-19T09:09:49.031Z</time></trkpt><trkpt lat="42.153123568478016" lon="11.90048510934137"><ele>499.0</ele><time>2026-04-19T09:09:50.031Z</time></trkpt><trkpt lat="42.15321360947521" lon="11.900613648344848"><ele>499.0</ele><time>2026-04-19T09:09:51.031Z</time></trkpt><trkpt lat="42.1533030746598" lon="11.900739486595398"><ele>499.0</ele><time>2026-04-19T09:09:52.031Z</time></trkpt><trkpt lat="42.15339784486189" lon="11.90088203578627"><ele>499.0</ele><time>2026-04-19T09:09:53.031Z</time></trkpt><trkpt lat="42.15349088677784" lon="11.9010459101882"><ele>499.0</ele><time>2026-04-19T09:09:54.031Z</time></trkpt><trkpt lat="42.153560853457144" lon="11.901224278160896"><ele>503.75</ele><time>2026-04-19T09:09:55.032Z</time></trkpt><trkpt lat="42.15362077322312" lon="11.901410003883244"><ele>508.5</ele><time>2026-04-19T09:09:56.032Z</time></trkpt><trkpt lat="42.153675516941874" lon="11.901591847101495"><ele>513.25</ele><time>2026-04-19T09:09:57.032Z</time></trkpt><trkpt lat="42.15371531820689" lon="11.901771313601552"><ele>518.0</ele><time>2026-04-19T09:09:58.032Z</time></trkpt><trkpt lat="42.15373997996271" lon="11.901939052121854"><ele>518.8</ele><time>2026-04-19T09:09:59.032Z</time></trkpt><trkpt lat="42.15374944720038" lon="11.90208993835281"><ele>519.5999999999999</ele><time>2026-04-19T09:10:00.032Z</time></trkpt><trkpt lat="42.15374853298641" lon="11.902232434252857"><ele>520.4000000000001</ele><time>2026-04-19T09:10:01.032Z</time></trkpt><trkpt lat="42.15374774392736" lon="11.902383253939124"><ele>521.2</ele><time>2026-04-19T09:10:02.032Z</time></trkpt><trkpt lat="42.15374540775674" lon="11.902534553113263"><ele>522.0</ele><time>2026-04-19T09:10:03.032Z</time></trkpt><trkpt lat="42.15373937610737" lon="11.902665518179692"><ele>522.0</ele><time>2026-04-19T09:10:04.032Z</time></trkpt><trkpt lat="42.15373404108387" lon="11.90277510094851"><ele>522.0</ele><time>2026-04-19T09:10:05.032Z</time></trkpt><trkpt lat="42.15371948272587" lon="11.902866438417036"><ele>522.0</ele><time>2026-04-19T09:10:06.032Z</time></trkpt><trkpt lat="42.15369990941557" lon="11.902949101759704"><ele>522.0</ele><time>2026-04-19T09:10:07.032Z</time></trkpt><trkpt lat="42.15368458575776" lon="11.903031587487604"><ele>522.0</ele><time>2026-04-19T09:10:08.032Z</time></trkpt><trkpt lat="42.15366995239641" lon="11.903202429742487"><ele>522.0</ele><time>2026-04-19T09:10:10.032Z</time></trkpt><trkpt lat="42.15364010107657" lon="11.903294348299426"><ele>522.0</ele><time>2026-04-19T09:10:11.032Z</time></trkpt><trkpt lat="42.15363158057153" lon="11.90339592448632"><ele>522.0</ele><time>2026-04-19T09:10:12.032Z</time></trkpt><trkpt lat="42.15362564598489" lon="11.903497458129824"><ele>522.0</ele><time>2026-04-19T09:10:13.032Z</time></trkpt><trkpt lat="42.15361749739055" lon="11.903614846027608"><ele>522.0</ele><time>2026-04-19T09:10:14.032Z</time></trkpt><trkpt lat="42.15360753903014" lon="11.90373096694506"><ele>522.0</ele><time>2026-04-19T09:10:15.032Z</time></trkpt><trkpt lat="42.15358865304661" lon="11.9038560426225"><ele>522.0</ele><time>2026-04-19T09:10:16.032Z</time></trkpt><trkpt lat="42.15356594099657" lon="11.903978596440663"><ele>520.4</ele><time>2026-04-19T09:10:17.032Z</time></trkpt><trkpt lat="42.15354238256214" lon="11.904107470913825"><ele>518.8000000000001</ele><time>2026-04-19T09:10:18.032Z</time></trkpt><trkpt lat="42.15348879400755" lon="11.904236610190553"><ele>517.2</ele><time>2026-04-19T09:10:19.032Z</time></trkpt><trkpt lat="42.153434377468585" lon="11.904359790403808"><ele>515.6</ele><time>2026-04-19T09:10:20.032Z</time></trkpt><trkpt lat="42.15336295292294" lon="11.90448289500492"><ele>514.0</ele><time>2026-04-19T09:10:21.032Z</time></trkpt><trkpt lat="42.153293164859825" lon="11.904594993124588"><ele>510.75</ele><time>2026-04-19T09:10:22.032Z</time></trkpt><trkpt lat="42.153218342518855" lon="11.904709845407114"><ele>507.5</ele><time>2026-04-19T09:10:23.032Z</time></trkpt><trkpt lat="42.153144142147994" lon="11.90482374290823"><ele>504.25</ele><time>2026-04-19T09:10:24.032Z</time></trkpt><trkpt lat="42.15308698555114" lon="11.904952774284059"><ele>501.0</ele><time>2026-04-19T09:10:25.032Z</time></trkpt><trkpt lat="42.15300850903434" lon="11.905067961140693"><ele>509.0</ele><time>2026-04-19T09:10:26.032Z</time></trkpt><trkpt lat="42.15295453192824" lon="11.905207368479603"><ele>517.0</ele><time>2026-04-19T09:10:27.032Z</time></trkpt><trkpt lat="42.15291950030842" lon="11.905343775641255"><ele>525.0</ele><time>2026-04-19T09:10:28.032Z</time></trkpt><trkpt lat="42.15289693564811" lon="11.905501314806113"><ele>533.0</ele><time>2026-04-19T09:10:29.032Z</time></trkpt><trkpt lat="42.1528846834819" lon="11.905672341023934"><ele>533.0</ele><time>2026-04-19T09:10:30.032Z</time></trkpt><trkpt lat="42.15288234726911" lon="11.90583913171741"><ele>533.0</ele><time>2026-04-19T09:10:31.033Z</time></trkpt><trkpt lat="42.15288268316045" lon="11.90599683206141"><ele>533.0</ele><time>2026-04-19T09:10:32.033Z</time></trkpt><trkpt lat="42.15288301178033" lon="11.906151118863146"><ele>533.0</ele><time>2026-04-19T09:10:33.033Z</time></trkpt><trkpt lat="42.15288422349763" lon="11.906305126125208"><ele>535.5</ele><time>2026-04-19T09:10:34.033Z</time></trkpt><trkpt lat="42.15288820594979" lon="11.906457023483298"><ele>538.0</ele><time>2026-04-19T09:10:35.033Z</time></trkpt><trkpt lat="42.15289586539586" lon="11.906611592806485"><ele>540.5</ele><time>2026-04-19T09:10:36.033Z</time></trkpt><trkpt lat="42.152908978544936" lon="11.90677787799547"><ele>543.0</ele><time>2026-04-19T09:10:37.033Z</time></trkpt><trkpt lat="42.15294480117854" lon="11.9069279774514"><ele>544.75</ele><time>2026-04-19T09:10:38.033Z</time></trkpt><trkpt lat="42.15300442181772" lon="11.90707032373509"><ele>546.5</ele><time>2026-04-19T09:10:39.033Z</time></trkpt><trkpt lat="42.15308847068481" lon="11.907192313281522"><ele>548.25</ele><time>2026-04-19T09:10:40.033Z</time></trkpt><trkpt lat="42.1532093198225" lon="11.907265264234807"><ele>550.0</ele><time>2026-04-19T09:10:41.033Z</time></trkpt><trkpt lat="42.15330791294409" lon="11.907292110229251"><ele>545.8</ele><time>2026-04-19T09:10:42.033Z</time></trkpt><trkpt lat="42.153409141051256" lon="11.907309470102312"><ele>541.6</ele><time>2026-04-19T09:10:43.033Z</time></trkpt><trkpt lat="42.15351271216657" lon="11.90730312445224"><ele>537.4</ele><time>2026-04-19T09:10:44.033Z</time></trkpt><trkpt lat="42.15360089791137" lon="11.907271449272741"><ele>533.2</ele><time>2026-04-19T09:10:45.033Z</time></trkpt><trkpt lat="42.15368033412255" lon="11.907209676822132"><ele>529.0</ele><time>2026-04-19T09:10:46.033Z</time></trkpt><trkpt lat="42.15374790712279" lon="11.907114724836893"><ele>529.0</ele><time>2026-04-19T09:10:47.033Z</time></trkpt><trkpt lat="42.153813804478744" lon="11.907018711834574"><ele>529.0</ele><time>2026-04-19T09:10:48.033Z</time></trkpt><trkpt lat="42.1538878722249" lon="11.906918640738073"><ele>529.0</ele><time>2026-04-19T09:10:49.033Z</time></trkpt><trkpt lat="42.15396381325208" lon="11.906828991481728"><ele>529.0</ele><time>2026-04-19T09:10:50.033Z</time></trkpt><trkpt lat="42.154039835407026" lon="11.906749263865574"><ele>529.0</ele><time>2026-04-19T09:10:51.033Z</time></trkpt><trkpt lat="42.154129772527774" lon="11.906663134879128"><ele>526.2</ele><time>2026-04-19T09:10:52.033Z</time></trkpt><trkpt lat="42.1542252495124" lon="11.906582384055183"><ele>523.4</ele><time>2026-04-19T09:10:53.033Z</time></trkpt><trkpt lat="42.154325999924474" lon="11.906527720511507"><ele>520.6</ele><time>2026-04-19T09:10:54.033Z</time></trkpt><trkpt lat="42.154432465912905" lon="11.906481272234185"><ele>517.8</ele><time>2026-04-19T09:10:55.033Z</time></trkpt><trkpt lat="42.15454020908367" lon="11.9064544246836"><ele>515.0</ele><time>2026-04-19T09:10:56.033Z</time></trkpt><trkpt lat="42.154648123431805" lon="11.90647548697547"><ele>515.0</ele><time>2026-04-19T09:10:57.033Z</time></trkpt><trkpt lat="42.15475452526448" lon="11.906472031274284"><ele>515.0</ele><time>2026-04-19T09:10:58.033Z</time></trkpt><trkpt lat="42.15486283711908" lon="11.90648221141981"><ele>515.0</ele><time>2026-04-19T09:10:59.033Z</time></trkpt><trkpt lat="42.15497119424831" lon="11.906508701154344"><ele>515.0</ele><time>2026-04-19T09:11:00.033Z</time></trkpt><trkpt lat="42.15507726144654" lon="11.906545481306843"><ele>515.0</ele><time>2026-04-19T09:11:01.033Z</time></trkpt><trkpt lat="42.15517936542674" lon="11.90659382819802"><ele>517.0</ele><time>2026-04-19T09:11:02.033Z</time></trkpt><trkpt lat="42.15528396764718" lon="11.906654644067116"><ele>519.0</ele><time>2026-04-19T09:11:03.033Z</time></trkpt><trkpt lat="42.15538479876325" lon="11.906729408845944"><ele>521.0</ele><time>2026-04-19T09:11:04.033Z</time></trkpt><trkpt lat="42.1554852153507" lon="11.906807098042009"><ele>523.0</ele><time>2026-04-19T09:11:05.033Z</time></trkpt><trkpt lat="42.15557806587919" lon="11.906885791794874"><ele>527.0</ele><time>2026-04-19T09:11:05.996Z</time></trkpt><trkpt lat="42.155670998661975" lon="11.906968176150235"><ele>531.0</ele><time>2026-04-19T09:11:06.996Z</time></trkpt><trkpt lat="42.15576700916133" lon="11.907050416488017"><ele>535.0</ele><time>2026-04-19T09:11:07.996Z</time></trkpt><trkpt lat="42.15586484630084" lon="11.907107702963874"><ele>539.0</ele><time>2026-04-19T09:11:08.996Z</time></trkpt><trkpt lat="42.15596181771945" lon="11.90718881796488"><ele>543.0</ele><time>2026-04-19T09:11:09.996Z</time></trkpt><trkpt lat="42.1560650233803" lon="11.907270025097176"><ele>543.0</ele><time>2026-04-19T09:11:10.996Z</time></trkpt><trkpt lat="42.1561779124082" lon="11.907309160435169"><ele>543.0</ele><time>2026-04-19T09:11:11.996Z</time></trkpt><trkpt lat="42.15630171309372" lon="11.907327719146455"><ele>543.0</ele><time>2026-04-19T09:11:12.996Z</time></trkpt><trkpt lat="42.15642636092731" lon="11.907310693346995"><ele>543.0</ele><time>2026-04-19T09:11:13.996Z</time></trkpt><trkpt lat="42.15654106172955" lon="11.90725329040519"><ele>540.75</ele><time>2026-04-19T09:11:14.996Z</time></trkpt><trkpt lat="42.15666693744876" lon="11.90722449806351"><ele>538.5</ele><time>2026-04-19T09:11:15.996Z</time></trkpt><trkpt lat="42.15678480356758" lon="11.907185849255562"><ele>536.25</ele><time>2026-04-19T09:11:16.996Z</time></trkpt><trkpt lat="42.15689763657421" lon="11.907158841084279"><ele>534.0</ele><time>2026-04-19T09:11:17.996Z</time></trkpt><trkpt lat="42.157006825320494" lon="11.907151364369588"><ele>534.0</ele><time>2026-04-19T09:11:18.996Z</time></trkpt><trkpt lat="42.157121293638006" lon="11.907154901616742"><ele>534.0</ele><time>2026-04-19T09:11:19.996Z</time></trkpt><trkpt lat="42.15723671695012" lon="11.907180214980176"><ele>534.0</ele><time>2026-04-19T09:11:20.996Z</time></trkpt><trkpt lat="42.1573395591175" lon="11.907229093538845"><ele>534.0</ele><time>2026-04-19T09:11:21.996Z</time></trkpt><trkpt lat="42.15743777317764" lon="11.907297173376527"><ele>534.3333333333334</ele><time>2026-04-19T09:11:22.996Z</time></trkpt><trkpt lat="42.157523147733095" lon="11.907374435893429"><ele>534.6666666666666</ele><time>2026-04-19T09:11:23.996Z</time></trkpt><trkpt lat="42.157593274429175" lon="11.907448502619815"><ele>535.0</ele><time>2026-04-19T09:11:24.996Z</time></trkpt><trkpt lat="42.15765158707365" lon="11.907522783007348"><ele>535.3333333333333</ele><time>2026-04-19T09:11:25.996Z</time></trkpt><trkpt lat="42.15769431904266" lon="11.907596155740725"><ele>535.6666666666666</ele><time>2026-04-19T09:11:26.996Z</time></trkpt><trkpt lat="42.157758448855375" lon="11.90771325431728"><ele>536.0</ele><time>2026-04-19T09:11:28.997Z</time></trkpt><trkpt lat="42.15779741992397" lon="11.90779658262623"><ele>536.0</ele><time>2026-04-19T09:11:31.997Z</time></trkpt><trkpt lat="42.15789472066677" lon="11.907603242536469"><ele>536.0</ele><time>2026-04-19T09:11:34.997Z</time></trkpt><trkpt lat="42.157878266188824" lon="11.907507454617948"><ele>536.0</ele><time>2026-04-19T09:11:35.997Z</time></trkpt><trkpt lat="42.157867111134095" lon="11.907396646429646"><ele>536.0</ele><time>2026-04-19T09:11:36.997Z</time></trkpt><trkpt lat="42.1578663567657" lon="11.907251914321156"><ele>536.0</ele><time>2026-04-19T09:11:37.997Z</time></trkpt><trkpt lat="42.157836297376754" lon="11.90709831852251"><ele>534.0</ele><time>2026-04-19T09:11:38.997Z</time></trkpt><trkpt lat="42.15782987956941" lon="11.906935638293671"><ele>532.0</ele><time>2026-04-19T09:11:39.997Z</time></trkpt><trkpt lat="42.157819381331905" lon="11.906766203265567"><ele>530.0</ele><time>2026-04-19T09:11:40.997Z</time></trkpt><trkpt lat="42.15780064523" lon="11.906612588813696"><ele>528.0</ele><time>2026-04-19T09:11:41.997Z</time></trkpt><trkpt lat="42.15777567318776" lon="11.906459363663423"><ele>526.8</ele><time>2026-04-19T09:11:42.997Z</time></trkpt><trkpt lat="42.15774877713057" lon="11.906316143426412"><ele>525.5999999999999</ele><time>2026-04-19T09:11:43.997Z</time></trkpt><trkpt lat="42.15771987063531" lon="11.906178138336552"><ele>524.4000000000001</ele><time>2026-04-19T09:11:44.997Z</time></trkpt><trkpt lat="42.15768903826457" lon="11.906054347571882"><ele>523.2</ele><time>2026-04-19T09:11:45.997Z</time></trkpt><trkpt lat="42.157646631809726" lon="11.905948647109504"><ele>522.0</ele><time>2026-04-19T09:11:46.997Z</time></trkpt><trkpt lat="42.157605952963365" lon="11.905847129545105"><ele>521.5</ele><time>2026-04-19T09:11:47.997Z</time></trkpt><trkpt lat="42.15756865628423" lon="11.905746604267978"><ele>521.0</ele><time>2026-04-19T09:11:48.997Z</time></trkpt><trkpt lat="42.15753070019222" lon="11.905641117494602"><ele>520.5</ele><time>2026-04-19T09:11:49.997Z</time></trkpt><trkpt lat="42.15749122192368" lon="11.905542844971938"><ele>520.0</ele><time>2026-04-19T09:11:50.997Z</time></trkpt><trkpt lat="42.157450112732384" lon="11.905440579238318"><ele>519.5</ele><time>2026-04-19T09:11:51.997Z</time></trkpt><trkpt lat="42.15741280664223" lon="11.905334032406751"><ele>519.0</ele><time>2026-04-19T09:11:52.993Z</time></trkpt><trkpt lat="42.157381742141425" lon="11.905228300395429"><ele>516.1666666666666</ele><time>2026-04-19T09:11:53.993Z</time></trkpt><trkpt lat="42.157346221597905" lon="11.905124536653332"><ele>513.3333333333334</ele><time>2026-04-19T09:11:54.993Z</time></trkpt><trkpt lat="42.157300663705506" lon="11.905024060432572"><ele>510.5</ele><time>2026-04-19T09:11:55.993Z</time></trkpt><trkpt lat="42.15725616631611" lon="11.904921995082574"><ele>507.6666666666667</ele><time>2026-04-19T09:11:56.993Z</time></trkpt><trkpt lat="42.157205145503625" lon="11.904822312342828"><ele>504.83333333333337</ele><time>2026-04-19T09:11:57.993Z</time></trkpt><trkpt lat="42.15716178043351" lon="11.90472430035191"><ele>502.0</ele><time>2026-04-19T09:11:58.993Z</time></trkpt><trkpt lat="42.157125084152064" lon="11.904619057575344"><ele>501.83333333333337</ele><time>2026-04-19T09:11:59.992Z</time></trkpt><trkpt lat="42.1570857763381" lon="11.904515034927181"><ele>501.6666666666667</ele><time>2026-04-19T09:12:00.993Z</time></trkpt><trkpt lat="42.15705059606155" lon="11.904411837684766"><ele>501.5</ele><time>2026-04-19T09:12:01.992Z</time></trkpt><trkpt lat="42.157014513333486" lon="11.904306831627487"><ele>501.33333333333337</ele><time>2026-04-19T09:12:02.993Z</time></trkpt><trkpt lat="42.156986627633586" lon="11.90419757089404"><ele>501.1666666666667</ele><time>2026-04-19T09:12:03.993Z</time></trkpt><trkpt lat="42.15695260813669" lon="11.904094307798156"><ele>501.0</ele><time>2026-04-19T09:12:04.992Z</time></trkpt><trkpt lat="42.15690946231141" lon="11.903994071934259"><ele>501.0</ele><time>2026-04-19T09:12:05.992Z</time></trkpt><trkpt lat="42.15687334363696" lon="11.903891476900013"><ele>501.0</ele><time>2026-04-19T09:12:06.992Z</time></trkpt><trkpt lat="42.156855746584625" lon="11.903785409566238"><ele>501.0</ele><time>2026-04-19T09:12:07.992Z</time></trkpt><trkpt lat="42.1568421698116" lon="11.903679659929837"><ele>501.0</ele><time>2026-04-19T09:12:08.992Z</time></trkpt><trkpt lat="42.156849391450365" lon="11.90357441631568"><ele>501.0</ele><time>2026-04-19T09:12:09.992Z</time></trkpt><trkpt lat="42.1568680171286" lon="11.903491769989962"><ele>501.0</ele><time>2026-04-19T09:12:10.992Z</time></trkpt><trkpt lat="42.1569069977454" lon="11.90339022261192"><ele>500.5</ele><time>2026-04-19T09:12:11.992Z</time></trkpt><trkpt lat="42.156976618111536" lon="11.903343528377343"><ele>500.0</ele><time>2026-04-19T09:12:12.992Z</time></trkpt><trkpt lat="42.157035176125376" lon="11.903273540560967"><ele>499.5</ele><time>2026-04-19T09:12:13.992Z</time></trkpt><trkpt lat="42.15708970944259" lon="11.903226829227114"><ele>499.0</ele><time>2026-04-19T09:12:14.992Z</time></trkpt><trkpt lat="42.15712745861279" lon="11.903153039171265"><ele>498.5</ele><time>2026-04-19T09:12:15.992Z</time></trkpt><trkpt lat="42.157137480071434" lon="11.902989001211322"><ele>498.0</ele><time>2026-04-19T09:12:17.993Z</time></trkpt><trkpt lat="42.15708825094714" lon="11.902880931039704"><ele>498.0</ele><time>2026-04-19T09:12:18.993Z</time></trkpt><trkpt lat="42.157055485294585" lon="11.902775168509123"><ele>498.0</ele><time>2026-04-19T09:12:19.993Z</time></trkpt><trkpt lat="42.15703046435867" lon="11.90267651460271"><ele>498.0</ele><time>2026-04-19T09:12:20.993Z</time></trkpt><trkpt lat="42.15702178413589" lon="11.902573303868317"><ele>498.0</ele><time>2026-04-19T09:12:21.993Z</time></trkpt><trkpt lat="42.1569717950048" lon="11.902417551258477"><ele>498.0</ele><time>2026-04-19T09:12:23.993Z</time></trkpt><trkpt lat="42.15692116784465" lon="11.902353401504774"><ele>498.0</ele><time>2026-04-19T09:12:24.993Z</time></trkpt><trkpt lat="42.156868023435" lon="11.902300747535294"><ele>497.2</ele><time>2026-04-19T09:12:25.993Z</time></trkpt><trkpt lat="42.15681291893703" lon="11.902247752566879"><ele>496.4</ele><time>2026-04-19T09:12:26.993Z</time></trkpt><trkpt lat="42.156719330879724" lon="11.902141822251993"><ele>495.59999999999997</ele><time>2026-04-19T09:12:28.993Z</time></trkpt><trkpt lat="42.15664649805702" lon="11.902046205631045"><ele>494.79999999999995</ele><time>2026-04-19T09:12:30.993Z</time></trkpt><trkpt lat="42.156582155302345" lon="11.901945161683768"><ele>494.0</ele><time>2026-04-19T09:12:32.993Z</time></trkpt><trkpt lat="42.156514082560804" lon="11.901848905069063"><ele>493.3333333333333</ele><time>2026-04-19T09:12:34.993Z</time></trkpt><trkpt lat="42.15646072030063" lon="11.901765342495143"><ele>492.66666666666663</ele><time>2026-04-19T09:12:36.993Z</time></trkpt><trkpt lat="42.15641412633185" lon="11.901694049825977"><ele>492.0</ele><time>2026-04-19T09:12:38.993Z</time></trkpt><trkpt lat="42.15637082169066" lon="11.901617509113523"><ele>491.33333333333337</ele><time>2026-04-19T09:12:40.993Z</time></trkpt><trkpt lat="42.15632228423736" lon="11.901534920992368"><ele>490.6666666666667</ele><time>2026-04-19T09:12:42.993Z</time></trkpt><trkpt lat="42.15625906996019" lon="11.90143977437293"><ele>490.0</ele><time>2026-04-19T09:12:44.993Z</time></trkpt><trkpt lat="42.15620472953883" lon="11.9013649975432"><ele>490.00000000000006</ele><time>2026-04-19T09:12:46.993Z</time></trkpt><trkpt lat="42.15615905198873" lon="11.901289501207678"><ele>490.0</ele><time>2026-04-19T09:12:48.993Z</time></trkpt><trkpt lat="42.156075582516316" lon="11.901242669650642"><ele>490.0</ele><time>2026-04-19T09:12:51.993Z</time></trkpt><trkpt lat="42.15598465839061" lon="11.901328563303117"><ele>490.0</ele><time>2026-04-19T09:13:49.995Z</time></trkpt><trkpt lat="42.15593150303084" lon="11.901377598390871"><ele>490.00000000000006</ele><time>2026-04-19T09:13:51.995Z</time></trkpt><trkpt lat="42.1558386617691" lon="11.90139688480728"><ele>490.0</ele><time>2026-04-19T09:13:53.995Z</time></trkpt><trkpt lat="42.15576334103635" lon="11.90141836035858"><ele>484.6</ele><time>2026-04-19T09:13:55.995Z</time></trkpt><trkpt lat="42.15566149966252" lon="11.901385298050275"><ele>479.2</ele><time>2026-04-19T09:13:57.995Z</time></trkpt><trkpt lat="42.15552258541026" lon="11.901332837837879"><ele>473.79999999999995</ele><time>2026-04-19T09:13:59.992Z</time></trkpt><trkpt lat="42.15548685540638" lon="11.901179723019156"><ele>468.4</ele><time>2026-04-19T09:14:01.992Z</time></trkpt><trkpt lat="42.15546990130247" lon="11.9010751436777"><ele>463.0</ele><time>2026-04-19T09:14:03.992Z</time></trkpt><trkpt lat="42.15545157583329" lon="11.900962105252246"><ele>462.1428571428571</ele><time>2026-04-19T09:14:05.992Z</time></trkpt><trkpt lat="42.15543613134315" lon="11.90086208678453"><ele>461.2857142857142</ele><time>2026-04-19T09:14:07.991Z</time></trkpt><trkpt lat="42.15538890902866" lon="11.900802068333457"><ele>460.42857142857144</ele><time>2026-04-19T09:14:09.992Z</time></trkpt><trkpt lat="42.1553204114872" lon="11.900756816487268"><ele>459.57142857142856</ele><time>2026-04-19T09:14:10.992Z</time></trkpt><trkpt lat="42.15531947707054" lon="11.900666587240883"><ele>458.7142857142857</ele><time>2026-04-19T09:14:11.992Z</time></trkpt><trkpt lat="42.15541286432485" lon="11.90062810301551"><ele>457.8571428571429</ele><time>2026-04-19T09:14:12.992Z</time></trkpt><trkpt lat="42.15547391806417" lon="11.900606438131764"><ele>457.00000000000006</ele><time>2026-04-19T09:14:13.992Z</time></trkpt><trkpt lat="42.15555037191642" lon="11.900570817421757"><ele>457.0</ele><time>2026-04-19T09:14:14.992Z</time></trkpt><trkpt lat="42.15563191753352" lon="11.900513232529377"><ele>457.00000000000006</ele><time>2026-04-19T09:14:15.992Z</time></trkpt><trkpt lat="42.15569945549678" lon="11.900431005938286"><ele>457.00000000000006</ele><time>2026-04-19T09:14:16.992Z</time></trkpt><trkpt lat="42.15575722414887" lon="11.900320732725781"><ele>457.0</ele><time>2026-04-19T09:14:17.992Z</time></trkpt><trkpt lat="42.155808481485636" lon="11.900198502622171"><ele>457.0</ele><time>2026-04-19T09:14:18.992Z</time></trkpt><trkpt lat="42.15584257940019" lon="11.900061396562164"><ele>458.40000000000003</ele><time>2026-04-19T09:14:19.992Z</time></trkpt><trkpt lat="42.15586323919334" lon="11.899906503094765"><ele>459.80000000000007</ele><time>2026-04-19T09:14:20.992Z</time></trkpt><trkpt lat="42.15588941421783" lon="11.899753182724316"><ele>461.2</ele><time>2026-04-19T09:14:21.992Z</time></trkpt><trkpt lat="42.15592927759062" lon="11.899604569937152"><ele>462.6</ele><time>2026-04-19T09:14:22.992Z</time></trkpt><trkpt lat="42.155958346601935" lon="11.899481869422692"><ele>464.0</ele><time>2026-04-19T09:14:23.992Z</time></trkpt><trkpt lat="42.15596775282986" lon="11.89939315580233"><ele>463.99999999999994</ele><time>2026-04-19T09:14:24.992Z</time></trkpt><trkpt lat="42.155936952031176" lon="11.899305650613424"><ele>464.0</ele><time>2026-04-19T09:14:26.992Z</time></trkpt><trkpt lat="42.15587588194837" lon="11.89934055174763"><ele>464.0</ele><time>2026-04-19T09:14:27.992Z</time></trkpt><trkpt lat="42.15583363649203" lon="11.899403594119429"><ele>464.0</ele><time>2026-04-19T09:14:28.992Z</time></trkpt><trkpt lat="42.15582029498405" lon="11.899512417074046"><ele>463.99999999999994</ele><time>2026-04-19T09:14:29.992Z</time></trkpt><trkpt lat="42.15577782456742" lon="11.899615590905476"><ele>464.0</ele><time>2026-04-19T09:14:30.992Z</time></trkpt><trkpt lat="42.155720117030526" lon="11.899691301805786"><ele>460.2</ele><time>2026-04-19T09:14:31.992Z</time></trkpt><trkpt lat="42.15565743783876" lon="11.899752342585494"><ele>456.4</ele><time>2026-04-19T09:14:32.992Z</time></trkpt><trkpt lat="42.155598832920404" lon="11.899783740123812"><ele>452.6</ele><time>2026-04-19T09:14:33.993Z</time></trkpt><trkpt lat="42.15547234380774" lon="11.899778102463689"><ele>448.8</ele><time>2026-04-19T09:14:35.993Z</time></trkpt><trkpt lat="42.155401569713604" lon="11.899709168398482"><ele>445.0</ele><time>2026-04-19T09:14:36.993Z</time></trkpt><trkpt lat="42.155329643571584" lon="11.899621785974013"><ele>445.00000000000006</ele><time>2026-04-19T09:14:37.993Z</time></trkpt><trkpt lat="42.155257373160886" lon="11.8995573493878"><ele>445.0</ele><time>2026-04-19T09:14:38.993Z</time></trkpt><trkpt lat="42.155179382989004" lon="11.899532938414408"><ele>445.0</ele><time>2026-04-19T09:14:39.993Z</time></trkpt><trkpt lat="42.15510877972034" lon="11.89953004970941"><ele>445.0</ele><time>2026-04-19T09:14:40.993Z</time></trkpt><trkpt lat="42.15501421893118" lon="11.899456737118301"><ele>445.00000000000006</ele><time>2026-04-19T09:14:42.993Z</time></trkpt><trkpt lat="42.155021415149356" lon="11.899333218554979"><ele>445.0</ele><time>2026-04-19T09:14:43.993Z</time></trkpt><trkpt lat="42.15504797379706" lon="11.899204345476125"><ele>442.83333333333337</ele><time>2026-04-19T09:14:44.993Z</time></trkpt><trkpt lat="42.155045061112375" lon="11.899074511704548"><ele>440.6666666666667</ele><time>2026-04-19T09:14:45.993Z</time></trkpt><trkpt lat="42.15502709736757" lon="11.898975124067027"><ele>438.5</ele><time>2026-04-19T09:14:46.993Z</time></trkpt><trkpt lat="42.155011705225064" lon="11.898868424085823"><ele>436.33333333333337</ele><time>2026-04-19T09:14:47.993Z</time></trkpt><trkpt lat="42.15501991154101" lon="11.898759683734204"><ele>434.1666666666667</ele><time>2026-04-19T09:14:48.993Z</time></trkpt><trkpt lat="42.15505517578542" lon="11.898645327493833"><ele>432.0</ele><time>2026-04-19T09:14:49.993Z</time></trkpt><trkpt lat="42.155099304838856" lon="11.898537315263669"><ele>432.0</ele><time>2026-04-19T09:14:50.993Z</time></trkpt><trkpt lat="42.155149839802334" lon="11.898471011631832"><ele>432.0</ele><time>2026-04-19T09:14:51.993Z</time></trkpt><trkpt lat="42.155184399244476" lon="11.89834926560049"><ele>432.0</ele><time>2026-04-19T09:14:53.993Z</time></trkpt><trkpt lat="42.15510302678877" lon="11.898279898166608"><ele>432.0</ele><time>2026-04-19T09:14:55.993Z</time></trkpt><trkpt lat="42.15502301496635" lon="11.89827479926051"><ele>432.0</ele><time>2026-04-19T09:14:56.993Z</time></trkpt><trkpt lat="42.154922946066364" lon="11.89826367932887"><ele>432.0</ele><time>2026-04-19T09:14:57.993Z</time></trkpt><trkpt lat="42.15483561819221" lon="11.898257111874576"><ele>431.40000000000003</ele><time>2026-04-19T09:14:58.993Z</time></trkpt><trkpt lat="42.1547049399872" lon="11.898360980652459"><ele>430.80000000000007</ele><time>2026-04-19T09:15:00.993Z</time></trkpt><trkpt lat="42.15463739045896" lon="11.898437408901133"><ele>430.2</ele><time>2026-04-19T09:15:01.993Z</time></trkpt><trkpt lat="42.154549877440594" lon="11.898485628030878"><ele>429.6</ele><time>2026-04-19T09:15:02.993Z</time></trkpt><trkpt lat="42.15445532748731" lon="11.898510522665807"><ele>429.0</ele><time>2026-04-19T09:15:03.993Z</time></trkpt><trkpt lat="42.15436010515313" lon="11.898532655724583"><ele>429.0</ele><time>2026-04-19T09:15:04.993Z</time></trkpt><trkpt lat="42.154285561344714" lon="11.898566970520891"><ele>429.0</ele><time>2026-04-19T09:15:05.993Z</time></trkpt><trkpt lat="42.15421986662186" lon="11.898593282622535"><ele>429.0</ele><time>2026-04-19T09:15:06.993Z</time></trkpt><trkpt lat="42.15413728212566" lon="11.898526903925875"><ele>429.0</ele><time>2026-04-19T09:15:08.993Z</time></trkpt><trkpt lat="42.1541001884159" lon="11.898428255965186"><ele>429.0</ele><time>2026-04-19T09:15:09.994Z</time></trkpt><trkpt lat="42.15406838704494" lon="11.898304194624934"><ele>429.0</ele><time>2026-04-19T09:15:10.994Z</time></trkpt><trkpt lat="42.15404898462814" lon="11.89816103916311"><ele>429.4</ele><time>2026-04-19T09:15:11.994Z</time></trkpt><trkpt lat="42.154023176153785" lon="11.898023504241031"><ele>429.79999999999995</ele><time>2026-04-19T09:15:12.994Z</time></trkpt><trkpt lat="42.153998521988804" lon="11.897882633805205"><ele>430.20000000000005</ele><time>2026-04-19T09:15:13.994Z</time></trkpt><trkpt lat="42.15398845793007" lon="11.897736302143082"><ele>430.6</ele><time>2026-04-19T09:15:14.994Z</time></trkpt><trkpt lat="42.153989147087934" lon="11.897591699877358"><ele>431.0</ele><time>2026-04-19T09:15:15.994Z</time></trkpt><trkpt lat="42.15398765598834" lon="11.897455327356987"><ele>428.20000000000005</ele><time>2026-04-19T09:15:16.994Z</time></trkpt><trkpt lat="42.15400496545272" lon="11.897315664708886"><ele>425.40000000000003</ele><time>2026-04-19T09:15:17.994Z</time></trkpt><trkpt lat="42.1540372819284" lon="11.897180923402438"><ele>422.6</ele><time>2026-04-19T09:15:18.994Z</time></trkpt><trkpt lat="42.15407346416266" lon="11.897068209585774"><ele>419.8</ele><time>2026-04-19T09:15:19.994Z</time></trkpt><trkpt lat="42.15408260975913" lon="11.896935614178673"><ele>417.0</ele><time>2026-04-19T09:15:20.994Z</time></trkpt><trkpt lat="42.154066198452476" lon="11.896799247692877"><ele>414.6666666666667</ele><time>2026-04-19T09:15:21.994Z</time></trkpt><trkpt lat="42.154041704977644" lon="11.896676435373099"><ele>412.33333333333337</ele><time>2026-04-19T09:15:22.994Z</time></trkpt><trkpt lat="42.15403708995256" lon="11.896554789431036"><ele>410.0</ele><time>2026-04-19T09:15:23.994Z</time></trkpt><trkpt lat="42.15404070063357" lon="11.89643767522478"><ele>407.6666666666667</ele><time>2026-04-19T09:15:24.994Z</time></trkpt><trkpt lat="42.15404063788667" lon="11.89633493217854"><ele>405.33333333333337</ele><time>2026-04-19T09:15:25.994Z</time></trkpt><trkpt lat="42.15403398638466" lon="11.896202137362447"><ele>403.0</ele><time>2026-04-19T09:15:27.994Z</time></trkpt><trkpt lat="42.15393793192311" lon="11.896201264016073"><ele>403.0</ele><time>2026-04-19T09:15:29.994Z</time></trkpt><trkpt lat="42.153874756891355" lon="11.89622551539237"><ele>403.0</ele><time>2026-04-19T09:15:30.994Z</time></trkpt><trkpt lat="42.15381095810502" lon="11.896271667941518"><ele>403.0</ele><time>2026-04-19T09:15:31.994Z</time></trkpt><trkpt lat="42.15374712809913" lon="11.896302818355178"><ele>403.0</ele><time>2026-04-19T09:15:32.994Z</time></trkpt><trkpt lat="42.15367167576216" lon="11.896292319788106"><ele>403.0</ele><time>2026-04-19T09:15:33.994Z</time></trkpt><trkpt lat="42.153597134214614" lon="11.896284475476776"><ele>403.0</ele><time>2026-04-19T09:15:34.994Z</time></trkpt><trkpt lat="42.153519872368484" lon="11.896289368796413"><ele>403.0</ele><time>2026-04-19T09:15:35.994Z</time></trkpt><trkpt lat="42.15344799095701" lon="11.896284273065461"><ele>403.00000000000006</ele><time>2026-04-19T09:15:36.994Z</time></trkpt><trkpt lat="42.15335204907292" lon="11.896201044384545"><ele>403.0</ele><time>2026-04-19T09:15:38.994Z</time></trkpt><trkpt lat="42.15331424254577" lon="11.896112426057826"><ele>403.0</ele><time>2026-04-19T09:15:39.994Z</time></trkpt><trkpt lat="42.153285447245324" lon="11.896020651312726"><ele>403.0</ele><time>2026-04-19T09:15:40.994Z</time></trkpt><trkpt lat="42.15320215587537" lon="11.895931168821223"><ele>403.00000000000006</ele><time>2026-04-19T09:15:42.994Z</time></trkpt><trkpt lat="42.15313495908705" lon="11.89595826145937"><ele>403.0</ele><time>2026-04-19T09:15:43.994Z</time></trkpt><trkpt lat="42.153093186702236" lon="11.896025481168365"><ele>404.1666666666667</ele><time>2026-04-19T09:15:44.994Z</time></trkpt><trkpt lat="42.15307781784872" lon="11.896120304148457"><ele>405.33333333333337</ele><time>2026-04-19T09:15:45.995Z</time></trkpt><trkpt lat="42.15308174769614" lon="11.896225536394637"><ele>406.5</ele><time>2026-04-19T09:15:46.995Z</time></trkpt><trkpt lat="42.15311378584775" lon="11.896347314823657"><ele>407.66666666666663</ele><time>2026-04-19T09:15:47.995Z</time></trkpt><trkpt lat="42.153155823923704" lon="11.896440442057338"><ele>408.8333333333333</ele><time>2026-04-19T09:15:48.995Z</time></trkpt><trkpt lat="42.1532024537863" lon="11.896549441100005"><ele>410.0</ele><time>2026-04-19T09:15:50.995Z</time></trkpt><trkpt lat="42.1531142060089" lon="11.896568855456644"><ele>410.0</ele><time>2026-04-19T09:15:52.995Z</time></trkpt><trkpt lat="42.153057294797264" lon="11.89649920163583"><ele>410.0</ele><time>2026-04-19T09:15:53.995Z</time></trkpt><trkpt lat="42.15299401031279" lon="11.896398983509318"><ele>410.0</ele><time>2026-04-19T09:15:54.995Z</time></trkpt><trkpt lat="42.15291616629507" lon="11.896302568615685"><ele>410.0</ele><time>2026-04-19T09:15:55.995Z</time></trkpt><trkpt lat="42.15282013796105" lon="11.896245659314173"><ele>410.0</ele><time>2026-04-19T09:15:56.995Z</time></trkpt><trkpt lat="42.152737575984276" lon="11.896244583731331"><ele>410.0</ele><time>2026-04-19T09:15:57.995Z</time></trkpt><trkpt lat="42.15266107488926" lon="11.896315138898489"><ele>410.0</ele><time>2026-04-19T09:15:58.995Z</time></trkpt><trkpt lat="42.152593538338174" lon="11.896407538521782"><ele>410.0</ele><time>2026-04-19T09:15:59.995Z</time></trkpt><trkpt lat="42.1525271485813" lon="11.896520822422964"><ele>410.0</ele><time>2026-04-19T09:16:00.995Z</time></trkpt><trkpt lat="42.15245886294239" lon="11.896626318927218"><ele>410.0</ele><time>2026-04-19T09:16:01.995Z</time></trkpt><trkpt lat="42.15237436077188" lon="11.896701290385291"><ele>411.6</ele><time>2026-04-19T09:16:02.995Z</time></trkpt><trkpt lat="42.15229360753458" lon="11.896746115410462"><ele>413.2</ele><time>2026-04-19T09:16:03.995Z</time></trkpt><trkpt lat="42.15219823078445" lon="11.89680090010372"><ele>414.79999999999995</ele><time>2026-04-19T09:16:05.99Z</time></trkpt><trkpt lat="42.152109724383216" lon="11.896822028342395"><ele>416.4</ele><time>2026-04-19T09:16:07.991Z</time></trkpt><trkpt lat="42.15199631915949" lon="11.896702865850036"><ele>418.0</ele><time>2026-04-19T09:16:09.99Z</time></trkpt><trkpt lat="42.15189611475118" lon="11.896642884295058"><ele>418.0</ele><time>2026-04-19T09:16:10.991Z</time></trkpt><trkpt lat="42.151781682684955" lon="11.896604471186345"><ele>418.0</ele><time>2026-04-19T09:16:11.99Z</time></trkpt><trkpt lat="42.15167813462216" lon="11.896561347210865"><ele>418.0</ele><time>2026-04-19T09:16:12.99Z</time></trkpt><trkpt lat="42.15161130055065" lon="11.896486519121591"><ele>418.0</ele><time>2026-04-19T09:16:13.99Z</time></trkpt><trkpt lat="42.15157144915341" lon="11.896352795947882"><ele>418.0</ele><time>2026-04-19T09:16:14.99Z</time></trkpt><trkpt lat="42.151533748181045" lon="11.896213634942368"><ele>418.0</ele><time>2026-04-19T09:16:15.99Z</time></trkpt><trkpt lat="42.151488164926114" lon="11.896090628312557"><ele>418.0</ele><time>2026-04-19T09:16:16.991Z</time></trkpt><trkpt lat="42.15141895691482" lon="11.896001123620705"><ele>418.0</ele><time>2026-04-19T09:16:17.991Z</time></trkpt><trkpt lat="42.15131273551019" lon="11.89591631175882"><ele>418.0</ele><time>2026-04-19T09:16:18.991Z</time></trkpt><trkpt lat="42.1511896276868" lon="11.895845015168465"><ele>414.79999999999995</ele><time>2026-04-19T09:16:19.991Z</time></trkpt><trkpt lat="42.15108841170945" lon="11.895765990491892"><ele>411.6</ele><time>2026-04-19T09:16:20.991Z</time></trkpt><trkpt lat="42.151001117880504" lon="11.895687478037924"><ele>408.4</ele><time>2026-04-19T09:16:21.991Z</time></trkpt><trkpt lat="42.150915628586134" lon="11.895613432175265"><ele>405.20000000000005</ele><time>2026-04-19T09:16:22.991Z</time></trkpt><trkpt lat="42.15083889429703" lon="11.89555479724259"><ele>402.0</ele><time>2026-04-19T09:16:23.991Z</time></trkpt><trkpt lat="42.15077627759806" lon="11.89550516089298"><ele>402.0</ele><time>2026-04-19T09:16:24.991Z</time></trkpt><trkpt lat="42.15071372232858" lon="11.895473832431842"><ele>402.0</ele><time>2026-04-19T09:16:25.991Z</time></trkpt><trkpt lat="42.15065062407119" lon="11.895452718823657"><ele>402.0</ele><time>2026-04-19T09:16:26.991Z</time></trkpt><trkpt lat="42.15057281022979" lon="11.895369732388017"><ele>402.0</ele><time>2026-04-19T09:16:28.991Z</time></trkpt><trkpt lat="42.15051956461656" lon="11.89531531440288"><ele>402.0</ele><time>2026-04-19T09:16:31.991Z</time></trkpt><trkpt lat="42.150479413746424" lon="11.895256320891985"><ele>402.0</ele><time>2026-04-19T09:24:10.996Z</time></trkpt><trkpt lat="42.15040838123691" lon="11.89521925583383"><ele>402.0</ele><time>2026-04-19T09:24:14.996Z</time></trkpt><trkpt lat="42.15038760187163" lon="11.895116218197417"><ele>400.5</ele><time>2026-04-19T09:24:18.996Z</time></trkpt><trkpt lat="42.15032086556816" lon="11.895042545006568"><ele>399.0</ele><time>2026-04-19T09:24:22.996Z</time></trkpt><trkpt lat="42.15025363791723" lon="11.894991992878039"><ele>397.5</ele><time>2026-04-19T09:24:25.996Z</time></trkpt><trkpt lat="42.15018490121712" lon="11.894928002746326"><ele>396.0</ele><time>2026-04-19T09:24:28.994Z</time></trkpt><trkpt lat="42.15012046940781" lon="11.894876099194763"><ele>394.5</ele><time>2026-04-19T09:24:31.994Z</time></trkpt><trkpt lat="42.150055264399924" lon="11.894832121387882"><ele>393.0</ele><time>2026-04-19T09:24:34.994Z</time></trkpt><trkpt lat="42.149989586024645" lon="11.894793761980639"><ele>393.0</ele><time>2026-04-19T09:24:37.993Z</time></trkpt><trkpt lat="42.14992131887465" lon="11.89476427443818"><ele>393.0</ele><time>2026-04-19T09:24:40.993Z</time></trkpt><trkpt lat="42.14985127657433" lon="11.894719641679105"><ele>393.0</ele><time>2026-04-19T09:24:43.994Z</time></trkpt><trkpt lat="42.149766911670014" lon="11.894673046857559"><ele>393.0</ele><time>2026-04-19T09:24:46.994Z</time></trkpt><trkpt lat="42.1496633863919" lon="11.89459485198972"><ele>393.0</ele><time>2026-04-19T09:24:48.994Z</time></trkpt><trkpt lat="42.149599998017486" lon="11.894556655370955"><ele>393.0</ele><time>2026-04-19T09:24:49.994Z</time></trkpt><trkpt lat="42.149529493866595" lon="11.894511579656879"><ele>393.59999999999997</ele><time>2026-04-19T09:24:50.994Z</time></trkpt><trkpt lat="42.14947235308257" lon="11.894415767774044"><ele>394.2</ele><time>2026-04-19T09:24:51.994Z</time></trkpt><trkpt lat="42.149417827273204" lon="11.894319565882164"><ele>394.8</ele><time>2026-04-19T09:24:52.994Z</time></trkpt><trkpt lat="42.14935601612863" lon="11.894207668644814"><ele>395.4</ele><time>2026-04-19T09:24:53.994Z</time></trkpt><trkpt lat="42.14929244096738" lon="11.894089204756451"><ele>396.0</ele><time>2026-04-19T09:24:54.994Z</time></trkpt><trkpt lat="42.149228006762726" lon="11.893958914516421"><ele>396.0</ele><time>2026-04-19T09:24:55.994Z</time></trkpt><trkpt lat="42.14915180632916" lon="11.893835855947806"><ele>396.0</ele><time>2026-04-19T09:24:56.994Z</time></trkpt><trkpt lat="42.14908670932521" lon="11.893693956296861"><ele>396.0</ele><time>2026-04-19T09:24:57.994Z</time></trkpt><trkpt lat="42.1490218136998" lon="11.893568637084536"><ele>396.0</ele><time>2026-04-19T09:24:58.994Z</time></trkpt><trkpt lat="42.14895761159513" lon="11.893455721809875"><ele>396.4</ele><time>2026-04-19T09:24:59.994Z</time></trkpt><trkpt lat="42.14889712198111" lon="11.893355916454368"><ele>396.8</ele><time>2026-04-19T09:25:00.994Z</time></trkpt><trkpt lat="42.14883706951337" lon="11.893261443777298"><ele>397.2</ele><time>2026-04-19T09:25:01.994Z</time></trkpt><trkpt lat="42.1487583686325" lon="11.89318919607148"><ele>397.59999999999997</ele><time>2026-04-19T09:25:02.994Z</time></trkpt><trkpt lat="42.14866181636083" lon="11.893169400714784"><ele>398.0</ele><time>2026-04-19T09:25:03.994Z</time></trkpt><trkpt lat="42.14855769018929" lon="11.893165416600812"><ele>398.0</ele><time>2026-04-19T09:25:04.994Z</time></trkpt><trkpt lat="42.14844635296014" lon="11.893168197388576"><ele>398.0</ele><time>2026-04-19T09:25:05.994Z</time></trkpt><trkpt lat="42.148334787975664" lon="11.893208903469958"><ele>398.0</ele><time>2026-04-19T09:25:06.994Z</time></trkpt><trkpt lat="42.148237249422834" lon="11.893265538837989"><ele>398.0</ele><time>2026-04-19T09:25:07.994Z</time></trkpt><trkpt lat="42.148150508051955" lon="11.893332912896794"><ele>398.0</ele><time>2026-04-19T09:25:08.994Z</time></trkpt><trkpt lat="42.14806624004212" lon="11.893397898574626"><ele>398.3333333333333</ele><time>2026-04-19T09:25:09.994Z</time></trkpt><trkpt lat="42.147982207560986" lon="11.893436997581887"><ele>398.66666666666663</ele><time>2026-04-19T09:25:10.994Z</time></trkpt><trkpt lat="42.1479107801413" lon="11.893419184570211"><ele>399.0</ele><time>2026-04-19T09:25:11.994Z</time></trkpt><trkpt lat="42.147843444947235" lon="11.893369305639652"><ele>399.33333333333337</ele><time>2026-04-19T09:25:12.995Z</time></trkpt><trkpt lat="42.14778282906658" lon="11.893276049275615"><ele>399.6666666666667</ele><time>2026-04-19T09:25:13.995Z</time></trkpt><trkpt lat="42.147717666218405" lon="11.893185046100113"><ele>400.0</ele><time>2026-04-19T09:25:14.995Z</time></trkpt><trkpt lat="42.147654040917935" lon="11.893113443616762"><ele>400.0</ele><time>2026-04-19T09:25:15.995Z</time></trkpt><trkpt lat="42.147577627223114" lon="11.893073510447962"><ele>400.0</ele><time>2026-04-19T09:25:16.995Z</time></trkpt><trkpt lat="42.1474891385538" lon="11.893111334942706"><ele>400.0</ele><time>2026-04-19T09:25:17.995Z</time></trkpt><trkpt lat="42.1473852907832" lon="11.89314039636229"><ele>400.0</ele><time>2026-04-19T09:25:18.995Z</time></trkpt><trkpt lat="42.14727904362976" lon="11.893200819477661"><ele>400.0</ele><time>2026-04-19T09:25:19.995Z</time></trkpt><trkpt lat="42.147177373305986" lon="11.89326468043902"><ele>399.8</ele><time>2026-04-19T09:25:20.995Z</time></trkpt><trkpt lat="42.147075479469535" lon="11.893317192488599"><ele>399.6</ele><time>2026-04-19T09:25:21.995Z</time></trkpt><trkpt lat="42.14697593205626" lon="11.893365459285464"><ele>399.4</ele><time>2026-04-19T09:25:22.995Z</time></trkpt><trkpt lat="42.14686529075433" lon="11.89335648280769"><ele>399.2</ele><time>2026-04-19T09:25:23.995Z</time></trkpt><trkpt lat="42.14675773492598" lon="11.89333413889429"><ele>399.0</ele><time>2026-04-19T09:25:24.995Z</time></trkpt><trkpt lat="42.146656194099805" lon="11.89330342064245"><ele>399.0</ele><time>2026-04-19T09:25:25.995Z</time></trkpt><trkpt lat="42.14655790984316" lon="11.893254937416478"><ele>399.0</ele><time>2026-04-19T09:25:26.995Z</time></trkpt><trkpt lat="42.146474673563105" lon="11.89318142124774"><ele>399.0</ele><time>2026-04-19T09:25:27.995Z</time></trkpt><trkpt lat="42.146391267842546" lon="11.893136199505937"><ele>399.0</ele><time>2026-04-19T09:25:28.995Z</time></trkpt><trkpt lat="42.146304000861704" lon="11.893115768410865"><ele>399.0</ele><time>2026-04-19T09:25:29.995Z</time></trkpt><trkpt lat="42.1462274398036" lon="11.893045631176395"><ele>401.4</ele><time>2026-04-19T09:25:30.995Z</time></trkpt><trkpt lat="42.14619291498961" lon="11.8929306366891"><ele>403.79999999999995</ele><time>2026-04-19T09:25:31.995Z</time></trkpt><trkpt lat="42.14617448401654" lon="11.892822665841868"><ele>406.20000000000005</ele><time>2026-04-19T09:25:32.995Z</time></trkpt><trkpt lat="42.14615295954489" lon="11.892695185153341"><ele>408.6</ele><time>2026-04-19T09:25:33.995Z</time></trkpt><trkpt lat="42.14612691947785" lon="11.892569170882371"><ele>411.0</ele><time>2026-04-19T09:25:34.995Z</time></trkpt><trkpt lat="42.14611998432464" lon="11.892441861912413"><ele>411.1666666666667</ele><time>2026-04-19T09:25:35.995Z</time></trkpt><trkpt lat="42.14610714525674" lon="11.892323227510085"><ele>411.33333333333337</ele><time>2026-04-19T09:25:36.995Z</time></trkpt><trkpt lat="42.14612593130858" lon="11.892218601458032"><ele>411.5</ele><time>2026-04-19T09:25:37.995Z</time></trkpt><trkpt lat="42.14613920374707" lon="11.892111440448701"><ele>411.6666666666667</ele><time>2026-04-19T09:25:38.995Z</time></trkpt><trkpt lat="42.14615921596647" lon="11.892001990935457"><ele>411.83333333333337</ele><time>2026-04-19T09:25:39.995Z</time></trkpt><trkpt lat="42.14617794143691" lon="11.891892188793578"><ele>412.0</ele><time>2026-04-19T09:25:40.995Z</time></trkpt><trkpt lat="42.146182922465215" lon="11.891778440436774"><ele>413.00000000000006</ele><time>2026-04-19T09:25:41.995Z</time></trkpt><trkpt lat="42.14615839538617" lon="11.891666862993603"><ele>414.0</ele><time>2026-04-19T09:25:42.995Z</time></trkpt><trkpt lat="42.14612731374393" lon="11.891553138448828"><ele>415.0</ele><time>2026-04-19T09:25:43.995Z</time></trkpt><trkpt lat="42.146095820543216" lon="11.89144479054904"><ele>416.0</ele><time>2026-04-19T09:25:44.995Z</time></trkpt><trkpt lat="42.14605340515316" lon="11.89133411768959"><ele>417.00000000000006</ele><time>2026-04-19T09:25:45.995Z</time></trkpt><trkpt lat="42.14600711419526" lon="11.891237092982413"><ele>418.0</ele><time>2026-04-19T09:25:46.995Z</time></trkpt><trkpt lat="42.14596717793468" lon="11.891147974507032"><ele>418.00000000000006</ele><time>2026-04-19T09:25:47.995Z</time></trkpt><trkpt lat="42.14594523230835" lon="11.891057841897691"><ele>418.0</ele><time>2026-04-19T09:25:48.996Z</time></trkpt><trkpt lat="42.14594176035664" lon="11.890962658575663"><ele>418.0</ele><time>2026-04-19T09:25:49.996Z</time></trkpt><trkpt lat="42.145943400517304" lon="11.89084916346181"><ele>418.0</ele><time>2026-04-19T09:25:50.996Z</time></trkpt><trkpt lat="42.14594543058697" lon="11.890727968952495"><ele>418.00000000000006</ele><time>2026-04-19T09:25:51.996Z</time></trkpt><trkpt lat="42.14595378255995" lon="11.890617663325363"><ele>418.0</ele><time>2026-04-19T09:25:52.996Z</time></trkpt><trkpt lat="42.14595751087187" lon="11.8904916133557"><ele>417.6666666666667</ele><time>2026-04-19T09:25:53.996Z</time></trkpt><trkpt lat="42.14595664274708" lon="11.890369337985705"><ele>417.33333333333337</ele><time>2026-04-19T09:25:54.996Z</time></trkpt><trkpt lat="42.145955894138815" lon="11.890263896452252"><ele>417.0</ele><time>2026-04-19T09:25:55.996Z</time></trkpt><trkpt lat="42.1459432939827" lon="11.890159577517062"><ele>416.66666666666663</ele><time>2026-04-19T09:25:56.996Z</time></trkpt><trkpt lat="42.14597456061917" lon="11.890052365474588"><ele>416.3333333333333</ele><time>2026-04-19T09:25:57.996Z</time></trkpt><trkpt lat="42.145988827792436" lon="11.889911643193061"><ele>416.0</ele><time>2026-04-19T09:25:58.996Z</time></trkpt><trkpt lat="42.14598157992441" lon="11.889762845250718"><ele>416.0</ele><time>2026-04-19T09:25:59.996Z</time></trkpt><trkpt lat="42.145982308293554" lon="11.889601822458214"><ele>416.0</ele><time>2026-04-19T09:26:00.996Z</time></trkpt><trkpt lat="42.14597730411863" lon="11.88945431756869"><ele>416.0</ele><time>2026-04-19T09:26:01.996Z</time></trkpt><trkpt lat="42.145961374407904" lon="11.889293639342709"><ele>416.0</ele><time>2026-04-19T09:26:02.996Z</time></trkpt><trkpt lat="42.14595224304223" lon="11.889125736846003"><ele>415.4</ele><time>2026-04-19T09:26:03.996Z</time></trkpt><trkpt lat="42.14593509813855" lon="11.888989567990272"><ele>414.8</ele><time>2026-04-19T09:26:04.996Z</time></trkpt><trkpt lat="42.14590795482808" lon="11.888855518844172"><ele>414.2</ele><time>2026-04-19T09:26:05.996Z</time></trkpt><trkpt lat="42.14589501349749" lon="11.888734524062423"><ele>413.59999999999997</ele><time>2026-04-19T09:26:06.996Z</time></trkpt><trkpt lat="42.14588296388704" lon="11.888613964201536"><ele>413.0</ele><time>2026-04-19T09:26:07.996Z</time></trkpt><trkpt lat="42.1458706443419" lon="11.888517634403364"><ele>411.79999999999995</ele><time>2026-04-19T09:26:08.996Z</time></trkpt><trkpt lat="42.1458513924686" lon="11.888382832689185"><ele>410.6</ele><time>2026-04-19T09:26:09.996Z</time></trkpt><trkpt lat="42.145830291895024" lon="11.888253798212816"><ele>409.4</ele><time>2026-04-19T09:26:10.996Z</time></trkpt><trkpt lat="42.145803466819956" lon="11.88813966482721"><ele>408.20000000000005</ele><time>2026-04-19T09:26:11.996Z</time></trkpt><trkpt lat="42.14578286973328" lon="11.888028329519376"><ele>407.0</ele><time>2026-04-19T09:26:12.996Z</time></trkpt><trkpt lat="42.14572034816556" lon="11.887961065263317"><ele>411.20000000000005</ele><time>2026-04-19T09:26:13.996Z</time></trkpt><trkpt lat="42.14565197497635" lon="11.887902888794661"><ele>415.4</ele><time>2026-04-19T09:26:14.996Z</time></trkpt><trkpt lat="42.145549334995046" lon="11.88787501691363"><ele>419.59999999999997</ele><time>2026-04-19T09:26:15.996Z</time></trkpt><trkpt lat="42.14543139402302" lon="11.887877616158557"><ele>423.79999999999995</ele><time>2026-04-19T09:26:16.996Z</time></trkpt><trkpt lat="42.14531421024346" lon="11.887887721289127"><ele>428.0</ele><time>2026-04-19T09:26:17.996Z</time></trkpt><trkpt lat="42.14520853629537" lon="11.88789517624233"><ele>428.0</ele><time>2026-04-19T09:26:18.996Z</time></trkpt><trkpt lat="42.145103215875245" lon="11.887903365188487"><ele>427.99999999999994</ele><time>2026-04-19T09:26:19.996Z</time></trkpt><trkpt lat="42.145011939757914" lon="11.887911407833663"><ele>427.99999999999994</ele><time>2026-04-19T09:26:20.996Z</time></trkpt><trkpt lat="42.14492964078193" lon="11.88791865947643"><ele>428.0</ele><time>2026-04-19T09:26:21.996Z</time></trkpt><trkpt lat="42.144866824487934" lon="11.887939931699343"><ele>428.0</ele><time>2026-04-19T09:26:22.996Z</time></trkpt><trkpt lat="42.14477460388421" lon="11.887866106034233"><ele>429.16666666666663</ele><time>2026-04-19T09:26:24.997Z</time></trkpt><trkpt lat="42.14476571877636" lon="11.887741849204316"><ele>430.3333333333333</ele><time>2026-04-19T09:26:25.997Z</time></trkpt><trkpt lat="42.14476178784579" lon="11.887637456764864"><ele>431.5</ele><time>2026-04-19T09:26:26.997Z</time></trkpt><trkpt lat="42.14475594834214" lon="11.88753205171254"><ele>432.66666666666663</ele><time>2026-04-19T09:26:27.997Z</time></trkpt><trkpt lat="42.14475049210103" lon="11.887433564601395"><ele>433.8333333333333</ele><time>2026-04-19T09:26:28.997Z</time></trkpt><trkpt lat="42.14474731864162" lon="11.887341293338078"><ele>435.0</ele><time>2026-04-19T09:26:29.997Z</time></trkpt><trkpt lat="42.14474542468289" lon="11.887253316550698"><ele>435.0</ele><time>2026-04-19T09:26:30.997Z</time></trkpt><trkpt lat="42.144722761296805" lon="11.887122868712645"><ele>435.0</ele><time>2026-04-19T09:26:32.997Z</time></trkpt><trkpt lat="42.14472143026734" lon="11.886969455375763"><ele>435.0</ele><time>2026-04-19T09:26:34.991Z</time></trkpt><trkpt lat="42.14453340001929" lon="11.886943594705413"><ele>435.0</ele><time>2026-04-19T09:26:35.992Z</time></trkpt><trkpt lat="42.14444699216155" lon="11.886933356335387"><ele>435.0</ele><time>2026-04-19T09:26:36.992Z</time></trkpt><trkpt lat="42.144370090179365" lon="11.88693093262606"><ele>435.0</ele><time>2026-04-19T09:26:37.991Z</time></trkpt><trkpt lat="42.14430676625327" lon="11.88692423403368"><ele>435.0</ele><time>2026-04-19T09:26:38.991Z</time></trkpt><trkpt lat="42.14422852921026" lon="11.886899493815486"><ele>435.0</ele><time>2026-04-19T09:26:40.992Z</time></trkpt><trkpt lat="42.144159258533236" lon="11.886854249466149"><ele>435.0</ele><time>2026-04-19T09:26:43.992Z</time></trkpt><trkpt lat="42.14408828411114" lon="11.886835313301942"><ele>435.0</ele><time>2026-04-19T09:26:48.991Z</time></trkpt><trkpt lat="42.14401217690944" lon="11.886758059173284"><ele>435.1666666666667</ele><time>2026-04-19T09:26:50.992Z</time></trkpt><trkpt lat="42.14397100018946" lon="11.886679790195704"><ele>435.33333333333337</ele><time>2026-04-19T09:26:51.992Z</time></trkpt><trkpt lat="42.14393554779454" lon="11.886590159350217"><ele>435.5</ele><time>2026-04-19T09:26:52.992Z</time></trkpt><trkpt lat="42.14392208332074" lon="11.886481389296899"><ele>435.6666666666667</ele><time>2026-04-19T09:26:53.992Z</time></trkpt><trkpt lat="42.14392507160408" lon="11.88637439730173"><ele>435.83333333333337</ele><time>2026-04-19T09:26:54.992Z</time></trkpt><trkpt lat="42.14394945789266" lon="11.886265653742651"><ele>436.0</ele><time>2026-04-19T09:26:55.992Z</time></trkpt><trkpt lat="42.14398557886811" lon="11.886161539969871"><ele>436.00000000000006</ele><time>2026-04-19T09:26:56.992Z</time></trkpt><trkpt lat="42.14403179134788" lon="11.886063633048234"><ele>436.0</ele><time>2026-04-19T09:26:57.992Z</time></trkpt><trkpt lat="42.144086767566996" lon="11.885970124996124"><ele>436.0</ele><time>2026-04-19T09:26:58.992Z</time></trkpt><trkpt lat="42.14414102261312" lon="11.885880390846545"><ele>436.0</ele><time>2026-04-19T09:26:59.992Z</time></trkpt><trkpt lat="42.144187781916024" lon="11.885797729250566"><ele>436.00000000000006</ele><time>2026-04-19T09:27:00.992Z</time></trkpt><trkpt lat="42.144221802658905" lon="11.885719926084045"><ele>436.0</ele><time>2026-04-19T09:27:01.992Z</time></trkpt><trkpt lat="42.144255359796524" lon="11.885598693579997"><ele>433.33333333333337</ele><time>2026-04-19T09:27:03.992Z</time></trkpt><trkpt lat="42.14426407539305" lon="11.885504336213563"><ele>430.6666666666667</ele><time>2026-04-19T09:27:06.992Z</time></trkpt><trkpt lat="42.1442006492559" lon="11.88559618972466"><ele>428.0</ele><time>2026-04-19T09:27:10.992Z</time></trkpt><trkpt lat="42.14418631225718" lon="11.88568215650887"><ele>425.33333333333337</ele><time>2026-04-19T09:27:11.992Z</time></trkpt><trkpt lat="42.14416146283966" lon="11.885778032653132"><ele>422.6666666666667</ele><time>2026-04-19T09:27:12.992Z</time></trkpt><trkpt lat="42.14412143403037" lon="11.885873732920745"><ele>420.0</ele><time>2026-04-19T09:27:13.992Z</time></trkpt><trkpt lat="42.14406989327858" lon="11.885953470526623"><ele>423.2</ele><time>2026-04-19T09:27:14.992Z</time></trkpt><trkpt lat="42.144019749416536" lon="11.886022341505923"><ele>426.4</ele><time>2026-04-19T09:27:15.992Z</time></trkpt><trkpt lat="42.14394800533781" lon="11.886136161898591"><ele>429.6</ele><time>2026-04-19T09:27:16.992Z</time></trkpt><trkpt lat="42.143907877580276" lon="11.886287321100895"><ele>432.8</ele><time>2026-04-19T09:27:17.992Z</time></trkpt><trkpt lat="42.143896191139895" lon="11.886399489774163"><ele>436.0</ele><time>2026-04-19T09:27:18.992Z</time></trkpt><trkpt lat="42.14389638045515" lon="11.886517283291846"><ele>436.00000000000006</ele><time>2026-04-19T09:27:19.992Z</time></trkpt><trkpt lat="42.143912297841425" lon="11.886614201239302"><ele>436.0</ele><time>2026-04-19T09:27:20.992Z</time></trkpt><trkpt lat="42.14394216732922" lon="11.886703040303896"><ele>436.0</ele><time>2026-04-19T09:27:21.992Z</time></trkpt><trkpt lat="42.14399737798262" lon="11.886807154455981"><ele>436.0</ele><time>2026-04-19T09:27:23.992Z</time></trkpt><trkpt lat="42.14393294291863" lon="11.886870271116951"><ele>436.00000000000006</ele><time>2026-04-19T09:27:26.993Z</time></trkpt><trkpt lat="42.143870906005645" lon="11.886836253769376"><ele>436.0</ele><time>2026-04-19T09:27:27.993Z</time></trkpt><trkpt lat="42.14382910223056" lon="11.886738820999618"><ele>436.0</ele><time>2026-04-19T09:27:28.993Z</time></trkpt><trkpt lat="42.14379803054062" lon="11.886619529406966"><ele>436.0</ele><time>2026-04-19T09:27:29.993Z</time></trkpt><trkpt lat="42.14376403806615" lon="11.886504215167026"><ele>436.0</ele><time>2026-04-19T09:27:30.993Z</time></trkpt><trkpt lat="42.143709106557466" lon="11.886385047479783"><ele>436.0</ele><time>2026-04-19T09:27:31.993Z</time></trkpt><trkpt lat="42.14364023153484" lon="11.886277677733608"><ele>436.0</ele><time>2026-04-19T09:27:32.993Z</time></trkpt><trkpt lat="42.14356843411401" lon="11.886178772807424"><ele>436.00000000000006</ele><time>2026-04-19T09:27:33.993Z</time></trkpt><trkpt lat="42.143501487837256" lon="11.886096433033908"><ele>436.0</ele><time>2026-04-19T09:27:34.993Z</time></trkpt><trkpt lat="42.1434423589087" lon="11.886013729409553"><ele>436.0</ele><time>2026-04-19T09:27:35.993Z</time></trkpt><trkpt lat="42.14340610250015" lon="11.885923524428573"><ele>436.0</ele><time>2026-04-19T09:27:36.993Z</time></trkpt><trkpt lat="42.14337366029907" lon="11.885817374862734"><ele>436.00000000000006</ele><time>2026-04-19T09:27:38.993Z</time></trkpt><trkpt lat="42.143290298783015" lon="11.885869256662264"><ele>436.0</ele><time>2026-04-19T09:27:41.993Z</time></trkpt><trkpt lat="42.143272121457116" lon="11.886005736870978"><ele>436.0</ele><time>2026-04-19T09:27:43.993Z</time></trkpt><trkpt lat="42.14327103038443" lon="11.886123903391326"><ele>436.0</ele><time>2026-04-19T09:27:44.993Z</time></trkpt><trkpt lat="42.143273782953564" lon="11.886259119981622"><ele>436.0</ele><time>2026-04-19T09:27:45.993Z</time></trkpt><trkpt lat="42.143272867899285" lon="11.886404629714583"><ele>436.0</ele><time>2026-04-19T09:27:46.993Z</time></trkpt><trkpt lat="42.143272171809905" lon="11.886540986150377"><ele>436.0</ele><time>2026-04-19T09:27:47.993Z</time></trkpt><trkpt lat="42.143277961378736" lon="11.886673310058457"><ele>438.1666666666667</ele><time>2026-04-19T09:27:48.993Z</time></trkpt><trkpt lat="42.1432969656564" lon="11.886794040753069"><ele>440.33333333333337</ele><time>2026-04-19T09:27:49.993Z</time></trkpt><trkpt lat="42.14330400771622" lon="11.886894886627728"><ele>442.5</ele><time>2026-04-19T09:27:50.993Z</time></trkpt><trkpt lat="42.14332303109692" lon="11.886986054805616"><ele>444.66666666666663</ele><time>2026-04-19T09:27:51.993Z</time></trkpt><trkpt lat="42.14334237520872" lon="11.887083175933135"><ele>446.8333333333333</ele><time>2026-04-19T09:27:52.993Z</time></trkpt><trkpt lat="42.14335958904687" lon="11.88717228634657"><ele>449.0</ele><time>2026-04-19T09:27:53.993Z</time></trkpt><trkpt lat="42.14342103108823" lon="11.887324289452726"><ele>448.99999999999994</ele><time>2026-04-19T09:27:55.993Z</time></trkpt><trkpt lat="42.14344711421472" lon="11.887411033742314"><ele>449.0</ele><time>2026-04-19T09:27:56.993Z</time></trkpt><trkpt lat="42.14349780820422" lon="11.887528812109247"><ele>449.0</ele><time>2026-04-19T09:27:58.993Z</time></trkpt><trkpt lat="42.14354957740615" lon="11.887631511705539"><ele>449.0</ele><time>2026-04-19T09:28:00.993Z</time></trkpt><trkpt lat="42.143576769117445" lon="11.887769220945808"><ele>448.99999999999994</ele><time>2026-04-19T09:28:02.994Z</time></trkpt><trkpt lat="42.14359923653289" lon="11.887854487279762"><ele>449.0</ele><time>2026-04-19T09:28:03.994Z</time></trkpt><trkpt lat="42.143609703043914" lon="11.887948477925825"><ele>450.0</ele><time>2026-04-19T09:28:04.994Z</time></trkpt><trkpt lat="42.14358535630385" lon="11.88808716895485"><ele>451.0</ele><time>2026-04-19T09:28:05.994Z</time></trkpt><trkpt lat="42.14357080183409" lon="11.888216440540859"><ele>452.0</ele><time>2026-04-19T09:28:06.994Z</time></trkpt><trkpt lat="42.14353941242277" lon="11.888343825932377"><ele>453.0</ele><time>2026-04-19T09:28:07.994Z</time></trkpt><trkpt lat="42.143536449319456" lon="11.888457134307528"><ele>454.0</ele><time>2026-04-19T09:28:08.994Z</time></trkpt><trkpt lat="42.14354181309323" lon="11.888575223629216"><ele>454.79999999999995</ele><time>2026-04-19T09:28:09.994Z</time></trkpt><trkpt lat="42.14354595234411" lon="11.888669693839171"><ele>455.59999999999997</ele><time>2026-04-19T09:28:10.994Z</time></trkpt><trkpt lat="42.143556020420725" lon="11.888809186635028"><ele>456.4</ele><time>2026-04-19T09:28:12.994Z</time></trkpt><trkpt lat="42.14363500942099" lon="11.888887894587743"><ele>457.2</ele><time>2026-04-19T09:28:14.994Z</time></trkpt><trkpt lat="42.14375840765527" lon="11.888920031262396"><ele>458.0</ele><time>2026-04-19T09:28:16.994Z</time></trkpt><trkpt lat="42.143856579481415" lon="11.888932429514023"><ele>458.0</ele><time>2026-04-19T09:28:17.994Z</time></trkpt><trkpt lat="42.14394852511567" lon="11.888934268780282"><ele>457.99999999999994</ele><time>2026-04-19T09:28:18.994Z</time></trkpt><trkpt lat="42.14403765173091" lon="11.888943418077186"><ele>457.99999999999994</ele><time>2026-04-19T09:28:19.994Z</time></trkpt><trkpt lat="42.1441183967317" lon="11.888984821683463"><ele>458.0</ele><time>2026-04-19T09:28:20.994Z</time></trkpt><trkpt lat="42.144197618557165" lon="11.889045869939068"><ele>458.0</ele><time>2026-04-19T09:28:21.994Z</time></trkpt><trkpt lat="42.14428812785697" lon="11.889120129875423"><ele>456.8333333333333</ele><time>2026-04-19T09:28:22.994Z</time></trkpt><trkpt lat="42.14436711946497" lon="11.889177565777008"><ele>455.66666666666663</ele><time>2026-04-19T09:28:23.994Z</time></trkpt><trkpt lat="42.14444436568835" lon="11.88921112507957"><ele>454.5</ele><time>2026-04-19T09:28:24.994Z</time></trkpt><trkpt lat="42.14451080139249" lon="11.889237058713192"><ele>453.33333333333337</ele><time>2026-04-19T09:28:25.994Z</time></trkpt><trkpt lat="42.14458628753559" lon="11.889241796073986"><ele>452.1666666666667</ele><time>2026-04-19T09:28:26.994Z</time></trkpt><trkpt lat="42.14465968610645" lon="11.889261859936767"><ele>451.0</ele><time>2026-04-19T09:28:27.994Z</time></trkpt><trkpt lat="42.1447722206765" lon="11.889321014273989"><ele>451.20000000000005</ele><time>2026-04-19T09:28:29.994Z</time></trkpt><trkpt lat="42.14483895797209" lon="11.889425111225687"><ele>451.40000000000003</ele><time>2026-04-19T09:28:31.994Z</time></trkpt><trkpt lat="42.14491208726787" lon="11.889581234001472"><ele>451.6</ele><time>2026-04-19T09:28:33.994Z</time></trkpt><trkpt lat="42.144962733414374" lon="11.889650128840053"><ele>451.8</ele><time>2026-04-19T09:28:34.994Z</time></trkpt><trkpt lat="42.14498438108451" lon="11.889827690497867"><ele>452.0</ele><time>2026-04-19T09:28:36.994Z</time></trkpt><trkpt lat="42.14496328409723" lon="11.889953098054942"><ele>451.0</ele><time>2026-04-19T09:28:37.994Z</time></trkpt><trkpt lat="42.1449258738714" lon="11.890141381532427"><ele>450.0</ele><time>2026-04-19T09:28:38.995Z</time></trkpt><trkpt lat="42.144900996334556" lon="11.890310792010624"><ele>449.0</ele><time>2026-04-19T09:28:39.995Z</time></trkpt><trkpt lat="42.1448494972855" lon="11.890476743926405"><ele>448.0</ele><time>2026-04-19T09:28:40.991Z</time></trkpt><trkpt lat="42.14481560381801" lon="11.890619623999585"><ele>454.2</ele><time>2026-04-19T09:28:41.991Z</time></trkpt><trkpt lat="42.1447736310127" lon="11.890762091751725"><ele>460.4</ele><time>2026-04-19T09:28:42.991Z</time></trkpt><trkpt lat="42.144717310324985" lon="11.890895550707073"><ele>466.59999999999997</ele><time>2026-04-19T09:28:43.991Z</time></trkpt><trkpt lat="42.144664240912505" lon="11.891018853035916"><ele>472.79999999999995</ele><time>2026-04-19T09:28:44.991Z</time></trkpt><trkpt lat="42.144632856622145" lon="11.891131438389968"><ele>479.0</ele><time>2026-04-19T09:28:45.991Z</time></trkpt><trkpt lat="42.14459650794223" lon="11.891228461848481"><ele>479.8333333333333</ele><time>2026-04-19T09:28:46.991Z</time></trkpt><trkpt lat="42.144558604959045" lon="11.89133740427182"><ele>480.66666666666663</ele><time>2026-04-19T09:28:47.991Z</time></trkpt><trkpt lat="42.14451319715245" lon="11.89144153506829"><ele>481.5</ele><time>2026-04-19T09:28:48.991Z</time></trkpt><trkpt lat="42.14450267338359" lon="11.89155418389755"><ele>482.33333333333337</ele><time>2026-04-19T09:28:49.991Z</time></trkpt><trkpt lat="42.14450118312989" lon="11.891673148457055"><ele>483.1666666666667</ele><time>2026-04-19T09:28:50.991Z</time></trkpt><trkpt lat="42.144491966440555" lon="11.89178694236903"><ele>484.0</ele><time>2026-04-19T09:28:51.991Z</time></trkpt><trkpt lat="42.14448052525195" lon="11.891892958619168"><ele>484.0</ele><time>2026-04-19T09:28:52.991Z</time></trkpt><trkpt lat="42.14446173235438" lon="11.891987060862972"><ele>483.99999999999994</ele><time>2026-04-19T09:28:53.991Z</time></trkpt><trkpt lat="42.14444162201719" lon="11.892088860145504"><ele>484.0</ele><time>2026-04-19T09:28:54.991Z</time></trkpt><trkpt lat="42.14442734872679" lon="11.892172252238753"><ele>484.0</ele><time>2026-04-19T09:28:55.991Z</time></trkpt><trkpt lat="42.14443057328526" lon="11.892260621952255"><ele>483.99999999999994</ele><time>2026-04-19T09:28:56.991Z</time></trkpt><trkpt lat="42.144429624794896" lon="11.892370820074984"><ele>484.0</ele><time>2026-04-19T09:28:57.991Z</time></trkpt><trkpt lat="42.14440688372602" lon="11.892460582221666"><ele>484.0</ele><time>2026-04-19T09:28:58.991Z</time></trkpt><trkpt lat="42.144359617359584" lon="11.89254597648617"><ele>483.00000000000006</ele><time>2026-04-19T09:28:59.991Z</time></trkpt><trkpt lat="42.14432918165932" lon="11.892651837988467"><ele>482.0</ele><time>2026-04-19T09:29:00.991Z</time></trkpt><trkpt lat="42.144311488052104" lon="11.892776694125896"><ele>481.0</ele><time>2026-04-19T09:29:01.991Z</time></trkpt><trkpt lat="42.14431263392531" lon="11.89290149098304"><ele>480.0</ele><time>2026-04-19T09:29:02.991Z</time></trkpt><trkpt lat="42.14430099292632" lon="11.893006069428619"><ele>479.00000000000006</ele><time>2026-04-19T09:29:03.991Z</time></trkpt><trkpt lat="42.14426885206859" lon="11.893081009355907"><ele>478.0</ele><time>2026-04-19T09:29:04.991Z</time></trkpt><trkpt lat="42.14424699689126" lon="11.893161610461586"><ele>478.0</ele><time>2026-04-19T09:29:06.991Z</time></trkpt><trkpt lat="42.144226813230716" lon="11.893286350013495"><ele>477.99999999999994</ele><time>2026-04-19T09:29:09.991Z</time></trkpt><trkpt lat="42.144187552666445" lon="11.893436217379435"><ele>477.99999999999994</ele><time>2026-04-19T09:29:11.991Z</time></trkpt><trkpt lat="42.144155963436376" lon="11.893550859428256"><ele>478.0</ele><time>2026-04-19T09:29:12.992Z</time></trkpt><trkpt lat="42.144122445667996" lon="11.893717852146546"><ele>478.0</ele><time>2026-04-19T09:29:13.992Z</time></trkpt><trkpt lat="42.14407037334338" lon="11.893847379484741"><ele>479.79999999999995</ele><time>2026-04-19T09:29:14.992Z</time></trkpt><trkpt lat="42.14402013908106" lon="11.893971550996929"><ele>481.59999999999997</ele><time>2026-04-19T09:29:15.992Z</time></trkpt><trkpt lat="42.14397394183169" lon="11.894094393161465"><ele>483.40000000000003</ele><time>2026-04-19T09:29:16.992Z</time></trkpt><trkpt lat="42.143937958592076" lon="11.894208548180844"><ele>485.20000000000005</ele><time>2026-04-19T09:29:17.992Z</time></trkpt><trkpt lat="42.14390468235797" lon="11.894312592895169"><ele>487.0</ele><time>2026-04-19T09:29:18.992Z</time></trkpt><trkpt lat="42.14386872693183" lon="11.894410325224714"><ele>487.00000000000006</ele><time>2026-04-19T09:29:19.992Z</time></trkpt><trkpt lat="42.14384690456145" lon="11.894493046013961"><ele>487.0</ele><time>2026-04-19T09:29:20.992Z</time></trkpt><trkpt lat="42.14380059495717" lon="11.894599805900825"><ele>487.0</ele><time>2026-04-19T09:29:22.992Z</time></trkpt><trkpt lat="42.143790154602286" lon="11.894710653561766"><ele>487.0</ele><time>2026-04-19T09:29:24.992Z</time></trkpt><trkpt lat="42.14378426381717" lon="11.894812457541658"><ele>487.00000000000006</ele><time>2026-04-19T09:29:25.992Z</time></trkpt><trkpt lat="42.14375261937853" lon="11.894905185564525"><ele>487.0</ele><time>2026-04-19T09:29:26.992Z</time></trkpt><trkpt lat="42.143718433606416" lon="11.895027488181752"><ele>486.6666666666667</ele><time>2026-04-19T09:29:28.992Z</time></trkpt><trkpt lat="42.14364217855209" lon="11.895142798800556"><ele>486.33333333333337</ele><time>2026-04-19T09:29:30.992Z</time></trkpt><trkpt lat="42.14357886157805" lon="11.895217641194932"><ele>486.0</ele><time>2026-04-19T09:29:31.992Z</time></trkpt><trkpt lat="42.143500311108085" lon="11.89528915010155"><ele>485.66666666666663</ele><time>2026-04-19T09:29:32.992Z</time></trkpt><trkpt lat="42.14347920883308" lon="11.895375500936435"><ele>485.3333333333333</ele><time>2026-04-19T09:29:33.992Z</time></trkpt><trkpt lat="42.1434550473021" lon="11.895479398754132"><ele>485.0</ele><time>2026-04-19T09:29:35.992Z</time></trkpt><trkpt lat="42.14347267114747" lon="11.895581420421811"><ele>484.99999999999994</ele><time>2026-04-19T09:29:38.992Z</time></trkpt><trkpt lat="42.14347853942301" lon="11.895686204625727"><ele>485.0</ele><time>2026-04-19T09:29:40.992Z</time></trkpt><trkpt lat="42.14350997771798" lon="11.895804175863713"><ele>485.0</ele><time>2026-04-19T09:29:42.992Z</time></trkpt><trkpt lat="42.14352217496462" lon="11.895912410710226"><ele>485.0</ele><time>2026-04-19T09:29:44.992Z</time></trkpt><trkpt lat="42.14353316967858" lon="11.896024153346339"><ele>484.99999999999994</ele><time>2026-04-19T09:29:47.992Z</time></trkpt><trkpt lat="42.14359895447164" lon="11.896112128502464"><ele>485.0</ele><time>2026-04-19T09:29:49.993Z</time></trkpt><trkpt lat="42.143662425996425" lon="11.896136586476645"><ele>485.8333333333333</ele><time>2026-04-19T09:29:50.993Z</time></trkpt><trkpt lat="42.14373450102547" lon="11.896145188745793"><ele>486.66666666666663</ele><time>2026-04-19T09:29:51.993Z</time></trkpt><trkpt lat="42.14380000589467" lon="11.896152124530062"><ele>487.5</ele><time>2026-04-19T09:29:52.993Z</time></trkpt><trkpt lat="42.143909443580974" lon="11.89614887809684"><ele>488.33333333333337</ele><time>2026-04-19T09:29:54.993Z</time></trkpt><trkpt lat="42.14400372979941" lon="11.896150340137705"><ele>489.1666666666667</ele><time>2026-04-19T09:29:56.993Z</time></trkpt><trkpt lat="42.14409968538449" lon="11.896169700131274"><ele>490.0</ele><time>2026-04-19T09:29:58.993Z</time></trkpt><trkpt lat="42.14420664838821" lon="11.896253932598713"><ele>490.0</ele><time>2026-04-19T09:30:00.993Z</time></trkpt><trkpt lat="42.14426750764774" lon="11.896316291137989"><ele>490.0</ele><time>2026-04-19T09:30:01.993Z</time></trkpt><trkpt lat="42.14435689323846" lon="11.89639568966217"><ele>490.0</ele><time>2026-04-19T09:30:02.993Z</time></trkpt><trkpt lat="42.14441705317391" lon="11.896441329379847"><ele>490.0</ele><time>2026-04-19T09:30:03.993Z</time></trkpt><trkpt lat="42.14451836269705" lon="11.896556550211"><ele>490.0</ele><time>2026-04-19T09:30:05.993Z</time></trkpt><trkpt lat="42.14457696047376" lon="11.896632192639172"><ele>490.0</ele><time>2026-04-19T09:30:06.993Z</time></trkpt><trkpt lat="42.1446314974976" lon="11.896704765785206"><ele>490.0</ele><time>2026-04-19T09:30:07.993Z</time></trkpt><trkpt lat="42.144670376966836" lon="11.896839545333387"><ele>490.0</ele><time>2026-04-19T09:30:09.993Z</time></trkpt><trkpt lat="42.1446448914901" lon="11.897014961942975"><ele>490.0</ele><time>2026-04-19T09:30:11.993Z</time></trkpt><trkpt lat="42.14460592464304" lon="11.897096129560383"><ele>490.0</ele><time>2026-04-19T09:30:12.993Z</time></trkpt><trkpt lat="42.14455915568004" lon="11.897162366081604"><ele>490.6666666666667</ele><time>2026-04-19T09:30:13.993Z</time></trkpt><trkpt lat="42.14449003304173" lon="11.897180743524228"><ele>491.33333333333337</ele><time>2026-04-19T09:30:14.993Z</time></trkpt><trkpt lat="42.144434519099676" lon="11.897247261506692"><ele>492.0</ele><time>2026-04-19T09:30:15.993Z</time></trkpt><trkpt lat="42.14435498653276" lon="11.897286661861505"><ele>492.66666666666663</ele><time>2026-04-19T09:30:16.993Z</time></trkpt><trkpt lat="42.14430195258136" lon="11.89734103351636"><ele>493.3333333333333</ele><time>2026-04-19T09:30:17.993Z</time></trkpt><trkpt lat="42.14425979460409" lon="11.897478264142185"><ele>494.0</ele><time>2026-04-19T09:30:19.993Z</time></trkpt><trkpt lat="42.14426842163151" lon="11.897638635148082"><ele>494.49999999999994</ele><time>2026-04-19T09:30:21.993Z</time></trkpt><trkpt lat="42.14429511075212" lon="11.897735780229892"><ele>495.0</ele><time>2026-04-19T09:30:22.993Z</time></trkpt><trkpt lat="42.14432590539066" lon="11.897828604026788"><ele>495.5</ele><time>2026-04-19T09:30:23.993Z</time></trkpt><trkpt lat="42.14433704277641" lon="11.89793523718462"><ele>496.0</ele><time>2026-04-19T09:30:24.994Z</time></trkpt><trkpt lat="42.144352442810536" lon="11.898018387031803"><ele>496.49999999999994</ele><time>2026-04-19T09:30:25.994Z</time></trkpt><trkpt lat="42.144388342276635" lon="11.898089987930721"><ele>497.0</ele><time>2026-04-19T09:30:26.994Z</time></trkpt><trkpt lat="42.1444607754519" lon="11.898195217318568"><ele>496.99999999999994</ele><time>2026-04-19T09:30:28.994Z</time></trkpt><trkpt lat="42.144496728814794" lon="11.898271090169393"><ele>497.0</ele><time>2026-04-19T09:30:33.994Z</time></trkpt><trkpt lat="42.14444491069174" lon="11.898331541829258"><ele>497.0</ele><time>2026-04-19T09:30:36.994Z</time></trkpt><trkpt lat="42.14435952809303" lon="11.89830381042836"><ele>497.0</ele><time>2026-04-19T09:30:37.994Z</time></trkpt><trkpt lat="42.14427705378559" lon="11.898239693600013"><ele>496.99999999999994</ele><time>2026-04-19T09:30:38.994Z</time></trkpt><trkpt lat="42.14422075935184" lon="11.89819672580117"><ele>497.0</ele><time>2026-04-19T09:30:39.994Z</time></trkpt><trkpt lat="42.14415650649843" lon="11.898106479757123"><ele>497.0</ele><time>2026-04-19T09:30:41.994Z</time></trkpt><trkpt lat="42.14409348992199" lon="11.898088735057142"><ele>497.0</ele><time>2026-04-19T09:30:43.994Z</time></trkpt><trkpt lat="42.14403656285431" lon="11.898040283240276"><ele>497.0</ele><time>2026-04-19T09:30:45.994Z</time></trkpt><trkpt lat="42.14397058938787" lon="11.897975593262766"><ele>497.0</ele><time>2026-04-19T09:30:49.99Z</time></trkpt><trkpt lat="42.143921720713394" lon="11.897920340422248"><ele>497.0</ele><time>2026-04-19T09:30:53.989Z</time></trkpt><trkpt lat="42.14384761219175" lon="11.89784557586936"><ele>497.0</ele><time>2026-04-19T09:31:15.99Z</time></trkpt><trkpt lat="42.143787298334" lon="11.89780420878596"><ele>497.0</ele><time>2026-04-19T09:31:17.99Z</time></trkpt><trkpt lat="42.14371697757262" lon="11.897760865120633"><ele>497.6</ele><time>2026-04-19T09:31:19.99Z</time></trkpt><trkpt lat="42.143608810749" lon="11.897691719232371"><ele>498.20000000000005</ele><time>2026-04-19T09:31:21.99Z</time></trkpt><trkpt lat="42.143511858107274" lon="11.897607042882134"><ele>498.8</ele><time>2026-04-19T09:31:23.99Z</time></trkpt><trkpt lat="42.14343263999057" lon="11.897614887355957"><ele>499.4</ele><time>2026-04-19T09:31:24.99Z</time></trkpt><trkpt lat="42.14334973358991" lon="11.897610662994015"><ele>500.0</ele><time>2026-04-19T09:31:25.99Z</time></trkpt><trkpt lat="42.14326478285885" lon="11.897631919622008"><ele>498.4</ele><time>2026-04-19T09:31:26.99Z</time></trkpt><trkpt lat="42.14318271646384" lon="11.897663818875586"><ele>496.8</ele><time>2026-04-19T09:31:27.99Z</time></trkpt><trkpt lat="42.14308910395834" lon="11.89771689700846"><ele>495.20000000000005</ele><time>2026-04-19T09:31:28.99Z</time></trkpt><trkpt lat="42.14299796664622" lon="11.897749662384658"><ele>493.6</ele><time>2026-04-19T09:31:29.99Z</time></trkpt><trkpt lat="42.14291741894825" lon="11.897850906655588"><ele>492.0</ele><time>2026-04-19T09:31:30.99Z</time></trkpt><trkpt lat="42.142836802960055" lon="11.89794589396626"><ele>492.0</ele><time>2026-04-19T09:31:31.99Z</time></trkpt><trkpt lat="42.14276972449878" lon="11.898048630785933"><ele>492.00000000000006</ele><time>2026-04-19T09:31:32.99Z</time></trkpt><trkpt lat="42.14270927126325" lon="11.898149233148189"><ele>492.00000000000006</ele><time>2026-04-19T09:31:33.99Z</time></trkpt><trkpt lat="42.14265667374395" lon="11.898263796983274"><ele>492.0</ele><time>2026-04-19T09:31:34.99Z</time></trkpt><trkpt lat="42.14260666736233" lon="11.898384212887501"><ele>492.0</ele><time>2026-04-19T09:31:35.99Z</time></trkpt><trkpt lat="42.1425683514573" lon="11.898514569556149"><ele>491.0</ele><time>2026-04-19T09:31:36.99Z</time></trkpt><trkpt lat="42.14256470420197" lon="11.89866559655415"><ele>490.00000000000006</ele><time>2026-04-19T09:31:37.99Z</time></trkpt><trkpt lat="42.142604451630696" lon="11.898821676966866"><ele>489.00000000000006</ele><time>2026-04-19T09:31:38.99Z</time></trkpt><trkpt lat="42.14264519035541" lon="11.898959843330402"><ele>488.0</ele><time>2026-04-19T09:31:39.99Z</time></trkpt><trkpt lat="42.14267743551284" lon="11.899082114348014"><ele>487.0</ele><time>2026-04-19T09:31:40.99Z</time></trkpt><trkpt lat="42.14268038889929" lon="11.89920850909173"><ele>485.6</ele><time>2026-04-19T09:31:41.99Z</time></trkpt><trkpt lat="42.14269712415327" lon="11.899329177472064"><ele>484.20000000000005</ele><time>2026-04-19T09:31:42.99Z</time></trkpt><trkpt lat="42.142706846280774" lon="11.899469032663086"><ele>482.8</ele><time>2026-04-19T09:31:43.99Z</time></trkpt><trkpt lat="42.14271284290841" lon="11.899612807638144"><ele>481.4</ele><time>2026-04-19T09:31:44.99Z</time></trkpt><trkpt lat="42.14271057330055" lon="11.899738266353117"><ele>480.0</ele><time>2026-04-19T09:31:45.99Z</time></trkpt><trkpt lat="42.14268285302889" lon="11.899841694921035"><ele>480.0</ele><time>2026-04-19T09:31:46.991Z</time></trkpt><trkpt lat="42.142623859463136" lon="11.899915913104342"><ele>480.0</ele><time>2026-04-19T09:31:47.991Z</time></trkpt><trkpt lat="42.142528648766984" lon="11.899934353588218"><ele>480.0</ele><time>2026-04-19T09:31:48.991Z</time></trkpt><trkpt lat="42.14241767185298" lon="11.899979030997034"><ele>480.0</ele><time>2026-04-19T09:31:49.991Z</time></trkpt><trkpt lat="42.142308053677915" lon="11.900019181650842"><ele>480.0</ele><time>2026-04-19T09:31:50.991Z</time></trkpt><trkpt lat="42.142194053236665" lon="11.900065661448679"><ele>476.5</ele><time>2026-04-19T09:31:51.991Z</time></trkpt><trkpt lat="42.142083321024906" lon="11.900142819005522"><ele>473.0</ele><time>2026-04-19T09:31:52.991Z</time></trkpt><trkpt lat="42.14199202734029" lon="11.900250270838722"><ele>469.5</ele><time>2026-04-19T09:31:53.991Z</time></trkpt><trkpt lat="42.141913145046736" lon="11.900364219661189"><ele>466.0</ele><time>2026-04-19T09:31:54.991Z</time></trkpt><trkpt lat="42.14186840366971" lon="11.900520961878216"><ele>466.0</ele><time>2026-04-19T09:31:55.991Z</time></trkpt><trkpt lat="42.141822210901225" lon="11.90065615369679"><ele>466.0</ele><time>2026-04-19T09:31:56.991Z</time></trkpt><trkpt lat="42.14178416679024" lon="11.900795328404795"><ele>466.0</ele><time>2026-04-19T09:31:57.991Z</time></trkpt><trkpt lat="42.14173353696098" lon="11.90091915812328"><ele>466.0</ele><time>2026-04-19T09:31:58.991Z</time></trkpt><trkpt lat="42.14166524880066" lon="11.901020137341531"><ele>466.0</ele><time>2026-04-19T09:31:59.991Z</time></trkpt><trkpt lat="42.141572996615714" lon="11.901070045892785"><ele>466.8</ele><time>2026-04-19T09:32:00.991Z</time></trkpt><trkpt lat="42.14150112409459" lon="11.901139830565581"><ele>467.6</ele><time>2026-04-19T09:32:01.991Z</time></trkpt><trkpt lat="42.14140965463854" lon="11.901153350811851"><ele>468.4</ele><time>2026-04-19T09:32:02.991Z</time></trkpt><trkpt lat="42.14132123383224" lon="11.901141949358076"><ele>469.2</ele><time>2026-04-19T09:32:03.991Z</time></trkpt><trkpt lat="42.141258942213334" lon="11.901163982457263"><ele>470.0</ele><time>2026-04-19T09:32:04.991Z</time></trkpt><trkpt lat="42.141351102771424" lon="11.900701453977181"><ele>470.0</ele><time>2026-04-19T09:32:05.991Z</time></trkpt><trkpt lat="42.14128198878347" lon="11.900612587102193"><ele>470.0</ele><time>2026-04-19T09:32:06.991Z</time></trkpt><trkpt lat="42.14120266107604" lon="11.900503426544521"><ele>470.0</ele><time>2026-04-19T09:32:07.991Z</time></trkpt><trkpt lat="42.14100028595303" lon="11.90029768365057"><ele>470.0</ele><time>2026-04-19T09:32:08.991Z</time></trkpt><trkpt lat="42.140884806395796" lon="11.900235777335993"><ele>470.0</ele><time>2026-04-19T09:32:09.991Z</time></trkpt><trkpt lat="42.140818972308104" lon="11.900185328867463"><ele>470.0</ele><time>2026-04-19T09:32:10.991Z</time></trkpt><trkpt lat="42.140765099207385" lon="11.900127159776035"><ele>470.0</ele><time>2026-04-19T09:32:11.991Z</time></trkpt><trkpt lat="42.140688224519764" lon="11.900052946981738"><ele>470.0</ele><time>2026-04-19T09:32:12.991Z</time></trkpt><trkpt lat="42.140614060645305" lon="11.899980929631756"><ele>469.0</ele><time>2026-04-19T09:32:13.991Z</time></trkpt><trkpt lat="42.140552552714965" lon="11.89994171261539"><ele>468.0</ele><time>2026-04-19T09:32:14.991Z</time></trkpt><trkpt lat="42.14046167816107" lon="11.899881681809148"><ele>467.0</ele><time>2026-04-19T09:32:15.991Z</time></trkpt><trkpt lat="42.139861908948376" lon="11.900646225989592"><ele>467.0</ele><time>2026-04-19T09:32:16.991Z</time></trkpt><trkpt lat="42.13971770615719" lon="11.900640698745905"><ele>467.0</ele><time>2026-04-19T09:32:17.991Z</time></trkpt><trkpt lat="42.139587144353236" lon="11.90065051469488"><ele>467.0</ele><time>2026-04-19T09:32:18.991Z</time></trkpt><trkpt lat="42.13945826963265" lon="11.900651613744744"><ele>467.0</ele><time>2026-04-19T09:32:19.991Z</time></trkpt><trkpt lat="42.13932652486787" lon="11.90062461178954"><ele>467.0</ele><time>2026-04-19T09:32:20.991Z</time></trkpt><trkpt lat="42.13921267988141" lon="11.900568931152046"><ele>467.0</ele><time>2026-04-19T09:32:21.991Z</time></trkpt><trkpt lat="42.13909433766815" lon="11.900513709764368"><ele>467.0</ele><time>2026-04-19T09:32:22.992Z</time></trkpt><trkpt lat="42.13898735869247" lon="11.900489063226265"><ele>467.0</ele><time>2026-04-19T09:32:23.992Z</time></trkpt><trkpt lat="42.13887632770719" lon="11.90048831239458"><ele>464.0</ele><time>2026-04-19T09:32:24.992Z</time></trkpt><trkpt lat="42.13875920909083" lon="11.900517573493902"><ele>461.0</ele><time>2026-04-19T09:32:25.992Z</time></trkpt><trkpt lat="42.13865190969772" lon="11.900572514663718"><ele>458.0</ele><time>2026-04-19T09:32:26.992Z</time></trkpt><trkpt lat="42.138564650720646" lon="11.900662357429622"><ele>455.0</ele><time>2026-04-19T09:32:27.992Z</time></trkpt><trkpt lat="42.13849648185501" lon="11.900782751814203"><ele>455.0</ele><time>2026-04-19T09:32:28.992Z</time></trkpt><trkpt lat="42.13845096600005" lon="11.900906991336273"><ele>455.0</ele><time>2026-04-19T09:32:29.992Z</time></trkpt><trkpt lat="42.13843500708689" lon="11.90103456568042"><ele>455.0</ele><time>2026-04-19T09:32:30.992Z</time></trkpt><trkpt lat="42.138393561237166" lon="11.901172442063128"><ele>455.0</ele><time>2026-04-19T09:32:31.992Z</time></trkpt><trkpt lat="42.138329475552396" lon="11.901258752551154"><ele>455.0</ele><time>2026-04-19T09:32:32.992Z</time></trkpt><trkpt lat="42.138279465958014" lon="11.90134802355708"><ele>456.4</ele><time>2026-04-19T09:32:33.992Z</time></trkpt><trkpt lat="42.13823474752418" lon="11.901460742689089"><ele>457.8</ele><time>2026-04-19T09:32:34.992Z</time></trkpt><trkpt lat="42.13820569976987" lon="11.901588590794809"><ele>459.20000000000005</ele><time>2026-04-19T09:32:35.992Z</time></trkpt><trkpt lat="42.138194807571075" lon="11.90170894427268"><ele>460.6</ele><time>2026-04-19T09:32:36.992Z</time></trkpt><trkpt lat="42.13816623824361" lon="11.901839988790158"><ele>462.0</ele><time>2026-04-19T09:32:37.992Z</time></trkpt><trkpt lat="42.138116300379515" lon="11.90194556395944"><ele>464.0</ele><time>2026-04-19T09:32:38.992Z</time></trkpt><trkpt lat="42.13802958827766" lon="11.901996428791085"><ele>466.00000000000006</ele><time>2026-04-19T09:32:39.992Z</time></trkpt><trkpt lat="42.137930277854196" lon="11.902018618545643"><ele>468.00000000000006</ele><time>2026-04-19T09:32:40.992Z</time></trkpt><trkpt lat="42.13781683230416" lon="11.901995799020218"><ele>470.0</ele><time>2026-04-19T09:32:41.992Z</time></trkpt><trkpt lat="42.13771191246554" lon="11.901943546380991"><ele>472.0</ele><time>2026-04-19T09:32:42.992Z</time></trkpt><trkpt lat="42.137610721695104" lon="11.901922026588068"><ele>472.0</ele><time>2026-04-19T09:32:43.992Z</time></trkpt><trkpt lat="42.137532104329914" lon="11.901917653202002"><ele>472.00000000000006</ele><time>2026-04-19T09:32:44.992Z</time></trkpt><trkpt lat="42.137459244545056" lon="11.901935920847512"><ele>472.00000000000006</ele><time>2026-04-19T09:32:45.992Z</time></trkpt><trkpt lat="42.137375335234026" lon="11.901992924611118"><ele>472.0</ele><time>2026-04-19T09:32:46.992Z</time></trkpt><trkpt lat="42.137275986269174" lon="11.902071339641603"><ele>472.0</ele><time>2026-04-19T09:32:47.992Z</time></trkpt><trkpt lat="42.137176875840055" lon="11.902155519377546"><ele>470.6</ele><time>2026-04-19T09:32:48.992Z</time></trkpt><trkpt lat="42.13708379727121" lon="11.902220543154828"><ele>469.20000000000005</ele><time>2026-04-19T09:32:49.992Z</time></trkpt><trkpt lat="42.13699892890569" lon="11.902266069909638"><ele>467.8</ele><time>2026-04-19T09:32:50.992Z</time></trkpt><trkpt lat="42.13689835916763" lon="11.902270413468717"><ele>466.4</ele><time>2026-04-19T09:32:51.992Z</time></trkpt><trkpt lat="42.13680242486705" lon="11.90224230101259"><ele>465.0</ele><time>2026-04-19T09:32:52.989Z</time></trkpt><trkpt lat="42.136702840555785" lon="11.902230333438075"><ele>465.0</ele><time>2026-04-19T09:32:53.989Z</time></trkpt><trkpt lat="42.13660055506571" lon="11.902248873790027"><ele>465.0</ele><time>2026-04-19T09:32:54.989Z</time></trkpt><trkpt lat="42.136493918216786" lon="11.902283040741384"><ele>465.0</ele><time>2026-04-19T09:32:55.989Z</time></trkpt><trkpt lat="42.13638888067745" lon="11.902333506946459"><ele>465.0</ele><time>2026-04-19T09:32:56.989Z</time></trkpt><trkpt lat="42.13628041501556" lon="11.902392756399435"><ele>465.0</ele><time>2026-04-19T09:32:57.989Z</time></trkpt><trkpt lat="42.13617562624561" lon="11.902474041834378"><ele>467.25</ele><time>2026-04-19T09:32:58.988Z</time></trkpt><trkpt lat="42.136093712823964" lon="11.90258060931135"><ele>469.5</ele><time>2026-04-19T09:32:59.989Z</time></trkpt><trkpt lat="42.136018389458464" lon="11.90270630382254"><ele>471.75</ele><time>2026-04-19T09:33:00.989Z</time></trkpt><trkpt lat="42.13595943756348" lon="11.902841258362152"><ele>474.0</ele><time>2026-04-19T09:33:01.989Z</time></trkpt><trkpt lat="42.13590919201152" lon="11.902997397876895"><ele>474.0</ele><time>2026-04-19T09:33:02.988Z</time></trkpt><trkpt lat="42.135865422028495" lon="11.903137557985097"><ele>474.0</ele><time>2026-04-19T09:33:03.988Z</time></trkpt><trkpt lat="42.13582461609386" lon="11.903270490405982"><ele>474.0</ele><time>2026-04-19T09:33:04.988Z</time></trkpt><trkpt lat="42.135777203771674" lon="11.903389904593805"><ele>474.0</ele><time>2026-04-19T09:33:05.989Z</time></trkpt><trkpt lat="42.135717709837856" lon="11.903481982398837"><ele>474.0</ele><time>2026-04-19T09:33:06.989Z</time></trkpt><trkpt lat="42.13564194500451" lon="11.903554557813711"><ele>475.6</ele><time>2026-04-19T09:33:07.989Z</time></trkpt><trkpt lat="42.13555294767383" lon="11.903585075324122"><ele>477.2</ele><time>2026-04-19T09:33:08.989Z</time></trkpt><trkpt lat="42.135461193782" lon="11.903574673473114"><ele>478.80000000000007</ele><time>2026-04-19T09:33:09.989Z</time></trkpt><trkpt lat="42.135360140212434" lon="11.903522412462337"><ele>480.40000000000003</ele><time>2026-04-19T09:33:10.989Z</time></trkpt><trkpt lat="42.135251833641234" lon="11.903442801714753"><ele>482.0</ele><time>2026-04-19T09:33:11.989Z</time></trkpt><trkpt lat="42.13512946697593" lon="11.903362463187838"><ele>482.0</ele><time>2026-04-19T09:33:12.989Z</time></trkpt><trkpt lat="42.13497942903792" lon="11.903307566120608"><ele>482.0</ele><time>2026-04-19T09:33:13.989Z</time></trkpt><trkpt lat="42.134829474426866" lon="11.903266775341832"><ele>482.0</ele><time>2026-04-19T09:33:14.989Z</time></trkpt><trkpt lat="42.13468790537447" lon="11.903228751209797"><ele>480.5</ele><time>2026-04-19T09:33:15.989Z</time></trkpt><trkpt lat="42.13455336927786" lon="11.903158640482673"><ele>479.0</ele><time>2026-04-19T09:33:16.989Z</time></trkpt><trkpt lat="42.134432275009424" lon="11.903060357212608"><ele>477.5</ele><time>2026-04-19T09:33:17.989Z</time></trkpt><trkpt lat="42.13432333114323" lon="11.902953976270705"><ele>476.0</ele><time>2026-04-19T09:33:18.989Z</time></trkpt><trkpt lat="42.13422300657133" lon="11.90284508790286"><ele>476.0</ele><time>2026-04-19T09:33:19.989Z</time></trkpt><trkpt lat="42.13412392786626" lon="11.902778404396583"><ele>476.0</ele><time>2026-04-19T09:33:20.989Z</time></trkpt><trkpt lat="42.13401044678349" lon="11.902763579213753"><ele>476.0</ele><time>2026-04-19T09:33:21.989Z</time></trkpt><trkpt lat="42.133883450785376" lon="11.902802580153875"><ele>476.0</ele><time>2026-04-19T09:33:22.989Z</time></trkpt><trkpt lat="42.13376211971041" lon="11.902875613781298"><ele>477.5</ele><time>2026-04-19T09:33:23.989Z</time></trkpt><trkpt lat="42.13364346487437" lon="11.902961944608906"><ele>479.0</ele><time>2026-04-19T09:33:24.989Z</time></trkpt><trkpt lat="42.13352521505409" lon="11.903057689387838"><ele>480.5</ele><time>2026-04-19T09:33:25.989Z</time></trkpt><trkpt lat="42.13340219798142" lon="11.90314922553688"><ele>482.0</ele><time>2026-04-19T09:33:26.989Z</time></trkpt><trkpt lat="42.133283510538135" lon="11.903226959641383"><ele>484.25</ele><time>2026-04-19T09:33:27.989Z</time></trkpt><trkpt lat="42.133175985904224" lon="11.903293136883914"><ele>486.5</ele><time>2026-04-19T09:33:28.989Z</time></trkpt><trkpt lat="42.13306541868792" lon="11.903345737565171"><ele>488.75</ele><time>2026-04-19T09:33:29.989Z</time></trkpt><trkpt lat="42.132947311225294" lon="11.903365033596586"><ele>491.0</ele><time>2026-04-19T09:33:30.989Z</time></trkpt><trkpt lat="42.13283024553138" lon="11.903353613986301"><ele>491.0</ele><time>2026-04-19T09:33:31.989Z</time></trkpt><trkpt lat="42.132708791694" lon="11.903327260650935"><ele>491.0</ele><time>2026-04-19T09:33:32.989Z</time></trkpt><trkpt lat="42.13258243502335" lon="11.903306853435582"><ele>491.0</ele><time>2026-04-19T09:33:33.989Z</time></trkpt><trkpt lat="42.13245684783952" lon="11.903293561488026"><ele>491.0</ele><time>2026-04-19T09:33:34.989Z</time></trkpt><trkpt lat="42.132323977973336" lon="11.903294316669204"><ele>491.75</ele><time>2026-04-19T09:33:35.989Z</time></trkpt><trkpt lat="42.132184992216004" lon="11.903289779343782"><ele>492.5</ele><time>2026-04-19T09:33:36.989Z</time></trkpt><trkpt lat="42.132061556570825" lon="11.903280937366603"><ele>493.25</ele><time>2026-04-19T09:33:37.989Z</time></trkpt><trkpt lat="42.13195051981022" lon="11.903272443894503"><ele>494.0</ele><time>2026-04-19T09:33:38.989Z</time></trkpt><trkpt lat="42.13184591520399" lon="11.903274847009975"><ele>494.0</ele><time>2026-04-19T09:33:39.989Z</time></trkpt><trkpt lat="42.1317441057249" lon="11.903297458049611"><ele>494.0</ele><time>2026-04-19T09:33:40.989Z</time></trkpt><trkpt lat="42.131648943079895" lon="11.90334653843792"><ele>494.0</ele><time>2026-04-19T09:33:41.99Z</time></trkpt><trkpt lat="42.131552220198195" lon="11.903426679266923"><ele>494.0</ele><time>2026-04-19T09:33:42.99Z</time></trkpt><trkpt lat="42.13147293507001" lon="11.903546199145676"><ele>494.0</ele><time>2026-04-19T09:33:43.99Z</time></trkpt><trkpt lat="42.1314015281707" lon="11.903672627123848"><ele>494.25</ele><time>2026-04-19T09:33:44.99Z</time></trkpt><trkpt lat="42.131318781537644" lon="11.903807424614337"><ele>494.5</ele><time>2026-04-19T09:33:45.99Z</time></trkpt><trkpt lat="42.13121821675511" lon="11.903908497197468"><ele>494.75</ele><time>2026-04-19T09:33:46.99Z</time></trkpt><trkpt lat="42.13109974671818" lon="11.903983937710255"><ele>495.0</ele><time>2026-04-19T09:33:47.99Z</time></trkpt><trkpt lat="42.13096563753513" lon="11.904049185366164"><ele>495.0</ele><time>2026-04-19T09:33:48.99Z</time></trkpt><trkpt lat="42.13083224422773" lon="11.904112456355222"><ele>495.0</ele><time>2026-04-19T09:33:49.99Z</time></trkpt><trkpt lat="42.13069419476377" lon="11.904164211731745"><ele>495.0</ele><time>2026-04-19T09:33:50.99Z</time></trkpt><trkpt lat="42.13055417584248" lon="11.90420917958729"><ele>495.0</ele><time>2026-04-19T09:33:51.99Z</time></trkpt><trkpt lat="42.13040418766436" lon="11.904244197273888"><ele>490.0</ele><time>2026-04-19T09:33:52.99Z</time></trkpt><trkpt lat="42.13023653534838" lon="11.904289044432797"><ele>485.0</ele><time>2026-04-19T09:33:53.99Z</time></trkpt><trkpt lat="42.13007778242451" lon="11.904346939051068"><ele>480.0</ele><time>2026-04-19T09:33:54.99Z</time></trkpt><trkpt lat="42.12993431626878" lon="11.904419188067065"><ele>481.0</ele><time>2026-04-19T09:33:55.99Z</time></trkpt><trkpt lat="42.12980246963678" lon="11.904487640411775"><ele>482.0</ele><time>2026-04-19T09:33:56.99Z</time></trkpt><trkpt lat="42.12966735802074" lon="11.904543776274732"><ele>483.0</ele><time>2026-04-19T09:33:57.99Z</time></trkpt><trkpt lat="42.12952351946463" lon="11.904604949666656"><ele>484.0</ele><time>2026-04-19T09:33:58.99Z</time></trkpt><trkpt lat="42.129389859892605" lon="11.904664403736728"><ele>484.0</ele><time>2026-04-19T09:33:59.99Z</time></trkpt><trkpt lat="42.129269544226354" lon="11.904705350546548"><ele>484.0</ele><time>2026-04-19T09:34:00.99Z</time></trkpt><trkpt lat="42.12914644851421" lon="11.904740955777834"><ele>484.0</ele><time>2026-04-19T09:34:01.99Z</time></trkpt><trkpt lat="42.1290232561378" lon="11.904770873833558"><ele>484.0</ele><time>2026-04-19T09:34:02.99Z</time></trkpt><trkpt lat="42.12891212356511" lon="11.90483070601134"><ele>484.5</ele><time>2026-04-19T09:34:03.99Z</time></trkpt><trkpt lat="42.128825800322566" lon="11.904952763003463"><ele>485.0</ele><time>2026-04-19T09:34:04.99Z</time></trkpt><trkpt lat="42.128762122479415" lon="11.905105457226831"><ele>485.5</ele><time>2026-04-19T09:34:05.99Z</time></trkpt><trkpt lat="42.128704402928456" lon="11.90524605259182"><ele>486.0</ele><time>2026-04-19T09:34:06.99Z</time></trkpt><trkpt lat="42.128654026744535" lon="11.905368469093547"><ele>486.4</ele><time>2026-04-19T09:34:07.99Z</time></trkpt><trkpt lat="42.12861539412818" lon="11.905496967797777"><ele>486.8</ele><time>2026-04-19T09:34:08.99Z</time></trkpt><trkpt lat="42.12859131273102" lon="11.905636036685184"><ele>487.19999999999993</ele><time>2026-04-19T09:34:09.99Z</time></trkpt><trkpt lat="42.12859325059187" lon="11.905779356172769"><ele>487.59999999999997</ele><time>2026-04-19T09:34:10.99Z</time></trkpt><trkpt lat="42.12862299159467" lon="11.905914101745049"><ele>488.0</ele><time>2026-04-19T09:34:11.99Z</time></trkpt><trkpt lat="42.128685135886755" lon="11.906033338124423"><ele>490.0</ele><time>2026-04-19T09:34:12.99Z</time></trkpt><trkpt lat="42.128758630193" lon="11.906150355036914"><ele>492.0</ele><time>2026-04-19T09:34:13.99Z</time></trkpt><trkpt lat="42.12882334851048" lon="11.90628400834795"><ele>494.0</ele><time>2026-04-19T09:34:14.99Z</time></trkpt><trkpt lat="42.128863128707614" lon="11.906437919350685"><ele>496.0</ele><time>2026-04-19T09:34:15.99Z</time></trkpt><trkpt lat="42.12886408775634" lon="11.906599548942705"><ele>493.6666666666667</ele><time>2026-04-19T09:34:16.99Z</time></trkpt><trkpt lat="42.12884032347166" lon="11.906781022929303"><ele>491.33333333333337</ele><time>2026-04-19T09:34:17.991Z</time></trkpt><trkpt lat="42.12879478286208" lon="11.906974974275862"><ele>489.0</ele><time>2026-04-19T09:34:18.991Z</time></trkpt><trkpt lat="42.1287724725992" lon="11.907192689828815"><ele>489.0</ele><time>2026-04-19T09:34:19.991Z</time></trkpt><trkpt lat="42.12877782121978" lon="11.907404240316772"><ele>489.0</ele><time>2026-04-19T09:34:20.991Z</time></trkpt><trkpt lat="42.12878317131932" lon="11.907622911709229"><ele>489.0</ele><time>2026-04-19T09:34:21.991Z</time></trkpt><trkpt lat="42.128783843674654" lon="11.907844682481594"><ele>484.66666666666663</ele><time>2026-04-19T09:34:22.991Z</time></trkpt><trkpt lat="42.128777121629426" lon="11.908057636546353"><ele>480.3333333333333</ele><time>2026-04-19T09:34:23.991Z</time></trkpt><trkpt lat="42.128769155606946" lon="11.908285880152743"><ele>476.0</ele><time>2026-04-19T09:34:24.991Z</time></trkpt><trkpt lat="42.12876037989723" lon="11.9085206584453"><ele>473.3333333333333</ele><time>2026-04-19T09:34:25.991Z</time></trkpt><trkpt lat="42.12875249717874" lon="11.908759373056325"><ele>470.66666666666663</ele><time>2026-04-19T09:34:26.991Z</time></trkpt><trkpt lat="42.12874831406721" lon="11.908989915571011"><ele>468.0</ele><time>2026-04-19T09:34:27.991Z</time></trkpt><trkpt lat="42.12875030238081" lon="11.909205111738364"><ele>467.5</ele><time>2026-04-19T09:34:28.991Z</time></trkpt><trkpt lat="42.12875162443183" lon="11.909411051771082"><ele>467.0</ele><time>2026-04-19T09:34:29.991Z</time></trkpt><trkpt lat="42.12874338680822" lon="11.909620868278626"><ele>466.5</ele><time>2026-04-19T09:34:30.991Z</time></trkpt><trkpt lat="42.12872068098705" lon="11.909805367170181"><ele>466.0</ele><time>2026-04-19T09:34:31.991Z</time></trkpt><trkpt lat="42.12869597318005" lon="11.909977988014523"><ele>467.0</ele><time>2026-04-19T09:34:32.991Z</time></trkpt><trkpt lat="42.12866537213515" lon="11.910143230001417"><ele>468.0</ele><time>2026-04-19T09:34:33.991Z</time></trkpt><trkpt lat="42.12861308290096" lon="11.910311646208852"><ele>469.0</ele><time>2026-04-19T09:34:34.991Z</time></trkpt><trkpt lat="42.12854386742551" lon="11.910476919081821"><ele>470.0</ele><time>2026-04-19T09:34:35.991Z</time></trkpt><trkpt lat="42.12844813348182" lon="11.910655406156598"><ele>470.0</ele><time>2026-04-19T09:34:36.991Z</time></trkpt><trkpt lat="42.12833759947788" lon="11.910811781831432"><ele>470.0</ele><time>2026-04-19T09:34:37.991Z</time></trkpt><trkpt lat="42.12823421612917" lon="11.910970804317383"><ele>470.0</ele><time>2026-04-19T09:34:38.991Z</time></trkpt><trkpt lat="42.128152934312055" lon="11.91113370511781"><ele>464.3333333333333</ele><time>2026-04-19T09:34:39.991Z</time></trkpt><trkpt lat="42.128097246072315" lon="11.911318534077683"><ele>458.66666666666663</ele><time>2026-04-19T09:34:40.991Z</time></trkpt><trkpt lat="42.128043498873865" lon="11.911506347418364"><ele>453.0</ele><time>2026-04-19T09:34:41.991Z</time></trkpt><trkpt lat="42.12797974635629" lon="11.91169914004701"><ele>455.66666666666663</ele><time>2026-04-19T09:34:42.991Z</time></trkpt><trkpt lat="42.12789020081315" lon="11.91187099682312"><ele>458.3333333333333</ele><time>2026-04-19T09:34:43.991Z</time></trkpt><trkpt lat="42.12778075923494" lon="11.91203760818275"><ele>461.0</ele><time>2026-04-19T09:34:44.991Z</time></trkpt><trkpt lat="42.12768440640402" lon="11.912210836386983"><ele>461.0</ele><time>2026-04-19T09:34:45.991Z</time></trkpt><trkpt lat="42.127585851254864" lon="11.912382102108525"><ele>461.0</ele><time>2026-04-19T09:34:46.991Z</time></trkpt><trkpt lat="42.12748947268157" lon="11.91254167302933"><ele>461.0</ele><time>2026-04-19T09:34:47.991Z</time></trkpt><trkpt lat="42.127397901476705" lon="11.912697639078619"><ele>463.75</ele><time>2026-04-19T09:34:48.991Z</time></trkpt><trkpt lat="42.12730839819533" lon="11.912852122088697"><ele>466.5</ele><time>2026-04-19T09:34:49.991Z</time></trkpt><trkpt lat="42.127217656930114" lon="11.913010457063372"><ele>469.25</ele><time>2026-04-19T09:34:50.991Z</time></trkpt><trkpt lat="42.127129069745614" lon="11.913163976407192"><ele>472.0</ele><time>2026-04-19T09:34:51.991Z</time></trkpt><trkpt lat="42.12704885651026" lon="11.913297971180691"><ele>471.5</ele><time>2026-04-19T09:34:52.991Z</time></trkpt><trkpt lat="42.12696651276568" lon="11.913431795444374"><ele>471.0</ele><time>2026-04-19T09:34:53.991Z</time></trkpt><trkpt lat="42.126881532342374" lon="11.913559626969512"><ele>470.5</ele><time>2026-04-19T09:34:54.992Z</time></trkpt><trkpt lat="42.126790858849674" lon="11.91367147631551"><ele>470.0</ele><time>2026-04-19T09:34:55.992Z</time></trkpt><trkpt lat="42.12669448862247" lon="11.91378000353673"><ele>470.0</ele><time>2026-04-19T09:34:56.992Z</time></trkpt><trkpt lat="42.12659800723612" lon="11.913887464628896"><ele>470.0</ele><time>2026-04-19T09:34:57.992Z</time></trkpt><trkpt lat="42.12651570469771" lon="11.913982676975927"><ele>470.0</ele><time>2026-04-19T09:34:58.987Z</time></trkpt><trkpt lat="42.12646876783184" lon="11.91407140218353"><ele>470.0</ele><time>2026-04-19T09:34:59.987Z</time></trkpt><trkpt lat="42.12646419727734" lon="11.914175997721312"><ele>470.0</ele><time>2026-04-19T09:35:00.987Z</time></trkpt><trkpt lat="42.12650507711749" lon="11.914290043484385"><ele>470.5</ele><time>2026-04-19T09:35:01.987Z</time></trkpt><trkpt lat="42.12659122526286" lon="11.914387435514795"><ele>471.0</ele><time>2026-04-19T09:35:02.988Z</time></trkpt><trkpt lat="42.12669351870989" lon="11.914481585030444"><ele>471.5</ele><time>2026-04-19T09:35:03.988Z</time></trkpt><trkpt lat="42.126779622252585" lon="11.914597075283712"><ele>472.0</ele><time>2026-04-19T09:35:04.988Z</time></trkpt><trkpt lat="42.126848370308274" lon="11.914727482453982"><ele>472.0</ele><time>2026-04-19T09:35:05.987Z</time></trkpt><trkpt lat="42.126871089416014" lon="11.914864908488527"><ele>472.00000000000006</ele><time>2026-04-19T09:35:06.987Z</time></trkpt><trkpt lat="42.12684461026084" lon="11.915011170623677"><ele>472.00000000000006</ele><time>2026-04-19T09:35:07.987Z</time></trkpt><trkpt lat="42.12679686912642" lon="11.91513223146041"><ele>472.0</ele><time>2026-04-19T09:35:08.987Z</time></trkpt><trkpt lat="42.1267251439129" lon="11.91523678378948"><ele>472.0</ele><time>2026-04-19T09:35:09.987Z</time></trkpt><trkpt lat="42.1266273536924" lon="11.915332996086471"><ele>471.0</ele><time>2026-04-19T09:35:10.988Z</time></trkpt><trkpt lat="42.12653468979408" lon="11.915459030653002"><ele>470.0</ele><time>2026-04-19T09:35:11.987Z</time></trkpt><trkpt lat="42.12643922691391" lon="11.91561188903397"><ele>469.0</ele><time>2026-04-19T09:35:12.987Z</time></trkpt><trkpt lat="42.126354449445174" lon="11.915777615798753"><ele>468.0</ele><time>2026-04-19T09:35:13.987Z</time></trkpt><trkpt lat="42.12626721993975" lon="11.915935131051755"><ele>468.0</ele><time>2026-04-19T09:35:14.987Z</time></trkpt><trkpt lat="42.126171716780384" lon="11.9160817967547"><ele>468.0</ele><time>2026-04-19T09:35:15.987Z</time></trkpt><trkpt lat="42.12608963297138" lon="11.916227256887984"><ele>468.0</ele><time>2026-04-19T09:35:16.987Z</time></trkpt><trkpt lat="42.12602857286762" lon="11.916379453264017"><ele>468.0</ele><time>2026-04-19T09:35:17.987Z</time></trkpt><trkpt lat="42.125980382545556" lon="11.916558660132411"><ele>466.75</ele><time>2026-04-19T09:35:18.987Z</time></trkpt><trkpt lat="42.12595225302335" lon="11.91675223517619"><ele>465.5</ele><time>2026-04-19T09:35:19.987Z</time></trkpt><trkpt lat="42.12594635564692" lon="11.916949543929219"><ele>464.25</ele><time>2026-04-19T09:35:20.987Z</time></trkpt><trkpt lat="42.125956934610045" lon="11.91714810181785"><ele>463.0</ele><time>2026-04-19T09:35:21.987Z</time></trkpt><trkpt lat="42.12597027113194" lon="11.917327754914005"><ele>463.0</ele><time>2026-04-19T09:35:22.987Z</time></trkpt><trkpt lat="42.12598625804113" lon="11.917492847458394"><ele>463.0</ele><time>2026-04-19T09:35:23.987Z</time></trkpt><trkpt lat="42.12599337180106" lon="11.917655335575795"><ele>463.0</ele><time>2026-04-19T09:35:24.987Z</time></trkpt><trkpt lat="42.1259970063303" lon="11.917819081901929"><ele>463.0</ele><time>2026-04-19T09:35:25.987Z</time></trkpt><trkpt lat="42.12599219183064" lon="11.917981052430997"><ele>463.0</ele><time>2026-04-19T09:35:26.987Z</time></trkpt><trkpt lat="42.125979992847896" lon="11.918150453646964"><ele>463.0</ele><time>2026-04-19T09:35:27.987Z</time></trkpt><trkpt lat="42.12594418833557" lon="11.918312021653488"><ele>463.0</ele><time>2026-04-19T09:35:28.987Z</time></trkpt><trkpt lat="42.12588701658925" lon="11.918472984780603"><ele>463.0</ele><time>2026-04-19T09:35:29.987Z</time></trkpt><trkpt lat="42.12580311413052" lon="11.91862811878215"><ele>460.25</ele><time>2026-04-19T09:35:30.987Z</time></trkpt><trkpt lat="42.12571890040808" lon="11.918763341294762"><ele>457.5</ele><time>2026-04-19T09:35:31.987Z</time></trkpt><trkpt lat="42.125639269527035" lon="11.918883469329208"><ele>454.75</ele><time>2026-04-19T09:35:32.987Z</time></trkpt><trkpt lat="42.125552115233226" lon="11.919012141641664"><ele>452.0</ele><time>2026-04-19T09:35:33.988Z</time></trkpt><trkpt lat="42.12546389321442" lon="11.919163797843597"><ele>452.25</ele><time>2026-04-19T09:35:34.988Z</time></trkpt><trkpt lat="42.12536746362755" lon="11.91930746334063"><ele>452.5</ele><time>2026-04-19T09:35:35.988Z</time></trkpt><trkpt lat="42.12526766099717" lon="11.91943605380075"><ele>452.75</ele><time>2026-04-19T09:35:36.988Z</time></trkpt><trkpt lat="42.12516709066172" lon="11.919566259658858"><ele>453.0</ele><time>2026-04-19T09:35:37.988Z</time></trkpt><trkpt lat="42.125074136657624" lon="11.919702875547458"><ele>453.0</ele><time>2026-04-19T09:35:38.988Z</time></trkpt><trkpt lat="42.12497852326613" lon="11.919843011762312"><ele>453.0</ele><time>2026-04-19T09:35:39.988Z</time></trkpt><trkpt lat="42.12488596893826" lon="11.919982809263944"><ele>453.0</ele><time>2026-04-19T09:35:40.988Z</time></trkpt><trkpt lat="42.12479257335194" lon="11.92011097207722"><ele>453.0</ele><time>2026-04-19T09:35:41.988Z</time></trkpt><trkpt lat="42.124709649304954" lon="11.92024044908838"><ele>456.0</ele><time>2026-04-19T09:35:42.988Z</time></trkpt><trkpt lat="42.12464420198808" lon="11.920380708486194"><ele>459.0</ele><time>2026-04-19T09:35:43.988Z</time></trkpt><trkpt lat="42.12459196609229" lon="11.920545139708931"><ele>462.0</ele><time>2026-04-19T09:35:44.988Z</time></trkpt><trkpt lat="42.124574115970944" lon="11.920712065072602"><ele>465.0</ele><time>2026-04-19T09:35:45.988Z</time></trkpt><trkpt lat="42.12457008907234" lon="11.92089473617039"><ele>465.0</ele><time>2026-04-19T09:35:46.988Z</time></trkpt><trkpt lat="42.12457974932063" lon="11.921051601542235"><ele>465.0</ele><time>2026-04-19T09:35:47.988Z</time></trkpt><trkpt lat="42.12457755777427" lon="11.92121316205376"><ele>465.0</ele><time>2026-04-19T09:35:48.988Z</time></trkpt><trkpt lat="42.12454193104522" lon="11.92137397686536"><ele>465.0</ele><time>2026-04-19T09:35:49.988Z</time></trkpt><trkpt lat="42.124485208592546" lon="11.921531147742924"><ele>465.0</ele><time>2026-04-19T09:35:50.988Z</time></trkpt><trkpt lat="42.12440657240163" lon="11.921700930781913"><ele>465.0</ele><time>2026-04-19T09:35:51.988Z</time></trkpt><trkpt lat="42.12431379390046" lon="11.921859625795705"><ele>465.0</ele><time>2026-04-19T09:35:52.988Z</time></trkpt><trkpt lat="42.124227144729" lon="11.921998283251044"><ele>465.0</ele><time>2026-04-19T09:35:53.988Z</time></trkpt><trkpt lat="42.12415468400755" lon="11.922107804029352"><ele>463.0</ele><time>2026-04-19T09:35:54.988Z</time></trkpt><trkpt lat="42.12404693843462" lon="11.922185235776949"><ele>461.0</ele><time>2026-04-19T09:35:55.988Z</time></trkpt><trkpt lat="42.123917161155745" lon="11.922267923348846"><ele>459.0</ele><time>2026-04-19T09:35:56.988Z</time></trkpt><trkpt lat="42.12381174922302" lon="11.922373110055549"><ele>457.0</ele><time>2026-04-19T09:35:57.988Z</time></trkpt><trkpt lat="42.12373298879034" lon="11.922513812536149"><ele>453.8</ele><time>2026-04-19T09:35:58.988Z</time></trkpt><trkpt lat="42.12368118149746" lon="11.922669702169816"><ele>450.6</ele><time>2026-04-19T09:35:59.988Z</time></trkpt><trkpt lat="42.123637050851" lon="11.92278971834689"><ele>447.40000000000003</ele><time>2026-04-19T09:36:00.988Z</time></trkpt><trkpt lat="42.123589316517794" lon="11.922888462717498"><ele>444.20000000000005</ele><time>2026-04-19T09:36:01.988Z</time></trkpt><trkpt lat="42.12350563473258" lon="11.922947372650446"><ele>441.0</ele><time>2026-04-19T09:36:02.988Z</time></trkpt><trkpt lat="42.123385287243615" lon="11.922985481119733"><ele>441.0</ele><time>2026-04-19T09:36:03.988Z</time></trkpt><trkpt lat="42.12324277721543" lon="11.923018276806339"><ele>441.0</ele><time>2026-04-19T09:36:04.988Z</time></trkpt><trkpt lat="42.12308331096293" lon="11.923056137892443"><ele>441.0</ele><time>2026-04-19T09:36:05.988Z</time></trkpt><trkpt lat="42.122924544186084" lon="11.923133130392063"><ele>440.66666666666663</ele><time>2026-04-19T09:36:06.988Z</time></trkpt><trkpt lat="42.12277699216974" lon="11.923243016713926"><ele>440.3333333333333</ele><time>2026-04-19T09:36:07.988Z</time></trkpt><trkpt lat="42.122637967064215" lon="11.923348949930503"><ele>440.0</ele><time>2026-04-19T09:36:08.988Z</time></trkpt><trkpt lat="42.12249183248491" lon="11.923457582722783"><ele>438.0</ele><time>2026-04-19T09:36:09.989Z</time></trkpt><trkpt lat="42.12234215609565" lon="11.9235539397577"><ele>436.0</ele><time>2026-04-19T09:36:10.989Z</time></trkpt><trkpt lat="42.122207079077114" lon="11.923650530426306"><ele>434.0</ele><time>2026-04-19T09:36:11.989Z</time></trkpt><trkpt lat="42.12207504766691" lon="11.923739771500411"><ele>434.0</ele><time>2026-04-19T09:36:12.989Z</time></trkpt><trkpt lat="42.121932114748915" lon="11.923810561647361"><ele>434.0</ele><time>2026-04-19T09:36:13.989Z</time></trkpt><trkpt lat="42.12179023666612" lon="11.923848209688435"><ele>434.0</ele><time>2026-04-19T09:36:14.989Z</time></trkpt><trkpt lat="42.121644784204584" lon="11.92389273478764"><ele>434.0</ele><time>2026-04-19T09:36:15.989Z</time></trkpt><trkpt lat="42.12150430227867" lon="11.923938456893804"><ele>434.5</ele><time>2026-04-19T09:36:16.989Z</time></trkpt><trkpt lat="42.12136571805395" lon="11.923979592585809"><ele>435.0</ele><time>2026-04-19T09:36:17.989Z</time></trkpt><trkpt lat="42.12123564853175" lon="11.924033899270622"><ele>435.5</ele><time>2026-04-19T09:36:18.989Z</time></trkpt><trkpt lat="42.12111500393268" lon="11.924109417019247"><ele>436.0</ele><time>2026-04-19T09:36:19.989Z</time></trkpt><trkpt lat="42.12099348836552" lon="11.924202851406415"><ele>437.5</ele><time>2026-04-19T09:36:20.989Z</time></trkpt><trkpt lat="42.12087980613674" lon="11.924309559932642"><ele>439.0</ele><time>2026-04-19T09:36:21.989Z</time></trkpt><trkpt lat="42.12077114298911" lon="11.924419553698572"><ele>440.5</ele><time>2026-04-19T09:36:22.989Z</time></trkpt><trkpt lat="42.12067424377881" lon="11.924521669515684"><ele>442.0</ele><time>2026-04-19T09:36:23.989Z</time></trkpt><trkpt lat="42.12058716549884" lon="11.924627328803258"><ele>442.0</ele><time>2026-04-19T09:36:24.989Z</time></trkpt><trkpt lat="42.120499502727384" lon="11.924736383492098"><ele>442.0</ele><time>2026-04-19T09:36:25.989Z</time></trkpt><trkpt lat="42.120407473697995" lon="11.924845253493775"><ele>442.0</ele><time>2026-04-19T09:36:26.989Z</time></trkpt><trkpt lat="42.120321898231346" lon="11.924950142418622"><ele>442.0</ele><time>2026-04-19T09:36:27.989Z</time></trkpt><trkpt lat="42.120244782687465" lon="11.925047034290724"><ele>443.8</ele><time>2026-04-19T09:36:28.989Z</time></trkpt><trkpt lat="42.12017587110124" lon="11.92511839100266"><ele>445.6</ele><time>2026-04-19T09:36:29.989Z</time></trkpt><trkpt lat="42.12012331841683" lon="11.925196823801038"><ele>447.40000000000003</ele><time>2026-04-19T09:36:30.989Z</time></trkpt><trkpt lat="42.12005847180242" lon="11.925287278894391"><ele>449.20000000000005</ele><time>2026-04-19T09:36:32.989Z</time></trkpt><trkpt lat="42.12008914292255" lon="11.925385170133781"><ele>451.0</ele><time>2026-04-19T09:36:35.989Z</time></trkpt><trkpt lat="42.12013873945788" lon="11.92552204338461"><ele>451.0</ele><time>2026-04-19T09:36:37.989Z</time></trkpt><trkpt lat="42.120202502885284" lon="11.92564606257676"><ele>451.0</ele><time>2026-04-19T09:36:39.989Z</time></trkpt><trkpt lat="42.12023376380333" lon="11.92575172840076"><ele>451.0</ele><time>2026-04-19T09:36:41.989Z</time></trkpt><trkpt lat="42.120263931235236" lon="11.925861016033343"><ele>451.0</ele><time>2026-04-19T09:36:43.989Z</time></trkpt><trkpt lat="42.12030482688464" lon="11.925976771306246"><ele>451.0</ele><time>2026-04-19T09:36:46.99Z</time></trkpt><trkpt lat="42.12037375412018" lon="11.926110566788044"><ele>452.20000000000005</ele><time>2026-04-19T09:36:48.99Z</time></trkpt><trkpt lat="42.12040460917936" lon="11.926208215157942"><ele>453.40000000000003</ele><time>2026-04-19T09:36:49.99Z</time></trkpt><trkpt lat="42.12043833435234" lon="11.926328044944892"><ele>454.6</ele><time>2026-04-19T09:36:50.99Z</time></trkpt><trkpt lat="42.12046998268611" lon="11.926464930734387"><ele>455.8</ele><time>2026-04-19T09:36:51.99Z</time></trkpt><trkpt lat="42.12051538277337" lon="11.926587684349197"><ele>457.0</ele><time>2026-04-19T09:36:52.99Z</time></trkpt><trkpt lat="42.12055301675785" lon="11.926712916086025"><ele>457.83333333333337</ele><time>2026-04-19T09:36:53.99Z</time></trkpt><trkpt lat="42.12058625816068" lon="11.926812810478578"><ele>458.6666666666667</ele><time>2026-04-19T09:36:54.99Z</time></trkpt><trkpt lat="42.12060394182261" lon="11.926905057941308"><ele>459.5</ele><time>2026-04-19T09:36:55.99Z</time></trkpt><trkpt lat="42.12061301835383" lon="11.927086417291404"><ele>460.33333333333337</ele><time>2026-04-19T09:36:57.99Z</time></trkpt><trkpt lat="42.12063943196015" lon="11.927198193399512"><ele>461.1666666666667</ele><time>2026-04-19T09:36:58.99Z</time></trkpt><trkpt lat="42.12066367828559" lon="11.92729096920406"><ele>462.0</ele><time>2026-04-19T09:36:59.99Z</time></trkpt><trkpt lat="42.120659315476765" lon="11.927387182024383"><ele>462.0</ele><time>2026-04-19T09:37:00.99Z</time></trkpt><trkpt lat="42.12063359380971" lon="11.927507619633403"><ele>462.0</ele><time>2026-04-19T09:37:01.99Z</time></trkpt><trkpt lat="42.12060142038873" lon="11.927610236919966"><ele>462.0</ele><time>2026-04-19T09:37:02.99Z</time></trkpt><trkpt lat="42.12056428221131" lon="11.927701915326846"><ele>462.0</ele><time>2026-04-19T09:37:03.99Z</time></trkpt><trkpt lat="42.12053635653146" lon="11.927778507031235"><ele>462.0</ele><time>2026-04-19T09:37:04.986Z</time></trkpt><trkpt lat="42.120490099416315" lon="11.927926425820164"><ele>462.0</ele><time>2026-04-19T09:37:06.987Z</time></trkpt><trkpt lat="42.120476955776944" lon="11.928064809403013"><ele>461.20000000000005</ele><time>2026-04-19T09:37:08.987Z</time></trkpt><trkpt lat="42.120536468809966" lon="11.928169072800122"><ele>460.40000000000003</ele><time>2026-04-19T09:37:10.987Z</time></trkpt><trkpt lat="42.12062451394123" lon="11.92812950135414"><ele>459.59999999999997</ele><time>2026-04-19T09:37:12.987Z</time></trkpt><trkpt lat="42.12069466967488" lon="11.92807639613155"><ele>458.79999999999995</ele><time>2026-04-19T09:37:13.987Z</time></trkpt><trkpt lat="42.12077661667295" lon="11.928018451003748"><ele>458.0</ele><time>2026-04-19T09:37:14.987Z</time></trkpt><trkpt lat="42.120876885995166" lon="11.927977305777157"><ele>456.59999999999997</ele><time>2026-04-19T09:37:15.987Z</time></trkpt><trkpt lat="42.12098082880826" lon="11.927934464439028"><ele>455.19999999999993</ele><time>2026-04-19T09:37:16.987Z</time></trkpt><trkpt lat="42.121076340056675" lon="11.92788395961"><ele>453.8</ele><time>2026-04-19T09:37:17.987Z</time></trkpt><trkpt lat="42.12113988773848" lon="11.927828615080863"><ele>452.4</ele><time>2026-04-19T09:37:18.987Z</time></trkpt><trkpt lat="42.12120370052762" lon="11.92774960367953"><ele>451.0</ele><time>2026-04-19T09:37:19.987Z</time></trkpt><trkpt lat="42.12126426187807" lon="11.927647802041731"><ele>451.0</ele><time>2026-04-19T09:37:20.987Z</time></trkpt><trkpt lat="42.12133961526556" lon="11.927535193880026"><ele>451.0</ele><time>2026-04-19T09:37:21.987Z</time></trkpt><trkpt lat="42.12140883021591" lon="11.927438080242338"><ele>451.0</ele><time>2026-04-19T09:37:22.987Z</time></trkpt><trkpt lat="42.12148323091911" lon="11.92734017353425"><ele>451.0</ele><time>2026-04-19T09:37:23.987Z</time></trkpt><trkpt lat="42.12155223665524" lon="11.927276648073812"><ele>451.0</ele><time>2026-04-19T09:37:24.987Z</time></trkpt><trkpt lat="42.12162214011521" lon="11.927186882307995"><ele>451.00000000000006</ele><time>2026-04-19T09:37:25.987Z</time></trkpt><trkpt lat="42.12168714112224" lon="11.927098495265303"><ele>451.0</ele><time>2026-04-19T09:37:26.987Z</time></trkpt><trkpt lat="42.121745839406024" lon="11.927022136131738"><ele>451.0</ele><time>2026-04-19T09:37:27.987Z</time></trkpt><trkpt lat="42.12180777669131" lon="11.92695059978239"><ele>451.0</ele><time>2026-04-19T09:37:28.987Z</time></trkpt><trkpt lat="42.12188010080858" lon="11.926891234456384"><ele>451.00000000000006</ele><time>2026-04-19T09:37:29.987Z</time></trkpt><trkpt lat="42.12194231445621" lon="11.926845441311883"><ele>451.0</ele><time>2026-04-19T09:37:30.987Z</time></trkpt><trkpt lat="42.12203959552483" lon="11.926807905351183"><ele>451.0</ele><time>2026-04-19T09:37:32.987Z</time></trkpt><trkpt lat="42.12212080161887" lon="11.926784472353964"><ele>451.0</ele><time>2026-04-19T09:37:34.987Z</time></trkpt><trkpt lat="42.122242965298966" lon="11.926725200785153"><ele>451.0</ele><time>2026-04-19T09:37:36.987Z</time></trkpt><trkpt lat="42.12231283992554" lon="11.92667927439508"><ele>451.0</ele><time>2026-04-19T09:37:37.987Z</time></trkpt><trkpt lat="42.122376529781256" lon="11.926640005185039"><ele>451.0</ele><time>2026-04-19T09:37:39.987Z</time></trkpt><trkpt lat="42.12247036314307" lon="11.926674215828948"><ele>452.83333333333337</ele><time>2026-04-19T09:37:41.987Z</time></trkpt><trkpt lat="42.12258083183978" lon="11.926759436903502"><ele>454.6666666666667</ele><time>2026-04-19T09:37:43.987Z</time></trkpt><trkpt lat="42.12264864339638" lon="11.926783545348316"><ele>456.5</ele><time>2026-04-19T09:37:44.987Z</time></trkpt><trkpt lat="42.12272818917412" lon="11.926782315124308"><ele>458.33333333333337</ele><time>2026-04-19T09:37:45.987Z</time></trkpt><trkpt lat="42.12279764741142" lon="11.926753103897514"><ele>460.1666666666667</ele><time>2026-04-19T09:37:46.987Z</time></trkpt><trkpt lat="42.1228667321065" lon="11.926741078725431"><ele>462.0</ele><time>2026-04-19T09:37:47.987Z</time></trkpt><trkpt lat="42.12293891441879" lon="11.92673183713302"><ele>462.0</ele><time>2026-04-19T09:37:48.987Z</time></trkpt><trkpt lat="42.123003989584376" lon="11.926742362606761"><ele>462.0</ele><time>2026-04-19T09:37:49.987Z</time></trkpt><trkpt lat="42.12312773489635" lon="11.926776757647259"><ele>462.0</ele><time>2026-04-19T09:37:51.988Z</time></trkpt><trkpt lat="42.12318758747771" lon="11.926816948454277"><ele>462.0</ele><time>2026-04-19T09:37:52.988Z</time></trkpt><trkpt lat="42.123243338022" lon="11.926892073824309"><ele>462.0</ele><time>2026-04-19T09:37:53.988Z</time></trkpt><trkpt lat="42.123287945916005" lon="11.92697206822338"><ele>462.0</ele><time>2026-04-19T09:37:54.988Z</time></trkpt><trkpt lat="42.12331493535179" lon="11.927062473189535"><ele>459.8333333333333</ele><time>2026-04-19T09:37:55.988Z</time></trkpt><trkpt lat="42.12332768489218" lon="11.927148803793424"><ele>457.66666666666663</ele><time>2026-04-19T09:37:56.988Z</time></trkpt><trkpt lat="42.12332310231599" lon="11.92725878746612"><ele>455.5</ele><time>2026-04-19T09:37:57.988Z</time></trkpt><trkpt lat="42.12334003546443" lon="11.927398933535766"><ele>453.3333333333333</ele><time>2026-04-19T09:37:59.988Z</time></trkpt><trkpt lat="42.12341603151272" lon="11.927519089591051"><ele>451.16666666666663</ele><time>2026-04-19T09:38:01.988Z</time></trkpt><trkpt lat="42.1234787439586" lon="11.927557985272252"><ele>449.0</ele><time>2026-04-19T09:38:02.988Z</time></trkpt><trkpt lat="42.12353795698179" lon="11.92758775163956"><ele>448.99999999999994</ele><time>2026-04-19T09:38:03.988Z</time></trkpt><trkpt lat="42.123596721104576" lon="11.92761873577244"><ele>449.0</ele><time>2026-04-19T09:38:04.988Z</time></trkpt><trkpt lat="42.1236700523123" lon="11.927650937712583"><ele>449.0</ele><time>2026-04-19T09:38:05.988Z</time></trkpt><trkpt lat="42.123727257692494" lon="11.927690188292795"><ele>449.0</ele><time>2026-04-19T09:38:06.988Z</time></trkpt><trkpt lat="42.123810889708736" lon="11.92776651072498"><ele>448.99999999999994</ele><time>2026-04-19T09:38:08.988Z</time></trkpt><trkpt lat="42.123883992471484" lon="11.927818679642744"><ele>449.0</ele><time>2026-04-19T09:38:10.988Z</time></trkpt><trkpt lat="42.12395347293103" lon="11.927800012950792"><ele>448.99999999999994</ele><time>2026-04-19T09:38:12.988Z</time></trkpt><trkpt lat="42.12405466480455" lon="11.927761464955637"><ele>449.0</ele><time>2026-04-19T09:38:14.988Z</time></trkpt><trkpt lat="42.12411743351505" lon="11.927724837384735"><ele>449.0</ele><time>2026-04-19T09:38:15.988Z</time></trkpt><trkpt lat="42.12419068451583" lon="11.927684339892242"><ele>449.0</ele><time>2026-04-19T09:38:16.988Z</time></trkpt><trkpt lat="42.12425997590035" lon="11.92761279086207"><ele>448.99999999999994</ele><time>2026-04-19T09:38:17.988Z</time></trkpt><trkpt lat="42.124336266632426" lon="11.927561111899836"><ele>449.0</ele><time>2026-04-19T09:38:18.988Z</time></trkpt><trkpt lat="42.124396550832834" lon="11.927518228948497"><ele>443.4</ele><time>2026-04-19T09:38:19.988Z</time></trkpt><trkpt lat="42.124467195461655" lon="11.927497240675631"><ele>437.79999999999995</ele><time>2026-04-19T09:38:20.988Z</time></trkpt><trkpt lat="42.12453280771967" lon="11.92745797144568"><ele>432.20000000000005</ele><time>2026-04-19T09:38:21.988Z</time></trkpt><trkpt lat="42.124646364694364" lon="11.927415020540835"><ele>426.6</ele><time>2026-04-19T09:38:23.988Z</time></trkpt><trkpt lat="42.124766734190665" lon="11.927406169674047"><ele>421.0</ele><time>2026-04-19T09:38:25.988Z</time></trkpt><trkpt lat="42.12485427167533" lon="11.927412499811327"><ele>419.8</ele><time>2026-04-19T09:38:27.989Z</time></trkpt><trkpt lat="42.12493338342128" lon="11.927512187312706"><ele>418.6</ele><time>2026-04-19T09:38:29.989Z</time></trkpt><trkpt lat="42.12495049311638" lon="11.92759934850591"><ele>417.4</ele><time>2026-04-19T09:38:31.989Z</time></trkpt><trkpt lat="42.12495326957669" lon="11.927685889295834"><ele>416.2</ele><time>2026-04-19T09:38:33.989Z</time></trkpt><trkpt lat="42.12500320054971" lon="11.927840841979402"><ele>415.0</ele><time>2026-04-19T09:38:35.989Z</time></trkpt><trkpt lat="42.125082729406266" lon="11.927940940744193"><ele>417.1666666666667</ele><time>2026-04-19T09:38:37.989Z</time></trkpt><trkpt lat="42.12514891901948" lon="11.927974545180895"><ele>419.33333333333337</ele><time>2026-04-19T09:38:38.989Z</time></trkpt><trkpt lat="42.12522370952206" lon="11.928019039432138"><ele>421.5</ele><time>2026-04-19T09:38:39.989Z</time></trkpt><trkpt lat="42.12528800239076" lon="11.928057657158794"><ele>423.66666666666663</ele><time>2026-04-19T09:38:40.989Z</time></trkpt><trkpt lat="42.12534027514524" lon="11.928105118645417"><ele>425.8333333333333</ele><time>2026-04-19T09:38:41.989Z</time></trkpt><trkpt lat="42.12540281452287" lon="11.928219985395014"><ele>428.0</ele><time>2026-04-19T09:38:43.989Z</time></trkpt><trkpt lat="42.125418645838046" lon="11.928327129434928"><ele>429.00000000000006</ele><time>2026-04-19T09:38:45.989Z</time></trkpt><trkpt lat="42.125403455690154" lon="11.928411174806557"><ele>430.0</ele><time>2026-04-19T09:38:46.989Z</time></trkpt><trkpt lat="42.12539726169813" lon="11.928509929933544"><ele>431.0</ele><time>2026-04-19T09:38:47.989Z</time></trkpt><trkpt lat="42.12541411827482" lon="11.928642563430461"><ele>432.0</ele><time>2026-04-19T09:38:49.989Z</time></trkpt><trkpt lat="42.1254468204002" lon="11.928717866325654"><ele>433.0</ele><time>2026-04-19T09:38:51.989Z</time></trkpt><trkpt lat="42.1255017870445" lon="11.928784619119165"><ele>434.00000000000006</ele><time>2026-04-19T09:38:53.989Z</time></trkpt><trkpt lat="42.12554903293001" lon="11.92885640822472"><ele>435.0</ele><time>2026-04-19T09:38:54.989Z</time></trkpt><trkpt lat="42.125628602381354" lon="11.928943817873417"><ele>435.0</ele><time>2026-04-19T09:38:55.989Z</time></trkpt><trkpt lat="42.125681099804304" lon="11.929010673064052"><ele>435.0</ele><time>2026-04-19T09:38:56.989Z</time></trkpt><trkpt lat="42.1257418942909" lon="11.929173553248786"><ele>435.0</ele><time>2026-04-19T09:38:58.989Z</time></trkpt><trkpt lat="42.125746220898755" lon="11.9292699739755"><ele>435.0</ele><time>2026-04-19T09:38:59.989Z</time></trkpt><trkpt lat="42.12572316193093" lon="11.92940048383724"><ele>435.0</ele><time>2026-04-19T09:39:01.989Z</time></trkpt><trkpt lat="42.1256964975463" lon="11.929541073542866"><ele>434.0</ele><time>2026-04-19T09:39:03.99Z</time></trkpt><trkpt lat="42.12568711044231" lon="11.929636772194284"><ele>433.0</ele><time>2026-04-19T09:39:04.99Z</time></trkpt><trkpt lat="42.125686974674686" lon="11.92973705945868"><ele>432.0</ele><time>2026-04-19T09:39:05.99Z</time></trkpt><trkpt lat="42.125697844526414" lon="11.929918547463481"><ele>431.0</ele><time>2026-04-19T09:39:07.99Z</time></trkpt><trkpt lat="42.12569498389341" lon="11.930019447778546"><ele>430.0</ele><time>2026-04-19T09:39:08.99Z</time></trkpt><trkpt lat="42.12568263499696" lon="11.930116132878966"><ele>429.0</ele><time>2026-04-19T09:39:09.99Z</time></trkpt><trkpt lat="42.12562217863686" lon="11.930227538962102"><ele>427.0</ele><time>2026-04-19T09:39:11.987Z</time></trkpt><trkpt lat="42.125530463984035" lon="11.930365297520202"><ele>425.0</ele><time>2026-04-19T09:39:13.986Z</time></trkpt><trkpt lat="42.12548663321477" lon="11.93046801311116"><ele>423.0</ele><time>2026-04-19T09:39:14.987Z</time></trkpt><trkpt lat="42.12545864714419" lon="11.930563671382604"><ele>421.0</ele><time>2026-04-19T09:39:15.987Z</time></trkpt><trkpt lat="42.1254420577833" lon="11.930650246424706"><ele>419.0</ele><time>2026-04-19T09:39:16.987Z</time></trkpt><trkpt lat="42.12541400203452" lon="11.930732677186493"><ele>417.0</ele><time>2026-04-19T09:39:17.986Z</time></trkpt><trkpt lat="42.12539645822243" lon="11.930822797827668"><ele>415.6</ele><time>2026-04-19T09:39:18.987Z</time></trkpt><trkpt lat="42.1253973691308" lon="11.930910256032151"><ele>414.20000000000005</ele><time>2026-04-19T09:39:19.987Z</time></trkpt><trkpt lat="42.12541823362817" lon="11.93100189010458"><ele>412.8</ele><time>2026-04-19T09:39:20.987Z</time></trkpt><trkpt lat="42.12543309759147" lon="11.931087144004316"><ele>411.4</ele><time>2026-04-19T09:39:21.987Z</time></trkpt><trkpt lat="42.125437457659736" lon="11.931235649454308"><ele>410.0</ele><time>2026-04-19T09:39:23.986Z</time></trkpt><trkpt lat="42.1253608791935" lon="11.93140499152562"><ele>410.0</ele><time>2026-04-19T09:39:25.986Z</time></trkpt><trkpt lat="42.12530070150637" lon="11.931523169849042"><ele>410.0</ele><time>2026-04-19T09:39:26.986Z</time></trkpt><trkpt lat="42.125272929064266" lon="11.93164944820995"><ele>410.0</ele><time>2026-04-19T09:39:27.986Z</time></trkpt><trkpt lat="42.12525545052835" lon="11.931758222701983"><ele>410.0</ele><time>2026-04-19T09:39:28.986Z</time></trkpt><trkpt lat="42.12523150174481" lon="11.931879233780654"><ele>410.0</ele><time>2026-04-19T09:39:29.986Z</time></trkpt><trkpt lat="42.12518872275133" lon="11.931955520986083"><ele>410.16666666666663</ele><time>2026-04-19T09:39:30.986Z</time></trkpt><trkpt lat="42.12512522244986" lon="11.932099042753114"><ele>410.3333333333333</ele><time>2026-04-19T09:39:32.987Z</time></trkpt><trkpt lat="42.12510304468318" lon="11.932180037099906"><ele>410.5</ele><time>2026-04-19T09:39:33.987Z</time></trkpt><trkpt lat="42.12508018708767" lon="11.932267261687175"><ele>410.66666666666663</ele><time>2026-04-19T09:39:35.987Z</time></trkpt><trkpt lat="42.125121725989956" lon="11.93236666753396"><ele>410.8333333333333</ele><time>2026-04-19T09:39:38.987Z</time></trkpt><trkpt lat="42.12516619150146" lon="11.932436877056874"><ele>411.0</ele><time>2026-04-19T09:39:41.987Z</time></trkpt><trkpt lat="42.12524176623136" lon="11.932572440949437"><ele>411.0</ele><time>2026-04-19T09:39:43.987Z</time></trkpt><trkpt lat="42.12530242308743" lon="11.932696048100254"><ele>411.0</ele><time>2026-04-19T09:39:45.987Z</time></trkpt><trkpt lat="42.12532930474426" lon="11.932807877991909"><ele>411.0</ele><time>2026-04-19T09:39:47.987Z</time></trkpt><trkpt lat="42.125344758852734" lon="11.932920527323319"><ele>411.0</ele><time>2026-04-19T09:39:49.987Z</time></trkpt><trkpt lat="42.12539987196637" lon="11.933065844999907"><ele>411.0</ele><time>2026-04-19T09:39:51.987Z</time></trkpt><trkpt lat="42.125442375591625" lon="11.933170683466333"><ele>411.0</ele><time>2026-04-19T09:39:52.987Z</time></trkpt><trkpt lat="42.12550708433205" lon="11.933318575578665"><ele>411.0</ele><time>2026-04-19T09:39:53.987Z</time></trkpt><trkpt lat="42.12555897819403" lon="11.93342760057005"><ele>411.0</ele><time>2026-04-19T09:39:54.987Z</time></trkpt><trkpt lat="42.12559513608588" lon="11.933544238154509"><ele>411.0</ele><time>2026-04-19T09:39:56.987Z</time></trkpt><trkpt lat="42.125622291854285" lon="11.933684926470567"><ele>411.0</ele><time>2026-04-19T09:39:58.987Z</time></trkpt><trkpt lat="42.12563498631106" lon="11.93377473924822"><ele>412.0</ele><time>2026-04-19T09:39:59.987Z</time></trkpt><trkpt lat="42.12557304212238" lon="11.933917201206096"><ele>413.0</ele><time>2026-04-19T09:40:01.987Z</time></trkpt><trkpt lat="42.12551242085661" lon="11.934018322901853"><ele>414.0</ele><time>2026-04-19T09:40:02.987Z</time></trkpt><trkpt lat="42.12542312275539" lon="11.934123538977188"><ele>415.0</ele><time>2026-04-19T09:40:03.987Z</time></trkpt><trkpt lat="42.125361122488584" lon="11.93419762051933"><ele>416.0</ele><time>2026-04-19T09:40:05.987Z</time></trkpt><trkpt lat="42.12539877915818" lon="11.934294333103011"><ele>418.20000000000005</ele><time>2026-04-19T09:40:08.988Z</time></trkpt><trkpt lat="42.12543571158194" lon="11.934387218267194"><ele>420.40000000000003</ele><time>2026-04-19T09:40:09.988Z</time></trkpt><trkpt lat="42.12549010466772" lon="11.934492593005784"><ele>422.6</ele><time>2026-04-19T09:40:10.988Z</time></trkpt><trkpt lat="42.125590383877004" lon="11.934567629912411"><ele>424.8</ele><time>2026-04-19T09:40:11.988Z</time></trkpt><trkpt lat="42.12566517075231" lon="11.934649096080786"><ele>427.0</ele><time>2026-04-19T09:40:12.988Z</time></trkpt><trkpt lat="42.12570444900205" lon="11.934738780336538"><ele>421.8</ele><time>2026-04-19T09:40:13.988Z</time></trkpt><trkpt lat="42.125744682461665" lon="11.934867231037096"><ele>416.6</ele><time>2026-04-19T09:40:14.988Z</time></trkpt><trkpt lat="42.125775871935176" lon="11.93502159819014"><ele>411.40000000000003</ele><time>2026-04-19T09:40:15.988Z</time></trkpt><trkpt lat="42.12579270839644" lon="11.935141571795981"><ele>406.20000000000005</ele><time>2026-04-19T09:40:16.988Z</time></trkpt><trkpt lat="42.1258132378582" lon="11.935232446720416"><ele>401.0</ele><time>2026-04-19T09:40:17.988Z</time></trkpt><trkpt lat="42.12582540575244" lon="11.935333887399118"><ele>400.99999999999994</ele><time>2026-04-19T09:40:18.988Z</time></trkpt><trkpt lat="42.12584919876541" lon="11.935442970470909"><ele>401.0</ele><time>2026-04-19T09:40:19.988Z</time></trkpt><trkpt lat="42.12584305582916" lon="11.935559504933426"><ele>401.0</ele><time>2026-04-19T09:40:20.988Z</time></trkpt><trkpt lat="42.12582344069152" lon="11.93568505945873"><ele>401.0</ele><time>2026-04-19T09:40:21.988Z</time></trkpt><trkpt lat="42.12579595730275" lon="11.93582276174422"><ele>400.99999999999994</ele><time>2026-04-19T09:40:22.988Z</time></trkpt><trkpt lat="42.12576312394318" lon="11.935900535180316"><ele>401.0</ele><time>2026-04-19T09:40:23.988Z</time></trkpt><trkpt lat="42.12566448559449" lon="11.935983287525696"><ele>406.20000000000005</ele><time>2026-04-19T09:40:25.988Z</time></trkpt><trkpt lat="42.125576247245135" lon="11.93602763939959"><ele>411.40000000000003</ele><time>2026-04-19T09:40:27.988Z</time></trkpt><trkpt lat="42.12553709832896" lon="11.936180084377703"><ele>416.6</ele><time>2026-04-19T09:40:29.988Z</time></trkpt><trkpt lat="42.125504447802875" lon="11.936265118290128"><ele>421.8</ele><time>2026-04-19T09:40:30.988Z</time></trkpt><trkpt lat="42.125474864021236" lon="11.936373131010397"><ele>427.0</ele><time>2026-04-19T09:40:31.988Z</time></trkpt><trkpt lat="42.125468821679426" lon="11.936490977470639"><ele>427.0</ele><time>2026-04-19T09:40:32.988Z</time></trkpt><trkpt lat="42.12547342391127" lon="11.936646375516798"><ele>427.00000000000006</ele><time>2026-04-19T09:40:33.988Z</time></trkpt><trkpt lat="42.12546920783487" lon="11.93675391433451"><ele>427.00000000000006</ele><time>2026-04-19T09:40:34.988Z</time></trkpt><trkpt lat="42.12544981809457" lon="11.936845614747382"><ele>427.0</ele><time>2026-04-19T09:40:35.988Z</time></trkpt><trkpt lat="42.12540528375281" lon="11.936960148657963"><ele>427.0</ele><time>2026-04-19T09:40:36.988Z</time></trkpt><trkpt lat="42.12535377350517" lon="11.937096013896042"><ele>424.20000000000005</ele><time>2026-04-19T09:40:37.988Z</time></trkpt><trkpt lat="42.125303696631015" lon="11.937229295536607"><ele>421.40000000000003</ele><time>2026-04-19T09:40:38.988Z</time></trkpt><trkpt lat="42.12526222456459" lon="11.937341478308582"><ele>418.6</ele><time>2026-04-19T09:40:39.988Z</time></trkpt><trkpt lat="42.12522078043264" lon="11.937451752363659"><ele>415.79999999999995</ele><time>2026-04-19T09:40:41.988Z</time></trkpt><trkpt lat="42.12517795153512" lon="11.93760091396588"><ele>413.0</ele><time>2026-04-19T09:40:44.989Z</time></trkpt><trkpt lat="42.125157776046436" lon="11.937694238140667"><ele>411.79999999999995</ele><time>2026-04-19T09:40:45.989Z</time></trkpt><trkpt lat="42.1250392571232" lon="11.937829538894382"><ele>410.6</ele><time>2026-04-19T09:40:47.989Z</time></trkpt><trkpt lat="42.12497439000031" lon="11.937894823350437"><ele>409.4</ele><time>2026-04-19T09:40:48.989Z</time></trkpt><trkpt lat="42.12492596569822" lon="11.938046890923633"><ele>408.20000000000005</ele><time>2026-04-19T09:40:50.989Z</time></trkpt><trkpt lat="42.12492510903566" lon="11.938140590699815"><ele>407.0</ele><time>2026-04-19T09:40:51.989Z</time></trkpt><trkpt lat="42.12499642586937" lon="11.9382716352208"><ele>407.00000000000006</ele><time>2026-04-19T09:40:53.989Z</time></trkpt><trkpt lat="42.12503782991283" lon="11.938336205612943"><ele>407.0</ele><time>2026-04-19T09:40:54.989Z</time></trkpt><trkpt lat="42.125106935645036" lon="11.938401049708228"><ele>407.0</ele><time>2026-04-19T09:40:55.989Z</time></trkpt><trkpt lat="42.12516247443966" lon="11.938461093737926"><ele>407.0</ele><time>2026-04-19T09:40:56.989Z</time></trkpt><trkpt lat="42.12523934952144" lon="11.938522057826173"><ele>407.0</ele><time>2026-04-19T09:40:57.989Z</time></trkpt><trkpt lat="42.12530074217583" lon="11.938573561821732"><ele>407.00000000000006</ele><time>2026-04-19T09:40:58.989Z</time></trkpt><trkpt lat="42.12533998375693" lon="11.938642699962001"><ele>407.0</ele><time>2026-04-19T09:40:59.989Z</time></trkpt><trkpt lat="42.12539263191583" lon="11.938739561582063"><ele>407.66666666666663</ele><time>2026-04-19T09:41:00.989Z</time></trkpt><trkpt lat="42.12543650677303" lon="11.938844849322896"><ele>408.3333333333333</ele><time>2026-04-19T09:41:01.989Z</time></trkpt><trkpt lat="42.1254610157461" lon="11.938928980996026"><ele>409.0</ele><time>2026-04-19T09:41:02.989Z</time></trkpt><trkpt lat="42.125423787966255" lon="11.939072867439615"><ele>409.66666666666663</ele><time>2026-04-19T09:41:04.989Z</time></trkpt><trkpt lat="42.12538927525363" lon="11.939176527715075"><ele>410.3333333333333</ele><time>2026-04-19T09:41:05.989Z</time></trkpt><trkpt lat="42.12534156848317" lon="11.939280903060187"><ele>411.0</ele><time>2026-04-19T09:41:06.989Z</time></trkpt><trkpt lat="42.12529816513818" lon="11.939358424425292"><ele>411.0</ele><time>2026-04-19T09:41:07.989Z</time></trkpt><trkpt lat="42.12525909194964" lon="11.939434783187819"><ele>411.0</ele><time>2026-04-19T09:41:08.989Z</time></trkpt><trkpt lat="42.12523120513433" lon="11.93951453159805"><ele>411.0</ele><time>2026-04-19T09:41:09.989Z</time></trkpt><trkpt lat="42.12526166885134" lon="11.939697071077575"><ele>411.0</ele><time>2026-04-19T09:41:11.989Z</time></trkpt><trkpt lat="42.125279868303046" lon="11.939834718394907"><ele>411.0</ele><time>2026-04-19T09:41:13.989Z</time></trkpt><trkpt lat="42.125252111176984" lon="11.939935248416946"><ele>411.0</ele><time>2026-04-19T09:41:14.989Z</time></trkpt><trkpt lat="42.125211940103235" lon="11.94003420027156"><ele>411.0</ele><time>2026-04-19T09:41:15.989Z</time></trkpt><trkpt lat="42.12517660438254" lon="11.940211811054363"><ele>411.0</ele><time>2026-04-19T09:41:17.986Z</time></trkpt><trkpt lat="42.1251637528349" lon="11.940302718333706"><ele>411.0</ele><time>2026-04-19T09:41:18.986Z</time></trkpt><trkpt lat="42.12514927213097" lon="11.940407554091594"><ele>411.0</ele><time>2026-04-19T09:41:19.986Z</time></trkpt><trkpt lat="42.125146316450554" lon="11.940511028207439"><ele>411.0</ele><time>2026-04-19T09:41:20.986Z</time></trkpt><trkpt lat="42.12512989785725" lon="11.940658582480157"><ele>409.5</ele><time>2026-04-19T09:41:22.986Z</time></trkpt><trkpt lat="42.12513563574306" lon="11.940750597743257"><ele>408.0</ele><time>2026-04-19T09:41:23.986Z</time></trkpt><trkpt lat="42.1251263668599" lon="11.940853243433482"><ele>406.5</ele><time>2026-04-19T09:41:24.986Z</time></trkpt><trkpt lat="42.12513090622471" lon="11.94099646526052"><ele>405.0</ele><time>2026-04-19T09:41:25.986Z</time></trkpt><trkpt lat="42.1251295827381" lon="11.941102710549075"><ele>403.5</ele><time>2026-04-19T09:41:26.987Z</time></trkpt><trkpt lat="42.12511948009833" lon="11.94119597660588"><ele>402.0</ele><time>2026-04-19T09:41:27.987Z</time></trkpt><trkpt lat="42.12502494838813" lon="11.941262259932133"><ele>401.0</ele><time>2026-04-19T09:41:29.986Z</time></trkpt><trkpt lat="42.12495068512399" lon="11.941260006823024"><ele>400.0</ele><time>2026-04-19T09:41:30.986Z</time></trkpt><trkpt lat="42.124860282635716" lon="11.941254575564956"><ele>399.0</ele><time>2026-04-19T09:41:31.986Z</time></trkpt><trkpt lat="42.124771821876806" lon="11.941220389965812"><ele>398.0</ele><time>2026-04-19T09:41:32.986Z</time></trkpt><trkpt lat="42.124679835122436" lon="11.941160475716272"><ele>397.0</ele><time>2026-04-19T09:41:33.986Z</time></trkpt><trkpt lat="42.12458676927198" lon="11.941098985194284"><ele>397.00000000000006</ele><time>2026-04-19T09:41:34.986Z</time></trkpt><trkpt lat="42.12449738255662" lon="11.941086100203137"><ele>397.0</ele><time>2026-04-19T09:41:35.986Z</time></trkpt><trkpt lat="42.12441043306667" lon="11.941091918280879"><ele>397.0</ele><time>2026-04-19T09:41:36.986Z</time></trkpt><trkpt lat="42.12434093442783" lon="11.941099971216673"><ele>397.0</ele><time>2026-04-19T09:41:37.986Z</time></trkpt><trkpt lat="42.12426053629581" lon="11.941124860301976"><ele>397.00000000000006</ele><time>2026-04-19T09:41:39.986Z</time></trkpt><trkpt lat="42.12418828503995" lon="11.941159505978378"><ele>397.0</ele><time>2026-04-19T09:41:41.986Z</time></trkpt><trkpt lat="42.12410093384295" lon="11.94123602228895"><ele>401.8</ele><time>2026-04-19T09:41:43.986Z</time></trkpt><trkpt lat="42.12403162534987" lon="11.941308901342973"><ele>406.6</ele><time>2026-04-19T09:41:44.986Z</time></trkpt><trkpt lat="42.12398774912925" lon="11.941393730624007"><ele>411.40000000000003</ele><time>2026-04-19T09:41:45.986Z</time></trkpt><trkpt lat="42.12395945407966" lon="11.941518966289632"><ele>416.20000000000005</ele><time>2026-04-19T09:41:47.986Z</time></trkpt><trkpt lat="42.123961814578855" lon="11.941649065722764"><ele>421.0</ele><time>2026-04-19T09:41:49.986Z</time></trkpt><trkpt lat="42.12390221783503" lon="11.9417492628869"><ele>421.0</ele><time>2026-04-19T09:41:51.986Z</time></trkpt><trkpt lat="42.123787603913954" lon="11.941795388541763"><ele>421.0</ele><time>2026-04-19T09:41:53.986Z</time></trkpt><trkpt lat="42.12371880504339" lon="11.941866555773977"><ele>421.0</ele><time>2026-04-19T09:41:55.986Z</time></trkpt><trkpt lat="42.12366819942368" lon="11.941952925196748"><ele>421.0</ele><time>2026-04-19T09:41:57.986Z</time></trkpt><trkpt lat="42.12366460570417" lon="11.942136017421335"><ele>421.0</ele><time>2026-04-19T09:41:59.986Z</time></trkpt><trkpt lat="42.12368510129161" lon="11.942223919378527"><ele>421.00000000000006</ele><time>2026-04-19T09:42:00.986Z</time></trkpt><trkpt lat="42.123721603835456" lon="11.94229530451722"><ele>421.0</ele><time>2026-04-19T09:42:01.986Z</time></trkpt><trkpt lat="42.12379097340205" lon="11.942365777037807"><ele>421.0</ele><time>2026-04-19T09:42:02.986Z</time></trkpt><trkpt lat="42.12387266726105" lon="11.94244678671039"><ele>421.0</ele><time>2026-04-19T09:42:03.986Z</time></trkpt><trkpt lat="42.123944240743796" lon="11.942559429451416"><ele>421.00000000000006</ele><time>2026-04-19T09:42:04.987Z</time></trkpt><trkpt lat="42.12398601595617" lon="11.942645057116177"><ele>421.0</ele><time>2026-04-19T09:42:05.987Z</time></trkpt><trkpt lat="42.123930058296274" lon="11.942815911943024"><ele>417.8</ele><time>2026-04-19T09:42:07.987Z</time></trkpt><trkpt lat="42.12386851266589" lon="11.942915890011113"><ele>414.6</ele><time>2026-04-19T09:42:08.987Z</time></trkpt><trkpt lat="42.12377772950794" lon="11.942999982720135"><ele>411.4</ele><time>2026-04-19T09:42:09.987Z</time></trkpt><trkpt lat="42.123683500193266" lon="11.943073196797062"><ele>408.2</ele><time>2026-04-19T09:42:10.987Z</time></trkpt><trkpt lat="42.12360556737519" lon="11.943113897073454"><ele>405.0</ele><time>2026-04-19T09:42:11.987Z</time></trkpt><trkpt lat="42.12350647211391" lon="11.943170838066285"><ele>405.0</ele><time>2026-04-19T09:42:12.987Z</time></trkpt><trkpt lat="42.1234055454751" lon="11.943231392038232"><ele>405.0</ele><time>2026-04-19T09:42:13.987Z</time></trkpt><trkpt lat="42.123332950323565" lon="11.943291590813242"><ele>405.0</ele><time>2026-04-19T09:42:14.987Z</time></trkpt><trkpt lat="42.12326538698827" lon="11.943352697873351"><ele>405.0</ele><time>2026-04-19T09:42:15.987Z</time></trkpt><trkpt lat="42.12319529883927" lon="11.943420535854496"><ele>405.0</ele><time>2026-04-19T09:42:17.987Z</time></trkpt><trkpt lat="42.12317869444603" lon="11.94352783106667"><ele>405.0</ele><time>2026-04-19T09:42:19.987Z</time></trkpt><trkpt lat="42.12315315935719" lon="11.943667539172587"><ele>403.6666666666667</ele><time>2026-04-19T09:42:21.987Z</time></trkpt><trkpt lat="42.12315746570115" lon="11.943754782576084"><ele>402.33333333333337</ele><time>2026-04-19T09:42:22.987Z</time></trkpt><trkpt lat="42.1231801928835" lon="11.943874889972578"><ele>401.0</ele><time>2026-04-19T09:42:23.987Z</time></trkpt><trkpt lat="42.12321153625767" lon="11.944003438692093"><ele>399.6666666666667</ele><time>2026-04-19T09:42:24.987Z</time></trkpt><trkpt lat="42.12322273520707" lon="11.944112157385815"><ele>398.33333333333337</ele><time>2026-04-19T09:42:25.987Z</time></trkpt><trkpt lat="42.12323124896078" lon="11.944204068920252"><ele>397.0</ele><time>2026-04-19T09:42:26.987Z</time></trkpt><trkpt lat="42.12323585106269" lon="11.944298581645526"><ele>395.50000000000006</ele><time>2026-04-19T09:42:27.987Z</time></trkpt><trkpt lat="42.1232478331552" lon="11.944435565765549"><ele>394.0</ele><time>2026-04-19T09:42:28.987Z</time></trkpt><trkpt lat="42.12326880960794" lon="11.944552413534444"><ele>392.5</ele><time>2026-04-19T09:42:29.987Z</time></trkpt><trkpt lat="42.12328583060561" lon="11.944659069471667"><ele>391.0</ele><time>2026-04-19T09:42:30.987Z</time></trkpt><trkpt lat="42.123304522977854" lon="11.94475058227926"><ele>389.50000000000006</ele><time>2026-04-19T09:42:31.987Z</time></trkpt><trkpt lat="42.123346271805076" lon="11.944872578896193"><ele>388.0</ele><time>2026-04-19T09:42:33.987Z</time></trkpt><trkpt lat="42.12330066835258" lon="11.944966630739668"><ele>390.0</ele><time>2026-04-19T09:42:35.987Z</time></trkpt><trkpt lat="42.123191066540926" lon="11.945011952413996"><ele>392.0</ele><time>2026-04-19T09:42:37.987Z</time></trkpt><trkpt lat="42.12304944675744" lon="11.945016689558212"><ele>394.0</ele><time>2026-04-19T09:42:39.987Z</time></trkpt><trkpt lat="42.12296354543774" lon="11.945024552893678"><ele>396.0</ele><time>2026-04-19T09:42:40.987Z</time></trkpt><trkpt lat="42.122899305826934" lon="11.945044773370736"><ele>398.0</ele><time>2026-04-19T09:42:41.988Z</time></trkpt><trkpt lat="42.12282645488784" lon="11.945088066017973"><ele>398.0</ele><time>2026-04-19T09:42:43.988Z</time></trkpt><trkpt lat="42.122784134986006" lon="11.945243306006217"><ele>398.0</ele><time>2026-04-19T09:42:45.988Z</time></trkpt><trkpt lat="42.12276182839083" lon="11.945388452680465"><ele>398.0</ele><time>2026-04-19T09:42:46.988Z</time></trkpt><trkpt lat="42.122702832025816" lon="11.945586933028219"><ele>398.0</ele><time>2026-04-19T09:42:47.988Z</time></trkpt><trkpt lat="42.122622212858296" lon="11.945791592550249"><ele>394.0</ele><time>2026-04-19T09:42:48.988Z</time></trkpt><trkpt lat="42.12258353706218" lon="11.945962641873912"><ele>390.0</ele><time>2026-04-19T09:42:49.988Z</time></trkpt><trkpt lat="42.12258312411823" lon="11.94614590947201"><ele>386.0</ele><time>2026-04-19T09:42:50.988Z</time></trkpt><trkpt lat="42.12258270163894" lon="11.94630514218746"><ele>382.0</ele><time>2026-04-19T09:42:51.988Z</time></trkpt><trkpt lat="42.122565308077945" lon="11.946405835535467"><ele>382.0</ele><time>2026-04-19T09:42:52.988Z</time></trkpt><trkpt lat="42.122524024293966" lon="11.946483896957792"><ele>382.0</ele><time>2026-04-19T09:42:53.988Z</time></trkpt><trkpt lat="42.12246037811462" lon="11.946580484723196"><ele>382.0</ele><time>2026-04-19T09:42:54.988Z</time></trkpt><trkpt lat="42.12237745239571" lon="11.94668075074774"><ele>382.0</ele><time>2026-04-19T09:42:55.988Z</time></trkpt><trkpt lat="42.122287277544785" lon="11.946764357816209"><ele>382.0</ele><time>2026-04-19T09:42:56.988Z</time></trkpt><trkpt lat="42.1222306158932" lon="11.946852031663147"><ele>384.0</ele><time>2026-04-19T09:42:57.988Z</time></trkpt><trkpt lat="42.12218079764532" lon="11.946939343142219"><ele>386.0</ele><time>2026-04-19T09:42:58.988Z</time></trkpt><trkpt lat="42.12212634576722" lon="11.947025187182296"><ele>388.0</ele><time>2026-04-19T09:42:59.988Z</time></trkpt><trkpt lat="42.1220641973945" lon="11.94712425991496"><ele>390.0</ele><time>2026-04-19T09:43:00.988Z</time></trkpt><trkpt lat="42.12199931478874" lon="11.947217073670132"><ele>392.0</ele><time>2026-04-19T09:43:01.988Z</time></trkpt><trkpt lat="42.12192936747841" lon="11.947301632399547"><ele>391.99999999999994</ele><time>2026-04-19T09:43:02.988Z</time></trkpt><trkpt lat="42.121886330767865" lon="11.94739835642422"><ele>392.0</ele><time>2026-04-19T09:43:04.988Z</time></trkpt><trkpt lat="42.12189325905139" lon="11.947498932183713"><ele>392.0</ele><time>2026-04-19T09:43:05.988Z</time></trkpt><trkpt lat="42.121895197484065" lon="11.947625526035358"><ele>392.0</ele><time>2026-04-19T09:43:06.988Z</time></trkpt><trkpt lat="42.121879554026464" lon="11.947754062159929"><ele>391.99999999999994</ele><time>2026-04-19T09:43:07.988Z</time></trkpt><trkpt lat="42.12188251953608" lon="11.947850407213377"><ele>392.0</ele><time>2026-04-19T09:43:08.988Z</time></trkpt><trkpt lat="42.121904209041446" lon="11.947949499440696"><ele>392.0</ele><time>2026-04-19T09:43:09.988Z</time></trkpt><trkpt lat="42.121978878495966" lon="11.948120033355178"><ele>392.0</ele><time>2026-04-19T09:43:11.988Z</time></trkpt><trkpt lat="42.122043087462764" lon="11.948232884775987"><ele>392.0</ele><time>2026-04-19T09:43:12.988Z</time></trkpt><trkpt lat="42.12209708683526" lon="11.948343765164537"><ele>392.0</ele><time>2026-04-19T09:43:13.988Z</time></trkpt><trkpt lat="42.1221248646414" lon="11.948450957513412"><ele>392.0</ele><time>2026-04-19T09:43:14.988Z</time></trkpt><trkpt lat="42.12216780880238" lon="11.948598940211319"><ele>393.3333333333333</ele><time>2026-04-19T09:43:16.988Z</time></trkpt><trkpt lat="42.122209225405754" lon="11.948669201653285"><ele>394.66666666666663</ele><time>2026-04-19T09:43:17.989Z</time></trkpt><trkpt lat="42.12225731734263" lon="11.94875514143869"><ele>396.0</ele><time>2026-04-19T09:43:18.989Z</time></trkpt><trkpt lat="42.12229542714047" lon="11.948883070128412"><ele>397.33333333333337</ele><time>2026-04-19T09:43:19.989Z</time></trkpt><trkpt lat="42.12232633273244" lon="11.948985684223256"><ele>398.6666666666667</ele><time>2026-04-19T09:43:20.989Z</time></trkpt><trkpt lat="42.1223461240281" lon="11.949100269628726"><ele>400.0</ele><time>2026-04-19T09:43:21.989Z</time></trkpt><trkpt lat="42.12237909604531" lon="11.94921493283151"><ele>396.6</ele><time>2026-04-19T09:43:22.986Z</time></trkpt><trkpt lat="42.12242536679989" lon="11.949314122372497"><ele>393.2</ele><time>2026-04-19T09:43:23.985Z</time></trkpt><trkpt lat="42.122535540461534" lon="11.949400605821406"><ele>389.79999999999995</ele><time>2026-04-19T09:43:25.986Z</time></trkpt><trkpt lat="42.12262290025885" lon="11.949440994239998"><ele>386.4</ele><time>2026-04-19T09:43:26.986Z</time></trkpt><trkpt lat="42.122707712139174" lon="11.94947057561759"><ele>383.0</ele><time>2026-04-19T09:43:27.986Z</time></trkpt><trkpt lat="42.12277807302275" lon="11.949519945912849"><ele>383.0</ele><time>2026-04-19T09:43:28.985Z</time></trkpt><trkpt lat="42.12282479823065" lon="11.949595013760007"><ele>383.0</ele><time>2026-04-19T09:43:29.985Z</time></trkpt><trkpt lat="42.12286839645438" lon="11.949706166803873"><ele>383.0</ele><time>2026-04-19T09:43:30.985Z</time></trkpt><trkpt lat="42.1228889034416" lon="11.949856974546906"><ele>383.0</ele><time>2026-04-19T09:43:31.985Z</time></trkpt><trkpt lat="42.122903631901494" lon="11.949970494667232"><ele>383.0</ele><time>2026-04-19T09:43:32.986Z</time></trkpt><trkpt lat="42.1229643393016" lon="11.950087684685615"><ele>384.33333333333337</ele><time>2026-04-19T09:43:34.986Z</time></trkpt><trkpt lat="42.123027356470985" lon="11.950115578401082"><ele>385.6666666666667</ele><time>2026-04-19T09:43:35.986Z</time></trkpt><trkpt lat="42.123150698942275" lon="11.950132987200217"><ele>387.0</ele><time>2026-04-19T09:43:37.986Z</time></trkpt><trkpt lat="42.12320613937087" lon="11.950185199375928"><ele>388.33333333333337</ele><time>2026-04-19T09:43:38.986Z</time></trkpt><trkpt lat="42.12323661223337" lon="11.950263863281188"><ele>389.6666666666667</ele><time>2026-04-19T09:43:39.986Z</time></trkpt><trkpt lat="42.12325281218764" lon="11.950371311040579"><ele>391.0</ele><time>2026-04-19T09:43:40.986Z</time></trkpt><trkpt lat="42.123254468502786" lon="11.950545119384046"><ele>388.20000000000005</ele><time>2026-04-19T09:43:41.986Z</time></trkpt><trkpt lat="42.1232508469333" lon="11.950747076365953"><ele>385.40000000000003</ele><time>2026-04-19T09:43:42.986Z</time></trkpt><trkpt lat="42.12326367186335" lon="11.950928757754221"><ele>382.6</ele><time>2026-04-19T09:43:43.986Z</time></trkpt><trkpt lat="42.12328338292165" lon="11.951045070611752"><ele>379.8</ele><time>2026-04-19T09:43:44.986Z</time></trkpt><trkpt lat="42.12329604224208" lon="11.9511294519801"><ele>377.0</ele><time>2026-04-19T09:43:45.986Z</time></trkpt><trkpt lat="42.12338346979507" lon="11.951202416725211"><ele>377.0</ele><time>2026-04-19T09:43:47.986Z</time></trkpt><trkpt lat="42.12345981808517" lon="11.951231251949105"><ele>377.0</ele><time>2026-04-19T09:43:48.986Z</time></trkpt><trkpt lat="42.123554246032185" lon="11.951230433660015"><ele>377.0</ele><time>2026-04-19T09:43:49.986Z</time></trkpt><trkpt lat="42.123640195948745" lon="11.951256031153152"><ele>377.0</ele><time>2026-04-19T09:43:50.986Z</time></trkpt><trkpt lat="42.12372147044882" lon="11.95132194561721"><ele>377.0</ele><time>2026-04-19T09:43:51.986Z</time></trkpt><trkpt lat="42.12381191500556" lon="11.951430485030052"><ele>377.0</ele><time>2026-04-19T09:43:52.986Z</time></trkpt><trkpt lat="42.12388597789159" lon="11.951547484214247"><ele>377.0</ele><time>2026-04-19T09:43:53.986Z</time></trkpt><trkpt lat="42.12392303202296" lon="11.951633472009371"><ele>377.0</ele><time>2026-04-19T09:43:54.986Z</time></trkpt><trkpt lat="42.123949946795214" lon="11.95173118513448"><ele>377.0</ele><time>2026-04-19T09:43:55.986Z</time></trkpt><trkpt lat="42.123945271981725" lon="11.951855411520688"><ele>377.0</ele><time>2026-04-19T09:43:56.986Z</time></trkpt><trkpt lat="42.12392493937997" lon="11.952000898585872"><ele>377.0</ele><time>2026-04-19T09:43:57.986Z</time></trkpt><trkpt lat="42.123907753241916" lon="11.95216238225661"><ele>377.0</ele><time>2026-04-19T09:43:58.986Z</time></trkpt><trkpt lat="42.12387664194828" lon="11.952321483585502"><ele>377.0</ele><time>2026-04-19T09:43:59.986Z</time></trkpt><trkpt lat="42.12383907897202" lon="11.952472486556669"><ele>377.0</ele><time>2026-04-19T09:44:00.986Z</time></trkpt><trkpt lat="42.123806811701115" lon="11.95261266833132"><ele>375.40000000000003</ele><time>2026-04-19T09:44:01.987Z</time></trkpt><trkpt lat="42.1237857090133" lon="11.952730006929167"><ele>373.8</ele><time>2026-04-19T09:44:02.987Z</time></trkpt><trkpt lat="42.12375658799348" lon="11.952824494415243"><ele>372.2</ele><time>2026-04-19T09:44:03.987Z</time></trkpt><trkpt lat="42.12373632348584" lon="11.952939956126066"><ele>370.6</ele><time>2026-04-19T09:44:04.987Z</time></trkpt><trkpt lat="42.12370008918393" lon="11.953068259937817"><ele>369.0</ele><time>2026-04-19T09:44:05.987Z</time></trkpt><trkpt lat="42.1236540128795" lon="11.95318002957942"><ele>369.0</ele><time>2026-04-19T09:44:06.987Z</time></trkpt><trkpt lat="42.123612851472544" lon="11.953271126077672"><ele>369.0</ele><time>2026-04-19T09:44:07.987Z</time></trkpt><trkpt lat="42.12357798986101" lon="11.95338169428626"><ele>369.0</ele><time>2026-04-19T09:44:08.987Z</time></trkpt><trkpt lat="42.12357318669294" lon="11.953518030354646"><ele>369.0</ele><time>2026-04-19T09:44:09.987Z</time></trkpt><trkpt lat="42.12356873635218" lon="11.95364453363845"><ele>369.0</ele><time>2026-04-19T09:44:10.987Z</time></trkpt><trkpt lat="42.12356411568294" lon="11.953778538938359"><ele>367.6</ele><time>2026-04-19T09:44:11.987Z</time></trkpt><trkpt lat="42.12356296574045" lon="11.95392663884351"><ele>366.2</ele><time>2026-04-19T09:44:12.987Z</time></trkpt><trkpt lat="42.12355157300595" lon="11.954061434228112"><ele>364.8</ele><time>2026-04-19T09:44:13.987Z</time></trkpt><trkpt lat="42.12356031315964" lon="11.954185971997283"><ele>363.40000000000003</ele><time>2026-04-19T09:44:14.987Z</time></trkpt><trkpt lat="42.12358005142177" lon="11.954322096715387"><ele>362.0</ele><time>2026-04-19T09:44:15.987Z</time></trkpt><trkpt lat="42.1235969042997" lon="11.95446496348909"><ele>360.33333333333337</ele><time>2026-04-19T09:44:16.987Z</time></trkpt><trkpt lat="42.123574654499784" lon="11.954554749190596"><ele>358.6666666666667</ele><time>2026-04-19T09:44:17.987Z</time></trkpt><trkpt lat="42.12354916177439" lon="11.954652008587706"><ele>357.0</ele><time>2026-04-19T09:44:18.987Z</time></trkpt><trkpt lat="42.12349719412993" lon="11.954760544771704"><ele>355.3333333333333</ele><time>2026-04-19T09:44:19.987Z</time></trkpt><trkpt lat="42.1234370870174" lon="11.954883518733217"><ele>353.66666666666663</ele><time>2026-04-19T09:44:20.987Z</time></trkpt><trkpt lat="42.123376100724045" lon="11.954978233841805"><ele>352.0</ele><time>2026-04-19T09:44:21.987Z</time></trkpt><trkpt lat="42.123320885119306" lon="11.955044318004797"><ele>350.66666666666663</ele><time>2026-04-19T09:44:22.987Z</time></trkpt><trkpt lat="42.12324186780326" lon="11.95507623078017"><ele>349.3333333333333</ele><time>2026-04-19T09:44:23.987Z</time></trkpt><trkpt lat="42.12314780360964" lon="11.955079321934747"><ele>348.0</ele><time>2026-04-19T09:44:24.987Z</time></trkpt><trkpt lat="42.12307497376782" lon="11.955065439332783"><ele>346.6666666666667</ele><time>2026-04-19T09:44:25.987Z</time></trkpt><trkpt lat="42.12301487202186" lon="11.955037012497684"><ele>345.33333333333337</ele><time>2026-04-19T09:44:26.987Z</time></trkpt><trkpt lat="42.12293695696365" lon="11.954975763380295"><ele>344.0</ele><time>2026-04-19T09:44:28.987Z</time></trkpt><trkpt lat="42.122851708544054" lon="11.954898879335284"><ele>344.0</ele><time>2026-04-19T09:44:30.987Z</time></trkpt><trkpt lat="42.122767871395006" lon="11.954800775091242"><ele>344.0</ele><time>2026-04-19T09:44:31.987Z</time></trkpt><trkpt lat="42.12267310800837" lon="11.95473398527533"><ele>344.0</ele><time>2026-04-19T09:44:32.987Z</time></trkpt><trkpt lat="42.122593843129486" lon="11.954696572818174"><ele>344.0</ele><time>2026-04-19T09:44:33.987Z</time></trkpt><trkpt lat="42.12249938592062" lon="11.954683322653883"><ele>344.0</ele><time>2026-04-19T09:44:34.987Z</time></trkpt><trkpt lat="42.122431363620194" lon="11.954668467432635"><ele>342.75</ele><time>2026-04-19T09:44:35.987Z</time></trkpt><trkpt lat="42.122296255732856" lon="11.954683260240856"><ele>341.5</ele><time>2026-04-19T09:44:37.988Z</time></trkpt><trkpt lat="42.12221533489234" lon="11.95468559781916"><ele>340.25</ele><time>2026-04-19T09:44:38.988Z</time></trkpt><trkpt lat="42.12210999393022" lon="11.954675550704371"><ele>339.0</ele><time>2026-04-19T09:44:40.988Z</time></trkpt><trkpt lat="42.12197719314581" lon="11.954647547214014"><ele>339.0</ele><time>2026-04-19T09:44:42.988Z</time></trkpt><trkpt lat="42.12188029839951" lon="11.954630958862348"><ele>339.0</ele><time>2026-04-19T09:44:43.988Z</time></trkpt><trkpt lat="42.12178108662048" lon="11.95462583284399"><ele>339.0</ele><time>2026-04-19T09:44:44.988Z</time></trkpt><trkpt lat="42.121707530308086" lon="11.95462938681517"><ele>339.0</ele><time>2026-04-19T09:44:45.988Z</time></trkpt><trkpt lat="42.12160452266948" lon="11.954605997961648"><ele>339.0</ele><time>2026-04-19T09:44:47.988Z</time></trkpt><trkpt lat="42.12147502881977" lon="11.954623776572548"><ele>338.6666666666667</ele><time>2026-04-19T09:44:49.988Z</time></trkpt><trkpt lat="42.12140822111098" lon="11.954673674059064"><ele>338.3333333333333</ele><time>2026-04-19T09:44:50.988Z</time></trkpt><trkpt lat="42.12135661615539" lon="11.954736915124188"><ele>338.0</ele><time>2026-04-19T09:44:51.988Z</time></trkpt><trkpt lat="42.12130105946754" lon="11.954810601132056"><ele>337.66666666666663</ele><time>2026-04-19T09:44:52.988Z</time></trkpt><trkpt lat="42.12126206001775" lon="11.954889244590381"><ele>337.3333333333333</ele><time>2026-04-19T09:44:53.988Z</time></trkpt><trkpt lat="42.12121706038494" lon="11.954996081384747"><ele>337.0</ele><time>2026-04-19T09:44:54.988Z</time></trkpt><trkpt lat="42.121167934141496" lon="11.955103147022587"><ele>337.0</ele><time>2026-04-19T09:44:55.988Z</time></trkpt><trkpt lat="42.121114134043566" lon="11.955210293819256"><ele>337.0</ele><time>2026-04-19T09:44:56.988Z</time></trkpt><trkpt lat="42.12105730207132" lon="11.9553296237028"><ele>337.0</ele><time>2026-04-19T09:44:57.988Z</time></trkpt><trkpt lat="42.12101081727071" lon="11.955442815558797"><ele>337.0</ele><time>2026-04-19T09:44:58.988Z</time></trkpt><trkpt lat="42.12097772367317" lon="11.955574025365328"><ele>337.0</ele><time>2026-04-19T09:44:59.988Z</time></trkpt><trkpt lat="42.1209551342476" lon="11.955682331356853"><ele>337.0</ele><time>2026-04-19T09:45:00.988Z</time></trkpt><trkpt lat="42.120931457394235" lon="11.955772960346927"><ele>337.0</ele><time>2026-04-19T09:45:01.988Z</time></trkpt><trkpt lat="42.120875818727114" lon="11.955939502387261"><ele>337.0</ele><time>2026-04-19T09:45:03.988Z</time></trkpt><trkpt lat="42.120801013474804" lon="11.956047404875898"><ele>337.0</ele><time>2026-04-19T09:45:05.988Z</time></trkpt><trkpt lat="42.1207504825297" lon="11.956143721853657"><ele>337.0</ele><time>2026-04-19T09:45:07.988Z</time></trkpt><trkpt lat="42.1207113278557" lon="11.956306828747582"><ele>337.16666666666663</ele><time>2026-04-19T09:45:09.988Z</time></trkpt><trkpt lat="42.12067404880988" lon="11.95637661020482"><ele>337.3333333333333</ele><time>2026-04-19T09:45:10.988Z</time></trkpt><trkpt lat="42.12063398224003" lon="11.956491252708112"><ele>337.5</ele><time>2026-04-19T09:45:11.988Z</time></trkpt><trkpt lat="42.120608482902185" lon="11.95660350059591"><ele>337.6666666666667</ele><time>2026-04-19T09:45:12.988Z</time></trkpt><trkpt lat="42.12060575749631" lon="11.956716591972885"><ele>337.83333333333337</ele><time>2026-04-19T09:45:13.989Z</time></trkpt><trkpt lat="42.12060186540648" lon="11.956814759065576"><ele>338.0</ele><time>2026-04-19T09:45:14.989Z</time></trkpt><trkpt lat="42.120579946046334" lon="11.956952355795444"><ele>337.4</ele><time>2026-04-19T09:45:16.989Z</time></trkpt><trkpt lat="42.1205105393242" lon="11.957091760932032"><ele>336.79999999999995</ele><time>2026-04-19T09:45:18.989Z</time></trkpt><trkpt lat="42.12049211649023" lon="11.957247554365264"><ele>336.2</ele><time>2026-04-19T09:45:20.989Z</time></trkpt><trkpt lat="42.12049529811305" lon="11.957350768157516"><ele>335.6</ele><time>2026-04-19T09:45:21.989Z</time></trkpt><trkpt lat="42.12049062092369" lon="11.957476248675478"><ele>335.0</ele><time>2026-04-19T09:45:22.989Z</time></trkpt><trkpt lat="42.120477933720466" lon="11.95764964951372"><ele>335.0</ele><time>2026-04-19T09:45:23.989Z</time></trkpt><trkpt lat="42.12045317958661" lon="11.957870156736464"><ele>335.0</ele><time>2026-04-19T09:45:24.989Z</time></trkpt><trkpt lat="42.12042769711441" lon="11.958108060130682"><ele>335.0</ele><time>2026-04-19T09:45:25.989Z</time></trkpt><trkpt lat="42.12041908146097" lon="11.958346146442892"><ele>337.0</ele><time>2026-04-19T09:45:26.989Z</time></trkpt><trkpt lat="42.120420818498424" lon="11.958556014253668"><ele>339.0</ele><time>2026-04-19T09:45:27.989Z</time></trkpt><trkpt lat="42.12045317458864" lon="11.958752805608128"><ele>341.0</ele><time>2026-04-19T09:45:28.985Z</time></trkpt><trkpt lat="42.120530126191035" lon="11.958932006594663"><ele>341.0</ele><time>2026-04-19T09:45:29.985Z</time></trkpt><trkpt lat="42.12062528620525" lon="11.959094688014765"><ele>341.0</ele><time>2026-04-19T09:45:30.985Z</time></trkpt><trkpt lat="42.12070180217057" lon="11.959250445676865"><ele>341.0</ele><time>2026-04-19T09:45:31.985Z</time></trkpt><trkpt lat="42.120725971842475" lon="11.95942449246701"><ele>341.0</ele><time>2026-04-19T09:45:32.985Z</time></trkpt><trkpt lat="42.120693626678005" lon="11.959613488391334"><ele>341.6666666666667</ele><time>2026-04-19T09:45:33.985Z</time></trkpt><trkpt lat="42.12061980443057" lon="11.959801178316429"><ele>342.3333333333333</ele><time>2026-04-19T09:45:34.985Z</time></trkpt><trkpt lat="42.120531748620195" lon="11.959993906242472"><ele>343.0</ele><time>2026-04-19T09:45:35.985Z</time></trkpt><trkpt lat="42.12047647264444" lon="11.960175566349138"><ele>340.75</ele><time>2026-04-19T09:45:36.985Z</time></trkpt><trkpt lat="42.120478917193445" lon="11.960358812502975"><ele>338.5</ele><time>2026-04-19T09:45:37.985Z</time></trkpt><trkpt lat="42.12053896141562" lon="11.960556876434547"><ele>336.25</ele><time>2026-04-19T09:45:38.985Z</time></trkpt><trkpt lat="42.12061806107498" lon="11.960723531753969"><ele>334.0</ele><time>2026-04-19T09:45:39.985Z</time></trkpt><trkpt lat="42.120622290719595" lon="11.96087056227397"><ele>332.25</ele><time>2026-04-19T09:45:40.985Z</time></trkpt><trkpt lat="42.12056732834747" lon="11.96101176358484"><ele>330.5</ele><time>2026-04-19T09:45:41.985Z</time></trkpt><trkpt lat="42.12048062759533" lon="11.96112118336958"><ele>328.75</ele><time>2026-04-19T09:45:42.985Z</time></trkpt><trkpt lat="42.12032160345364" lon="11.961191158132374"><ele>327.0</ele><time>2026-04-19T09:45:43.985Z</time></trkpt><trkpt lat="42.1201789953722" lon="11.961207413371827"><ele>327.0</ele><time>2026-04-19T09:45:44.985Z</time></trkpt><trkpt lat="42.12006234819283" lon="11.961263497570828"><ele>327.0</ele><time>2026-04-19T09:45:45.985Z</time></trkpt><trkpt lat="42.11999102253635" lon="11.9613772357887"><ele>327.0</ele><time>2026-04-19T09:45:46.985Z</time></trkpt><trkpt lat="42.119964301325915" lon="11.961520762220422"><ele>327.0</ele><time>2026-04-19T09:45:47.985Z</time></trkpt><trkpt lat="42.11998486680057" lon="11.961683827038467"><ele>326.25</ele><time>2026-04-19T09:45:48.985Z</time></trkpt><trkpt lat="42.120052727395894" lon="11.961845221433903"><ele>325.5</ele><time>2026-04-19T09:45:49.985Z</time></trkpt><trkpt lat="42.1201061161738" lon="11.962016806641598"><ele>324.75</ele><time>2026-04-19T09:45:50.985Z</time></trkpt><trkpt lat="42.120116252886994" lon="11.96215876043635"><ele>324.0</ele><time>2026-04-19T09:45:51.985Z</time></trkpt><trkpt lat="42.12007491100862" lon="11.962306192748313"><ele>324.0</ele><time>2026-04-19T09:45:52.985Z</time></trkpt><trkpt lat="42.11999037015432" lon="11.962429500805982"><ele>324.0</ele><time>2026-04-19T09:45:53.985Z</time></trkpt><trkpt lat="42.11985478145759" lon="11.96253070126519"><ele>324.0</ele><time>2026-04-19T09:45:54.985Z</time></trkpt><trkpt lat="42.119732540528496" lon="11.962636757118831"><ele>324.0</ele><time>2026-04-19T09:45:55.985Z</time></trkpt><trkpt lat="42.11962926080535" lon="11.962753818153299"><ele>328.25</ele><time>2026-04-19T09:45:56.985Z</time></trkpt><trkpt lat="42.119560740312785" lon="11.962885639300902"><ele>332.5</ele><time>2026-04-19T09:45:57.985Z</time></trkpt><trkpt lat="42.11952135197436" lon="11.963044660406114"><ele>336.75</ele><time>2026-04-19T09:45:58.985Z</time></trkpt><trkpt lat="42.11951067282175" lon="11.96321243383275"><ele>341.0</ele><time>2026-04-19T09:45:59.985Z</time></trkpt><trkpt lat="42.11951614234548" lon="11.96338098701291"><ele>342.75</ele><time>2026-04-19T09:46:00.985Z</time></trkpt><trkpt lat="42.11954804880891" lon="11.963545855109201"><ele>344.5</ele><time>2026-04-19T09:46:01.985Z</time></trkpt><trkpt lat="42.11958978877956" lon="11.963707287322558"><ele>346.25</ele><time>2026-04-19T09:46:02.985Z</time></trkpt><trkpt lat="42.119642306253645" lon="11.963865663784109"><ele>348.0</ele><time>2026-04-19T09:46:03.985Z</time></trkpt><trkpt lat="42.119680848060796" lon="11.964008802242699"><ele>348.0</ele><time>2026-04-19T09:46:04.985Z</time></trkpt><trkpt lat="42.119722383409396" lon="11.964146206855647"><ele>348.0</ele><time>2026-04-19T09:46:05.985Z</time></trkpt><trkpt lat="42.1197755594001" lon="11.964284919395867"><ele>348.0</ele><time>2026-04-19T09:46:06.985Z</time></trkpt><trkpt lat="42.11982567750934" lon="11.964420311824824"><ele>348.0</ele><time>2026-04-19T09:46:07.985Z</time></trkpt><trkpt lat="42.11987898190109" lon="11.964553171728658"><ele>347.0</ele><time>2026-04-19T09:46:08.985Z</time></trkpt><trkpt lat="42.11993247816533" lon="11.964686010989315"><ele>346.0</ele><time>2026-04-19T09:46:09.985Z</time></trkpt><trkpt lat="42.11999650868282" lon="11.964810679376058"><ele>345.0</ele><time>2026-04-19T09:46:10.986Z</time></trkpt><trkpt lat="42.12006261610919" lon="11.964927330191664"><ele>344.0</ele><time>2026-04-19T09:46:11.986Z</time></trkpt><trkpt lat="42.1201108264451" lon="11.965053721722182"><ele>343.0</ele><time>2026-04-19T09:46:12.986Z</time></trkpt><trkpt lat="42.120160003827934" lon="11.965180614981795"><ele>345.4</ele><time>2026-04-19T09:46:13.986Z</time></trkpt><trkpt lat="42.12018935989268" lon="11.965321255538099"><ele>347.79999999999995</ele><time>2026-04-19T09:46:14.986Z</time></trkpt><trkpt lat="42.120202568201535" lon="11.965469247058184"><ele>350.2</ele><time>2026-04-19T09:46:15.986Z</time></trkpt><trkpt lat="42.12018996248062" lon="11.965597673695843"><ele>352.6</ele><time>2026-04-19T09:46:16.986Z</time></trkpt><trkpt lat="42.1201737385176" lon="11.965718081919885"><ele>355.0</ele><time>2026-04-19T09:46:17.986Z</time></trkpt><trkpt lat="42.120162956337744" lon="11.965845896091444"><ele>358.0</ele><time>2026-04-19T09:46:18.986Z</time></trkpt><trkpt lat="42.120208988377286" lon="11.965984217386026"><ele>361.0</ele><time>2026-04-19T09:46:19.986Z</time></trkpt><trkpt lat="42.120289571123415" lon="11.966127458195412"><ele>364.0</ele><time>2026-04-19T09:46:20.986Z</time></trkpt><trkpt lat="42.12039783672143" lon="11.966280064194436"><ele>367.0</ele><time>2026-04-19T09:46:21.986Z</time></trkpt><trkpt lat="42.12049974397933" lon="11.966460706167135"><ele>367.0</ele><time>2026-04-19T09:46:22.986Z</time></trkpt><trkpt lat="42.12059221464578" lon="11.96665897546174"><ele>367.0</ele><time>2026-04-19T09:46:23.986Z</time></trkpt><trkpt lat="42.12068192541826" lon="11.966846845348456"><ele>367.0</ele><time>2026-04-19T09:46:24.986Z</time></trkpt><trkpt lat="42.12075678714853" lon="11.967011373170461"><ele>360.66666666666663</ele><time>2026-04-19T09:46:25.986Z</time></trkpt><trkpt lat="42.12081999620375" lon="11.967177185371213"><ele>354.3333333333333</ele><time>2026-04-19T09:46:26.986Z</time></trkpt><trkpt lat="42.12085977441643" lon="11.967361910849748"><ele>348.0</ele><time>2026-04-19T09:46:27.986Z</time></trkpt><trkpt lat="42.120852771795064" lon="11.96758965300378"><ele>347.3333333333333</ele><time>2026-04-19T09:46:28.986Z</time></trkpt><trkpt lat="42.120844356192386" lon="11.967827706496124"><ele>346.66666666666663</ele><time>2026-04-19T09:46:29.986Z</time></trkpt><trkpt lat="42.120859414397145" lon="11.968039397457893"><ele>346.0</ele><time>2026-04-19T09:46:30.986Z</time></trkpt><trkpt lat="42.12086271012891" lon="11.968259021348054"><ele>347.3333333333333</ele><time>2026-04-19T09:46:31.986Z</time></trkpt><trkpt lat="42.1208327718381" lon="11.968449705834198"><ele>348.6666666666667</ele><time>2026-04-19T09:46:32.986Z</time></trkpt><trkpt lat="42.12075713852431" lon="11.968615404328029"><ele>350.0</ele><time>2026-04-19T09:46:33.986Z</time></trkpt><trkpt lat="42.12063988082053" lon="11.968777723641626"><ele>350.0</ele><time>2026-04-19T09:46:34.986Z</time></trkpt><trkpt lat="42.12043301727763" lon="11.968908460936317"><ele>350.0</ele><time>2026-04-19T09:46:35.986Z</time></trkpt><trkpt lat="42.12027294352697" lon="11.96905856332093"><ele>350.0</ele><time>2026-04-19T09:46:36.986Z</time></trkpt><trkpt lat="42.12012054912569" lon="11.969214941760388"><ele>349.33333333333337</ele><time>2026-04-19T09:46:37.986Z</time></trkpt><trkpt lat="42.11997765840329" lon="11.969367652681564"><ele>348.6666666666667</ele><time>2026-04-19T09:46:38.986Z</time></trkpt><trkpt lat="42.11984194059206" lon="11.969502074012398"><ele>348.0</ele><time>2026-04-19T09:46:39.986Z</time></trkpt><trkpt lat="42.119724727363916" lon="11.969648744349739"><ele>348.0</ele><time>2026-04-19T09:46:40.986Z</time></trkpt><trkpt lat="42.119621082621144" lon="11.969813316542888"><ele>348.0</ele><time>2026-04-19T09:46:41.986Z</time></trkpt><trkpt lat="42.11952153776905" lon="11.969995513537249"><ele>348.0</ele><time>2026-04-19T09:46:42.986Z</time></trkpt><trkpt lat="42.11943233230081" lon="11.970193318045407"><ele>345.3333333333333</ele><time>2026-04-19T09:46:43.986Z</time></trkpt><trkpt lat="42.11935786274737" lon="11.97040909674331"><ele>342.66666666666663</ele><time>2026-04-19T09:46:44.986Z</time></trkpt><trkpt lat="42.1192814860482" lon="11.970627630071814"><ele>340.0</ele><time>2026-04-19T09:46:45.986Z</time></trkpt><trkpt lat="42.11920269933394" lon="11.970813663205082"><ele>339.66666666666663</ele><time>2026-04-19T09:46:46.987Z</time></trkpt><trkpt lat="42.119104679478866" lon="11.970973998003604"><ele>339.3333333333333</ele><time>2026-04-19T09:46:47.987Z</time></trkpt><trkpt lat="42.11898649017996" lon="11.971123222049785"><ele>339.0</ele><time>2026-04-19T09:46:48.987Z</time></trkpt><trkpt lat="42.118838779015" lon="11.971218035516177"><ele>339.0</ele><time>2026-04-19T09:46:49.987Z</time></trkpt><trkpt lat="42.11867775445683" lon="11.971283824243539"><ele>339.0</ele><time>2026-04-19T09:46:50.987Z</time></trkpt><trkpt lat="42.11851137467467" lon="11.971336405491872"><ele>339.0</ele><time>2026-04-19T09:46:51.987Z</time></trkpt><trkpt lat="42.118343732527826" lon="11.971382396142955"><ele>344.0</ele><time>2026-04-19T09:46:52.987Z</time></trkpt><trkpt lat="42.11817764194721" lon="11.971427080532834"><ele>349.0</ele><time>2026-04-19T09:46:53.987Z</time></trkpt><trkpt lat="42.11801509995186" lon="11.971507603533487"><ele>354.0</ele><time>2026-04-19T09:46:54.987Z</time></trkpt><trkpt lat="42.11786880175897" lon="11.971636136553727"><ele>349.3333333333333</ele><time>2026-04-19T09:46:55.987Z</time></trkpt><trkpt lat="42.11771898929345" lon="11.971797229252612"><ele>344.66666666666663</ele><time>2026-04-19T09:46:56.987Z</time></trkpt><trkpt lat="42.117566408404244" lon="11.971962781280746"><ele>340.0</ele><time>2026-04-19T09:46:57.987Z</time></trkpt><trkpt lat="42.117402241229634" lon="11.972119304934772"><ele>340.0</ele><time>2026-04-19T09:46:58.987Z</time></trkpt><trkpt lat="42.11722416353142" lon="11.972263580832465"><ele>340.0</ele><time>2026-04-19T09:46:59.987Z</time></trkpt><trkpt lat="42.11704503028968" lon="11.97240959526177"><ele>340.0</ele><time>2026-04-19T09:47:00.987Z</time></trkpt><trkpt lat="42.11688618076569" lon="11.972544746718723"><ele>340.0</ele><time>2026-04-19T09:47:01.987Z</time></trkpt><trkpt lat="42.116742994213055" lon="11.972669480931115"><ele>340.0</ele><time>2026-04-19T09:47:02.987Z</time></trkpt><trkpt lat="42.11660889507152" lon="11.972786731691318"><ele>340.0</ele><time>2026-04-19T09:47:03.987Z</time></trkpt><trkpt lat="42.11648366320157" lon="11.97290458509036"><ele>341.75</ele><time>2026-04-19T09:47:04.987Z</time></trkpt><trkpt lat="42.11638096047761" lon="11.97303891166665"><ele>343.5</ele><time>2026-04-19T09:47:05.987Z</time></trkpt><trkpt lat="42.116295541871644" lon="11.973182334842992"><ele>345.25</ele><time>2026-04-19T09:47:06.987Z</time></trkpt><trkpt lat="42.11624088591604" lon="11.973346794964067"><ele>347.0</ele><time>2026-04-19T09:47:07.987Z</time></trkpt><trkpt lat="42.11618221412895" lon="11.973517744587042"><ele>347.0</ele><time>2026-04-19T09:47:08.987Z</time></trkpt><trkpt lat="42.11612485212022" lon="11.973666882201192"><ele>347.0</ele><time>2026-04-19T09:47:09.987Z</time></trkpt><trkpt lat="42.116065854794876" lon="11.973791994270632"><ele>347.0</ele><time>2026-04-19T09:47:10.987Z</time></trkpt><trkpt lat="42.11600175545044" lon="11.973900484367121"><ele>347.0</ele><time>2026-04-19T09:47:11.987Z</time></trkpt><trkpt lat="42.11593988140671" lon="11.973987577368833"><ele>347.0</ele><time>2026-04-19T09:47:12.987Z</time></trkpt><trkpt lat="42.11588986800884" lon="11.974055064908537"><ele>347.0</ele><time>2026-04-19T09:47:13.987Z</time></trkpt><trkpt lat="42.11587430300309" lon="11.974166567601424"><ele>347.0</ele><time>2026-04-19T09:47:15.987Z</time></trkpt><trkpt lat="42.11595008550407" lon="11.974241293980294"><ele>343.0</ele><time>2026-04-19T09:47:17.987Z</time></trkpt><trkpt lat="42.115958289613054" lon="11.97433939690302"><ele>343.0</ele><time>2026-04-19T09:47:19.987Z</time></trkpt><trkpt lat="42.11590370339335" lon="11.974423538676977"><ele>343.0</ele><time>2026-04-19T09:47:21.987Z</time></trkpt><trkpt lat="42.1158291541893" lon="11.974466351513945"><ele>343.0</ele><time>2026-04-19T09:47:23.988Z</time></trkpt></trkseg><trkseg><trkpt lat="42.11586369133919" lon="11.974382097412233"><ele>343.0</ele><time>2026-04-19T11:10:17.001Z</time></trkpt><trkpt lat="42.11593230822382" lon="11.974312217880696"><ele>343.0</ele><time>2026-04-19T11:10:19.001Z</time></trkpt><trkpt lat="42.115927137027874" lon="11.97422050675032"><ele>343.0</ele><time>2026-04-19T11:10:21.001Z</time></trkpt><trkpt lat="42.1158735964923" lon="11.974165372606686"><ele>343.0</ele><time>2026-04-19T11:10:23.001Z</time></trkpt><trkpt lat="42.11576615141677" lon="11.974198660196391"><ele>343.0</ele><time>2026-04-19T11:10:26.001Z</time></trkpt><trkpt lat="42.11572157012824" lon="11.97426017781776"><ele>343.0</ele><time>2026-04-19T11:10:27.001Z</time></trkpt><trkpt lat="42.115674271268354" lon="11.974328865322128"><ele>344.0</ele><time>2026-04-19T11:10:28.001Z</time></trkpt><trkpt lat="42.11562804731612" lon="11.974398039568667"><ele>345.0</ele><time>2026-04-19T11:10:29.001Z</time></trkpt><trkpt lat="42.11557629331756" lon="11.974471181908099"><ele>346.0</ele><time>2026-04-19T11:10:30.001Z</time></trkpt><trkpt lat="42.115519586772805" lon="11.974537324130948"><ele>347.0</ele><time>2026-04-19T11:10:31.001Z</time></trkpt><trkpt lat="42.11546016162771" lon="11.974613336747405"><ele>348.0</ele><time>2026-04-19T11:10:32.001Z</time></trkpt><trkpt lat="42.115399464904854" lon="11.974690130440095"><ele>349.0</ele><time>2026-04-19T11:10:33.001Z</time></trkpt><trkpt lat="42.11533964217775" lon="11.974765967924528"><ele>349.0</ele><time>2026-04-19T11:10:34.001Z</time></trkpt><trkpt lat="42.115292682815316" lon="11.974835138693312"><ele>349.0</ele><time>2026-04-19T11:10:35.001Z</time></trkpt><trkpt lat="42.11525419680819" lon="11.974907337492017"><ele>349.0</ele><time>2026-04-19T11:10:36.001Z</time></trkpt><trkpt lat="42.115234550984084" lon="11.974991677471596"><ele>349.0</ele><time>2026-04-19T11:10:37.001Z</time></trkpt><trkpt lat="42.115248258051714" lon="11.97515590713099"><ele>349.0</ele><time>2026-04-19T11:10:39.001Z</time></trkpt><trkpt lat="42.11528880407142" lon="11.97523885673074"><ele>349.0</ele><time>2026-04-19T11:10:40.001Z</time></trkpt><trkpt lat="42.1153474117376" lon="11.975317573528438"><ele>348.4</ele><time>2026-04-19T11:10:41.001Z</time></trkpt><trkpt lat="42.11541697601143" lon="11.975403101211283"><ele>347.79999999999995</ele><time>2026-04-19T11:10:42.001Z</time></trkpt><trkpt lat="42.115480438282745" lon="11.975504157617275"><ele>347.20000000000005</ele><time>2026-04-19T11:10:43.001Z</time></trkpt><trkpt lat="42.115526876518395" lon="11.975622413791159"><ele>346.6</ele><time>2026-04-19T11:10:44.001Z</time></trkpt><trkpt lat="42.115559266520194" lon="11.97574497115404"><ele>346.0</ele><time>2026-04-19T11:10:45.002Z</time></trkpt><trkpt lat="42.11556798097072" lon="11.975864226863939"><ele>344.4</ele><time>2026-04-19T11:10:46.002Z</time></trkpt><trkpt lat="42.11555750386183" lon="11.975991484442904"><ele>342.8</ele><time>2026-04-19T11:10:47.002Z</time></trkpt><trkpt lat="42.11553595562131" lon="11.976117706120647"><ele>341.2</ele><time>2026-04-19T11:10:48.002Z</time></trkpt><trkpt lat="42.11550232019907" lon="11.976239013038295"><ele>339.59999999999997</ele><time>2026-04-19T11:10:49.002Z</time></trkpt><trkpt lat="42.11544275878058" lon="11.976364360715474"><ele>338.0</ele><time>2026-04-19T11:10:50.002Z</time></trkpt><trkpt lat="42.11536844274251" lon="11.976486757089344"><ele>338.0</ele><time>2026-04-19T11:10:51.002Z</time></trkpt><trkpt lat="42.11529303898255" lon="11.976617533525717"><ele>338.0</ele><time>2026-04-19T11:10:52.002Z</time></trkpt><trkpt lat="42.115217687870825" lon="11.97675962187187"><ele>338.0</ele><time>2026-04-19T11:10:53.002Z</time></trkpt><trkpt lat="42.11514820153069" lon="11.976905616494179"><ele>338.0</ele><time>2026-04-19T11:10:54.002Z</time></trkpt><trkpt lat="42.11507558211918" lon="11.977048698165358"><ele>336.75</ele><time>2026-04-19T11:10:55.002Z</time></trkpt><trkpt lat="42.11499975206498" lon="11.977194806826414"><ele>335.5</ele><time>2026-04-19T11:10:56.002Z</time></trkpt><trkpt lat="42.11492682010343" lon="11.977331673999673"><ele>334.25</ele><time>2026-04-19T11:10:57.002Z</time></trkpt><trkpt lat="42.114855474851794" lon="11.977456995822237"><ele>333.0</ele><time>2026-04-19T11:10:58.002Z</time></trkpt><trkpt lat="42.114786112027375" lon="11.97758087480636"><ele>332.2</ele><time>2026-04-19T11:10:59.002Z</time></trkpt><trkpt lat="42.114721409315905" lon="11.977702535778452"><ele>331.4</ele><time>2026-04-19T11:11:00.002Z</time></trkpt><trkpt lat="42.114660132120335" lon="11.977818749257361"><ele>330.59999999999997</ele><time>2026-04-19T11:11:01.002Z</time></trkpt><trkpt lat="42.114600875676715" lon="11.977934672126741"><ele>329.79999999999995</ele><time>2026-04-19T11:11:02.002Z</time></trkpt><trkpt lat="42.11454300506453" lon="11.978043903985359"><ele>329.0</ele><time>2026-04-19T11:11:03.002Z</time></trkpt><trkpt lat="42.114483015728595" lon="11.97816571988997"><ele>329.0</ele><time>2026-04-19T11:11:04.002Z</time></trkpt><trkpt lat="42.114417857123414" lon="11.978286856588227"><ele>329.0</ele><time>2026-04-19T11:11:05.002Z</time></trkpt><trkpt lat="42.114355365596346" lon="11.978411857297655"><ele>329.0</ele><time>2026-04-19T11:11:06.002Z</time></trkpt><trkpt lat="42.114283603678594" lon="11.97853072526341"><ele>329.0</ele><time>2026-04-19T11:11:07.002Z</time></trkpt><trkpt lat="42.11421445725994" lon="11.97865551567907"><ele>327.75</ele><time>2026-04-19T11:11:08.002Z</time></trkpt><trkpt lat="42.11414720190277" lon="11.978783133745031"><ele>326.5</ele><time>2026-04-19T11:11:09.002Z</time></trkpt><trkpt lat="42.11408170257848" lon="11.978919165049206"><ele>325.25</ele><time>2026-04-19T11:11:10.002Z</time></trkpt><trkpt lat="42.11401627198856" lon="11.97904466396006"><ele>324.0</ele><time>2026-04-19T11:11:11.002Z</time></trkpt><trkpt lat="42.113946975219505" lon="11.979153240980514"><ele>327.2</ele><time>2026-04-19T11:11:12.002Z</time></trkpt><trkpt lat="42.11390147550797" lon="11.979281365492138"><ele>330.4</ele><time>2026-04-19T11:11:13.002Z</time></trkpt><trkpt lat="42.11386782776598" lon="11.979420836712432"><ele>333.6</ele><time>2026-04-19T11:11:14.002Z</time></trkpt><trkpt lat="42.11385465401422" lon="11.979564397326731"><ele>336.8</ele><time>2026-04-19T11:11:15.002Z</time></trkpt><trkpt lat="42.11385403062514" lon="11.979719447066069"><ele>340.0</ele><time>2026-04-19T11:11:16.002Z</time></trkpt><trkpt lat="42.113873333907414" lon="11.97988170641851"><ele>340.0</ele><time>2026-04-19T11:11:17.002Z</time></trkpt><trkpt lat="42.11390369119347" lon="11.980034875845227"><ele>340.0</ele><time>2026-04-19T11:11:18.002Z</time></trkpt><trkpt lat="42.11393938551417" lon="11.980178809406107"><ele>340.0</ele><time>2026-04-19T11:11:19.002Z</time></trkpt><trkpt lat="42.11397500221233" lon="11.98032059039091"><ele>340.0</ele><time>2026-04-19T11:11:20.002Z</time></trkpt><trkpt lat="42.114008013041726" lon="11.980457967870404"><ele>340.0</ele><time>2026-04-19T11:11:21.002Z</time></trkpt><trkpt lat="42.11402877384295" lon="11.980592646898039"><ele>340.0</ele><time>2026-04-19T11:11:22.002Z</time></trkpt><trkpt lat="42.11404016318884" lon="11.980712786453969"><ele>340.0</ele><time>2026-04-19T11:11:23.002Z</time></trkpt><trkpt lat="42.11403693176946" lon="11.980827305952646"><ele>340.0</ele><time>2026-04-19T11:11:24.002Z</time></trkpt><trkpt lat="42.11402769166437" lon="11.98094650732612"><ele>340.0</ele><time>2026-04-19T11:11:25.002Z</time></trkpt><trkpt lat="42.11400045179312" lon="11.98106409354771"><ele>340.0</ele><time>2026-04-19T11:11:26.002Z</time></trkpt><trkpt lat="42.11395324884717" lon="11.981181471679294"><ele>339.0</ele><time>2026-04-19T11:11:27.002Z</time></trkpt><trkpt lat="42.113902248520596" lon="11.981293693350203"><ele>338.0</ele><time>2026-04-19T11:11:28.002Z</time></trkpt><trkpt lat="42.11385069213587" lon="11.98139750326206"><ele>337.0</ele><time>2026-04-19T11:11:29.002Z</time></trkpt><trkpt lat="42.11381467639907" lon="11.981470803610724"><ele>336.0</ele><time>2026-04-19T11:11:30.002Z</time></trkpt><trkpt lat="42.1139228149964" lon="11.981592477717426"><ele>335.0</ele><time>2026-04-19T11:11:34.002Z</time></trkpt><trkpt lat="42.113986210448026" lon="11.981588937202924"><ele>332.2</ele><time>2026-04-19T11:11:34.999Z</time></trkpt><trkpt lat="42.114085003816385" lon="11.98151782636514"><ele>329.4</ele><time>2026-04-19T11:11:36.999Z</time></trkpt><trkpt lat="42.11413920277024" lon="11.98144385556771"><ele>326.6</ele><time>2026-04-19T11:11:37.999Z</time></trkpt><trkpt lat="42.11420311188834" lon="11.981344773936607"><ele>323.8</ele><time>2026-04-19T11:11:38.999Z</time></trkpt><trkpt lat="42.114292480143675" lon="11.981269924761815"><ele>321.0</ele><time>2026-04-19T11:11:39.999Z</time></trkpt><trkpt lat="42.114364041760226" lon="11.981184902232274"><ele>321.0</ele><time>2026-04-19T11:11:40.999Z</time></trkpt><trkpt lat="42.11442060649562" lon="11.981085337590905"><ele>321.0</ele><time>2026-04-19T11:11:41.999Z</time></trkpt><trkpt lat="42.11449263026959" lon="11.981022699547754"><ele>321.0</ele><time>2026-04-19T11:11:42.999Z</time></trkpt><trkpt lat="42.11454147141182" lon="11.98095022606928"><ele>321.0</ele><time>2026-04-19T11:11:43.999Z</time></trkpt><trkpt lat="42.11459088240569" lon="11.980879644110857"><ele>321.0</ele><time>2026-04-19T11:11:44.999Z</time></trkpt><trkpt lat="42.11462554029745" lon="11.980803707300964"><ele>321.0</ele><time>2026-04-19T11:11:45.999Z</time></trkpt><trkpt lat="42.114634288010656" lon="11.98071835688083"><ele>321.6666666666667</ele><time>2026-04-19T11:11:46.999Z</time></trkpt><trkpt lat="42.11461049361104" lon="11.98061478709062"><ele>322.3333333333333</ele><time>2026-04-19T11:11:47.999Z</time></trkpt><trkpt lat="42.11459779431671" lon="11.980503920900212"><ele>323.0</ele><time>2026-04-19T11:11:48.999Z</time></trkpt><trkpt lat="42.114579757188416" lon="11.98038294599176"><ele>323.66666666666663</ele><time>2026-04-19T11:11:49.999Z</time></trkpt><trkpt lat="42.11457867684188" lon="11.98026735803862"><ele>324.3333333333333</ele><time>2026-04-19T11:11:50.999Z</time></trkpt><trkpt lat="42.11457585855107" lon="11.9801408352886"><ele>325.0</ele><time>2026-04-19T11:11:51.999Z</time></trkpt><trkpt lat="42.11457839878277" lon="11.980023741478071"><ele>324.5</ele><time>2026-04-19T11:11:52.999Z</time></trkpt><trkpt lat="42.11458589538925" lon="11.979916557723103"><ele>324.0</ele><time>2026-04-19T11:11:53.999Z</time></trkpt><trkpt lat="42.11459965342026" lon="11.979828725716139"><ele>323.5</ele><time>2026-04-19T11:11:54.999Z</time></trkpt><trkpt lat="42.114616396486866" lon="11.979746885322207"><ele>323.0</ele><time>2026-04-19T11:11:55.999Z</time></trkpt><trkpt lat="42.114658043636155" lon="11.979603764718298"><ele>322.5</ele><time>2026-04-19T11:11:57.999Z</time></trkpt><trkpt lat="42.11468982749565" lon="11.97952145158375"><ele>322.0</ele><time>2026-04-19T11:11:58.999Z</time></trkpt><trkpt lat="42.114743194605325" lon="11.979452814650097"><ele>322.0</ele><time>2026-04-19T11:11:59.999Z</time></trkpt><trkpt lat="42.11480098176376" lon="11.979389330687944"><ele>322.0</ele><time>2026-04-19T11:12:00.999Z</time></trkpt><trkpt lat="42.114881398224654" lon="11.979347449176968"><ele>322.0</ele><time>2026-04-19T11:12:01.999Z</time></trkpt><trkpt lat="42.11496350235048" lon="11.97932868511988"><ele>322.0</ele><time>2026-04-19T11:12:02.999Z</time></trkpt><trkpt lat="42.1150341606912" lon="11.979318665201406"><ele>322.0</ele><time>2026-04-19T11:12:03.999Z</time></trkpt><trkpt lat="42.115116632284206" lon="11.979342741647875"><ele>322.0</ele><time>2026-04-19T11:12:04.999Z</time></trkpt><trkpt lat="42.115198004347064" lon="11.979386906290832"><ele>320.3333333333333</ele><time>2026-04-19T11:12:05.999Z</time></trkpt><trkpt lat="42.11526861078016" lon="11.979437893980492"><ele>318.66666666666663</ele><time>2026-04-19T11:12:06.999Z</time></trkpt><trkpt lat="42.115343509218846" lon="11.97948188186864"><ele>317.0</ele><time>2026-04-19T11:12:07.999Z</time></trkpt><trkpt lat="42.11541767863884" lon="11.979512831052922"><ele>315.3333333333333</ele><time>2026-04-19T11:12:09Z</time></trkpt><trkpt lat="42.11548489634664" lon="11.979516956484433"><ele>313.6666666666667</ele><time>2026-04-19T11:12:10Z</time></trkpt><trkpt lat="42.1155535519144" lon="11.979498677796087"><ele>312.0</ele><time>2026-04-19T11:12:11Z</time></trkpt><trkpt lat="42.11562082763649" lon="11.979443986926563"><ele>312.0</ele><time>2026-04-19T11:12:12Z</time></trkpt><trkpt lat="42.11570181889538" lon="11.979374364485523"><ele>312.0</ele><time>2026-04-19T11:12:13Z</time></trkpt><trkpt lat="42.11579171334004" lon="11.979301548095597"><ele>312.0</ele><time>2026-04-19T11:12:14Z</time></trkpt><trkpt lat="42.115891354155224" lon="11.97921143752336"><ele>312.0</ele><time>2026-04-19T11:12:15Z</time></trkpt><trkpt lat="42.11597463802367" lon="11.979140370444599"><ele>312.0</ele><time>2026-04-19T11:12:16Z</time></trkpt><trkpt lat="42.11604986498034" lon="11.979077421659472"><ele>311.8</ele><time>2026-04-19T11:12:17Z</time></trkpt><trkpt lat="42.11613593422735" lon="11.979004356146307"><ele>311.6</ele><time>2026-04-19T11:12:18Z</time></trkpt><trkpt lat="42.1162386762746" lon="11.978936248191657"><ele>311.40000000000003</ele><time>2026-04-19T11:12:19Z</time></trkpt><trkpt lat="42.11633808254991" lon="11.978878462409984"><ele>311.2</ele><time>2026-04-19T11:12:20Z</time></trkpt><trkpt lat="42.11643267400457" lon="11.97883305440636"><ele>311.0</ele><time>2026-04-19T11:12:21Z</time></trkpt><trkpt lat="42.11652413465229" lon="11.978786804913756"><ele>309.2</ele><time>2026-04-19T11:12:22Z</time></trkpt><trkpt lat="42.11661601740513" lon="11.978738954832576"><ele>307.40000000000003</ele><time>2026-04-19T11:12:23Z</time></trkpt><trkpt lat="42.1167057672685" lon="11.978682743747012"><ele>305.6</ele><time>2026-04-19T11:12:24Z</time></trkpt><trkpt lat="42.11680064111307" lon="11.978631414358647"><ele>303.8</ele><time>2026-04-19T11:12:25Z</time></trkpt><trkpt lat="42.116891617888975" lon="11.978574640286697"><ele>302.0</ele><time>2026-04-19T11:12:26Z</time></trkpt><trkpt lat="42.11697516345448" lon="11.978522647415316"><ele>302.0</ele><time>2026-04-19T11:12:27Z</time></trkpt><trkpt lat="42.117061044886995" lon="11.97845745786913"><ele>302.0</ele><time>2026-04-19T11:12:28Z</time></trkpt><trkpt lat="42.117146030276096" lon="11.978412281657736"><ele>302.0</ele><time>2026-04-19T11:12:29Z</time></trkpt><trkpt lat="42.11722370345415" lon="11.978365708041917"><ele>302.0</ele><time>2026-04-19T11:12:30Z</time></trkpt><trkpt lat="42.11731061241411" lon="11.978317741678227"><ele>302.0</ele><time>2026-04-19T11:12:31Z</time></trkpt><trkpt lat="42.1174005164628" lon="11.978282669223402"><ele>301.8</ele><time>2026-04-19T11:12:32Z</time></trkpt><trkpt lat="42.1174828520404" lon="11.978279547374866"><ele>301.6</ele><time>2026-04-19T11:12:33Z</time></trkpt><trkpt lat="42.11759002731173" lon="11.978288226153643"><ele>301.40000000000003</ele><time>2026-04-19T11:12:34Z</time></trkpt><trkpt lat="42.11769701895275" lon="11.978285450684133"><ele>301.2</ele><time>2026-04-19T11:12:35Z</time></trkpt><trkpt lat="42.117808265557194" lon="11.978283746301843"><ele>301.0</ele><time>2026-04-19T11:12:36Z</time></trkpt><trkpt lat="42.117911993436806" lon="11.978276989703023"><ele>301.0</ele><time>2026-04-19T11:12:37Z</time></trkpt><trkpt lat="42.11800421276686" lon="11.978264127133324"><ele>301.0</ele><time>2026-04-19T11:12:38Z</time></trkpt><trkpt lat="42.11808419100145" lon="11.97822795241863"><ele>301.0</ele><time>2026-04-19T11:12:39Z</time></trkpt><trkpt lat="42.11816407924795" lon="11.978163478180814"><ele>301.0</ele><time>2026-04-19T11:12:40Z</time></trkpt><trkpt lat="42.11824038983672" lon="11.978074609727924"><ele>301.0</ele><time>2026-04-19T11:12:41Z</time></trkpt><trkpt lat="42.118326792542064" lon="11.977962745625653"><ele>299.0</ele><time>2026-04-19T11:12:42Z</time></trkpt><trkpt lat="42.11841626687437" lon="11.977866311001122"><ele>297.0</ele><time>2026-04-19T11:12:43Z</time></trkpt><trkpt lat="42.118515015541384" lon="11.97776644049092"><ele>295.0</ele><time>2026-04-19T11:12:44Z</time></trkpt><trkpt lat="42.11860988806971" lon="11.9776874202661"><ele>293.0</ele><time>2026-04-19T11:12:45Z</time></trkpt><trkpt lat="42.118688233357894" lon="11.977612698388853"><ele>291.0</ele><time>2026-04-19T11:12:46Z</time></trkpt><trkpt lat="42.11875874429376" lon="11.977544065353154"><ele>291.3333333333333</ele><time>2026-04-19T11:12:47Z</time></trkpt><trkpt lat="42.11881702905388" lon="11.977461980683836"><ele>291.6666666666667</ele><time>2026-04-19T11:12:48Z</time></trkpt><trkpt lat="42.118845490316104" lon="11.97738113778396"><ele>292.0</ele><time>2026-04-19T11:12:49Z</time></trkpt><trkpt lat="42.11885858578142" lon="11.977292519107078"><ele>292.33333333333337</ele><time>2026-04-19T11:12:50Z</time></trkpt><trkpt lat="42.1188574284418" lon="11.977188128447489"><ele>292.6666666666667</ele><time>2026-04-19T11:12:51Z</time></trkpt><trkpt lat="42.118840698011795" lon="11.977082284266276"><ele>293.0</ele><time>2026-04-19T11:12:52.001Z</time></trkpt><trkpt lat="42.11883999840719" lon="11.976973807865626"><ele>293.0</ele><time>2026-04-19T11:12:53.001Z</time></trkpt><trkpt lat="42.118831682849084" lon="11.976873850917416"><ele>293.0</ele><time>2026-04-19T11:12:54.001Z</time></trkpt><trkpt lat="42.11884302578908" lon="11.976761918160268"><ele>293.0</ele><time>2026-04-19T11:12:55.001Z</time></trkpt><trkpt lat="42.1188684057846" lon="11.976664055587582"><ele>293.0</ele><time>2026-04-19T11:12:56.001Z</time></trkpt><trkpt lat="42.11890545397343" lon="11.976546675754468"><ele>293.0</ele><time>2026-04-19T11:12:57.001Z</time></trkpt><trkpt lat="42.118947203864614" lon="11.976450601131049"><ele>293.0</ele><time>2026-04-19T11:12:58.001Z</time></trkpt><trkpt lat="42.11899410179186" lon="11.976368573130573"><ele>293.6666666666667</ele><time>2026-04-19T11:12:59.001Z</time></trkpt><trkpt lat="42.11903958079818" lon="11.976291796613609"><ele>294.33333333333337</ele><time>2026-04-19T11:13:00.001Z</time></trkpt><trkpt lat="42.11910526246756" lon="11.976241546907591"><ele>295.0</ele><time>2026-04-19T11:13:01.001Z</time></trkpt><trkpt lat="42.119185657577454" lon="11.97620861639586"><ele>295.6666666666667</ele><time>2026-04-19T11:13:02.001Z</time></trkpt><trkpt lat="42.119262640593035" lon="11.97618575884537"><ele>296.3333333333333</ele><time>2026-04-19T11:13:03.001Z</time></trkpt><trkpt lat="42.119332753926805" lon="11.976158483029014"><ele>297.0</ele><time>2026-04-19T11:13:04.001Z</time></trkpt><trkpt lat="42.11940642798979" lon="11.976110880772556"><ele>294.4</ele><time>2026-04-19T11:13:06.001Z</time></trkpt><trkpt lat="42.11947018554627" lon="11.97609005251983"><ele>291.79999999999995</ele><time>2026-04-19T11:14:33Z</time></trkpt><trkpt lat="42.1195549907911" lon="11.976067691984985"><ele>289.2</ele><time>2026-04-19T11:14:35Z</time></trkpt><trkpt lat="42.11964612647693" lon="11.975993246375802"><ele>286.59999999999997</ele><time>2026-04-19T11:14:37Z</time></trkpt><trkpt lat="42.119725576560484" lon="11.975928797371072"><ele>284.0</ele><time>2026-04-19T11:14:39Z</time></trkpt><trkpt lat="42.11984862677619" lon="11.975882293611033"><ele>283.2</ele><time>2026-04-19T11:14:55Z</time></trkpt><trkpt lat="42.119919517882444" lon="11.975853670912697"><ele>282.4</ele><time>2026-04-19T11:14:56Z</time></trkpt><trkpt lat="42.120010169181036" lon="11.97583863785054"><ele>281.6</ele><time>2026-04-19T11:14:57Z</time></trkpt><trkpt lat="42.1200976791323" lon="11.975859778084244"><ele>280.8</ele><time>2026-04-19T11:14:58Z</time></trkpt><trkpt lat="42.12019527349752" lon="11.9758585982883"><ele>280.0</ele><time>2026-04-19T11:14:59Z</time></trkpt><trkpt lat="42.1203060679345" lon="11.975847796506667"><ele>280.0</ele><time>2026-04-19T11:15:00Z</time></trkpt><trkpt lat="42.12040897883759" lon="11.975851785566237"><ele>280.0</ele><time>2026-04-19T11:15:01Z</time></trkpt><trkpt lat="42.12050280173356" lon="11.975845970442434"><ele>280.0</ele><time>2026-04-19T11:15:02Z</time></trkpt><trkpt lat="42.12059683436615" lon="11.975850053541306"><ele>280.0</ele><time>2026-04-19T11:15:03.001Z</time></trkpt><trkpt lat="42.12068350163894" lon="11.975848616198707"><ele>280.0</ele><time>2026-04-19T11:15:04.001Z</time></trkpt><trkpt lat="42.12078433069449" lon="11.97586761743261"><ele>276.8</ele><time>2026-04-19T11:15:05.001Z</time></trkpt><trkpt lat="42.12088367906257" lon="11.975913036215703"><ele>273.6</ele><time>2026-04-19T11:15:06.001Z</time></trkpt><trkpt lat="42.120980184094876" lon="11.975958191092813"><ele>270.4</ele><time>2026-04-19T11:15:07.001Z</time></trkpt><trkpt lat="42.12108676598479" lon="11.97599198254135"><ele>267.2</ele><time>2026-04-19T11:15:08.001Z</time></trkpt><trkpt lat="42.121179383063534" lon="11.976021203493453"><ele>264.0</ele><time>2026-04-19T11:15:09.001Z</time></trkpt><trkpt lat="42.12125952720584" lon="11.976058665177657"><ele>264.0</ele><time>2026-04-19T11:15:10.001Z</time></trkpt><trkpt lat="42.12133685401005" lon="11.97609238925441"><ele>264.0</ele><time>2026-04-19T11:15:11.001Z</time></trkpt><trkpt lat="42.12146446458498" lon="11.976110833798227"><ele>264.0</ele><time>2026-04-19T11:15:13.001Z</time></trkpt><trkpt lat="42.12153097109286" lon="11.976124189528472"><ele>264.0</ele><time>2026-04-19T11:15:14.001Z</time></trkpt><trkpt lat="42.12165713995999" lon="11.976114154361895"><ele>264.0</ele><time>2026-04-19T11:15:16.001Z</time></trkpt><trkpt lat="42.12173815627632" lon="11.976113782079711"><ele>263.6666666666667</ele><time>2026-04-19T11:15:17.001Z</time></trkpt><trkpt lat="42.12181688330946" lon="11.976089393830973"><ele>263.3333333333333</ele><time>2026-04-19T11:15:18.001Z</time></trkpt><trkpt lat="42.121891131325285" lon="11.976061602693603"><ele>263.0</ele><time>2026-04-19T11:15:19.001Z</time></trkpt><trkpt lat="42.121962264514075" lon="11.97603377943764"><ele>262.66666666666663</ele><time>2026-04-19T11:15:20.001Z</time></trkpt><trkpt lat="42.12204178022032" lon="11.975981078974836"><ele>262.3333333333333</ele><time>2026-04-19T11:15:21.001Z</time></trkpt><trkpt lat="42.12212025513724" lon="11.975961420974153"><ele>262.0</ele><time>2026-04-19T11:15:22.001Z</time></trkpt><trkpt lat="42.122194710828204" lon="11.97593218344545"><ele>262.0</ele><time>2026-04-19T11:15:23.001Z</time></trkpt><trkpt lat="42.12226842208283" lon="11.97590607538312"><ele>262.0</ele><time>2026-04-19T11:15:24.001Z</time></trkpt><trkpt lat="42.12234579866223" lon="11.975871936892199"><ele>262.0</ele><time>2026-04-19T11:15:25.001Z</time></trkpt><trkpt lat="42.122445674917216" lon="11.975836059201399"><ele>262.0</ele><time>2026-04-19T11:15:26.001Z</time></trkpt><trkpt lat="42.122514778098285" lon="11.975804567454729"><ele>262.0</ele><time>2026-04-19T11:15:27.001Z</time></trkpt><trkpt lat="42.122585167490975" lon="11.975784410913631"><ele>262.0</ele><time>2026-04-19T11:15:28.001Z</time></trkpt><trkpt lat="42.1226751397435" lon="11.975753266722018"><ele>261.6</ele><time>2026-04-19T11:15:29.001Z</time></trkpt><trkpt lat="42.12275601605927" lon="11.975720167144596"><ele>261.2</ele><time>2026-04-19T11:15:30.001Z</time></trkpt><trkpt lat="42.12284099137167" lon="11.975687119347755"><ele>260.8</ele><time>2026-04-19T11:15:31.001Z</time></trkpt><trkpt lat="42.122927227521856" lon="11.975652260681349"><ele>260.4</ele><time>2026-04-19T11:15:32.001Z</time></trkpt><trkpt lat="42.123026009041006" lon="11.975617152979417"><ele>260.0</ele><time>2026-04-19T11:15:33.001Z</time></trkpt><trkpt lat="42.12311557841872" lon="11.975585874447507"><ele>260.0</ele><time>2026-04-19T11:15:34.001Z</time></trkpt><trkpt lat="42.12319688607763" lon="11.975564534641704"><ele>260.0</ele><time>2026-04-19T11:15:35.001Z</time></trkpt><trkpt lat="42.123278547294234" lon="11.975541529067282"><ele>260.0</ele><time>2026-04-19T11:15:36.001Z</time></trkpt><trkpt lat="42.12335622339494" lon="11.97551976970867"><ele>260.0</ele><time>2026-04-19T11:15:37.001Z</time></trkpt><trkpt lat="42.12344806166996" lon="11.975486834902357"><ele>260.0</ele><time>2026-04-19T11:15:38.001Z</time></trkpt><trkpt lat="42.1235440801693" lon="11.975446673382681"><ele>260.0</ele><time>2026-04-19T11:15:39.001Z</time></trkpt><trkpt lat="42.12364249846796" lon="11.975427896936685"><ele>258.6666666666667</ele><time>2026-04-19T11:15:40.001Z</time></trkpt><trkpt lat="42.12374190567102" lon="11.9754232333506"><ele>257.33333333333337</ele><time>2026-04-19T11:15:41.001Z</time></trkpt><trkpt lat="42.123838873629246" lon="11.975415855654067"><ele>256.0</ele><time>2026-04-19T11:15:42.002Z</time></trkpt><trkpt lat="42.123928578805206" lon="11.975419794769303"><ele>254.66666666666669</ele><time>2026-04-19T11:15:43.002Z</time></trkpt><trkpt lat="42.12400911834864" lon="11.975415912132345"><ele>253.33333333333334</ele><time>2026-04-19T11:15:44.002Z</time></trkpt><trkpt lat="42.12408748778509" lon="11.975396763573096"><ele>252.0</ele><time>2026-04-19T11:15:45.002Z</time></trkpt><trkpt lat="42.12416686633664" lon="11.975386957930992"><ele>251.0</ele><time>2026-04-19T11:15:46.002Z</time></trkpt><trkpt lat="42.12424029374766" lon="11.975376154091277"><ele>250.0</ele><time>2026-04-19T11:15:46.998Z</time></trkpt><trkpt lat="42.12431759961521" lon="11.975369830332623"><ele>249.0</ele><time>2026-04-19T11:15:47.998Z</time></trkpt><trkpt lat="42.12438614722334" lon="11.975357961676929"><ele>248.0</ele><time>2026-04-19T11:15:48.998Z</time></trkpt><trkpt lat="42.12444824856793" lon="11.975333915015076"><ele>247.0</ele><time>2026-04-19T11:15:49.998Z</time></trkpt><trkpt lat="42.12455367337264" lon="11.975240403692302"><ele>246.0</ele><time>2026-04-19T11:15:51.998Z</time></trkpt><trkpt lat="42.1246143264069" lon="11.975158595619359"><ele>246.00000000000003</ele><time>2026-04-19T11:15:52.998Z</time></trkpt><trkpt lat="42.12466250488981" lon="11.975083383462731"><ele>246.0</ele><time>2026-04-19T11:15:53.998Z</time></trkpt><trkpt lat="42.12470776726558" lon="11.975011531892038"><ele>246.00000000000003</ele><time>2026-04-19T11:15:54.998Z</time></trkpt><trkpt lat="42.12475307812071" lon="11.974949741312665"><ele>246.00000000000003</ele><time>2026-04-19T11:15:55.998Z</time></trkpt><trkpt lat="42.124806818634184" lon="11.97487859463452"><ele>246.0</ele><time>2026-04-19T11:15:56.998Z</time></trkpt><trkpt lat="42.12486292202654" lon="11.974806768389826"><ele>246.00000000000003</ele><time>2026-04-19T11:15:57.998Z</time></trkpt><trkpt lat="42.12491458568744" lon="11.97475036597632"><ele>246.00000000000003</ele><time>2026-04-19T11:15:58.998Z</time></trkpt><trkpt lat="42.12498823372078" lon="11.974718191833931"><ele>245.16666666666666</ele><time>2026-04-19T11:15:59.998Z</time></trkpt><trkpt lat="42.12507253211319" lon="11.974694061308597"><ele>244.33333333333331</ele><time>2026-04-19T11:16:00.998Z</time></trkpt><trkpt lat="42.12514128314847" lon="11.974690138911779"><ele>243.5</ele><time>2026-04-19T11:16:01.999Z</time></trkpt><trkpt lat="42.12521841395002" lon="11.974684014439516"><ele>242.66666666666666</ele><time>2026-04-19T11:16:02.999Z</time></trkpt><trkpt lat="42.125292984029294" lon="11.974664051316548"><ele>241.83333333333331</ele><time>2026-04-19T11:16:03.999Z</time></trkpt><trkpt lat="42.125368345244794" lon="11.974641823099546"><ele>241.0</ele><time>2026-04-19T11:16:04.999Z</time></trkpt><trkpt lat="42.12545543393243" lon="11.974613236321083"><ele>240.99999999999997</ele><time>2026-04-19T11:16:05.999Z</time></trkpt><trkpt lat="42.125546932223955" lon="11.974579852094879"><ele>241.0</ele><time>2026-04-19T11:16:06.999Z</time></trkpt><trkpt lat="42.12561765497375" lon="11.97456202687847"><ele>241.0</ele><time>2026-04-19T11:16:07.999Z</time></trkpt><trkpt lat="42.1256946516054" lon="11.974542689832722"><ele>241.0</ele><time>2026-04-19T11:16:08.999Z</time></trkpt><trkpt lat="42.125761965114584" lon="11.974522020593371"><ele>240.99999999999997</ele><time>2026-04-19T11:16:09.999Z</time></trkpt><trkpt lat="42.12583005128131" lon="11.974497294421639"><ele>241.0</ele><time>2026-04-19T11:16:10.999Z</time></trkpt><trkpt lat="42.12597814269879" lon="11.974488319240661"><ele>239.66666666666666</ele><time>2026-04-19T11:16:12.999Z</time></trkpt><trkpt lat="42.1260435350264" lon="11.974514561145117"><ele>238.33333333333331</ele><time>2026-04-19T11:16:13.999Z</time></trkpt><trkpt lat="42.12610668447358" lon="11.974554602373054"><ele>237.0</ele><time>2026-04-19T11:16:14.999Z</time></trkpt><trkpt lat="42.12617592226387" lon="11.974598821245902"><ele>235.66666666666669</ele><time>2026-04-19T11:16:15.999Z</time></trkpt><trkpt lat="42.12626177308064" lon="11.974637820509132"><ele>234.33333333333334</ele><time>2026-04-19T11:16:16.999Z</time></trkpt><trkpt lat="42.12633616785906" lon="11.974681004516652"><ele>233.0</ele><time>2026-04-19T11:16:17.999Z</time></trkpt><trkpt lat="42.12641949519944" lon="11.974728662580205"><ele>233.00000000000003</ele><time>2026-04-19T11:16:18.999Z</time></trkpt><trkpt lat="42.126509611321005" lon="11.9747748732867"><ele>233.0</ele><time>2026-04-19T11:16:19.999Z</time></trkpt><trkpt lat="42.12660158690925" lon="11.974816208590878"><ele>233.0</ele><time>2026-04-19T11:16:21Z</time></trkpt><trkpt lat="42.12667497507227" lon="11.97484353518386"><ele>233.0</ele><time>2026-04-19T11:16:22Z</time></trkpt><trkpt lat="42.126740434575936" lon="11.974860448746204"><ele>233.00000000000003</ele><time>2026-04-19T11:16:23Z</time></trkpt><trkpt lat="42.12680801595011" lon="11.974891527051533"><ele>233.0</ele><time>2026-04-19T11:16:24Z</time></trkpt><trkpt lat="42.12687138238281" lon="11.974931626379625"><ele>231.71428571428572</ele><time>2026-04-19T11:16:25Z</time></trkpt><trkpt lat="42.12694175830243" lon="11.974979196059403"><ele>230.42857142857142</ele><time>2026-04-19T11:16:26Z</time></trkpt><trkpt lat="42.127012199831164" lon="11.975015007869231"><ele>229.14285714285714</ele><time>2026-04-19T11:16:27Z</time></trkpt><trkpt lat="42.12708068100485" lon="11.975049464475594"><ele>227.85714285714286</ele><time>2026-04-19T11:16:28Z</time></trkpt><trkpt lat="42.12714576024861" lon="11.975088615131662"><ele>226.57142857142856</ele><time>2026-04-19T11:16:29Z</time></trkpt><trkpt lat="42.12722041337" lon="11.975117179523693"><ele>225.28571428571428</ele><time>2026-04-19T11:16:30Z</time></trkpt><trkpt lat="42.12728246003414" lon="11.975142482330444"><ele>224.0</ele><time>2026-04-19T11:16:31Z</time></trkpt><trkpt lat="42.12735532884979" lon="11.975171498219416"><ele>221.16666666666669</ele><time>2026-04-19T11:16:32Z</time></trkpt><trkpt lat="42.127418204514996" lon="11.975210512781732"><ele>218.33333333333334</ele><time>2026-04-19T11:16:33Z</time></trkpt><trkpt lat="42.12747852161558" lon="11.975256323876325"><ele>215.5</ele><time>2026-04-19T11:16:34Z</time></trkpt><trkpt lat="42.12753619453662" lon="11.975291673372373"><ele>212.66666666666669</ele><time>2026-04-19T11:16:35Z</time></trkpt><trkpt lat="42.12761650601914" lon="11.975303008992459"><ele>209.83333333333334</ele><time>2026-04-19T11:16:37Z</time></trkpt><trkpt lat="42.12765593862311" lon="11.975193490611467"><ele>207.0</ele><time>2026-04-19T11:16:40Z</time></trkpt><trkpt lat="42.12763337295751" lon="11.97502831203986"><ele>208.16666666666666</ele><time>2026-04-19T11:16:42Z</time></trkpt><trkpt lat="42.127608117746355" lon="11.974935756060617"><ele>209.33333333333331</ele><time>2026-04-19T11:16:43Z</time></trkpt><trkpt lat="42.12759897524937" lon="11.974832683399228"><ele>210.5</ele><time>2026-04-19T11:16:44Z</time></trkpt><trkpt lat="42.12757585334461" lon="11.97475188840852"><ele>211.66666666666666</ele><time>2026-04-19T11:16:45Z</time></trkpt><trkpt lat="42.12756868515612" lon="11.974637386215234"><ele>212.83333333333331</ele><time>2026-04-19T11:16:47Z</time></trkpt><trkpt lat="42.12759314614743" lon="11.974552002212278"><ele>214.0</ele><time>2026-04-19T11:16:49.001Z</time></trkpt><trkpt lat="42.127686216906966" lon="11.974484933704636"><ele>213.99999999999997</ele><time>2026-04-19T11:16:51.001Z</time></trkpt><trkpt lat="42.127766607117195" lon="11.974459687875637"><ele>214.0</ele><time>2026-04-19T11:16:52.001Z</time></trkpt><trkpt lat="42.127853476680144" lon="11.974445009992289"><ele>214.0</ele><time>2026-04-19T11:16:53.001Z</time></trkpt><trkpt lat="42.12792558544077" lon="11.974418162051782"><ele>214.0</ele><time>2026-04-19T11:16:54.001Z</time></trkpt><trkpt lat="42.12799641223683" lon="11.974378270691822"><ele>213.99999999999997</ele><time>2026-04-19T11:16:55.001Z</time></trkpt><trkpt lat="42.12806458103597" lon="11.974337486680515"><ele>214.0</ele><time>2026-04-19T11:16:56.001Z</time></trkpt><trkpt lat="42.12813280225097" lon="11.974286684963795"><ele>213.99999999999997</ele><time>2026-04-19T11:16:57.001Z</time></trkpt><trkpt lat="42.12820213461664" lon="11.974224967151379"><ele>214.0</ele><time>2026-04-19T11:16:58.001Z</time></trkpt><trkpt lat="42.12826668360876" lon="11.974164943064645"><ele>214.0</ele><time>2026-04-19T11:16:59.001Z</time></trkpt><trkpt lat="42.128319810277034" lon="11.97411533153911"><ele>214.0</ele><time>2026-04-19T11:17:00.001Z</time></trkpt><trkpt lat="42.1283822065816" lon="11.97404902346626"><ele>213.99999999999997</ele><time>2026-04-19T11:17:01.001Z</time></trkpt><trkpt lat="42.128449687054946" lon="11.973986434935819"><ele>214.0</ele><time>2026-04-19T11:17:02.001Z</time></trkpt><trkpt lat="42.12850710858321" lon="11.973926473118388"><ele>211.83333333333331</ele><time>2026-04-19T11:17:03.001Z</time></trkpt><trkpt lat="42.12857159984741" lon="11.97386699319902"><ele>209.66666666666666</ele><time>2026-04-19T11:17:04.001Z</time></trkpt><trkpt lat="42.12864064433683" lon="11.97381089419078"><ele>207.5</ele><time>2026-04-19T11:17:05.001Z</time></trkpt><trkpt lat="42.128708261068475" lon="11.973750468003427"><ele>205.33333333333331</ele><time>2026-04-19T11:17:06.001Z</time></trkpt><trkpt lat="42.128765517535484" lon="11.973705541794306"><ele>203.16666666666666</ele><time>2026-04-19T11:17:07.001Z</time></trkpt><trkpt lat="42.128863963869264" lon="11.973584326422738"><ele>201.0</ele><time>2026-04-19T11:17:09.001Z</time></trkpt><trkpt lat="42.12896482860149" lon="11.973483302767061"><ele>201.0</ele><time>2026-04-19T11:17:11.001Z</time></trkpt><trkpt lat="42.129018725270726" lon="11.973429178702991"><ele>201.0</ele><time>2026-04-19T11:17:12.001Z</time></trkpt><trkpt lat="42.12908846318577" lon="11.973369782364115"><ele>201.0</ele><time>2026-04-19T11:17:13.001Z</time></trkpt><trkpt lat="42.12915741890106" lon="11.973317134010296"><ele>201.0</ele><time>2026-04-19T11:17:14.001Z</time></trkpt><trkpt lat="42.129222003082596" lon="11.973254702320096"><ele>201.0</ele><time>2026-04-19T11:17:15.001Z</time></trkpt><trkpt lat="42.12929368620071" lon="11.973188027213615"><ele>201.0</ele><time>2026-04-19T11:17:16.001Z</time></trkpt><trkpt lat="42.12936683240802" lon="11.973116688016386"><ele>198.83333333333334</ele><time>2026-04-19T11:17:17.001Z</time></trkpt><trkpt lat="42.12943868268777" lon="11.973048054585442"><ele>196.66666666666666</ele><time>2026-04-19T11:17:18.001Z</time></trkpt><trkpt lat="42.12952076145547" lon="11.972981496218683"><ele>194.5</ele><time>2026-04-19T11:17:19.001Z</time></trkpt><trkpt lat="42.12957931240655" lon="11.972924200648386"><ele>192.33333333333331</ele><time>2026-04-19T11:17:20.001Z</time></trkpt><trkpt lat="42.129636411510745" lon="11.97287230563895"><ele>190.16666666666666</ele><time>2026-04-19T11:17:21.001Z</time></trkpt><trkpt lat="42.12969979217044" lon="11.972819261659097"><ele>188.0</ele><time>2026-04-19T11:17:22.001Z</time></trkpt><trkpt lat="42.129764051532774" lon="11.972753822325563"><ele>188.0</ele><time>2026-04-19T11:17:23.002Z</time></trkpt><trkpt lat="42.12982364995421" lon="11.972679568821608"><ele>188.0</ele><time>2026-04-19T11:17:24.002Z</time></trkpt><trkpt lat="42.12987364479361" lon="11.972600787825135"><ele>188.0</ele><time>2026-04-19T11:17:25.002Z</time></trkpt><trkpt lat="42.12992444523659" lon="11.97251858368433"><ele>188.0</ele><time>2026-04-19T11:17:26.002Z</time></trkpt><trkpt lat="42.129971577305334" lon="11.972447606829721"><ele>188.0</ele><time>2026-04-19T11:17:27.002Z</time></trkpt><trkpt lat="42.13001865225094" lon="11.972389967685725"><ele>188.0</ele><time>2026-04-19T11:17:28.002Z</time></trkpt><trkpt lat="42.13012220987285" lon="11.972348948975599"><ele>186.16666666666666</ele><time>2026-04-19T11:17:30.002Z</time></trkpt><trkpt lat="42.130216077941235" lon="11.972471502111222"><ele>184.33333333333331</ele><time>2026-04-19T11:17:32.002Z</time></trkpt><trkpt lat="42.130247208829786" lon="11.972562827646268"><ele>182.5</ele><time>2026-04-19T11:17:33.002Z</time></trkpt><trkpt lat="42.130280015279546" lon="11.97265940115895"><ele>180.66666666666666</ele><time>2026-04-19T11:17:34.002Z</time></trkpt><trkpt lat="42.13030466912019" lon="11.97274645458617"><ele>178.83333333333334</ele><time>2026-04-19T11:17:35.002Z</time></trkpt><trkpt lat="42.130343096339935" lon="11.97282190853063"><ele>177.0</ele><time>2026-04-19T11:17:36.002Z</time></trkpt><trkpt lat="42.13041168595369" lon="11.97295363472768"><ele>177.0</ele><time>2026-04-19T11:17:38.002Z</time></trkpt><trkpt lat="42.13051033967179" lon="11.973043839241468"><ele>177.0</ele><time>2026-04-19T11:17:40.002Z</time></trkpt><trkpt lat="42.13061224978286" lon="11.973063479285603"><ele>177.0</ele><time>2026-04-19T11:17:42.002Z</time></trkpt><trkpt lat="42.13067932380179" lon="11.973067043996274"><ele>177.0</ele><time>2026-04-19T11:17:43.002Z</time></trkpt><trkpt lat="42.13074619911348" lon="11.973081553708473"><ele>177.0</ele><time>2026-04-19T11:17:44.002Z</time></trkpt><trkpt lat="42.13081225792623" lon="11.973100963080002"><ele>177.0</ele><time>2026-04-19T11:17:45.002Z</time></trkpt><trkpt lat="42.13088870315365" lon="11.973136772165974"><ele>175.0</ele><time>2026-04-19T11:17:46.002Z</time></trkpt><trkpt lat="42.13096224736492" lon="11.973160644908718"><ele>173.0</ele><time>2026-04-19T11:17:47.002Z</time></trkpt><trkpt lat="42.1311131975697" lon="11.9731778241474"><ele>171.0</ele><time>2026-04-19T11:17:49.002Z</time></trkpt><trkpt lat="42.13120362337416" lon="11.97320656453419"><ele>169.0</ele><time>2026-04-19T11:17:50.002Z</time></trkpt><trkpt lat="42.13129299332013" lon="11.97323103219388"><ele>167.0</ele><time>2026-04-19T11:17:51.002Z</time></trkpt><trkpt lat="42.131400230413846" lon="11.97326631109295"><ele>167.0</ele><time>2026-04-19T11:17:52.002Z</time></trkpt><trkpt lat="42.13150788727348" lon="11.973302614520533"><ele>167.0</ele><time>2026-04-19T11:17:52.998Z</time></trkpt><trkpt lat="42.131596803242225" lon="11.97332460750215"><ele>167.0</ele><time>2026-04-19T11:17:53.998Z</time></trkpt><trkpt lat="42.13169161511091" lon="11.973363385287806"><ele>167.0</ele><time>2026-04-19T11:17:54.998Z</time></trkpt><trkpt lat="42.131792490419684" lon="11.973401526422546"><ele>167.0</ele><time>2026-04-19T11:17:55.998Z</time></trkpt><trkpt lat="42.13189587053874" lon="11.973437374126506"><ele>165.66666666666666</ele><time>2026-04-19T11:17:56.998Z</time></trkpt><trkpt lat="42.13197619351244" lon="11.973454135652823"><ele>164.33333333333331</ele><time>2026-04-19T11:17:57.998Z</time></trkpt><trkpt lat="42.13204737399858" lon="11.973472347347096"><ele>163.0</ele><time>2026-04-19T11:17:58.998Z</time></trkpt><trkpt lat="42.13216155712418" lon="11.973496284399342"><ele>161.66666666666666</ele><time>2026-04-19T11:18:00.998Z</time></trkpt><trkpt lat="42.13224535000654" lon="11.973487650171187"><ele>160.33333333333334</ele><time>2026-04-19T11:18:02.998Z</time></trkpt><trkpt lat="42.13229822361993" lon="11.973400070670394"><ele>159.0</ele><time>2026-04-19T11:18:04.998Z</time></trkpt><trkpt lat="42.13237759706899" lon="11.973238121884366"><ele>157.6</ele><time>2026-04-19T11:18:06.998Z</time></trkpt><trkpt lat="42.132439549372016" lon="11.973137867871767"><ele>156.2</ele><time>2026-04-19T11:18:07.998Z</time></trkpt><trkpt lat="42.132508931057345" lon="11.973029048872814"><ele>154.79999999999998</ele><time>2026-04-19T11:18:08.999Z</time></trkpt><trkpt lat="42.13259538533296" lon="11.972915862507488"><ele>153.4</ele><time>2026-04-19T11:18:09.999Z</time></trkpt><trkpt lat="42.13267054483599" lon="11.9728207785981"><ele>152.0</ele><time>2026-04-19T11:18:10.999Z</time></trkpt><trkpt lat="42.13274326144189" lon="11.972735906015908"><ele>152.0</ele><time>2026-04-19T11:18:11.999Z</time></trkpt><trkpt lat="42.132815258441944" lon="11.972641874362642"><ele>152.0</ele><time>2026-04-19T11:18:12.999Z</time></trkpt><trkpt lat="42.132882619335774" lon="11.972528354019612"><ele>152.0</ele><time>2026-04-19T11:18:13.999Z</time></trkpt><trkpt lat="42.13295663645368" lon="11.972415216476131"><ele>152.0</ele><time>2026-04-19T11:18:14.999Z</time></trkpt><trkpt lat="42.13302988153468" lon="11.972303796921288"><ele>152.0</ele><time>2026-04-19T11:18:15.999Z</time></trkpt><trkpt lat="42.13310511702523" lon="11.972197957382507"><ele>152.0</ele><time>2026-04-19T11:18:16.999Z</time></trkpt><trkpt lat="42.13316628201422" lon="11.972101715423507"><ele>152.0</ele><time>2026-04-19T11:18:17.999Z</time></trkpt><trkpt lat="42.13322311521982" lon="11.972015810951673"><ele>152.0</ele><time>2026-04-19T11:18:18.999Z</time></trkpt><trkpt lat="42.13326530221028" lon="11.971946993931033"><ele>152.0</ele><time>2026-04-19T11:18:19.999Z</time></trkpt><trkpt lat="42.1333300173033" lon="11.97192223132104"><ele>152.0</ele><time>2026-04-19T11:18:20.999Z</time></trkpt><trkpt lat="42.13337353151478" lon="11.971816541140303"><ele>152.0</ele><time>2026-04-19T11:18:22.999Z</time></trkpt><trkpt lat="42.13336981512474" lon="11.97172492551382"><ele>151.2</ele><time>2026-04-19T11:18:23.999Z</time></trkpt><trkpt lat="42.13331436542611" lon="11.971646140536134"><ele>150.39999999999998</ele><time>2026-04-19T11:18:25Z</time></trkpt><trkpt lat="42.133298014392295" lon="11.971517601506287"><ele>149.60000000000002</ele><time>2026-04-19T11:18:26Z</time></trkpt><trkpt lat="42.133292711860044" lon="11.971403685684956"><ele>148.8</ele><time>2026-04-19T11:18:27Z</time></trkpt><trkpt lat="42.133327840853156" lon="11.971271872639122"><ele>148.0</ele><time>2026-04-19T11:18:29Z</time></trkpt><trkpt lat="42.13340108263468" lon="11.971188938083976"><ele>148.0</ele><time>2026-04-19T11:18:31Z</time></trkpt><trkpt lat="42.13344039724721" lon="11.971088497973648"><ele>148.0</ele><time>2026-04-19T11:18:33Z</time></trkpt><trkpt lat="42.133460262921105" lon="11.97099660780086"><ele>148.0</ele><time>2026-04-19T11:18:34Z</time></trkpt><trkpt lat="42.13348906443492" lon="11.97090132762055"><ele>148.0</ele><time>2026-04-19T11:18:35Z</time></trkpt><trkpt lat="42.13353021491051" lon="11.97082659750621"><ele>148.0</ele><time>2026-04-19T11:18:36Z</time></trkpt><trkpt lat="42.13359347356981" lon="11.970761230236814"><ele>148.0</ele><time>2026-04-19T11:18:37Z</time></trkpt><trkpt lat="42.13365792851594" lon="11.970692658922719"><ele>148.4</ele><time>2026-04-19T11:18:38Z</time></trkpt><trkpt lat="42.133735414117254" lon="11.970602729491368"><ele>148.8</ele><time>2026-04-19T11:18:39Z</time></trkpt><trkpt lat="42.133809713518936" lon="11.970510426479743"><ele>149.2</ele><time>2026-04-19T11:18:40Z</time></trkpt><trkpt lat="42.13388434313933" lon="11.970426551762472"><ele>149.6</ele><time>2026-04-19T11:18:41Z</time></trkpt><trkpt lat="42.13396034937272" lon="11.970345760027934"><ele>150.0</ele><time>2026-04-19T11:18:42Z</time></trkpt><trkpt lat="42.13403865313454" lon="11.970256307076836"><ele>150.83333333333334</ele><time>2026-04-19T11:18:43Z</time></trkpt><trkpt lat="42.134119048267" lon="11.970163906481991"><ele>151.66666666666666</ele><time>2026-04-19T11:18:44Z</time></trkpt><trkpt lat="42.13417225481577" lon="11.970085408707492"><ele>152.5</ele><time>2026-04-19T11:18:45Z</time></trkpt><trkpt lat="42.13421439256593" lon="11.970002840037715"><ele>153.33333333333331</ele><time>2026-04-19T11:18:46Z</time></trkpt><trkpt lat="42.134243936711954" lon="11.969891925763813"><ele>154.16666666666666</ele><time>2026-04-19T11:18:47Z</time></trkpt><trkpt lat="42.134268069531444" lon="11.969785811004337"><ele>155.0</ele><time>2026-04-19T11:18:48Z</time></trkpt><trkpt lat="42.13430336764512" lon="11.969668143998653"><ele>155.66666666666666</ele><time>2026-04-19T11:18:49Z</time></trkpt><trkpt lat="42.13433643485091" lon="11.969543720199779"><ele>156.33333333333331</ele><time>2026-04-19T11:18:50.001Z</time></trkpt><trkpt lat="42.13436921853365" lon="11.969434830195642"><ele>157.0</ele><time>2026-04-19T11:18:51.001Z</time></trkpt><trkpt lat="42.13440460135438" lon="11.96933539281646"><ele>157.66666666666666</ele><time>2026-04-19T11:18:52.001Z</time></trkpt><trkpt lat="42.1344584725003" lon="11.969259231120157"><ele>158.33333333333334</ele><time>2026-04-19T11:18:53.001Z</time></trkpt><trkpt lat="42.13448039707037" lon="11.969166824263631"><ele>159.0</ele><time>2026-04-19T11:18:54.001Z</time></trkpt><trkpt lat="42.13451378347939" lon="11.969092576556466"><ele>160.0</ele><time>2026-04-19T11:18:55.001Z</time></trkpt><trkpt lat="42.13460235031344" lon="11.96902516871238"><ele>161.0</ele><time>2026-04-19T11:18:57.001Z</time></trkpt><trkpt lat="42.134710633339665" lon="11.96900336740807"><ele>162.0</ele><time>2026-04-19T11:18:59.001Z</time></trkpt><trkpt lat="42.134844124137594" lon="11.96900465866025"><ele>163.0</ele><time>2026-04-19T11:19:01.001Z</time></trkpt><trkpt lat="42.13491226870455" lon="11.96902499588383"><ele>164.0</ele><time>2026-04-19T11:19:02.001Z</time></trkpt><trkpt lat="42.13498266654363" lon="11.969049361832242"><ele>165.33333333333331</ele><time>2026-04-19T11:19:03.001Z</time></trkpt><trkpt lat="42.135051613698224" lon="11.96909282571614"><ele>166.66666666666666</ele><time>2026-04-19T11:19:04.001Z</time></trkpt><trkpt lat="42.135108937470186" lon="11.96915845131456"><ele>168.0</ele><time>2026-04-19T11:19:05.001Z</time></trkpt><trkpt lat="42.135186658113454" lon="11.969226168341569"><ele>169.33333333333334</ele><time>2026-04-19T11:19:06.001Z</time></trkpt><trkpt lat="42.13525469122728" lon="11.969287469983204"><ele>170.66666666666669</ele><time>2026-04-19T11:19:07.001Z</time></trkpt><trkpt lat="42.1353147509203" lon="11.969338433837773"><ele>172.0</ele><time>2026-04-19T11:19:08.001Z</time></trkpt><trkpt lat="42.13538580441275" lon="11.969428829098959"><ele>172.0</ele><time>2026-04-19T11:19:10.001Z</time></trkpt><trkpt lat="42.13545786563341" lon="11.969414261169298"><ele>172.0</ele><time>2026-04-19T11:19:12.001Z</time></trkpt><trkpt lat="42.13550763731362" lon="11.96929635189269"><ele>172.0</ele><time>2026-04-19T11:19:14.001Z</time></trkpt><trkpt lat="42.13553121286945" lon="11.969117456733388"><ele>172.0</ele><time>2026-04-19T11:19:16.001Z</time></trkpt><trkpt lat="42.13555006931932" lon="11.969002408280978"><ele>172.0</ele><time>2026-04-19T11:19:17.001Z</time></trkpt><trkpt lat="42.135573897565564" lon="11.968889341861015"><ele>173.2</ele><time>2026-04-19T11:19:18.001Z</time></trkpt><trkpt lat="42.135602354839435" lon="11.96877463194944"><ele>174.39999999999998</ele><time>2026-04-19T11:19:19.001Z</time></trkpt><trkpt lat="42.1356281545382" lon="11.968663938291682"><ele>175.60000000000002</ele><time>2026-04-19T11:19:20.001Z</time></trkpt><trkpt lat="42.135653760853884" lon="11.968538202400108"><ele>176.8</ele><time>2026-04-19T11:19:21.001Z</time></trkpt><trkpt lat="42.13567377061142" lon="11.968406581171276"><ele>178.0</ele><time>2026-04-19T11:19:22.002Z</time></trkpt><trkpt lat="42.13569000796598" lon="11.968277613236124"><ele>179.33333333333334</ele><time>2026-04-19T11:19:23.002Z</time></trkpt><trkpt lat="42.13569714066054" lon="11.96815746691534"><ele>180.66666666666669</ele><time>2026-04-19T11:19:24.002Z</time></trkpt><trkpt lat="42.135693981652416" lon="11.968031270102077"><ele>182.0</ele><time>2026-04-19T11:19:25.002Z</time></trkpt><trkpt lat="42.13568994275943" lon="11.96791054579467"><ele>183.33333333333334</ele><time>2026-04-19T11:19:26.002Z</time></trkpt><trkpt lat="42.13568490246772" lon="11.967807500854274"><ele>184.66666666666666</ele><time>2026-04-19T11:19:27.002Z</time></trkpt><trkpt lat="42.135702380338394" lon="11.967708415190321"><ele>186.0</ele><time>2026-04-19T11:19:28.002Z</time></trkpt><trkpt lat="42.13573202809656" lon="11.967629904638052"><ele>189.0</ele><time>2026-04-19T11:19:29.002Z</time></trkpt><trkpt lat="42.13578957193124" lon="11.967540162445164"><ele>192.0</ele><time>2026-04-19T11:19:31.002Z</time></trkpt><trkpt lat="42.13587580556182" lon="11.96750485215939"><ele>195.0</ele><time>2026-04-19T11:19:33.002Z</time></trkpt><trkpt lat="42.135983315098485" lon="11.967468247090185"><ele>198.0</ele><time>2026-04-19T11:19:35.002Z</time></trkpt><trkpt lat="42.136047811444286" lon="11.967418252037467"><ele>201.0</ele><time>2026-04-19T11:19:36.002Z</time></trkpt><trkpt lat="42.13611589479624" lon="11.967370562320026"><ele>204.0</ele><time>2026-04-19T11:19:37.002Z</time></trkpt><trkpt lat="42.136190055848765" lon="11.96732912159533"><ele>204.5</ele><time>2026-04-19T11:19:38.002Z</time></trkpt><trkpt lat="42.136264039218766" lon="11.96729681128206"><ele>205.0</ele><time>2026-04-19T11:19:39.002Z</time></trkpt><trkpt lat="42.13635720973772" lon="11.967257131490214"><ele>205.5</ele><time>2026-04-19T11:19:40.002Z</time></trkpt><trkpt lat="42.13644415586315" lon="11.967210827442555"><ele>206.0</ele><time>2026-04-19T11:19:41.002Z</time></trkpt><trkpt lat="42.13652862066256" lon="11.967189258051533"><ele>206.5</ele><time>2026-04-19T11:19:42.002Z</time></trkpt><trkpt lat="42.13661373426785" lon="11.967174616196697"><ele>207.0</ele><time>2026-04-19T11:19:43.002Z</time></trkpt><trkpt lat="42.136691013073744" lon="11.967151587265375"><ele>209.0</ele><time>2026-04-19T11:19:44.002Z</time></trkpt><trkpt lat="42.136770870073185" lon="11.967118080411314"><ele>211.0</ele><time>2026-04-19T11:19:45.002Z</time></trkpt><trkpt lat="42.13684934143532" lon="11.967086329911131"><ele>213.0</ele><time>2026-04-19T11:19:46.002Z</time></trkpt><trkpt lat="42.13694022032275" lon="11.967060234905963"><ele>215.0</ele><time>2026-04-19T11:19:47.002Z</time></trkpt><trkpt lat="42.13705442246375" lon="11.967044606150914"><ele>217.0</ele><time>2026-04-19T11:19:48.002Z</time></trkpt><trkpt lat="42.13718005905326" lon="11.967036543440033"><ele>217.0</ele><time>2026-04-19T11:19:49.002Z</time></trkpt><trkpt lat="42.13729746965596" lon="11.967000821303735"><ele>217.0</ele><time>2026-04-19T11:19:50.002Z</time></trkpt><trkpt lat="42.13740680717066" lon="11.966967195528019"><ele>217.0</ele><time>2026-04-19T11:19:51.002Z</time></trkpt><trkpt lat="42.13752246415976" lon="11.966932748666858"><ele>217.0</ele><time>2026-04-19T11:19:52.002Z</time></trkpt><trkpt lat="42.137631728639505" lon="11.966893627338212"><ele>218.39999999999998</ele><time>2026-04-19T11:19:53.002Z</time></trkpt><trkpt lat="42.137740071182414" lon="11.966837630916995"><ele>219.79999999999998</ele><time>2026-04-19T11:19:54.002Z</time></trkpt><trkpt lat="42.13783426417212" lon="11.966781545634364"><ele>221.2</ele><time>2026-04-19T11:19:55.003Z</time></trkpt><trkpt lat="42.13792941224623" lon="11.966803236050353"><ele>222.6</ele><time>2026-04-19T11:19:56.003Z</time></trkpt><trkpt lat="42.13802721050681" lon="11.966781740838961"><ele>224.0</ele><time>2026-04-19T11:19:57.003Z</time></trkpt><trkpt lat="42.138114246997276" lon="11.966764431213196"><ele>224.00000000000003</ele><time>2026-04-19T11:19:58.003Z</time></trkpt><trkpt lat="42.13820162074083" lon="11.966738785429971"><ele>224.0</ele><time>2026-04-19T11:19:58.998Z</time></trkpt><trkpt lat="42.13826862883114" lon="11.96672842465641"><ele>224.0</ele><time>2026-04-19T11:19:59.998Z</time></trkpt><trkpt lat="42.13835086723049" lon="11.966731345480785"><ele>224.0</ele><time>2026-04-19T11:20:00.998Z</time></trkpt><trkpt lat="42.1384375248594" lon="11.96670029438225"><ele>224.00000000000003</ele><time>2026-04-19T11:20:01.998Z</time></trkpt><trkpt lat="42.138506552353206" lon="11.966643169850439"><ele>224.0</ele><time>2026-04-19T11:20:02.998Z</time></trkpt><trkpt lat="42.138559909163114" lon="11.96655016879457"><ele>221.66666666666669</ele><time>2026-04-19T11:20:03.998Z</time></trkpt><trkpt lat="42.138612196423125" lon="11.966478834991886"><ele>219.33333333333334</ele><time>2026-04-19T11:20:04.999Z</time></trkpt><trkpt lat="42.13866711099384" lon="11.966396648229114"><ele>217.0</ele><time>2026-04-19T11:20:05.999Z</time></trkpt><trkpt lat="42.138720681547824" lon="11.966314311601462"><ele>214.66666666666669</ele><time>2026-04-19T11:20:06.999Z</time></trkpt><trkpt lat="42.13878044930087" lon="11.966222450042675"><ele>212.33333333333334</ele><time>2026-04-19T11:20:07.999Z</time></trkpt><trkpt lat="42.13884188636778" lon="11.966121412911411"><ele>210.0</ele><time>2026-04-19T11:20:08.999Z</time></trkpt><trkpt lat="42.138887765132125" lon="11.966004077853169"><ele>210.0</ele><time>2026-04-19T11:20:09.999Z</time></trkpt><trkpt lat="42.13895112875165" lon="11.96590503588036"><ele>210.0</ele><time>2026-04-19T11:20:10.999Z</time></trkpt><trkpt lat="42.13899928435118" lon="11.965784431985334"><ele>210.0</ele><time>2026-04-19T11:20:11.999Z</time></trkpt><trkpt lat="42.13904352514415" lon="11.965672939536047"><ele>210.0</ele><time>2026-04-19T11:20:12.999Z</time></trkpt><trkpt lat="42.13907985887857" lon="11.965581373896384"><ele>210.0</ele><time>2026-04-19T11:20:13.999Z</time></trkpt><trkpt lat="42.139099401121925" lon="11.965485061208243"><ele>210.0</ele><time>2026-04-19T11:20:14.999Z</time></trkpt><trkpt lat="42.139154255099314" lon="11.965421502713639"><ele>211.16666666666666</ele><time>2026-04-19T11:20:15.999Z</time></trkpt><trkpt lat="42.139233202403545" lon="11.96538554212681"><ele>212.33333333333331</ele><time>2026-04-19T11:20:17Z</time></trkpt><trkpt lat="42.13931474717131" lon="11.965354219357424"><ele>213.5</ele><time>2026-04-19T11:20:18Z</time></trkpt><trkpt lat="42.139389879470386" lon="11.965324196793855"><ele>214.66666666666666</ele><time>2026-04-19T11:20:19Z</time></trkpt><trkpt lat="42.13947362734242" lon="11.965283679144209"><ele>215.83333333333331</ele><time>2026-04-19T11:20:20Z</time></trkpt><trkpt lat="42.139558632799634" lon="11.965229315498407"><ele>217.0</ele><time>2026-04-19T11:20:21Z</time></trkpt><trkpt lat="42.13963452519178" lon="11.965182502661483"><ele>216.99999999999997</ele><time>2026-04-19T11:20:22Z</time></trkpt><trkpt lat="42.139706408204724" lon="11.965128119926273"><ele>217.0</ele><time>2026-04-19T11:20:23Z</time></trkpt><trkpt lat="42.139780008728316" lon="11.965091418533362"><ele>217.0</ele><time>2026-04-19T11:20:24Z</time></trkpt><trkpt lat="42.13986228415689" lon="11.965045351020779"><ele>217.0</ele><time>2026-04-19T11:20:25Z</time></trkpt><trkpt lat="42.13993302686274" lon="11.965004216856826"><ele>216.99999999999997</ele><time>2026-04-19T11:20:26Z</time></trkpt><trkpt lat="42.139996177477656" lon="11.964945299425787"><ele>217.0</ele><time>2026-04-19T11:20:27Z</time></trkpt><trkpt lat="42.14004948881726" lon="11.964857064859016"><ele>216.39999999999998</ele><time>2026-04-19T11:20:28Z</time></trkpt><trkpt lat="42.14011728510804" lon="11.964762812529578"><ele>215.79999999999998</ele><time>2026-04-19T11:20:29Z</time></trkpt><trkpt lat="42.14017655914983" lon="11.964679721973189"><ele>215.2</ele><time>2026-04-19T11:20:30Z</time></trkpt><trkpt lat="42.14024594098858" lon="11.964631471553407"><ele>214.6</ele><time>2026-04-19T11:20:31Z</time></trkpt><trkpt lat="42.14033812540136" lon="11.964586293413245"><ele>214.0</ele><time>2026-04-19T11:20:32Z</time></trkpt><trkpt lat="42.14043534687658" lon="11.964542432587837"><ele>214.0</ele><time>2026-04-19T11:20:33.001Z</time></trkpt><trkpt lat="42.14053131432989" lon="11.964478407209189"><ele>213.99999999999997</ele><time>2026-04-19T11:20:34.001Z</time></trkpt><trkpt lat="42.14060930060047" lon="11.964398345918399"><ele>213.99999999999997</ele><time>2026-04-19T11:20:35.001Z</time></trkpt><trkpt lat="42.140669980002805" lon="11.964315466430104"><ele>214.0</ele><time>2026-04-19T11:20:36.001Z</time></trkpt><trkpt lat="42.14072868047386" lon="11.964261949800424"><ele>214.0</ele><time>2026-04-19T11:20:37.001Z</time></trkpt><trkpt lat="42.14080757196104" lon="11.964210160294419"><ele>212.99999999999997</ele><time>2026-04-19T11:20:38.001Z</time></trkpt><trkpt lat="42.1408813508889" lon="11.964188523628176"><ele>212.0</ele><time>2026-04-19T11:20:39.001Z</time></trkpt><trkpt lat="42.1409549156747" lon="11.964160090149285"><ele>211.0</ele><time>2026-04-19T11:20:40.001Z</time></trkpt><trkpt lat="42.141030193538384" lon="11.964135159795747"><ele>210.0</ele><time>2026-04-19T11:20:41.001Z</time></trkpt><trkpt lat="42.14110784455416" lon="11.964100545829869"><ele>208.99999999999997</ele><time>2026-04-19T11:20:42.001Z</time></trkpt><trkpt lat="42.14118552958474" lon="11.964054110193668"><ele>208.0</ele><time>2026-04-19T11:20:43.001Z</time></trkpt><trkpt lat="42.14125907360393" lon="11.963997930082206"><ele>207.99999999999997</ele><time>2026-04-19T11:20:44.001Z</time></trkpt><trkpt lat="42.14134154560929" lon="11.963908967189717"><ele>208.0</ele><time>2026-04-19T11:20:45.001Z</time></trkpt><trkpt lat="42.14141997866724" lon="11.96381778051501"><ele>208.0</ele><time>2026-04-19T11:20:46.001Z</time></trkpt><trkpt lat="42.1414912055635" lon="11.963744357497015"><ele>208.0</ele><time>2026-04-19T11:20:47.001Z</time></trkpt><trkpt lat="42.14155681881226" lon="11.963677524492452"><ele>207.99999999999997</ele><time>2026-04-19T11:20:48.001Z</time></trkpt><trkpt lat="42.141610158483466" lon="11.963620115421433"><ele>208.0</ele><time>2026-04-19T11:20:49.001Z</time></trkpt><trkpt lat="42.14166229301595" lon="11.963524442750668"><ele>208.33333333333331</ele><time>2026-04-19T11:20:51.001Z</time></trkpt><trkpt lat="42.14164279466949" lon="11.96337945135003"><ele>208.66666666666666</ele><time>2026-04-19T11:20:53.001Z</time></trkpt><trkpt lat="42.14162196168244" lon="11.963294390181106"><ele>209.0</ele><time>2026-04-19T11:20:54.001Z</time></trkpt><trkpt lat="42.141595676580536" lon="11.963194220681219"><ele>209.33333333333331</ele><time>2026-04-19T11:20:55.001Z</time></trkpt><trkpt lat="42.14157127230275" lon="11.96310368756275"><ele>209.66666666666666</ele><time>2026-04-19T11:20:56.001Z</time></trkpt><trkpt lat="42.14154314949813" lon="11.963000900253087"><ele>210.0</ele><time>2026-04-19T11:20:57.001Z</time></trkpt><trkpt lat="42.14152626070022" lon="11.96291028200815"><ele>208.0</ele><time>2026-04-19T11:20:58.002Z</time></trkpt><trkpt lat="42.141504173239625" lon="11.962827615456305"><ele>206.0</ele><time>2026-04-19T11:20:59.002Z</time></trkpt><trkpt lat="42.14141464446174" lon="11.962662349572776"><ele>204.0</ele><time>2026-04-19T11:21:01.002Z</time></trkpt><trkpt lat="42.14135821187319" lon="11.962558369848075"><ele>202.0</ele><time>2026-04-19T11:21:02.002Z</time></trkpt><trkpt lat="42.14129997225194" lon="11.962454732148313"><ele>200.0</ele><time>2026-04-19T11:21:03.002Z</time></trkpt><trkpt lat="42.14124832686351" lon="11.962355875701583"><ele>200.00000000000003</ele><time>2026-04-19T11:21:04.002Z</time></trkpt><trkpt lat="42.14119737891331" lon="11.962258787921726"><ele>200.0</ele><time>2026-04-19T11:21:05.002Z</time></trkpt><trkpt lat="42.14115793339355" lon="11.96217991800407"><ele>200.0</ele><time>2026-04-19T11:21:06.002Z</time></trkpt><trkpt lat="42.141101943780356" lon="11.962085363471505"><ele>200.0</ele><time>2026-04-19T11:21:07.002Z</time></trkpt><trkpt lat="42.14105495625486" lon="11.961997698847851"><ele>200.00000000000003</ele><time>2026-04-19T11:21:08.002Z</time></trkpt><trkpt lat="42.1409884479958" lon="11.961864483228487"><ele>200.0</ele><time>2026-04-19T11:21:10.002Z</time></trkpt><trkpt lat="42.14094765300008" lon="11.961766465669553"><ele>201.16666666666669</ele><time>2026-04-19T11:21:11.002Z</time></trkpt><trkpt lat="42.14090239825966" lon="11.961678235979736"><ele>202.33333333333334</ele><time>2026-04-19T11:21:12.002Z</time></trkpt><trkpt lat="42.14088072774568" lon="11.961592932753478"><ele>203.5</ele><time>2026-04-19T11:21:13.002Z</time></trkpt><trkpt lat="42.140866192612826" lon="11.961491336678826"><ele>204.66666666666669</ele><time>2026-04-19T11:21:14.002Z</time></trkpt><trkpt lat="42.140862758473645" lon="11.961372481235127"><ele>205.83333333333334</ele><time>2026-04-19T11:21:15.002Z</time></trkpt><trkpt lat="42.14085015447784" lon="11.961235147919131"><ele>207.0</ele><time>2026-04-19T11:21:16.002Z</time></trkpt><trkpt lat="42.140839058733604" lon="11.961099152094677"><ele>207.0</ele><time>2026-04-19T11:21:17.002Z</time></trkpt><trkpt lat="42.140823598182024" lon="11.960967457659693"><ele>207.0</ele><time>2026-04-19T11:21:18.002Z</time></trkpt><trkpt lat="42.14081638954446" lon="11.960850886526739"><ele>207.0</ele><time>2026-04-19T11:21:19.002Z</time></trkpt><trkpt lat="42.14080333593977" lon="11.96072984312153"><ele>207.0</ele><time>2026-04-19T11:21:20.002Z</time></trkpt><trkpt lat="42.140794647494886" lon="11.960630660490445"><ele>207.0</ele><time>2026-04-19T11:21:21.002Z</time></trkpt><trkpt lat="42.14077679837045" lon="11.960547599678014"><ele>207.0</ele><time>2026-04-19T11:21:22.002Z</time></trkpt><trkpt lat="42.140734906379" lon="11.960390914979872"><ele>206.39999999999998</ele><time>2026-04-19T11:21:24.002Z</time></trkpt><trkpt lat="42.140710273506386" lon="11.960279020709333"><ele>205.79999999999998</ele><time>2026-04-19T11:21:25.002Z</time></trkpt><trkpt lat="42.140690005917946" lon="11.960155574836783"><ele>205.2</ele><time>2026-04-19T11:21:26.002Z</time></trkpt><trkpt lat="42.140670125187285" lon="11.960029375443897"><ele>204.6</ele><time>2026-04-19T11:21:27.002Z</time></trkpt><trkpt lat="42.1406509084963" lon="11.959905855714338"><ele>204.0</ele><time>2026-04-19T11:21:28.002Z</time></trkpt><trkpt lat="42.14063239024519" lon="11.959792564218377"><ele>205.5</ele><time>2026-04-19T11:21:29.002Z</time></trkpt><trkpt lat="42.140614690596124" lon="11.959683996343378"><ele>207.0</ele><time>2026-04-19T11:21:30.003Z</time></trkpt><trkpt lat="42.140602204101015" lon="11.959564312444115"><ele>208.5</ele><time>2026-04-19T11:21:31.003Z</time></trkpt><trkpt lat="42.14058574224089" lon="11.959432022201312"><ele>210.0</ele><time>2026-04-19T11:21:32.003Z</time></trkpt><trkpt lat="42.14057176006609" lon="11.959317705346027"><ele>211.5</ele><time>2026-04-19T11:21:33.003Z</time></trkpt><trkpt lat="42.140566236040975" lon="11.95922592580454"><ele>213.0</ele><time>2026-04-19T11:21:34.003Z</time></trkpt><trkpt lat="42.140564023196404" lon="11.959135606322196"><ele>214.8</ele><time>2026-04-19T11:21:35.003Z</time></trkpt><trkpt lat="42.140540225883946" lon="11.959033916387341"><ele>216.60000000000002</ele><time>2026-04-19T11:21:37.003Z</time></trkpt><trkpt lat="42.140528975009246" lon="11.958892217835853"><ele>218.39999999999998</ele><time>2026-04-19T11:21:39.003Z</time></trkpt><trkpt lat="42.14052520446971" lon="11.958780474264428"><ele>220.2</ele><time>2026-04-19T11:21:40.003Z</time></trkpt><trkpt lat="42.14050998171004" lon="11.958660706704723"><ele>222.0</ele><time>2026-04-19T11:21:41.003Z</time></trkpt><trkpt lat="42.14049647793582" lon="11.958524551740346"><ele>222.0</ele><time>2026-04-19T11:21:42.003Z</time></trkpt><trkpt lat="42.14046906608605" lon="11.958380580855346"><ele>222.0</ele><time>2026-04-19T11:21:43.003Z</time></trkpt><trkpt lat="42.14045353388423" lon="11.958233222917041"><ele>222.0</ele><time>2026-04-19T11:21:44.003Z</time></trkpt><trkpt lat="42.14043579179222" lon="11.958101764893978"><ele>222.0</ele><time>2026-04-19T11:21:45.003Z</time></trkpt><trkpt lat="42.14041469634395" lon="11.957989284497623"><ele>222.0</ele><time>2026-04-19T11:21:46.003Z</time></trkpt><trkpt lat="42.1404061213465" lon="11.957886246468622"><ele>222.8</ele><time>2026-04-19T11:21:48.003Z</time></trkpt><trkpt lat="42.14046333401112" lon="11.957803233724329"><ele>223.6</ele><time>2026-04-19T11:21:50.003Z</time></trkpt><trkpt lat="42.14057807521753" lon="11.957735112830122"><ele>224.40000000000003</ele><time>2026-04-19T11:21:52.003Z</time></trkpt><trkpt lat="42.14065804116837" lon="11.957687374310536"><ele>225.20000000000002</ele><time>2026-04-19T11:21:53.003Z</time></trkpt><trkpt lat="42.14075006221499" lon="11.957634946967374"><ele>226.0</ele><time>2026-04-19T11:21:54.003Z</time></trkpt><trkpt lat="42.14084457522582" lon="11.957589397539108"><ele>227.25</ele><time>2026-04-19T11:21:55.003Z</time></trkpt><trkpt lat="42.14094777456153" lon="11.95753887923752"><ele>228.5</ele><time>2026-04-19T11:21:56.003Z</time></trkpt><trkpt lat="42.141058032889674" lon="11.957488767409775"><ele>229.75</ele><time>2026-04-19T11:21:57.003Z</time></trkpt><trkpt lat="42.141170468140466" lon="11.957443665867682"><ele>231.0</ele><time>2026-04-19T11:21:58.003Z</time></trkpt><trkpt lat="42.141282796732135" lon="11.957406320884223"><ele>232.0</ele><time>2026-04-19T11:21:59.003Z</time></trkpt><trkpt lat="42.14138242428197" lon="11.957367089188553"><ele>233.00000000000003</ele><time>2026-04-19T11:22:00.003Z</time></trkpt><trkpt lat="42.14146467705719" lon="11.957336706791068"><ele>234.00000000000003</ele><time>2026-04-19T11:22:01.003Z</time></trkpt><trkpt lat="42.1415314093464" lon="11.957307531557817"><ele>235.0</ele><time>2026-04-19T11:22:02.003Z</time></trkpt><trkpt lat="42.14160815711012" lon="11.957306580482154"><ele>236.0</ele><time>2026-04-19T11:22:04.004Z</time></trkpt><trkpt lat="42.141703898199005" lon="11.957445287092211"><ele>238.0</ele><time>2026-04-19T11:22:05.999Z</time></trkpt><trkpt lat="42.141757160916534" lon="11.957537743685515"><ele>240.00000000000003</ele><time>2026-04-19T11:22:06.999Z</time></trkpt><trkpt lat="42.14180507596473" lon="11.9576421405876"><ele>242.00000000000003</ele><time>2026-04-19T11:22:07.999Z</time></trkpt><trkpt lat="42.141840565879136" lon="11.957731447475775"><ele>244.0</ele><time>2026-04-19T11:22:08.999Z</time></trkpt><trkpt lat="42.14192432967714" lon="11.95778641197145"><ele>246.0</ele><time>2026-04-19T11:22:10.999Z</time></trkpt><trkpt lat="42.14201141563923" lon="11.957690698489621"><ele>246.0</ele><time>2026-04-19T11:22:12.999Z</time></trkpt><trkpt lat="42.14206215327243" lon="11.957595792365707"><ele>246.00000000000003</ele><time>2026-04-19T11:22:13.999Z</time></trkpt><trkpt lat="42.142124275615835" lon="11.957510883838426"><ele>246.00000000000003</ele><time>2026-04-19T11:22:14.999Z</time></trkpt><trkpt lat="42.142198228722016" lon="11.957439259494862"><ele>246.0</ele><time>2026-04-19T11:22:15.999Z</time></trkpt><trkpt lat="42.14227485469412" lon="11.9573691519708"><ele>246.0</ele><time>2026-04-19T11:22:16.999Z</time></trkpt><trkpt lat="42.14237069890126" lon="11.957313875737833"><ele>250.0</ele><time>2026-04-19T11:22:17.999Z</time></trkpt><trkpt lat="42.14246820366113" lon="11.957268149339157"><ele>254.00000000000003</ele><time>2026-04-19T11:22:19Z</time></trkpt><trkpt lat="42.142570241900295" lon="11.957212873184396"><ele>258.0</ele><time>2026-04-19T11:22:20Z</time></trkpt><trkpt lat="42.14265986756047" lon="11.957150958706395"><ele>262.0</ele><time>2026-04-19T11:22:21Z</time></trkpt><trkpt lat="42.14275916544602" lon="11.957088678778314"><ele>266.0</ele><time>2026-04-19T11:22:22Z</time></trkpt><trkpt lat="42.142862112975905" lon="11.957032151346647"><ele>266.0</ele><time>2026-04-19T11:22:23Z</time></trkpt><trkpt lat="42.14295166449252" lon="11.95698582082643"><ele>266.0</ele><time>2026-04-19T11:22:24Z</time></trkpt><trkpt lat="42.14303521407239" lon="11.956926065310004"><ele>266.0</ele><time>2026-04-19T11:22:25Z</time></trkpt><trkpt lat="42.143114319785546" lon="11.956868762431814"><ele>266.0</ele><time>2026-04-19T11:22:26Z</time></trkpt><trkpt lat="42.14320066838565" lon="11.956806442884103"><ele>266.0</ele><time>2026-04-19T11:22:27Z</time></trkpt><trkpt lat="42.14330462282421" lon="11.95672181950726"><ele>266.75</ele><time>2026-04-19T11:22:28Z</time></trkpt><trkpt lat="42.1434078150055" lon="11.95663385807312"><ele>267.5</ele><time>2026-04-19T11:22:29Z</time></trkpt><trkpt lat="42.14352355437375" lon="11.95655175093289"><ele>268.25</ele><time>2026-04-19T11:22:30Z</time></trkpt><trkpt lat="42.14363541171386" lon="11.956471817366195"><ele>269.0</ele><time>2026-04-19T11:22:31Z</time></trkpt><trkpt lat="42.14372896567897" lon="11.95637540036575"><ele>269.0</ele><time>2026-04-19T11:22:32Z</time></trkpt><trkpt lat="42.143835136339526" lon="11.95631429944875"><ele>269.0</ele><time>2026-04-19T11:22:33Z</time></trkpt><trkpt lat="42.143936238889154" lon="11.956242582439689"><ele>269.0</ele><time>2026-04-19T11:22:34Z</time></trkpt><trkpt lat="42.1440352584002" lon="11.956158899294541"><ele>269.0</ele><time>2026-04-19T11:22:35Z</time></trkpt><trkpt lat="42.14413352116442" lon="11.956097757157643"><ele>269.25</ele><time>2026-04-19T11:22:36Z</time></trkpt><trkpt lat="42.14422981819113" lon="11.956020804807894"><ele>269.5</ele><time>2026-04-19T11:22:37Z</time></trkpt><trkpt lat="42.14432444200203" lon="11.955925222760944"><ele>269.75</ele><time>2026-04-19T11:22:38.001Z</time></trkpt><trkpt lat="42.14442561306099" lon="11.955834156367448"><ele>270.0</ele><time>2026-04-19T11:22:39.001Z</time></trkpt><trkpt lat="42.144532564574476" lon="11.95574295077504"><ele>270.0</ele><time>2026-04-19T11:22:40.001Z</time></trkpt><trkpt lat="42.14463770565208" lon="11.955655115308145"><ele>270.0</ele><time>2026-04-19T11:22:41.001Z</time></trkpt><trkpt lat="42.144726976819506" lon="11.955572760733682"><ele>270.0</ele><time>2026-04-19T11:22:42.001Z</time></trkpt><trkpt lat="42.14481366843726" lon="11.955498635545831"><ele>270.0</ele><time>2026-04-19T11:22:43.001Z</time></trkpt><trkpt lat="42.144914970602024" lon="11.955417128085061"><ele>267.5</ele><time>2026-04-19T11:22:44.001Z</time></trkpt><trkpt lat="42.14502575419139" lon="11.955318923509468"><ele>265.0</ele><time>2026-04-19T11:22:45.001Z</time></trkpt><trkpt lat="42.14513707488234" lon="11.955225173973247"><ele>262.5</ele><time>2026-04-19T11:22:46.001Z</time></trkpt><trkpt lat="42.14524351526591" lon="11.955143494780822"><ele>260.0</ele><time>2026-04-19T11:22:47.001Z</time></trkpt><trkpt lat="42.14533852188879" lon="11.955050042438335"><ele>259.75</ele><time>2026-04-19T11:22:48.001Z</time></trkpt><trkpt lat="42.145431022864955" lon="11.95497213212079"><ele>259.5</ele><time>2026-04-19T11:22:49.001Z</time></trkpt><trkpt lat="42.145521912869505" lon="11.95489711857465"><ele>259.25</ele><time>2026-04-19T11:22:50.001Z</time></trkpt><trkpt lat="42.14562055467502" lon="11.954808189513924"><ele>259.0</ele><time>2026-04-19T11:22:51.001Z</time></trkpt><trkpt lat="42.145715659813554" lon="11.954719562304579"><ele>259.0</ele><time>2026-04-19T11:22:52.001Z</time></trkpt><trkpt lat="42.1458229462172" lon="11.954622588518399"><ele>259.0</ele><time>2026-04-19T11:22:53.001Z</time></trkpt><trkpt lat="42.14592807818957" lon="11.954523466635615"><ele>259.0</ele><time>2026-04-19T11:22:54.001Z</time></trkpt><trkpt lat="42.14603555673183" lon="11.954424995062906"><ele>259.0</ele><time>2026-04-19T11:22:55.001Z</time></trkpt><trkpt lat="42.146136455757784" lon="11.954327424165712"><ele>259.0</ele><time>2026-04-19T11:22:56.001Z</time></trkpt><trkpt lat="42.14623257412715" lon="11.954238934665579"><ele>259.0</ele><time>2026-04-19T11:22:57.001Z</time></trkpt><trkpt lat="42.14632768862852" lon="11.954155417308431"><ele>259.0</ele><time>2026-04-19T11:22:58.001Z</time></trkpt><trkpt lat="42.14642160666999" lon="11.95407087066113"><ele>259.0</ele><time>2026-04-19T11:22:59.001Z</time></trkpt><trkpt lat="42.146514974469014" lon="11.953972286684488"><ele>258.0</ele><time>2026-04-19T11:23:00.001Z</time></trkpt><trkpt lat="42.14660973857719" lon="11.953865435098146"><ele>257.0</ele><time>2026-04-19T11:23:01.001Z</time></trkpt><trkpt lat="42.14669825156869" lon="11.953743618523166"><ele>256.0</ele><time>2026-04-19T11:23:02.001Z</time></trkpt><trkpt lat="42.146783430867" lon="11.953621918049226"><ele>255.0</ele><time>2026-04-19T11:23:03.001Z</time></trkpt><trkpt lat="42.14686170544018" lon="11.953505815625457"><ele>255.0</ele><time>2026-04-19T11:23:04.001Z</time></trkpt><trkpt lat="42.14693663181236" lon="11.953392917072161"><ele>255.0</ele><time>2026-04-19T11:23:05.001Z</time></trkpt><trkpt lat="42.14701122861623" lon="11.953296192365876"><ele>255.0</ele><time>2026-04-19T11:23:06.002Z</time></trkpt><trkpt lat="42.147084209494395" lon="11.953198118050105"><ele>255.0</ele><time>2026-04-19T11:23:07.002Z</time></trkpt><trkpt lat="42.14715233525719" lon="11.95308997227732"><ele>255.0</ele><time>2026-04-19T11:23:08.002Z</time></trkpt><trkpt lat="42.14721336154028" lon="11.952981678614588"><ele>255.2857142857143</ele><time>2026-04-19T11:23:09.002Z</time></trkpt><trkpt lat="42.147263907243726" lon="11.952889358335026"><ele>255.5714285714286</ele><time>2026-04-19T11:23:10.002Z</time></trkpt><trkpt lat="42.147307231083545" lon="11.95279822052612"><ele>255.85714285714286</ele><time>2026-04-19T11:23:11.002Z</time></trkpt><trkpt lat="42.14735071850829" lon="11.952723023528415"><ele>256.14285714285717</ele><time>2026-04-19T11:23:12.002Z</time></trkpt><trkpt lat="42.14740896443742" lon="11.952660089461904"><ele>256.42857142857144</ele><time>2026-04-19T11:23:13.002Z</time></trkpt><trkpt lat="42.147467365752135" lon="11.95261761220831"><ele>256.7142857142857</ele><time>2026-04-19T11:23:14.002Z</time></trkpt><trkpt lat="42.14753043179441" lon="11.952615040420376"><ele>257.0</ele><time>2026-04-19T11:23:15.002Z</time></trkpt><trkpt lat="42.14764585323876" lon="11.952675563853184"><ele>257.1666666666667</ele><time>2026-04-19T11:23:17.002Z</time></trkpt><trkpt lat="42.14770673230469" lon="11.952723804572553"><ele>257.33333333333337</ele><time>2026-04-19T11:23:18.002Z</time></trkpt><trkpt lat="42.147786704094074" lon="11.952753965577628"><ele>257.5</ele><time>2026-04-19T11:23:19.002Z</time></trkpt><trkpt lat="42.1478775417315" lon="11.952779917973864"><ele>257.6666666666667</ele><time>2026-04-19T11:23:20.002Z</time></trkpt><trkpt lat="42.147977740878495" lon="11.952773262463374"><ele>257.8333333333333</ele><time>2026-04-19T11:23:21.002Z</time></trkpt><trkpt lat="42.148077597736545" lon="11.952759958111194"><ele>258.0</ele><time>2026-04-19T11:23:22.002Z</time></trkpt><trkpt lat="42.14818408378471" lon="11.952741904720993"><ele>259.6</ele><time>2026-04-19T11:23:23.002Z</time></trkpt><trkpt lat="42.148288286298744" lon="11.95270615302255"><ele>261.20000000000005</ele><time>2026-04-19T11:23:24.002Z</time></trkpt><trkpt lat="42.148390433371546" lon="11.952664560078816"><ele>262.8</ele><time>2026-04-19T11:23:25.002Z</time></trkpt><trkpt lat="42.148483973455775" lon="11.952614909122458"><ele>264.40000000000003</ele><time>2026-04-19T11:23:26.002Z</time></trkpt><trkpt lat="42.14858070785525" lon="11.952543715918555"><ele>266.0</ele><time>2026-04-19T11:23:27.002Z</time></trkpt><trkpt lat="42.14867426319079" lon="11.952449378067115"><ele>267.6</ele><time>2026-04-19T11:23:28.002Z</time></trkpt><trkpt lat="42.14877183643488" lon="11.952365658321552"><ele>269.20000000000005</ele><time>2026-04-19T11:23:29.002Z</time></trkpt><trkpt lat="42.14887247836928" lon="11.952281428148074"><ele>270.79999999999995</ele><time>2026-04-19T11:23:30.002Z</time></trkpt><trkpt lat="42.14896542591258" lon="11.952213409306804"><ele>272.4</ele><time>2026-04-19T11:23:31.002Z</time></trkpt><trkpt lat="42.14904790316724" lon="11.952158468726495"><ele>274.0</ele><time>2026-04-19T11:23:32.002Z</time></trkpt><trkpt lat="42.14911451449171" lon="11.952123248105366"><ele>275.3333333333333</ele><time>2026-04-19T11:23:33.002Z</time></trkpt><trkpt lat="42.149188435078415" lon="11.952101922327396"><ele>276.66666666666663</ele><time>2026-04-19T11:23:34.002Z</time></trkpt><trkpt lat="42.149272903354955" lon="11.952099323474188"><ele>278.0</ele><time>2026-04-19T11:23:35.002Z</time></trkpt><trkpt lat="42.149354428993" lon="11.952111610892844"><ele>279.3333333333333</ele><time>2026-04-19T11:23:36.002Z</time></trkpt><trkpt lat="42.14943210962499" lon="11.95211003912934"><ele>280.6666666666667</ele><time>2026-04-19T11:23:37.002Z</time></trkpt><trkpt lat="42.14951585436076" lon="11.952091576868584"><ele>282.0</ele><time>2026-04-19T11:23:38.002Z</time></trkpt><trkpt lat="42.1496088108745" lon="11.95207012319929"><ele>282.0</ele><time>2026-04-19T11:23:39.003Z</time></trkpt><trkpt lat="42.14970129490596" lon="11.95202882291505"><ele>282.0</ele><time>2026-04-19T11:23:40.003Z</time></trkpt><trkpt lat="42.14980683090363" lon="11.951965167730178"><ele>282.0</ele><time>2026-04-19T11:23:41.003Z</time></trkpt><trkpt lat="42.14991217078516" lon="11.951890326577738"><ele>282.0</ele><time>2026-04-19T11:23:42.003Z</time></trkpt><trkpt lat="42.15000889044625" lon="11.951821946704511"><ele>282.0</ele><time>2026-04-19T11:23:43.003Z</time></trkpt><trkpt lat="42.15011114637419" lon="11.951772775790882"><ele>281.0</ele><time>2026-04-19T11:23:44.003Z</time></trkpt><trkpt lat="42.150225527444405" lon="11.951723418639356"><ele>280.0</ele><time>2026-04-19T11:23:45.003Z</time></trkpt><trkpt lat="42.150335631139626" lon="11.951675200222441"><ele>279.0</ele><time>2026-04-19T11:23:46.003Z</time></trkpt><trkpt lat="42.15042015659904" lon="11.951628347062"><ele>278.0</ele><time>2026-04-19T11:23:47.003Z</time></trkpt><trkpt lat="42.150511420769796" lon="11.951578420012998"><ele>277.0</ele><time>2026-04-19T11:23:48.003Z</time></trkpt><trkpt lat="42.150623151627194" lon="11.951540339768822"><ele>279.2</ele><time>2026-04-19T11:23:49.003Z</time></trkpt><trkpt lat="42.15073774476645" lon="11.951495976409808"><ele>281.4</ele><time>2026-04-19T11:23:50.003Z</time></trkpt><trkpt lat="42.150829514797245" lon="11.951457144480717"><ele>283.6</ele><time>2026-04-19T11:23:51.003Z</time></trkpt><trkpt lat="42.150907700660625" lon="11.951424946273438"><ele>285.8</ele><time>2026-04-19T11:23:52.003Z</time></trkpt><trkpt lat="42.1509956948627" lon="11.951387491313366"><ele>288.0</ele><time>2026-04-19T11:23:53.003Z</time></trkpt><trkpt lat="42.15108580311646" lon="11.951328611047956"><ele>288.0</ele><time>2026-04-19T11:23:54.003Z</time></trkpt><trkpt lat="42.15116958878547" lon="11.951274189785245"><ele>288.0</ele><time>2026-04-19T11:23:55.003Z</time></trkpt><trkpt lat="42.15124395608747" lon="11.951214884315696"><ele>288.0</ele><time>2026-04-19T11:23:56.003Z</time></trkpt><trkpt lat="42.15130229983934" lon="11.95115678934487"><ele>288.0</ele><time>2026-04-19T11:23:57.003Z</time></trkpt><trkpt lat="42.15136318214159" lon="11.951098504805756"><ele>288.0</ele><time>2026-04-19T11:23:58.003Z</time></trkpt><trkpt lat="42.151429595720984" lon="11.9510428650014"><ele>288.0</ele><time>2026-04-19T11:23:59.003Z</time></trkpt><trkpt lat="42.15151189847703" lon="11.950981526487906"><ele>287.6666666666667</ele><time>2026-04-19T11:24:00.003Z</time></trkpt><trkpt lat="42.15161031594395" lon="11.95095565063819"><ele>287.3333333333333</ele><time>2026-04-19T11:24:01.003Z</time></trkpt><trkpt lat="42.15169068884789" lon="11.950951520960258"><ele>287.0</ele><time>2026-04-19T11:24:02.003Z</time></trkpt><trkpt lat="42.151807256389795" lon="11.950953683608153"><ele>286.66666666666663</ele><time>2026-04-19T11:24:04.003Z</time></trkpt><trkpt lat="42.15186932370066" lon="11.950906336337422"><ele>286.3333333333333</ele><time>2026-04-19T11:24:05.003Z</time></trkpt><trkpt lat="42.15191744649995" lon="11.950827819067507"><ele>286.0</ele><time>2026-04-19T11:24:06.003Z</time></trkpt><trkpt lat="42.151994087650834" lon="11.950750538563286"><ele>288.3333333333333</ele><time>2026-04-19T11:24:07.003Z</time></trkpt><trkpt lat="42.152077090702434" lon="11.950688713346645"><ele>290.66666666666663</ele><time>2026-04-19T11:24:08.003Z</time></trkpt><trkpt lat="42.15215915232269" lon="11.950678790173702"><ele>293.0</ele><time>2026-04-19T11:24:09.003Z</time></trkpt><trkpt lat="42.15225013717296" lon="11.950686878045651"><ele>295.3333333333333</ele><time>2026-04-19T11:24:10.003Z</time></trkpt><trkpt lat="42.152320635910954" lon="11.95070410110325"><ele>297.6666666666667</ele><time>2026-04-19T11:24:10.999Z</time></trkpt><trkpt lat="42.15239551231727" lon="11.950751743275516"><ele>300.0</ele><time>2026-04-19T11:24:11.999Z</time></trkpt><trkpt lat="42.15245958920996" lon="11.950797151407812"><ele>300.0</ele><time>2026-04-19T11:24:12.999Z</time></trkpt><trkpt lat="42.15252176848607" lon="11.950815715731784"><ele>300.0</ele><time>2026-04-19T11:24:13.999Z</time></trkpt><trkpt lat="42.15259283872204" lon="11.95080175668946"><ele>300.0</ele><time>2026-04-19T11:24:14.999Z</time></trkpt><trkpt lat="42.15266849484718" lon="11.950721964959403"><ele>300.0</ele><time>2026-04-19T11:24:15.999Z</time></trkpt><trkpt lat="42.152731711867645" lon="11.950643674801979"><ele>300.0</ele><time>2026-04-19T11:24:16.999Z</time></trkpt><trkpt lat="42.152806212082815" lon="11.950575950090592"><ele>300.0</ele><time>2026-04-19T11:24:17.999Z</time></trkpt><trkpt lat="42.15288748225598" lon="11.950510114962771"><ele>300.0</ele><time>2026-04-19T11:24:18.999Z</time></trkpt><trkpt lat="42.15296462368136" lon="11.950426832587233"><ele>300.0</ele><time>2026-04-19T11:24:19.999Z</time></trkpt><trkpt lat="42.153056137052985" lon="11.950352557437215"><ele>300.0</ele><time>2026-04-19T11:24:20.999Z</time></trkpt><trkpt lat="42.15316126222209" lon="11.950285044943511"><ele>300.0</ele><time>2026-04-19T11:24:21.999Z</time></trkpt><trkpt lat="42.15327631716021" lon="11.950227697119715"><ele>300.0</ele><time>2026-04-19T11:24:22.999Z</time></trkpt><trkpt lat="42.15339326725551" lon="11.950167122938243"><ele>299.4</ele><time>2026-04-19T11:24:23.999Z</time></trkpt><trkpt lat="42.153507335412314" lon="11.950115647475647"><ele>298.8</ele><time>2026-04-19T11:24:24.999Z</time></trkpt><trkpt lat="42.153604786877246" lon="11.950079179241698"><ele>298.2</ele><time>2026-04-19T11:24:26Z</time></trkpt><trkpt lat="42.153694381693484" lon="11.95003884196471"><ele>297.6</ele><time>2026-04-19T11:24:27Z</time></trkpt><trkpt lat="42.153788887592135" lon="11.949994498668685"><ele>297.0</ele><time>2026-04-19T11:24:28Z</time></trkpt><trkpt lat="42.15388022540543" lon="11.949941500572523"><ele>299.1666666666667</ele><time>2026-04-19T11:24:29Z</time></trkpt><trkpt lat="42.15396364206909" lon="11.949898791539118"><ele>301.3333333333333</ele><time>2026-04-19T11:24:30Z</time></trkpt><trkpt lat="42.1540446014561" lon="11.949864673369463"><ele>303.5</ele><time>2026-04-19T11:24:31Z</time></trkpt><trkpt lat="42.15412482444073" lon="11.94986418249686"><ele>305.66666666666663</ele><time>2026-04-19T11:24:32Z</time></trkpt><trkpt lat="42.15420346186798" lon="11.94989731607224"><ele>307.8333333333333</ele><time>2026-04-19T11:24:33Z</time></trkpt><trkpt lat="42.154272071680595" lon="11.949915380650577"><ele>310.0</ele><time>2026-04-19T11:24:34Z</time></trkpt><trkpt lat="42.154400970752235" lon="11.949946510758659"><ele>310.0</ele><time>2026-04-19T11:24:36Z</time></trkpt><trkpt lat="42.154469010097614" lon="11.949949307496848"><ele>310.0</ele><time>2026-04-19T11:24:37Z</time></trkpt><trkpt lat="42.15453168892684" lon="11.94992145115048"><ele>310.0</ele><time>2026-04-19T11:24:38Z</time></trkpt><trkpt lat="42.154623291243055" lon="11.949904813693205"><ele>310.0</ele><time>2026-04-19T11:24:40Z</time></trkpt><trkpt lat="42.15474849934122" lon="11.94992632623086"><ele>310.0</ele><time>2026-04-19T11:24:42Z</time></trkpt><trkpt lat="42.15482059620455" lon="11.949907151842794"><ele>310.0</ele><time>2026-04-19T11:24:43Z</time></trkpt><trkpt lat="42.15488538659974" lon="11.949868891518621"><ele>310.8333333333333</ele><time>2026-04-19T11:24:44.001Z</time></trkpt><trkpt lat="42.15495377972696" lon="11.949824178622158"><ele>311.66666666666663</ele><time>2026-04-19T11:24:45.001Z</time></trkpt><trkpt lat="42.15503057509553" lon="11.949773890716976"><ele>312.5</ele><time>2026-04-19T11:24:46.001Z</time></trkpt><trkpt lat="42.15510796892638" lon="11.949718855527204"><ele>313.3333333333333</ele><time>2026-04-19T11:24:47.001Z</time></trkpt><trkpt lat="42.15517124045198" lon="11.949684508941221"><ele>314.1666666666667</ele><time>2026-04-19T11:24:48.001Z</time></trkpt><trkpt lat="42.15523496538513" lon="11.94961810826274"><ele>315.0</ele><time>2026-04-19T11:24:50.001Z</time></trkpt><trkpt lat="42.1552680875437" lon="11.949543704032978"><ele>315.0</ele><time>2026-04-19T11:24:52.001Z</time></trkpt><trkpt lat="42.15534303935622" lon="11.949417391232984"><ele>315.0</ele><time>2026-04-19T11:24:54.001Z</time></trkpt><trkpt lat="42.15537218004498" lon="11.94928221985436"><ele>315.0</ele><time>2026-04-19T11:24:56.001Z</time></trkpt><trkpt lat="42.155446867970795" lon="11.949217183517804"><ele>315.0</ele><time>2026-04-19T11:24:59.001Z</time></trkpt><trkpt lat="42.155566006834164" lon="11.949235834388581"><ele>315.0</ele><time>2026-04-19T11:25:01.001Z</time></trkpt><trkpt lat="42.15564702519463" lon="11.94924344803831"><ele>314.5</ele><time>2026-04-19T11:25:02.001Z</time></trkpt><trkpt lat="42.15571990258916" lon="11.949221751285624"><ele>314.0</ele><time>2026-04-19T11:25:03.001Z</time></trkpt><trkpt lat="42.15579997884281" lon="11.949205446930161"><ele>313.5</ele><time>2026-04-19T11:25:04.001Z</time></trkpt><trkpt lat="42.155878818392885" lon="11.949189632497673"><ele>313.0</ele><time>2026-04-19T11:25:05.001Z</time></trkpt><trkpt lat="42.15596528540581" lon="11.949168450055756"><ele>312.5</ele><time>2026-04-19T11:25:06.001Z</time></trkpt><trkpt lat="42.15605442776346" lon="11.949126807775803"><ele>312.0</ele><time>2026-04-19T11:25:07.001Z</time></trkpt><trkpt lat="42.15615113809021" lon="11.949079272504843"><ele>313.8333333333333</ele><time>2026-04-19T11:25:08.001Z</time></trkpt><trkpt lat="42.156235073878236" lon="11.949043395577963"><ele>315.6666666666667</ele><time>2026-04-19T11:25:09.001Z</time></trkpt><trkpt lat="42.15630074844258" lon="11.948996744614103"><ele>317.5</ele><time>2026-04-19T11:25:10.001Z</time></trkpt><trkpt lat="42.1563473549343" lon="11.948937233009532"><ele>319.33333333333337</ele><time>2026-04-19T11:25:11.002Z</time></trkpt><trkpt lat="42.15639116500324" lon="11.9488008480392"><ele>321.1666666666667</ele><time>2026-04-19T11:25:13.002Z</time></trkpt><trkpt lat="42.15641289814341" lon="11.94869608829549"><ele>323.0</ele><time>2026-04-19T11:25:14.002Z</time></trkpt><trkpt lat="42.15643507713515" lon="11.948583318150385"><ele>323.0</ele><time>2026-04-19T11:25:15.002Z</time></trkpt><trkpt lat="42.15648054413892" lon="11.948471431298525"><ele>323.0</ele><time>2026-04-19T11:25:16.002Z</time></trkpt><trkpt lat="42.156542206297495" lon="11.948364180729474"><ele>323.0</ele><time>2026-04-19T11:25:17.002Z</time></trkpt><trkpt lat="42.15659594299803" lon="11.948275079671044"><ele>323.0</ele><time>2026-04-19T11:25:18.002Z</time></trkpt><trkpt lat="42.15664073691226" lon="11.948162717500061"><ele>323.0</ele><time>2026-04-19T11:25:19.002Z</time></trkpt><trkpt lat="42.156671402790366" lon="11.94807993027248"><ele>323.0</ele><time>2026-04-19T11:25:20.002Z</time></trkpt><trkpt lat="42.156703834750175" lon="11.947920323385285"><ele>325.33333333333337</ele><time>2026-04-19T11:25:22.002Z</time></trkpt><trkpt lat="42.15672292855108" lon="11.94782648920374"><ele>327.6666666666667</ele><time>2026-04-19T11:25:23.002Z</time></trkpt><trkpt lat="42.15673043901869" lon="11.947726237208082"><ele>330.0</ele><time>2026-04-19T11:25:24.002Z</time></trkpt><trkpt lat="42.156731102480876" lon="11.947627600433167"><ele>332.3333333333333</ele><time>2026-04-19T11:25:25.002Z</time></trkpt><trkpt lat="42.15673911501109" lon="11.947538622449287"><ele>334.66666666666663</ele><time>2026-04-19T11:25:26.002Z</time></trkpt><trkpt lat="42.156733587819986" lon="11.947427497464409"><ele>337.0</ele><time>2026-04-19T11:25:27.002Z</time></trkpt><trkpt lat="42.156727511220886" lon="11.947312282021878"><ele>338.20000000000005</ele><time>2026-04-19T11:25:28.002Z</time></trkpt><trkpt lat="42.156705102728075" lon="11.947189149895749"><ele>339.4</ele><time>2026-04-19T11:25:29.002Z</time></trkpt><trkpt lat="42.156667911479616" lon="11.947057229887955"><ele>340.6</ele><time>2026-04-19T11:25:30.002Z</time></trkpt><trkpt lat="42.156643260864556" lon="11.946932628784573"><ele>341.79999999999995</ele><time>2026-04-19T11:25:31.002Z</time></trkpt><trkpt lat="42.15662056584671" lon="11.946794820015013"><ele>343.0</ele><time>2026-04-19T11:25:32.002Z</time></trkpt><trkpt lat="42.15660012028633" lon="11.946662508323259"><ele>344.3333333333333</ele><time>2026-04-19T11:25:33.002Z</time></trkpt><trkpt lat="42.156582000898574" lon="11.946556077885313"><ele>345.66666666666663</ele><time>2026-04-19T11:25:34.002Z</time></trkpt><trkpt lat="42.15657162524568" lon="11.946453403722268"><ele>347.0</ele><time>2026-04-19T11:25:35.002Z</time></trkpt><trkpt lat="42.15657788871295" lon="11.946345786469607"><ele>348.3333333333333</ele><time>2026-04-19T11:25:36.002Z</time></trkpt><trkpt lat="42.15660002326042" lon="11.946230470326329"><ele>349.6666666666667</ele><time>2026-04-19T11:25:37.002Z</time></trkpt><trkpt lat="42.15661415453951" lon="11.946127394784046"><ele>351.0</ele><time>2026-04-19T11:25:38.002Z</time></trkpt><trkpt lat="42.15661369961413" lon="11.946041220458822"><ele>351.0</ele><time>2026-04-19T11:25:39.002Z</time></trkpt><trkpt lat="42.156599556059646" lon="11.945957569284104"><ele>351.0</ele><time>2026-04-19T11:25:40.002Z</time></trkpt><trkpt lat="42.15653491004673" lon="11.945820229936405"><ele>351.0</ele><time>2026-04-19T11:25:42.002Z</time></trkpt><trkpt lat="42.15652758795887" lon="11.94571012414106"><ele>351.0</ele><time>2026-04-19T11:25:43.003Z</time></trkpt><trkpt lat="42.1565300793412" lon="11.945580717570204"><ele>351.0</ele><time>2026-04-19T11:25:44.003Z</time></trkpt><trkpt lat="42.15654026052404" lon="11.945452189342545"><ele>353.8</ele><time>2026-04-19T11:25:45.003Z</time></trkpt><trkpt lat="42.15655347077427" lon="11.945313618946665"><ele>356.6</ele><time>2026-04-19T11:25:46.003Z</time></trkpt><trkpt lat="42.15656125904387" lon="11.9451768545302"><ele>359.4</ele><time>2026-04-19T11:25:47.003Z</time></trkpt><trkpt lat="42.1565443565316" lon="11.945031664749598"><ele>362.2</ele><time>2026-04-19T11:25:48.003Z</time></trkpt><trkpt lat="42.156516356668895" lon="11.944896216343002"><ele>365.0</ele><time>2026-04-19T11:25:49.003Z</time></trkpt><trkpt lat="42.1564833718096" lon="11.944769942515533"><ele>367.2</ele><time>2026-04-19T11:25:50.003Z</time></trkpt><trkpt lat="42.15646660705291" lon="11.944642514409217"><ele>369.4</ele><time>2026-04-19T11:25:51.003Z</time></trkpt><trkpt lat="42.15644502244603" lon="11.944504779599011"><ele>371.6</ele><time>2026-04-19T11:25:52.003Z</time></trkpt><trkpt lat="42.15641493575859" lon="11.944367681487067"><ele>373.8</ele><time>2026-04-19T11:25:53.003Z</time></trkpt><trkpt lat="42.156383348879935" lon="11.944229716165601"><ele>376.0</ele><time>2026-04-19T11:25:54.003Z</time></trkpt><trkpt lat="42.15636264687069" lon="11.944077783844604"><ele>378.16666666666663</ele><time>2026-04-19T11:25:55.003Z</time></trkpt><trkpt lat="42.15634149674863" lon="11.94392677440148"><ele>380.3333333333333</ele><time>2026-04-19T11:25:56.003Z</time></trkpt><trkpt lat="42.156313789435934" lon="11.943805510986511"><ele>382.5</ele><time>2026-04-19T11:25:57.003Z</time></trkpt><trkpt lat="42.15627714150241" lon="11.943722296723665"><ele>384.66666666666663</ele><time>2026-04-19T11:25:58.003Z</time></trkpt><trkpt lat="42.15622482618" lon="11.943668413677692"><ele>386.8333333333333</ele><time>2026-04-19T11:25:59.003Z</time></trkpt><trkpt lat="42.15616587517449" lon="11.943600065685985"><ele>389.0</ele><time>2026-04-19T11:26:00.003Z</time></trkpt><trkpt lat="42.156082291163194" lon="11.943556098388646"><ele>389.0</ele><time>2026-04-19T11:26:01.003Z</time></trkpt><trkpt lat="42.15598873959084" lon="11.94350504132228"><ele>389.0</ele><time>2026-04-19T11:26:02.003Z</time></trkpt><trkpt lat="42.15591598744544" lon="11.943424475995414"><ele>389.0</ele><time>2026-04-19T11:26:03.003Z</time></trkpt><trkpt lat="42.15588038218046" lon="11.943310024939533"><ele>389.0</ele><time>2026-04-19T11:26:04.003Z</time></trkpt><trkpt lat="42.15586942446678" lon="11.943172878524027"><ele>389.0</ele><time>2026-04-19T11:26:05.003Z</time></trkpt><trkpt lat="42.15584034080866" lon="11.943028664860353"><ele>392.75</ele><time>2026-04-19T11:26:06.003Z</time></trkpt><trkpt lat="42.155791319162304" lon="11.942873363778435"><ele>396.5</ele><time>2026-04-19T11:26:07.003Z</time></trkpt><trkpt lat="42.15574057018266" lon="11.94272655036916"><ele>400.25</ele><time>2026-04-19T11:26:08.003Z</time></trkpt><trkpt lat="42.15567278144481" lon="11.942578475307212"><ele>404.0</ele><time>2026-04-19T11:26:09.003Z</time></trkpt><trkpt lat="42.155572800384" lon="11.94244651289185"><ele>409.5</ele><time>2026-04-19T11:26:10.003Z</time></trkpt><trkpt lat="42.155470702647754" lon="11.94232092285637"><ele>415.0</ele><time>2026-04-19T11:26:11.003Z</time></trkpt><trkpt lat="42.15535606888318" lon="11.942222511497741"><ele>420.5</ele><time>2026-04-19T11:26:12.003Z</time></trkpt><trkpt lat="42.15525600891845" lon="11.94209871829205"><ele>426.0</ele><time>2026-04-19T11:26:13.003Z</time></trkpt><trkpt lat="42.155154355334446" lon="11.941990026571155"><ele>426.0</ele><time>2026-04-19T11:26:14.003Z</time></trkpt><trkpt lat="42.15506073920432" lon="11.941864410732904"><ele>426.0</ele><time>2026-04-19T11:26:15.003Z</time></trkpt><trkpt lat="42.15497986862959" lon="11.941764145211"><ele>426.0</ele><time>2026-04-19T11:26:16.004Z</time></trkpt><trkpt lat="42.15491703821465" lon="11.941674970999669"><ele>426.0</ele><time>2026-04-19T11:26:16.999Z</time></trkpt><trkpt lat="42.15486541176875" lon="11.941570897483041"><ele>426.0</ele><time>2026-04-19T11:26:17.999Z</time></trkpt><trkpt lat="42.15481685328757" lon="11.941469901621101"><ele>429.4</ele><time>2026-04-19T11:26:18.999Z</time></trkpt><trkpt lat="42.15476011388051" lon="11.941345929964546"><ele>432.8</ele><time>2026-04-19T11:26:19.999Z</time></trkpt><trkpt lat="42.15469449403532" lon="11.941232299566776"><ele>436.19999999999993</ele><time>2026-04-19T11:26:20.999Z</time></trkpt><trkpt lat="42.154625960304024" lon="11.941133773327698"><ele>439.59999999999997</ele><time>2026-04-19T11:26:21.999Z</time></trkpt><trkpt lat="42.15457814665196" lon="11.941067573571976"><ele>443.0</ele><time>2026-04-19T11:26:22.999Z</time></trkpt><trkpt lat="42.15450443374495" lon="11.940968693499723"><ele>442.99999999999994</ele><time>2026-04-19T11:26:25Z</time></trkpt><trkpt lat="42.15453065239532" lon="11.940881898588529"><ele>443.0</ele><time>2026-04-19T11:26:28Z</time></trkpt><trkpt lat="42.15466298024912" lon="11.94088971737916"><ele>443.0</ele><time>2026-04-19T11:26:30Z</time></trkpt><trkpt lat="42.15473053880583" lon="11.94092561879914"><ele>443.0</ele><time>2026-04-19T11:26:31Z</time></trkpt><trkpt lat="42.154802633556876" lon="11.940958946500084"><ele>442.99999999999994</ele><time>2026-04-19T11:26:32Z</time></trkpt><trkpt lat="42.15487802938295" lon="11.94099262616505"><ele>443.0</ele><time>2026-04-19T11:26:34Z</time></trkpt><trkpt lat="42.15494311385609" lon="11.94108457361195"><ele>441.49999999999994</ele><time>2026-04-19T11:26:36Z</time></trkpt><trkpt lat="42.15499090161743" lon="11.941164341914485"><ele>440.0</ele><time>2026-04-19T11:26:37Z</time></trkpt><trkpt lat="42.15504682409248" lon="11.941251299315818"><ele>438.5</ele><time>2026-04-19T11:26:38Z</time></trkpt><trkpt lat="42.15509651326994" lon="11.941339511771073"><ele>437.0</ele><time>2026-04-19T11:26:39Z</time></trkpt><trkpt lat="42.15515672363147" lon="11.941440036807826"><ele>435.49999999999994</ele><time>2026-04-19T11:26:40Z</time></trkpt><trkpt lat="42.15523247065361" lon="11.941540342711559"><ele>434.0</ele><time>2026-04-19T11:26:41Z</time></trkpt><trkpt lat="42.15530859152114" lon="11.941629924736878"><ele>432.4</ele><time>2026-04-19T11:26:42Z</time></trkpt><trkpt lat="42.15538508792804" lon="11.94172276508135"><ele>430.79999999999995</ele><time>2026-04-19T11:26:43Z</time></trkpt><trkpt lat="42.155459198586996" lon="11.941818505810168"><ele>429.20000000000005</ele><time>2026-04-19T11:26:44Z</time></trkpt><trkpt lat="42.155543518533555" lon="11.941904569730145"><ele>427.6</ele><time>2026-04-19T11:26:45Z</time></trkpt><trkpt lat="42.155619530330334" lon="11.941989238117898"><ele>426.0</ele><time>2026-04-19T11:26:46Z</time></trkpt><trkpt lat="42.155695659291865" lon="11.942091031203153"><ele>426.6</ele><time>2026-04-19T11:26:47.001Z</time></trkpt><trkpt lat="42.15577677873714" lon="11.942185729798206"><ele>427.20000000000005</ele><time>2026-04-19T11:26:48.001Z</time></trkpt><trkpt lat="42.155841800824945" lon="11.942292762721667"><ele>427.79999999999995</ele><time>2026-04-19T11:26:49.001Z</time></trkpt><trkpt lat="42.155886609067984" lon="11.942415790097943"><ele>428.4</ele><time>2026-04-19T11:26:50.001Z</time></trkpt><trkpt lat="42.15593836068502" lon="11.942524777126703"><ele>429.0</ele><time>2026-04-19T11:26:51.001Z</time></trkpt><trkpt lat="42.15600004629081" lon="11.942626866355523"><ele>422.75</ele><time>2026-04-19T11:26:52.001Z</time></trkpt><trkpt lat="42.15607600634775" lon="11.942732321374272"><ele>416.5</ele><time>2026-04-19T11:26:53.001Z</time></trkpt><trkpt lat="42.156160129409905" lon="11.942832465238157"><ele>410.25</ele><time>2026-04-19T11:26:54.001Z</time></trkpt><trkpt lat="42.1562643477171" lon="11.942916605661749"><ele>404.0</ele><time>2026-04-19T11:26:55.001Z</time></trkpt><trkpt lat="42.15637763642118" lon="11.94297504308967"><ele>404.0</ele><time>2026-04-19T11:26:56.001Z</time></trkpt><trkpt lat="42.156505228671456" lon="11.942994206728763"><ele>404.0</ele><time>2026-04-19T11:26:57.001Z</time></trkpt><trkpt lat="42.15663139934952" lon="11.942986202465947"><ele>404.0</ele><time>2026-04-19T11:26:58.001Z</time></trkpt><trkpt lat="42.15675436877034" lon="11.942955718906944"><ele>404.0</ele><time>2026-04-19T11:26:59.001Z</time></trkpt><trkpt lat="42.15687840734675" lon="11.942911483185854"><ele>407.0</ele><time>2026-04-19T11:27:00.001Z</time></trkpt><trkpt lat="42.15699132954844" lon="11.942839277350096"><ele>410.0</ele><time>2026-04-19T11:27:01.001Z</time></trkpt><trkpt lat="42.15708816155917" lon="11.942740086614723"><ele>413.0</ele><time>2026-04-19T11:27:02.001Z</time></trkpt><trkpt lat="42.157171144209336" lon="11.942612026995148"><ele>416.0</ele><time>2026-04-19T11:27:03.001Z</time></trkpt><trkpt lat="42.1572466722177" lon="11.942483934509964"><ele>418.5</ele><time>2026-04-19T11:27:04.001Z</time></trkpt><trkpt lat="42.1573120857718" lon="11.94235993732233"><ele>421.0</ele><time>2026-04-19T11:27:05.001Z</time></trkpt><trkpt lat="42.15737575623599" lon="11.942236344517271"><ele>423.5</ele><time>2026-04-19T11:27:06.001Z</time></trkpt><trkpt lat="42.15745680871433" lon="11.942124340739742"><ele>426.0</ele><time>2026-04-19T11:27:07.001Z</time></trkpt><trkpt lat="42.157566268136655" lon="11.942033589355631"><ele>426.0</ele><time>2026-04-19T11:27:08.001Z</time></trkpt><trkpt lat="42.15768885716261" lon="11.941982855339718"><ele>426.0</ele><time>2026-04-19T11:27:09.001Z</time></trkpt><trkpt lat="42.15781636648814" lon="11.941933699248954"><ele>426.0</ele><time>2026-04-19T11:27:10.001Z</time></trkpt><trkpt lat="42.15793396035258" lon="11.941873161399954"><ele>426.0</ele><time>2026-04-19T11:27:11.001Z</time></trkpt><trkpt lat="42.15805170021212" lon="11.94182203036933"><ele>426.0</ele><time>2026-04-19T11:27:12.001Z</time></trkpt><trkpt lat="42.15816915525946" lon="11.941782576775624"><ele>426.0</ele><time>2026-04-19T11:27:13.001Z</time></trkpt><trkpt lat="42.15828158529777" lon="11.941750371608723"><ele>426.0</ele><time>2026-04-19T11:27:14.001Z</time></trkpt><trkpt lat="42.15839538894462" lon="11.941741137924277"><ele>426.0</ele><time>2026-04-19T11:27:15.002Z</time></trkpt><trkpt lat="42.15851264418962" lon="11.941779495835933"><ele>419.75</ele><time>2026-04-19T11:27:16.002Z</time></trkpt><trkpt lat="42.15862763418413" lon="11.941848753466479"><ele>413.5</ele><time>2026-04-19T11:27:17.002Z</time></trkpt><trkpt lat="42.158738767148066" lon="11.941952098644437"><ele>407.25</ele><time>2026-04-19T11:27:18.002Z</time></trkpt><trkpt lat="42.158835123825064" lon="11.942060147168897"><ele>401.0</ele><time>2026-04-19T11:27:19.002Z</time></trkpt><trkpt lat="42.15892705573128" lon="11.942166007470364"><ele>401.0</ele><time>2026-04-19T11:27:20.002Z</time></trkpt><trkpt lat="42.15901332231744" lon="11.942268650549838"><ele>401.0</ele><time>2026-04-19T11:27:21.002Z</time></trkpt><trkpt lat="42.15910749054818" lon="11.942342107143455"><ele>401.0</ele><time>2026-04-19T11:27:22.002Z</time></trkpt><trkpt lat="42.15921337466438" lon="11.942366175999958"><ele>401.0</ele><time>2026-04-19T11:27:23.002Z</time></trkpt><trkpt lat="42.159322774174676" lon="11.942349320415234"><ele>401.0</ele><time>2026-04-19T11:27:24.002Z</time></trkpt><trkpt lat="42.15943136465607" lon="11.942297354667588"><ele>400.25</ele><time>2026-04-19T11:27:25.002Z</time></trkpt><trkpt lat="42.15953954982389" lon="11.942211432488593"><ele>399.5</ele><time>2026-04-19T11:27:26.002Z</time></trkpt><trkpt lat="42.15964349926333" lon="11.942094361275139"><ele>398.75</ele><time>2026-04-19T11:27:27.002Z</time></trkpt><trkpt lat="42.159751233351855" lon="11.941978256441454"><ele>398.0</ele><time>2026-04-19T11:27:28.002Z</time></trkpt><trkpt lat="42.15984832176629" lon="11.941859787192918"><ele>397.5</ele><time>2026-04-19T11:27:29.002Z</time></trkpt><trkpt lat="42.159930999367866" lon="11.941737484098724"><ele>397.0</ele><time>2026-04-19T11:27:30.002Z</time></trkpt><trkpt lat="42.16000393080273" lon="11.941600528681779"><ele>396.5</ele><time>2026-04-19T11:27:31.002Z</time></trkpt><trkpt lat="42.160087979365706" lon="11.94146723686536"><ele>396.0</ele><time>2026-04-19T11:27:32.002Z</time></trkpt><trkpt lat="42.16013036191706" lon="11.94130255671187"><ele>396.0</ele><time>2026-04-19T11:27:33.002Z</time></trkpt><trkpt lat="42.16017801360753" lon="11.941138647317713"><ele>396.0</ele><time>2026-04-19T11:27:34.002Z</time></trkpt><trkpt lat="42.16020714539859" lon="11.940996102216845"><ele>396.0</ele><time>2026-04-19T11:27:35.002Z</time></trkpt><trkpt lat="42.16023773892104" lon="11.940848566491063"><ele>396.0</ele><time>2026-04-19T11:27:36.002Z</time></trkpt><trkpt lat="42.160286643264484" lon="11.94071056322933"><ele>395.4</ele><time>2026-04-19T11:27:37.002Z</time></trkpt><trkpt lat="42.160320828252274" lon="11.940572653026873"><ele>394.8</ele><time>2026-04-19T11:27:38.002Z</time></trkpt><trkpt lat="42.16034103900708" lon="11.940433310190933"><ele>394.2</ele><time>2026-04-19T11:27:39.002Z</time></trkpt><trkpt lat="42.16039772359891" lon="11.9403156147147"><ele>393.59999999999997</ele><time>2026-04-19T11:27:40.002Z</time></trkpt><trkpt lat="42.16046736750406" lon="11.940209736989031"><ele>393.0</ele><time>2026-04-19T11:27:41.002Z</time></trkpt><trkpt lat="42.16055330927869" lon="11.940113685444977"><ele>393.0</ele><time>2026-04-19T11:27:42.002Z</time></trkpt><trkpt lat="42.16065480544353" lon="11.94008615045748"><ele>393.0</ele><time>2026-04-19T11:27:43.002Z</time></trkpt><trkpt lat="42.16077305552342" lon="11.940054697711059"><ele>393.0</ele><time>2026-04-19T11:27:44.002Z</time></trkpt><trkpt lat="42.16089515298333" lon="11.940010253094108"><ele>393.0</ele><time>2026-04-19T11:27:45.002Z</time></trkpt><trkpt lat="42.161022508379794" lon="11.939996391582985"><ele>390.25</ele><time>2026-04-19T11:27:46.002Z</time></trkpt><trkpt lat="42.16115046672057" lon="11.93996525740946"><ele>387.5</ele><time>2026-04-19T11:27:47.003Z</time></trkpt><trkpt lat="42.161263521196226" lon="11.939949951647433"><ele>384.75</ele><time>2026-04-19T11:27:48.003Z</time></trkpt><trkpt lat="42.161373062807726" lon="11.939948293083857"><ele>382.0</ele><time>2026-04-19T11:27:49.003Z</time></trkpt><trkpt lat="42.16147594822365" lon="11.939971486349036"><ele>381.0</ele><time>2026-04-19T11:27:50.003Z</time></trkpt><trkpt lat="42.161553659937894" lon="11.940025621364946"><ele>380.0</ele><time>2026-04-19T11:27:51.003Z</time></trkpt><trkpt lat="42.1616164935052" lon="11.940137255657755"><ele>379.0</ele><time>2026-04-19T11:27:52.003Z</time></trkpt><trkpt lat="42.161683877791326" lon="11.940276648373674"><ele>378.0</ele><time>2026-04-19T11:27:53.003Z</time></trkpt><trkpt lat="42.16172890543206" lon="11.940435416324577"><ele>377.0</ele><time>2026-04-19T11:27:54.003Z</time></trkpt><trkpt lat="42.161798013630396" lon="11.940578226839031"><ele>380.0</ele><time>2026-04-19T11:27:55.003Z</time></trkpt><trkpt lat="42.161860264770105" lon="11.940723242968792"><ele>383.0</ele><time>2026-04-19T11:27:56.003Z</time></trkpt><trkpt lat="42.16193224165056" lon="11.940875013043634"><ele>386.0</ele><time>2026-04-19T11:27:57.003Z</time></trkpt><trkpt lat="42.162002928537355" lon="11.941017476035857"><ele>389.0</ele><time>2026-04-19T11:27:58.003Z</time></trkpt><trkpt lat="42.1620698826146" lon="11.941161361268508"><ele>389.0</ele><time>2026-04-19T11:27:59.003Z</time></trkpt><trkpt lat="42.162139750459524" lon="11.941309575433445"><ele>389.0</ele><time>2026-04-19T11:28:00.003Z</time></trkpt><trkpt lat="42.16220026132806" lon="11.941457047219016"><ele>389.0</ele><time>2026-04-19T11:28:01.003Z</time></trkpt><trkpt lat="42.16225385282703" lon="11.941602984017452"><ele>389.0</ele><time>2026-04-19T11:28:02.003Z</time></trkpt><trkpt lat="42.16230617024395" lon="11.941746614879278"><ele>385.79999999999995</ele><time>2026-04-19T11:28:03.003Z</time></trkpt><trkpt lat="42.16233946438033" lon="11.941884966663622"><ele>382.59999999999997</ele><time>2026-04-19T11:28:04.003Z</time></trkpt><trkpt lat="42.16235947857381" lon="11.942009479639703"><ele>379.4</ele><time>2026-04-19T11:28:05.003Z</time></trkpt><trkpt lat="42.162365037082445" lon="11.942107506392365"><ele>376.2</ele><time>2026-04-19T11:28:06.003Z</time></trkpt><trkpt lat="42.16240298867489" lon="11.942224249588337"><ele>373.0</ele><time>2026-04-19T11:28:08.003Z</time></trkpt><trkpt lat="42.162522222209326" lon="11.942231784879455"><ele>371.2</ele><time>2026-04-19T11:28:10.003Z</time></trkpt><trkpt lat="42.162616638417035" lon="11.942216347502097"><ele>369.4</ele><time>2026-04-19T11:28:11.003Z</time></trkpt><trkpt lat="42.16271123271763" lon="11.942182606926698"><ele>367.59999999999997</ele><time>2026-04-19T11:28:12.003Z</time></trkpt><trkpt lat="42.16281148232698" lon="11.942141107669975"><ele>365.79999999999995</ele><time>2026-04-19T11:28:13.003Z</time></trkpt><trkpt lat="42.16292081856595" lon="11.942075146585886"><ele>364.0</ele><time>2026-04-19T11:28:14.003Z</time></trkpt><trkpt lat="42.1630128955145" lon="11.941985132180593"><ele>364.0</ele><time>2026-04-19T11:28:15.003Z</time></trkpt><trkpt lat="42.163110168597974" lon="11.941895944316638"><ele>364.0</ele><time>2026-04-19T11:28:16.003Z</time></trkpt><trkpt lat="42.16319569087813" lon="11.941803992507879"><ele>364.0</ele><time>2026-04-19T11:28:17.003Z</time></trkpt><trkpt lat="42.163270016501706" lon="11.941712567841842"><ele>364.0</ele><time>2026-04-19T11:28:18.003Z</time></trkpt><trkpt lat="42.16336091702518" lon="11.941646885536704"><ele>364.0</ele><time>2026-04-19T11:28:19.003Z</time></trkpt><trkpt lat="42.163456851584016" lon="11.941603419941764"><ele>362.4</ele><time>2026-04-19T11:28:20.004Z</time></trkpt><trkpt lat="42.16356823840627" lon="11.941585178537718"><ele>360.79999999999995</ele><time>2026-04-19T11:28:21.004Z</time></trkpt><trkpt lat="42.16368703477971" lon="11.941586455910766"><ele>359.20000000000005</ele><time>2026-04-19T11:28:22.004Z</time></trkpt><trkpt lat="42.1637989662268" lon="11.941602204373833"><ele>357.6</ele><time>2026-04-19T11:28:23.004Z</time></trkpt><trkpt lat="42.1638946140124" lon="11.941631638580025"><ele>356.0</ele><time>2026-04-19T11:28:24.004Z</time></trkpt><trkpt lat="42.163985855721954" lon="11.941670215305725"><ele>355.4</ele><time>2026-04-19T11:28:25.004Z</time></trkpt><trkpt lat="42.16408006360941" lon="11.941734620029584"><ele>354.8</ele><time>2026-04-19T11:28:26.004Z</time></trkpt><trkpt lat="42.1641786135222" lon="11.941794483445895"><ele>354.2</ele><time>2026-04-19T11:28:27.004Z</time></trkpt><trkpt lat="42.164268658897555" lon="11.941844940825858"><ele>353.59999999999997</ele><time>2026-04-19T11:28:28.004Z</time></trkpt><trkpt lat="42.16437376515382" lon="11.94187454718304"><ele>353.0</ele><time>2026-04-19T11:28:29.004Z</time></trkpt><trkpt lat="42.16448659365837" lon="11.941893878853792"><ele>353.0</ele><time>2026-04-19T11:28:30.004Z</time></trkpt><trkpt lat="42.16460628963103" lon="11.941921976549493"><ele>353.0</ele><time>2026-04-19T11:28:31.004Z</time></trkpt><trkpt lat="42.16472581871291" lon="11.941936622710296"><ele>353.0</ele><time>2026-04-19T11:28:32.004Z</time></trkpt><trkpt lat="42.16484539304439" lon="11.941926095099642"><ele>353.0</ele><time>2026-04-19T11:28:33.004Z</time></trkpt><trkpt lat="42.16496589337743" lon="11.94188183861903"><ele>351.75</ele><time>2026-04-19T11:28:34.004Z</time></trkpt><trkpt lat="42.165078586568164" lon="11.941812200684597"><ele>350.5</ele><time>2026-04-19T11:28:35.004Z</time></trkpt><trkpt lat="42.16518277495814" lon="11.941729473673627"><ele>349.25</ele><time>2026-04-19T11:28:36.004Z</time></trkpt><trkpt lat="42.16529295562098" lon="11.941663091347165"><ele>348.0</ele><time>2026-04-19T11:28:37.004Z</time></trkpt><trkpt lat="42.165404077362936" lon="11.941604175167557"><ele>346.75</ele><time>2026-04-19T11:28:38.004Z</time></trkpt><trkpt lat="42.165515441424404" lon="11.941547641407785"><ele>345.5</ele><time>2026-04-19T11:28:39.004Z</time></trkpt><trkpt lat="42.1656288667448" lon="11.941537447632765"><ele>344.25</ele><time>2026-04-19T11:28:40.004Z</time></trkpt><trkpt lat="42.16573996971408" lon="11.94150992932106"><ele>343.0</ele><time>2026-04-19T11:28:41.004Z</time></trkpt><trkpt lat="42.165849784961026" lon="11.941468938186613"><ele>343.0</ele><time>2026-04-19T11:28:42.004Z</time></trkpt><trkpt lat="42.16596604560658" lon="11.941453634007269"><ele>343.0</ele><time>2026-04-19T11:28:43.004Z</time></trkpt><trkpt lat="42.16608110475267" lon="11.941449100922478"><ele>343.0</ele><time>2026-04-19T11:28:44.004Z</time></trkpt><trkpt lat="42.16620065371061" lon="11.941397994761878"><ele>343.0</ele><time>2026-04-19T11:28:45.004Z</time></trkpt><trkpt lat="42.16631703401288" lon="11.941336535153841"><ele>343.0</ele><time>2026-04-19T11:28:46.004Z</time></trkpt><trkpt lat="42.1664353793498" lon="11.941274779980732"><ele>343.0</ele><time>2026-04-19T11:28:47.004Z</time></trkpt><trkpt lat="42.166546593330466" lon="11.941213382777068"><ele>343.0</ele><time>2026-04-19T11:28:48.004Z</time></trkpt><trkpt lat="42.16664547499472" lon="11.941162156449138"><ele>343.0</ele><time>2026-04-19T11:28:49.004Z</time></trkpt><trkpt lat="42.16675042498537" lon="11.941125110301275"><ele>343.79999999999995</ele><time>2026-04-19T11:28:50.004Z</time></trkpt><trkpt lat="42.1668595086642" lon="11.941097606509969"><ele>344.6</ele><time>2026-04-19T11:28:51.004Z</time></trkpt><trkpt lat="42.16696593499083" lon="11.941072972556643"><ele>345.4</ele><time>2026-04-19T11:28:52.004Z</time></trkpt><trkpt lat="42.167071978357086" lon="11.941080579986588"><ele>346.20000000000005</ele><time>2026-04-19T11:28:53.004Z</time></trkpt><trkpt lat="42.16718336147508" lon="11.941094163495169"><ele>347.0</ele><time>2026-04-19T11:28:54.005Z</time></trkpt><trkpt lat="42.16729333324137" lon="11.94111572034196"><ele>346.5</ele><time>2026-04-19T11:28:55.005Z</time></trkpt><trkpt lat="42.16740842938017" lon="11.941163891877542"><ele>346.0</ele><time>2026-04-19T11:28:56.005Z</time></trkpt><trkpt lat="42.16752564892309" lon="11.94116951044517"><ele>345.5</ele><time>2026-04-19T11:28:57.005Z</time></trkpt><trkpt lat="42.16764334348483" lon="11.941209609670096"><ele>345.0</ele><time>2026-04-19T11:28:58.005Z</time></trkpt><trkpt lat="42.167769030623674" lon="11.941230015610463"><ele>345.0</ele><time>2026-04-19T11:28:59.005Z</time></trkpt><trkpt lat="42.167904003982486" lon="11.941248212257989"><ele>345.0</ele><time>2026-04-19T11:29:00.005Z</time></trkpt><trkpt lat="42.16803691404418" lon="11.941260641476914"><ele>345.0</ele><time>2026-04-19T11:29:01.005Z</time></trkpt><trkpt lat="42.16817088598358" lon="11.941261159607444"><ele>345.0</ele><time>2026-04-19T11:29:02.005Z</time></trkpt><trkpt lat="42.16830281158051" lon="11.941249178007357"><ele>342.75</ele><time>2026-04-19T11:29:03.005Z</time></trkpt><trkpt lat="42.168431096596656" lon="11.941205723987006"><ele>340.5</ele><time>2026-04-19T11:29:04.005Z</time></trkpt><trkpt lat="42.168544763906915" lon="11.94115439568138"><ele>338.25</ele><time>2026-04-19T11:29:05.005Z</time></trkpt><trkpt lat="42.168665849062506" lon="11.941138802523518"><ele>336.0</ele><time>2026-04-19T11:29:06.005Z</time></trkpt><trkpt lat="42.16878928639374" lon="11.941155031030405"><ele>336.0</ele><time>2026-04-19T11:29:07.005Z</time></trkpt><trkpt lat="42.16891237886681" lon="11.941203760821772"><ele>336.0</ele><time>2026-04-19T11:29:08.005Z</time></trkpt><trkpt lat="42.16903839301991" lon="11.941283448931896"><ele>336.0</ele><time>2026-04-19T11:29:09.005Z</time></trkpt><trkpt lat="42.16916130167129" lon="11.941380039550301"><ele>336.0</ele><time>2026-04-19T11:29:10.005Z</time></trkpt><trkpt lat="42.16928283490476" lon="11.941476441782655"><ele>337.0</ele><time>2026-04-19T11:29:11.005Z</time></trkpt><trkpt lat="42.16939836761261" lon="11.941568703583378"><ele>338.0</ele><time>2026-04-19T11:29:12.005Z</time></trkpt><trkpt lat="42.16950054611738" lon="11.941673276918149"><ele>339.0</ele><time>2026-04-19T11:29:13.005Z</time></trkpt><trkpt lat="42.16957301187063" lon="11.941793136926824"><ele>340.0</ele><time>2026-04-19T11:29:14.005Z</time></trkpt><trkpt lat="42.16964191237508" lon="11.941908963245055"><ele>340.0</ele><time>2026-04-19T11:29:15.005Z</time></trkpt><trkpt lat="42.16969028373275" lon="11.942044184931756"><ele>340.0</ele><time>2026-04-19T11:29:16.005Z</time></trkpt><trkpt lat="42.16973896922894" lon="11.94217838915771"><ele>340.0</ele><time>2026-04-19T11:29:17.005Z</time></trkpt><trkpt lat="42.169763052701136" lon="11.942298730948488"><ele>340.0</ele><time>2026-04-19T11:29:18.005Z</time></trkpt><trkpt lat="42.169838255312435" lon="11.942425358134898"><ele>340.0</ele><time>2026-04-19T11:29:20.005Z</time></trkpt><trkpt lat="42.169941155490605" lon="11.942353266521964"><ele>338.16666666666663</ele><time>2026-04-19T11:29:21.005Z</time></trkpt><trkpt lat="42.17001122369584" lon="11.942353835286688"><ele>336.3333333333333</ele><time>2026-04-19T11:29:22.005Z</time></trkpt><trkpt lat="42.17008081143637" lon="11.94237355074256"><ele>334.5</ele><time>2026-04-19T11:29:23.005Z</time></trkpt><trkpt lat="42.170120172194984" lon="11.942491195071998"><ele>332.6666666666667</ele><time>2026-04-19T11:29:24.005Z</time></trkpt><trkpt lat="42.17020389001731" lon="11.942559451873837"><ele>330.83333333333337</ele><time>2026-04-19T11:29:25.005Z</time></trkpt><trkpt lat="42.17028524125192" lon="11.94260441002783"><ele>329.0</ele><time>2026-04-19T11:29:26.005Z</time></trkpt><trkpt lat="42.17037011876668" lon="11.942667801198011"><ele>329.0</ele><time>2026-04-19T11:29:27.006Z</time></trkpt><trkpt lat="42.17046866770108" lon="11.942713174403956"><ele>329.0</ele><time>2026-04-19T11:29:28.006Z</time></trkpt><trkpt lat="42.17057832787902" lon="11.942756743184573"><ele>329.0</ele><time>2026-04-19T11:29:29.006Z</time></trkpt><trkpt lat="42.1706851903159" lon="11.942830929827288"><ele>329.0</ele><time>2026-04-19T11:29:30.006Z</time></trkpt><trkpt lat="42.170780191431035" lon="11.94288639467685"><ele>329.0</ele><time>2026-04-19T11:29:31.006Z</time></trkpt><trkpt lat="42.17086728146543" lon="11.942962580856742"><ele>325.75</ele><time>2026-04-19T11:29:32.006Z</time></trkpt><trkpt lat="42.170955565304" lon="11.943055378813705"><ele>322.5</ele><time>2026-04-19T11:29:33.006Z</time></trkpt><trkpt lat="42.171034507396634" lon="11.943172214672623"><ele>319.25</ele><time>2026-04-19T11:29:34.006Z</time></trkpt><trkpt lat="42.171118529356605" lon="11.943276982807555"><ele>316.0</ele><time>2026-04-19T11:29:35.006Z</time></trkpt><trkpt lat="42.171209994996964" lon="11.94336653944307"><ele>315.0</ele><time>2026-04-19T11:29:36.006Z</time></trkpt><trkpt lat="42.17132047820338" lon="11.943430565910862"><ele>314.0</ele><time>2026-04-19T11:29:37.006Z</time></trkpt><trkpt lat="42.17142785009374" lon="11.943497895037357"><ele>313.0</ele><time>2026-04-19T11:29:38.006Z</time></trkpt><trkpt lat="42.1715227865069" lon="11.943571863962584"><ele>312.0</ele><time>2026-04-19T11:29:39.006Z</time></trkpt><trkpt lat="42.171610301205725" lon="11.943675387305907"><ele>312.0</ele><time>2026-04-19T11:29:40.006Z</time></trkpt><trkpt lat="42.17170453084762" lon="11.943776091192689"><ele>312.0</ele><time>2026-04-19T11:29:41.006Z</time></trkpt><trkpt lat="42.17179032794646" lon="11.943893214251426"><ele>312.0</ele><time>2026-04-19T11:29:42.006Z</time></trkpt><trkpt lat="42.17185326146469" lon="11.944027586471798"><ele>312.0</ele><time>2026-04-19T11:29:43.006Z</time></trkpt><trkpt lat="42.171920668716865" lon="11.944158999930918"><ele>312.75</ele><time>2026-04-19T11:29:44.006Z</time></trkpt><trkpt lat="42.17199013592241" lon="11.944284515331905"><ele>313.5</ele><time>2026-04-19T11:29:45.006Z</time></trkpt><trkpt lat="42.17207971662208" lon="11.944400469764505"><ele>314.25</ele><time>2026-04-19T11:29:46.006Z</time></trkpt><trkpt lat="42.17217610060753" lon="11.944519007103047"><ele>315.0</ele><time>2026-04-19T11:29:47.006Z</time></trkpt><trkpt lat="42.172263674831626" lon="11.944642233219847"><ele>315.0</ele><time>2026-04-19T11:29:48.006Z</time></trkpt><trkpt lat="42.172341015332535" lon="11.94477453762325"><ele>315.0</ele><time>2026-04-19T11:29:49.006Z</time></trkpt><trkpt lat="42.1724000259827" lon="11.94490517523306"><ele>315.0</ele><time>2026-04-19T11:29:50.006Z</time></trkpt><trkpt lat="42.172456729225864" lon="11.945023702784228"><ele>315.0</ele><time>2026-04-19T11:29:51.006Z</time></trkpt><trkpt lat="42.17250562394017" lon="11.945134466840125"><ele>315.0</ele><time>2026-04-19T11:29:52.006Z</time></trkpt><trkpt lat="42.17254863653962" lon="11.945232845826633"><ele>314.8</ele><time>2026-04-19T11:29:53.006Z</time></trkpt><trkpt lat="42.172589004222445" lon="11.945305092427832"><ele>314.6</ele><time>2026-04-19T11:29:54.006Z</time></trkpt><trkpt lat="42.17261264420017" lon="11.945387175285099"><ele>314.4</ele><time>2026-04-19T11:29:56.006Z</time></trkpt><trkpt lat="42.1726992472017" lon="11.945212304949527"><ele>314.2</ele><time>2026-04-19T11:30:01.007Z</time></trkpt><trkpt lat="42.17267503107794" lon="11.945050336018618"><ele>314.0</ele><time>2026-04-19T11:30:03.007Z</time></trkpt><trkpt lat="42.17265855099115" lon="11.944947404038732"><ele>315.83333333333337</ele><time>2026-04-19T11:30:04.007Z</time></trkpt><trkpt lat="42.17262664511846" lon="11.944844657445636"><ele>317.6666666666667</ele><time>2026-04-19T11:30:05.007Z</time></trkpt><trkpt lat="42.17262196059913" lon="11.944739329556871"><ele>319.5</ele><time>2026-04-19T11:30:06.007Z</time></trkpt><trkpt lat="42.1726078082712" lon="11.94464071331306"><ele>321.3333333333333</ele><time>2026-04-19T11:30:07.007Z</time></trkpt><trkpt lat="42.17259901236607" lon="11.944555458908003"><ele>323.16666666666663</ele><time>2026-04-19T11:30:08.007Z</time></trkpt><trkpt lat="42.172617499321056" lon="11.94444375581794"><ele>325.0</ele><time>2026-04-19T11:30:10.007Z</time></trkpt><trkpt lat="42.17268927008107" lon="11.944408409342161"><ele>325.0</ele><time>2026-04-19T11:30:12.007Z</time></trkpt><trkpt lat="42.1727912929362" lon="11.944424897883804"><ele>325.0</ele><time>2026-04-19T11:30:14.007Z</time></trkpt><trkpt lat="42.17283708932924" lon="11.944487477518944"><ele>325.0</ele><time>2026-04-19T11:30:15.007Z</time></trkpt><trkpt lat="42.172863072172625" lon="11.944572941641859"><ele>325.0</ele><time>2026-04-19T11:30:16.007Z</time></trkpt><trkpt lat="42.17288616454927" lon="11.944664495189409"><ele>325.0</ele><time>2026-04-19T11:30:17.007Z</time></trkpt><trkpt lat="42.17290938499589" lon="11.944761823288609"><ele>325.0</ele><time>2026-04-19T11:30:18.007Z</time></trkpt><trkpt lat="42.17295125024574" lon="11.944862993103106"><ele>325.0</ele><time>2026-04-19T11:30:19.007Z</time></trkpt><trkpt lat="42.17300639980395" lon="11.944962453196084"><ele>325.0</ele><time>2026-04-19T11:30:20.007Z</time></trkpt><trkpt lat="42.173053945187064" lon="11.945043677638138"><ele>325.0</ele><time>2026-04-19T11:30:21.007Z</time></trkpt><trkpt lat="42.17310477924069" lon="11.94512083012935"><ele>325.0</ele><time>2026-04-19T11:30:22.007Z</time></trkpt><trkpt lat="42.173158814599944" lon="11.945183837009525"><ele>325.0</ele><time>2026-04-19T11:30:23.007Z</time></trkpt><trkpt lat="42.173232228344794" lon="11.945220074665505"><ele>325.0</ele><time>2026-04-19T11:30:24.007Z</time></trkpt><trkpt lat="42.17332195868332" lon="11.945241740072126"><ele>327.0</ele><time>2026-04-19T11:30:25.007Z</time></trkpt><trkpt lat="42.17340841556723" lon="11.945261295006985"><ele>329.0</ele><time>2026-04-19T11:30:26.007Z</time></trkpt><trkpt lat="42.173502409088364" lon="11.945294358686839"><ele>331.0</ele><time>2026-04-19T11:30:27.007Z</time></trkpt><trkpt lat="42.17360804988461" lon="11.945323756778262"><ele>333.0</ele><time>2026-04-19T11:30:28.007Z</time></trkpt><trkpt lat="42.17371350469244" lon="11.945358375384"><ele>335.0</ele><time>2026-04-19T11:30:29.007Z</time></trkpt><trkpt lat="42.17382494393549" lon="11.94539890673339"><ele>335.0</ele><time>2026-04-19T11:30:30.007Z</time></trkpt><trkpt lat="42.1739237438007" lon="11.945442336960635"><ele>335.0</ele><time>2026-04-19T11:30:31.007Z</time></trkpt><trkpt lat="42.174021598164934" lon="11.945478729026044"><ele>335.0</ele><time>2026-04-19T11:30:32.007Z</time></trkpt><trkpt lat="42.17412438725635" lon="11.945512474197624"><ele>335.0</ele><time>2026-04-19T11:30:33.007Z</time></trkpt><trkpt lat="42.17420636541861" lon="11.945548295426429"><ele>335.0</ele><time>2026-04-19T11:30:34.008Z</time></trkpt><trkpt lat="42.174304138515986" lon="11.945587053655805"><ele>339.0</ele><time>2026-04-19T11:30:35.008Z</time></trkpt><trkpt lat="42.1743962168623" lon="11.945635692066302"><ele>343.0</ele><time>2026-04-19T11:30:36.008Z</time></trkpt><trkpt lat="42.174467366317494" lon="11.945736463355"><ele>347.0</ele><time>2026-04-19T11:30:37.008Z</time></trkpt><trkpt lat="42.17454742290656" lon="11.945782947049159"><ele>351.0</ele><time>2026-04-19T11:30:38.008Z</time></trkpt><trkpt lat="42.174633773480025" lon="11.945837369052368"><ele>355.0</ele><time>2026-04-19T11:30:39.008Z</time></trkpt><trkpt lat="42.17471426365577" lon="11.945904114138001"><ele>355.66666666666663</ele><time>2026-04-19T11:30:40.008Z</time></trkpt><trkpt lat="42.174769942203426" lon="11.945971055366295"><ele>356.3333333333333</ele><time>2026-04-19T11:30:41.008Z</time></trkpt><trkpt lat="42.17480394563864" lon="11.946047102893703"><ele>357.0</ele><time>2026-04-19T11:30:42.008Z</time></trkpt><trkpt lat="42.17485574475922" lon="11.946181490457622"><ele>357.6666666666667</ele><time>2026-04-19T11:30:44.008Z</time></trkpt><trkpt lat="42.17490502112208" lon="11.946324101925395"><ele>358.33333333333337</ele><time>2026-04-19T11:30:46.008Z</time></trkpt><trkpt lat="42.17495624187717" lon="11.946374487883165"><ele>359.0</ele><time>2026-04-19T11:30:47.008Z</time></trkpt><trkpt lat="42.175054998323404" lon="11.946358907746562"><ele>361.0</ele><time>2026-04-19T11:30:49.008Z</time></trkpt><trkpt lat="42.17513126642137" lon="11.946248848141439"><ele>363.0</ele><time>2026-04-19T11:30:51.008Z</time></trkpt><trkpt lat="42.17516724877848" lon="11.946175105762087"><ele>365.0</ele><time>2026-04-19T11:30:52.008Z</time></trkpt><trkpt lat="42.17520986666036" lon="11.94609161800977"><ele>367.0</ele><time>2026-04-19T11:30:53.008Z</time></trkpt><trkpt lat="42.175265176443745" lon="11.946009532131452"><ele>369.0</ele><time>2026-04-19T11:30:54.008Z</time></trkpt><trkpt lat="42.175312230220094" lon="11.94591160753687"><ele>371.0</ele><time>2026-04-19T11:30:55.008Z</time></trkpt><trkpt lat="42.17533783258277" lon="11.945807936162142"><ele>371.0</ele><time>2026-04-19T11:30:56.008Z</time></trkpt><trkpt lat="42.17538638003115" lon="11.945741663784391"><ele>371.0</ele><time>2026-04-19T11:30:57.008Z</time></trkpt><trkpt lat="42.17545383879241" lon="11.945640724854066"><ele>371.0</ele><time>2026-04-19T11:30:59.008Z</time></trkpt><trkpt lat="42.175558895226594" lon="11.945597546078487"><ele>371.0</ele><time>2026-04-19T11:31:01.008Z</time></trkpt><trkpt lat="42.175613748310184" lon="11.945534696767355"><ele>371.0</ele><time>2026-04-19T11:31:02.008Z</time></trkpt><trkpt lat="42.17569075982838" lon="11.945459051239146"><ele>371.0</ele><time>2026-04-19T11:31:03.008Z</time></trkpt><trkpt lat="42.17576297735299" lon="11.94537807931648"><ele>374.20000000000005</ele><time>2026-04-19T11:31:04.008Z</time></trkpt><trkpt lat="42.175838077770706" lon="11.945288964960096"><ele>377.40000000000003</ele><time>2026-04-19T11:31:05.008Z</time></trkpt><trkpt lat="42.175908076089385" lon="11.945210087596482"><ele>380.6</ele><time>2026-04-19T11:31:06.008Z</time></trkpt><trkpt lat="42.1759716308225" lon="11.945111318487795"><ele>383.8</ele><time>2026-04-19T11:31:07.009Z</time></trkpt><trkpt lat="42.17602911425469" lon="11.945021937609608"><ele>387.0</ele><time>2026-04-19T11:31:08.009Z</time></trkpt><trkpt lat="42.17609449448548" lon="11.944929874109175"><ele>388.0</ele><time>2026-04-19T11:31:09.009Z</time></trkpt><trkpt lat="42.17614040581059" lon="11.94484564375717"><ele>389.0</ele><time>2026-04-19T11:31:10.009Z</time></trkpt><trkpt lat="42.17617693415342" lon="11.944771168236796"><ele>390.0</ele><time>2026-04-19T11:31:11.009Z</time></trkpt><trkpt lat="42.17620940261867" lon="11.944607566162032"><ele>391.0</ele><time>2026-04-19T11:31:13.009Z</time></trkpt><trkpt lat="42.17618754802507" lon="11.944495015827949"><ele>392.0</ele><time>2026-04-19T11:31:14.009Z</time></trkpt><trkpt lat="42.17616842643165" lon="11.944392624981866"><ele>393.0</ele><time>2026-04-19T11:31:15.009Z</time></trkpt><trkpt lat="42.176137401758055" lon="11.944269085602372"><ele>394.0</ele><time>2026-04-19T11:31:16.009Z</time></trkpt><trkpt lat="42.176089927481065" lon="11.944145278674554"><ele>395.0</ele><time>2026-04-19T11:31:17.009Z</time></trkpt><trkpt lat="42.176042643224555" lon="11.944028707472716"><ele>396.0</ele><time>2026-04-19T11:31:18.009Z</time></trkpt><trkpt lat="42.17595964083612" lon="11.94393516445204"><ele>397.0</ele><time>2026-04-19T11:31:19.009Z</time></trkpt><trkpt lat="42.175911370916985" lon="11.943816489620808"><ele>398.0</ele><time>2026-04-19T11:31:20.009Z</time></trkpt><trkpt lat="42.17587340045861" lon="11.943695517635819"><ele>397.99999999999994</ele><time>2026-04-19T11:31:21.009Z</time></trkpt><trkpt lat="42.175835797359774" lon="11.943565279904927"><ele>398.0</ele><time>2026-04-19T11:31:22.009Z</time></trkpt><trkpt lat="42.175840684544006" lon="11.943426902885736"><ele>398.0</ele><time>2026-04-19T11:31:23.009Z</time></trkpt><trkpt lat="42.17582470352521" lon="11.94333131053944"><ele>398.0</ele><time>2026-04-19T11:31:24.009Z</time></trkpt><trkpt lat="42.17581498645203" lon="11.943231728365138"><ele>397.99999999999994</ele><time>2026-04-19T11:31:25.009Z</time></trkpt><trkpt lat="42.175815246363044" lon="11.943119700173366"><ele>398.0</ele><time>2026-04-19T11:31:26.009Z</time></trkpt><trkpt lat="42.175821263170214" lon="11.943005796822346"><ele>398.79999999999995</ele><time>2026-04-19T11:31:27.009Z</time></trkpt><trkpt lat="42.175834482673096" lon="11.942887852476325"><ele>399.6</ele><time>2026-04-19T11:31:28.009Z</time></trkpt><trkpt lat="42.175856401350806" lon="11.942767950831074"><ele>400.4</ele><time>2026-04-19T11:31:29.009Z</time></trkpt><trkpt lat="42.17589120753308" lon="11.942656605090244"><ele>401.20000000000005</ele><time>2026-04-19T11:31:30.009Z</time></trkpt><trkpt lat="42.175931334738564" lon="11.942544282952513"><ele>402.0</ele><time>2026-04-19T11:31:31.009Z</time></trkpt><trkpt lat="42.17599889411653" lon="11.942449533498305"><ele>402.0</ele><time>2026-04-19T11:31:32.009Z</time></trkpt><trkpt lat="42.17607543655531" lon="11.942366359244943"><ele>402.0</ele><time>2026-04-19T11:31:33.009Z</time></trkpt><trkpt lat="42.176162712457035" lon="11.94227729767734"><ele>402.0</ele><time>2026-04-19T11:31:34.009Z</time></trkpt><trkpt lat="42.17624413358855" lon="11.942200896467426"><ele>402.0</ele><time>2026-04-19T11:31:35.009Z</time></trkpt><trkpt lat="42.176314887984155" lon="11.942142194535343"><ele>402.0</ele><time>2026-04-19T11:31:36.009Z</time></trkpt><trkpt lat="42.176411739555526" lon="11.942102727036815"><ele>402.0</ele><time>2026-04-19T11:31:37.009Z</time></trkpt><trkpt lat="42.176505312846224" lon="11.942053755365109"><ele>402.0</ele><time>2026-04-19T11:31:38.009Z</time></trkpt><trkpt lat="42.17660548665712" lon="11.941991318264588"><ele>402.0</ele><time>2026-04-19T11:31:39.009Z</time></trkpt><trkpt lat="42.176711840481104" lon="11.94198244765744"><ele>402.0</ele><time>2026-04-19T11:31:40.01Z</time></trkpt><trkpt lat="42.17681226541803" lon="11.94197925996054"><ele>402.0</ele><time>2026-04-19T11:31:41.01Z</time></trkpt><trkpt lat="42.17691146262137" lon="11.941971938162501"><ele>403.40000000000003</ele><time>2026-04-19T11:31:42.01Z</time></trkpt><trkpt lat="42.177018304101615" lon="11.94197398265058"><ele>404.8</ele><time>2026-04-19T11:31:43.01Z</time></trkpt><trkpt lat="42.1771250776024" lon="11.942002077412782"><ele>406.2</ele><time>2026-04-19T11:31:44.01Z</time></trkpt><trkpt lat="42.1772370889143" lon="11.942017119991602"><ele>407.6</ele><time>2026-04-19T11:31:45.01Z</time></trkpt><trkpt lat="42.17735015733397" lon="11.942032304540003"><ele>409.0</ele><time>2026-04-19T11:31:46.01Z</time></trkpt><trkpt lat="42.177466637641544" lon="11.94203996506981"><ele>409.0</ele><time>2026-04-19T11:31:47.01Z</time></trkpt><trkpt lat="42.177581991918686" lon="11.942073910031473"><ele>409.0</ele><time>2026-04-19T11:31:48.01Z</time></trkpt><trkpt lat="42.17768596882233" lon="11.942083160749643"><ele>409.0</ele><time>2026-04-19T11:31:49.01Z</time></trkpt><trkpt lat="42.17778392995629" lon="11.942082643007678"><ele>409.0</ele><time>2026-04-19T11:31:50.01Z</time></trkpt><trkpt lat="42.1778774125736" lon="11.942119324521396"><ele>409.0</ele><time>2026-04-19T11:31:51.01Z</time></trkpt><trkpt lat="42.17799245408875" lon="11.94213574654913"><ele>409.0</ele><time>2026-04-19T11:31:52.01Z</time></trkpt><trkpt lat="42.17810432972195" lon="11.942132460371788"><ele>409.0</ele><time>2026-04-19T11:31:53.01Z</time></trkpt><trkpt lat="42.178188547430906" lon="11.94216788696836"><ele>409.0</ele><time>2026-04-19T11:31:54.01Z</time></trkpt><trkpt lat="42.17828443800252" lon="11.942182382328657"><ele>409.0</ele><time>2026-04-19T11:31:55.01Z</time></trkpt><trkpt lat="42.17839034081216" lon="11.942187283631293"><ele>409.0</ele><time>2026-04-19T11:31:56.01Z</time></trkpt><trkpt lat="42.178503003004565" lon="11.942190454092936"><ele>410.75</ele><time>2026-04-19T11:31:57.01Z</time></trkpt><trkpt lat="42.17862907150394" lon="11.942195769121088"><ele>412.5</ele><time>2026-04-19T11:31:58.01Z</time></trkpt><trkpt lat="42.178748033639" lon="11.942205089328317"><ele>414.25</ele><time>2026-04-19T11:31:59.01Z</time></trkpt><trkpt lat="42.17886613194008" lon="11.942205514548691"><ele>416.0</ele><time>2026-04-19T11:32:00.01Z</time></trkpt><trkpt lat="42.1789821522851" lon="11.942213559816606"><ele>417.4</ele><time>2026-04-19T11:32:01.01Z</time></trkpt><trkpt lat="42.179089800453596" lon="11.94220352202155"><ele>418.8</ele><time>2026-04-19T11:32:02.01Z</time></trkpt><trkpt lat="42.17918079382633" lon="11.942206849377861"><ele>420.2</ele><time>2026-04-19T11:32:03.01Z</time></trkpt><trkpt lat="42.17926036930735" lon="11.942206721367395"><ele>421.59999999999997</ele><time>2026-04-19T11:32:04.01Z</time></trkpt><trkpt lat="42.17936219479285" lon="11.942212051089186"><ele>423.0</ele><time>2026-04-19T11:32:05.01Z</time></trkpt><trkpt lat="42.17947042871285" lon="11.94221891989719"><ele>423.0</ele><time>2026-04-19T11:32:06.01Z</time></trkpt><trkpt lat="42.1795725714081" lon="11.94222203823836"><ele>423.0</ele><time>2026-04-19T11:32:07.01Z</time></trkpt><trkpt lat="42.179686114056324" lon="11.942219656407918"><ele>423.0</ele><time>2026-04-19T11:32:08.01Z</time></trkpt><trkpt lat="42.17979083545302" lon="11.942224033868873"><ele>423.0</ele><time>2026-04-19T11:32:09.01Z</time></trkpt><trkpt lat="42.179895049846685" lon="11.942216161894894"><ele>423.0</ele><time>2026-04-19T11:32:10.01Z</time></trkpt><trkpt lat="42.179989563764856" lon="11.94219384690243"><ele>425.0</ele><time>2026-04-19T11:32:11.01Z</time></trkpt><trkpt lat="42.18008859158422" lon="11.94217688016543"><ele>427.0</ele><time>2026-04-19T11:32:12.01Z</time></trkpt><trkpt lat="42.18019994891174" lon="11.942150283376908"><ele>428.99999999999994</ele><time>2026-04-19T11:32:13.01Z</time></trkpt><trkpt lat="42.18029581457567" lon="11.942132606948478"><ele>431.0</ele><time>2026-04-19T11:32:14.011Z</time></trkpt><trkpt lat="42.18038050841586" lon="11.942111307215802"><ele>433.0</ele><time>2026-04-19T11:32:15.011Z</time></trkpt><trkpt lat="42.180479295740206" lon="11.942086600642321"><ele>433.0</ele><time>2026-04-19T11:32:16.011Z</time></trkpt><trkpt lat="42.180578338298005" lon="11.94206499282802"><ele>432.99999999999994</ele><time>2026-04-19T11:32:17.011Z</time></trkpt><trkpt lat="42.18066167172026" lon="11.942029385085059"><ele>432.99999999999994</ele><time>2026-04-19T11:32:18.011Z</time></trkpt><trkpt lat="42.18076110622353" lon="11.942006038555858"><ele>433.0</ele><time>2026-04-19T11:32:19.011Z</time></trkpt><trkpt lat="42.18086173080296" lon="11.941987799174463"><ele>433.0</ele><time>2026-04-19T11:32:20.011Z</time></trkpt><trkpt lat="42.180956721118406" lon="11.941938935989905"><ele>434.6666666666667</ele><time>2026-04-19T11:32:21.011Z</time></trkpt><trkpt lat="42.18103994999803" lon="11.941894809106145"><ele>436.33333333333337</ele><time>2026-04-19T11:32:22.011Z</time></trkpt><trkpt lat="42.181110098272235" lon="11.941857968726357"><ele>438.0</ele><time>2026-04-19T11:32:23.011Z</time></trkpt><trkpt lat="42.18118256667249" lon="11.941829227572223"><ele>439.66666666666663</ele><time>2026-04-19T11:32:24.011Z</time></trkpt><trkpt lat="42.18127251505785" lon="11.941806904724418"><ele>441.3333333333333</ele><time>2026-04-19T11:32:25.011Z</time></trkpt><trkpt lat="42.18135675080931" lon="11.941765923376863"><ele>443.0</ele><time>2026-04-19T11:32:26.011Z</time></trkpt><trkpt lat="42.18143673364287" lon="11.941732911832425"><ele>444.59999999999997</ele><time>2026-04-19T11:32:27.011Z</time></trkpt><trkpt lat="42.181520872948205" lon="11.94172739396856"><ele>446.19999999999993</ele><time>2026-04-19T11:32:28.011Z</time></trkpt><trkpt lat="42.18160222371054" lon="11.941751365467974"><ele>447.8</ele><time>2026-04-19T11:32:29.011Z</time></trkpt><trkpt lat="42.18169415619285" lon="11.94178307990835"><ele>449.4</ele><time>2026-04-19T11:32:30.011Z</time></trkpt><trkpt lat="42.18178115290902" lon="11.941835222088711"><ele>451.0</ele><time>2026-04-19T11:32:31.011Z</time></trkpt><trkpt lat="42.181875097099585" lon="11.941884515929873"><ele>451.0</ele><time>2026-04-19T11:32:32.011Z</time></trkpt><trkpt lat="42.18196597402253" lon="11.941910458895299"><ele>451.0</ele><time>2026-04-19T11:32:33.011Z</time></trkpt><trkpt lat="42.18204278722342" lon="11.94196693350782"><ele>451.0</ele><time>2026-04-19T11:32:34.011Z</time></trkpt><trkpt lat="42.182152245720424" lon="11.94199904932189"><ele>451.0</ele><time>2026-04-19T11:32:35.011Z</time></trkpt><trkpt lat="42.18227131253194" lon="11.942021288772791"><ele>451.0</ele><time>2026-04-19T11:32:36.011Z</time></trkpt><trkpt lat="42.18236238170794" lon="11.942038867825998"><ele>450.1666666666667</ele><time>2026-04-19T11:32:37.011Z</time></trkpt><trkpt lat="42.182433514882526" lon="11.942082826670191"><ele>449.33333333333337</ele><time>2026-04-19T11:32:38.011Z</time></trkpt><trkpt lat="42.182504660772054" lon="11.94210463462033"><ele>448.5</ele><time>2026-04-19T11:32:39.011Z</time></trkpt><trkpt lat="42.182557985601726" lon="11.942179294989284"><ele>447.66666666666663</ele><time>2026-04-19T11:32:40.011Z</time></trkpt><trkpt lat="42.182629203276534" lon="11.942245625858599"><ele>446.8333333333333</ele><time>2026-04-19T11:32:41.011Z</time></trkpt><trkpt lat="42.18268224904952" lon="11.942321785035794"><ele>446.0</ele><time>2026-04-19T11:32:42.011Z</time></trkpt><trkpt lat="42.182756557459356" lon="11.942382983991887"><ele>445.99999999999994</ele><time>2026-04-19T11:32:43.011Z</time></trkpt><trkpt lat="42.18282184759648" lon="11.942450686279352"><ele>446.0</ele><time>2026-04-19T11:32:44.011Z</time></trkpt><trkpt lat="42.18289135815167" lon="11.942519272114279"><ele>446.0</ele><time>2026-04-19T11:32:45.011Z</time></trkpt><trkpt lat="42.182966591969716" lon="11.942591299579739"><ele>446.0</ele><time>2026-04-19T11:32:46.011Z</time></trkpt><trkpt lat="42.18301740406909" lon="11.942681437458758"><ele>445.99999999999994</ele><time>2026-04-19T11:32:47.012Z</time></trkpt><trkpt lat="42.183077196583056" lon="11.942752340443889"><ele>446.0</ele><time>2026-04-19T11:32:48.012Z</time></trkpt><trkpt lat="42.18313283115193" lon="11.942831164475193"><ele>443.8333333333333</ele><time>2026-04-19T11:32:49.012Z</time></trkpt><trkpt lat="42.18318890047956" lon="11.942934827580594"><ele>441.66666666666663</ele><time>2026-04-19T11:32:50.012Z</time></trkpt><trkpt lat="42.18323636390362" lon="11.943049201707057"><ele>439.5</ele><time>2026-04-19T11:32:51.012Z</time></trkpt><trkpt lat="42.18328302333324" lon="11.94316809799992"><ele>437.33333333333337</ele><time>2026-04-19T11:32:52.012Z</time></trkpt><trkpt lat="42.183305793611844" lon="11.943262047685476"><ele>435.1666666666667</ele><time>2026-04-19T11:32:53.012Z</time></trkpt><trkpt lat="42.183324993226954" lon="11.94335915249525"><ele>433.0</ele><time>2026-04-19T11:32:54.012Z</time></trkpt><trkpt lat="42.18333456036445" lon="11.943470815582632"><ele>433.00000000000006</ele><time>2026-04-19T11:32:55.012Z</time></trkpt><trkpt lat="42.183331093312084" lon="11.943589476710637"><ele>433.0</ele><time>2026-04-19T11:32:56.012Z</time></trkpt><trkpt lat="42.18333568278525" lon="11.943713325965053"><ele>433.0</ele><time>2026-04-19T11:32:57.012Z</time></trkpt><trkpt lat="42.18335014956541" lon="11.943828353901633"><ele>433.0</ele><time>2026-04-19T11:32:58.012Z</time></trkpt><trkpt lat="42.183349360834136" lon="11.943935496663189"><ele>433.00000000000006</ele><time>2026-04-19T11:32:59.012Z</time></trkpt><trkpt lat="42.18335245266504" lon="11.944024444179552"><ele>433.0</ele><time>2026-04-19T11:33:00.012Z</time></trkpt><trkpt lat="42.183382831554034" lon="11.944163103897912"><ele>433.00000000000006</ele><time>2026-04-19T11:33:02.012Z</time></trkpt><trkpt lat="42.18342006020168" lon="11.94425350554665"><ele>433.0</ele><time>2026-04-19T11:33:15.012Z</time></trkpt><trkpt lat="42.18350788985223" lon="11.944308070511454"><ele>433.0</ele><time>2026-04-19T11:33:17.012Z</time></trkpt><trkpt lat="42.183466618483365" lon="11.944231296620163"><ele>433.0</ele><time>2026-04-19T11:33:26.013Z</time></trkpt><trkpt lat="42.183403219654664" lon="11.944134404694818"><ele>433.00000000000006</ele><time>2026-04-19T11:33:28.013Z</time></trkpt><trkpt lat="42.18338366929245" lon="11.944049740672611"><ele>433.0</ele><time>2026-04-19T11:33:29.013Z</time></trkpt><trkpt lat="42.183380095646356" lon="11.943936838419479"><ele>433.0</ele><time>2026-04-19T11:33:30.013Z</time></trkpt><trkpt lat="42.183381575430566" lon="11.94380882863392"><ele>432.99999999999994</ele><time>2026-04-19T11:33:31.013Z</time></trkpt><trkpt lat="42.18338421563582" lon="11.943675843410842"><ele>432.99999999999994</ele><time>2026-04-19T11:33:32.013Z</time></trkpt><trkpt lat="42.18337199248015" lon="11.94353893050017"><ele>433.0</ele><time>2026-04-19T11:33:33.013Z</time></trkpt><trkpt lat="42.18336599770173" lon="11.943418353588477"><ele>433.0</ele><time>2026-04-19T11:33:34.013Z</time></trkpt><trkpt lat="42.18335813664717" lon="11.943309806551985"><ele>432.2</ele><time>2026-04-19T11:33:35.013Z</time></trkpt><trkpt lat="42.18334703294937" lon="11.943221835641971"><ele>431.4</ele><time>2026-04-19T11:33:36.013Z</time></trkpt><trkpt lat="42.183315091369785" lon="11.943100063665995"><ele>430.59999999999997</ele><time>2026-04-19T11:33:37.013Z</time></trkpt><trkpt lat="42.1832659326001" lon="11.942982372089784"><ele>429.79999999999995</ele><time>2026-04-19T11:33:38.013Z</time></trkpt><trkpt lat="42.18321342276697" lon="11.942867707390306"><ele>429.0</ele><time>2026-04-19T11:33:39.013Z</time></trkpt><trkpt lat="42.18315174503817" lon="11.942776469379956"><ele>432.4</ele><time>2026-04-19T11:33:40.013Z</time></trkpt><trkpt lat="42.18308733983636" lon="11.942695907663959"><ele>435.79999999999995</ele><time>2026-04-19T11:33:41.013Z</time></trkpt><trkpt lat="42.18301684115655" lon="11.942644278027974"><ele>439.20000000000005</ele><time>2026-04-19T11:33:42.013Z</time></trkpt><trkpt lat="42.18294279423791" lon="11.94255907611561"><ele>442.6</ele><time>2026-04-19T11:33:43.013Z</time></trkpt><trkpt lat="42.18287291372989" lon="11.942481782899492"><ele>446.0</ele><time>2026-04-19T11:33:44.013Z</time></trkpt><trkpt lat="42.18277335873333" lon="11.942414392732505"><ele>445.99999999999994</ele><time>2026-04-19T11:33:45.013Z</time></trkpt><trkpt lat="42.182699708257566" lon="11.94233902046767"><ele>446.0</ele><time>2026-04-19T11:33:46.013Z</time></trkpt><trkpt lat="42.18264120397419" lon="11.942252445700879"><ele>446.0</ele><time>2026-04-19T11:33:47.013Z</time></trkpt><trkpt lat="42.182576929214164" lon="11.942173935830501"><ele>446.0</ele><time>2026-04-19T11:33:48.013Z</time></trkpt><trkpt lat="42.18250611003671" lon="11.942112142930187"><ele>445.99999999999994</ele><time>2026-04-19T11:33:49.013Z</time></trkpt><trkpt lat="42.182430913701914" lon="11.942067567950428"><ele>446.0</ele><time>2026-04-19T11:33:50.013Z</time></trkpt><trkpt lat="42.18234659306333" lon="11.942038303296245"><ele>446.8333333333333</ele><time>2026-04-19T11:33:51.013Z</time></trkpt><trkpt lat="42.18225885633496" lon="11.941985244061792"><ele>447.66666666666663</ele><time>2026-04-19T11:33:52.013Z</time></trkpt><trkpt lat="42.18216918916131" lon="11.941971074961417"><ele>448.5</ele><time>2026-04-19T11:33:53.013Z</time></trkpt><trkpt lat="42.18210215239618" lon="11.941955607657242"><ele>449.33333333333337</ele><time>2026-04-19T11:33:54.014Z</time></trkpt><trkpt lat="42.18203463649066" lon="11.941924276046628"><ele>450.1666666666667</ele><time>2026-04-19T11:33:55.014Z</time></trkpt><trkpt lat="42.18195897130385" lon="11.941881391716747"><ele>451.0</ele><time>2026-04-19T11:33:56.014Z</time></trkpt><trkpt lat="42.18185242046368" lon="11.94182422797576"><ele>451.0</ele><time>2026-04-19T11:33:57.014Z</time></trkpt><trkpt lat="42.181760166543725" lon="11.941776315475717"><ele>451.0</ele><time>2026-04-19T11:33:58.014Z</time></trkpt><trkpt lat="42.181650371628194" lon="11.941743499483287"><ele>451.0</ele><time>2026-04-19T11:33:59.014Z</time></trkpt><trkpt lat="42.18156023062275" lon="11.94169811637084"><ele>451.0</ele><time>2026-04-19T11:34:00.014Z</time></trkpt><trkpt lat="42.18145957758777" lon="11.941701372956809"><ele>451.0</ele><time>2026-04-19T11:34:01.014Z</time></trkpt><trkpt lat="42.18137901841233" lon="11.941721028408535"><ele>449.6666666666667</ele><time>2026-04-19T11:34:02.014Z</time></trkpt><trkpt lat="42.18131442470254" lon="11.941744539690239"><ele>448.33333333333337</ele><time>2026-04-19T11:34:03.014Z</time></trkpt><trkpt lat="42.18125366039744" lon="11.941770165125167"><ele>447.0</ele><time>2026-04-19T11:34:04.014Z</time></trkpt><trkpt lat="42.18115754694374" lon="11.941811283353196"><ele>445.66666666666663</ele><time>2026-04-19T11:34:06.014Z</time></trkpt><trkpt lat="42.181251949782244" lon="11.941747352297384"><ele>444.3333333333333</ele><time>2026-04-19T11:34:12.014Z</time></trkpt><trkpt lat="42.18131253495997" lon="11.94172169482145"><ele>443.0</ele><time>2026-04-19T11:34:13.014Z</time></trkpt><trkpt lat="42.18139184168527" lon="11.941695765450845"><ele>442.0</ele><time>2026-04-19T11:34:14.014Z</time></trkpt><trkpt lat="42.18146357682973" lon="11.94167997797134"><ele>441.0</ele><time>2026-04-19T11:34:15.014Z</time></trkpt><trkpt lat="42.18158949767367" lon="11.941682513707221"><ele>440.0</ele><time>2026-04-19T11:34:17.014Z</time></trkpt><trkpt lat="42.18166865896991" lon="11.941705639963388"><ele>439.0</ele><time>2026-04-19T11:34:19.014Z</time></trkpt><trkpt lat="42.18179441478909" lon="11.941514260975783"><ele>439.0</ele><time>2026-04-19T11:34:22.014Z</time></trkpt><trkpt lat="42.18188652944188" lon="11.941431313835455"><ele>439.0</ele><time>2026-04-19T11:34:24.014Z</time></trkpt><trkpt lat="42.181976187550376" lon="11.941355120122516"><ele>439.0</ele><time>2026-04-19T11:34:26.014Z</time></trkpt><trkpt lat="42.182066816139326" lon="11.94128286128242"><ele>439.0</ele><time>2026-04-19T11:34:28.015Z</time></trkpt><trkpt lat="42.182142560121406" lon="11.941213716485612"><ele>439.0</ele><time>2026-04-19T11:34:30.015Z</time></trkpt><trkpt lat="42.18224700108306" lon="11.941141086340776"><ele>439.00000000000006</ele><time>2026-04-19T11:34:32.015Z</time></trkpt><trkpt lat="42.18230864349651" lon="11.941102705570435"><ele>439.0</ele><time>2026-04-19T11:34:33.015Z</time></trkpt><trkpt lat="42.182369680608815" lon="11.941063166900458"><ele>439.0</ele><time>2026-04-19T11:34:34.015Z</time></trkpt><trkpt lat="42.182467486114106" lon="11.941002616246791"><ele>439.0</ele><time>2026-04-19T11:34:36.015Z</time></trkpt><trkpt lat="42.182550240550086" lon="11.940980503674098"><ele>439.00000000000006</ele><time>2026-04-19T11:34:38.015Z</time></trkpt><trkpt lat="42.18260348927114" lon="11.94093010735675"><ele>439.0</ele><time>2026-04-19T11:34:39.015Z</time></trkpt><trkpt lat="42.18266236814434" lon="11.940868225092313"><ele>438.1666666666667</ele><time>2026-04-19T11:34:40.015Z</time></trkpt><trkpt lat="42.18275575575184" lon="11.940743971697541"><ele>437.33333333333337</ele><time>2026-04-19T11:34:42.015Z</time></trkpt><trkpt lat="42.182814009150555" lon="11.94068612536352"><ele>436.5</ele><time>2026-04-19T11:34:43.015Z</time></trkpt><trkpt lat="42.182875010124775" lon="11.940641862994648"><ele>435.66666666666663</ele><time>2026-04-19T11:34:44.015Z</time></trkpt><trkpt lat="42.182950394516006" lon="11.940606323625731"><ele>434.8333333333333</ele><time>2026-04-19T11:34:45.015Z</time></trkpt><trkpt lat="42.18302496499036" lon="11.940572812411888"><ele>434.0</ele><time>2026-04-19T11:34:46.015Z</time></trkpt><trkpt lat="42.183093917218144" lon="11.9405418616685"><ele>431.66666666666663</ele><time>2026-04-19T11:34:47.015Z</time></trkpt><trkpt lat="42.18321120568905" lon="11.940574945558033"><ele>429.3333333333333</ele><time>2026-04-19T11:34:49.015Z</time></trkpt><trkpt lat="42.18329240088206" lon="11.940614694700265"><ele>427.0</ele><time>2026-04-19T11:34:50.015Z</time></trkpt><trkpt lat="42.1833815511104" lon="11.940637448848573"><ele>424.66666666666663</ele><time>2026-04-19T11:34:51.015Z</time></trkpt><trkpt lat="42.18344566929171" lon="11.940639770970645"><ele>422.3333333333333</ele><time>2026-04-19T11:34:52.015Z</time></trkpt><trkpt lat="42.183512912645334" lon="11.940641253890462"><ele>420.0</ele><time>2026-04-19T11:34:53.015Z</time></trkpt><trkpt lat="42.183641795107185" lon="11.9406279839817"><ele>420.0</ele><time>2026-04-19T11:34:55.015Z</time></trkpt><trkpt lat="42.1837179099541" lon="11.940604175792407"><ele>420.0</ele><time>2026-04-19T11:34:56.015Z</time></trkpt><trkpt lat="42.183800424087764" lon="11.94056739288537"><ele>420.0</ele><time>2026-04-19T11:34:57.015Z</time></trkpt><trkpt lat="42.18387473436577" lon="11.940535561802074"><ele>420.0</ele><time>2026-04-19T11:34:58.015Z</time></trkpt><trkpt lat="42.183934543011766" lon="11.94049850232171"><ele>420.0</ele><time>2026-04-19T11:34:59.015Z</time></trkpt><trkpt lat="42.18405298172272" lon="11.940473488058053"><ele>420.0</ele><time>2026-04-19T11:35:01.016Z</time></trkpt><trkpt lat="42.184123550398375" lon="11.940454763470138"><ele>418.0</ele><time>2026-04-19T11:35:02.016Z</time></trkpt><trkpt lat="42.18419294461826" lon="11.940422678628526"><ele>416.0</ele><time>2026-04-19T11:35:03.016Z</time></trkpt><trkpt lat="42.18426948570191" lon="11.940372236792804"><ele>414.0</ele><time>2026-04-19T11:35:04.016Z</time></trkpt><trkpt lat="42.18434208040184" lon="11.940318250703518"><ele>412.0</ele><time>2026-04-19T11:35:05.016Z</time></trkpt><trkpt lat="42.18440899506542" lon="11.94026524448779"><ele>410.0</ele><time>2026-04-19T11:35:06.016Z</time></trkpt><trkpt lat="42.18451247278281" lon="11.940206346202316"><ele>408.0</ele><time>2026-04-19T11:35:08.016Z</time></trkpt><trkpt lat="42.18459724382365" lon="11.940169299694224"><ele>408.0</ele><time>2026-04-19T11:35:10.016Z</time></trkpt><trkpt lat="42.18465405888178" lon="11.940084950758468"><ele>408.0</ele><time>2026-04-19T11:35:12.016Z</time></trkpt><trkpt lat="42.1847203041887" lon="11.939923776865266"><ele>408.0</ele><time>2026-04-19T11:35:14.016Z</time></trkpt><trkpt lat="42.18475424353771" lon="11.939838500787925"><ele>408.0</ele><time>2026-04-19T11:35:15.016Z</time></trkpt><trkpt lat="42.18478773857979" lon="11.939705320521428"><ele>408.0</ele><time>2026-04-19T11:35:17.016Z</time></trkpt><trkpt lat="42.18478396339641" lon="11.939564044154372"><ele>412.4</ele><time>2026-04-19T11:35:19.016Z</time></trkpt><trkpt lat="42.18479455164195" lon="11.939404104146476"><ele>416.79999999999995</ele><time>2026-04-19T11:35:21.016Z</time></trkpt><trkpt lat="42.18478257842077" lon="11.9392549751762"><ele>421.2</ele><time>2026-04-19T11:35:23.016Z</time></trkpt><trkpt lat="42.1847582705505" lon="11.939170172992574"><ele>425.6</ele><time>2026-04-19T11:35:24.016Z</time></trkpt><trkpt lat="42.184738810466605" lon="11.939086516059088"><ele>430.0</ele><time>2026-04-19T11:35:25.016Z</time></trkpt><trkpt lat="42.18473332543549" lon="11.938954904395677"><ele>432.00000000000006</ele><time>2026-04-19T11:35:27.016Z</time></trkpt><trkpt lat="42.18475981396982" lon="11.9388583791293"><ele>434.0</ele><time>2026-04-19T11:35:29.016Z</time></trkpt><trkpt lat="42.18481179581317" lon="11.93879957906363"><ele>436.0</ele><time>2026-04-19T11:35:31.016Z</time></trkpt><trkpt lat="42.184897756471166" lon="11.938751980321978"><ele>438.0</ele><time>2026-04-19T11:35:33.016Z</time></trkpt><trkpt lat="42.184964249302574" lon="11.938767924136364"><ele>440.00000000000006</ele><time>2026-04-19T11:35:34.017Z</time></trkpt><trkpt lat="42.185038761755074" lon="11.93879299642694"><ele>442.0</ele><time>2026-04-19T11:35:35.017Z</time></trkpt><trkpt lat="42.18511197207901" lon="11.938801416995572"><ele>435.83333333333337</ele><time>2026-04-19T11:35:36.017Z</time></trkpt><trkpt lat="42.18518268735586" lon="11.938798578694152"><ele>429.6666666666667</ele><time>2026-04-19T11:35:37.017Z</time></trkpt><trkpt lat="42.185245962580225" lon="11.938786723384037"><ele>423.5</ele><time>2026-04-19T11:35:38.017Z</time></trkpt><trkpt lat="42.18530959514442" lon="11.938774957664577"><ele>417.33333333333337</ele><time>2026-04-19T11:35:39.017Z</time></trkpt><trkpt lat="42.185387575735874" lon="11.93873439134787"><ele>411.1666666666667</ele><time>2026-04-19T11:35:40.017Z</time></trkpt><trkpt lat="42.18546576482819" lon="11.938691057550793"><ele>405.0</ele><time>2026-04-19T11:35:41.017Z</time></trkpt><trkpt lat="42.18555340092191" lon="11.938644303707777"><ele>405.0</ele><time>2026-04-19T11:35:42.017Z</time></trkpt><trkpt lat="42.185626196829254" lon="11.938596857902244"><ele>405.0</ele><time>2026-04-19T11:35:43.017Z</time></trkpt><trkpt lat="42.185696612157" lon="11.93855434656525"><ele>405.0</ele><time>2026-04-19T11:35:44.017Z</time></trkpt><trkpt lat="42.185760053484415" lon="11.93854430496911"><ele>405.0</ele><time>2026-04-19T11:35:45.017Z</time></trkpt><trkpt lat="42.185889092285755" lon="11.938521637230338"><ele>405.0</ele><time>2026-04-19T11:35:47.017Z</time></trkpt><trkpt lat="42.18597075976609" lon="11.93852190214323"><ele>405.0</ele><time>2026-04-19T11:35:49.017Z</time></trkpt><trkpt lat="42.18603008901681" lon="11.93855481218786"><ele>403.1666666666667</ele><time>2026-04-19T11:35:50.017Z</time></trkpt><trkpt lat="42.186095496211045" lon="11.938613896313042"><ele>401.33333333333337</ele><time>2026-04-19T11:35:51.017Z</time></trkpt><trkpt lat="42.18615066316848" lon="11.938690332780249"><ele>399.5</ele><time>2026-04-19T11:35:52.017Z</time></trkpt><trkpt lat="42.186200175350905" lon="11.938775377962866"><ele>397.6666666666667</ele><time>2026-04-19T11:35:53.017Z</time></trkpt><trkpt lat="42.18623096227924" lon="11.938865254241161"><ele>395.83333333333337</ele><time>2026-04-19T11:35:54.017Z</time></trkpt><trkpt lat="42.18628099390809" lon="11.938972475452811"><ele>394.0</ele><time>2026-04-19T11:35:55.017Z</time></trkpt><trkpt lat="42.18633587331952" lon="11.93908366278042"><ele>394.0</ele><time>2026-04-19T11:35:56.017Z</time></trkpt><trkpt lat="42.186381133597415" lon="11.939181778921697"><ele>394.0</ele><time>2026-04-19T11:35:57.017Z</time></trkpt><trkpt lat="42.18642669225042" lon="11.93928324596168"><ele>394.0</ele><time>2026-04-19T11:35:58.017Z</time></trkpt><trkpt lat="42.18646769152864" lon="11.939370285156421"><ele>394.0</ele><time>2026-04-19T11:35:59.017Z</time></trkpt><trkpt lat="42.18653977742661" lon="11.939484410571495"><ele>394.0</ele><time>2026-04-19T11:36:01.017Z</time></trkpt><trkpt lat="42.1866325315653" lon="11.939537033133623"><ele>392.2</ele><time>2026-04-19T11:36:03.017Z</time></trkpt><trkpt lat="42.18677514007396" lon="11.93954685375308"><ele>390.4</ele><time>2026-04-19T11:36:05.017Z</time></trkpt><trkpt lat="42.186866043064484" lon="11.939581747950696"><ele>388.6</ele><time>2026-04-19T11:36:06.017Z</time></trkpt><trkpt lat="42.186953247324546" lon="11.939597742391214"><ele>386.8</ele><time>2026-04-19T11:36:07.018Z</time></trkpt><trkpt lat="42.18702358559249" lon="11.939605409221008"><ele>385.0</ele><time>2026-04-19T11:36:08.018Z</time></trkpt><trkpt lat="42.18710768684473" lon="11.93956540365172"><ele>385.0</ele><time>2026-04-19T11:36:10.018Z</time></trkpt><trkpt lat="42.18715970055686" lon="11.939467867211352"><ele>385.0</ele><time>2026-04-19T11:36:13.018Z</time></trkpt><trkpt lat="42.18720266281268" lon="11.939367086867929"><ele>385.0</ele><time>2026-04-19T11:36:15.018Z</time></trkpt><trkpt lat="42.187220418797445" lon="11.939190202069655"><ele>385.0</ele><time>2026-04-19T11:36:17.018Z</time></trkpt><trkpt lat="42.18723899858337" lon="11.939014234626212"><ele>385.0</ele><time>2026-04-19T11:36:19.018Z</time></trkpt><trkpt lat="42.18725359127214" lon="11.938919344149957"><ele>388.8</ele><time>2026-04-19T11:36:20.018Z</time></trkpt><trkpt lat="42.18726642276549" lon="11.938752015988936"><ele>392.6</ele><time>2026-04-19T11:36:22.018Z</time></trkpt><trkpt lat="42.187275287477426" lon="11.93864664283557"><ele>396.4</ele><time>2026-04-19T11:36:23.018Z</time></trkpt><trkpt lat="42.1873000529465" lon="11.938481976644141"><ele>400.2</ele><time>2026-04-19T11:36:25.018Z</time></trkpt><trkpt lat="42.18731457179014" lon="11.938387793745889"><ele>404.0</ele><time>2026-04-19T11:36:26.018Z</time></trkpt><trkpt lat="42.187315124243604" lon="11.938300969326857"><ele>405.0</ele><time>2026-04-19T11:36:27.018Z</time></trkpt><trkpt lat="42.1873005319738" lon="11.938140033470464"><ele>406.0</ele><time>2026-04-19T11:36:29.018Z</time></trkpt><trkpt lat="42.187284008195725" lon="11.938043627460623"><ele>407.0</ele><time>2026-04-19T11:36:30.018Z</time></trkpt><trkpt lat="42.18727723474894" lon="11.937953360499389"><ele>408.0</ele><time>2026-04-19T11:36:31.018Z</time></trkpt><trkpt lat="42.18723684410009" lon="11.937801259102647"><ele>409.0</ele><time>2026-04-19T11:36:33.018Z</time></trkpt><trkpt lat="42.18716448574926" lon="11.937670703711461"><ele>409.00000000000006</ele><time>2026-04-19T11:36:35.018Z</time></trkpt><trkpt lat="42.18712211031469" lon="11.93759634248375"><ele>409.0</ele><time>2026-04-19T11:36:36.018Z</time></trkpt><trkpt lat="42.187061505111835" lon="11.937534579564618"><ele>409.0</ele><time>2026-04-19T11:36:37.018Z</time></trkpt><trkpt lat="42.18698903813259" lon="11.937479195076515"><ele>409.0</ele><time>2026-04-19T11:36:38.018Z</time></trkpt><trkpt lat="42.186919438906294" lon="11.937440199965359"><ele>409.00000000000006</ele><time>2026-04-19T11:36:39.018Z</time></trkpt><trkpt lat="42.186851640355606" lon="11.937394319721923"><ele>409.0</ele><time>2026-04-19T11:36:40.019Z</time></trkpt><trkpt lat="42.1867746452217" lon="11.937278773372366"><ele>407.83333333333337</ele><time>2026-04-19T11:36:42.019Z</time></trkpt><trkpt lat="42.18676797424479" lon="11.937112470453025"><ele>406.6666666666667</ele><time>2026-04-19T11:36:44.019Z</time></trkpt><trkpt lat="42.18678433498709" lon="11.937012063864312"><ele>405.5</ele><time>2026-04-19T11:36:45.019Z</time></trkpt><trkpt lat="42.18680716776699" lon="11.936911305148259"><ele>404.33333333333337</ele><time>2026-04-19T11:36:46.019Z</time></trkpt><trkpt lat="42.18684561965621" lon="11.936803449017734"><ele>403.1666666666667</ele><time>2026-04-19T11:36:47.019Z</time></trkpt><trkpt lat="42.18689135057831" lon="11.93671122927685"><ele>402.0</ele><time>2026-04-19T11:36:48.019Z</time></trkpt><trkpt lat="42.18693938822588" lon="11.93662603122756"><ele>401.6666666666667</ele><time>2026-04-19T11:36:49.019Z</time></trkpt><trkpt lat="42.186976699832826" lon="11.93655317808927"><ele>401.33333333333337</ele><time>2026-04-19T11:36:50.019Z</time></trkpt><trkpt lat="42.187020038360785" lon="11.936489643331413"><ele>401.0</ele><time>2026-04-19T11:36:51.019Z</time></trkpt><trkpt lat="42.18707114879384" lon="11.936412110640303"><ele>400.6666666666667</ele><time>2026-04-19T11:36:52.019Z</time></trkpt><trkpt lat="42.18713613066433" lon="11.936309873103628"><ele>400.33333333333337</ele><time>2026-04-19T11:36:53.019Z</time></trkpt><trkpt lat="42.1871928633321" lon="11.93621428568485"><ele>400.0</ele><time>2026-04-19T11:36:54.019Z</time></trkpt><trkpt lat="42.18724009292962" lon="11.93614406836354"><ele>400.00000000000006</ele><time>2026-04-19T11:36:55.019Z</time></trkpt><trkpt lat="42.18729534564249" lon="11.93601278748302"><ele>400.0</ele><time>2026-04-19T11:36:57.019Z</time></trkpt><trkpt lat="42.187347377084016" lon="11.935952874294605"><ele>400.0</ele><time>2026-04-19T11:36:59.019Z</time></trkpt><trkpt lat="42.187417030659944" lon="11.935937428576048"><ele>400.0</ele><time>2026-04-19T11:37:01.019Z</time></trkpt><trkpt lat="42.187495651078414" lon="11.935960121633139"><ele>400.00000000000006</ele><time>2026-04-19T11:37:03.019Z</time></trkpt><trkpt lat="42.187572651129464" lon="11.935969056419903"><ele>400.0</ele><time>2026-04-19T11:37:05.019Z</time></trkpt><trkpt lat="42.187652958936134" lon="11.935974033878578"><ele>394.4</ele><time>2026-04-19T11:37:07.019Z</time></trkpt><trkpt lat="42.18775757422051" lon="11.935983631886977"><ele>388.8</ele><time>2026-04-19T11:37:09.019Z</time></trkpt><trkpt lat="42.1878293288013" lon="11.93597931275075"><ele>383.20000000000005</ele><time>2026-04-19T11:37:10.019Z</time></trkpt><trkpt lat="42.18794467761714" lon="11.935987288192575"><ele>377.6</ele><time>2026-04-19T11:37:12.019Z</time></trkpt><trkpt lat="42.18807708640339" lon="11.936029895555011"><ele>372.0</ele><time>2026-04-19T11:37:14.02Z</time></trkpt><trkpt lat="42.188174221771085" lon="11.936056569919883"><ele>371.5</ele><time>2026-04-19T11:37:16.02Z</time></trkpt><trkpt lat="42.188267791174155" lon="11.936041129866046"><ele>371.0</ele><time>2026-04-19T11:37:18.02Z</time></trkpt><trkpt lat="42.18830803100602" lon="11.935955893443477"><ele>370.5</ele><time>2026-04-19T11:37:20.02Z</time></trkpt><trkpt lat="42.18833842981605" lon="11.935827087767189"><ele>370.0</ele><time>2026-04-19T11:37:22.02Z</time></trkpt><trkpt lat="42.18836845848837" lon="11.935707109190043"><ele>369.5</ele><time>2026-04-19T11:37:24.02Z</time></trkpt><trkpt lat="42.188366037326325" lon="11.935618456050664"><ele>369.0</ele><time>2026-04-19T11:37:26.02Z</time></trkpt><trkpt lat="42.18832432355444" lon="11.935506187758286"><ele>369.0</ele><time>2026-04-19T11:37:28.02Z</time></trkpt><trkpt lat="42.188308848872204" lon="11.935418611225343"><ele>369.0</ele><time>2026-04-19T11:37:29.02Z</time></trkpt><trkpt lat="42.188296162970126" lon="11.935318330188442"><ele>369.0</ele><time>2026-04-19T11:37:30.02Z</time></trkpt><trkpt lat="42.18828042344356" lon="11.935205768044181"><ele>369.0</ele><time>2026-04-19T11:37:31.02Z</time></trkpt><trkpt lat="42.18826308860122" lon="11.935082345399282"><ele>369.0</ele><time>2026-04-19T11:37:32.02Z</time></trkpt><trkpt lat="42.1882679259701" lon="11.934962062370513"><ele>369.0</ele><time>2026-04-19T11:37:33.02Z</time></trkpt><trkpt lat="42.18826987928353" lon="11.93485385466122"><ele>367.79999999999995</ele><time>2026-04-19T11:37:34.02Z</time></trkpt><trkpt lat="42.18827452177214" lon="11.934742355488579"><ele>366.59999999999997</ele><time>2026-04-19T11:37:35.02Z</time></trkpt><trkpt lat="42.18827996223316" lon="11.934639862443378"><ele>365.4</ele><time>2026-04-19T11:37:36.02Z</time></trkpt><trkpt lat="42.18828076300074" lon="11.934548894433847"><ele>364.2</ele><time>2026-04-19T11:37:37.02Z</time></trkpt><trkpt lat="42.188251366138005" lon="11.934402424363014"><ele>363.0</ele><time>2026-04-19T11:37:39.02Z</time></trkpt><trkpt lat="42.18820681875728" lon="11.93425752212783"><ele>361.99999999999994</ele><time>2026-04-19T11:37:41.02Z</time></trkpt><trkpt lat="42.18820143540288" lon="11.934169320605829"><ele>361.0</ele><time>2026-04-19T11:37:42.02Z</time></trkpt><trkpt lat="42.188211223214914" lon="11.93406560543163"><ele>360.0</ele><time>2026-04-19T11:37:43.02Z</time></trkpt><trkpt lat="42.18823822143787" lon="11.933987777117816"><ele>359.0</ele><time>2026-04-19T11:37:44.02Z</time></trkpt><trkpt lat="42.188259399844384" lon="11.933896196155928"><ele>358.0</ele><time>2026-04-19T11:37:45.02Z</time></trkpt><trkpt lat="42.18826792452585" lon="11.933780757577065"><ele>356.99999999999994</ele><time>2026-04-19T11:37:47.021Z</time></trkpt><trkpt lat="42.18827713192805" lon="11.933682613792909"><ele>356.0</ele><time>2026-04-19T11:37:49.021Z</time></trkpt><trkpt lat="42.188338348344296" lon="11.933629620968329"><ele>356.0</ele><time>2026-04-19T11:37:53.021Z</time></trkpt><trkpt lat="42.188408812790904" lon="11.933668722933586"><ele>356.0</ele><time>2026-04-19T11:38:02.021Z</time></trkpt><trkpt lat="42.18852942033304" lon="11.933741859138763"><ele>356.0</ele><time>2026-04-19T11:38:04.021Z</time></trkpt><trkpt lat="42.18858964063258" lon="11.933802868614197"><ele>356.0</ele><time>2026-04-19T11:38:05.021Z</time></trkpt><trkpt lat="42.18865325007063" lon="11.933832332654926"><ele>356.0</ele><time>2026-04-19T11:38:06.021Z</time></trkpt><trkpt lat="42.18871721673966" lon="11.933851211464642"><ele>356.0</ele><time>2026-04-19T11:38:08.021Z</time></trkpt><trkpt lat="42.188829935711276" lon="11.933838553753176"><ele>356.0</ele><time>2026-04-19T11:38:10.021Z</time></trkpt><trkpt lat="42.188906950487606" lon="11.933854995320438"><ele>356.0</ele><time>2026-04-19T11:38:11.021Z</time></trkpt><trkpt lat="42.18897867623711" lon="11.933863485165183"><ele>356.0</ele><time>2026-04-19T11:38:12.021Z</time></trkpt><trkpt lat="42.18907584379107" lon="11.933853996020005"><ele>356.0</ele><time>2026-04-19T11:38:14.021Z</time></trkpt><trkpt lat="42.18920287412205" lon="11.93379380743787"><ele>356.0</ele><time>2026-04-19T11:38:16.021Z</time></trkpt><trkpt lat="42.189268981966705" lon="11.933758979930053"><ele>355.4</ele><time>2026-04-19T11:38:17.021Z</time></trkpt><trkpt lat="42.18935369608616" lon="11.933704214835323"><ele>354.8</ele><time>2026-04-19T11:38:19.021Z</time></trkpt><trkpt lat="42.189423648989575" lon="11.933572427680502"><ele>354.2</ele><time>2026-04-19T11:38:21.022Z</time></trkpt><trkpt lat="42.189461051828104" lon="11.933469414223485"><ele>353.59999999999997</ele><time>2026-04-19T11:38:22.022Z</time></trkpt><trkpt lat="42.18950340531369" lon="11.93336593596115"><ele>353.0</ele><time>2026-04-19T11:38:23.022Z</time></trkpt><trkpt lat="42.189556481650996" lon="11.933284154829362"><ele>353.0</ele><time>2026-04-19T11:38:25.022Z</time></trkpt><trkpt lat="42.189654633030806" lon="11.933314312903315"><ele>353.0</ele><time>2026-04-19T11:38:28.022Z</time></trkpt><trkpt lat="42.18971958906876" lon="11.9333709405477"><ele>353.0</ele><time>2026-04-19T11:38:29.022Z</time></trkpt><trkpt lat="42.18977163173642" lon="11.93343540867121"><ele>353.0</ele><time>2026-04-19T11:38:30.022Z</time></trkpt><trkpt lat="42.189856183126494" lon="11.933561395621888"><ele>353.0</ele><time>2026-04-19T11:38:32.022Z</time></trkpt><trkpt lat="42.189934196707085" lon="11.933651250342683"><ele>349.4</ele><time>2026-04-19T11:38:34.022Z</time></trkpt><trkpt lat="42.190026172351274" lon="11.933655743316859"><ele>345.79999999999995</ele><time>2026-04-19T11:38:36.022Z</time></trkpt><trkpt lat="42.190125589556125" lon="11.933634436702087"><ele>342.2</ele><time>2026-04-19T11:38:38.022Z</time></trkpt><trkpt lat="42.190218906798464" lon="11.933623019340363"><ele>338.6</ele><time>2026-04-19T11:38:40.022Z</time></trkpt><trkpt lat="42.19033495642433" lon="11.933617965546928"><ele>335.0</ele><time>2026-04-19T11:38:42.022Z</time></trkpt><trkpt lat="42.1904035263834" lon="11.93363366605714"><ele>335.0</ele><time>2026-04-19T11:38:43.022Z</time></trkpt><trkpt lat="42.19047496955722" lon="11.933667524854714"><ele>335.0</ele><time>2026-04-19T11:38:44.022Z</time></trkpt><trkpt lat="42.190548526420365" lon="11.933701693563444"><ele>335.0</ele><time>2026-04-19T11:38:45.022Z</time></trkpt><trkpt lat="42.19067498557614" lon="11.933760455955131"><ele>335.0</ele><time>2026-04-19T11:38:47.022Z</time></trkpt><trkpt lat="42.19075427862677" lon="11.933868245835567"><ele>335.0</ele><time>2026-04-19T11:38:49.022Z</time></trkpt><trkpt lat="42.190851437417166" lon="11.933963515953437"><ele>335.6</ele><time>2026-04-19T11:38:51.022Z</time></trkpt><trkpt lat="42.19092829949471" lon="11.93403925565423"><ele>336.2</ele><time>2026-04-19T11:38:52.022Z</time></trkpt><trkpt lat="42.19102230368069" lon="11.934139762063529"><ele>336.79999999999995</ele><time>2026-04-19T11:38:54.023Z</time></trkpt><trkpt lat="42.19110654669265" lon="11.934130340582161"><ele>337.4</ele><time>2026-04-19T11:38:56.023Z</time></trkpt><trkpt lat="42.19116640658447" lon="11.934054150338444"><ele>338.0</ele><time>2026-04-19T11:38:58.023Z</time></trkpt><trkpt lat="42.19122957590849" lon="11.933950825022182"><ele>338.0</ele><time>2026-04-19T11:39:00.023Z</time></trkpt><trkpt lat="42.19126954433173" lon="11.933869320572285"><ele>338.0</ele><time>2026-04-19T11:39:01.023Z</time></trkpt><trkpt lat="42.19130862980812" lon="11.93378180744803"><ele>338.0</ele><time>2026-04-19T11:39:02.023Z</time></trkpt><trkpt lat="42.191345563098224" lon="11.933697605680162"><ele>338.0</ele><time>2026-04-19T11:39:03.023Z</time></trkpt><trkpt lat="42.19137057556997" lon="11.933618138855886"><ele>338.0</ele><time>2026-04-19T11:39:04.023Z</time></trkpt><trkpt lat="42.1913612529332" lon="11.933443646400823"><ele>338.0</ele><time>2026-04-19T11:39:06.023Z</time></trkpt><trkpt lat="42.19134802090596" lon="11.933343233711316"><ele>340.5</ele><time>2026-04-19T11:39:07.023Z</time></trkpt><trkpt lat="42.191330200538424" lon="11.933245470500085"><ele>343.0</ele><time>2026-04-19T11:39:08.023Z</time></trkpt><trkpt lat="42.19130569453525" lon="11.933155705510604"><ele>345.5</ele><time>2026-04-19T11:39:09.023Z</time></trkpt><trkpt lat="42.191311455138006" lon="11.933048132477788"><ele>348.0</ele><time>2026-04-19T11:39:10.023Z</time></trkpt><trkpt lat="42.19129402743831" lon="11.932944045812357"><ele>350.5</ele><time>2026-04-19T11:39:11.023Z</time></trkpt><trkpt lat="42.19128529982379" lon="11.932833808764906"><ele>353.0</ele><time>2026-04-19T11:39:12.023Z</time></trkpt><trkpt lat="42.19128365770147" lon="11.932695000018366"><ele>353.0</ele><time>2026-04-19T11:39:14.023Z</time></trkpt><trkpt lat="42.191286169993106" lon="11.93259106630581"><ele>353.0</ele><time>2026-04-19T11:39:16.023Z</time></trkpt><trkpt lat="42.1912968213367" lon="11.932487509926531"><ele>353.0</ele><time>2026-04-19T11:39:20.023Z</time></trkpt><trkpt lat="42.191367086197026" lon="11.932443071154449"><ele>353.0</ele><time>2026-04-19T11:39:24.023Z</time></trkpt><trkpt lat="42.19144966746125" lon="11.932465942248854"><ele>353.0</ele><time>2026-04-19T11:39:26.023Z</time></trkpt><trkpt lat="42.19157144798992" lon="11.932530943943226"><ele>353.0</ele><time>2026-04-19T11:39:28.024Z</time></trkpt><trkpt lat="42.191645643025204" lon="11.932568661752631"><ele>351.6666666666667</ele><time>2026-04-19T11:39:29.024Z</time></trkpt><trkpt lat="42.191713196010355" lon="11.932601258253607"><ele>350.33333333333337</ele><time>2026-04-19T11:39:30.024Z</time></trkpt><trkpt lat="42.19179327821878" lon="11.932641627659802"><ele>349.0</ele><time>2026-04-19T11:39:31.024Z</time></trkpt><trkpt lat="42.19187532443192" lon="11.932685051860528"><ele>347.6666666666667</ele><time>2026-04-19T11:39:32.024Z</time></trkpt><trkpt lat="42.191939871756375" lon="11.932738983661086"><ele>346.3333333333333</ele><time>2026-04-19T11:39:33.024Z</time></trkpt><trkpt lat="42.19200000785022" lon="11.932870858113239"><ele>345.0</ele><time>2026-04-19T11:39:35.024Z</time></trkpt><trkpt lat="42.192026958575816" lon="11.932983623871088"><ele>345.0</ele><time>2026-04-19T11:39:37.024Z</time></trkpt><trkpt lat="42.19205609266354" lon="11.933138224220647"><ele>345.0</ele><time>2026-04-19T11:39:39.024Z</time></trkpt><trkpt lat="42.192118975283115" lon="11.93328191134921"><ele>345.0</ele><time>2026-04-19T11:39:41.024Z</time></trkpt><trkpt lat="42.19214104776629" lon="11.933386725575302"><ele>345.0</ele><time>2026-04-19T11:39:42.024Z</time></trkpt><trkpt lat="42.192158761857165" lon="11.933483579463978"><ele>345.0</ele><time>2026-04-19T11:39:43.024Z</time></trkpt><trkpt lat="42.19216900282582" lon="11.933645233815458"><ele>344.3333333333333</ele><time>2026-04-19T11:39:45.024Z</time></trkpt><trkpt lat="42.19218981904207" lon="11.93372938774817"><ele>343.6666666666667</ele><time>2026-04-19T11:39:46.024Z</time></trkpt><trkpt lat="42.19219183675934" lon="11.933846002908542"><ele>343.0</ele><time>2026-04-19T11:39:48.024Z</time></trkpt><trkpt lat="42.192219691550754" lon="11.933973109804496"><ele>342.33333333333337</ele><time>2026-04-19T11:39:50.024Z</time></trkpt><trkpt lat="42.19225382966483" lon="11.934072894386405"><ele>341.6666666666667</ele><time>2026-04-19T11:39:51.024Z</time></trkpt><trkpt lat="42.19228469605804" lon="11.934160289928455"><ele>341.0</ele><time>2026-04-19T11:39:52.024Z</time></trkpt><trkpt lat="42.19234222376824" lon="11.934265111469085"><ele>344.20000000000005</ele><time>2026-04-19T11:39:54.024Z</time></trkpt><trkpt lat="42.192423754814556" lon="11.93431797978445"><ele>347.40000000000003</ele><time>2026-04-19T11:39:56.024Z</time></trkpt><trkpt lat="42.192506243820766" lon="11.93430327983538"><ele>350.6</ele><time>2026-04-19T11:40:03.025Z</time></trkpt><trkpt lat="42.1925480005375" lon="11.934191792510319"><ele>353.8</ele><time>2026-04-19T11:40:05.025Z</time></trkpt><trkpt lat="42.19259132886643" lon="11.934057935260102"><ele>357.0</ele><time>2026-04-19T11:40:07.025Z</time></trkpt><trkpt lat="42.1926040197827" lon="11.933928555911182"><ele>360.0</ele><time>2026-04-19T11:40:10.025Z</time></trkpt><trkpt lat="42.19261470130103" lon="11.933805289724507"><ele>360.0</ele><time>2026-04-19T11:40:12.025Z</time></trkpt><trkpt lat="42.19263157762594" lon="11.933701214743463"><ele>360.0</ele><time>2026-04-19T11:40:14.025Z</time></trkpt><trkpt lat="42.19265352491781" lon="11.93359428429296"><ele>360.0</ele><time>2026-04-19T11:40:18.025Z</time></trkpt><trkpt lat="42.19267293583007" lon="11.933507136448533"><ele>360.0</ele><time>2026-04-19T11:40:25.025Z</time></trkpt></trkseg><trkseg><trkpt lat="42.1910058307574" lon="11.929838242225749"><ele>382.0</ele><time>2026-04-19T11:47:15.509Z</time></trkpt><trkpt lat="42.1909346582213" lon="11.929836586489051"><ele>382.0</ele><time>2026-04-19T11:47:17.409Z</time></trkpt><trkpt lat="42.19087007034939" lon="11.929772574712857"><ele>382.0</ele><time>2026-04-19T11:47:20.259Z</time></trkpt><trkpt lat="42.190840313514585" lon="11.929676636872676"><ele>382.0</ele><time>2026-04-19T11:47:22.159Z</time></trkpt><trkpt lat="42.19083386135861" lon="11.929581822051082"><ele>382.0</ele><time>2026-04-19T11:47:24.058Z</time></trkpt><trkpt lat="42.19083761059555" lon="11.929457629388864"><ele>382.0</ele><time>2026-04-19T11:47:26.002Z</time></trkpt><trkpt lat="42.19084696307081" lon="11.929303695366226"><ele>383.3333333333333</ele><time>2026-04-19T11:47:28.001Z</time></trkpt><trkpt lat="42.19084958608903" lon="11.929216194218824"><ele>384.66666666666663</ele><time>2026-04-19T11:47:29.002Z</time></trkpt><trkpt lat="42.19086015217745" lon="11.929125376085578"><ele>386.0</ele><time>2026-04-19T11:47:30.001Z</time></trkpt><trkpt lat="42.190873560074145" lon="11.929033477491366"><ele>387.3333333333333</ele><time>2026-04-19T11:47:31.001Z</time></trkpt><trkpt lat="42.19089568510551" lon="11.928871118011697"><ele>388.6666666666667</ele><time>2026-04-19T11:47:33.002Z</time></trkpt><trkpt lat="42.190904469640756" lon="11.928784748837135"><ele>390.0</ele><time>2026-04-19T11:47:34.002Z</time></trkpt><trkpt lat="42.190897819712795" lon="11.928521766532706"><ele>390.0</ele><time>2026-04-19T11:47:35.002Z</time></trkpt><trkpt lat="42.190884343966" lon="11.928408629574806"><ele>390.0</ele><time>2026-04-19T11:47:36.002Z</time></trkpt><trkpt lat="42.190884043498386" lon="11.928306843751447"><ele>390.0</ele><time>2026-04-19T11:47:37.002Z</time></trkpt><trkpt lat="42.190901801974036" lon="11.928210891197455"><ele>390.0</ele><time>2026-04-19T11:47:38.002Z</time></trkpt><trkpt lat="42.19091011366531" lon="11.928102846282847"><ele>390.0</ele><time>2026-04-19T11:47:39.002Z</time></trkpt><trkpt lat="42.190910564490714" lon="11.927965320938092"><ele>390.0</ele><time>2026-04-19T11:47:40.002Z</time></trkpt><trkpt lat="42.19090986260766" lon="11.927848598179942"><ele>390.2</ele><time>2026-04-19T11:47:41.002Z</time></trkpt><trkpt lat="42.19090959742533" lon="11.927749674616003"><ele>390.4</ele><time>2026-04-19T11:47:42.002Z</time></trkpt><trkpt lat="42.190943359499016" lon="11.92758850634411"><ele>390.6</ele><time>2026-04-19T11:47:44.002Z</time></trkpt><trkpt lat="42.1909693344611" lon="11.927475061122975"><ele>390.8</ele><time>2026-04-19T11:47:45.002Z</time></trkpt><trkpt lat="42.19097936201073" lon="11.927337787166989"><ele>391.0</ele><time>2026-04-19T11:47:47.002Z</time></trkpt><trkpt lat="42.190954667378406" lon="11.927224868088476"><ele>391.0</ele><time>2026-04-19T11:47:49.002Z</time></trkpt><trkpt lat="42.190909371452285" lon="11.927057812209434"><ele>391.0</ele><time>2026-04-19T11:47:51.002Z</time></trkpt><trkpt lat="42.19095917792393" lon="11.926908919923417"><ele>391.0</ele><time>2026-04-19T11:47:53.002Z</time></trkpt><trkpt lat="42.19101985194023" lon="11.9267908125949"><ele>391.0</ele><time>2026-04-19T11:47:55.002Z</time></trkpt><trkpt lat="42.19103118880471" lon="11.926696999035569"><ele>391.0</ele><time>2026-04-19T11:47:57.002Z</time></trkpt><trkpt lat="42.19095214623766" lon="11.926540659047415"><ele>391.33333333333337</ele><time>2026-04-19T11:48:00.002Z</time></trkpt><trkpt lat="42.19091132181516" lon="11.926464691964888"><ele>391.6666666666667</ele><time>2026-04-19T11:48:01.003Z</time></trkpt><trkpt lat="42.190849073036006" lon="11.926350619041969"><ele>392.0</ele><time>2026-04-19T11:48:03.003Z</time></trkpt><trkpt lat="42.190829684046214" lon="11.926219859825801"><ele>392.33333333333337</ele><time>2026-04-19T11:48:05.003Z</time></trkpt><trkpt lat="42.190828420141024" lon="11.926115394678568"><ele>392.6666666666667</ele><time>2026-04-19T11:48:07.003Z</time></trkpt><trkpt lat="42.19082403995233" lon="11.92599323472007"><ele>393.0</ele><time>2026-04-19T11:48:09.003Z</time></trkpt><trkpt lat="42.19078058634602" lon="11.925839464843142"><ele>393.2</ele><time>2026-04-19T11:48:11.003Z</time></trkpt><trkpt lat="42.19077283667843" lon="11.925730420345804"><ele>393.4</ele><time>2026-04-19T11:48:13.003Z</time></trkpt><trkpt lat="42.19079869316006" lon="11.925617741953612"><ele>393.59999999999997</ele><time>2026-04-19T11:48:15.003Z</time></trkpt><trkpt lat="42.1908082380631" lon="11.925495603309788"><ele>393.79999999999995</ele><time>2026-04-19T11:48:17.003Z</time></trkpt><trkpt lat="42.19084847526904" lon="11.92537440593596"><ele>394.0</ele><time>2026-04-19T11:48:19.003Z</time></trkpt><trkpt lat="42.19087538064405" lon="11.925241636905145"><ele>394.0</ele><time>2026-04-19T11:48:21.003Z</time></trkpt><trkpt lat="42.190904013167" lon="11.925133631190263"><ele>394.0</ele><time>2026-04-19T11:48:23.003Z</time></trkpt><trkpt lat="42.19091278423047" lon="11.925014245485325"><ele>394.0</ele><time>2026-04-19T11:48:25.003Z</time></trkpt><trkpt lat="42.190878434174735" lon="11.924903638876806"><ele>394.0</ele><time>2026-04-19T11:48:27.003Z</time></trkpt><trkpt lat="42.19084660696923" lon="11.924810908622273"><ele>394.0</ele><time>2026-04-19T11:48:29.003Z</time></trkpt><trkpt lat="42.190766471722874" lon="11.924659853510807"><ele>394.33333333333337</ele><time>2026-04-19T11:48:31.003Z</time></trkpt><trkpt lat="42.190734927999294" lon="11.924546492464717"><ele>394.6666666666667</ele><time>2026-04-19T11:48:32.003Z</time></trkpt><trkpt lat="42.19070863704518" lon="11.924454272053364"><ele>395.0</ele><time>2026-04-19T11:48:33.003Z</time></trkpt><trkpt lat="42.190658172343966" lon="11.924392157332502"><ele>395.33333333333337</ele><time>2026-04-19T11:48:34.003Z</time></trkpt><trkpt lat="42.19057216694298" lon="11.924271629195847"><ele>395.6666666666667</ele><time>2026-04-19T11:48:35.003Z</time></trkpt><trkpt lat="42.19050431201838" lon="11.92426816234842"><ele>396.0</ele><time>2026-04-19T11:48:36.002Z</time></trkpt><trkpt lat="42.190436321736335" lon="11.924251181199372"><ele>396.0</ele><time>2026-04-19T11:48:37.001Z</time></trkpt><trkpt lat="42.19036527790459" lon="11.924247371671422"><ele>396.0</ele><time>2026-04-19T11:48:38.001Z</time></trkpt><trkpt lat="42.19021372718983" lon="11.924255034229304"><ele>396.0</ele><time>2026-04-19T11:48:40Z</time></trkpt><trkpt lat="42.19014076722274" lon="11.924257508741245"><ele>396.0</ele><time>2026-04-19T11:48:40.999Z</time></trkpt><trkpt lat="42.190039799080985" lon="11.924226870910365"><ele>396.0</ele><time>2026-04-19T11:48:42.998Z</time></trkpt><trkpt lat="42.189954107977016" lon="11.924224927800086"><ele>396.8333333333333</ele><time>2026-04-19T11:48:44.997Z</time></trkpt><trkpt lat="42.189880948014135" lon="11.924165184177134"><ele>397.66666666666663</ele><time>2026-04-19T11:48:46.996Z</time></trkpt><trkpt lat="42.18982035571754" lon="11.924128005514646"><ele>398.5</ele><time>2026-04-19T11:48:48.996Z</time></trkpt><trkpt lat="42.189734226135926" lon="11.9241345292587"><ele>399.3333333333333</ele><time>2026-04-19T11:48:50.995Z</time></trkpt><trkpt lat="42.18961140011827" lon="11.9241262746861"><ele>400.16666666666663</ele><time>2026-04-19T11:48:52.995Z</time></trkpt><trkpt lat="42.18953817701203" lon="11.924087581517329"><ele>401.0</ele><time>2026-04-19T11:48:53.994Z</time></trkpt><trkpt lat="42.18945236987415" lon="11.924034420037938"><ele>401.6</ele><time>2026-04-19T11:48:55.994Z</time></trkpt><trkpt lat="42.189364717082114" lon="11.923962534892581"><ele>402.20000000000005</ele><time>2026-04-19T11:48:57.994Z</time></trkpt><trkpt lat="42.18928849115566" lon="11.923963290538195"><ele>402.79999999999995</ele><time>2026-04-19T11:48:58.994Z</time></trkpt><trkpt lat="42.18920348833087" lon="11.923964015998026"><ele>403.4</ele><time>2026-04-19T11:49:00.993Z</time></trkpt><trkpt lat="42.18909831495084" lon="11.923954742219001"><ele>404.0</ele><time>2026-04-19T11:49:02.993Z</time></trkpt><trkpt lat="42.18897714798184" lon="11.923934311460028"><ele>405.4</ele><time>2026-04-19T11:49:04.993Z</time></trkpt><trkpt lat="42.18886227687794" lon="11.92388634505864"><ele>406.79999999999995</ele><time>2026-04-19T11:49:06.993Z</time></trkpt><trkpt lat="42.188795632220476" lon="11.923864861612111"><ele>408.20000000000005</ele><time>2026-04-19T11:49:07.993Z</time></trkpt><trkpt lat="42.18868981748562" lon="11.923845551354873"><ele>409.6</ele><time>2026-04-19T11:49:09.993Z</time></trkpt><trkpt lat="42.18859078335626" lon="11.923824845978345"><ele>411.0</ele><time>2026-04-19T11:49:11.993Z</time></trkpt><trkpt lat="42.18849354935837" lon="11.923824569558803"><ele>411.0</ele><time>2026-04-19T11:49:13.993Z</time></trkpt><trkpt lat="42.18842118979117" lon="11.923817146118225"><ele>411.0</ele><time>2026-04-19T11:49:14.993Z</time></trkpt><trkpt lat="42.188357708897406" lon="11.923814164892784"><ele>411.0</ele><time>2026-04-19T11:49:15.993Z</time></trkpt><trkpt lat="42.1882464511853" lon="11.923799060063605"><ele>411.0</ele><time>2026-04-19T11:49:17.993Z</time></trkpt><trkpt lat="42.18815587471139" lon="11.923798407953615"><ele>411.0</ele><time>2026-04-19T11:49:18.992Z</time></trkpt><trkpt lat="42.1880841570008" lon="11.923803113131893"><ele>411.0</ele><time>2026-04-19T11:49:19.992Z</time></trkpt><trkpt lat="42.18800052853561" lon="11.923787221165977"><ele>412.0</ele><time>2026-04-19T11:49:20.992Z</time></trkpt><trkpt lat="42.18793720981562" lon="11.923764807782458"><ele>413.0</ele><time>2026-04-19T11:49:21.992Z</time></trkpt><trkpt lat="42.18783500415397" lon="11.92369097425133"><ele>414.0</ele><time>2026-04-19T11:49:23.992Z</time></trkpt><trkpt lat="42.18771827352003" lon="11.923655962770146"><ele>415.0</ele><time>2026-04-19T11:49:25.987Z</time></trkpt><trkpt lat="42.18765378295293" lon="11.923667065618174"><ele>416.0</ele><time>2026-04-19T11:49:26.987Z</time></trkpt><trkpt lat="42.18754147625839" lon="11.923683436957461"><ele>416.0</ele><time>2026-04-19T11:49:28.987Z</time></trkpt><trkpt lat="42.187466745309834" lon="11.923689839507114"><ele>416.0</ele><time>2026-04-19T11:49:29.986Z</time></trkpt><trkpt lat="42.18734005214476" lon="11.923693758617912"><ele>416.0</ele><time>2026-04-19T11:49:31.987Z</time></trkpt><trkpt lat="42.18725758414643" lon="11.923675204186294"><ele>416.0</ele><time>2026-04-19T11:49:33.987Z</time></trkpt><trkpt lat="42.18713411496733" lon="11.92364481689483"><ele>416.0</ele><time>2026-04-19T11:49:35.987Z</time></trkpt><trkpt lat="42.18706927535072" lon="11.923620694181846"><ele>416.16666666666663</ele><time>2026-04-19T11:49:36.987Z</time></trkpt><trkpt lat="42.18701349211925" lon="11.923579033757658"><ele>416.3333333333333</ele><time>2026-04-19T11:49:37.987Z</time></trkpt><trkpt lat="42.1869501186628" lon="11.923533164057027"><ele>416.5</ele><time>2026-04-19T11:49:38.986Z</time></trkpt><trkpt lat="42.18689614486749" lon="11.923467164068702"><ele>416.66666666666663</ele><time>2026-04-19T11:49:39.986Z</time></trkpt><trkpt lat="42.18683754552256" lon="11.923397930377838"><ele>416.8333333333333</ele><time>2026-04-19T11:49:40.986Z</time></trkpt><trkpt lat="42.186730608831866" lon="11.923312266256215"><ele>417.0</ele><time>2026-04-19T11:49:42.986Z</time></trkpt><trkpt lat="42.18662920598502" lon="11.923232174479836"><ele>418.0</ele><time>2026-04-19T11:49:44.986Z</time></trkpt><trkpt lat="42.18655912888437" lon="11.92317693101062"><ele>419.0</ele><time>2026-04-19T11:49:45.986Z</time></trkpt><trkpt lat="42.18648233120469" lon="11.923112040934761"><ele>420.0</ele><time>2026-04-19T11:49:46.986Z</time></trkpt><trkpt lat="42.186412007169004" lon="11.923029492707421"><ele>421.0</ele><time>2026-04-19T11:49:48.986Z</time></trkpt><trkpt lat="42.18633812469246" lon="11.92294140301869"><ele>422.0</ele><time>2026-04-19T11:49:50.987Z</time></trkpt><trkpt lat="42.18628188707301" lon="11.922900181189876"><ele>423.0</ele><time>2026-04-19T11:49:51.987Z</time></trkpt><trkpt lat="42.18620555447963" lon="11.92282810317482"><ele>423.8333333333333</ele><time>2026-04-19T11:49:53.987Z</time></trkpt><trkpt lat="42.18614125594481" lon="11.922765332135768"><ele>424.66666666666663</ele><time>2026-04-19T11:49:55.987Z</time></trkpt><trkpt lat="42.18607760726236" lon="11.922706204161814"><ele>425.5</ele><time>2026-04-19T11:49:57.987Z</time></trkpt><trkpt lat="42.186028407178846" lon="11.922645624849514"><ele>426.3333333333333</ele><time>2026-04-19T11:50:04.987Z</time></trkpt><trkpt lat="42.18594812802196" lon="11.922606993222795"><ele>427.16666666666663</ele><time>2026-04-19T11:50:15.987Z</time></trkpt><trkpt lat="42.18586078932764" lon="11.922586737762954"><ele>428.0</ele><time>2026-04-19T11:50:17.987Z</time></trkpt><trkpt lat="42.18579370838917" lon="11.922578393979295"><ele>427.59999999999997</ele><time>2026-04-19T11:50:18.987Z</time></trkpt><trkpt lat="42.18570216143178" lon="11.922542611123948"><ele>427.19999999999993</ele><time>2026-04-19T11:50:19.987Z</time></trkpt><trkpt lat="42.18561988355087" lon="11.922492757373398"><ele>426.8</ele><time>2026-04-19T11:50:20.987Z</time></trkpt><trkpt lat="42.18552497494401" lon="11.92241415659689"><ele>426.4</ele><time>2026-04-19T11:50:21.987Z</time></trkpt><trkpt lat="42.185425408443436" lon="11.922328838835197"><ele>426.0</ele><time>2026-04-19T11:50:22.987Z</time></trkpt><trkpt lat="42.18532823047007" lon="11.922258965241722"><ele>427.6</ele><time>2026-04-19T11:50:23.987Z</time></trkpt><trkpt lat="42.185251626738335" lon="11.92220363458451"><ele>429.20000000000005</ele><time>2026-04-19T11:50:24.987Z</time></trkpt><trkpt lat="42.185172713887745" lon="11.92215336713568"><ele>430.79999999999995</ele><time>2026-04-19T11:50:25.987Z</time></trkpt><trkpt lat="42.185083824301394" lon="11.92211280280011"><ele>432.4</ele><time>2026-04-19T11:50:26.987Z</time></trkpt><trkpt lat="42.18497646612304" lon="11.922080696925754"><ele>434.0</ele><time>2026-04-19T11:50:27.987Z</time></trkpt><trkpt lat="42.18486018567881" lon="11.92204011353454"><ele>434.2</ele><time>2026-04-19T11:50:28.987Z</time></trkpt><trkpt lat="42.18475862392383" lon="11.921961411229878"><ele>434.4</ele><time>2026-04-19T11:50:30.987Z</time></trkpt><trkpt lat="42.18471098451786" lon="11.921893729838573"><ele>434.6</ele><time>2026-04-19T11:50:31.987Z</time></trkpt><trkpt lat="42.184645110425656" lon="11.92179189637084"><ele>434.8</ele><time>2026-04-19T11:50:32.987Z</time></trkpt><trkpt lat="42.184590228170876" lon="11.921682374848796"><ele>435.0</ele><time>2026-04-19T11:50:33.987Z</time></trkpt><trkpt lat="42.18452958491939" lon="11.921555338496438"><ele>435.0</ele><time>2026-04-19T11:50:34.987Z</time></trkpt><trkpt lat="42.184473572032616" lon="11.921397607892748"><ele>435.0</ele><time>2026-04-19T11:50:35.987Z</time></trkpt><trkpt lat="42.184428840804074" lon="11.921241530166041"><ele>435.0</ele><time>2026-04-19T11:50:36.987Z</time></trkpt><trkpt lat="42.18439067287344" lon="11.921128732451141"><ele>435.0</ele><time>2026-04-19T11:50:37.987Z</time></trkpt><trkpt lat="42.184342790696626" lon="11.921010418183213"><ele>435.0</ele><time>2026-04-19T11:50:38.987Z</time></trkpt><trkpt lat="42.184271648100925" lon="11.920934643384113"><ele>434.25</ele><time>2026-04-19T11:50:39.987Z</time></trkpt><trkpt lat="42.18419416849215" lon="11.920858557102582"><ele>433.5</ele><time>2026-04-19T11:50:40.987Z</time></trkpt><trkpt lat="42.18409760610607" lon="11.920750799680125"><ele>432.75</ele><time>2026-04-19T11:50:41.988Z</time></trkpt><trkpt lat="42.18401721313972" lon="11.920623034686626"><ele>432.0</ele><time>2026-04-19T11:50:42.988Z</time></trkpt><trkpt lat="42.183960114789926" lon="11.920478778057483"><ele>436.5</ele><time>2026-04-19T11:50:43.988Z</time></trkpt><trkpt lat="42.18390927548733" lon="11.920308610921644"><ele>441.0</ele><time>2026-04-19T11:50:44.988Z</time></trkpt><trkpt lat="42.183854607306436" lon="11.920150670254344"><ele>445.5</ele><time>2026-04-19T11:50:45.988Z</time></trkpt><trkpt lat="42.18382184776692" lon="11.920007471771765"><ele>450.0</ele><time>2026-04-19T11:50:46.988Z</time></trkpt><trkpt lat="42.18377877757003" lon="11.919882662568774"><ele>450.0</ele><time>2026-04-19T11:50:47.988Z</time></trkpt><trkpt lat="42.18371166300187" lon="11.919765208915733"><ele>450.0</ele><time>2026-04-19T11:50:48.988Z</time></trkpt><trkpt lat="42.183658681379875" lon="11.919675723996363"><ele>450.0</ele><time>2026-04-19T11:50:49.988Z</time></trkpt><trkpt lat="42.18360954899164" lon="11.91959187111922"><ele>450.0</ele><time>2026-04-19T11:50:50.988Z</time></trkpt><trkpt lat="42.18355662392049" lon="11.919488923864538"><ele>450.0</ele><time>2026-04-19T11:50:51.988Z</time></trkpt><trkpt lat="42.18351783294421" lon="11.91939659580076"><ele>450.0</ele><time>2026-04-19T11:50:52.988Z</time></trkpt><trkpt lat="42.183482044591564" lon="11.919296684173013"><ele>450.8333333333333</ele><time>2026-04-19T11:50:53.988Z</time></trkpt><trkpt lat="42.18344807437925" lon="11.919180370998575"><ele>451.66666666666663</ele><time>2026-04-19T11:50:54.988Z</time></trkpt><trkpt lat="42.18340877591277" lon="11.919089476630218"><ele>452.5</ele><time>2026-04-19T11:50:55.988Z</time></trkpt><trkpt lat="42.183370027489005" lon="11.919019417849025"><ele>453.3333333333333</ele><time>2026-04-19T11:50:56.988Z</time></trkpt><trkpt lat="42.18330796946941" lon="11.918929299919458"><ele>454.16666666666663</ele><time>2026-04-19T11:50:57.988Z</time></trkpt><trkpt lat="42.18322512366441" lon="11.9188466675477"><ele>455.0</ele><time>2026-04-19T11:50:58.988Z</time></trkpt><trkpt lat="42.183162324317756" lon="11.918772824750825"><ele>455.0</ele><time>2026-04-19T11:50:59.988Z</time></trkpt><trkpt lat="42.183111162284206" lon="11.918716110489395"><ele>455.0</ele><time>2026-04-19T11:51:00.988Z</time></trkpt><trkpt lat="42.183058149515325" lon="11.918656516807605"><ele>455.0</ele><time>2026-04-19T11:51:01.988Z</time></trkpt><trkpt lat="42.18299479096279" lon="11.918585248224081"><ele>455.0</ele><time>2026-04-19T11:51:03.988Z</time></trkpt><trkpt lat="42.18293727546187" lon="11.918522770622339"><ele>455.0</ele><time>2026-04-19T11:51:07.988Z</time></trkpt><trkpt lat="42.18287692703231" lon="11.918485913960208"><ele>455.0</ele><time>2026-04-19T11:52:04.985Z</time></trkpt><trkpt lat="42.18293462768744" lon="11.918423094002419"><ele>455.0</ele><time>2026-04-19T11:52:08.985Z</time></trkpt><trkpt lat="42.18301708413152" lon="11.918402813572094"><ele>453.4</ele><time>2026-04-19T11:52:09.985Z</time></trkpt><trkpt lat="42.18310633633263" lon="11.918368545864903"><ele>451.8</ele><time>2026-04-19T11:52:10.985Z</time></trkpt><trkpt lat="42.183202107165414" lon="11.918325550918569"><ele>450.20000000000005</ele><time>2026-04-19T11:52:11.985Z</time></trkpt><trkpt lat="42.183301303194305" lon="11.918272836302478"><ele>448.6</ele><time>2026-04-19T11:52:12.985Z</time></trkpt><trkpt lat="42.1833986647548" lon="11.918216618072485"><ele>447.0</ele><time>2026-04-19T11:52:13.985Z</time></trkpt><trkpt lat="42.183489884166306" lon="11.918165777135988"><ele>444.6</ele><time>2026-04-19T11:52:14.985Z</time></trkpt><trkpt lat="42.18358517543902" lon="11.918115549433082"><ele>442.20000000000005</ele><time>2026-04-19T11:52:15.985Z</time></trkpt><trkpt lat="42.18369203872947" lon="11.918092296544929"><ele>439.8</ele><time>2026-04-19T11:52:16.985Z</time></trkpt><trkpt lat="42.18380180695058" lon="11.918068522312419"><ele>437.4</ele><time>2026-04-19T11:52:17.985Z</time></trkpt><trkpt lat="42.18390582617971" lon="11.918070287136171"><ele>435.0</ele><time>2026-04-19T11:52:18.985Z</time></trkpt><trkpt lat="42.18401314702195" lon="11.918075397554047"><ele>433.0</ele><time>2026-04-19T11:52:19.986Z</time></trkpt><trkpt lat="42.18411444026813" lon="11.918083432299545"><ele>431.0</ele><time>2026-04-19T11:52:20.986Z</time></trkpt><trkpt lat="42.184225550915414" lon="11.91810402476009"><ele>429.0</ele><time>2026-04-19T11:52:21.986Z</time></trkpt><trkpt lat="42.184334974077416" lon="11.918130648456964"><ele>427.0</ele><time>2026-04-19T11:52:22.986Z</time></trkpt><trkpt lat="42.18444260144939" lon="11.91814930968266"><ele>425.0</ele><time>2026-04-19T11:52:23.986Z</time></trkpt><trkpt lat="42.18457025023254" lon="11.91815845998871"><ele>425.0</ele><time>2026-04-19T11:52:24.986Z</time></trkpt><trkpt lat="42.184683154802855" lon="11.918175156276245"><ele>425.0</ele><time>2026-04-19T11:52:25.986Z</time></trkpt><trkpt lat="42.18478562717716" lon="11.918200860843372"><ele>425.0</ele><time>2026-04-19T11:52:26.986Z</time></trkpt><trkpt lat="42.18486776223333" lon="11.918231443374099"><ele>425.0</ele><time>2026-04-19T11:52:27.986Z</time></trkpt><trkpt lat="42.18494731889869" lon="11.91826757856208"><ele>425.0</ele><time>2026-04-19T11:52:28.986Z</time></trkpt><trkpt lat="42.1850191459403" lon="11.91830051548943"><ele>423.6</ele><time>2026-04-19T11:52:29.986Z</time></trkpt><trkpt lat="42.185084341061426" lon="11.918315257719717"><ele>422.2</ele><time>2026-04-19T11:52:30.986Z</time></trkpt><trkpt lat="42.18515654401139" lon="11.918299261440904"><ele>420.79999999999995</ele><time>2026-04-19T11:52:31.986Z</time></trkpt><trkpt lat="42.18523938102632" lon="11.918208558557401"><ele>419.4</ele><time>2026-04-19T11:52:32.986Z</time></trkpt><trkpt lat="42.18530686829475" lon="11.918060989535636"><ele>418.0</ele><time>2026-04-19T11:52:33.986Z</time></trkpt><trkpt lat="42.185375800135176" lon="11.917923798433979"><ele>418.0</ele><time>2026-04-19T11:52:34.986Z</time></trkpt><trkpt lat="42.18545586120498" lon="11.917770322129675"><ele>418.0</ele><time>2026-04-19T11:52:35.986Z</time></trkpt><trkpt lat="42.18554536242034" lon="11.917614850222535"><ele>418.0</ele><time>2026-04-19T11:52:36.986Z</time></trkpt><trkpt lat="42.185628786629486" lon="11.91747606430391"><ele>418.0</ele><time>2026-04-19T11:52:37.986Z</time></trkpt><trkpt lat="42.185708517990385" lon="11.91735080979295"><ele>416.75</ele><time>2026-04-19T11:52:38.986Z</time></trkpt><trkpt lat="42.185791237800885" lon="11.917222071336314"><ele>415.5</ele><time>2026-04-19T11:52:39.986Z</time></trkpt><trkpt lat="42.18585790519153" lon="11.917093618122513"><ele>414.25</ele><time>2026-04-19T11:52:40.986Z</time></trkpt><trkpt lat="42.185944311746525" lon="11.916982785013477"><ele>413.0</ele><time>2026-04-19T11:52:41.986Z</time></trkpt><trkpt lat="42.18601461352107" lon="11.916863234114357"><ele>413.0</ele><time>2026-04-19T11:52:42.986Z</time></trkpt><trkpt lat="42.18609969092634" lon="11.91677434917322"><ele>413.0</ele><time>2026-04-19T11:52:43.986Z</time></trkpt><trkpt lat="42.186172777534246" lon="11.916681745395188"><ele>413.0</ele><time>2026-04-19T11:52:44.986Z</time></trkpt><trkpt lat="42.186251055300346" lon="11.916593801359017"><ele>413.0</ele><time>2026-04-19T11:52:45.986Z</time></trkpt><trkpt lat="42.18632467730421" lon="11.916510739760982"><ele>413.0</ele><time>2026-04-19T11:52:46.986Z</time></trkpt><trkpt lat="42.186415890218726" lon="11.916440069884649"><ele>413.5</ele><time>2026-04-19T11:52:47.986Z</time></trkpt><trkpt lat="42.18652463142191" lon="11.916361014646084"><ele>414.0</ele><time>2026-04-19T11:52:48.986Z</time></trkpt><trkpt lat="42.18663728656227" lon="11.916288208542973"><ele>414.5</ele><time>2026-04-19T11:52:49.986Z</time></trkpt><trkpt lat="42.18675055117946" lon="11.916213320509334"><ele>415.0</ele><time>2026-04-19T11:52:50.986Z</time></trkpt><trkpt lat="42.18687344448437" lon="11.916134678743012"><ele>415.0</ele><time>2026-04-19T11:52:51.986Z</time></trkpt><trkpt lat="42.18698113681106" lon="11.916063902132187"><ele>415.0</ele><time>2026-04-19T11:52:52.986Z</time></trkpt><trkpt lat="42.18709601795179" lon="11.91600999466658"><ele>415.0</ele><time>2026-04-19T11:52:53.986Z</time></trkpt><trkpt lat="42.1872020671237" lon="11.915947218023367"><ele>415.0</ele><time>2026-04-19T11:52:54.986Z</time></trkpt><trkpt lat="42.18730270973354" lon="11.91590152885147"><ele>416.0</ele><time>2026-04-19T11:52:55.986Z</time></trkpt><trkpt lat="42.18740165238226" lon="11.915861766454633"><ele>417.0</ele><time>2026-04-19T11:52:56.986Z</time></trkpt><trkpt lat="42.187498274505266" lon="11.915820449745592"><ele>418.0</ele><time>2026-04-19T11:52:57.986Z</time></trkpt><trkpt lat="42.18759122992616" lon="11.915782198841706"><ele>419.0</ele><time>2026-04-19T11:52:58.986Z</time></trkpt><trkpt lat="42.18767774546375" lon="11.915734348215054"><ele>420.0</ele><time>2026-04-19T11:52:59.986Z</time></trkpt><trkpt lat="42.18775973252735" lon="11.915652323286269"><ele>420.0</ele><time>2026-04-19T11:53:00.986Z</time></trkpt><trkpt lat="42.18783000579179" lon="11.915575291475294"><ele>420.0</ele><time>2026-04-19T11:53:01.986Z</time></trkpt><trkpt lat="42.187873243896306" lon="11.915477116093676"><ele>420.0</ele><time>2026-04-19T11:53:02.986Z</time></trkpt><trkpt lat="42.18788773095133" lon="11.915364605087552"><ele>420.0</ele><time>2026-04-19T11:53:03.986Z</time></trkpt><trkpt lat="42.18788436733211" lon="11.915243371238613"><ele>420.0</ele><time>2026-04-19T11:53:04.986Z</time></trkpt><trkpt lat="42.187861174145525" lon="11.915087794764107"><ele>421.0</ele><time>2026-04-19T11:53:05.986Z</time></trkpt><trkpt lat="42.18783371132881" lon="11.914959917489531"><ele>422.0</ele><time>2026-04-19T11:53:06.987Z</time></trkpt><trkpt lat="42.18780428209943" lon="11.914829009401492"><ele>423.0</ele><time>2026-04-19T11:53:07.987Z</time></trkpt><trkpt lat="42.18777987007188" lon="11.914711943574954"><ele>424.0</ele><time>2026-04-19T11:53:08.987Z</time></trkpt><trkpt lat="42.18773640254646" lon="11.914575052662011"><ele>425.0</ele><time>2026-04-19T11:53:09.987Z</time></trkpt><trkpt lat="42.187674969018225" lon="11.914435675070786"><ele>425.0</ele><time>2026-04-19T11:53:10.987Z</time></trkpt><trkpt lat="42.187609924260215" lon="11.914289312550501"><ele>425.0</ele><time>2026-04-19T11:53:11.987Z</time></trkpt><trkpt lat="42.18756339838228" lon="11.914167070792018"><ele>425.0</ele><time>2026-04-19T11:53:12.987Z</time></trkpt><trkpt lat="42.18752928797293" lon="11.91406329735939"><ele>425.0</ele><time>2026-04-19T11:53:13.987Z</time></trkpt><trkpt lat="42.18750822168932" lon="11.913959428043961"><ele>425.0</ele><time>2026-04-19T11:53:14.987Z</time></trkpt><trkpt lat="42.18750635864337" lon="11.913855439040242"><ele>425.0</ele><time>2026-04-19T11:53:15.987Z</time></trkpt><trkpt lat="42.187510078152215" lon="11.913736569336297"><ele>425.0</ele><time>2026-04-19T11:53:16.987Z</time></trkpt><trkpt lat="42.18752611532317" lon="11.913607140191349"><ele>425.0</ele><time>2026-04-19T11:53:17.987Z</time></trkpt><trkpt lat="42.187574275579806" lon="11.91348915776193"><ele>425.0</ele><time>2026-04-19T11:53:18.987Z</time></trkpt><trkpt lat="42.18761548305918" lon="11.913353913147644"><ele>425.0</ele><time>2026-04-19T11:53:19.987Z</time></trkpt><trkpt lat="42.187676351181885" lon="11.913251393810475"><ele>425.0</ele><time>2026-04-19T11:53:20.987Z</time></trkpt><trkpt lat="42.18775234072259" lon="11.91316066204704"><ele>425.0</ele><time>2026-04-19T11:53:21.987Z</time></trkpt><trkpt lat="42.18786050559353" lon="11.913094614949905"><ele>425.0</ele><time>2026-04-19T11:53:22.987Z</time></trkpt><trkpt lat="42.18798066912155" lon="11.913028294555675"><ele>425.0</ele><time>2026-04-19T11:53:23.987Z</time></trkpt><trkpt lat="42.18808251688841" lon="11.912960321071898"><ele>424.99999999999994</ele><time>2026-04-19T11:53:24.987Z</time></trkpt><trkpt lat="42.188169159025236" lon="11.912922283720919"><ele>425.0</ele><time>2026-04-19T11:53:25.987Z</time></trkpt><trkpt lat="42.18823355950788" lon="11.912856321035356"><ele>425.0</ele><time>2026-04-19T11:53:26.987Z</time></trkpt><trkpt lat="42.188309090214" lon="11.912787857610226"><ele>425.0</ele><time>2026-04-19T11:53:27.987Z</time></trkpt><trkpt lat="42.18838740693297" lon="11.912722084242521"><ele>424.99999999999994</ele><time>2026-04-19T11:53:28.987Z</time></trkpt><trkpt lat="42.188461520586046" lon="11.912655280991897"><ele>425.0</ele><time>2026-04-19T11:53:29.987Z</time></trkpt><trkpt lat="42.1885427278096" lon="11.912558433097697"><ele>421.8</ele><time>2026-04-19T11:53:30.987Z</time></trkpt><trkpt lat="42.18859186670487" lon="11.912446892851575"><ele>418.6</ele><time>2026-04-19T11:53:31.987Z</time></trkpt><trkpt lat="42.18863079761218" lon="11.912337313977654"><ele>415.4</ele><time>2026-04-19T11:53:32.987Z</time></trkpt><trkpt lat="42.18865912683572" lon="11.912217716591785"><ele>412.2</ele><time>2026-04-19T11:53:33.987Z</time></trkpt><trkpt lat="42.188674681513646" lon="11.912092226878071"><ele>409.0</ele><time>2026-04-19T11:53:34.987Z</time></trkpt><trkpt lat="42.18865798477223" lon="11.911980865889069"><ele>409.00000000000006</ele><time>2026-04-19T11:53:35.987Z</time></trkpt><trkpt lat="42.18866372379163" lon="11.911871159905187"><ele>409.0</ele><time>2026-04-19T11:53:36.987Z</time></trkpt><trkpt lat="42.188634423777" lon="11.911748138888468"><ele>409.0</ele><time>2026-04-19T11:53:37.983Z</time></trkpt><trkpt lat="42.18861725089441" lon="11.91164702181706"><ele>409.0</ele><time>2026-04-19T11:53:38.983Z</time></trkpt><trkpt lat="42.1886003036717" lon="11.911541486985275"><ele>409.00000000000006</ele><time>2026-04-19T11:53:39.983Z</time></trkpt><trkpt lat="42.18858186173547" lon="11.911417704639872"><ele>409.0</ele><time>2026-04-19T11:53:40.984Z</time></trkpt><trkpt lat="42.18860627464002" lon="11.91130311012374"><ele>409.2</ele><time>2026-04-19T11:53:41.984Z</time></trkpt><trkpt lat="42.1886414966915" lon="11.911185380420218"><ele>409.4</ele><time>2026-04-19T11:53:42.984Z</time></trkpt><trkpt lat="42.18868758911867" lon="11.911050214809748"><ele>409.6</ele><time>2026-04-19T11:53:43.984Z</time></trkpt><trkpt lat="42.18872828287475" lon="11.910934848582368"><ele>409.8</ele><time>2026-04-19T11:53:44.983Z</time></trkpt><trkpt lat="42.18875851945363" lon="11.910820668941694"><ele>410.0</ele><time>2026-04-19T11:53:45.983Z</time></trkpt><trkpt lat="42.18878455705377" lon="11.910707442435662"><ele>410.4</ele><time>2026-04-19T11:53:46.983Z</time></trkpt><trkpt lat="42.188794761224706" lon="11.910601535772024"><ele>410.8</ele><time>2026-04-19T11:53:47.983Z</time></trkpt><trkpt lat="42.18880459598452" lon="11.910467419308992"><ele>411.20000000000005</ele><time>2026-04-19T11:53:48.983Z</time></trkpt><trkpt lat="42.188781422804816" lon="11.910325556789875"><ele>411.6</ele><time>2026-04-19T11:53:49.983Z</time></trkpt><trkpt lat="42.188762130000384" lon="11.910188479632449"><ele>412.0</ele><time>2026-04-19T11:53:50.983Z</time></trkpt><trkpt lat="42.18875024725256" lon="11.910091893947529"><ele>412.0</ele><time>2026-04-19T11:53:51.983Z</time></trkpt><trkpt lat="42.18874832461469" lon="11.909991961485588"><ele>412.0</ele><time>2026-04-19T11:53:52.983Z</time></trkpt><trkpt lat="42.188762271655655" lon="11.90985314948011"><ele>412.0</ele><time>2026-04-19T11:53:53.983Z</time></trkpt><trkpt lat="42.18877248000243" lon="11.909701503973285"><ele>412.0</ele><time>2026-04-19T11:53:54.983Z</time></trkpt><trkpt lat="42.18879335817545" lon="11.909543612612044"><ele>412.0</ele><time>2026-04-19T11:53:55.983Z</time></trkpt><trkpt lat="42.18881798371679" lon="11.90940753529104"><ele>412.0</ele><time>2026-04-19T11:53:56.983Z</time></trkpt><trkpt lat="42.188859377491895" lon="11.909272438114655"><ele>412.0</ele><time>2026-04-19T11:53:57.983Z</time></trkpt><trkpt lat="42.18888801881332" lon="11.909162763427464"><ele>412.0</ele><time>2026-04-19T11:53:58.983Z</time></trkpt><trkpt lat="42.18894567922066" lon="11.909030424972219"><ele>412.0</ele><time>2026-04-19T11:53:59.983Z</time></trkpt><trkpt lat="42.18899618237319" lon="11.908917364395622"><ele>412.0</ele><time>2026-04-19T11:54:00.983Z</time></trkpt><trkpt lat="42.18907093465298" lon="11.908807071724285"><ele>409.0</ele><time>2026-04-19T11:54:01.983Z</time></trkpt><trkpt lat="42.18915164693531" lon="11.90867791046122"><ele>406.0</ele><time>2026-04-19T11:54:02.983Z</time></trkpt><trkpt lat="42.18921561381953" lon="11.908572104939935"><ele>403.0</ele><time>2026-04-19T11:54:03.983Z</time></trkpt><trkpt lat="42.18927432982269" lon="11.908470752903295"><ele>400.0</ele><time>2026-04-19T11:54:04.983Z</time></trkpt><trkpt lat="42.18931692933631" lon="11.90836252837551"><ele>397.0</ele><time>2026-04-19T11:54:05.983Z</time></trkpt><trkpt lat="42.18935816693071" lon="11.908230305343752"><ele>397.0</ele><time>2026-04-19T11:54:06.983Z</time></trkpt><trkpt lat="42.189389900925576" lon="11.908085368171077"><ele>397.0</ele><time>2026-04-19T11:54:07.983Z</time></trkpt><trkpt lat="42.189430828131904" lon="11.907927404577448"><ele>397.0</ele><time>2026-04-19T11:54:08.983Z</time></trkpt><trkpt lat="42.18947386592443" lon="11.907794799781062"><ele>397.0</ele><time>2026-04-19T11:54:09.983Z</time></trkpt><trkpt lat="42.18951330424918" lon="11.907675660787367"><ele>397.0</ele><time>2026-04-19T11:54:10.984Z</time></trkpt><trkpt lat="42.189547777124446" lon="11.907562932873594"><ele>399.20000000000005</ele><time>2026-04-19T11:54:11.984Z</time></trkpt><trkpt lat="42.1895792969649" lon="11.90746158461961"><ele>401.4</ele><time>2026-04-19T11:54:12.984Z</time></trkpt><trkpt lat="42.18961040390851" lon="11.90736912809312"><ele>403.6</ele><time>2026-04-19T11:54:13.984Z</time></trkpt><trkpt lat="42.189650749542444" lon="11.907277417390832"><ele>405.79999999999995</ele><time>2026-04-19T11:54:14.984Z</time></trkpt><trkpt lat="42.189653359867236" lon="11.90714388581588"><ele>408.0</ele><time>2026-04-19T11:54:15.984Z</time></trkpt><trkpt lat="42.18965611838572" lon="11.906985563486872"><ele>408.0</ele><time>2026-04-19T11:54:16.984Z</time></trkpt><trkpt lat="42.189673444121894" lon="11.906829250667876"><ele>408.0</ele><time>2026-04-19T11:54:17.984Z</time></trkpt><trkpt lat="42.18971625204659" lon="11.906685901914067"><ele>408.0</ele><time>2026-04-19T11:54:18.984Z</time></trkpt><trkpt lat="42.18979920467651" lon="11.906539686465885"><ele>408.0</ele><time>2026-04-19T11:54:19.984Z</time></trkpt><trkpt lat="42.189819844285346" lon="11.90638706541276"><ele>408.5</ele><time>2026-04-19T11:54:20.984Z</time></trkpt><trkpt lat="42.1898344413053" lon="11.906219876622565"><ele>409.0</ele><time>2026-04-19T11:54:21.984Z</time></trkpt><trkpt lat="42.18985078316203" lon="11.90601672639625"><ele>409.5</ele><time>2026-04-19T11:54:22.984Z</time></trkpt><trkpt lat="42.18987672323881" lon="11.90581430819843"><ele>410.0</ele><time>2026-04-19T11:54:23.984Z</time></trkpt><trkpt lat="42.18992087639933" lon="11.90563749108038"><ele>401.4</ele><time>2026-04-19T11:54:24.984Z</time></trkpt><trkpt lat="42.1899502023715" lon="11.905476975545456"><ele>392.8</ele><time>2026-04-19T11:54:25.984Z</time></trkpt><trkpt lat="42.18996255692991" lon="11.905326344082104"><ele>384.20000000000005</ele><time>2026-04-19T11:54:26.984Z</time></trkpt><trkpt lat="42.18999073324993" lon="11.905205114040156"><ele>375.6</ele><time>2026-04-19T11:54:27.984Z</time></trkpt><trkpt lat="42.19005546561755" lon="11.905120738375112"><ele>367.0</ele><time>2026-04-19T11:54:28.984Z</time></trkpt><trkpt lat="42.19014200445316" lon="11.905007145982093"><ele>367.0</ele><time>2026-04-19T11:54:29.984Z</time></trkpt><trkpt lat="42.190248983774296" lon="11.90489437792777"><ele>367.0</ele><time>2026-04-19T11:54:30.984Z</time></trkpt><trkpt lat="42.190317984629814" lon="11.904784459812163"><ele>367.0</ele><time>2026-04-19T11:54:31.984Z</time></trkpt><trkpt lat="42.19036526510049" lon="11.904644000579411"><ele>367.0</ele><time>2026-04-19T11:54:32.984Z</time></trkpt><trkpt lat="42.190396208209094" lon="11.904509194398221"><ele>367.0</ele><time>2026-04-19T11:54:33.984Z</time></trkpt><trkpt lat="42.190427144981996" lon="11.904354101527435"><ele>367.0</ele><time>2026-04-19T11:54:34.984Z</time></trkpt><trkpt lat="42.19043332746594" lon="11.904158807129148"><ele>367.0</ele><time>2026-04-19T11:54:35.984Z</time></trkpt><trkpt lat="42.190459024076915" lon="11.903973392172862"><ele>367.0</ele><time>2026-04-19T11:54:36.984Z</time></trkpt><trkpt lat="42.190476439786984" lon="11.903810120474748"><ele>367.75</ele><time>2026-04-19T11:54:37.984Z</time></trkpt><trkpt lat="42.1904991680556" lon="11.903651550215951"><ele>368.5</ele><time>2026-04-19T11:54:38.984Z</time></trkpt><trkpt lat="42.190530984735716" lon="11.90348384117077"><ele>369.25</ele><time>2026-04-19T11:54:39.984Z</time></trkpt><trkpt lat="42.190562719577166" lon="11.903312450093074"><ele>370.0</ele><time>2026-04-19T11:54:40.984Z</time></trkpt><trkpt lat="42.19059566249308" lon="11.903131877264094"><ele>367.25</ele><time>2026-04-19T11:54:41.984Z</time></trkpt><trkpt lat="42.190631353402125" lon="11.902954921038999"><ele>364.5</ele><time>2026-04-19T11:54:42.984Z</time></trkpt><trkpt lat="42.19066009226932" lon="11.902764020185339"><ele>361.75</ele><time>2026-04-19T11:54:43.984Z</time></trkpt><trkpt lat="42.19070126627949" lon="11.902572246692339"><ele>359.0</ele><time>2026-04-19T11:54:44.984Z</time></trkpt><trkpt lat="42.19072717022134" lon="11.902360583802128"><ele>356.0</ele><time>2026-04-19T11:54:45.984Z</time></trkpt><trkpt lat="42.19075450068141" lon="11.902181960062855"><ele>353.0</ele><time>2026-04-19T11:54:46.984Z</time></trkpt><trkpt lat="42.190779736867704" lon="11.902034461089752"><ele>350.0</ele><time>2026-04-19T11:54:47.984Z</time></trkpt><trkpt lat="42.1908070269336" lon="11.90191315494971"><ele>347.0</ele><time>2026-04-19T11:54:48.984Z</time></trkpt><trkpt lat="42.19083911768411" lon="11.901801747945132"><ele>344.0</ele><time>2026-04-19T11:54:49.984Z</time></trkpt><trkpt lat="42.19089900325847" lon="11.901688445153624"><ele>343.0</ele><time>2026-04-19T11:54:50.984Z</time></trkpt><trkpt lat="42.19097245903719" lon="11.90156351083213"><ele>342.0</ele><time>2026-04-19T11:54:51.984Z</time></trkpt><trkpt lat="42.19102747816032" lon="11.90143751690462"><ele>341.0</ele><time>2026-04-19T11:54:52.984Z</time></trkpt><trkpt lat="42.191054276207105" lon="11.90131364190579"><ele>340.0</ele><time>2026-04-19T11:54:53.984Z</time></trkpt><trkpt lat="42.19106437642784" lon="11.901149336286911"><ele>339.0</ele><time>2026-04-19T11:54:54.984Z</time></trkpt><trkpt lat="42.191071098892934" lon="11.900931243402416"><ele>337.75</ele><time>2026-04-19T11:54:55.984Z</time></trkpt><trkpt lat="42.19108761175588" lon="11.900719120868729"><ele>336.5</ele><time>2026-04-19T11:54:56.984Z</time></trkpt><trkpt lat="42.191101077169556" lon="11.9005364617119"><ele>335.25</ele><time>2026-04-19T11:54:57.985Z</time></trkpt><trkpt lat="42.19111335435433" lon="11.900361643410207"><ele>334.0</ele><time>2026-04-19T11:54:58.985Z</time></trkpt><trkpt lat="42.191121760807384" lon="11.90018307513017"><ele>334.2</ele><time>2026-04-19T11:54:59.985Z</time></trkpt><trkpt lat="42.19113574450652" lon="11.90002064917348"><ele>334.4</ele><time>2026-04-19T11:55:00.985Z</time></trkpt><trkpt lat="42.19115200627978" lon="11.899894344806846"><ele>334.6</ele><time>2026-04-19T11:55:01.985Z</time></trkpt><trkpt lat="42.19117853169219" lon="11.899792041754148"><ele>334.8</ele><time>2026-04-19T11:55:02.985Z</time></trkpt><trkpt lat="42.191233153004866" lon="11.899645786793434"><ele>335.0</ele><time>2026-04-19T11:55:04.985Z</time></trkpt><trkpt lat="42.19127821380902" lon="11.899559106262688"><ele>335.0</ele><time>2026-04-19T11:55:05.985Z</time></trkpt><trkpt lat="42.19134215726906" lon="11.899434954100812"><ele>335.0</ele><time>2026-04-19T11:55:06.985Z</time></trkpt><trkpt lat="42.1914096512693" lon="11.899313609820876"><ele>335.0</ele><time>2026-04-19T11:55:07.985Z</time></trkpt><trkpt lat="42.191482278530096" lon="11.899177752648738"><ele>335.0</ele><time>2026-04-19T11:55:08.985Z</time></trkpt><trkpt lat="42.19155415376159" lon="11.89903381638512"><ele>337.75</ele><time>2026-04-19T11:55:09.985Z</time></trkpt><trkpt lat="42.19162255930419" lon="11.898893483912056"><ele>340.5</ele><time>2026-04-19T11:55:10.985Z</time></trkpt><trkpt lat="42.19169583953201" lon="11.898747571386158"><ele>343.25</ele><time>2026-04-19T11:55:11.985Z</time></trkpt><trkpt lat="42.19177198436535" lon="11.898591711529079"><ele>346.0</ele><time>2026-04-19T11:55:12.985Z</time></trkpt><trkpt lat="42.19184711804411" lon="11.89842531362337"><ele>343.0</ele><time>2026-04-19T11:55:13.985Z</time></trkpt><trkpt lat="42.19193219661792" lon="11.89826784589113"><ele>340.0</ele><time>2026-04-19T11:55:14.985Z</time></trkpt><trkpt lat="42.19200742099266" lon="11.898112655131904"><ele>337.0</ele><time>2026-04-19T11:55:15.985Z</time></trkpt><trkpt lat="42.19206849429884" lon="11.897954817807555"><ele>334.0</ele><time>2026-04-19T11:55:16.985Z</time></trkpt><trkpt lat="42.192128333202895" lon="11.897808956142006"><ele>334.0</ele><time>2026-04-19T11:55:17.985Z</time></trkpt><trkpt lat="42.192175587140795" lon="11.897678910520689"><ele>334.0</ele><time>2026-04-19T11:55:18.985Z</time></trkpt><trkpt lat="42.19221128308267" lon="11.897581980467146"><ele>334.0</ele><time>2026-04-19T11:55:19.985Z</time></trkpt><trkpt lat="42.19226854503828" lon="11.897503770167445"><ele>334.0</ele><time>2026-04-19T11:55:20.985Z</time></trkpt><trkpt lat="42.192334177512855" lon="11.897431508953579"><ele>334.0</ele><time>2026-04-19T11:55:21.985Z</time></trkpt><trkpt lat="42.192404174158824" lon="11.89739239480085"><ele>334.0</ele><time>2026-04-19T11:55:22.985Z</time></trkpt><trkpt lat="42.192481439873774" lon="11.897384057818046"><ele>333.6</ele><time>2026-04-19T11:55:23.985Z</time></trkpt><trkpt lat="42.1925627767881" lon="11.897394628669861"><ele>333.2</ele><time>2026-04-19T11:55:24.985Z</time></trkpt><trkpt lat="42.192662290641636" lon="11.897430606121084"><ele>332.8</ele><time>2026-04-19T11:55:25.985Z</time></trkpt><trkpt lat="42.19276397701608" lon="11.8974627426189"><ele>332.40000000000003</ele><time>2026-04-19T11:55:26.985Z</time></trkpt><trkpt lat="42.192869623509466" lon="11.897498201559342"><ele>332.0</ele><time>2026-04-19T11:55:27.985Z</time></trkpt><trkpt lat="42.19296946716827" lon="11.897541889188204"><ele>332.0</ele><time>2026-04-19T11:55:28.985Z</time></trkpt><trkpt lat="42.193061371816604" lon="11.897571430813397"><ele>332.0</ele><time>2026-04-19T11:55:29.985Z</time></trkpt><trkpt lat="42.19313806863376" lon="11.897591531501337"><ele>332.0</ele><time>2026-04-19T11:55:30.985Z</time></trkpt><trkpt lat="42.19321976852233" lon="11.897624656971127"><ele>332.0</ele><time>2026-04-19T11:55:31.985Z</time></trkpt><trkpt lat="42.19330147444686" lon="11.897610314974507"><ele>332.0</ele><time>2026-04-19T11:55:32.985Z</time></trkpt><trkpt lat="42.19339478696404" lon="11.89756823497166"><ele>332.0</ele><time>2026-04-19T11:55:33.985Z</time></trkpt><trkpt lat="42.19346978944725" lon="11.897505582928043"><ele>331.0</ele><time>2026-04-19T11:55:34.985Z</time></trkpt><trkpt lat="42.19356779792864" lon="11.897445741466637"><ele>330.0</ele><time>2026-04-19T11:55:35.985Z</time></trkpt><trkpt lat="42.1936563924308" lon="11.897353413632722"><ele>329.0</ele><time>2026-04-19T11:55:36.985Z</time></trkpt><trkpt lat="42.193755474792496" lon="11.897312710713905"><ele>328.0</ele><time>2026-04-19T11:55:37.985Z</time></trkpt><trkpt lat="42.19386316837384" lon="11.897262432638835"><ele>327.0</ele><time>2026-04-19T11:55:38.985Z</time></trkpt><trkpt lat="42.19398107237786" lon="11.897208311380213"><ele>327.40000000000003</ele><time>2026-04-19T11:55:39.985Z</time></trkpt><trkpt lat="42.194089644760716" lon="11.89715562780622"><ele>327.8</ele><time>2026-04-19T11:55:40.985Z</time></trkpt><trkpt lat="42.19419368819483" lon="11.897105141698816"><ele>328.2</ele><time>2026-04-19T11:55:41.985Z</time></trkpt><trkpt lat="42.194290135202834" lon="11.897061593960881"><ele>328.6</ele><time>2026-04-19T11:55:42.985Z</time></trkpt><trkpt lat="42.19438456174975" lon="11.897011034377252"><ele>329.0</ele><time>2026-04-19T11:55:43.982Z</time></trkpt><trkpt lat="42.19448679618194" lon="11.896968364996221"><ele>329.0</ele><time>2026-04-19T11:55:44.982Z</time></trkpt><trkpt lat="42.19459931429414" lon="11.896946890738743"><ele>329.0</ele><time>2026-04-19T11:55:45.982Z</time></trkpt><trkpt lat="42.19470990213477" lon="11.896925917872432"><ele>329.0</ele><time>2026-04-19T11:55:46.982Z</time></trkpt><trkpt lat="42.19492707195832" lon="11.896891733831062"><ele>329.0</ele><time>2026-04-19T11:55:48.982Z</time></trkpt><trkpt lat="42.19501895361412" lon="11.896871109294358"><ele>328.1666666666667</ele><time>2026-04-19T11:55:49.982Z</time></trkpt><trkpt lat="42.19510139599821" lon="11.896859604812208"><ele>327.33333333333337</ele><time>2026-04-19T11:55:50.982Z</time></trkpt><trkpt lat="42.19522078524291" lon="11.896846499052469"><ele>326.5</ele><time>2026-04-19T11:55:52.982Z</time></trkpt><trkpt lat="42.195283460750005" lon="11.896835288921373"><ele>325.6666666666667</ele><time>2026-04-19T11:55:53.982Z</time></trkpt><trkpt lat="42.19534909382798" lon="11.896817762195955"><ele>324.8333333333333</ele><time>2026-04-19T11:55:54.982Z</time></trkpt><trkpt lat="42.19541424663343" lon="11.896812253100205"><ele>324.0</ele><time>2026-04-19T11:55:55.982Z</time></trkpt><trkpt lat="42.19549172792098" lon="11.896797248013563"><ele>324.0</ele><time>2026-04-19T11:55:56.982Z</time></trkpt><trkpt lat="42.195579387895734" lon="11.896774927103225"><ele>324.0</ele><time>2026-04-19T11:55:57.982Z</time></trkpt><trkpt lat="42.19568792884968" lon="11.896734878885711"><ele>324.0</ele><time>2026-04-19T11:55:58.982Z</time></trkpt><trkpt lat="42.195785942275506" lon="11.89666300250652"><ele>324.0</ele><time>2026-04-19T11:55:59.982Z</time></trkpt><trkpt lat="42.195871709996574" lon="11.896626868531017"><ele>324.0</ele><time>2026-04-19T11:56:00.982Z</time></trkpt><trkpt lat="42.1959420816276" lon="11.896576885380439"><ele>319.5</ele><time>2026-04-19T11:56:01.982Z</time></trkpt><trkpt lat="42.19601122089142" lon="11.896546705655394"><ele>315.0</ele><time>2026-04-19T11:56:02.982Z</time></trkpt><trkpt lat="42.196079829414174" lon="11.896468598575574"><ele>310.5</ele><time>2026-04-19T11:56:03.982Z</time></trkpt><trkpt lat="42.196149795150866" lon="11.89637823148671"><ele>306.0</ele><time>2026-04-19T11:56:04.982Z</time></trkpt><trkpt lat="42.1962149129992" lon="11.8963010224623"><ele>301.5</ele><time>2026-04-19T11:56:05.982Z</time></trkpt><trkpt lat="42.1962670198177" lon="11.89621285757148"><ele>297.0</ele><time>2026-04-19T11:56:06.982Z</time></trkpt><trkpt lat="42.19634366353556" lon="11.896142427924469"><ele>297.0</ele><time>2026-04-19T11:56:07.983Z</time></trkpt><trkpt lat="42.19642654214543" lon="11.896079428384313"><ele>297.0</ele><time>2026-04-19T11:56:08.983Z</time></trkpt><trkpt lat="42.1965127997449" lon="11.89603040172552"><ele>297.0</ele><time>2026-04-19T11:56:09.983Z</time></trkpt><trkpt lat="42.196578639675145" lon="11.895994227638612"><ele>297.0</ele><time>2026-04-19T11:56:10.983Z</time></trkpt><trkpt lat="42.196653883723904" lon="11.89596977992928"><ele>297.0</ele><time>2026-04-19T11:56:11.983Z</time></trkpt><trkpt lat="42.19673260293909" lon="11.895959357534915"><ele>297.0</ele><time>2026-04-19T11:56:12.983Z</time></trkpt><trkpt lat="42.19681256401296" lon="11.895968567094211"><ele>296.42857142857144</ele><time>2026-04-19T11:56:13.983Z</time></trkpt><trkpt lat="42.196887049650286" lon="11.895998231439018"><ele>295.8571428571429</ele><time>2026-04-19T11:56:14.983Z</time></trkpt><trkpt lat="42.19696163149986" lon="11.896031945912487"><ele>295.2857142857143</ele><time>2026-04-19T11:56:15.983Z</time></trkpt><trkpt lat="42.197017127156734" lon="11.896105900432312"><ele>294.7142857142857</ele><time>2026-04-19T11:56:16.983Z</time></trkpt><trkpt lat="42.19709049784534" lon="11.896140158286556"><ele>294.1428571428571</ele><time>2026-04-19T11:56:17.983Z</time></trkpt><trkpt lat="42.197141376853885" lon="11.896190453922042"><ele>293.57142857142856</ele><time>2026-04-19T11:56:18.983Z</time></trkpt><trkpt lat="42.1971973199969" lon="11.89624263776196"><ele>293.0</ele><time>2026-04-19T11:56:19.983Z</time></trkpt><trkpt lat="42.19726237835117" lon="11.896305266551455"><ele>293.0</ele><time>2026-04-19T11:56:20.983Z</time></trkpt><trkpt lat="42.19729974313997" lon="11.896401032608795"><ele>293.0</ele><time>2026-04-19T11:56:21.983Z</time></trkpt><trkpt lat="42.197338037258675" lon="11.896489147657782"><ele>293.0</ele><time>2026-04-19T11:56:22.983Z</time></trkpt><trkpt lat="42.19737486812871" lon="11.896595250406268"><ele>293.0</ele><time>2026-04-19T11:56:23.983Z</time></trkpt><trkpt lat="42.19741527934019" lon="11.89671628049399"><ele>293.0</ele><time>2026-04-19T11:56:24.983Z</time></trkpt><trkpt lat="42.197472119073375" lon="11.896839502294046"><ele>293.0</ele><time>2026-04-19T11:56:25.983Z</time></trkpt><trkpt lat="42.19749627747096" lon="11.89698328189351"><ele>290.0</ele><time>2026-04-19T11:56:26.983Z</time></trkpt><trkpt lat="42.1975454421698" lon="11.897135277865436"><ele>287.0</ele><time>2026-04-19T11:56:27.983Z</time></trkpt><trkpt lat="42.19760222026678" lon="11.89728782791128"><ele>284.0</ele><time>2026-04-19T11:56:28.983Z</time></trkpt><trkpt lat="42.19766769317913" lon="11.897444254427032"><ele>281.0</ele><time>2026-04-19T11:56:29.983Z</time></trkpt><trkpt lat="42.19772994066351" lon="11.897595763593715"><ele>281.0</ele><time>2026-04-19T11:56:30.983Z</time></trkpt><trkpt lat="42.19778594691509" lon="11.897749062601621"><ele>281.0</ele><time>2026-04-19T11:56:31.983Z</time></trkpt><trkpt lat="42.19783220901357" lon="11.897892885969098"><ele>281.0</ele><time>2026-04-19T11:56:32.983Z</time></trkpt><trkpt lat="42.19788583528828" lon="11.898037458315002"><ele>281.0</ele><time>2026-04-19T11:56:33.983Z</time></trkpt><trkpt lat="42.19794012240719" lon="11.8981849609721"><ele>281.0</ele><time>2026-04-19T11:56:34.983Z</time></trkpt><trkpt lat="42.19799301680649" lon="11.898323082724762"><ele>281.0</ele><time>2026-04-19T11:56:35.983Z</time></trkpt><trkpt lat="42.198041618616486" lon="11.898466275682896"><ele>281.0</ele><time>2026-04-19T11:56:36.983Z</time></trkpt><trkpt lat="42.19809056521465" lon="11.898597637606844"><ele>281.0</ele><time>2026-04-19T11:56:37.983Z</time></trkpt><trkpt lat="42.198145207929656" lon="11.898722910437113"><ele>281.0</ele><time>2026-04-19T11:56:38.983Z</time></trkpt><trkpt lat="42.19818945712132" lon="11.898858468442265"><ele>275.75</ele><time>2026-04-19T11:56:39.983Z</time></trkpt><trkpt lat="42.19822831076287" lon="11.899007151983687"><ele>270.5</ele><time>2026-04-19T11:56:40.983Z</time></trkpt><trkpt lat="42.198265191486634" lon="11.899154652860888"><ele>265.25</ele><time>2026-04-19T11:56:41.983Z</time></trkpt><trkpt lat="42.19829912020917" lon="11.899305651895533"><ele>260.0</ele><time>2026-04-19T11:56:42.983Z</time></trkpt><trkpt lat="42.19832456921509" lon="11.89946277034133"><ele>260.0</ele><time>2026-04-19T11:56:43.983Z</time></trkpt><trkpt lat="42.19835462156916" lon="11.899602301411623"><ele>260.0</ele><time>2026-04-19T11:56:44.983Z</time></trkpt><trkpt lat="42.19838196611352" lon="11.899731481798012"><ele>260.0</ele><time>2026-04-19T11:56:45.983Z</time></trkpt><trkpt lat="42.19839700741571" lon="11.899839148987311"><ele>260.0</ele><time>2026-04-19T11:56:46.983Z</time></trkpt><trkpt lat="42.19841657589817" lon="11.899933277079688"><ele>260.0</ele><time>2026-04-19T11:56:47.983Z</time></trkpt><trkpt lat="42.198471558915905" lon="11.900043106570664"><ele>260.0</ele><time>2026-04-19T11:56:49.983Z</time></trkpt><trkpt lat="42.19854799373219" lon="11.900104492201374"><ele>260.0</ele><time>2026-04-19T11:56:51.983Z</time></trkpt><trkpt lat="42.19861485634633" lon="11.900076220286296"><ele>260.0</ele><time>2026-04-19T11:56:52.983Z</time></trkpt><trkpt lat="42.19866808827535" lon="11.899925042277454"><ele>260.0</ele><time>2026-04-19T11:56:54.984Z</time></trkpt><trkpt lat="42.1986692286172" lon="11.899822987029212"><ele>260.0</ele><time>2026-04-19T11:56:55.984Z</time></trkpt><trkpt lat="42.198708859022794" lon="11.899713601727184"><ele>260.0</ele><time>2026-04-19T11:56:56.984Z</time></trkpt><trkpt lat="42.19873438220653" lon="11.899593619109043"><ele>260.0</ele><time>2026-04-19T11:56:57.984Z</time></trkpt><trkpt lat="42.19875378543676" lon="11.899487818560806"><ele>260.0</ele><time>2026-04-19T11:56:58.984Z</time></trkpt><trkpt lat="42.19876622567307" lon="11.899384806133403"><ele>260.0</ele><time>2026-04-19T11:56:59.984Z</time></trkpt><trkpt lat="42.19877161146779" lon="11.899283635855964"><ele>260.0</ele><time>2026-04-19T11:57:00.984Z</time></trkpt><trkpt lat="42.1987681810138" lon="11.899171206607686"><ele>260.0</ele><time>2026-04-19T11:57:01.984Z</time></trkpt><trkpt lat="42.1987332214034" lon="11.899059387824305"><ele>260.0</ele><time>2026-04-19T11:57:02.984Z</time></trkpt><trkpt lat="42.198726803700126" lon="11.89893474839394"><ele>260.0</ele><time>2026-04-19T11:57:03.984Z</time></trkpt><trkpt lat="42.19873043571081" lon="11.898827488570753"><ele>260.0</ele><time>2026-04-19T11:57:04.984Z</time></trkpt><trkpt lat="42.19876068615458" lon="11.898704921821897"><ele>260.0</ele><time>2026-04-19T11:57:05.984Z</time></trkpt><trkpt lat="42.198800288328755" lon="11.898589022200957"><ele>260.0</ele><time>2026-04-19T11:57:06.984Z</time></trkpt><trkpt lat="42.19882873022596" lon="11.898494744112044"><ele>260.0</ele><time>2026-04-19T11:57:07.984Z</time></trkpt><trkpt lat="42.198880374296785" lon="11.898394605001528"><ele>260.0</ele><time>2026-04-19T11:57:08.984Z</time></trkpt><trkpt lat="42.19894197006229" lon="11.898314930372793"><ele>253.8</ele><time>2026-04-19T11:57:09.984Z</time></trkpt><trkpt lat="42.19900130272008" lon="11.89821367799686"><ele>247.6</ele><time>2026-04-19T11:57:10.984Z</time></trkpt><trkpt lat="42.19905476229831" lon="11.898094476157414"><ele>241.39999999999998</ele><time>2026-04-19T11:57:11.984Z</time></trkpt><trkpt lat="42.19911026216227" lon="11.897977399391634"><ele>235.2</ele><time>2026-04-19T11:57:12.984Z</time></trkpt><trkpt lat="42.19915892332493" lon="11.897856540063527"><ele>229.0</ele><time>2026-04-19T11:57:13.984Z</time></trkpt><trkpt lat="42.19920531660839" lon="11.897736597971681"><ele>229.0</ele><time>2026-04-19T11:57:14.984Z</time></trkpt><trkpt lat="42.19925493154276" lon="11.897616721923866"><ele>228.99999999999997</ele><time>2026-04-19T11:57:15.984Z</time></trkpt><trkpt lat="42.199297961721115" lon="11.897508480043888"><ele>228.99999999999997</ele><time>2026-04-19T11:57:16.984Z</time></trkpt><trkpt lat="42.199344806600806" lon="11.897377596090376"><ele>229.0</ele><time>2026-04-19T11:57:17.984Z</time></trkpt><trkpt lat="42.19940598700044" lon="11.897245175874339"><ele>229.0</ele><time>2026-04-19T11:57:18.984Z</time></trkpt><trkpt lat="42.19946743215395" lon="11.897117419533751"><ele>228.5</ele><time>2026-04-19T11:57:19.984Z</time></trkpt><trkpt lat="42.199538138437724" lon="11.897018521011221"><ele>228.0</ele><time>2026-04-19T11:57:20.984Z</time></trkpt><trkpt lat="42.199595092416274" lon="11.8968908807411"><ele>227.5</ele><time>2026-04-19T11:57:21.984Z</time></trkpt><trkpt lat="42.19966109280026" lon="11.896749974729236"><ele>227.0</ele><time>2026-04-19T11:57:22.984Z</time></trkpt><trkpt lat="42.19972666751933" lon="11.896614173648523"><ele>227.0</ele><time>2026-04-19T11:57:23.984Z</time></trkpt><trkpt lat="42.199794740580124" lon="11.896478893310174"><ele>227.0</ele><time>2026-04-19T11:57:24.984Z</time></trkpt><trkpt lat="42.19985203871483" lon="11.896369103061515"><ele>227.0</ele><time>2026-04-19T11:57:25.984Z</time></trkpt><trkpt lat="42.19990413097929" lon="11.896274588030156"><ele>227.0</ele><time>2026-04-19T11:57:26.984Z</time></trkpt><trkpt lat="42.19995450450836" lon="11.89618739240483"><ele>227.0</ele><time>2026-04-19T11:57:27.984Z</time></trkpt><trkpt lat="42.20001324597594" lon="11.896086896493008"><ele>224.0</ele><time>2026-04-19T11:57:28.984Z</time></trkpt><trkpt lat="42.200073333387536" lon="11.895984097957314"><ele>221.0</ele><time>2026-04-19T11:57:29.984Z</time></trkpt><trkpt lat="42.20013153078807" lon="11.895884532615442"><ele>218.0</ele><time>2026-04-19T11:57:30.984Z</time></trkpt><trkpt lat="42.200186374910245" lon="11.895790704135099"><ele>215.0</ele><time>2026-04-19T11:57:31.984Z</time></trkpt><trkpt lat="42.200242650852395" lon="11.895695968118797"><ele>212.0</ele><time>2026-04-19T11:57:32.984Z</time></trkpt><trkpt lat="42.20030314606161" lon="11.89559857278041"><ele>212.00000000000003</ele><time>2026-04-19T11:57:33.984Z</time></trkpt><trkpt lat="42.20035968983895" lon="11.895504073060906"><ele>212.0</ele><time>2026-04-19T11:57:34.984Z</time></trkpt><trkpt lat="42.20041441385349" lon="11.895425652479036"><ele>212.0</ele><time>2026-04-19T11:57:35.984Z</time></trkpt><trkpt lat="42.2004552454774" lon="11.895349511872503"><ele>212.0</ele><time>2026-04-19T11:57:36.984Z</time></trkpt><trkpt lat="42.200520452265266" lon="11.895291624913037"><ele>212.00000000000003</ele><time>2026-04-19T11:57:37.984Z</time></trkpt><trkpt lat="42.20057794682703" lon="11.895216584127892"><ele>212.0</ele><time>2026-04-19T11:57:38.984Z</time></trkpt><trkpt lat="42.2006331119184" lon="11.895151202514217"><ele>210.50000000000003</ele><time>2026-04-19T11:57:39.984Z</time></trkpt><trkpt lat="42.20071503814979" lon="11.89507087355981"><ele>209.0</ele><time>2026-04-19T11:57:41.985Z</time></trkpt><trkpt lat="42.200783068129084" lon="11.894995705186597"><ele>207.5</ele><time>2026-04-19T11:57:43.985Z</time></trkpt><trkpt lat="42.200865673833896" lon="11.89501143711556"><ele>206.0</ele><time>2026-04-19T11:57:44.985Z</time></trkpt><trkpt lat="42.20092932571444" lon="11.895028777103006"><ele>204.50000000000003</ele><time>2026-04-19T11:57:45.985Z</time></trkpt><trkpt lat="42.20098759360281" lon="11.895078017882769"><ele>203.0</ele><time>2026-04-19T11:57:46.985Z</time></trkpt><trkpt lat="42.201061804987724" lon="11.895128560169656"><ele>202.0</ele><time>2026-04-19T11:57:47.985Z</time></trkpt><trkpt lat="42.201158623520286" lon="11.895227332207403"><ele>201.0</ele><time>2026-04-19T11:57:49.98Z</time></trkpt><trkpt lat="42.20125787124153" lon="11.895304580789832"><ele>200.0</ele><time>2026-04-19T11:57:51.98Z</time></trkpt><trkpt lat="42.201355523423516" lon="11.89537931660058"><ele>199.0</ele><time>2026-04-19T11:57:53.98Z</time></trkpt><trkpt lat="42.201459895347604" lon="11.895416137856948"><ele>197.16666666666666</ele><time>2026-04-19T11:57:55.98Z</time></trkpt><trkpt lat="42.201549261121535" lon="11.895433350816083"><ele>195.33333333333331</ele><time>2026-04-19T11:57:57.98Z</time></trkpt><trkpt lat="42.20165808826371" lon="11.89543021681661"><ele>193.5</ele><time>2026-04-19T11:57:59.981Z</time></trkpt><trkpt lat="42.201734758137526" lon="11.89541489556368"><ele>191.66666666666666</ele><time>2026-04-19T11:58:00.981Z</time></trkpt><trkpt lat="42.2018084668512" lon="11.895407975887343"><ele>189.83333333333331</ele><time>2026-04-19T11:58:01.98Z</time></trkpt><trkpt lat="42.201884540138984" lon="11.895384184568849"><ele>188.0</ele><time>2026-04-19T11:58:02.98Z</time></trkpt><trkpt lat="42.2019677713872" lon="11.895355966368268"><ele>188.0</ele><time>2026-04-19T11:58:03.98Z</time></trkpt><trkpt lat="42.20204456814777" lon="11.895323969413957"><ele>188.0</ele><time>2026-04-19T11:58:04.981Z</time></trkpt><trkpt lat="42.20212050834834" lon="11.89528343163462"><ele>188.0</ele><time>2026-04-19T11:58:05.981Z</time></trkpt><trkpt lat="42.20220207116108" lon="11.89525416889999"><ele>188.0</ele><time>2026-04-19T11:58:06.981Z</time></trkpt><trkpt lat="42.20228224533561" lon="11.895222502357587"><ele>188.0</ele><time>2026-04-19T11:58:07.981Z</time></trkpt><trkpt lat="42.202360468856575" lon="11.895193302269732"><ele>188.0</ele><time>2026-04-19T11:58:08.981Z</time></trkpt><trkpt lat="42.20243126962015" lon="11.895161230578921"><ele>186.33333333333331</ele><time>2026-04-19T11:58:09.981Z</time></trkpt><trkpt lat="42.20250446188174" lon="11.89514669510048"><ele>184.66666666666666</ele><time>2026-04-19T11:58:10.981Z</time></trkpt><trkpt lat="42.20261215031681" lon="11.89512458046891"><ele>183.0</ele><time>2026-04-19T11:58:12.981Z</time></trkpt><trkpt lat="42.2026846424777" lon="11.895091358597675"><ele>181.33333333333334</ele><time>2026-04-19T11:58:14.981Z</time></trkpt><trkpt lat="42.20272183084402" lon="11.895019053848516"><ele>179.66666666666669</ele><time>2026-04-19T11:58:16.981Z</time></trkpt><trkpt lat="42.20273474152631" lon="11.894889261414143"><ele>178.0</ele><time>2026-04-19T11:58:18.981Z</time></trkpt><trkpt lat="42.20272851071077" lon="11.89475922783912"><ele>178.0</ele><time>2026-04-19T11:58:19.981Z</time></trkpt><trkpt lat="42.20272228391304" lon="11.894607728954997"><ele>178.0</ele><time>2026-04-19T11:58:20.981Z</time></trkpt><trkpt lat="42.20272085826074" lon="11.8944529715214"><ele>178.0</ele><time>2026-04-19T11:58:21.981Z</time></trkpt><trkpt lat="42.202711985241024" lon="11.894317894695138"><ele>178.0</ele><time>2026-04-19T11:58:22.981Z</time></trkpt><trkpt lat="42.20270795682706" lon="11.894179688594452"><ele>178.0</ele><time>2026-04-19T11:58:23.981Z</time></trkpt><trkpt lat="42.20269794432729" lon="11.894058200070637"><ele>178.0</ele><time>2026-04-19T11:58:24.981Z</time></trkpt><trkpt lat="42.20269050362237" lon="11.893938890026636"><ele>178.0</ele><time>2026-04-19T11:58:25.981Z</time></trkpt><trkpt lat="42.2026822167753" lon="11.893810835896954"><ele>178.0</ele><time>2026-04-19T11:58:26.981Z</time></trkpt><trkpt lat="42.202668071663744" lon="11.893670896374998"><ele>178.0</ele><time>2026-04-19T11:58:27.981Z</time></trkpt><trkpt lat="42.202661428239466" lon="11.89353656721623"><ele>178.0</ele><time>2026-04-19T11:58:28.981Z</time></trkpt><trkpt lat="42.2026538429536" lon="11.893426246510845"><ele>177.66666666666669</ele><time>2026-04-19T11:58:29.981Z</time></trkpt><trkpt lat="42.20264989941044" lon="11.893331461168213"><ele>177.33333333333334</ele><time>2026-04-19T11:58:30.981Z</time></trkpt><trkpt lat="42.2026451295464" lon="11.893231619343187"><ele>177.0</ele><time>2026-04-19T11:58:31.981Z</time></trkpt><trkpt lat="42.20264490246706" lon="11.893133294319886"><ele>176.66666666666666</ele><time>2026-04-19T11:58:32.981Z</time></trkpt><trkpt lat="42.20264212997796" lon="11.893004289198759"><ele>176.33333333333331</ele><time>2026-04-19T11:58:33.981Z</time></trkpt><trkpt lat="42.20265591210798" lon="11.892855818942644"><ele>176.0</ele><time>2026-04-19T11:58:34.981Z</time></trkpt><trkpt lat="42.20268550305663" lon="11.892693942498102"><ele>176.0</ele><time>2026-04-19T11:58:35.981Z</time></trkpt><trkpt lat="42.202723273934126" lon="11.892533282237642"><ele>176.0</ele><time>2026-04-19T11:58:36.981Z</time></trkpt><trkpt lat="42.20273551009584" lon="11.892365467704085"><ele>176.0</ele><time>2026-04-19T11:58:37.981Z</time></trkpt><trkpt lat="42.20273637483559" lon="11.892203104651454"><ele>176.0</ele><time>2026-04-19T11:58:38.981Z</time></trkpt><trkpt lat="42.20274582678116" lon="11.892051611212763"><ele>176.0</ele><time>2026-04-19T11:58:39.981Z</time></trkpt><trkpt lat="42.20276003117726" lon="11.89191290806846"><ele>176.0</ele><time>2026-04-19T11:58:40.981Z</time></trkpt><trkpt lat="42.202747993246156" lon="11.891785891850127"><ele>176.0</ele><time>2026-04-19T11:58:41.981Z</time></trkpt><trkpt lat="42.2027356630434" lon="11.891663268134565"><ele>176.0</ele><time>2026-04-19T11:58:42.981Z</time></trkpt><trkpt lat="42.20270500391054" lon="11.891545333459383"><ele>176.0</ele><time>2026-04-19T11:58:43.981Z</time></trkpt><trkpt lat="42.20269221928082" lon="11.891425143130007"><ele>175.5</ele><time>2026-04-19T11:58:44.981Z</time></trkpt><trkpt lat="42.20266246357179" lon="11.891313064182802"><ele>175.0</ele><time>2026-04-19T11:58:45.981Z</time></trkpt><trkpt lat="42.202622426209096" lon="11.891213192866717"><ele>174.5</ele><time>2026-04-19T11:58:46.981Z</time></trkpt><trkpt lat="42.202573792847645" lon="11.89112187984154"><ele>174.0</ele><time>2026-04-19T11:58:47.981Z</time></trkpt><trkpt lat="42.20252061911027" lon="11.891027112076008"><ele>173.5</ele><time>2026-04-19T11:58:48.981Z</time></trkpt><trkpt lat="42.202451045337824" lon="11.890932593281722"><ele>173.0</ele><time>2026-04-19T11:58:49.981Z</time></trkpt><trkpt lat="42.20238617601035" lon="11.890845959864867"><ele>172.16666666666666</ele><time>2026-04-19T11:58:50.981Z</time></trkpt><trkpt lat="42.20233179893316" lon="11.890773353141078"><ele>171.33333333333331</ele><time>2026-04-19T11:58:51.982Z</time></trkpt><trkpt lat="42.202260419483686" lon="11.890736019007578"><ele>170.5</ele><time>2026-04-19T11:58:52.982Z</time></trkpt><trkpt lat="42.20220155457362" lon="11.890667902195412"><ele>169.66666666666666</ele><time>2026-04-19T11:58:53.982Z</time></trkpt><trkpt lat="42.20210987867957" lon="11.890535554441202"><ele>168.83333333333334</ele><time>2026-04-19T11:58:55.982Z</time></trkpt><trkpt lat="42.20204493612815" lon="11.89049238194505"><ele>168.0</ele><time>2026-04-19T11:58:56.982Z</time></trkpt><trkpt lat="42.20198341625898" lon="11.890451655620396"><ele>168.0</ele><time>2026-04-19T11:58:57.982Z</time></trkpt><trkpt lat="42.20190721491103" lon="11.890418016089487"><ele>168.0</ele><time>2026-04-19T11:58:58.982Z</time></trkpt><trkpt lat="42.201822520279" lon="11.890382382938697"><ele>168.0</ele><time>2026-04-19T11:58:59.982Z</time></trkpt><trkpt lat="42.201738765894255" lon="11.890355583287665"><ele>168.0</ele><time>2026-04-19T11:59:00.982Z</time></trkpt><trkpt lat="42.20166496455271" lon="11.89032818904808"><ele>168.0</ele><time>2026-04-19T11:59:01.982Z</time></trkpt><trkpt lat="42.201593076826654" lon="11.890280020020548"><ele>168.0</ele><time>2026-04-19T11:59:02.982Z</time></trkpt><trkpt lat="42.2015078698872" lon="11.890211920890604"><ele>167.83333333333334</ele><time>2026-04-19T11:59:03.982Z</time></trkpt><trkpt lat="42.20143167789549" lon="11.8901417483524"><ele>167.66666666666666</ele><time>2026-04-19T11:59:04.982Z</time></trkpt><trkpt lat="42.20137296811261" lon="11.890078371562112"><ele>167.5</ele><time>2026-04-19T11:59:05.982Z</time></trkpt><trkpt lat="42.201340064019654" lon="11.889993270568482"><ele>167.33333333333331</ele><time>2026-04-19T11:59:06.982Z</time></trkpt><trkpt lat="42.2013259373126" lon="11.889888564076895"><ele>167.16666666666666</ele><time>2026-04-19T11:59:07.982Z</time></trkpt><trkpt lat="42.20129710335926" lon="11.889754258923528"><ele>167.0</ele><time>2026-04-19T11:59:08.982Z</time></trkpt><trkpt lat="42.20126211323615" lon="11.889601475414032"><ele>167.0</ele><time>2026-04-19T11:59:09.982Z</time></trkpt><trkpt lat="42.2012339945187" lon="11.889449778801504"><ele>167.0</ele><time>2026-04-19T11:59:10.982Z</time></trkpt><trkpt lat="42.20122845143798" lon="11.889329922934156"><ele>167.0</ele><time>2026-04-19T11:59:11.982Z</time></trkpt><trkpt lat="42.20122718103051" lon="11.889222212356648"><ele>167.0</ele><time>2026-04-19T11:59:12.982Z</time></trkpt><trkpt lat="42.20121704574641" lon="11.889112066707643"><ele>167.0</ele><time>2026-04-19T11:59:13.982Z</time></trkpt><trkpt lat="42.20119352550604" lon="11.88900297260359"><ele>165.4</ele><time>2026-04-19T11:59:14.982Z</time></trkpt><trkpt lat="42.201149734879934" lon="11.888867396216515"><ele>163.79999999999998</ele><time>2026-04-19T11:59:15.982Z</time></trkpt><trkpt lat="42.201117993954284" lon="11.888726869358775"><ele>162.2</ele><time>2026-04-19T11:59:16.982Z</time></trkpt><trkpt lat="42.20109382823839" lon="11.888596831634564"><ele>160.6</ele><time>2026-04-19T11:59:17.982Z</time></trkpt><trkpt lat="42.20108655013321" lon="11.888490801729883"><ele>159.0</ele><time>2026-04-19T11:59:18.982Z</time></trkpt><trkpt lat="42.2010843586662" lon="11.888352520617667"><ele>158.5</ele><time>2026-04-19T11:59:19.982Z</time></trkpt><trkpt lat="42.20109818876762" lon="11.888198541911905"><ele>158.0</ele><time>2026-04-19T11:59:20.982Z</time></trkpt><trkpt lat="42.20110545419737" lon="11.888074891294325"><ele>157.5</ele><time>2026-04-19T11:59:21.982Z</time></trkpt><trkpt lat="42.201088250777616" lon="11.887988396535604"><ele>157.0</ele><time>2026-04-19T11:59:22.982Z</time></trkpt><trkpt lat="42.20105621294476" lon="11.887902621830706"><ele>156.5</ele><time>2026-04-19T11:59:23.982Z</time></trkpt><trkpt lat="42.201024386950145" lon="11.887809925768886"><ele>156.0</ele><time>2026-04-19T11:59:24.982Z</time></trkpt><trkpt lat="42.200953283403535" lon="11.887727441103255"><ele>156.0</ele><time>2026-04-19T11:59:25.982Z</time></trkpt><trkpt lat="42.2008466545455" lon="11.887673603592434"><ele>156.0</ele><time>2026-04-19T11:59:26.982Z</time></trkpt><trkpt lat="42.20077935894821" lon="11.887596729079034"><ele>156.0</ele><time>2026-04-19T11:59:27.982Z</time></trkpt><trkpt lat="42.20072746639743" lon="11.88751308465152"><ele>156.0</ele><time>2026-04-19T11:59:28.982Z</time></trkpt><trkpt lat="42.2006786064914" lon="11.887410838171398"><ele>156.0</ele><time>2026-04-19T11:59:29.982Z</time></trkpt><trkpt lat="42.20063192003462" lon="11.887287282201921"><ele>158.25</ele><time>2026-04-19T11:59:30.982Z</time></trkpt><trkpt lat="42.20057736080608" lon="11.887153299047535"><ele>160.5</ele><time>2026-04-19T11:59:31.982Z</time></trkpt><trkpt lat="42.20050421323327" lon="11.887011047661918"><ele>162.75</ele><time>2026-04-19T11:59:32.982Z</time></trkpt><trkpt lat="42.200439820364565" lon="11.886880243450795"><ele>165.0</ele><time>2026-04-19T11:59:33.982Z</time></trkpt><trkpt lat="42.20038576421285" lon="11.886776306839613"><ele>163.8</ele><time>2026-04-19T11:59:34.982Z</time></trkpt><trkpt lat="42.20035248824037" lon="11.88669786477399"><ele>162.6</ele><time>2026-04-19T11:59:35.982Z</time></trkpt><trkpt lat="42.200292033007386" lon="11.886596717448393"><ele>161.4</ele><time>2026-04-19T11:59:37.982Z</time></trkpt><trkpt lat="42.200182321991456" lon="11.886550671666926"><ele>160.2</ele><time>2026-04-19T11:59:39.983Z</time></trkpt><trkpt lat="42.20009284575184" lon="11.886517683784641"><ele>159.0</ele><time>2026-04-19T11:59:40.983Z</time></trkpt><trkpt lat="42.19999940463091" lon="11.886482646816884"><ele>159.0</ele><time>2026-04-19T11:59:41.983Z</time></trkpt><trkpt lat="42.19992919170824" lon="11.886452124772834"><ele>159.0</ele><time>2026-04-19T11:59:42.983Z</time></trkpt><trkpt lat="42.19985433029529" lon="11.886422674194806"><ele>159.0</ele><time>2026-04-19T11:59:43.983Z</time></trkpt><trkpt lat="42.19978911347141" lon="11.88638547860688"><ele>159.0</ele><time>2026-04-19T11:59:44.983Z</time></trkpt><trkpt lat="42.19972813606799" lon="11.886354153052025"><ele>159.0</ele><time>2026-04-19T11:59:45.983Z</time></trkpt><trkpt lat="42.19966417534574" lon="11.8863123449838"><ele>159.0</ele><time>2026-04-19T11:59:46.983Z</time></trkpt><trkpt lat="42.199601500473825" lon="11.886238136314272"><ele>159.0</ele><time>2026-04-19T11:59:47.983Z</time></trkpt><trkpt lat="42.19953954851256" lon="11.886158265328751"><ele>159.2</ele><time>2026-04-19T11:59:48.983Z</time></trkpt><trkpt lat="42.19947877639485" lon="11.886070413211897"><ele>159.4</ele><time>2026-04-19T11:59:49.983Z</time></trkpt><trkpt lat="42.19941851892832" lon="11.885969801888084"><ele>159.6</ele><time>2026-04-19T11:59:50.983Z</time></trkpt><trkpt lat="42.199359709331915" lon="11.885869022325952"><ele>159.8</ele><time>2026-04-19T11:59:51.983Z</time></trkpt><trkpt lat="42.19930177140914" lon="11.885762125765686"><ele>160.0</ele><time>2026-04-19T11:59:52.983Z</time></trkpt><trkpt lat="42.19925204327392" lon="11.8856735042421"><ele>160.0</ele><time>2026-04-19T11:59:53.983Z</time></trkpt><trkpt lat="42.199207478491" lon="11.88557622519971"><ele>160.0</ele><time>2026-04-19T11:59:54.983Z</time></trkpt><trkpt lat="42.19913961315242" lon="11.885472500125806"><ele>160.0</ele><time>2026-04-19T11:59:55.98Z</time></trkpt><trkpt lat="42.19907283216024" lon="11.885359043938157"><ele>160.0</ele><time>2026-04-19T11:59:56.98Z</time></trkpt><trkpt lat="42.19900652632426" lon="11.885268366898988"><ele>160.0</ele><time>2026-04-19T11:59:57.98Z</time></trkpt><trkpt lat="42.198958401680166" lon="11.88516665695404"><ele>161.6</ele><time>2026-04-19T11:59:58.979Z</time></trkpt><trkpt lat="42.19889895162874" lon="11.885067743767047"><ele>163.2</ele><time>2026-04-19T11:59:59.98Z</time></trkpt><trkpt lat="42.19883204112559" lon="11.884966539870181"><ele>164.8</ele><time>2026-04-19T12:00:00.98Z</time></trkpt><trkpt lat="42.198770404174894" lon="11.884873374889834"><ele>166.4</ele><time>2026-04-19T12:00:01.98Z</time></trkpt><trkpt lat="42.198706942236754" lon="11.884767679072695"><ele>168.0</ele><time>2026-04-19T12:00:02.98Z</time></trkpt><trkpt lat="42.19864545592297" lon="11.88466329579386"><ele>168.0</ele><time>2026-04-19T12:00:03.98Z</time></trkpt><trkpt lat="42.19857610509662" lon="11.884578470294679"><ele>168.0</ele><time>2026-04-19T12:00:04.979Z</time></trkpt><trkpt lat="42.19850765905954" lon="11.884500702814345"><ele>168.0</ele><time>2026-04-19T12:00:05.98Z</time></trkpt><trkpt lat="42.19844290034986" lon="11.88443920259458"><ele>168.0</ele><time>2026-04-19T12:00:06.98Z</time></trkpt><trkpt lat="42.19838340688897" lon="11.884387659375173"><ele>168.0</ele><time>2026-04-19T12:00:07.98Z</time></trkpt><trkpt lat="42.19830495476452" lon="11.88433417416225"><ele>168.0</ele><time>2026-04-19T12:00:08.98Z</time></trkpt><trkpt lat="42.1982222809711" lon="11.884293968377074"><ele>168.0</ele><time>2026-04-19T12:00:09.98Z</time></trkpt><trkpt lat="42.19812261468696" lon="11.884269064309928"><ele>168.0</ele><time>2026-04-19T12:00:10.98Z</time></trkpt><trkpt lat="42.19803185948746" lon="11.884242718191974"><ele>168.0</ele><time>2026-04-19T12:00:11.98Z</time></trkpt><trkpt lat="42.197944748510146" lon="11.884203073318627"><ele>168.0</ele><time>2026-04-19T12:00:12.98Z</time></trkpt><trkpt lat="42.197865054695335" lon="11.884136710156707"><ele>168.0</ele><time>2026-04-19T12:00:13.98Z</time></trkpt><trkpt lat="42.197792510230535" lon="11.884053551666977"><ele>168.0</ele><time>2026-04-19T12:00:14.98Z</time></trkpt><trkpt lat="42.19771132544635" lon="11.883953457997206"><ele>168.0</ele><time>2026-04-19T12:00:15.98Z</time></trkpt><trkpt lat="42.19761583151294" lon="11.883844513604817"><ele>168.0</ele><time>2026-04-19T12:00:16.98Z</time></trkpt><trkpt lat="42.19753671706311" lon="11.88371154560862"><ele>168.0</ele><time>2026-04-19T12:00:17.98Z</time></trkpt><trkpt lat="42.19748080676822" lon="11.883587392327556"><ele>168.0</ele><time>2026-04-19T12:00:18.98Z</time></trkpt><trkpt lat="42.19743198661247" lon="11.883451832813847"><ele>168.0</ele><time>2026-04-19T12:00:19.98Z</time></trkpt><trkpt lat="42.19738210806303" lon="11.883296061043822"><ele>168.0</ele><time>2026-04-19T12:00:20.98Z</time></trkpt><trkpt lat="42.19734118892358" lon="11.88314925736634"><ele>168.0</ele><time>2026-04-19T12:00:21.98Z</time></trkpt><trkpt lat="42.19731086508312" lon="11.883021668251661"><ele>168.0</ele><time>2026-04-19T12:00:22.98Z</time></trkpt><trkpt lat="42.19728521790551" lon="11.882906352622626"><ele>168.0</ele><time>2026-04-19T12:00:23.98Z</time></trkpt><trkpt lat="42.197249113309475" lon="11.882787025198928"><ele>168.0</ele><time>2026-04-19T12:00:24.98Z</time></trkpt><trkpt lat="42.19721912441412" lon="11.882697135923845"><ele>168.0</ele><time>2026-04-19T12:00:25.98Z</time></trkpt><trkpt lat="42.197157777163696" lon="11.882589550247934"><ele>168.0</ele><time>2026-04-19T12:00:27.98Z</time></trkpt><trkpt lat="42.19712085046873" lon="11.882486664803334"><ele>168.0</ele><time>2026-04-19T12:00:30.98Z</time></trkpt><trkpt lat="42.19706637268021" lon="11.882373377400492"><ele>166.8</ele><time>2026-04-19T12:00:32.98Z</time></trkpt><trkpt lat="42.19701537548929" lon="11.882267327538814"><ele>165.60000000000002</ele><time>2026-04-19T12:00:34.98Z</time></trkpt><trkpt lat="42.19694509129759" lon="11.882236113565336"><ele>164.39999999999998</ele><time>2026-04-19T12:00:35.981Z</time></trkpt><trkpt lat="42.19696495194258" lon="11.882050914925118"><ele>163.2</ele><time>2026-04-19T12:00:37.981Z</time></trkpt><trkpt lat="42.19697058079317" lon="11.881941153306977"><ele>162.0</ele><time>2026-04-19T12:00:38.981Z</time></trkpt><trkpt lat="42.19697238966617" lon="11.881793936301394"><ele>161.0</ele><time>2026-04-19T12:00:39.981Z</time></trkpt><trkpt lat="42.19697011464162" lon="11.88162774632595"><ele>160.0</ele><time>2026-04-19T12:00:40.981Z</time></trkpt><trkpt lat="42.19696472316655" lon="11.881454350936798"><ele>159.0</ele><time>2026-04-19T12:00:41.981Z</time></trkpt><trkpt lat="42.19695812538304" lon="11.881281786788874"><ele>158.0</ele><time>2026-04-19T12:00:42.981Z</time></trkpt><trkpt lat="42.19695701140674" lon="11.88108715289987"><ele>156.75</ele><time>2026-04-19T12:00:43.981Z</time></trkpt><trkpt lat="42.19694935230079" lon="11.88088476096465"><ele>155.5</ele><time>2026-04-19T12:00:44.981Z</time></trkpt><trkpt lat="42.19693496543959" lon="11.880687268355928"><ele>154.25</ele><time>2026-04-19T12:00:45.981Z</time></trkpt><trkpt lat="42.19692690817459" lon="11.880491548830934"><ele>153.0</ele><time>2026-04-19T12:00:46.981Z</time></trkpt><trkpt lat="42.19693665053987" lon="11.880314396626163"><ele>153.0</ele><time>2026-04-19T12:00:47.981Z</time></trkpt><trkpt lat="42.196924805413516" lon="11.880142562732791"><ele>153.0</ele><time>2026-04-19T12:00:48.981Z</time></trkpt><trkpt lat="42.19691632924208" lon="11.879981212862104"><ele>153.0</ele><time>2026-04-19T12:00:49.981Z</time></trkpt><trkpt lat="42.19691195796099" lon="11.87982855740877"><ele>153.0</ele><time>2026-04-19T12:00:50.981Z</time></trkpt><trkpt lat="42.196912780106906" lon="11.879676406205016"><ele>152.83333333333334</ele><time>2026-04-19T12:00:51.981Z</time></trkpt><trkpt lat="42.19692004505483" lon="11.879536373583345"><ele>152.66666666666666</ele><time>2026-04-19T12:00:52.981Z</time></trkpt><trkpt lat="42.196925610931" lon="11.879407722635278"><ele>152.5</ele><time>2026-04-19T12:00:53.981Z</time></trkpt><trkpt lat="42.196919203570786" lon="11.879297822974314"><ele>152.33333333333331</ele><time>2026-04-19T12:00:54.981Z</time></trkpt><trkpt lat="42.19691951057115" lon="11.879205603157951"><ele>152.16666666666666</ele><time>2026-04-19T12:00:55.981Z</time></trkpt><trkpt lat="42.19698129363272" lon="11.879106008022612"><ele>152.0</ele><time>2026-04-19T12:00:57.981Z</time></trkpt><trkpt lat="42.19708915444185" lon="11.87907516568707"><ele>152.0</ele><time>2026-04-19T12:00:59.981Z</time></trkpt><trkpt lat="42.1971628781198" lon="11.879106031718573"><ele>152.0</ele><time>2026-04-19T12:01:01.981Z</time></trkpt><trkpt lat="42.19724242936073" lon="11.879100057238963"><ele>152.0</ele><time>2026-04-19T12:01:05.981Z</time></trkpt><trkpt lat="42.19733532777737" lon="11.879078634471982"><ele>152.0</ele><time>2026-04-19T12:01:16.981Z</time></trkpt><trkpt lat="42.19740161004383" lon="11.879082262881605"><ele>152.0</ele><time>2026-04-19T12:01:17.981Z</time></trkpt><trkpt lat="42.197501735425895" lon="11.879079514548524"><ele>152.0</ele><time>2026-04-19T12:01:18.981Z</time></trkpt><trkpt lat="42.19760094837894" lon="11.87908105184522"><ele>152.4</ele><time>2026-04-19T12:01:19.981Z</time></trkpt><trkpt lat="42.19770083208516" lon="11.879067344038292"><ele>152.79999999999998</ele><time>2026-04-19T12:01:20.981Z</time></trkpt><trkpt lat="42.197799431821885" lon="11.879033731953088"><ele>153.2</ele><time>2026-04-19T12:01:21.981Z</time></trkpt><trkpt lat="42.19789372680429" lon="11.878972964596072"><ele>153.6</ele><time>2026-04-19T12:01:22.982Z</time></trkpt><trkpt lat="42.197981722988196" lon="11.878899058026727"><ele>154.0</ele><time>2026-04-19T12:01:23.982Z</time></trkpt><trkpt lat="42.198076935620584" lon="11.878789524916073"><ele>153.33333333333334</ele><time>2026-04-19T12:01:24.982Z</time></trkpt><trkpt lat="42.19818457255085" lon="11.878658558118605"><ele>152.66666666666666</ele><time>2026-04-19T12:01:25.982Z</time></trkpt><trkpt lat="42.19829381262025" lon="11.878519690684453"><ele>152.0</ele><time>2026-04-19T12:01:26.982Z</time></trkpt><trkpt lat="42.19839210230429" lon="11.878354290023339"><ele>153.33333333333331</ele><time>2026-04-19T12:01:27.982Z</time></trkpt><trkpt lat="42.1985077967738" lon="11.878199515152705"><ele>154.66666666666666</ele><time>2026-04-19T12:01:28.982Z</time></trkpt><trkpt lat="42.19862260111887" lon="11.878031785034452"><ele>156.0</ele><time>2026-04-19T12:01:29.982Z</time></trkpt><trkpt lat="42.19873593210962" lon="11.877846243253845"><ele>156.0</ele><time>2026-04-19T12:01:30.982Z</time></trkpt><trkpt lat="42.19886182045629" lon="11.877668108903128"><ele>156.0</ele><time>2026-04-19T12:01:31.982Z</time></trkpt><trkpt lat="42.1989879917183" lon="11.877507392038668"><ele>156.0</ele><time>2026-04-19T12:01:32.982Z</time></trkpt><trkpt lat="42.19911143968002" lon="11.877331650200002"><ele>155.33333333333334</ele><time>2026-04-19T12:01:33.982Z</time></trkpt><trkpt lat="42.19921190568539" lon="11.877155748999787"><ele>154.66666666666669</ele><time>2026-04-19T12:01:34.982Z</time></trkpt><trkpt lat="42.19932361466809" lon="11.87700401499987"><ele>154.0</ele><time>2026-04-19T12:01:35.982Z</time></trkpt><trkpt lat="42.1994368423536" lon="11.876844408092417"><ele>155.5</ele><time>2026-04-19T12:01:36.982Z</time></trkpt><trkpt lat="42.19953867847388" lon="11.876688159544267"><ele>157.0</ele><time>2026-04-19T12:01:37.982Z</time></trkpt><trkpt lat="42.19963641114433" lon="11.876538000268676"><ele>158.5</ele><time>2026-04-19T12:01:38.982Z</time></trkpt><trkpt lat="42.199734705631414" lon="11.876400262376169"><ele>160.0</ele><time>2026-04-19T12:01:39.982Z</time></trkpt><trkpt lat="42.19983237284836" lon="11.876275300845416"><ele>159.8</ele><time>2026-04-19T12:01:40.982Z</time></trkpt><trkpt lat="42.19991635714746" lon="11.876151976052224"><ele>159.6</ele><time>2026-04-19T12:01:41.982Z</time></trkpt><trkpt lat="42.19998829319042" lon="11.876038187260454"><ele>159.4</ele><time>2026-04-19T12:01:42.982Z</time></trkpt><trkpt lat="42.200041629140436" lon="11.875936296451112"><ele>159.2</ele><time>2026-04-19T12:01:43.982Z</time></trkpt><trkpt lat="42.20007811810997" lon="11.875848563801997"><ele>159.0</ele><time>2026-04-19T12:01:44.982Z</time></trkpt><trkpt lat="42.2000949551175" lon="11.875753716907335"><ele>159.0</ele><time>2026-04-19T12:01:45.982Z</time></trkpt><trkpt lat="42.20010796222638" lon="11.875649458020275"><ele>159.0</ele><time>2026-04-19T12:01:46.982Z</time></trkpt><trkpt lat="42.200085898018436" lon="11.87551110813492"><ele>159.0</ele><time>2026-04-19T12:01:47.982Z</time></trkpt><trkpt lat="42.20004837673527" lon="11.875341435589176"><ele>159.0</ele><time>2026-04-19T12:01:48.982Z</time></trkpt><trkpt lat="42.200012506349864" lon="11.875143485347222"><ele>159.33333333333334</ele><time>2026-04-19T12:01:49.982Z</time></trkpt><trkpt lat="42.1999759078024" lon="11.874928003375283"><ele>159.66666666666669</ele><time>2026-04-19T12:01:50.982Z</time></trkpt><trkpt lat="42.19993766352659" lon="11.874701270151904"><ele>160.0</ele><time>2026-04-19T12:01:51.982Z</time></trkpt><trkpt lat="42.19989074226634" lon="11.874489365471373"><ele>160.0</ele><time>2026-04-19T12:01:52.982Z</time></trkpt><trkpt lat="42.19984991685536" lon="11.874303156177396"><ele>160.0</ele><time>2026-04-19T12:01:53.982Z</time></trkpt><trkpt lat="42.199816044781905" lon="11.874126250620543"><ele>160.0</ele><time>2026-04-19T12:01:54.982Z</time></trkpt><trkpt lat="42.199779289387266" lon="11.873975968668883"><ele>160.0</ele><time>2026-04-19T12:01:55.982Z</time></trkpt><trkpt lat="42.19974068699579" lon="11.873836821856834"><ele>160.4</ele><time>2026-04-19T12:01:56.982Z</time></trkpt><trkpt lat="42.1997109733905" lon="11.873705923307659"><ele>160.8</ele><time>2026-04-19T12:01:57.982Z</time></trkpt><trkpt lat="42.199685742272216" lon="11.873577961359226"><ele>161.2</ele><time>2026-04-19T12:01:58.982Z</time></trkpt><trkpt lat="42.199693357639205" lon="11.873432942232698"><ele>161.6</ele><time>2026-04-19T12:01:59.982Z</time></trkpt><trkpt lat="42.199694051062764" lon="11.873269330340145"><ele>162.0</ele><time>2026-04-19T12:02:00.982Z</time></trkpt><trkpt lat="42.199707381999815" lon="11.87311551421302"><ele>162.0</ele><time>2026-04-19T12:02:01.979Z</time></trkpt><trkpt lat="42.19972526707277" lon="11.872954893661461"><ele>162.0</ele><time>2026-04-19T12:02:02.979Z</time></trkpt><trkpt lat="42.199757316921364" lon="11.872782062153352"><ele>162.0</ele><time>2026-04-19T12:02:03.98Z</time></trkpt><trkpt lat="42.199798751754024" lon="11.872609967895269"><ele>162.0</ele><time>2026-04-19T12:02:04.979Z</time></trkpt><trkpt lat="42.199836308860064" lon="11.872444443965385"><ele>160.0</ele><time>2026-04-19T12:02:05.98Z</time></trkpt><trkpt lat="42.199864063402735" lon="11.872300444956556"><ele>158.0</ele><time>2026-04-19T12:02:06.98Z</time></trkpt><trkpt lat="42.19989101114225" lon="11.872157708779318"><ele>156.0</ele><time>2026-04-19T12:02:07.98Z</time></trkpt><trkpt lat="42.19990056522031" lon="11.872024220945336"><ele>154.0</ele><time>2026-04-19T12:02:08.98Z</time></trkpt><trkpt lat="42.19989364455939" lon="11.871876486930285"><ele>152.0</ele><time>2026-04-19T12:02:09.98Z</time></trkpt><trkpt lat="42.199875380816145" lon="11.871728650791592"><ele>151.4</ele><time>2026-04-19T12:02:10.979Z</time></trkpt><trkpt lat="42.19984925512656" lon="11.871595503225732"><ele>150.79999999999998</ele><time>2026-04-19T12:02:11.98Z</time></trkpt><trkpt lat="42.199814306768225" lon="11.871479109897752"><ele>150.2</ele><time>2026-04-19T12:02:12.98Z</time></trkpt><trkpt lat="42.19981783693229" lon="11.871359297168434"><ele>149.6</ele><time>2026-04-19T12:02:13.979Z</time></trkpt><trkpt lat="42.19981495469954" lon="11.871229670441597"><ele>149.0</ele><time>2026-04-19T12:02:14.979Z</time></trkpt><trkpt lat="42.19982281037735" lon="11.871073280363264"><ele>148.6</ele><time>2026-04-19T12:02:15.979Z</time></trkpt><trkpt lat="42.19983332502872" lon="11.87092718406643"><ele>148.2</ele><time>2026-04-19T12:02:16.979Z</time></trkpt><trkpt lat="42.19987183408937" lon="11.87078503201673"><ele>147.79999999999998</ele><time>2026-04-19T12:02:17.979Z</time></trkpt><trkpt lat="42.19989852752613" lon="11.870641943408526"><ele>147.4</ele><time>2026-04-19T12:02:18.979Z</time></trkpt><trkpt lat="42.19992265106129" lon="11.870507427200273"><ele>147.0</ele><time>2026-04-19T12:02:19.979Z</time></trkpt><trkpt lat="42.19994978265806" lon="11.8703771915239"><ele>147.0</ele><time>2026-04-19T12:02:20.979Z</time></trkpt><trkpt lat="42.199994149499524" lon="11.870258008900768"><ele>147.0</ele><time>2026-04-19T12:02:21.979Z</time></trkpt><trkpt lat="42.20005268126841" lon="11.870135178744324"><ele>147.0</ele><time>2026-04-19T12:02:22.98Z</time></trkpt><trkpt lat="42.200131354540446" lon="11.87000430673508"><ele>147.0</ele><time>2026-04-19T12:02:23.98Z</time></trkpt><trkpt lat="42.20021127440219" lon="11.869891896883013"><ele>147.0</ele><time>2026-04-19T12:02:24.98Z</time></trkpt><trkpt lat="42.20029024749988" lon="11.869764587294267"><ele>145.0</ele><time>2026-04-19T12:02:25.98Z</time></trkpt><trkpt lat="42.20034943312473" lon="11.869637058650792"><ele>143.0</ele><time>2026-04-19T12:02:26.98Z</time></trkpt><trkpt lat="42.2004039080334" lon="11.86949824060817"><ele>141.0</ele><time>2026-04-19T12:02:27.98Z</time></trkpt><trkpt lat="42.20045740694257" lon="11.869349697884727"><ele>139.0</ele><time>2026-04-19T12:02:28.98Z</time></trkpt><trkpt lat="42.20049638024326" lon="11.869193716623894"><ele>137.6</ele><time>2026-04-19T12:02:29.98Z</time></trkpt><trkpt lat="42.2005304513544" lon="11.869051967716983"><ele>136.2</ele><time>2026-04-19T12:02:30.98Z</time></trkpt><trkpt lat="42.20057909095192" lon="11.868916859152769"><ele>134.79999999999998</ele><time>2026-04-19T12:02:31.98Z</time></trkpt><trkpt lat="42.20059799107698" lon="11.868774678868913"><ele>133.4</ele><time>2026-04-19T12:02:32.98Z</time></trkpt><trkpt lat="42.200631168055956" lon="11.868632067974628"><ele>132.0</ele><time>2026-04-19T12:02:33.98Z</time></trkpt><trkpt lat="42.200655315103496" lon="11.868494064079044"><ele>132.79999999999998</ele><time>2026-04-19T12:02:34.98Z</time></trkpt><trkpt lat="42.20068501373078" lon="11.868358730673247"><ele>133.6</ele><time>2026-04-19T12:02:35.98Z</time></trkpt><trkpt lat="42.20071931852342" lon="11.868235081225592"><ele>134.39999999999998</ele><time>2026-04-19T12:02:36.98Z</time></trkpt><trkpt lat="42.20074756178476" lon="11.868122112502329"><ele>135.2</ele><time>2026-04-19T12:02:37.98Z</time></trkpt><trkpt lat="42.20077918363184" lon="11.868033571360678"><ele>136.0</ele><time>2026-04-19T12:02:38.98Z</time></trkpt><trkpt lat="42.200801907692814" lon="11.867906972527901"><ele>136.0</ele><time>2026-04-19T12:02:40.98Z</time></trkpt><trkpt lat="42.20076735642757" lon="11.867811422596041"><ele>136.0</ele><time>2026-04-19T12:02:42.98Z</time></trkpt><trkpt lat="42.20066388371426" lon="11.86774305838587"><ele>136.0</ele><time>2026-04-19T12:02:44.98Z</time></trkpt><trkpt lat="42.2005752581602" lon="11.867768559068164"><ele>136.0</ele><time>2026-04-19T12:02:45.98Z</time></trkpt><trkpt lat="42.200497114219026" lon="11.867822186184945"><ele>136.0</ele><time>2026-04-19T12:02:46.98Z</time></trkpt><trkpt lat="42.20043405458166" lon="11.867897374866867"><ele>134.2</ele><time>2026-04-19T12:02:47.98Z</time></trkpt><trkpt lat="42.20037775518708" lon="11.867978865496012"><ele>132.39999999999998</ele><time>2026-04-19T12:02:48.98Z</time></trkpt><trkpt lat="42.20030942257309" lon="11.868077707528105"><ele>130.6</ele><time>2026-04-19T12:02:49.98Z</time></trkpt><trkpt lat="42.20023378627078" lon="11.868176947801528"><ele>128.79999999999998</ele><time>2026-04-19T12:02:50.98Z</time></trkpt><trkpt lat="42.20015240895225" lon="11.868283656493084"><ele>127.0</ele><time>2026-04-19T12:02:51.98Z</time></trkpt><trkpt lat="42.20008222857651" lon="11.868399704614117"><ele>128.0</ele><time>2026-04-19T12:02:52.98Z</time></trkpt><trkpt lat="42.20001006524928" lon="11.868498872748342"><ele>129.0</ele><time>2026-04-19T12:02:53.98Z</time></trkpt><trkpt lat="42.199934045168554" lon="11.8686043087426"><ele>130.0</ele><time>2026-04-19T12:02:54.98Z</time></trkpt><trkpt lat="42.199863780808165" lon="11.868720071551891"><ele>131.0</ele><time>2026-04-19T12:02:55.98Z</time></trkpt><trkpt lat="42.199778714456144" lon="11.868829675173618"><ele>132.0</ele><time>2026-04-19T12:02:56.98Z</time></trkpt><trkpt lat="42.199709559721626" lon="11.868962782812222"><ele>130.5</ele><time>2026-04-19T12:02:57.98Z</time></trkpt><trkpt lat="42.19964531547451" lon="11.86911304906936"><ele>129.0</ele><time>2026-04-19T12:02:58.98Z</time></trkpt><trkpt lat="42.19959771260948" lon="11.869282150240574"><ele>127.5</ele><time>2026-04-19T12:02:59.98Z</time></trkpt><trkpt lat="42.19953165241373" lon="11.869450268288993"><ele>126.0</ele><time>2026-04-19T12:03:00.98Z</time></trkpt><trkpt lat="42.19948520326306" lon="11.869612189648036"><ele>126.0</ele><time>2026-04-19T12:03:01.98Z</time></trkpt><trkpt lat="42.19943919848714" lon="11.869763752618564"><ele>126.0</ele><time>2026-04-19T12:03:02.98Z</time></trkpt><trkpt lat="42.199395669950164" lon="11.869906136809167"><ele>126.0</ele><time>2026-04-19T12:03:03.98Z</time></trkpt><trkpt lat="42.19935975745875" lon="11.870032490727446"><ele>126.0</ele><time>2026-04-19T12:03:04.98Z</time></trkpt><trkpt lat="42.199323492677614" lon="11.870150105203432"><ele>126.0</ele><time>2026-04-19T12:03:05.98Z</time></trkpt><trkpt lat="42.19928373356032" lon="11.870271770828435"><ele>127.66666666666667</ele><time>2026-04-19T12:03:06.98Z</time></trkpt><trkpt lat="42.19923068204052" lon="11.870381389469848"><ele>129.33333333333334</ele><time>2026-04-19T12:03:07.98Z</time></trkpt><trkpt lat="42.199163047273835" lon="11.870475619246607"><ele>131.0</ele><time>2026-04-19T12:03:08.98Z</time></trkpt><trkpt lat="42.19908957113964" lon="11.870552593366211"><ele>132.66666666666669</ele><time>2026-04-19T12:03:09.981Z</time></trkpt><trkpt lat="42.199023120739575" lon="11.870612397660201"><ele>134.33333333333334</ele><time>2026-04-19T12:03:10.981Z</time></trkpt><trkpt lat="42.19895799355954" lon="11.870620546780145"><ele>136.0</ele><time>2026-04-19T12:03:11.981Z</time></trkpt><trkpt lat="42.1988640727208" lon="11.870601200565735"><ele>137.0</ele><time>2026-04-19T12:03:13.981Z</time></trkpt><trkpt lat="42.19877863071619" lon="11.87049580039753"><ele>138.0</ele><time>2026-04-19T12:03:15.981Z</time></trkpt><trkpt lat="42.198720792556585" lon="11.870421625165738"><ele>139.0</ele><time>2026-04-19T12:03:16.981Z</time></trkpt><trkpt lat="42.19866437771486" lon="11.87033402521571"><ele>140.0</ele><time>2026-04-19T12:03:17.981Z</time></trkpt><trkpt lat="42.19860756590733" lon="11.87023159479492"><ele>141.0</ele><time>2026-04-19T12:03:18.981Z</time></trkpt><trkpt lat="42.198543745559704" lon="11.870117196386479"><ele>136.75</ele><time>2026-04-19T12:03:19.981Z</time></trkpt><trkpt lat="42.19846991465716" lon="11.870007217794369"><ele>132.5</ele><time>2026-04-19T12:03:20.981Z</time></trkpt><trkpt lat="42.19835034965352" lon="11.869958559988516"><ele>128.25</ele><time>2026-04-19T12:03:21.981Z</time></trkpt><trkpt lat="42.1982791373679" lon="11.869839630686036"><ele>124.0</ele><time>2026-04-19T12:03:22.981Z</time></trkpt><trkpt lat="42.198215018353366" lon="11.869722319992045"><ele>124.0</ele><time>2026-04-19T12:03:23.981Z</time></trkpt><trkpt lat="42.198171828163964" lon="11.869607804826082"><ele>124.0</ele><time>2026-04-19T12:03:24.981Z</time></trkpt><trkpt lat="42.19814606482583" lon="11.869480978766076"><ele>124.0</ele><time>2026-04-19T12:03:25.981Z</time></trkpt><trkpt lat="42.19815647585622" lon="11.869321682272703"><ele>124.0</ele><time>2026-04-19T12:03:26.981Z</time></trkpt><trkpt lat="42.198157099359044" lon="11.869125968066985"><ele>128.0</ele><time>2026-04-19T12:03:27.981Z</time></trkpt><trkpt lat="42.1981472822588" lon="11.868949755057857"><ele>132.0</ele><time>2026-04-19T12:03:28.981Z</time></trkpt><trkpt lat="42.19811434410477" lon="11.868815992387647"><ele>136.0</ele><time>2026-04-19T12:03:29.981Z</time></trkpt><trkpt lat="42.198053508134024" lon="11.86866469223611"><ele>140.0</ele><time>2026-04-19T12:03:30.981Z</time></trkpt><trkpt lat="42.19798055476549" lon="11.868495400137089"><ele>136.66666666666666</ele><time>2026-04-19T12:03:31.981Z</time></trkpt><trkpt lat="42.19789618582529" lon="11.868316962966526"><ele>133.33333333333334</ele><time>2026-04-19T12:03:32.981Z</time></trkpt><trkpt lat="42.1977960755668" lon="11.868137197203577"><ele>130.0</ele><time>2026-04-19T12:03:33.981Z</time></trkpt><trkpt lat="42.197705439416886" lon="11.867928216686273"><ele>130.0</ele><time>2026-04-19T12:03:34.981Z</time></trkpt><trkpt lat="42.19760904057872" lon="11.867738446830057"><ele>130.0</ele><time>2026-04-19T12:03:35.981Z</time></trkpt><trkpt lat="42.19751304044765" lon="11.867589574853605"><ele>130.0</ele><time>2026-04-19T12:03:36.981Z</time></trkpt><trkpt lat="42.19742700662175" lon="11.867396309481759"><ele>132.33333333333334</ele><time>2026-04-19T12:03:37.981Z</time></trkpt><trkpt lat="42.197323945359976" lon="11.867226240391998"><ele>134.66666666666666</ele><time>2026-04-19T12:03:38.981Z</time></trkpt><trkpt lat="42.19722996412396" lon="11.867048457153725"><ele>137.0</ele><time>2026-04-19T12:03:39.981Z</time></trkpt><trkpt lat="42.19713829253356" lon="11.866884334308667"><ele>134.75</ele><time>2026-04-19T12:03:40.981Z</time></trkpt><trkpt lat="42.19706833388405" lon="11.866713962809774"><ele>132.5</ele><time>2026-04-19T12:03:41.981Z</time></trkpt><trkpt lat="42.19698259053672" lon="11.866553900452528"><ele>130.25</ele><time>2026-04-19T12:03:42.981Z</time></trkpt><trkpt lat="42.19689217679844" lon="11.86639299359834"><ele>128.0</ele><time>2026-04-19T12:03:43.981Z</time></trkpt><trkpt lat="42.19679469230409" lon="11.866225215673053"><ele>128.0</ele><time>2026-04-19T12:03:44.981Z</time></trkpt><trkpt lat="42.19669758875231" lon="11.866060943721104"><ele>128.0</ele><time>2026-04-19T12:03:45.981Z</time></trkpt><trkpt lat="42.19658949168114" lon="11.865904792631794"><ele>128.0</ele><time>2026-04-19T12:03:46.981Z</time></trkpt><trkpt lat="42.1965047797807" lon="11.865743631907323"><ele>133.66666666666666</ele><time>2026-04-19T12:03:47.981Z</time></trkpt><trkpt lat="42.19642127422775" lon="11.865587389776348"><ele>139.33333333333334</ele><time>2026-04-19T12:03:48.981Z</time></trkpt><trkpt lat="42.19634278913705" lon="11.86542682435688"><ele>145.0</ele><time>2026-04-19T12:03:49.981Z</time></trkpt><trkpt lat="42.196247365384735" lon="11.865236377263775"><ele>142.75</ele><time>2026-04-19T12:03:50.981Z</time></trkpt><trkpt lat="42.19615290420661" lon="11.865062705868569"><ele>140.5</ele><time>2026-04-19T12:03:51.981Z</time></trkpt><trkpt lat="42.19606726035361" lon="11.8649119107742"><ele>138.25</ele><time>2026-04-19T12:03:52.981Z</time></trkpt><trkpt lat="42.19599157747677" lon="11.864769454931887"><ele>136.0</ele><time>2026-04-19T12:03:53.981Z</time></trkpt><trkpt lat="42.19591257101458" lon="11.864611490577568"><ele>136.0</ele><time>2026-04-19T12:03:54.981Z</time></trkpt><trkpt lat="42.1958240490563" lon="11.864434776236"><ele>136.0</ele><time>2026-04-19T12:03:55.981Z</time></trkpt><trkpt lat="42.19572064096767" lon="11.86424494048119"><ele>136.0</ele><time>2026-04-19T12:03:56.982Z</time></trkpt><trkpt lat="42.19562036771111" lon="11.864067357537843"><ele>138.66666666666669</ele><time>2026-04-19T12:03:57.982Z</time></trkpt><trkpt lat="42.195526979501444" lon="11.863897846542928"><ele>141.33333333333334</ele><time>2026-04-19T12:03:58.982Z</time></trkpt><trkpt lat="42.19544896080901" lon="11.863716556002316"><ele>144.0</ele><time>2026-04-19T12:03:59.982Z</time></trkpt><trkpt lat="42.19535490105605" lon="11.863538299881926"><ele>142.66666666666666</ele><time>2026-04-19T12:04:00.982Z</time></trkpt><trkpt lat="42.195243694903546" lon="11.863375703785545"><ele>141.33333333333331</ele><time>2026-04-19T12:04:01.982Z</time></trkpt><trkpt lat="42.195153181108665" lon="11.863182062216815"><ele>140.0</ele><time>2026-04-19T12:04:02.982Z</time></trkpt><trkpt lat="42.19504302110609" lon="11.863020587693754"><ele>140.0</ele><time>2026-04-19T12:04:03.982Z</time></trkpt><trkpt lat="42.19495902849204" lon="11.862848654889236"><ele>140.0</ele><time>2026-04-19T12:04:04.982Z</time></trkpt><trkpt lat="42.19486527507605" lon="11.862700109196586"><ele>140.0</ele><time>2026-04-19T12:04:05.982Z</time></trkpt><trkpt lat="42.194759319984776" lon="11.862559902545266"><ele>140.0</ele><time>2026-04-19T12:04:06.982Z</time></trkpt><trkpt lat="42.19464101440517" lon="11.862431043007879"><ele>140.33333333333331</ele><time>2026-04-19T12:04:07.977Z</time></trkpt><trkpt lat="42.19451775879392" lon="11.862308589936339"><ele>140.66666666666666</ele><time>2026-04-19T12:04:08.977Z</time></trkpt><trkpt lat="42.19439862456976" lon="11.862186755665"><ele>141.0</ele><time>2026-04-19T12:04:09.977Z</time></trkpt><trkpt lat="42.19428622205399" lon="11.86203911224814"><ele>141.0</ele><time>2026-04-19T12:04:10.977Z</time></trkpt><trkpt lat="42.19418671106327" lon="11.861883764525304"><ele>141.0</ele><time>2026-04-19T12:04:11.978Z</time></trkpt><trkpt lat="42.19410179759547" lon="11.861711725237656"><ele>141.0</ele><time>2026-04-19T12:04:12.978Z</time></trkpt><trkpt lat="42.194017144087674" lon="11.861541629658245"><ele>142.66666666666666</ele><time>2026-04-19T12:04:13.978Z</time></trkpt><trkpt lat="42.193922151448234" lon="11.861359895832246"><ele>144.33333333333331</ele><time>2026-04-19T12:04:14.977Z</time></trkpt><trkpt lat="42.193825293280305" lon="11.861174593052683"><ele>146.0</ele><time>2026-04-19T12:04:15.977Z</time></trkpt><trkpt lat="42.19373268461963" lon="11.860997371980778"><ele>145.0</ele><time>2026-04-19T12:04:16.977Z</time></trkpt><trkpt lat="42.1936424690019" lon="11.860820416353793"><ele>144.0</ele><time>2026-04-19T12:04:17.977Z</time></trkpt><trkpt lat="42.19355728159869" lon="11.860653211396219"><ele>143.0</ele><time>2026-04-19T12:04:18.978Z</time></trkpt><trkpt lat="42.19346750952889" lon="11.860476963720693"><ele>143.0</ele><time>2026-04-19T12:04:19.977Z</time></trkpt><trkpt lat="42.193376539274574" lon="11.860300954105812"><ele>143.0</ele><time>2026-04-19T12:04:20.978Z</time></trkpt><trkpt lat="42.19329903025171" lon="11.860153331717367"><ele>143.0</ele><time>2026-04-19T12:04:21.978Z</time></trkpt><trkpt lat="42.19322054186721" lon="11.860008565543488"><ele>143.0</ele><time>2026-04-19T12:04:22.978Z</time></trkpt><trkpt lat="42.19314157221282" lon="11.859863736465412"><ele>142.25</ele><time>2026-04-19T12:04:23.978Z</time></trkpt><trkpt lat="42.19305495626516" lon="11.859731608048804"><ele>141.5</ele><time>2026-04-19T12:04:24.978Z</time></trkpt><trkpt lat="42.192993902795614" lon="11.859589627886686"><ele>140.75</ele><time>2026-04-19T12:04:25.978Z</time></trkpt><trkpt lat="42.19292486927604" lon="11.859472357718593"><ele>140.0</ele><time>2026-04-19T12:04:26.978Z</time></trkpt><trkpt lat="42.192875868150516" lon="11.859371004076339"><ele>139.0</ele><time>2026-04-19T12:04:27.978Z</time></trkpt><trkpt lat="42.19282802208538" lon="11.85925201227817"><ele>138.0</ele><time>2026-04-19T12:04:28.978Z</time></trkpt><trkpt lat="42.19276484785057" lon="11.859128166044833"><ele>137.0</ele><time>2026-04-19T12:04:29.978Z</time></trkpt><trkpt lat="42.19267813975332" lon="11.859019383294509"><ele>136.0</ele><time>2026-04-19T12:04:30.978Z</time></trkpt><trkpt lat="42.192602219853384" lon="11.858939860333273"><ele>135.0</ele><time>2026-04-19T12:04:31.978Z</time></trkpt><trkpt lat="42.192519936449955" lon="11.858866823236953"><ele>135.0</ele><time>2026-04-19T12:04:32.978Z</time></trkpt><trkpt lat="42.192447475097715" lon="11.858775319158894"><ele>135.0</ele><time>2026-04-19T12:04:33.978Z</time></trkpt><trkpt lat="42.19238454506918" lon="11.85869169252318"><ele>135.0</ele><time>2026-04-19T12:04:34.978Z</time></trkpt><trkpt lat="42.19230801679496" lon="11.85860322991541"><ele>135.0</ele><time>2026-04-19T12:04:35.978Z</time></trkpt><trkpt lat="42.19222716899003" lon="11.858514244975058"><ele>135.0</ele><time>2026-04-19T12:04:36.978Z</time></trkpt><trkpt lat="42.192143769800495" lon="11.858407852113672"><ele>134.75</ele><time>2026-04-19T12:04:37.978Z</time></trkpt><trkpt lat="42.192043916370494" lon="11.858316176529616"><ele>134.5</ele><time>2026-04-19T12:04:38.978Z</time></trkpt><trkpt lat="42.19195684338329" lon="11.858201077814545"><ele>134.25</ele><time>2026-04-19T12:04:39.978Z</time></trkpt><trkpt lat="42.191850838685845" lon="11.85809147602794"><ele>134.0</ele><time>2026-04-19T12:04:40.978Z</time></trkpt><trkpt lat="42.19175370589379" lon="11.857989702363163"><ele>134.0</ele><time>2026-04-19T12:04:41.978Z</time></trkpt><trkpt lat="42.191653293651285" lon="11.857895804848054"><ele>134.0</ele><time>2026-04-19T12:04:42.978Z</time></trkpt><trkpt lat="42.191551846252054" lon="11.85781758120212"><ele>134.0</ele><time>2026-04-19T12:04:43.978Z</time></trkpt><trkpt lat="42.19146008306672" lon="11.857758776060354"><ele>134.0</ele><time>2026-04-19T12:04:44.978Z</time></trkpt><trkpt lat="42.191377485549964" lon="11.85771486858331"><ele>134.0</ele><time>2026-04-19T12:04:45.978Z</time></trkpt><trkpt lat="42.19129518038414" lon="11.85768470104005"><ele>135.2</ele><time>2026-04-19T12:04:46.978Z</time></trkpt><trkpt lat="42.19121994340597" lon="11.85768708996842"><ele>136.4</ele><time>2026-04-19T12:04:47.978Z</time></trkpt><trkpt lat="42.191141336599905" lon="11.85772012961484"><ele>137.6</ele><time>2026-04-19T12:04:48.978Z</time></trkpt><trkpt lat="42.19106429379171" lon="11.857773783021228"><ele>138.8</ele><time>2026-04-19T12:04:49.978Z</time></trkpt><trkpt lat="42.19096107371978" lon="11.857829493831261"><ele>140.0</ele><time>2026-04-19T12:04:50.978Z</time></trkpt><trkpt lat="42.19083100704783" lon="11.85788311057839"><ele>140.0</ele><time>2026-04-19T12:04:51.978Z</time></trkpt><trkpt lat="42.19069060306223" lon="11.857937152605977"><ele>140.0</ele><time>2026-04-19T12:04:52.978Z</time></trkpt><trkpt lat="42.19055411195505" lon="11.857988006531096"><ele>140.0</ele><time>2026-04-19T12:04:53.978Z</time></trkpt><trkpt lat="42.1904115500822" lon="11.858012473392433"><ele>140.0</ele><time>2026-04-19T12:04:54.978Z</time></trkpt><trkpt lat="42.19027736990903" lon="11.85805657183257"><ele>139.75</ele><time>2026-04-19T12:04:55.978Z</time></trkpt><trkpt lat="42.19016189050025" lon="11.858118427394928"><ele>139.5</ele><time>2026-04-19T12:04:56.978Z</time></trkpt><trkpt lat="42.19004440831489" lon="11.858150328009863"><ele>139.25</ele><time>2026-04-19T12:04:57.978Z</time></trkpt><trkpt lat="42.18992695779268" lon="11.858191566036181"><ele>139.0</ele><time>2026-04-19T12:04:58.978Z</time></trkpt><trkpt lat="42.1898130511021" lon="11.858242713622092"><ele>139.0</ele><time>2026-04-19T12:04:59.978Z</time></trkpt><trkpt lat="42.18972361764007" lon="11.858301496094828"><ele>139.0</ele><time>2026-04-19T12:05:00.978Z</time></trkpt><trkpt lat="42.18963400157163" lon="11.858325802039788"><ele>139.0</ele><time>2026-04-19T12:05:01.978Z</time></trkpt><trkpt lat="42.18956211461513" lon="11.858332287045194"><ele>139.0</ele><time>2026-04-19T12:05:02.978Z</time></trkpt><trkpt lat="42.18949394105043" lon="11.858312778356085"><ele>139.0</ele><time>2026-04-19T12:05:03.978Z</time></trkpt><trkpt lat="42.189441213120624" lon="11.858246494653642"><ele>139.0</ele><time>2026-04-19T12:05:04.978Z</time></trkpt><trkpt lat="42.18936120885262" lon="11.858172898883224"><ele>139.0</ele><time>2026-04-19T12:05:05.979Z</time></trkpt><trkpt lat="42.18923894479572" lon="11.858123220922689"><ele>139.0</ele><time>2026-04-19T12:05:06.979Z</time></trkpt><trkpt lat="42.18912081712728" lon="11.858052473803353"><ele>139.0</ele><time>2026-04-19T12:05:07.979Z</time></trkpt><trkpt lat="42.18899968417138" lon="11.857967903763186"><ele>139.0</ele><time>2026-04-19T12:05:08.979Z</time></trkpt><trkpt lat="42.18889194134372" lon="11.857899525999128"><ele>139.25</ele><time>2026-04-19T12:05:09.979Z</time></trkpt><trkpt lat="42.1887994732095" lon="11.857826623386348"><ele>139.5</ele><time>2026-04-19T12:05:10.979Z</time></trkpt><trkpt lat="42.18873491341519" lon="11.857711537587546"><ele>139.75</ele><time>2026-04-19T12:05:11.979Z</time></trkpt><trkpt lat="42.18868311465435" lon="11.857572096482173"><ele>140.0</ele><time>2026-04-19T12:05:12.979Z</time></trkpt><trkpt lat="42.188625116885426" lon="11.857426477004328"><ele>140.0</ele><time>2026-04-19T12:05:13.979Z</time></trkpt><trkpt lat="42.18857049090526" lon="11.857303641464618"><ele>140.0</ele><time>2026-04-19T12:05:14.979Z</time></trkpt><trkpt lat="42.18851654239824" lon="11.857184168118819"><ele>140.0</ele><time>2026-04-19T12:05:15.979Z</time></trkpt><trkpt lat="42.18845831433607" lon="11.857043944124117"><ele>140.0</ele><time>2026-04-19T12:05:16.979Z</time></trkpt><trkpt lat="42.18841567847576" lon="11.856879008853094"><ele>139.25</ele><time>2026-04-19T12:05:17.979Z</time></trkpt><trkpt lat="42.1883749458558" lon="11.856697379516143"><ele>138.5</ele><time>2026-04-19T12:05:18.979Z</time></trkpt><trkpt lat="42.18831718288447" lon="11.856533228572664"><ele>137.75</ele><time>2026-04-19T12:05:19.979Z</time></trkpt><trkpt lat="42.18826222119029" lon="11.856369685468172"><ele>137.0</ele><time>2026-04-19T12:05:20.979Z</time></trkpt><trkpt lat="42.18820505497903" lon="11.856212367429773"><ele>138.6</ele><time>2026-04-19T12:05:21.979Z</time></trkpt><trkpt lat="42.18814773447095" lon="11.856070505627365"><ele>140.2</ele><time>2026-04-19T12:05:22.979Z</time></trkpt><trkpt lat="42.18811703865417" lon="11.855940851954625"><ele>141.8</ele><time>2026-04-19T12:05:23.979Z</time></trkpt><trkpt lat="42.18805349728742" lon="11.85581458596423"><ele>143.4</ele><time>2026-04-19T12:05:24.979Z</time></trkpt><trkpt lat="42.18797859486982" lon="11.855708610114227"><ele>145.0</ele><time>2026-04-19T12:05:25.979Z</time></trkpt><trkpt lat="42.1879071838726" lon="11.855557562256632"><ele>145.0</ele><time>2026-04-19T12:05:26.979Z</time></trkpt><trkpt lat="42.18783766085885" lon="11.855406750274657"><ele>145.0</ele><time>2026-04-19T12:05:27.979Z</time></trkpt><trkpt lat="42.18779807196218" lon="11.855274401669192"><ele>145.0</ele><time>2026-04-19T12:05:28.979Z</time></trkpt><trkpt lat="42.18774186165168" lon="11.85515710292342"><ele>145.0</ele><time>2026-04-19T12:05:29.979Z</time></trkpt><trkpt lat="42.187659243611634" lon="11.85503708038499"><ele>145.5</ele><time>2026-04-19T12:05:30.979Z</time></trkpt><trkpt lat="42.18755295713789" lon="11.85491326985621"><ele>146.0</ele><time>2026-04-19T12:05:31.979Z</time></trkpt><trkpt lat="42.18745443103313" lon="11.854776428681427"><ele>146.5</ele><time>2026-04-19T12:05:32.979Z</time></trkpt><trkpt lat="42.187346040428544" lon="11.85465998452622"><ele>147.0</ele><time>2026-04-19T12:05:33.979Z</time></trkpt><trkpt lat="42.18723395086492" lon="11.854526521185546"><ele>147.0</ele><time>2026-04-19T12:05:34.979Z</time></trkpt><trkpt lat="42.18712130921184" lon="11.854395932266137"><ele>147.0</ele><time>2026-04-19T12:05:35.979Z</time></trkpt><trkpt lat="42.18702307898394" lon="11.85428850731156"><ele>147.0</ele><time>2026-04-19T12:05:36.979Z</time></trkpt><trkpt lat="42.18694241536898" lon="11.854170160310614"><ele>147.0</ele><time>2026-04-19T12:05:37.979Z</time></trkpt><trkpt lat="42.18688457254254" lon="11.854017254115622"><ele>144.75</ele><time>2026-04-19T12:05:38.979Z</time></trkpt><trkpt lat="42.18681450673797" lon="11.853880069312705"><ele>142.5</ele><time>2026-04-19T12:05:39.979Z</time></trkpt><trkpt lat="42.18675602130452" lon="11.853739118830298"><ele>140.25</ele><time>2026-04-19T12:05:40.979Z</time></trkpt><trkpt lat="42.18669160942748" lon="11.853614916038127"><ele>138.0</ele><time>2026-04-19T12:05:41.979Z</time></trkpt><trkpt lat="42.18661087821702" lon="11.853512132629454"><ele>137.75</ele><time>2026-04-19T12:05:42.979Z</time></trkpt><trkpt lat="42.18651280075742" lon="11.853427568152766"><ele>137.5</ele><time>2026-04-19T12:05:43.979Z</time></trkpt><trkpt lat="42.18639408806929" lon="11.853352626482955"><ele>137.25</ele><time>2026-04-19T12:05:44.979Z</time></trkpt><trkpt lat="42.18627200586129" lon="11.853298515566031"><ele>137.0</ele><time>2026-04-19T12:05:45.979Z</time></trkpt><trkpt lat="42.18614239517573" lon="11.85327006709922"><ele>137.0</ele><time>2026-04-19T12:05:46.979Z</time></trkpt><trkpt lat="42.185997536467184" lon="11.853262543218984"><ele>137.0</ele><time>2026-04-19T12:05:47.979Z</time></trkpt><trkpt lat="42.18585072780788" lon="11.85327355192169"><ele>137.0</ele><time>2026-04-19T12:05:48.979Z</time></trkpt><trkpt lat="42.185715625680494" lon="11.853306016655974"><ele>137.0</ele><time>2026-04-19T12:05:49.979Z</time></trkpt><trkpt lat="42.18559861004305" lon="11.853331894035916"><ele>137.4</ele><time>2026-04-19T12:05:50.979Z</time></trkpt><trkpt lat="42.18549671454652" lon="11.853351735076824"><ele>137.79999999999998</ele><time>2026-04-19T12:05:51.979Z</time></trkpt><trkpt lat="42.1853972596266" lon="11.85336288644238"><ele>138.2</ele><time>2026-04-19T12:05:52.98Z</time></trkpt><trkpt lat="42.18530202045474" lon="11.853318527254908"><ele>138.6</ele><time>2026-04-19T12:05:53.98Z</time></trkpt><trkpt lat="42.18522810673426" lon="11.853240515818808"><ele>139.0</ele><time>2026-04-19T12:05:54.98Z</time></trkpt><trkpt lat="42.18512509074496" lon="11.853158915741377"><ele>139.0</ele><time>2026-04-19T12:05:55.98Z</time></trkpt><trkpt lat="42.18502229395494" lon="11.853063851893571"><ele>139.0</ele><time>2026-04-19T12:05:56.98Z</time></trkpt><trkpt lat="42.184915297139256" lon="11.85297845940015"><ele>139.0</ele><time>2026-04-19T12:05:57.98Z</time></trkpt><trkpt lat="42.184841480186904" lon="11.852868724229834"><ele>139.0</ele><time>2026-04-19T12:05:58.98Z</time></trkpt><trkpt lat="42.18475859981547" lon="11.852777191306815"><ele>139.75</ele><time>2026-04-19T12:05:59.98Z</time></trkpt><trkpt lat="42.18464738268232" lon="11.852690827309358"><ele>140.5</ele><time>2026-04-19T12:06:00.98Z</time></trkpt><trkpt lat="42.18452223220526" lon="11.852630552251025"><ele>141.25</ele><time>2026-04-19T12:06:01.98Z</time></trkpt><trkpt lat="42.18440561026103" lon="11.852560183252349"><ele>142.0</ele><time>2026-04-19T12:06:02.98Z</time></trkpt><trkpt lat="42.18428287627358" lon="11.852480457480556"><ele>141.5</ele><time>2026-04-19T12:06:03.98Z</time></trkpt><trkpt lat="42.18416814450244" lon="11.852402021310642"><ele>141.0</ele><time>2026-04-19T12:06:04.98Z</time></trkpt><trkpt lat="42.18406733612086" lon="11.852331960474599"><ele>140.5</ele><time>2026-04-19T12:06:05.98Z</time></trkpt><trkpt lat="42.1839625603521" lon="11.852258757935816"><ele>140.0</ele><time>2026-04-19T12:06:06.98Z</time></trkpt><trkpt lat="42.183842092761715" lon="11.852170948664766"><ele>140.0</ele><time>2026-04-19T12:06:07.98Z</time></trkpt><trkpt lat="42.183729156583894" lon="11.852086637190352"><ele>140.0</ele><time>2026-04-19T12:06:08.98Z</time></trkpt><trkpt lat="42.18363516648874" lon="11.852016182173784"><ele>140.0</ele><time>2026-04-19T12:06:09.98Z</time></trkpt><trkpt lat="42.18355098492276" lon="11.851953079552148"><ele>140.0</ele><time>2026-04-19T12:06:10.98Z</time></trkpt><trkpt lat="42.18347228718752" lon="11.851894086679515"><ele>140.0</ele><time>2026-04-19T12:06:11.98Z</time></trkpt><trkpt lat="42.18338026714433" lon="11.851838022069648"><ele>138.75</ele><time>2026-04-19T12:06:12.98Z</time></trkpt><trkpt lat="42.183294018954214" lon="11.85178686121982"><ele>137.5</ele><time>2026-04-19T12:06:13.976Z</time></trkpt><trkpt lat="42.18318221544211" lon="11.851720541629026"><ele>136.25</ele><time>2026-04-19T12:06:14.976Z</time></trkpt><trkpt lat="42.183057995255126" lon="11.851644185901357"><ele>135.0</ele><time>2026-04-19T12:06:15.976Z</time></trkpt><trkpt lat="42.18294984259065" lon="11.85157355936351"><ele>135.0</ele><time>2026-04-19T12:06:16.976Z</time></trkpt><trkpt lat="42.18285572262444" lon="11.851506271760806"><ele>135.0</ele><time>2026-04-19T12:06:17.976Z</time></trkpt><trkpt lat="42.18276053265441" lon="11.851438219192746"><ele>135.0</ele><time>2026-04-19T12:06:18.976Z</time></trkpt><trkpt lat="42.182673214004865" lon="11.851375793947124"><ele>135.0</ele><time>2026-04-19T12:06:19.976Z</time></trkpt><trkpt lat="42.182588351927706" lon="11.851315124873361"><ele>135.0</ele><time>2026-04-19T12:06:20.976Z</time></trkpt><trkpt lat="42.18249637658632" lon="11.851249370477637"><ele>135.0</ele><time>2026-04-19T12:06:21.976Z</time></trkpt><trkpt lat="42.18239501925269" lon="11.851173456164965"><ele>135.0</ele><time>2026-04-19T12:06:22.976Z</time></trkpt><trkpt lat="42.182293553557756" lon="11.851096257635987"><ele>135.0</ele><time>2026-04-19T12:06:23.976Z</time></trkpt><trkpt lat="42.182196368889755" lon="11.851022316399938"><ele>135.0</ele><time>2026-04-19T12:06:24.976Z</time></trkpt><trkpt lat="42.182109202756024" lon="11.850957218134331"><ele>135.0</ele><time>2026-04-19T12:06:25.976Z</time></trkpt><trkpt lat="42.18202561699851" lon="11.850905333806411"><ele>133.6</ele><time>2026-04-19T12:06:26.975Z</time></trkpt><trkpt lat="42.18193417878902" lon="11.850858904562319"><ele>132.2</ele><time>2026-04-19T12:06:27.975Z</time></trkpt><trkpt lat="42.18184461074335" lon="11.850824518878559"><ele>130.8</ele><time>2026-04-19T12:06:28.975Z</time></trkpt><trkpt lat="42.1817499830382" lon="11.85082507618772"><ele>129.4</ele><time>2026-04-19T12:06:29.975Z</time></trkpt><trkpt lat="42.18165905265675" lon="11.85080767880474"><ele>128.0</ele><time>2026-04-19T12:06:30.975Z</time></trkpt><trkpt lat="42.18156879829415" lon="11.850803403034481"><ele>128.33333333333331</ele><time>2026-04-19T12:06:31.975Z</time></trkpt><trkpt lat="42.1814868906975" lon="11.850795295017504"><ele>128.66666666666666</ele><time>2026-04-19T12:06:32.975Z</time></trkpt><trkpt lat="42.181410070673145" lon="11.850805486217237"><ele>129.0</ele><time>2026-04-19T12:06:33.975Z</time></trkpt><trkpt lat="42.18133811362364" lon="11.850786275826882"><ele>129.33333333333334</ele><time>2026-04-19T12:06:34.975Z</time></trkpt><trkpt lat="42.18126155144958" lon="11.850772256515338"><ele>129.66666666666669</ele><time>2026-04-19T12:06:35.975Z</time></trkpt><trkpt lat="42.18119544650369" lon="11.85075397273855"><ele>130.0</ele><time>2026-04-19T12:06:36.975Z</time></trkpt><trkpt lat="42.18107018569431" lon="11.850700191751848"><ele>130.00000000000003</ele><time>2026-04-19T12:06:38.975Z</time></trkpt><trkpt lat="42.181007403393096" lon="11.850657321256"><ele>130.0</ele><time>2026-04-19T12:06:39.975Z</time></trkpt><trkpt lat="42.18095313501756" lon="11.850605093708776"><ele>130.0</ele><time>2026-04-19T12:06:40.976Z</time></trkpt><trkpt lat="42.18090649868407" lon="11.850544988657125"><ele>130.0</ele><time>2026-04-19T12:06:41.976Z</time></trkpt><trkpt lat="42.1808639590164" lon="11.850478649350382"><ele>130.0</ele><time>2026-04-19T12:06:42.976Z</time></trkpt><trkpt lat="42.1808133611401" lon="11.85041920671618"><ele>130.00000000000003</ele><time>2026-04-19T12:06:43.976Z</time></trkpt><trkpt lat="42.1807208954907" lon="11.850345272082139"><ele>130.0</ele><time>2026-04-19T12:06:45.976Z</time></trkpt><trkpt lat="42.180650174972236" lon="11.850252958141201"><ele>130.2</ele><time>2026-04-19T12:06:47.976Z</time></trkpt><trkpt lat="42.180561192680074" lon="11.850180995046266"><ele>130.4</ele><time>2026-04-19T12:06:49.976Z</time></trkpt><trkpt lat="42.18045761465425" lon="11.850077985406603"><ele>130.6</ele><time>2026-04-19T12:06:51.976Z</time></trkpt><trkpt lat="42.180375634236306" lon="11.849998860910128"><ele>130.8</ele><time>2026-04-19T12:06:52.976Z</time></trkpt><trkpt lat="42.18031138420837" lon="11.849908984683294"><ele>131.0</ele><time>2026-04-19T12:06:53.976Z</time></trkpt><trkpt lat="42.18023847126839" lon="11.84980898481688"><ele>131.0</ele><time>2026-04-19T12:06:54.976Z</time></trkpt><trkpt lat="42.180173975323456" lon="11.849704506394518"><ele>131.0</ele><time>2026-04-19T12:06:55.976Z</time></trkpt><trkpt lat="42.180112259191326" lon="11.84962968442612"><ele>131.0</ele><time>2026-04-19T12:06:56.976Z</time></trkpt><trkpt lat="42.18005521078006" lon="11.84955518562289"><ele>131.0</ele><time>2026-04-19T12:06:57.976Z</time></trkpt><trkpt lat="42.18000719898809" lon="11.849491742172985"><ele>131.0</ele><time>2026-04-19T12:06:58.976Z</time></trkpt><trkpt lat="42.17994549894211" lon="11.849362451364856"><ele>131.0</ele><time>2026-04-19T12:07:00.976Z</time></trkpt><trkpt lat="42.17989620641424" lon="11.849191812942152"><ele>131.33333333333331</ele><time>2026-04-19T12:07:02.976Z</time></trkpt><trkpt lat="42.179875650300374" lon="11.849106988258933"><ele>131.66666666666666</ele><time>2026-04-19T12:07:03.976Z</time></trkpt><trkpt lat="42.17984862073897" lon="11.84897608705391"><ele>132.0</ele><time>2026-04-19T12:07:05.976Z</time></trkpt><trkpt lat="42.17984261629383" lon="11.848851313549746"><ele>132.33333333333334</ele><time>2026-04-19T12:07:07.976Z</time></trkpt><trkpt lat="42.17983617657366" lon="11.848765333872343"><ele>132.66666666666669</ele><time>2026-04-19T12:07:08.976Z</time></trkpt><trkpt lat="42.17983004056979" lon="11.848655039121114"><ele>133.0</ele><time>2026-04-19T12:07:09.976Z</time></trkpt><trkpt lat="42.179824413278325" lon="11.84854521180584"><ele>132.57142857142858</ele><time>2026-04-19T12:07:10.976Z</time></trkpt><trkpt lat="42.17982276840841" lon="11.848442580296465"><ele>132.14285714285714</ele><time>2026-04-19T12:07:11.976Z</time></trkpt><trkpt lat="42.17983755472237" lon="11.848341931011563"><ele>131.71428571428572</ele><time>2026-04-19T12:07:12.976Z</time></trkpt><trkpt lat="42.17983337056367" lon="11.848244517569986"><ele>131.28571428571428</ele><time>2026-04-19T12:07:13.976Z</time></trkpt><trkpt lat="42.17982844223791" lon="11.848143199308046"><ele>130.85714285714286</ele><time>2026-04-19T12:07:14.976Z</time></trkpt><trkpt lat="42.17982616268329" lon="11.848041270419053"><ele>130.42857142857144</ele><time>2026-04-19T12:07:15.976Z</time></trkpt><trkpt lat="42.1798308096334" lon="11.84795149171124"><ele>130.0</ele><time>2026-04-19T12:07:16.976Z</time></trkpt><trkpt lat="42.17982405641058" lon="11.847861605840981"><ele>130.0</ele><time>2026-04-19T12:07:17.976Z</time></trkpt><trkpt lat="42.17982094988051" lon="11.847749273859373"><ele>130.0</ele><time>2026-04-19T12:07:18.976Z</time></trkpt><trkpt lat="42.17981358875059" lon="11.847642461544835"><ele>130.0</ele><time>2026-04-19T12:07:19.976Z</time></trkpt><trkpt lat="42.17979381954445" lon="11.847550396415127"><ele>130.0</ele><time>2026-04-19T12:07:20.976Z</time></trkpt><trkpt lat="42.17976684426736" lon="11.847454690992194"><ele>130.0</ele><time>2026-04-19T12:07:21.976Z</time></trkpt><trkpt lat="42.17972929689262" lon="11.847294607178863"><ele>130.0</ele><time>2026-04-19T12:07:23.976Z</time></trkpt><trkpt lat="42.17970750919986" lon="11.847211323215124"><ele>128.6</ele><time>2026-04-19T12:07:24.976Z</time></trkpt><trkpt lat="42.17967068018041" lon="11.847064357684413"><ele>127.2</ele><time>2026-04-19T12:07:26.976Z</time></trkpt><trkpt lat="42.179636459242346" lon="11.846931923662527"><ele>125.80000000000001</ele><time>2026-04-19T12:07:28.977Z</time></trkpt><trkpt lat="42.17960622467756" lon="11.846842442803988"><ele>124.4</ele><time>2026-04-19T12:07:29.977Z</time></trkpt><trkpt lat="42.17957173080623" lon="11.846741110079433"><ele>123.0</ele><time>2026-04-19T12:07:30.977Z</time></trkpt><trkpt lat="42.179538984765955" lon="11.846624700219852"><ele>121.4</ele><time>2026-04-19T12:07:31.977Z</time></trkpt><trkpt lat="42.17950185029548" lon="11.846509668637298"><ele>119.80000000000001</ele><time>2026-04-19T12:07:32.977Z</time></trkpt><trkpt lat="42.179471974336906" lon="11.846394859345883"><ele>118.2</ele><time>2026-04-19T12:07:33.977Z</time></trkpt><trkpt lat="42.17944820457947" lon="11.846264572827403"><ele>116.6</ele><time>2026-04-19T12:07:34.977Z</time></trkpt><trkpt lat="42.179423803285566" lon="11.846130563437804"><ele>115.0</ele><time>2026-04-19T12:07:35.977Z</time></trkpt><trkpt lat="42.179397322173" lon="11.84600251991703"><ele>114.0</ele><time>2026-04-19T12:07:36.977Z</time></trkpt><trkpt lat="42.17937402085448" lon="11.845885537846913"><ele>113.0</ele><time>2026-04-19T12:07:37.977Z</time></trkpt><trkpt lat="42.179353338320276" lon="11.84579078969125"><ele>112.0</ele><time>2026-04-19T12:07:38.977Z</time></trkpt><trkpt lat="42.179349105833744" lon="11.84569022683937"><ele>111.0</ele><time>2026-04-19T12:07:39.977Z</time></trkpt><trkpt lat="42.17934688700746" lon="11.84558092354363"><ele>110.0</ele><time>2026-04-19T12:07:40.977Z</time></trkpt><trkpt lat="42.17922751899893" lon="11.845451090433219"><ele>110.0</ele><time>2026-04-19T12:07:41.977Z</time></trkpt><trkpt lat="42.17917845612439" lon="11.845305637441767"><ele>110.0</ele><time>2026-04-19T12:07:42.977Z</time></trkpt><trkpt lat="42.179120780901144" lon="11.845135876221724"><ele>110.0</ele><time>2026-04-19T12:07:43.977Z</time></trkpt><trkpt lat="42.1790557391443" lon="11.844958059856628"><ele>110.0</ele><time>2026-04-19T12:07:44.977Z</time></trkpt><trkpt lat="42.178999861432665" lon="11.84477970637948"><ele>109.0</ele><time>2026-04-19T12:07:45.977Z</time></trkpt><trkpt lat="42.17894804868388" lon="11.844597337382517"><ele>108.0</ele><time>2026-04-19T12:07:46.977Z</time></trkpt><trkpt lat="42.17889153935021" lon="11.844415291983388"><ele>107.0</ele><time>2026-04-19T12:07:47.977Z</time></trkpt><trkpt lat="42.178815451909664" lon="11.844261684457493"><ele>106.0</ele><time>2026-04-19T12:07:48.977Z</time></trkpt><trkpt lat="42.17876238786247" lon="11.844096244638008"><ele>105.75</ele><time>2026-04-19T12:07:49.977Z</time></trkpt><trkpt lat="42.178691676467" lon="11.843933193683439"><ele>105.5</ele><time>2026-04-19T12:07:50.977Z</time></trkpt><trkpt lat="42.178614672335684" lon="11.843779739485669"><ele>105.25</ele><time>2026-04-19T12:07:51.977Z</time></trkpt><trkpt lat="42.178554306654036" lon="11.843618754467158"><ele>105.0</ele><time>2026-04-19T12:07:52.977Z</time></trkpt><trkpt lat="42.17849700151988" lon="11.843478004865233"><ele>104.8</ele><time>2026-04-19T12:07:53.977Z</time></trkpt><trkpt lat="42.17845605851517" lon="11.843357176619245"><ele>104.6</ele><time>2026-04-19T12:07:54.977Z</time></trkpt><trkpt lat="42.178401145871256" lon="11.8432410549488"><ele>104.4</ele><time>2026-04-19T12:07:55.977Z</time></trkpt><trkpt lat="42.1783146587619" lon="11.843165188668655"><ele>104.2</ele><time>2026-04-19T12:07:56.977Z</time></trkpt><trkpt lat="42.17825371094115" lon="11.84306525707367"><ele>104.0</ele><time>2026-04-19T12:07:57.977Z</time></trkpt><trkpt lat="42.17817774501992" lon="11.842996527952144"><ele>103.99999999999999</ele><time>2026-04-19T12:07:58.977Z</time></trkpt><trkpt lat="42.178116095513566" lon="11.842921045502768"><ele>104.0</ele><time>2026-04-19T12:07:59.977Z</time></trkpt><trkpt lat="42.17806070230776" lon="11.842853223217952"><ele>104.0</ele><time>2026-04-19T12:08:00.977Z</time></trkpt><trkpt lat="42.17800193719322" lon="11.84280059334047"><ele>104.0</ele><time>2026-04-19T12:08:01.977Z</time></trkpt><trkpt lat="42.177955659180846" lon="11.842742345250116"><ele>103.99999999999999</ele><time>2026-04-19T12:08:02.977Z</time></trkpt><trkpt lat="42.177871711226686" lon="11.842643624346554"><ele>104.0</ele><time>2026-04-19T12:08:04.977Z</time></trkpt><trkpt lat="42.17779873615094" lon="11.842532477354355"><ele>103.83333333333333</ele><time>2026-04-19T12:08:06.977Z</time></trkpt><trkpt lat="42.17770877181935" lon="11.84244082694869"><ele>103.66666666666666</ele><time>2026-04-19T12:08:08.977Z</time></trkpt><trkpt lat="42.17763748842576" lon="11.842356072319461"><ele>103.5</ele><time>2026-04-19T12:08:10.977Z</time></trkpt><trkpt lat="42.17757780556219" lon="11.842283347158684"><ele>103.33333333333334</ele><time>2026-04-19T12:08:11.977Z</time></trkpt><trkpt lat="42.177520130645746" lon="11.842213022726932"><ele>103.16666666666667</ele><time>2026-04-19T12:08:12.977Z</time></trkpt><trkpt lat="42.17746915384229" lon="11.842150898268676"><ele>103.0</ele><time>2026-04-19T12:08:13.977Z</time></trkpt><trkpt lat="42.17737662454193" lon="11.842047619724212"><ele>102.50000000000001</ele><time>2026-04-19T12:08:15.978Z</time></trkpt><trkpt lat="42.17729761393812" lon="11.841947577024797"><ele>102.0</ele><time>2026-04-19T12:08:17.978Z</time></trkpt><trkpt lat="42.1772232697471" lon="11.841872295037087"><ele>101.5</ele><time>2026-04-19T12:08:19.974Z</time></trkpt><trkpt lat="42.17714783220377" lon="11.841787241027314"><ele>101.0</ele><time>2026-04-19T12:08:21.974Z</time></trkpt><trkpt lat="42.177107782258076" lon="11.841716374385538"><ele>100.50000000000001</ele><time>2026-04-19T12:08:22.974Z</time></trkpt><trkpt lat="42.17705613317671" lon="11.841655381169629"><ele>100.0</ele><time>2026-04-19T12:08:23.974Z</time></trkpt><trkpt lat="42.17700544822068" lon="11.841601675915895"><ele>99.66666666666667</ele><time>2026-04-19T12:08:24.974Z</time></trkpt><trkpt lat="42.17695195117906" lon="11.84154299207992"><ele>99.33333333333334</ele><time>2026-04-19T12:08:25.974Z</time></trkpt><trkpt lat="42.17689558557801" lon="11.841478106562855"><ele>99.0</ele><time>2026-04-19T12:08:26.973Z</time></trkpt><trkpt lat="42.17684056531904" lon="11.841405036274145"><ele>98.66666666666666</ele><time>2026-04-19T12:08:27.973Z</time></trkpt><trkpt lat="42.17677048725366" lon="11.841308883841183"><ele>98.33333333333333</ele><time>2026-04-19T12:08:29.973Z</time></trkpt><trkpt lat="42.17671776361747" lon="11.841246681711302"><ele>98.0</ele><time>2026-04-19T12:08:30.973Z</time></trkpt><trkpt lat="42.17666504985305" lon="11.84117777145965"><ele>98.0</ele><time>2026-04-19T12:08:31.973Z</time></trkpt><trkpt lat="42.17661320733172" lon="11.841097530881308"><ele>98.0</ele><time>2026-04-19T12:08:32.973Z</time></trkpt><trkpt lat="42.17656379788089" lon="11.841024699633326"><ele>98.0</ele><time>2026-04-19T12:08:33.974Z</time></trkpt><trkpt lat="42.17647217021867" lon="11.84092381677694"><ele>98.0</ele><time>2026-04-19T12:08:35.974Z</time></trkpt><trkpt lat="42.17639530335915" lon="11.840808425786982"><ele>98.0</ele><time>2026-04-19T12:08:37.974Z</time></trkpt><trkpt lat="42.17631546299871" lon="11.840720223903748"><ele>96.2</ele><time>2026-04-19T12:08:39.974Z</time></trkpt><trkpt lat="42.17623218250905" lon="11.84064234277052"><ele>94.4</ele><time>2026-04-19T12:08:41.974Z</time></trkpt><trkpt lat="42.17616870150714" lon="11.840560184958571"><ele>92.60000000000001</ele><time>2026-04-19T12:08:43.974Z</time></trkpt><trkpt lat="42.176106090026934" lon="11.840472845396846"><ele>90.80000000000001</ele><time>2026-04-19T12:08:45.974Z</time></trkpt><trkpt lat="42.17601784287513" lon="11.8403643276002"><ele>89.0</ele><time>2026-04-19T12:08:47.974Z</time></trkpt><trkpt lat="42.17596571409774" lon="11.84030899090528"><ele>89.0</ele><time>2026-04-19T12:08:48.974Z</time></trkpt><trkpt lat="42.17591243727032" lon="11.840249390007916"><ele>89.0</ele><time>2026-04-19T12:08:49.974Z</time></trkpt><trkpt lat="42.17580298787017" lon="11.840129033109063"><ele>89.0</ele><time>2026-04-19T12:08:51.974Z</time></trkpt><trkpt lat="42.17574880569689" lon="11.840059128218874"><ele>89.0</ele><time>2026-04-19T12:08:52.974Z</time></trkpt><trkpt lat="42.17569979512005" lon="11.839981805842175"><ele>89.0</ele><time>2026-04-19T12:08:53.974Z</time></trkpt><trkpt lat="42.175649165734264" lon="11.839918457798136"><ele>89.0</ele><time>2026-04-19T12:08:54.974Z</time></trkpt><trkpt lat="42.1755976926463" lon="11.83985036656976"><ele>87.0</ele><time>2026-04-19T12:08:55.974Z</time></trkpt><trkpt lat="42.17553903026316" lon="11.839777490033633"><ele>85.0</ele><time>2026-04-19T12:08:56.974Z</time></trkpt><trkpt lat="42.17545216693395" lon="11.839676525490477"><ele>83.0</ele><time>2026-04-19T12:08:58.974Z</time></trkpt><trkpt lat="42.17535478883102" lon="11.839566552948414"><ele>81.0</ele><time>2026-04-19T12:09:00.974Z</time></trkpt><trkpt lat="42.17530259694985" lon="11.839511170918527"><ele>79.0</ele><time>2026-04-19T12:09:01.974Z</time></trkpt><trkpt lat="42.17524066925513" lon="11.839438840912658"><ele>79.0</ele><time>2026-04-19T12:09:03.974Z</time></trkpt><trkpt lat="42.17515908798122" lon="11.839412704542568"><ele>79.0</ele><time>2026-04-19T12:09:05.974Z</time></trkpt><trkpt lat="42.17505727619568" lon="11.839487345552477"><ele>79.0</ele><time>2026-04-19T12:09:07.974Z</time></trkpt><trkpt lat="42.17500820445142" lon="11.839587921211537"><ele>79.0</ele><time>2026-04-19T12:09:09.974Z</time></trkpt><trkpt lat="42.17500533910152" lon="11.839702524936595"><ele>79.0</ele><time>2026-04-19T12:09:11.974Z</time></trkpt><trkpt lat="42.174992068501524" lon="11.839875351977009"><ele>79.0</ele><time>2026-04-19T12:09:13.974Z</time></trkpt><trkpt lat="42.17497513895133" lon="11.840011127587905"><ele>79.0</ele><time>2026-04-19T12:09:15.974Z</time></trkpt><trkpt lat="42.1749565354536" lon="11.840162216146725"><ele>79.0</ele><time>2026-04-19T12:09:17.974Z</time></trkpt><trkpt lat="42.174949027524704" lon="11.840283597839722"><ele>79.0</ele><time>2026-04-19T12:09:19.974Z</time></trkpt><trkpt lat="42.17496393295437" lon="11.840402552622256"><ele>79.0</ele><time>2026-04-19T12:09:21.975Z</time></trkpt><trkpt lat="42.174995288126794" lon="11.840526871500371"><ele>78.16666666666666</ele><time>2026-04-19T12:09:23.975Z</time></trkpt><trkpt lat="42.17503852572348" lon="11.840651025863762"><ele>77.33333333333333</ele><time>2026-04-19T12:09:25.975Z</time></trkpt><trkpt lat="42.17508142262394" lon="11.840754548376575"><ele>76.5</ele><time>2026-04-19T12:09:27.975Z</time></trkpt><trkpt lat="42.17505245574674" lon="11.840834152616507"><ele>75.66666666666667</ele><time>2026-04-19T12:09:29.975Z</time></trkpt><trkpt lat="42.174989222402495" lon="11.840857468878749"><ele>74.83333333333334</ele><time>2026-04-19T12:09:31.975Z</time></trkpt><trkpt lat="42.1749240800546" lon="11.840798336429248"><ele>74.0</ele><time>2026-04-19T12:09:34.975Z</time></trkpt><trkpt lat="42.174852498370356" lon="11.840710181823763"><ele>70.8</ele><time>2026-04-19T12:09:36.975Z</time></trkpt><trkpt lat="42.17477949561214" lon="11.84061607912132"><ele>67.60000000000001</ele><time>2026-04-19T12:09:38.975Z</time></trkpt><trkpt lat="42.17471000907723" lon="11.840540376304789"><ele>64.4</ele><time>2026-04-19T12:09:40.975Z</time></trkpt><trkpt lat="42.1746286457321" lon="11.840450587456228"><ele>61.2</ele><time>2026-04-19T12:09:42.975Z</time></trkpt><trkpt lat="42.17456249472085" lon="11.840342824434742"><ele>58.0</ele><time>2026-04-19T12:09:44.975Z</time></trkpt><trkpt lat="42.17446911194743" lon="11.840247795442592"><ele>58.00000000000001</ele><time>2026-04-19T12:09:46.975Z</time></trkpt><trkpt lat="42.17441821311212" lon="11.840186949456447"><ele>58.0</ele><time>2026-04-19T12:09:48.975Z</time></trkpt><trkpt lat="42.17435636381263" lon="11.840097344076623"><ele>58.00000000000001</ele><time>2026-04-19T12:10:01.975Z</time></trkpt><trkpt lat="42.174306185399736" lon="11.840028926894119"><ele>58.00000000000001</ele><time>2026-04-19T12:10:05.975Z</time></trkpt><trkpt lat="42.17424037859787" lon="11.840020058573256"><ele>58.0</ele><time>2026-04-19T12:11:20.972Z</time></trkpt><trkpt lat="42.17424595129584" lon="11.840113368278244"><ele>58.00000000000001</ele><time>2026-04-19T12:11:28.972Z</time></trkpt><trkpt lat="42.17421084681426" lon="11.840207850011268"><ele>58.00000000000001</ele><time>2026-04-19T12:11:31.972Z</time></trkpt><trkpt lat="42.17417794121898" lon="11.840284977831871"><ele>57.99999999999999</ele><time>2026-04-19T12:11:33.972Z</time></trkpt><trkpt lat="42.17409798465173" lon="11.840234519355732"><ele>58.0</ele><time>2026-04-19T12:11:37.972Z</time></trkpt><trkpt lat="42.17405149691495" lon="11.840158450279425"><ele>58.0</ele><time>2026-04-19T12:11:38.972Z</time></trkpt><trkpt lat="42.1739934021251" lon="11.840077047669853"><ele>58.0</ele><time>2026-04-19T12:11:39.972Z</time></trkpt><trkpt lat="42.1739297797606" lon="11.83999410710475"><ele>57.99999999999999</ele><time>2026-04-19T12:11:40.972Z</time></trkpt><trkpt lat="42.173851104684324" lon="11.83990042792034"><ele>58.0</ele><time>2026-04-19T12:11:41.973Z</time></trkpt><trkpt lat="42.17377823291802" lon="11.839794555231688"><ele>55.75</ele><time>2026-04-19T12:11:42.973Z</time></trkpt><trkpt lat="42.1736942083292" lon="11.83969080722714"><ele>53.5</ele><time>2026-04-19T12:11:43.973Z</time></trkpt><trkpt lat="42.173609063628305" lon="11.839590172614855"><ele>51.25</ele><time>2026-04-19T12:11:44.973Z</time></trkpt><trkpt lat="42.173518747782296" lon="11.8394862005157"><ele>49.0</ele><time>2026-04-19T12:11:45.973Z</time></trkpt><trkpt lat="42.17343075416375" lon="11.839382096192884"><ele>49.0</ele><time>2026-04-19T12:11:46.973Z</time></trkpt><trkpt lat="42.173349039732194" lon="11.83927760069711"><ele>49.0</ele><time>2026-04-19T12:11:47.973Z</time></trkpt><trkpt lat="42.17326646130287" lon="11.83917476552208"><ele>49.0</ele><time>2026-04-19T12:11:48.973Z</time></trkpt><trkpt lat="42.173186286708855" lon="11.839068626382177"><ele>49.0</ele><time>2026-04-19T12:11:49.973Z</time></trkpt><trkpt lat="42.17310796066808" lon="11.838957409091645"><ele>49.400000000000006</ele><time>2026-04-19T12:11:50.973Z</time></trkpt><trkpt lat="42.17302728589876" lon="11.838848328624094"><ele>49.8</ele><time>2026-04-19T12:11:51.973Z</time></trkpt><trkpt lat="42.17295779589556" lon="11.838738492711567"><ele>50.2</ele><time>2026-04-19T12:11:52.973Z</time></trkpt><trkpt lat="42.17289606287574" lon="11.838622884090396"><ele>50.599999999999994</ele><time>2026-04-19T12:11:53.973Z</time></trkpt><trkpt lat="42.172836639958774" lon="11.838497179072615"><ele>51.0</ele><time>2026-04-19T12:11:54.973Z</time></trkpt><trkpt lat="42.172771298592146" lon="11.838356913587372"><ele>51.4</ele><time>2026-04-19T12:11:55.973Z</time></trkpt><trkpt lat="42.17271051448301" lon="11.838212849386696"><ele>51.8</ele><time>2026-04-19T12:11:56.973Z</time></trkpt><trkpt lat="42.17265763547764" lon="11.838096584708843"><ele>52.199999999999996</ele><time>2026-04-19T12:11:57.973Z</time></trkpt><trkpt lat="42.17262704836381" lon="11.838014770717042"><ele>52.599999999999994</ele><time>2026-04-19T12:11:58.973Z</time></trkpt><trkpt lat="42.17258509282222" lon="11.837843211090576"><ele>53.0</ele><time>2026-04-19T12:12:00.973Z</time></trkpt><trkpt lat="42.17255655869142" lon="11.837727249725345"><ele>53.833333333333336</ele><time>2026-04-19T12:12:01.973Z</time></trkpt><trkpt lat="42.17251910368704" lon="11.837605023878538"><ele>54.66666666666667</ele><time>2026-04-19T12:12:02.973Z</time></trkpt><trkpt lat="42.17248862441131" lon="11.837493514999963"><ele>55.5</ele><time>2026-04-19T12:12:03.973Z</time></trkpt><trkpt lat="42.17246738839214" lon="11.837385832665897"><ele>56.33333333333333</ele><time>2026-04-19T12:12:04.973Z</time></trkpt><trkpt lat="42.17245714286649" lon="11.837269460529432"><ele>57.166666666666664</ele><time>2026-04-19T12:12:05.973Z</time></trkpt><trkpt lat="42.17244363026982" lon="11.837150397437865"><ele>58.0</ele><time>2026-04-19T12:12:06.973Z</time></trkpt><trkpt lat="42.17242969020966" lon="11.837024938303749"><ele>58.0</ele><time>2026-04-19T12:12:07.973Z</time></trkpt><trkpt lat="42.17241614372171" lon="11.83689722836556"><ele>58.0</ele><time>2026-04-19T12:12:08.973Z</time></trkpt><trkpt lat="42.17240781121093" lon="11.836752693102676"><ele>58.0</ele><time>2026-04-19T12:12:09.973Z</time></trkpt><trkpt lat="42.172400387093354" lon="11.836614811809055"><ele>58.0</ele><time>2026-04-19T12:12:10.973Z</time></trkpt><trkpt lat="42.17240228413621" lon="11.83648465993668"><ele>58.0</ele><time>2026-04-19T12:12:11.973Z</time></trkpt><trkpt lat="42.172398512350554" lon="11.836350124669313"><ele>59.166666666666664</ele><time>2026-04-19T12:12:12.973Z</time></trkpt><trkpt lat="42.17240217961962" lon="11.836215255989496"><ele>60.33333333333333</ele><time>2026-04-19T12:12:13.973Z</time></trkpt><trkpt lat="42.172409433567786" lon="11.836102884152055"><ele>61.5</ele><time>2026-04-19T12:12:14.973Z</time></trkpt><trkpt lat="42.172416632166765" lon="11.836002031630033"><ele>62.66666666666667</ele><time>2026-04-19T12:12:15.973Z</time></trkpt><trkpt lat="42.17242237917789" lon="11.83591416332147"><ele>63.833333333333336</ele><time>2026-04-19T12:12:16.973Z</time></trkpt><trkpt lat="42.1724233587827" lon="11.835826725406303"><ele>65.0</ele><time>2026-04-19T12:12:17.973Z</time></trkpt><trkpt lat="42.17241719698518" lon="11.835642473533678"><ele>65.8</ele><time>2026-04-19T12:12:19.973Z</time></trkpt><trkpt lat="42.17241200451031" lon="11.835540616084131"><ele>66.6</ele><time>2026-04-19T12:12:20.973Z</time></trkpt><trkpt lat="42.17240847072412" lon="11.835415221735579"><ele>67.4</ele><time>2026-04-19T12:12:21.973Z</time></trkpt><trkpt lat="42.17240943256242" lon="11.835281545320049"><ele>68.2</ele><time>2026-04-19T12:12:22.973Z</time></trkpt><trkpt lat="42.172409165979424" lon="11.835134900513738"><ele>69.0</ele><time>2026-04-19T12:12:23.973Z</time></trkpt><trkpt lat="42.17241029500807" lon="11.83499389632899"><ele>69.0</ele><time>2026-04-19T12:12:24.973Z</time></trkpt><trkpt lat="42.172412261035845" lon="11.834855672942451"><ele>69.0</ele><time>2026-04-19T12:12:25.973Z</time></trkpt><trkpt lat="42.17240528873861" lon="11.834718666852927"><ele>69.0</ele><time>2026-04-19T12:12:26.973Z</time></trkpt><trkpt lat="42.17240985365875" lon="11.834594125204678"><ele>69.0</ele><time>2026-04-19T12:12:27.973Z</time></trkpt><trkpt lat="42.17241378773528" lon="11.834472583273831"><ele>69.0</ele><time>2026-04-19T12:12:28.974Z</time></trkpt><trkpt lat="42.17241733904455" lon="11.834356727400744"><ele>68.4</ele><time>2026-04-19T12:12:29.974Z</time></trkpt><trkpt lat="42.172420213728344" lon="11.834234316707676"><ele>67.80000000000001</ele><time>2026-04-19T12:12:30.974Z</time></trkpt><trkpt lat="42.1724238018603" lon="11.834107023695225"><ele>67.19999999999999</ele><time>2026-04-19T12:12:31.969Z</time></trkpt><trkpt lat="42.172429407548144" lon="11.83397531512284"><ele>66.6</ele><time>2026-04-19T12:12:32.969Z</time></trkpt><trkpt lat="42.17243571467406" lon="11.833839425233108"><ele>66.0</ele><time>2026-04-19T12:12:33.969Z</time></trkpt><trkpt lat="42.172456339719496" lon="11.833694158610726"><ele>66.0</ele><time>2026-04-19T12:12:34.97Z</time></trkpt><trkpt lat="42.172477190224704" lon="11.83355057655957"><ele>66.0</ele><time>2026-04-19T12:12:35.97Z</time></trkpt><trkpt lat="42.17249311914054" lon="11.833409716329284"><ele>66.0</ele><time>2026-04-19T12:12:36.97Z</time></trkpt><trkpt lat="42.17250852162825" lon="11.833290679700939"><ele>66.0</ele><time>2026-04-19T12:12:37.969Z</time></trkpt><trkpt lat="42.17252089557567" lon="11.833182095439126"><ele>66.0</ele><time>2026-04-19T12:12:38.969Z</time></trkpt><trkpt lat="42.17253275345005" lon="11.833090086802056"><ele>65.83333333333333</ele><time>2026-04-19T12:12:39.969Z</time></trkpt><trkpt lat="42.1725518474121" lon="11.832990515984772"><ele>65.66666666666667</ele><time>2026-04-19T12:12:40.97Z</time></trkpt><trkpt lat="42.1725606259064" lon="11.8329006312299"><ele>65.5</ele><time>2026-04-19T12:12:41.969Z</time></trkpt><trkpt lat="42.172572805811164" lon="11.832788020608886"><ele>65.33333333333334</ele><time>2026-04-19T12:12:43.969Z</time></trkpt><trkpt lat="42.172509034962964" lon="11.83271581742377"><ele>65.16666666666667</ele><time>2026-04-19T12:12:51.969Z</time></trkpt><trkpt lat="42.17245417512888" lon="11.832632972122246"><ele>65.0</ele><time>2026-04-19T12:13:00.97Z</time></trkpt><trkpt lat="42.17242859643547" lon="11.832538078720994"><ele>66.83333333333334</ele><time>2026-04-19T12:13:03.97Z</time></trkpt><trkpt lat="42.17244047339869" lon="11.832422476290906"><ele>68.66666666666667</ele><time>2026-04-19T12:13:11.97Z</time></trkpt><trkpt lat="42.17237919292926" lon="11.832375082325314"><ele>70.5</ele><time>2026-04-19T12:13:13.97Z</time></trkpt><trkpt lat="42.17231004541362" lon="11.832370784425459"><ele>72.33333333333333</ele><time>2026-04-19T12:13:46.971Z</time></trkpt><trkpt lat="42.17224415340016" lon="11.832351948294576"><ele>74.16666666666666</ele><time>2026-04-19T12:13:48.971Z</time></trkpt><trkpt lat="42.172154990647954" lon="11.83232416181265"><ele>76.0</ele><time>2026-04-19T12:13:50.971Z</time></trkpt><trkpt lat="42.17206770627419" lon="11.832263319618873"><ele>77.33333333333333</ele><time>2026-04-19T12:13:52.971Z</time></trkpt><trkpt lat="42.17198897859167" lon="11.832206580536223"><ele>78.66666666666666</ele><time>2026-04-19T12:13:54.971Z</time></trkpt><trkpt lat="42.17191014418921" lon="11.832133226645128"><ele>80.0</ele><time>2026-04-19T12:13:56.971Z</time></trkpt><trkpt lat="42.17184283178989" lon="11.832128735739044"><ele>81.33333333333333</ele><time>2026-04-19T12:13:58.971Z</time></trkpt><trkpt lat="42.17176411593822" lon="11.832138509333491"><ele>82.66666666666667</ele><time>2026-04-19T12:14:02.971Z</time></trkpt><trkpt lat="42.17178508169259" lon="11.8320472341092"><ele>84.0</ele><time>2026-04-19T12:15:11.968Z</time></trkpt><trkpt lat="42.17170204007471" lon="11.831996611502303"><ele>84.0</ele><time>2026-04-19T12:15:13.968Z</time></trkpt><trkpt lat="42.17163625561736" lon="11.831929030278667"><ele>84.0</ele><time>2026-04-19T12:15:17.968Z</time></trkpt><trkpt lat="42.17155263694531" lon="11.831845097551357"><ele>84.0</ele><time>2026-04-19T12:15:19.968Z</time></trkpt><trkpt lat="42.17146797869412" lon="11.831774384461431"><ele>84.0</ele><time>2026-04-19T12:15:21.968Z</time></trkpt><trkpt lat="42.171392282711786" lon="11.831699533574414"><ele>84.0</ele><time>2026-04-19T12:15:23.968Z</time></trkpt><trkpt lat="42.171302334959265" lon="11.83164386876894"><ele>89.0</ele><time>2026-04-19T12:15:41.968Z</time></trkpt><trkpt lat="42.17119120166738" lon="11.831577950256428"><ele>94.0</ele><time>2026-04-19T12:15:43.968Z</time></trkpt><trkpt lat="42.17110621882536" lon="11.831527035432352"><ele>99.0</ele><time>2026-04-19T12:15:46.968Z</time></trkpt><trkpt lat="42.17100743855211" lon="11.83146814003021"><ele>104.0</ele><time>2026-04-19T12:15:48.968Z</time></trkpt><trkpt lat="42.170941859791334" lon="11.83142488654754"><ele>109.0</ele><time>2026-04-19T12:15:50.969Z</time></trkpt><trkpt lat="42.17089183195778" lon="11.831331939187464"><ele>109.00000000000001</ele><time>2026-04-19T12:15:52.969Z</time></trkpt><trkpt lat="42.17080882297615" lon="11.831279119877086"><ele>109.0</ele><time>2026-04-19T12:15:54.969Z</time></trkpt><trkpt lat="42.1707908622916" lon="11.831179411302237"><ele>109.0</ele><time>2026-04-19T12:16:03.969Z</time></trkpt><trkpt lat="42.170748770056846" lon="11.831114153585807"><ele>109.0</ele><time>2026-04-19T12:16:16.969Z</time></trkpt><trkpt lat="42.17069281485343" lon="11.83105049688147"><ele>109.00000000000001</ele><time>2026-04-19T12:16:21.969Z</time></trkpt><trkpt lat="42.170623394022876" lon="11.831000300993242"><ele>109.0</ele><time>2026-04-19T12:16:38.97Z</time></trkpt><trkpt lat="42.17055988431237" lon="11.830958775586318"><ele>109.71428571428572</ele><time>2026-04-19T12:16:42.97Z</time></trkpt><trkpt lat="42.17049494292342" lon="11.830926076956885"><ele>110.42857142857143</ele><time>2026-04-19T12:16:46.966Z</time></trkpt><trkpt lat="42.17043747763764" lon="11.830888104181003"><ele>111.14285714285714</ele><time>2026-04-19T12:16:49.965Z</time></trkpt><trkpt lat="42.17036705807636" lon="11.830867703367037"><ele>111.85714285714286</ele><time>2026-04-19T12:16:51.966Z</time></trkpt><trkpt lat="42.17030245646302" lon="11.830835460389382"><ele>112.57142857142856</ele><time>2026-04-19T12:16:52.965Z</time></trkpt><trkpt lat="42.17024353385339" lon="11.830805143966018"><ele>113.28571428571428</ele><time>2026-04-19T12:16:53.966Z</time></trkpt><trkpt lat="42.170161861653675" lon="11.830801071200915"><ele>114.0</ele><time>2026-04-19T12:21:50.967Z</time></trkpt><trkpt lat="42.17007961457658" lon="11.830736819934097"><ele>114.0</ele><time>2026-04-19T12:21:56.967Z</time></trkpt><trkpt lat="42.16998536083814" lon="11.830678350143183"><ele>114.0</ele><time>2026-04-19T12:21:58.967Z</time></trkpt><trkpt lat="42.16989256950437" lon="11.830626355962735"><ele>114.0</ele><time>2026-04-19T12:22:00.967Z</time></trkpt><trkpt lat="42.16980710306674" lon="11.830546548911435"><ele>114.0</ele><time>2026-04-19T12:22:02.967Z</time></trkpt><trkpt lat="42.16970638993119" lon="11.830447133675586"><ele>114.0</ele><time>2026-04-19T12:22:04.967Z</time></trkpt><trkpt lat="42.169620016210104" lon="11.830349296912129"><ele>114.0</ele><time>2026-04-19T12:22:06.967Z</time></trkpt><trkpt lat="42.16952765405662" lon="11.830280504282912"><ele>114.0</ele><time>2026-04-19T12:22:08.967Z</time></trkpt><trkpt lat="42.16948014026012" lon="11.830201935333223"><ele>114.0</ele><time>2026-04-19T12:22:10.967Z</time></trkpt><trkpt lat="42.16945368598278" lon="11.830054523337877"><ele>114.0</ele><time>2026-04-19T12:22:12.967Z</time></trkpt><trkpt lat="42.16944501521674" lon="11.829958783828026"><ele>114.0</ele><time>2026-04-19T12:22:13.967Z</time></trkpt><trkpt lat="42.16943865851347" lon="11.829843501772896"><ele>113.2</ele><time>2026-04-19T12:22:14.967Z</time></trkpt><trkpt lat="42.169433474035756" lon="11.829718099448645"><ele>112.4</ele><time>2026-04-19T12:22:15.967Z</time></trkpt><trkpt lat="42.169426962598536" lon="11.829587169922181"><ele>111.6</ele><time>2026-04-19T12:22:16.967Z</time></trkpt><trkpt lat="42.169417723964884" lon="11.829451290146686"><ele>110.8</ele><time>2026-04-19T12:22:17.967Z</time></trkpt><trkpt lat="42.169411582475476" lon="11.829322820825446"><ele>110.0</ele><time>2026-04-19T12:22:18.967Z</time></trkpt><trkpt lat="42.16940093759168" lon="11.829182545034307"><ele>109.6</ele><time>2026-04-19T12:22:19.967Z</time></trkpt><trkpt lat="42.169384977648356" lon="11.829045065906989"><ele>109.2</ele><time>2026-04-19T12:22:20.967Z</time></trkpt><trkpt lat="42.16936805734655" lon="11.828901982979751"><ele>108.80000000000001</ele><time>2026-04-19T12:22:21.967Z</time></trkpt><trkpt lat="42.169360305841295" lon="11.828749670944761"><ele>108.4</ele><time>2026-04-19T12:22:22.967Z</time></trkpt><trkpt lat="42.16935406708903" lon="11.828592383137064"><ele>108.0</ele><time>2026-04-19T12:22:23.967Z</time></trkpt><trkpt lat="42.169346356818565" lon="11.828432788340253"><ele>107.5</ele><time>2026-04-19T12:22:24.967Z</time></trkpt><trkpt lat="42.16933917393721" lon="11.828270020088505"><ele>107.0</ele><time>2026-04-19T12:22:25.967Z</time></trkpt><trkpt lat="42.169321835025286" lon="11.828105549230488"><ele>106.5</ele><time>2026-04-19T12:22:26.967Z</time></trkpt><trkpt lat="42.16929854125915" lon="11.827922632315127"><ele>106.0</ele><time>2026-04-19T12:22:27.967Z</time></trkpt><trkpt lat="42.169317071607026" lon="11.827724349514561"><ele>106.0</ele><time>2026-04-19T12:22:28.967Z</time></trkpt><trkpt lat="42.16929232017865" lon="11.827524937070123"><ele>106.0</ele><time>2026-04-19T12:22:29.968Z</time></trkpt><trkpt lat="42.169269767042785" lon="11.827314143280026"><ele>106.0</ele><time>2026-04-19T12:22:30.968Z</time></trkpt><trkpt lat="42.169247446918845" lon="11.827095802666644"><ele>106.0</ele><time>2026-04-19T12:22:31.968Z</time></trkpt><trkpt lat="42.16922440880051" lon="11.826878247104478"><ele>106.0</ele><time>2026-04-19T12:22:32.968Z</time></trkpt><trkpt lat="42.169200895432056" lon="11.826663125797383"><ele>106.0</ele><time>2026-04-19T12:22:33.968Z</time></trkpt><trkpt lat="42.16917719714814" lon="11.826446312675849"><ele>105.66666666666667</ele><time>2026-04-19T12:22:34.968Z</time></trkpt><trkpt lat="42.1691537074989" lon="11.82623170481883"><ele>105.33333333333334</ele><time>2026-04-19T12:22:35.968Z</time></trkpt><trkpt lat="42.169130789070806" lon="11.826022224796214"><ele>105.0</ele><time>2026-04-19T12:22:36.968Z</time></trkpt><trkpt lat="42.16910991445607" lon="11.825821050385374"><ele>104.0</ele><time>2026-04-19T12:22:37.968Z</time></trkpt><trkpt lat="42.16908906831914" lon="11.82561317788368"><ele>103.0</ele><time>2026-04-19T12:22:38.968Z</time></trkpt><trkpt lat="42.16906805874567" lon="11.825403675618556"><ele>102.0</ele><time>2026-04-19T12:22:39.968Z</time></trkpt><trkpt lat="42.16904680409015" lon="11.825191729476442"><ele>102.0</ele><time>2026-04-19T12:22:40.968Z</time></trkpt><trkpt lat="42.16902705744521" lon="11.824997886271026"><ele>102.0</ele><time>2026-04-19T12:22:41.968Z</time></trkpt><trkpt lat="42.16900723432279" lon="11.824809097399534"><ele>102.0</ele><time>2026-04-19T12:22:42.968Z</time></trkpt><trkpt lat="42.1689861900089" lon="11.824608678324308"><ele>102.0</ele><time>2026-04-19T12:22:43.968Z</time></trkpt><trkpt lat="42.16896832266339" lon="11.824413777420677"><ele>102.0</ele><time>2026-04-19T12:22:44.968Z</time></trkpt><trkpt lat="42.16894419685449" lon="11.824186466343969"><ele>102.0</ele><time>2026-04-19T12:22:45.968Z</time></trkpt><trkpt lat="42.16891312014632" lon="11.823964444890366"><ele>102.0</ele><time>2026-04-19T12:22:46.968Z</time></trkpt><trkpt lat="42.16888771711086" lon="11.82376435274763"><ele>102.0</ele><time>2026-04-19T12:22:47.968Z</time></trkpt><trkpt lat="42.16886440811489" lon="11.82358983756083"><ele>102.0</ele><time>2026-04-19T12:22:48.968Z</time></trkpt><trkpt lat="42.16886175598341" lon="11.823416761906811"><ele>102.0</ele><time>2026-04-19T12:22:49.968Z</time></trkpt><trkpt lat="42.16883214655471" lon="11.82323293173489"><ele>102.0</ele><time>2026-04-19T12:22:50.968Z</time></trkpt><trkpt lat="42.168812542278864" lon="11.823024292345458"><ele>102.33333333333334</ele><time>2026-04-19T12:22:51.968Z</time></trkpt><trkpt lat="42.16878582227782" lon="11.822807477084988"><ele>102.66666666666667</ele><time>2026-04-19T12:22:52.968Z</time></trkpt><trkpt lat="42.16877467438631" lon="11.822585712855583"><ele>103.0</ele><time>2026-04-19T12:22:53.968Z</time></trkpt><trkpt lat="42.16875244000168" lon="11.822373972379685"><ele>103.25</ele><time>2026-04-19T12:22:54.968Z</time></trkpt><trkpt lat="42.16871888806909" lon="11.8221835449953"><ele>103.5</ele><time>2026-04-19T12:22:55.968Z</time></trkpt><trkpt lat="42.16870149198709" lon="11.821997552070199"><ele>103.75</ele><time>2026-04-19T12:22:56.968Z</time></trkpt><trkpt lat="42.16869038508522" lon="11.821783016678568"><ele>104.0</ele><time>2026-04-19T12:22:57.968Z</time></trkpt><trkpt lat="42.16866836820956" lon="11.821573347582262"><ele>104.0</ele><time>2026-04-19T12:22:58.968Z</time></trkpt><trkpt lat="42.16864606881924" lon="11.821360988074222"><ele>104.0</ele><time>2026-04-19T12:22:59.968Z</time></trkpt><trkpt lat="42.16860731892151" lon="11.821156332141147"><ele>104.0</ele><time>2026-04-19T12:23:00.968Z</time></trkpt><trkpt lat="42.16859343001183" lon="11.820941809965436"><ele>103.33333333333333</ele><time>2026-04-19T12:23:01.965Z</time></trkpt><trkpt lat="42.168570325903374" lon="11.820718024114008"><ele>102.66666666666666</ele><time>2026-04-19T12:23:02.965Z</time></trkpt><trkpt lat="42.16854600321617" lon="11.820497539749452"><ele>102.0</ele><time>2026-04-19T12:23:03.965Z</time></trkpt><trkpt lat="42.168521795582514" lon="11.820273099828876"><ele>101.33333333333334</ele><time>2026-04-19T12:23:04.965Z</time></trkpt><trkpt lat="42.168495710728486" lon="11.820065759823347"><ele>100.66666666666667</ele><time>2026-04-19T12:23:05.965Z</time></trkpt><trkpt lat="42.16847792243645" lon="11.819860688589895"><ele>100.0</ele><time>2026-04-19T12:23:06.965Z</time></trkpt><trkpt lat="42.16845255414472" lon="11.819663479976542"><ele>100.0</ele><time>2026-04-19T12:23:07.966Z</time></trkpt><trkpt lat="42.16843303388549" lon="11.819461858258462"><ele>100.0</ele><time>2026-04-19T12:23:08.965Z</time></trkpt><trkpt lat="42.1684097616232" lon="11.81925586389615"><ele>100.0</ele><time>2026-04-19T12:23:09.965Z</time></trkpt><trkpt lat="42.16838806433156" lon="11.819060176736606"><ele>99.66666666666667</ele><time>2026-04-19T12:23:10.966Z</time></trkpt><trkpt lat="42.168363006070265" lon="11.818862292595714"><ele>99.33333333333334</ele><time>2026-04-19T12:23:11.965Z</time></trkpt><trkpt lat="42.16834518297472" lon="11.81865132620073"><ele>99.0</ele><time>2026-04-19T12:23:12.965Z</time></trkpt><trkpt lat="42.16832438073878" lon="11.818442098205319"><ele>98.33333333333334</ele><time>2026-04-19T12:23:13.965Z</time></trkpt><trkpt lat="42.168306033857064" lon="11.818222543875542"><ele>97.66666666666667</ele><time>2026-04-19T12:23:14.965Z</time></trkpt><trkpt lat="42.16828231903892" lon="11.818013137570196"><ele>97.0</ele><time>2026-04-19T12:23:15.965Z</time></trkpt><trkpt lat="42.168257302870956" lon="11.817777852065335"><ele>97.0</ele><time>2026-04-19T12:23:16.965Z</time></trkpt><trkpt lat="42.168222510054385" lon="11.817543033814832"><ele>97.0</ele><time>2026-04-19T12:23:17.965Z</time></trkpt><trkpt lat="42.168199747946844" lon="11.817313138663101"><ele>97.0</ele><time>2026-04-19T12:23:18.965Z</time></trkpt><trkpt lat="42.168171070894935" lon="11.81709967078452"><ele>97.0</ele><time>2026-04-19T12:23:19.965Z</time></trkpt><trkpt lat="42.168150190814245" lon="11.816903784855759"><ele>97.0</ele><time>2026-04-19T12:23:20.965Z</time></trkpt><trkpt lat="42.16813204858422" lon="11.816714589693953"><ele>97.0</ele><time>2026-04-19T12:23:21.965Z</time></trkpt><trkpt lat="42.168115739843884" lon="11.816517093031484"><ele>97.0</ele><time>2026-04-19T12:23:22.965Z</time></trkpt><trkpt lat="42.168097345810054" lon="11.816301798532026"><ele>97.0</ele><time>2026-04-19T12:23:23.965Z</time></trkpt><trkpt lat="42.16807234155061" lon="11.81608137724352"><ele>97.0</ele><time>2026-04-19T12:23:24.965Z</time></trkpt><trkpt lat="42.168061928539174" lon="11.815866797103753"><ele>97.0</ele><time>2026-04-19T12:23:25.965Z</time></trkpt><trkpt lat="42.16804065549059" lon="11.815656711457812"><ele>96.33333333333334</ele><time>2026-04-19T12:23:26.966Z</time></trkpt><trkpt lat="42.16801651302417" lon="11.815447391485366"><ele>95.66666666666667</ele><time>2026-04-19T12:23:27.966Z</time></trkpt><trkpt lat="42.1679900101972" lon="11.815229357347587"><ele>95.0</ele><time>2026-04-19T12:23:28.966Z</time></trkpt><trkpt lat="42.167966686522206" lon="11.815014233537031"><ele>94.33333333333334</ele><time>2026-04-19T12:23:29.966Z</time></trkpt><trkpt lat="42.167944851060845" lon="11.814803615164612"><ele>93.66666666666667</ele><time>2026-04-19T12:23:30.966Z</time></trkpt><trkpt lat="42.1679203395704" lon="11.814575676119622"><ele>93.0</ele><time>2026-04-19T12:23:31.966Z</time></trkpt><trkpt lat="42.167896204519536" lon="11.814356497527834"><ele>92.0</ele><time>2026-04-19T12:23:32.966Z</time></trkpt><trkpt lat="42.16787523237939" lon="11.81413867244484"><ele>91.0</ele><time>2026-04-19T12:23:33.966Z</time></trkpt><trkpt lat="42.16785758307397" lon="11.813913302697346"><ele>90.0</ele><time>2026-04-19T12:23:34.966Z</time></trkpt><trkpt lat="42.16783513089981" lon="11.81369480805331"><ele>89.66666666666667</ele><time>2026-04-19T12:23:35.966Z</time></trkpt><trkpt lat="42.16780991041209" lon="11.813476389127993"><ele>89.33333333333334</ele><time>2026-04-19T12:23:36.966Z</time></trkpt><trkpt lat="42.16778568511351" lon="11.813260134824253"><ele>89.0</ele><time>2026-04-19T12:23:37.966Z</time></trkpt><trkpt lat="42.16776221690346" lon="11.813039047644569"><ele>89.0</ele><time>2026-04-19T12:23:38.966Z</time></trkpt><trkpt lat="42.16773926022399" lon="11.812822779403204"><ele>89.0</ele><time>2026-04-19T12:23:39.966Z</time></trkpt><trkpt lat="42.16771619466909" lon="11.812605485473062"><ele>89.0</ele><time>2026-04-19T12:23:40.966Z</time></trkpt><trkpt lat="42.16769281731647" lon="11.812385254205491"><ele>88.33333333333334</ele><time>2026-04-19T12:23:41.966Z</time></trkpt><trkpt lat="42.1676687201411" lon="11.812158241687953"><ele>87.66666666666667</ele><time>2026-04-19T12:23:42.966Z</time></trkpt><trkpt lat="42.16764361643849" lon="11.811921746979515"><ele>87.0</ele><time>2026-04-19T12:23:43.966Z</time></trkpt><trkpt lat="42.167618884357964" lon="11.811688849149919"><ele>86.33333333333333</ele><time>2026-04-19T12:23:44.966Z</time></trkpt><trkpt lat="42.16759571004724" lon="11.811470883454568"><ele>85.66666666666666</ele><time>2026-04-19T12:23:45.966Z</time></trkpt><trkpt lat="42.167573522630526" lon="11.811262199959803"><ele>85.0</ele><time>2026-04-19T12:23:46.966Z</time></trkpt><trkpt lat="42.16755007444448" lon="11.81103965161761"><ele>84.33333333333333</ele><time>2026-04-19T12:23:47.966Z</time></trkpt><trkpt lat="42.16752644711052" lon="11.810812442777703"><ele>83.66666666666667</ele><time>2026-04-19T12:23:48.966Z</time></trkpt><trkpt lat="42.16748674564323" lon="11.810582691183638"><ele>83.0</ele><time>2026-04-19T12:23:49.966Z</time></trkpt><trkpt lat="42.167474282236554" lon="11.810342275708233"><ele>83.33333333333334</ele><time>2026-04-19T12:23:50.966Z</time></trkpt><trkpt lat="42.16745019284703" lon="11.810099224505738"><ele>83.66666666666667</ele><time>2026-04-19T12:23:51.966Z</time></trkpt><trkpt lat="42.16742431841021" lon="11.809850805444807"><ele>84.0</ele><time>2026-04-19T12:23:52.966Z</time></trkpt><trkpt lat="42.16739358345478" lon="11.809597756931701"><ele>84.0</ele><time>2026-04-19T12:23:53.966Z</time></trkpt><trkpt lat="42.16736066952362" lon="11.809359546071311"><ele>84.0</ele><time>2026-04-19T12:23:54.966Z</time></trkpt><trkpt lat="42.167330396241205" lon="11.809129636839504"><ele>84.0</ele><time>2026-04-19T12:23:55.966Z</time></trkpt><trkpt lat="42.167319295043036" lon="11.808896465082281"><ele>84.0</ele><time>2026-04-19T12:23:56.966Z</time></trkpt><trkpt lat="42.16728288555338" lon="11.808652134370066"><ele>84.0</ele><time>2026-04-19T12:23:57.966Z</time></trkpt><trkpt lat="42.16726092481397" lon="11.808414399764287"><ele>84.0</ele><time>2026-04-19T12:23:58.966Z</time></trkpt><trkpt lat="42.16723996475746" lon="11.80817077266134"><ele>84.0</ele><time>2026-04-19T12:23:59.966Z</time></trkpt><trkpt lat="42.16721513448898" lon="11.807928133100361"><ele>84.0</ele><time>2026-04-19T12:24:00.966Z</time></trkpt><trkpt lat="42.16718498263507" lon="11.807683022748133"><ele>84.0</ele><time>2026-04-19T12:24:01.966Z</time></trkpt><trkpt lat="42.1671565821426" lon="11.807431537744792"><ele>84.0</ele><time>2026-04-19T12:24:02.966Z</time></trkpt><trkpt lat="42.16713723725057" lon="11.807183027277139"><ele>84.0</ele><time>2026-04-19T12:24:03.966Z</time></trkpt><trkpt lat="42.16711658925536" lon="11.80695196551279"><ele>84.0</ele><time>2026-04-19T12:24:04.966Z</time></trkpt><trkpt lat="42.16707995238088" lon="11.806728287432414"><ele>83.33333333333333</ele><time>2026-04-19T12:24:05.966Z</time></trkpt><trkpt lat="42.1670703755742" lon="11.806505096081732"><ele>82.66666666666666</ele><time>2026-04-19T12:24:06.966Z</time></trkpt><trkpt lat="42.167047019391234" lon="11.806282298222326"><ele>82.0</ele><time>2026-04-19T12:24:07.966Z</time></trkpt><trkpt lat="42.16702274243145" lon="11.80605071698741"><ele>79.66666666666666</ele><time>2026-04-19T12:24:08.966Z</time></trkpt><trkpt lat="42.166996455281705" lon="11.805799960240448"><ele>77.33333333333333</ele><time>2026-04-19T12:24:09.966Z</time></trkpt><trkpt lat="42.166953863220456" lon="11.805545610453077"><ele>75.0</ele><time>2026-04-19T12:24:10.966Z</time></trkpt><trkpt lat="42.16693188653513" lon="11.80529256102465"><ele>73.33333333333333</ele><time>2026-04-19T12:24:11.966Z</time></trkpt><trkpt lat="42.16690573631789" lon="11.8050537362202"><ele>71.66666666666666</ele><time>2026-04-19T12:24:12.966Z</time></trkpt><trkpt lat="42.16687323968647" lon="11.804808611585383"><ele>70.0</ele><time>2026-04-19T12:24:13.967Z</time></trkpt><trkpt lat="42.1668563911999" lon="11.804547641805218"><ele>69.0</ele><time>2026-04-19T12:24:14.967Z</time></trkpt><trkpt lat="42.16681753568802" lon="11.804292236450594"><ele>68.0</ele><time>2026-04-19T12:24:15.967Z</time></trkpt><trkpt lat="42.16679850051269" lon="11.804043090442464"><ele>67.0</ele><time>2026-04-19T12:24:16.967Z</time></trkpt><trkpt lat="42.166772627683194" lon="11.803799429840462"><ele>67.0</ele><time>2026-04-19T12:24:17.967Z</time></trkpt><trkpt lat="42.16674568196248" lon="11.803563997244723"><ele>67.0</ele><time>2026-04-19T12:24:18.967Z</time></trkpt><trkpt lat="42.16671817678965" lon="11.803341046200716"><ele>67.0</ele><time>2026-04-19T12:24:19.967Z</time></trkpt><trkpt lat="42.16669692375726" lon="11.80311660947381"><ele>66.0</ele><time>2026-04-19T12:24:20.967Z</time></trkpt><trkpt lat="42.1666693944894" lon="11.80289205217308"><ele>65.0</ele><time>2026-04-19T12:24:21.967Z</time></trkpt><trkpt lat="42.16665799495365" lon="11.802655884284377"><ele>64.0</ele><time>2026-04-19T12:24:22.967Z</time></trkpt><trkpt lat="42.166628716055044" lon="11.802425950475403"><ele>64.0</ele><time>2026-04-19T12:24:23.967Z</time></trkpt><trkpt lat="42.166599804405635" lon="11.802183688812674"><ele>64.0</ele><time>2026-04-19T12:24:24.967Z</time></trkpt><trkpt lat="42.166570965107695" lon="11.801932819585895"><ele>64.0</ele><time>2026-04-19T12:24:25.967Z</time></trkpt><trkpt lat="42.166541682786814" lon="11.80167280239132"><ele>63.0</ele><time>2026-04-19T12:24:26.967Z</time></trkpt><trkpt lat="42.16651228260553" lon="11.801414476131095"><ele>62.0</ele><time>2026-04-19T12:24:27.967Z</time></trkpt><trkpt lat="42.166483819836486" lon="11.801147442366387"><ele>61.0</ele><time>2026-04-19T12:24:28.967Z</time></trkpt><trkpt lat="42.166454135137414" lon="11.800869074868904"><ele>61.0</ele><time>2026-04-19T12:24:29.967Z</time></trkpt><trkpt lat="42.166424674675554" lon="11.800586333583322"><ele>61.0</ele><time>2026-04-19T12:24:30.967Z</time></trkpt><trkpt lat="42.16640919161796" lon="11.800294005234031"><ele>61.0</ele><time>2026-04-19T12:24:31.967Z</time></trkpt><trkpt lat="42.16637836586062" lon="11.799997431081279"><ele>61.0</ele><time>2026-04-19T12:24:32.967Z</time></trkpt><trkpt lat="42.16634687385178" lon="11.799700944030588"><ele>61.0</ele><time>2026-04-19T12:24:33.967Z</time></trkpt><trkpt lat="42.16631491328414" lon="11.799405107998016"><ele>61.0</ele><time>2026-04-19T12:24:34.967Z</time></trkpt><trkpt lat="42.16628397333905" lon="11.799111639973939"><ele>60.666666666666664</ele><time>2026-04-19T12:24:35.967Z</time></trkpt><trkpt lat="42.166254751546845" lon="11.798830409983829"><ele>60.33333333333333</ele><time>2026-04-19T12:24:36.967Z</time></trkpt><trkpt lat="42.1662277240201" lon="11.798564264365236"><ele>60.0</ele><time>2026-04-19T12:24:37.967Z</time></trkpt><trkpt lat="42.166200251286625" lon="11.798293734717117"><ele>59.33333333333333</ele><time>2026-04-19T12:24:38.967Z</time></trkpt><trkpt lat="42.16617219700941" lon="11.798018860086982"><ele>58.666666666666664</ele><time>2026-04-19T12:24:39.967Z</time></trkpt><trkpt lat="42.16614408493793" lon="11.79774896912951"><ele>58.0</ele><time>2026-04-19T12:24:40.967Z</time></trkpt><trkpt lat="42.16611474036004" lon="11.797467245446706"><ele>58.0</ele><time>2026-04-19T12:24:41.967Z</time></trkpt><trkpt lat="42.16608477816029" lon="11.79718721408373"><ele>58.0</ele><time>2026-04-19T12:24:42.967Z</time></trkpt><trkpt lat="42.16605530020054" lon="11.796916414656492"><ele>58.0</ele><time>2026-04-19T12:24:43.967Z</time></trkpt><trkpt lat="42.166025495895994" lon="11.796642617312738"><ele>56.666666666666664</ele><time>2026-04-19T12:24:44.967Z</time></trkpt><trkpt lat="42.165995711356885" lon="11.796369001711321"><ele>55.33333333333333</ele><time>2026-04-19T12:24:45.967Z</time></trkpt><trkpt lat="42.165966262451" lon="11.79609846881093"><ele>54.0</ele><time>2026-04-19T12:24:46.967Z</time></trkpt><trkpt lat="42.16593643151001" lon="11.795824373772462"><ele>52.66666666666667</ele><time>2026-04-19T12:24:47.967Z</time></trkpt><trkpt lat="42.165907119451525" lon="11.795554937881464"><ele>51.333333333333336</ele><time>2026-04-19T12:24:48.967Z</time></trkpt><trkpt lat="42.16587708068726" lon="11.795278822034968"><ele>50.0</ele><time>2026-04-19T12:24:49.967Z</time></trkpt><trkpt lat="42.16584670916941" lon="11.794999647306568"><ele>49.66666666666667</ele><time>2026-04-19T12:24:50.967Z</time></trkpt><trkpt lat="42.16581719368165" lon="11.794728341296778"><ele>49.33333333333333</ele><time>2026-04-19T12:24:51.967Z</time></trkpt><trkpt lat="42.16578940295149" lon="11.794472889234061"><ele>49.0</ele><time>2026-04-19T12:24:52.967Z</time></trkpt><trkpt lat="42.165762027272244" lon="11.794221252468285"><ele>49.0</ele><time>2026-04-19T12:24:53.967Z</time></trkpt><trkpt lat="42.16573445464575" lon="11.793967804928643"><ele>49.0</ele><time>2026-04-19T12:24:54.967Z</time></trkpt><trkpt lat="42.16570737502799" lon="11.793718889641921"><ele>49.0</ele><time>2026-04-19T12:24:55.967Z</time></trkpt><trkpt lat="42.16566594572761" lon="11.793494597933531"><ele>48.0</ele><time>2026-04-19T12:24:56.967Z</time></trkpt><trkpt lat="42.16565067474914" lon="11.793273674145363"><ele>47.0</ele><time>2026-04-19T12:24:57.967Z</time></trkpt><trkpt lat="42.1656282058516" lon="11.793046788152346"><ele>46.0</ele><time>2026-04-19T12:24:58.967Z</time></trkpt><trkpt lat="42.16560266978324" lon="11.792820784772406"><ele>45.66666666666667</ele><time>2026-04-19T12:24:59.967Z</time></trkpt><trkpt lat="42.16556829040569" lon="11.792590264686392"><ele>45.333333333333336</ele><time>2026-04-19T12:25:00.968Z</time></trkpt><trkpt lat="42.16553937560583" lon="11.792354557938273"><ele>45.0</ele><time>2026-04-19T12:25:01.968Z</time></trkpt><trkpt lat="42.16551801247524" lon="11.7921299527891"><ele>45.0</ele><time>2026-04-19T12:25:02.968Z</time></trkpt><trkpt lat="42.16549555942159" lon="11.791917661267428"><ele>45.0</ele><time>2026-04-19T12:25:03.968Z</time></trkpt><trkpt lat="42.16545310888631" lon="11.7917161182264"><ele>45.0</ele><time>2026-04-19T12:25:04.968Z</time></trkpt><trkpt lat="42.16540966719556" lon="11.791511716014597"><ele>45.333333333333336</ele><time>2026-04-19T12:25:05.968Z</time></trkpt><trkpt lat="42.165296676394185" lon="11.791323528641861"><ele>45.66666666666667</ele><time>2026-04-19T12:25:06.968Z</time></trkpt><trkpt lat="42.165193974234036" lon="11.7911418457479"><ele>46.0</ele><time>2026-04-19T12:25:07.963Z</time></trkpt><trkpt lat="42.1650677785122" lon="11.790981629725476"><ele>44.333333333333336</ele><time>2026-04-19T12:25:08.963Z</time></trkpt><trkpt lat="42.16492517962833" lon="11.790839734887069"><ele>42.666666666666664</ele><time>2026-04-19T12:25:09.963Z</time></trkpt><trkpt lat="42.16478034917869" lon="11.790705689189517"><ele>41.0</ele><time>2026-04-19T12:25:10.963Z</time></trkpt><trkpt lat="42.16466177752078" lon="11.790553738426347"><ele>40.75</ele><time>2026-04-19T12:25:11.963Z</time></trkpt><trkpt lat="42.16453353962022" lon="11.790431512131162"><ele>40.5</ele><time>2026-04-19T12:25:12.963Z</time></trkpt><trkpt lat="42.1644378656065" lon="11.790277923686833"><ele>40.25</ele><time>2026-04-19T12:25:13.963Z</time></trkpt><trkpt lat="42.16436342629745" lon="11.79013066956532"><ele>40.0</ele><time>2026-04-19T12:25:14.963Z</time></trkpt><trkpt lat="42.16431052006218" lon="11.789994926097295"><ele>39.6</ele><time>2026-04-19T12:25:15.963Z</time></trkpt><trkpt lat="42.16428713743701" lon="11.789880212886327"><ele>39.2</ele><time>2026-04-19T12:25:16.963Z</time></trkpt><trkpt lat="42.16429445847276" lon="11.789765276698619"><ele>38.8</ele><time>2026-04-19T12:25:17.962Z</time></trkpt><trkpt lat="42.164335216751255" lon="11.78964552379406"><ele>38.4</ele><time>2026-04-19T12:25:18.962Z</time></trkpt><trkpt lat="42.16439304090285" lon="11.789510046477385"><ele>38.0</ele><time>2026-04-19T12:25:19.963Z</time></trkpt><trkpt lat="42.164447011244675" lon="11.789344564678952"><ele>37.25</ele><time>2026-04-19T12:25:20.963Z</time></trkpt><trkpt lat="42.16447001322848" lon="11.789145737764283"><ele>36.5</ele><time>2026-04-19T12:25:21.963Z</time></trkpt><trkpt lat="42.16446275464902" lon="11.788945326854556"><ele>35.75</ele><time>2026-04-19T12:25:22.963Z</time></trkpt><trkpt lat="42.16442897148738" lon="11.788769107705313"><ele>35.0</ele><time>2026-04-19T12:25:23.963Z</time></trkpt><trkpt lat="42.16437623377137" lon="11.78860010360912"><ele>35.0</ele><time>2026-04-19T12:25:24.963Z</time></trkpt><trkpt lat="42.16426194721789" lon="11.788457266867796"><ele>35.0</ele><time>2026-04-19T12:25:25.963Z</time></trkpt><trkpt lat="42.164091195657335" lon="11.788382009058862"><ele>35.0</ele><time>2026-04-19T12:25:26.963Z</time></trkpt><trkpt lat="42.16393548192995" lon="11.788345781519961"><ele>35.0</ele><time>2026-04-19T12:25:27.963Z</time></trkpt><trkpt lat="42.16377825287027" lon="11.788346387483996"><ele>35.0</ele><time>2026-04-19T12:25:28.963Z</time></trkpt><trkpt lat="42.16364475646543" lon="11.788333023073196"><ele>35.0</ele><time>2026-04-19T12:25:29.963Z</time></trkpt><trkpt lat="42.163529549377145" lon="11.788256308834438"><ele>35.0</ele><time>2026-04-19T12:25:30.963Z</time></trkpt><trkpt lat="42.163433923569876" lon="11.788115554822879"><ele>35.0</ele><time>2026-04-19T12:25:31.963Z</time></trkpt><trkpt lat="42.163304413180065" lon="11.788001115885397"><ele>35.0</ele><time>2026-04-19T12:25:32.963Z</time></trkpt><trkpt lat="42.16315025090247" lon="11.787898668067038"><ele>35.0</ele><time>2026-04-19T12:25:33.963Z</time></trkpt><trkpt lat="42.16298474668465" lon="11.787840702921534"><ele>35.33333333333333</ele><time>2026-04-19T12:25:34.963Z</time></trkpt><trkpt lat="42.162813422499596" lon="11.787837412510923"><ele>35.666666666666664</ele><time>2026-04-19T12:25:35.963Z</time></trkpt><trkpt lat="42.16264322563724" lon="11.787880287851294"><ele>36.0</ele><time>2026-04-19T12:25:36.963Z</time></trkpt><trkpt lat="42.162469702583124" lon="11.787959166565674"><ele>36.0</ele><time>2026-04-19T12:25:37.963Z</time></trkpt><trkpt lat="42.16229503786949" lon="11.788068943723719"><ele>36.0</ele><time>2026-04-19T12:25:38.963Z</time></trkpt><trkpt lat="42.1621186028671" lon="11.788181870019782"><ele>36.0</ele><time>2026-04-19T12:25:39.963Z</time></trkpt><trkpt lat="42.16194046981007" lon="11.788303945705321"><ele>36.0</ele><time>2026-04-19T12:25:40.963Z</time></trkpt><trkpt lat="42.16177258506921" lon="11.788407498807373"><ele>36.0</ele><time>2026-04-19T12:25:41.963Z</time></trkpt><trkpt lat="42.1615954685044" lon="11.788484188688699"><ele>36.0</ele><time>2026-04-19T12:25:42.963Z</time></trkpt><trkpt lat="42.16140714345244" lon="11.788531580091817"><ele>34.666666666666664</ele><time>2026-04-19T12:25:43.963Z</time></trkpt><trkpt lat="42.161215536913886" lon="11.788554119999146"><ele>33.33333333333333</ele><time>2026-04-19T12:25:44.964Z</time></trkpt><trkpt lat="42.16102598677335" lon="11.788569048105149"><ele>32.0</ele><time>2026-04-19T12:25:45.964Z</time></trkpt><trkpt lat="42.1608457067074" lon="11.788596672293046"><ele>30.0</ele><time>2026-04-19T12:25:46.964Z</time></trkpt><trkpt lat="42.16066867232946" lon="11.7886243423802"><ele>28.0</ele><time>2026-04-19T12:25:47.964Z</time></trkpt><trkpt lat="42.16049067065887" lon="11.7886509046307"><ele>26.0</ele><time>2026-04-19T12:25:48.964Z</time></trkpt><trkpt lat="42.160314448893416" lon="11.788674125198803"><ele>26.0</ele><time>2026-04-19T12:25:49.964Z</time></trkpt><trkpt lat="42.160138169402835" lon="11.788698354166142"><ele>26.0</ele><time>2026-04-19T12:25:50.964Z</time></trkpt><trkpt lat="42.15996234870185" lon="11.788732318383799"><ele>26.0</ele><time>2026-04-19T12:25:51.964Z</time></trkpt><trkpt lat="42.159788948812356" lon="11.788768787621967"><ele>26.333333333333332</ele><time>2026-04-19T12:25:52.964Z</time></trkpt><trkpt lat="42.15961355325366" lon="11.788799569476462"><ele>26.666666666666664</ele><time>2026-04-19T12:25:53.964Z</time></trkpt><trkpt lat="42.159434937402516" lon="11.788836179049428"><ele>27.0</ele><time>2026-04-19T12:25:54.964Z</time></trkpt><trkpt lat="42.15925511079566" lon="11.788877945612976"><ele>27.0</ele><time>2026-04-19T12:25:55.964Z</time></trkpt><trkpt lat="42.15907302265899" lon="11.788923464153255"><ele>27.0</ele><time>2026-04-19T12:25:56.964Z</time></trkpt><trkpt lat="42.158889632583694" lon="11.788972303770121"><ele>27.0</ele><time>2026-04-19T12:25:57.964Z</time></trkpt><trkpt lat="42.15870540807849" lon="11.789015903532166"><ele>29.333333333333336</ele><time>2026-04-19T12:25:58.964Z</time></trkpt><trkpt lat="42.158519674939626" lon="11.78906921162468"><ele>31.666666666666668</ele><time>2026-04-19T12:25:59.964Z</time></trkpt><trkpt lat="42.158331248195516" lon="11.789126550945399"><ele>34.0</ele><time>2026-04-19T12:26:00.964Z</time></trkpt><trkpt lat="42.15814279254951" lon="11.789182678262131"><ele>34.66666666666667</ele><time>2026-04-19T12:26:01.964Z</time></trkpt><trkpt lat="42.157956918278984" lon="11.789247544984347"><ele>35.333333333333336</ele><time>2026-04-19T12:26:02.964Z</time></trkpt><trkpt lat="42.157768178022444" lon="11.789316378340281"><ele>36.0</ele><time>2026-04-19T12:26:03.964Z</time></trkpt><trkpt lat="42.15757972039266" lon="11.789385109451175"><ele>36.0</ele><time>2026-04-19T12:26:04.964Z</time></trkpt><trkpt lat="42.157389957989274" lon="11.789452826480126"><ele>36.0</ele><time>2026-04-19T12:26:05.964Z</time></trkpt><trkpt lat="42.15720389662834" lon="11.78952674878082"><ele>36.0</ele><time>2026-04-19T12:26:06.964Z</time></trkpt><trkpt lat="42.157020306387615" lon="11.789600133737359"><ele>37.333333333333336</ele><time>2026-04-19T12:26:07.964Z</time></trkpt><trkpt lat="42.156834195612554" lon="11.789675261263557"><ele>38.66666666666667</ele><time>2026-04-19T12:26:08.964Z</time></trkpt><trkpt lat="42.156650758040364" lon="11.7897483649488"><ele>40.0</ele><time>2026-04-19T12:26:09.964Z</time></trkpt><trkpt lat="42.1564674834026" lon="11.789831713497472"><ele>41.0</ele><time>2026-04-19T12:26:10.964Z</time></trkpt><trkpt lat="42.15627850939045" lon="11.789925771307857"><ele>42.0</ele><time>2026-04-19T12:26:11.964Z</time></trkpt><trkpt lat="42.156091839542455" lon="11.790024610137692"><ele>43.0</ele><time>2026-04-19T12:26:12.964Z</time></trkpt><trkpt lat="42.15590482192094" lon="11.790122435799992"><ele>43.66666666666667</ele><time>2026-04-19T12:26:13.964Z</time></trkpt><trkpt lat="42.155713918334875" lon="11.79021790042779"><ele>44.333333333333336</ele><time>2026-04-19T12:26:14.964Z</time></trkpt><trkpt lat="42.155523247805675" lon="11.790303877573042"><ele>45.0</ele><time>2026-04-19T12:26:15.964Z</time></trkpt><trkpt lat="42.15533531428795" lon="11.790387309234548"><ele>45.0</ele><time>2026-04-19T12:26:16.964Z</time></trkpt><trkpt lat="42.15514952163166" lon="11.790472801032555"><ele>45.0</ele><time>2026-04-19T12:26:17.964Z</time></trkpt><trkpt lat="42.15496772487628" lon="11.790564306949568"><ele>45.0</ele><time>2026-04-19T12:26:18.964Z</time></trkpt><trkpt lat="42.15478793880935" lon="11.79066234304591"><ele>45.333333333333336</ele><time>2026-04-19T12:26:19.964Z</time></trkpt><trkpt lat="42.154606401836645" lon="11.790757649880122"><ele>45.66666666666667</ele><time>2026-04-19T12:26:20.964Z</time></trkpt><trkpt lat="42.154424810428765" lon="11.7908444357261"><ele>46.0</ele><time>2026-04-19T12:26:21.964Z</time></trkpt><trkpt lat="42.1542331987478" lon="11.790937839279586"><ele>45.66666666666667</ele><time>2026-04-19T12:26:22.964Z</time></trkpt><trkpt lat="42.15404256894569" lon="11.791029272179369"><ele>45.333333333333336</ele><time>2026-04-19T12:26:23.964Z</time></trkpt><trkpt lat="42.153851511543174" lon="11.791130374342343"><ele>45.0</ele><time>2026-04-19T12:26:24.964Z</time></trkpt><trkpt lat="42.15365873114318" lon="11.79122790703499"><ele>45.0</ele><time>2026-04-19T12:26:25.964Z</time></trkpt><trkpt lat="42.153467553943294" lon="11.791320401314804"><ele>45.0</ele><time>2026-04-19T12:26:26.964Z</time></trkpt><trkpt lat="42.1532780224341" lon="11.791404636361545"><ele>45.0</ele><time>2026-04-19T12:26:27.964Z</time></trkpt><trkpt lat="42.15308296739782" lon="11.791478933949362"><ele>45.0</ele><time>2026-04-19T12:26:28.964Z</time></trkpt><trkpt lat="42.15288431793522" lon="11.791540411183068"><ele>45.0</ele><time>2026-04-19T12:26:29.964Z</time></trkpt><trkpt lat="42.15268484271067" lon="11.791589343990363"><ele>45.0</ele><time>2026-04-19T12:26:30.964Z</time></trkpt><trkpt lat="42.15248589609724" lon="11.79163595978104"><ele>43.0</ele><time>2026-04-19T12:26:31.965Z</time></trkpt><trkpt lat="42.15228324138762" lon="11.791672148640098"><ele>41.0</ele><time>2026-04-19T12:26:32.965Z</time></trkpt><trkpt lat="42.15208057784915" lon="11.791697662271195"><ele>39.0</ele><time>2026-04-19T12:26:33.965Z</time></trkpt><trkpt lat="42.151874491483724" lon="11.791718616648728"><ele>39.0</ele><time>2026-04-19T12:26:34.965Z</time></trkpt><trkpt lat="42.1516699473462" lon="11.791726365935023"><ele>39.0</ele><time>2026-04-19T12:26:35.965Z</time></trkpt><trkpt lat="42.15146116167671" lon="11.791727802744779"><ele>39.0</ele><time>2026-04-19T12:26:36.965Z</time></trkpt><trkpt lat="42.1512512036436" lon="11.791723176271235"><ele>38.666666666666664</ele><time>2026-04-19T12:26:37.965Z</time></trkpt><trkpt lat="42.15103975001624" lon="11.791718980423626"><ele>38.33333333333333</ele><time>2026-04-19T12:26:38.965Z</time></trkpt><trkpt lat="42.150824683245645" lon="11.791715295383506"><ele>38.0</ele><time>2026-04-19T12:26:39.965Z</time></trkpt><trkpt lat="42.15060311517474" lon="11.791710904478949"><ele>34.33333333333333</ele><time>2026-04-19T12:26:40.965Z</time></trkpt><trkpt lat="42.15038935927642" lon="11.791712022378793"><ele>30.666666666666664</ele><time>2026-04-19T12:26:41.965Z</time></trkpt><trkpt lat="42.15016949564228" lon="11.791707690477574"><ele>27.0</ele><time>2026-04-19T12:26:42.965Z</time></trkpt><trkpt lat="42.149950296171774" lon="11.791703800474828"><ele>27.333333333333336</ele><time>2026-04-19T12:26:43.965Z</time></trkpt><trkpt lat="42.14973251510996" lon="11.791700452631803"><ele>27.666666666666668</ele><time>2026-04-19T12:26:44.965Z</time></trkpt><trkpt lat="42.149518632352034" lon="11.791695985046706"><ele>28.0</ele><time>2026-04-19T12:26:45.965Z</time></trkpt><trkpt lat="42.14930577816213" lon="11.791689861482897"><ele>28.0</ele><time>2026-04-19T12:26:46.965Z</time></trkpt><trkpt lat="42.149094727900334" lon="11.791683152110163"><ele>28.0</ele><time>2026-04-19T12:26:47.965Z</time></trkpt><trkpt lat="42.14888658077315" lon="11.791674544463362"><ele>28.0</ele><time>2026-04-19T12:26:48.965Z</time></trkpt><trkpt lat="42.14868174149301" lon="11.791665307458816"><ele>31.0</ele><time>2026-04-19T12:26:49.965Z</time></trkpt><trkpt lat="42.14847926296016" lon="11.791659157783323"><ele>34.0</ele><time>2026-04-19T12:26:50.965Z</time></trkpt><trkpt lat="42.148274888292995" lon="11.791651629218105"><ele>37.0</ele><time>2026-04-19T12:26:51.965Z</time></trkpt><trkpt lat="42.148073976808874" lon="11.791650058930818"><ele>40.0</ele><time>2026-04-19T12:26:52.965Z</time></trkpt><trkpt lat="42.14787215193092" lon="11.79164807269692"><ele>43.0</ele><time>2026-04-19T12:26:53.965Z</time></trkpt><trkpt lat="42.14766671383093" lon="11.791642446950627"><ele>46.0</ele><time>2026-04-19T12:26:54.965Z</time></trkpt><trkpt lat="42.14745954083337" lon="11.791633541856884"><ele>46.66666666666667</ele><time>2026-04-19T12:26:55.965Z</time></trkpt><trkpt lat="42.14724888115032" lon="11.791628458304398"><ele>47.333333333333336</ele><time>2026-04-19T12:26:56.965Z</time></trkpt><trkpt lat="42.14704242264382" lon="11.79162749099396"><ele>48.0</ele><time>2026-04-19T12:26:57.965Z</time></trkpt><trkpt lat="42.146843129625914" lon="11.7916406813431"><ele>48.0</ele><time>2026-04-19T12:26:58.965Z</time></trkpt><trkpt lat="42.14664774977214" lon="11.791665455436497"><ele>48.0</ele><time>2026-04-19T12:26:59.965Z</time></trkpt><trkpt lat="42.14645152515338" lon="11.791698698870592"><ele>48.0</ele><time>2026-04-19T12:27:00.965Z</time></trkpt><trkpt lat="42.14625884500438" lon="11.791731497793341"><ele>47.333333333333336</ele><time>2026-04-19T12:27:01.965Z</time></trkpt><trkpt lat="42.146067157173235" lon="11.791767825859747"><ele>46.66666666666667</ele><time>2026-04-19T12:27:02.965Z</time></trkpt><trkpt lat="42.14587757702065" lon="11.791809986416796"><ele>46.0</ele><time>2026-04-19T12:27:03.965Z</time></trkpt><trkpt lat="42.14568612189765" lon="11.791865368828288"><ele>48.66666666666667</ele><time>2026-04-19T12:27:04.965Z</time></trkpt><trkpt lat="42.14549555877664" lon="11.791924725011228"><ele>51.333333333333336</ele><time>2026-04-19T12:27:05.965Z</time></trkpt><trkpt lat="42.14531131356886" lon="11.79199782679176"><ele>54.0</ele><time>2026-04-19T12:27:06.965Z</time></trkpt><trkpt lat="42.14513086410567" lon="11.792076994340896"><ele>54.0</ele><time>2026-04-19T12:27:07.965Z</time></trkpt><trkpt lat="42.14494704561487" lon="11.792150423249218"><ele>54.0</ele><time>2026-04-19T12:27:08.965Z</time></trkpt><trkpt lat="42.144770475965316" lon="11.79220877329316"><ele>54.0</ele><time>2026-04-19T12:27:09.965Z</time></trkpt><trkpt lat="42.144589935272684" lon="11.792273744498083"><ele>53.66666666666667</ele><time>2026-04-19T12:27:10.965Z</time></trkpt><trkpt lat="42.144407724522985" lon="11.792338812000148"><ele>53.333333333333336</ele><time>2026-04-19T12:27:11.965Z</time></trkpt><trkpt lat="42.14422033117898" lon="11.792402081499162"><ele>53.0</ele><time>2026-04-19T12:27:12.965Z</time></trkpt><trkpt lat="42.14402913079492" lon="11.792464236716096"><ele>53.66666666666667</ele><time>2026-04-19T12:27:13.961Z</time></trkpt><trkpt lat="42.143831153399674" lon="11.792533421925896"><ele>54.33333333333333</ele><time>2026-04-19T12:27:14.961Z</time></trkpt><trkpt lat="42.1436363567973" lon="11.792604374409274"><ele>55.0</ele><time>2026-04-19T12:27:15.961Z</time></trkpt><trkpt lat="42.14344196779708" lon="11.792676691102267"><ele>56.0</ele><time>2026-04-19T12:27:16.96Z</time></trkpt><trkpt lat="42.14325232700778" lon="11.792752875129484"><ele>57.0</ele><time>2026-04-19T12:27:17.961Z</time></trkpt><trkpt lat="42.14306365622639" lon="11.792827965293451"><ele>58.0</ele><time>2026-04-19T12:27:18.961Z</time></trkpt><trkpt lat="42.14287311872999" lon="11.792902028264159"><ele>59.33333333333333</ele><time>2026-04-19T12:27:19.96Z</time></trkpt><trkpt lat="42.14267899477444" lon="11.792977328055546"><ele>60.66666666666667</ele><time>2026-04-19T12:27:20.961Z</time></trkpt><trkpt lat="42.14248563214591" lon="11.793051124167395"><ele>62.0</ele><time>2026-04-19T12:27:21.961Z</time></trkpt><trkpt lat="42.14229015612687" lon="11.793128029407313"><ele>62.66666666666667</ele><time>2026-04-19T12:27:22.961Z</time></trkpt><trkpt lat="42.14209981509481" lon="11.793198249833411"><ele>63.33333333333333</ele><time>2026-04-19T12:27:23.961Z</time></trkpt><trkpt lat="42.141903798699516" lon="11.79327720900122"><ele>64.0</ele><time>2026-04-19T12:27:24.961Z</time></trkpt><trkpt lat="42.14170713424927" lon="11.793351520029173"><ele>64.33333333333333</ele><time>2026-04-19T12:27:25.961Z</time></trkpt><trkpt lat="42.141510904791886" lon="11.793422504486431"><ele>64.66666666666667</ele><time>2026-04-19T12:27:26.961Z</time></trkpt><trkpt lat="42.14131549893644" lon="11.793495971352149"><ele>65.0</ele><time>2026-04-19T12:27:27.961Z</time></trkpt><trkpt lat="42.14112190681487" lon="11.793571429975614"><ele>66.0</ele><time>2026-04-19T12:27:28.961Z</time></trkpt><trkpt lat="42.140925064556896" lon="11.79364957704379"><ele>67.0</ele><time>2026-04-19T12:27:29.961Z</time></trkpt><trkpt lat="42.14073090242486" lon="11.793723251624437"><ele>68.0</ele><time>2026-04-19T12:27:30.961Z</time></trkpt><trkpt lat="42.14053252949842" lon="11.793799690415645"><ele>68.66666666666667</ele><time>2026-04-19T12:27:31.961Z</time></trkpt><trkpt lat="42.140335821476455" lon="11.793876285957161"><ele>69.33333333333333</ele><time>2026-04-19T12:27:32.961Z</time></trkpt><trkpt lat="42.14013993594146" lon="11.793952121086614"><ele>70.0</ele><time>2026-04-19T12:27:33.961Z</time></trkpt><trkpt lat="42.139947526015796" lon="11.794025473828624"><ele>71.0</ele><time>2026-04-19T12:27:34.961Z</time></trkpt><trkpt lat="42.13975447723972" lon="11.794100133950133"><ele>72.0</ele><time>2026-04-19T12:27:35.961Z</time></trkpt><trkpt lat="42.139567308712756" lon="11.794173178056761"><ele>73.0</ele><time>2026-04-19T12:27:36.961Z</time></trkpt><trkpt lat="42.13938007799446" lon="11.794247675883211"><ele>73.0</ele><time>2026-04-19T12:27:37.961Z</time></trkpt><trkpt lat="42.139196200481486" lon="11.794318287556536"><ele>73.0</ele><time>2026-04-19T12:27:38.961Z</time></trkpt><trkpt lat="42.13901760518369" lon="11.794390789064353"><ele>73.0</ele><time>2026-04-19T12:27:39.961Z</time></trkpt><trkpt lat="42.13883957582987" lon="11.794460176775953"><ele>76.33333333333333</ele><time>2026-04-19T12:27:40.961Z</time></trkpt><trkpt lat="42.138664206926265" lon="11.794527458930613"><ele>79.66666666666667</ele><time>2026-04-19T12:27:41.961Z</time></trkpt><trkpt lat="42.13848410624411" lon="11.794591529359167"><ele>83.0</ele><time>2026-04-19T12:27:42.961Z</time></trkpt><trkpt lat="42.13829690528797" lon="11.794651548328925"><ele>84.33333333333334</ele><time>2026-04-19T12:27:43.961Z</time></trkpt><trkpt lat="42.13810650276756" lon="11.794714032765992"><ele>85.66666666666667</ele><time>2026-04-19T12:27:44.961Z</time></trkpt><trkpt lat="42.13791272237748" lon="11.79477381003904"><ele>87.0</ele><time>2026-04-19T12:27:45.961Z</time></trkpt><trkpt lat="42.13771441729162" lon="11.794827905720283"><ele>87.0</ele><time>2026-04-19T12:27:46.961Z</time></trkpt><trkpt lat="42.137513812418284" lon="11.794875833915489"><ele>87.0</ele><time>2026-04-19T12:27:47.961Z</time></trkpt><trkpt lat="42.13731503870248" lon="11.794917957428591"><ele>87.0</ele><time>2026-04-19T12:27:48.961Z</time></trkpt><trkpt lat="42.13711523067303" lon="11.794949727176565"><ele>88.33333333333333</ele><time>2026-04-19T12:27:49.961Z</time></trkpt><trkpt lat="42.13691782056792" lon="11.794971193248402"><ele>89.66666666666666</ele><time>2026-04-19T12:27:50.961Z</time></trkpt><trkpt lat="42.13672018530646" lon="11.794977669502119"><ele>91.0</ele><time>2026-04-19T12:27:51.961Z</time></trkpt><trkpt lat="42.13652086717917" lon="11.794973179587414"><ele>91.66666666666666</ele><time>2026-04-19T12:27:52.961Z</time></trkpt><trkpt lat="42.13632158682103" lon="11.79495574605573"><ele>92.33333333333333</ele><time>2026-04-19T12:27:53.961Z</time></trkpt><trkpt lat="42.13611935556036" lon="11.794929339558951"><ele>93.0</ele><time>2026-04-19T12:27:54.961Z</time></trkpt><trkpt lat="42.135922382500446" lon="11.794897806375262"><ele>93.0</ele><time>2026-04-19T12:27:55.961Z</time></trkpt><trkpt lat="42.13572428258618" lon="11.794856447578356"><ele>93.0</ele><time>2026-04-19T12:27:56.961Z</time></trkpt><trkpt lat="42.13552807338843" lon="11.79481162308357"><ele>93.0</ele><time>2026-04-19T12:27:57.961Z</time></trkpt><trkpt lat="42.13533354313474" lon="11.794758586154023"><ele>93.33333333333333</ele><time>2026-04-19T12:27:58.961Z</time></trkpt><trkpt lat="42.13514066514348" lon="11.794698777661745"><ele>93.66666666666666</ele><time>2026-04-19T12:27:59.961Z</time></trkpt><trkpt lat="42.13494471494499" lon="11.794634735325307"><ele>94.0</ele><time>2026-04-19T12:28:00.961Z</time></trkpt><trkpt lat="42.13475180767436" lon="11.79456448560845"><ele>94.66666666666666</ele><time>2026-04-19T12:28:01.961Z</time></trkpt><trkpt lat="42.13455694859629" lon="11.794491304141568"><ele>95.33333333333333</ele><time>2026-04-19T12:28:02.961Z</time></trkpt><trkpt lat="42.13436169015805" lon="11.79441833226981"><ele>96.0</ele><time>2026-04-19T12:28:03.961Z</time></trkpt><trkpt lat="42.13416221903067" lon="11.794344987941585"><ele>95.0</ele><time>2026-04-19T12:28:04.961Z</time></trkpt><trkpt lat="42.13396401635721" lon="11.794272296417525"><ele>94.0</ele><time>2026-04-19T12:28:05.961Z</time></trkpt><trkpt lat="42.13376390824521" lon="11.794201988183872"><ele>93.0</ele><time>2026-04-19T12:28:06.961Z</time></trkpt><trkpt lat="42.133563390048316" lon="11.794130993704897"><ele>93.0</ele><time>2026-04-19T12:28:07.961Z</time></trkpt><trkpt lat="42.13336523086943" lon="11.794064279842626"><ele>93.0</ele><time>2026-04-19T12:28:08.961Z</time></trkpt><trkpt lat="42.133168829501486" lon="11.793994316981236"><ele>93.0</ele><time>2026-04-19T12:28:09.961Z</time></trkpt><trkpt lat="42.13298521725406" lon="11.793930051111786"><ele>92.33333333333333</ele><time>2026-04-19T12:28:10.962Z</time></trkpt><trkpt lat="42.132807960881166" lon="11.793864918997558"><ele>91.66666666666666</ele><time>2026-04-19T12:28:11.962Z</time></trkpt><trkpt lat="42.13262518598452" lon="11.793792503591146"><ele>91.0</ele><time>2026-04-19T12:28:12.962Z</time></trkpt><trkpt lat="42.13243561940601" lon="11.793720093598367"><ele>91.0</ele><time>2026-04-19T12:28:13.962Z</time></trkpt><trkpt lat="42.1322411343992" lon="11.793646693540408"><ele>91.0</ele><time>2026-04-19T12:28:14.962Z</time></trkpt><trkpt lat="42.13204450620352" lon="11.793576245059977"><ele>91.0</ele><time>2026-04-19T12:28:15.962Z</time></trkpt><trkpt lat="42.131845287269726" lon="11.793506369196988"><ele>89.66666666666666</ele><time>2026-04-19T12:28:16.962Z</time></trkpt><trkpt lat="42.13164604846754" lon="11.793435807334568"><ele>88.33333333333333</ele><time>2026-04-19T12:28:17.962Z</time></trkpt><trkpt lat="42.13145838776005" lon="11.793371925540708"><ele>87.0</ele><time>2026-04-19T12:28:18.962Z</time></trkpt><trkpt lat="42.13128194587988" lon="11.793306393394055"><ele>85.66666666666667</ele><time>2026-04-19T12:28:19.962Z</time></trkpt><trkpt lat="42.131112292095736" lon="11.79323257642815"><ele>84.33333333333334</ele><time>2026-04-19T12:28:20.962Z</time></trkpt><trkpt lat="42.13094157319923" lon="11.793152958864662"><ele>83.0</ele><time>2026-04-19T12:28:21.962Z</time></trkpt><trkpt lat="42.130774661900546" lon="11.793071183529214"><ele>82.33333333333334</ele><time>2026-04-19T12:28:22.962Z</time></trkpt><trkpt lat="42.13061644113397" lon="11.792987711587013"><ele>81.66666666666667</ele><time>2026-04-19T12:28:23.962Z</time></trkpt><trkpt lat="42.130465829847104" lon="11.792902860585627"><ele>81.0</ele><time>2026-04-19T12:28:24.962Z</time></trkpt><trkpt lat="42.13031589281572" lon="11.792810340352025"><ele>81.0</ele><time>2026-04-19T12:28:25.962Z</time></trkpt><trkpt lat="42.130165856047846" lon="11.792712057440164"><ele>81.0</ele><time>2026-04-19T12:28:26.962Z</time></trkpt><trkpt lat="42.13003329926531" lon="11.792579120239093"><ele>81.0</ele><time>2026-04-19T12:28:27.962Z</time></trkpt><trkpt lat="42.129902003936415" lon="11.792439568990332"><ele>77.33333333333333</ele><time>2026-04-19T12:28:28.962Z</time></trkpt><trkpt lat="42.12979299449209" lon="11.792286474467481"><ele>73.66666666666666</ele><time>2026-04-19T12:28:29.962Z</time></trkpt><trkpt lat="42.1296989040338" lon="11.792120407340992"><ele>70.0</ele><time>2026-04-19T12:28:30.962Z</time></trkpt><trkpt lat="42.12962576050254" lon="11.791939524214428"><ele>70.33333333333333</ele><time>2026-04-19T12:28:31.962Z</time></trkpt><trkpt lat="42.12955788981918" lon="11.791743158020997"><ele>70.66666666666667</ele><time>2026-04-19T12:28:32.962Z</time></trkpt><trkpt lat="42.12951211801896" lon="11.791528640099179"><ele>71.0</ele><time>2026-04-19T12:28:33.962Z</time></trkpt><trkpt lat="42.12946923948136" lon="11.79129508507436"><ele>71.0</ele><time>2026-04-19T12:28:34.962Z</time></trkpt><trkpt lat="42.12945772922124" lon="11.791053060001394"><ele>71.0</ele><time>2026-04-19T12:28:35.962Z</time></trkpt><trkpt lat="42.12944663143589" lon="11.790796994173833"><ele>71.0</ele><time>2026-04-19T12:28:36.962Z</time></trkpt><trkpt lat="42.12942458257065" lon="11.790536224785026"><ele>70.33333333333334</ele><time>2026-04-19T12:28:37.962Z</time></trkpt><trkpt lat="42.129412912072546" lon="11.790280539926497"><ele>69.66666666666667</ele><time>2026-04-19T12:28:38.962Z</time></trkpt><trkpt lat="42.12940837398115" lon="11.790060026778734"><ele>69.0</ele><time>2026-04-19T12:28:39.962Z</time></trkpt><trkpt lat="42.12944261361293" lon="11.789876604511392"><ele>69.0</ele><time>2026-04-19T12:28:40.962Z</time></trkpt><trkpt lat="42.12945175970127" lon="11.78971700899837"><ele>69.0</ele><time>2026-04-19T12:28:41.962Z</time></trkpt><trkpt lat="42.129457655540484" lon="11.789573289287599"><ele>69.0</ele><time>2026-04-19T12:28:42.962Z</time></trkpt><trkpt lat="42.12952443396453" lon="11.789439368867153"><ele>69.0</ele><time>2026-04-19T12:28:43.962Z</time></trkpt><trkpt lat="42.12962284455709" lon="11.789313259303459"><ele>68.0</ele><time>2026-04-19T12:28:44.962Z</time></trkpt><trkpt lat="42.12974291578275" lon="11.789193992940204"><ele>67.0</ele><time>2026-04-19T12:28:45.962Z</time></trkpt><trkpt lat="42.12986588510534" lon="11.789087752001882"><ele>66.0</ele><time>2026-04-19T12:28:46.962Z</time></trkpt><trkpt lat="42.12996548620443" lon="11.788966629661203"><ele>65.0</ele><time>2026-04-19T12:28:47.962Z</time></trkpt><trkpt lat="42.13003280960373" lon="11.788822412634442"><ele>65.0</ele><time>2026-04-19T12:28:48.962Z</time></trkpt><trkpt lat="42.13009603147267" lon="11.78867603686023"><ele>65.0</ele><time>2026-04-19T12:28:49.962Z</time></trkpt><trkpt lat="42.13016083104539" lon="11.788529128464203"><ele>65.0</ele><time>2026-04-19T12:28:50.962Z</time></trkpt><trkpt lat="42.13021991069539" lon="11.788395187968005"><ele>65.0</ele><time>2026-04-19T12:28:51.962Z</time></trkpt><trkpt lat="42.13026862809388" lon="11.788250535002735"><ele>64.6</ele><time>2026-04-19T12:28:52.962Z</time></trkpt><trkpt lat="42.13030226328702" lon="11.788110251048389"><ele>64.2</ele><time>2026-04-19T12:28:53.962Z</time></trkpt><trkpt lat="42.130282419203176" lon="11.787962528275395"><ele>63.8</ele><time>2026-04-19T12:28:54.962Z</time></trkpt><trkpt lat="42.13024211855701" lon="11.787846337535408"><ele>63.4</ele><time>2026-04-19T12:28:55.962Z</time></trkpt><trkpt lat="42.13019314498776" lon="11.787736456059688"><ele>63.0</ele><time>2026-04-19T12:28:56.962Z</time></trkpt><trkpt lat="42.130120873273384" lon="11.787649025795536"><ele>63.0</ele><time>2026-04-19T12:28:57.963Z</time></trkpt><trkpt lat="42.13003447978998" lon="11.787557362280616"><ele>63.0</ele><time>2026-04-19T12:28:58.963Z</time></trkpt><trkpt lat="42.129952719589596" lon="11.787446841410306"><ele>63.0</ele><time>2026-04-19T12:28:59.963Z</time></trkpt><trkpt lat="42.12987928687965" lon="11.787317020002352"><ele>63.0</ele><time>2026-04-19T12:29:00.963Z</time></trkpt><trkpt lat="42.12980263353781" lon="11.787156246993606"><ele>63.0</ele><time>2026-04-19T12:29:01.963Z</time></trkpt><trkpt lat="42.12971547408243" lon="11.786983622552432"><ele>63.0</ele><time>2026-04-19T12:29:02.963Z</time></trkpt><trkpt lat="42.12959805972656" lon="11.786836940924577"><ele>63.0</ele><time>2026-04-19T12:29:03.963Z</time></trkpt><trkpt lat="42.12944737105592" lon="11.786756501689139"><ele>62.66666666666667</ele><time>2026-04-19T12:29:04.963Z</time></trkpt><trkpt lat="42.12928790842722" lon="11.78665281311776"><ele>62.333333333333336</ele><time>2026-04-19T12:29:05.963Z</time></trkpt><trkpt lat="42.129109212609364" lon="11.786581020770383"><ele>62.0</ele><time>2026-04-19T12:29:06.963Z</time></trkpt><trkpt lat="42.128931544241034" lon="11.786516316569774"><ele>62.0</ele><time>2026-04-19T12:29:07.963Z</time></trkpt><trkpt lat="42.128767493014095" lon="11.78644349171688"><ele>62.0</ele><time>2026-04-19T12:29:08.963Z</time></trkpt><trkpt lat="42.128607293272665" lon="11.78636780578871"><ele>62.0</ele><time>2026-04-19T12:29:09.963Z</time></trkpt><trkpt lat="42.128452594436716" lon="11.786297881793717"><ele>62.0</ele><time>2026-04-19T12:29:10.963Z</time></trkpt><trkpt lat="42.128302384165714" lon="11.786213769390292"><ele>62.0</ele><time>2026-04-19T12:29:11.963Z</time></trkpt><trkpt lat="42.12816161815743" lon="11.786087610095805"><ele>62.0</ele><time>2026-04-19T12:29:12.963Z</time></trkpt><trkpt lat="42.12803689139749" lon="11.785955390856488"><ele>61.0</ele><time>2026-04-19T12:29:13.963Z</time></trkpt><trkpt lat="42.127918898196675" lon="11.78581912852322"><ele>60.0</ele><time>2026-04-19T12:29:14.963Z</time></trkpt><trkpt lat="42.12780249939076" lon="11.78568170290957"><ele>59.0</ele><time>2026-04-19T12:29:15.963Z</time></trkpt><trkpt lat="42.127701287688794" lon="11.785555792328543"><ele>58.0</ele><time>2026-04-19T12:29:16.963Z</time></trkpt><trkpt lat="42.12759258943738" lon="11.78542069621594"><ele>56.0</ele><time>2026-04-19T12:29:17.963Z</time></trkpt><trkpt lat="42.12722900213576" lon="11.785758027312877"><ele>54.0</ele><time>2026-04-19T12:29:18.963Z</time></trkpt><trkpt lat="42.12706348177403" lon="11.785784167371126"><ele>54.0</ele><time>2026-04-19T12:29:19.959Z</time></trkpt><trkpt lat="42.12690687725038" lon="11.785798107687077"><ele>54.0</ele><time>2026-04-19T12:29:20.959Z</time></trkpt><trkpt lat="42.126728028396364" lon="11.785852066216748"><ele>54.0</ele><time>2026-04-19T12:29:21.959Z</time></trkpt><trkpt lat="42.126576477956895" lon="11.78568868772478"><ele>53.5</ele><time>2026-04-19T12:29:22.958Z</time></trkpt><trkpt lat="42.1262955584251" lon="11.785612566465117"><ele>53.0</ele><time>2026-04-19T12:29:24.959Z</time></trkpt><trkpt lat="42.12607656674431" lon="11.784530493771964"><ele>51.0</ele><time>2026-04-19T12:29:25.959Z</time></trkpt><trkpt lat="42.125840490859694" lon="11.784371111564967"><ele>49.0</ele><time>2026-04-19T12:29:26.959Z</time></trkpt><trkpt lat="42.1256587612267" lon="11.784197784510864"><ele>46.33333333333333</ele><time>2026-04-19T12:29:27.959Z</time></trkpt><trkpt lat="42.1254912754575" lon="11.78401158147315"><ele>43.666666666666664</ele><time>2026-04-19T12:29:28.959Z</time></trkpt><trkpt lat="42.125345841058234" lon="11.783809871057283"><ele>41.0</ele><time>2026-04-19T12:29:29.959Z</time></trkpt><trkpt lat="42.12521756249678" lon="11.783593970847042"><ele>41.0</ele><time>2026-04-19T12:29:30.959Z</time></trkpt><trkpt lat="42.12509614710618" lon="11.783368095778236"><ele>41.0</ele><time>2026-04-19T12:29:31.958Z</time></trkpt><trkpt lat="42.125025715787466" lon="11.783102770132619"><ele>41.0</ele><time>2026-04-19T12:29:32.958Z</time></trkpt><trkpt lat="42.12494173123789" lon="11.782836317808075"><ele>40.0</ele><time>2026-04-19T12:29:33.958Z</time></trkpt><trkpt lat="42.124894138014895" lon="11.782560509470615"><ele>39.0</ele><time>2026-04-19T12:29:34.958Z</time></trkpt><trkpt lat="42.12486719265892" lon="11.782296660097678"><ele>38.0</ele><time>2026-04-19T12:29:35.958Z</time></trkpt><trkpt lat="42.124856643424536" lon="11.782020821760486"><ele>37.0</ele><time>2026-04-19T12:29:36.958Z</time></trkpt><trkpt lat="42.124847652297355" lon="11.781736820027133"><ele>36.0</ele><time>2026-04-19T12:29:37.958Z</time></trkpt><trkpt lat="42.12483036303157" lon="11.78145072248799"><ele>35.0</ele><time>2026-04-19T12:29:38.958Z</time></trkpt><trkpt lat="42.12481326294579" lon="11.781185785045816"><ele>34.666666666666664</ele><time>2026-04-19T12:29:39.958Z</time></trkpt><trkpt lat="42.1247971659008" lon="11.780931520601909"><ele>34.333333333333336</ele><time>2026-04-19T12:29:40.958Z</time></trkpt><trkpt lat="42.12478297275734" lon="11.780670212926223"><ele>34.0</ele><time>2026-04-19T12:29:41.958Z</time></trkpt><trkpt lat="42.12477110826066" lon="11.78040363645338"><ele>34.0</ele><time>2026-04-19T12:29:42.958Z</time></trkpt><trkpt lat="42.124756202685255" lon="11.780134557075707"><ele>34.0</ele><time>2026-04-19T12:29:43.959Z</time></trkpt><trkpt lat="42.124743779441765" lon="11.779860663533125"><ele>34.0</ele><time>2026-04-19T12:29:44.959Z</time></trkpt><trkpt lat="42.12473171523568" lon="11.779581696381145"><ele>33.333333333333336</ele><time>2026-04-19T12:29:45.959Z</time></trkpt><trkpt lat="42.12471733565991" lon="11.779317932760076"><ele>32.666666666666664</ele><time>2026-04-19T12:29:46.959Z</time></trkpt><trkpt lat="42.12470167371943" lon="11.779072556064348"><ele>32.0</ele><time>2026-04-19T12:29:47.959Z</time></trkpt><trkpt lat="42.12469076641061" lon="11.778853705233061"><ele>32.0</ele><time>2026-04-19T12:29:48.959Z</time></trkpt><trkpt lat="42.12468651030883" lon="11.778667260914874"><ele>32.0</ele><time>2026-04-19T12:29:49.959Z</time></trkpt><trkpt lat="42.12470357037345" lon="11.77849267101956"><ele>32.0</ele><time>2026-04-19T12:29:50.959Z</time></trkpt><trkpt lat="42.1247550019846" lon="11.778327540374192"><ele>32.0</ele><time>2026-04-19T12:29:51.959Z</time></trkpt><trkpt lat="42.12480671438304" lon="11.778179105427979"><ele>32.0</ele><time>2026-04-19T12:29:52.959Z</time></trkpt><trkpt lat="42.12484770576087" lon="11.778046984106247"><ele>32.0</ele><time>2026-04-19T12:29:53.959Z</time></trkpt><trkpt lat="42.12485866624624" lon="11.777905030139763"><ele>32.0</ele><time>2026-04-19T12:29:54.959Z</time></trkpt><trkpt lat="42.12483649638759" lon="11.777780550402113"><ele>32.0</ele><time>2026-04-19T12:29:55.959Z</time></trkpt><trkpt lat="42.12477875015392" lon="11.77766931402179"><ele>32.0</ele><time>2026-04-19T12:29:56.959Z</time></trkpt><trkpt lat="42.12468748858298" lon="11.777589558897064"><ele>32.0</ele><time>2026-04-19T12:29:57.959Z</time></trkpt><trkpt lat="42.12457720867592" lon="11.777563826714411"><ele>32.0</ele><time>2026-04-19T12:29:58.959Z</time></trkpt><trkpt lat="42.12446007678677" lon="11.777598136659869"><ele>32.0</ele><time>2026-04-19T12:29:59.959Z</time></trkpt><trkpt lat="42.12434637084012" lon="11.777719794495518"><ele>32.0</ele><time>2026-04-19T12:30:00.959Z</time></trkpt><trkpt lat="42.124217709978566" lon="11.777828303027373"><ele>32.0</ele><time>2026-04-19T12:30:01.959Z</time></trkpt><trkpt lat="42.124071365803985" lon="11.777915732343118"><ele>32.0</ele><time>2026-04-19T12:30:02.959Z</time></trkpt><trkpt lat="42.12390432634514" lon="11.777959690767743"><ele>32.0</ele><time>2026-04-19T12:30:03.959Z</time></trkpt><trkpt lat="42.12374098075579" lon="11.777965031611092"><ele>31.333333333333332</ele><time>2026-04-19T12:30:04.959Z</time></trkpt><trkpt lat="42.123583968136664" lon="11.777988157925048"><ele>30.666666666666664</ele><time>2026-04-19T12:30:05.959Z</time></trkpt><trkpt lat="42.1234341685854" lon="11.778004240841732"><ele>30.0</ele><time>2026-04-19T12:30:06.959Z</time></trkpt><trkpt lat="42.12328308005883" lon="11.77802004229025"><ele>29.666666666666664</ele><time>2026-04-19T12:30:07.959Z</time></trkpt><trkpt lat="42.123127429689546" lon="11.778036905210866"><ele>29.333333333333332</ele><time>2026-04-19T12:30:08.959Z</time></trkpt><trkpt lat="42.122968377584066" lon="11.778038540781788"><ele>29.0</ele><time>2026-04-19T12:30:09.959Z</time></trkpt><trkpt lat="42.122807264877174" lon="11.778063556873363"><ele>29.0</ele><time>2026-04-19T12:30:10.959Z</time></trkpt><trkpt lat="42.1226266113829" lon="11.778093704640192"><ele>29.0</ele><time>2026-04-19T12:30:11.959Z</time></trkpt><trkpt lat="42.122434702367485" lon="11.778128531544334"><ele>29.0</ele><time>2026-04-19T12:30:12.959Z</time></trkpt><trkpt lat="42.122235471304926" lon="11.778163781051559"><ele>28.0</ele><time>2026-04-19T12:30:13.959Z</time></trkpt><trkpt lat="42.12202545778034" lon="11.778190570609302"><ele>27.0</ele><time>2026-04-19T12:30:14.959Z</time></trkpt><trkpt lat="42.121812809189414" lon="11.778213089723202"><ele>26.0</ele><time>2026-04-19T12:30:15.959Z</time></trkpt><trkpt lat="42.12160371169004" lon="11.778236406068192"><ele>26.333333333333332</ele><time>2026-04-19T12:30:16.959Z</time></trkpt><trkpt lat="42.121409489083184" lon="11.7782605029786"><ele>26.666666666666664</ele><time>2026-04-19T12:30:17.959Z</time></trkpt><trkpt lat="42.1212293612808" lon="11.778281053638022"><ele>27.0</ele><time>2026-04-19T12:30:18.959Z</time></trkpt><trkpt lat="42.12106132193275" lon="11.778300557989233"><ele>27.0</ele><time>2026-04-19T12:30:19.959Z</time></trkpt><trkpt lat="42.120906642844254" lon="11.77831788427025"><ele>27.0</ele><time>2026-04-19T12:30:20.959Z</time></trkpt><trkpt lat="42.12076436890291" lon="11.778329532584712"><ele>27.0</ele><time>2026-04-19T12:30:21.959Z</time></trkpt><trkpt lat="42.12064015641974" lon="11.778330313568338"><ele>27.0</ele><time>2026-04-19T12:30:22.959Z</time></trkpt><trkpt lat="42.12052112672158" lon="11.778296858873855"><ele>26.5</ele><time>2026-04-19T12:30:23.959Z</time></trkpt><trkpt lat="42.12040045293835" lon="11.778234288159625"><ele>26.0</ele><time>2026-04-19T12:30:24.959Z</time></trkpt><trkpt lat="42.120293795504566" lon="11.778127575256116"><ele>25.5</ele><time>2026-04-19T12:30:25.959Z</time></trkpt><trkpt lat="42.12018272111627" lon="11.778077047658423"><ele>25.0</ele><time>2026-04-19T12:30:26.959Z</time></trkpt><trkpt lat="42.12004879109964" lon="11.778092517224001"><ele>25.0</ele><time>2026-04-19T12:30:27.959Z</time></trkpt><trkpt lat="42.119923052222376" lon="11.77820886095575"><ele>25.0</ele><time>2026-04-19T12:30:28.959Z</time></trkpt><trkpt lat="42.11978797023937" lon="11.778299350501365"><ele>25.0</ele><time>2026-04-19T12:30:29.959Z</time></trkpt><trkpt lat="42.11965357259708" lon="11.778374779992237"><ele>25.0</ele><time>2026-04-19T12:30:30.96Z</time></trkpt><trkpt lat="42.11949927700526" lon="11.778436158059806"><ele>24.0</ele><time>2026-04-19T12:30:31.96Z</time></trkpt><trkpt lat="42.119336737212016" lon="11.778475926400079"><ele>23.0</ele><time>2026-04-19T12:30:32.96Z</time></trkpt><trkpt lat="42.11916213186744" lon="11.778502360021312"><ele>22.0</ele><time>2026-04-19T12:30:33.96Z</time></trkpt><trkpt lat="42.118983814195175" lon="11.778526894622356"><ele>22.0</ele><time>2026-04-19T12:30:34.96Z</time></trkpt><trkpt lat="42.11879913806439" lon="11.778549352366934"><ele>22.0</ele><time>2026-04-19T12:30:35.96Z</time></trkpt><trkpt lat="42.11860049962129" lon="11.778575794050465"><ele>22.0</ele><time>2026-04-19T12:30:36.96Z</time></trkpt><trkpt lat="42.11840811607903" lon="11.778594413344132"><ele>21.333333333333332</ele><time>2026-04-19T12:30:37.96Z</time></trkpt><trkpt lat="42.118228202530155" lon="11.778614418757684"><ele>20.666666666666668</ele><time>2026-04-19T12:30:38.96Z</time></trkpt><trkpt lat="42.118062327673904" lon="11.778626295541146"><ele>20.0</ele><time>2026-04-19T12:30:39.96Z</time></trkpt><trkpt lat="42.11790176409516" lon="11.778634436349465"><ele>20.0</ele><time>2026-04-19T12:30:40.96Z</time></trkpt><trkpt lat="42.11773602859154" lon="11.778640684621895"><ele>20.0</ele><time>2026-04-19T12:30:41.96Z</time></trkpt><trkpt lat="42.11756696339486" lon="11.778654095463988"><ele>20.0</ele><time>2026-04-19T12:30:42.96Z</time></trkpt><trkpt lat="42.11738734643172" lon="11.778672917308581"><ele>20.333333333333336</ele><time>2026-04-19T12:30:43.96Z</time></trkpt><trkpt lat="42.11721904139863" lon="11.778694963794054"><ele>20.666666666666668</ele><time>2026-04-19T12:30:44.96Z</time></trkpt><trkpt lat="42.117054208421955" lon="11.778708338606327"><ele>21.0</ele><time>2026-04-19T12:30:45.96Z</time></trkpt><trkpt lat="42.11690707912792" lon="11.778713499232577"><ele>21.0</ele><time>2026-04-19T12:30:46.96Z</time></trkpt><trkpt lat="42.116765610460924" lon="11.778721998761242"><ele>21.0</ele><time>2026-04-19T12:30:47.96Z</time></trkpt><trkpt lat="42.11664083609877" lon="11.778737720200413"><ele>21.0</ele><time>2026-04-19T12:30:48.96Z</time></trkpt><trkpt lat="42.11652722454598" lon="11.778753833147492"><ele>21.0</ele><time>2026-04-19T12:30:49.96Z</time></trkpt><trkpt lat="42.11642194986751" lon="11.77876269763764"><ele>20.5</ele><time>2026-04-19T12:30:50.96Z</time></trkpt><trkpt lat="42.11632193733101" lon="11.778784776083253"><ele>20.0</ele><time>2026-04-19T12:30:51.96Z</time></trkpt><trkpt lat="42.11620920769403" lon="11.778756856070093"><ele>19.5</ele><time>2026-04-19T12:30:52.96Z</time></trkpt><trkpt lat="42.11608347189285" lon="11.778774116881372"><ele>19.0</ele><time>2026-04-19T12:30:53.96Z</time></trkpt><trkpt lat="42.115951285646105" lon="11.778826396397891"><ele>19.0</ele><time>2026-04-19T12:30:54.96Z</time></trkpt><trkpt lat="42.11580448699001" lon="11.778890449427172"><ele>19.0</ele><time>2026-04-19T12:30:55.96Z</time></trkpt><trkpt lat="42.115646126240385" lon="11.778947662250962"><ele>19.0</ele><time>2026-04-19T12:30:56.96Z</time></trkpt><trkpt lat="42.11548270059482" lon="11.779003122100818"><ele>17.0</ele><time>2026-04-19T12:30:57.96Z</time></trkpt><trkpt lat="42.11531373147724" lon="11.779068912525384"><ele>15.0</ele><time>2026-04-19T12:30:58.96Z</time></trkpt><trkpt lat="42.115142925679464" lon="11.779144470881441"><ele>13.0</ele><time>2026-04-19T12:30:59.96Z</time></trkpt><trkpt lat="42.11496379781681" lon="11.779225970756853"><ele>12.333333333333332</ele><time>2026-04-19T12:31:00.96Z</time></trkpt><trkpt lat="42.114783539902355" lon="11.779319409671533"><ele>11.666666666666666</ele><time>2026-04-19T12:31:01.96Z</time></trkpt><trkpt lat="42.11460745557717" lon="11.779418714648557"><ele>11.0</ele><time>2026-04-19T12:31:02.96Z</time></trkpt><trkpt lat="42.11443263029905" lon="11.779530407368473"><ele>11.0</ele><time>2026-04-19T12:31:03.96Z</time></trkpt><trkpt lat="42.11426219535095" lon="11.779649091663861"><ele>11.0</ele><time>2026-04-19T12:31:04.96Z</time></trkpt><trkpt lat="42.114083265364606" lon="11.779776258884233"><ele>11.0</ele><time>2026-04-19T12:31:05.96Z</time></trkpt><trkpt lat="42.11391186444488" lon="11.779914493442115"><ele>10.333333333333332</ele><time>2026-04-19T12:31:06.96Z</time></trkpt><trkpt lat="42.113742532735685" lon="11.780059265464384"><ele>9.666666666666666</ele><time>2026-04-19T12:31:07.96Z</time></trkpt><trkpt lat="42.11357810981512" lon="11.780210910079047"><ele>9.0</ele><time>2026-04-19T12:31:08.96Z</time></trkpt><trkpt lat="42.11341971435271" lon="11.780372408518154"><ele>10.333333333333332</ele><time>2026-04-19T12:31:09.96Z</time></trkpt><trkpt lat="42.11326752385383" lon="11.780543168901618"><ele>11.666666666666666</ele><time>2026-04-19T12:31:10.96Z</time></trkpt><trkpt lat="42.11311623422209" lon="11.780720897536584"><ele>13.0</ele><time>2026-04-19T12:31:11.96Z</time></trkpt><trkpt lat="42.112966335536385" lon="11.78089683285946"><ele>14.666666666666666</ele><time>2026-04-19T12:31:12.96Z</time></trkpt><trkpt lat="42.11281887432181" lon="11.781072583770397"><ele>16.333333333333332</ele><time>2026-04-19T12:31:13.96Z</time></trkpt><trkpt lat="42.1126733251699" lon="11.781248915523365"><ele>18.0</ele><time>2026-04-19T12:31:14.96Z</time></trkpt><trkpt lat="42.1125305189682" lon="11.781426257145409"><ele>18.0</ele><time>2026-04-19T12:31:15.96Z</time></trkpt><trkpt lat="42.112388873444175" lon="11.781607539071127"><ele>18.0</ele><time>2026-04-19T12:31:16.96Z</time></trkpt><trkpt lat="42.11224395744558" lon="11.781794928334142"><ele>18.0</ele><time>2026-04-19T12:31:17.961Z</time></trkpt><trkpt lat="42.112102720616505" lon="11.781981737899605"><ele>18.0</ele><time>2026-04-19T12:31:18.961Z</time></trkpt><trkpt lat="42.11195736026133" lon="11.782174220033228"><ele>18.0</ele><time>2026-04-19T12:31:19.961Z</time></trkpt><trkpt lat="42.111813036933235" lon="11.782360547112214"><ele>18.0</ele><time>2026-04-19T12:31:20.961Z</time></trkpt><trkpt lat="42.11166303784155" lon="11.782546679237619"><ele>18.333333333333332</ele><time>2026-04-19T12:31:21.961Z</time></trkpt><trkpt lat="42.11151674722127" lon="11.782731003707164"><ele>18.666666666666664</ele><time>2026-04-19T12:31:22.961Z</time></trkpt><trkpt lat="42.11136950567644" lon="11.782915487990515"><ele>19.0</ele><time>2026-04-19T12:31:23.961Z</time></trkpt><trkpt lat="42.1112254651254" lon="11.78309696924802"><ele>19.0</ele><time>2026-04-19T12:31:24.961Z</time></trkpt><trkpt lat="42.1110903853527" lon="11.783269479809416"><ele>19.0</ele><time>2026-04-19T12:31:25.956Z</time></trkpt><trkpt lat="42.110976579627284" lon="11.783416812922148"><ele>19.0</ele><time>2026-04-19T12:31:26.956Z</time></trkpt><trkpt lat="42.1108661617354" lon="11.783551886338747"><ele>19.5</ele><time>2026-04-19T12:31:27.956Z</time></trkpt><trkpt lat="42.110777069558864" lon="11.783684854756139"><ele>20.0</ele><time>2026-04-19T12:31:28.956Z</time></trkpt><trkpt lat="42.110675338494595" lon="11.783812289189978"><ele>20.5</ele><time>2026-04-19T12:31:29.956Z</time></trkpt><trkpt lat="42.11057402093893" lon="11.783937231673434"><ele>21.0</ele><time>2026-04-19T12:31:30.956Z</time></trkpt><trkpt lat="42.11038844342611" lon="11.783972967916595"><ele>21.333333333333332</ele><time>2026-04-19T12:31:31.956Z</time></trkpt><trkpt lat="42.11022944321264" lon="11.784072056031182"><ele>21.666666666666664</ele><time>2026-04-19T12:31:32.956Z</time></trkpt><trkpt lat="42.110073906882626" lon="11.784198826280441"><ele>22.0</ele><time>2026-04-19T12:31:33.956Z</time></trkpt><trkpt lat="42.109919690699755" lon="11.78435163959233"><ele>21.0</ele><time>2026-04-19T12:31:34.956Z</time></trkpt><trkpt lat="42.10977071268043" lon="11.784522552186193"><ele>20.0</ele><time>2026-04-19T12:31:35.956Z</time></trkpt><trkpt lat="42.10961730080168" lon="11.784706206055725"><ele>19.0</ele><time>2026-04-19T12:31:36.956Z</time></trkpt><trkpt lat="42.10945157466028" lon="11.784892106746357"><ele>19.0</ele><time>2026-04-19T12:31:37.956Z</time></trkpt><trkpt lat="42.10929886793068" lon="11.78506194848877"><ele>19.0</ele><time>2026-04-19T12:31:38.956Z</time></trkpt><trkpt lat="42.109160102830536" lon="11.785219513129821"><ele>19.0</ele><time>2026-04-19T12:31:39.956Z</time></trkpt><trkpt lat="42.109024921121076" lon="11.785369035902091"><ele>18.333333333333332</ele><time>2026-04-19T12:31:40.956Z</time></trkpt><trkpt lat="42.108894165787476" lon="11.785507991261111"><ele>17.666666666666668</ele><time>2026-04-19T12:31:41.956Z</time></trkpt><trkpt lat="42.108777882068004" lon="11.785649663675539"><ele>17.0</ele><time>2026-04-19T12:31:42.956Z</time></trkpt><trkpt lat="42.108668068559446" lon="11.785750059770256"><ele>17.0</ele><time>2026-04-19T12:31:43.956Z</time></trkpt><trkpt lat="42.10856100121432" lon="11.785812404988606"><ele>17.0</ele><time>2026-04-19T12:31:44.956Z</time></trkpt><trkpt lat="42.108444843774514" lon="11.785834202758453"><ele>17.0</ele><time>2026-04-19T12:31:45.956Z</time></trkpt><trkpt lat="42.10831893379842" lon="11.785849489408362"><ele>17.0</ele><time>2026-04-19T12:31:46.956Z</time></trkpt><trkpt lat="42.10820991287059" lon="11.785778471480295"><ele>16.0</ele><time>2026-04-19T12:31:47.956Z</time></trkpt><trkpt lat="42.10811184998118" lon="11.785689968201837"><ele>15.0</ele><time>2026-04-19T12:31:48.956Z</time></trkpt><trkpt lat="42.10801453535566" lon="11.785564439972989"><ele>14.0</ele><time>2026-04-19T12:31:49.956Z</time></trkpt><trkpt lat="42.107921360949135" lon="11.785397390668718"><ele>13.0</ele><time>2026-04-19T12:31:50.956Z</time></trkpt><trkpt lat="42.10780849827772" lon="11.785212331128012"><ele>13.333333333333332</ele><time>2026-04-19T12:31:51.956Z</time></trkpt><trkpt lat="42.10769375213458" lon="11.78504217860559"><ele>13.666666666666668</ele><time>2026-04-19T12:31:52.956Z</time></trkpt><trkpt lat="42.107588302344716" lon="11.784876751293107"><ele>14.0</ele><time>2026-04-19T12:31:53.956Z</time></trkpt><trkpt lat="42.10749234425982" lon="11.784709043813393"><ele>13.0</ele><time>2026-04-19T12:31:54.956Z</time></trkpt><trkpt lat="42.107408017047774" lon="11.784560968098429"><ele>12.0</ele><time>2026-04-19T12:31:55.956Z</time></trkpt><trkpt lat="42.10732467351505" lon="11.784429248672836"><ele>11.0</ele><time>2026-04-19T12:31:56.956Z</time></trkpt><trkpt lat="42.10724117344948" lon="11.784323837787802"><ele>10.0</ele><time>2026-04-19T12:31:57.956Z</time></trkpt><trkpt lat="42.107155364111954" lon="11.784247611944899"><ele>9.0</ele><time>2026-04-19T12:31:58.956Z</time></trkpt><trkpt lat="42.10705290684119" lon="11.784236553040413"><ele>8.0</ele><time>2026-04-19T12:31:59.956Z</time></trkpt><trkpt lat="42.1069359548235" lon="11.784194417436199"><ele>7.0</ele><time>2026-04-19T12:32:00.956Z</time></trkpt><trkpt lat="42.10678880366731" lon="11.784224784073066"><ele>6.0</ele><time>2026-04-19T12:32:01.956Z</time></trkpt><trkpt lat="42.106644843265656" lon="11.784251561839408"><ele>5.8</ele><time>2026-04-19T12:32:02.956Z</time></trkpt><trkpt lat="42.106523501511504" lon="11.78425792722693"><ele>5.6</ele><time>2026-04-19T12:32:03.956Z</time></trkpt><trkpt lat="42.106424828513745" lon="11.784259841908723"><ele>5.4</ele><time>2026-04-19T12:32:04.956Z</time></trkpt><trkpt lat="42.106354741452996" lon="11.784249881478317"><ele>5.2</ele><time>2026-04-19T12:32:05.956Z</time></trkpt><trkpt lat="42.10627451206553" lon="11.784212061848272"><ele>5.0</ele><time>2026-04-19T12:32:07.956Z</time></trkpt><trkpt lat="42.10628403291932" lon="11.783956643259861"><ele>5.0</ele><time>2026-04-19T12:32:19.956Z</time></trkpt><trkpt lat="42.10633621381533" lon="11.78386111583865"><ele>5.0</ele><time>2026-04-19T12:32:20.956Z</time></trkpt><trkpt lat="42.10640411009558" lon="11.7837506203198"><ele>5.0</ele><time>2026-04-19T12:32:21.956Z</time></trkpt><trkpt lat="42.10648810526964" lon="11.783647072246245"><ele>5.0</ele><time>2026-04-19T12:32:22.956Z</time></trkpt><trkpt lat="42.10657329730913" lon="11.783519213722645"><ele>5.0</ele><time>2026-04-19T12:32:23.956Z</time></trkpt><trkpt lat="42.106666965539745" lon="11.783376390082315"><ele>5.333333333333334</ele><time>2026-04-19T12:32:24.957Z</time></trkpt><trkpt lat="42.10676745149581" lon="11.783225915643522"><ele>5.666666666666667</ele><time>2026-04-19T12:32:25.957Z</time></trkpt><trkpt lat="42.10687507812144" lon="11.783066517170182"><ele>6.0</ele><time>2026-04-19T12:32:26.957Z</time></trkpt><trkpt lat="42.10698932938463" lon="11.782898500221414"><ele>6.0</ele><time>2026-04-19T12:32:27.957Z</time></trkpt><trkpt lat="42.10710732921386" lon="11.78272503365135"><ele>6.0</ele><time>2026-04-19T12:32:28.957Z</time></trkpt><trkpt lat="42.10721464938851" lon="11.782566202148661"><ele>6.0</ele><time>2026-04-19T12:32:29.957Z</time></trkpt><trkpt lat="42.107315182874856" lon="11.78241613665101"><ele>5.8</ele><time>2026-04-19T12:32:30.957Z</time></trkpt><trkpt lat="42.10740951593311" lon="11.782275958348004"><ele>5.6</ele><time>2026-04-19T12:32:31.957Z</time></trkpt><trkpt lat="42.10750162935117" lon="11.78217291786"><ele>5.4</ele><time>2026-04-19T12:32:32.957Z</time></trkpt><trkpt lat="42.10755844394274" lon="11.782091172189444"><ele>5.2</ele><time>2026-04-19T12:32:33.957Z</time></trkpt><trkpt lat="42.1076013003534" lon="11.782002439418717"><ele>5.0</ele><time>2026-04-19T12:32:34.957Z</time></trkpt><trkpt lat="42.10765261815736" lon="11.781943357127389"><ele>4.5</ele><time>2026-04-19T12:32:35.957Z</time></trkpt><trkpt lat="42.107715376326055" lon="11.781851823227504"><ele>4.0</ele><time>2026-04-19T12:32:37.957Z</time></trkpt><trkpt lat="42.10790836032572" lon="11.782074869957974"><ele>3.5</ele><time>2026-04-19T12:33:15.958Z</time></trkpt><trkpt lat="42.10791404137511" lon="11.782183071700894"><ele>3.0</ele><time>2026-04-19T12:33:18.958Z</time></trkpt><trkpt lat="42.107842229269416" lon="11.782281362641877"><ele>3.0</ele><time>2026-04-19T12:33:20.958Z</time></trkpt><trkpt lat="42.1077813977008" lon="11.78232667388617"><ele>3.0</ele><time>2026-04-19T12:33:21.958Z</time></trkpt><trkpt lat="42.10769196372004" lon="11.782356817883107"><ele>3.0</ele><time>2026-04-19T12:33:23.958Z</time></trkpt><trkpt lat="42.107655865210134" lon="11.782254245511625"><ele>3.0</ele><time>2026-04-19T12:33:26.958Z</time></trkpt><trkpt lat="42.107708693794564" lon="11.782104067480729"><ele>3.0</ele><time>2026-04-19T12:33:28.958Z</time></trkpt><trkpt lat="42.1077515761228" lon="11.782018862230677"><ele>3.0</ele><time>2026-04-19T12:33:29.958Z</time></trkpt><trkpt lat="42.107792404117546" lon="11.781931658219879"><ele>3.0</ele><time>2026-04-19T12:33:31.954Z</time></trkpt><trkpt lat="42.10774534427438" lon="11.781847772493547"><ele>3.0</ele><time>2026-04-19T12:33:34.953Z</time></trkpt><trkpt lat="42.107663512265844" lon="11.781880537882843"><ele>3.0</ele><time>2026-04-19T12:33:41.953Z</time></trkpt><trkpt lat="42.10760762309472" lon="11.781954625663692"><ele>3.0</ele><time>2026-04-19T12:33:42.953Z</time></trkpt><trkpt lat="42.10754826773514" lon="11.782046300909647"><ele>3.0</ele><time>2026-04-19T12:33:43.954Z</time></trkpt><trkpt lat="42.10748547291242" lon="11.782140279333355"><ele>3.0</ele><time>2026-04-19T12:33:44.953Z</time></trkpt><trkpt lat="42.10741882991493" lon="11.782247032715095"><ele>3.5</ele><time>2026-04-19T12:33:45.953Z</time></trkpt><trkpt lat="42.107344434653534" lon="11.78236086789778"><ele>4.0</ele><time>2026-04-19T12:33:46.953Z</time></trkpt><trkpt lat="42.10726683683097" lon="11.782471875621463"><ele>4.5</ele><time>2026-04-19T12:33:47.953Z</time></trkpt><trkpt lat="42.107181545236436" lon="11.782597453596923"><ele>5.0</ele><time>2026-04-19T12:33:48.953Z</time></trkpt><trkpt lat="42.10708868741669" lon="11.782735588394612"><ele>5.25</ele><time>2026-04-19T12:33:49.953Z</time></trkpt><trkpt lat="42.10698174017528" lon="11.782864043811859"><ele>5.5</ele><time>2026-04-19T12:33:50.953Z</time></trkpt><trkpt lat="42.10688487234119" lon="11.783012250413867"><ele>5.75</ele><time>2026-04-19T12:33:51.954Z</time></trkpt><trkpt lat="42.1067832234167" lon="11.783161420804038"><ele>6.0</ele><time>2026-04-19T12:33:52.954Z</time></trkpt><trkpt lat="42.10668039478262" lon="11.783320263806113"><ele>5.666666666666667</ele><time>2026-04-19T12:33:53.954Z</time></trkpt><trkpt lat="42.10657377828304" lon="11.78348185066338"><ele>5.333333333333334</ele><time>2026-04-19T12:33:54.954Z</time></trkpt><trkpt lat="42.10645805659635" lon="11.78364185168424"><ele>5.0</ele><time>2026-04-19T12:33:55.954Z</time></trkpt><trkpt lat="42.10634352576471" lon="11.78380797699869"><ele>5.0</ele><time>2026-04-19T12:33:56.954Z</time></trkpt><trkpt lat="42.10623339193946" lon="11.783977516831808"><ele>5.0</ele><time>2026-04-19T12:33:57.954Z</time></trkpt><trkpt lat="42.10612998041926" lon="11.784144423522497"><ele>5.0</ele><time>2026-04-19T12:33:58.954Z</time></trkpt><trkpt lat="42.10602199800612" lon="11.78431304649591"><ele>5.666666666666667</ele><time>2026-04-19T12:33:59.954Z</time></trkpt><trkpt lat="42.10591214765834" lon="11.78447943285833"><ele>6.333333333333334</ele><time>2026-04-19T12:34:00.954Z</time></trkpt><trkpt lat="42.10579393864092" lon="11.784651222199907"><ele>7.0</ele><time>2026-04-19T12:34:01.954Z</time></trkpt><trkpt lat="42.10567382624167" lon="11.784825731812449"><ele>7.0</ele><time>2026-04-19T12:34:02.954Z</time></trkpt><trkpt lat="42.10555460672103" lon="11.785004946234661"><ele>7.0</ele><time>2026-04-19T12:34:03.954Z</time></trkpt><trkpt lat="42.1054347243025" lon="11.785187983849893"><ele>7.0</ele><time>2026-04-19T12:34:04.954Z</time></trkpt><trkpt lat="42.10531305764711" lon="11.785369774546878"><ele>7.333333333333334</ele><time>2026-04-19T12:34:05.954Z</time></trkpt><trkpt lat="42.10518782780928" lon="11.785546988105326"><ele>7.666666666666666</ele><time>2026-04-19T12:34:06.954Z</time></trkpt><trkpt lat="42.105070413087034" lon="11.785706583521316"><ele>8.0</ele><time>2026-04-19T12:34:07.954Z</time></trkpt><trkpt lat="42.10495374507317" lon="11.785864212656998"><ele>8.0</ele><time>2026-04-19T12:34:08.954Z</time></trkpt><trkpt lat="42.104840107725565" lon="11.786019461615064"><ele>8.0</ele><time>2026-04-19T12:34:09.954Z</time></trkpt><trkpt lat="42.10473315928231" lon="11.786161598429148"><ele>8.0</ele><time>2026-04-19T12:34:10.954Z</time></trkpt><trkpt lat="42.104631343106476" lon="11.786295136119723"><ele>8.0</ele><time>2026-04-19T12:34:11.954Z</time></trkpt><trkpt lat="42.104533052974816" lon="11.786419442680053"><ele>8.0</ele><time>2026-04-19T12:34:12.954Z</time></trkpt><trkpt lat="42.10444231636545" lon="11.786528257578187"><ele>8.0</ele><time>2026-04-19T12:34:13.954Z</time></trkpt><trkpt lat="42.10436657280612" lon="11.786613115076332"><ele>8.0</ele><time>2026-04-19T12:34:14.954Z</time></trkpt><trkpt lat="42.10429907983229" lon="11.786681087471178"><ele>8.0</ele><time>2026-04-19T12:34:15.954Z</time></trkpt><trkpt lat="42.10424441615938" lon="11.7867334119207"><ele>8.0</ele><time>2026-04-19T12:34:16.954Z</time></trkpt><trkpt lat="42.10416178662775" lon="11.78675651665181"><ele>8.0</ele><time>2026-04-19T12:34:18.954Z</time></trkpt><trkpt lat="42.1041356127802" lon="11.786558923699536"><ele>8.0</ele><time>2026-04-19T12:34:20.954Z</time></trkpt><trkpt lat="42.10414863549168" lon="11.786452347269085"><ele>8.0</ele><time>2026-04-19T12:34:21.954Z</time></trkpt><trkpt lat="42.104153069383976" lon="11.786342128769245"><ele>8.0</ele><time>2026-04-19T12:34:22.954Z</time></trkpt><trkpt lat="42.10419544046231" lon="11.786243315938812"><ele>8.0</ele><time>2026-04-19T12:34:23.954Z</time></trkpt><trkpt lat="42.10427448244284" lon="11.786185809893318"><ele>8.0</ele><time>2026-04-19T12:34:24.954Z</time></trkpt><trkpt lat="42.10432666208311" lon="11.786099619963744"><ele>8.0</ele><time>2026-04-19T12:34:25.954Z</time></trkpt><trkpt lat="42.10433871235024" lon="11.785957051979116"><ele>8.0</ele><time>2026-04-19T12:34:27.954Z</time></trkpt><trkpt lat="42.104281040440085" lon="11.785875057817702"><ele>8.0</ele><time>2026-04-19T12:34:29.954Z</time></trkpt><trkpt lat="42.104152877254506" lon="11.785927635936225"><ele>7.75</ele><time>2026-04-19T12:34:31.954Z</time></trkpt><trkpt lat="42.1040560255657" lon="11.786030566865856"><ele>7.5</ele><time>2026-04-19T12:34:32.954Z</time></trkpt><trkpt lat="42.10394966506776" lon="11.786133721870511"><ele>7.25</ele><time>2026-04-19T12:34:33.954Z</time></trkpt><trkpt lat="42.10382273309868" lon="11.786246974886067"><ele>7.0</ele><time>2026-04-19T12:34:34.954Z</time></trkpt><trkpt lat="42.103675000464406" lon="11.786366583257827"><ele>7.0</ele><time>2026-04-19T12:34:35.954Z</time></trkpt><trkpt lat="42.10351242551563" lon="11.786452617929998"><ele>7.0</ele><time>2026-04-19T12:34:36.954Z</time></trkpt><trkpt lat="42.10334787586394" lon="11.786497177100976"><ele>7.0</ele><time>2026-04-19T12:34:37.954Z</time></trkpt><trkpt lat="42.10317343144586" lon="11.786487633538622"><ele>6.75</ele><time>2026-04-19T12:34:38.954Z</time></trkpt><trkpt lat="42.10301716648081" lon="11.78650665686641"><ele>6.5</ele><time>2026-04-19T12:34:39.955Z</time></trkpt><trkpt lat="42.10287216986655" lon="11.786491416389527"><ele>6.25</ele><time>2026-04-19T12:34:40.955Z</time></trkpt><trkpt lat="42.10272806888606" lon="11.786486500951213"><ele>6.0</ele><time>2026-04-19T12:34:41.955Z</time></trkpt><trkpt lat="42.10259074529261" lon="11.78647854928404"><ele>6.0</ele><time>2026-04-19T12:34:42.955Z</time></trkpt><trkpt lat="42.102446140897726" lon="11.786471043606513"><ele>6.0</ele><time>2026-04-19T12:34:43.955Z</time></trkpt><trkpt lat="42.10230425015465" lon="11.786464255775968"><ele>6.0</ele><time>2026-04-19T12:34:44.955Z</time></trkpt><trkpt lat="42.10216678707396" lon="11.786457503277886"><ele>6.0</ele><time>2026-04-19T12:34:45.955Z</time></trkpt><trkpt lat="42.10202817822076" lon="11.786450287647234"><ele>6.25</ele><time>2026-04-19T12:34:46.955Z</time></trkpt><trkpt lat="42.101891531527635" lon="11.786443356808796"><ele>6.5</ele><time>2026-04-19T12:34:47.955Z</time></trkpt><trkpt lat="42.10174986464698" lon="11.78643546079646"><ele>6.75</ele><time>2026-04-19T12:34:48.955Z</time></trkpt><trkpt lat="42.10161480292513" lon="11.786434449226117"><ele>7.0</ele><time>2026-04-19T12:34:49.955Z</time></trkpt><trkpt lat="42.10148166743832" lon="11.786441775879288"><ele>7.0</ele><time>2026-04-19T12:34:50.955Z</time></trkpt><trkpt lat="42.10136057169373" lon="11.78644855529119"><ele>7.0</ele><time>2026-04-19T12:34:51.955Z</time></trkpt><trkpt lat="42.10124296847128" lon="11.786463577698887"><ele>7.0</ele><time>2026-04-19T12:34:52.955Z</time></trkpt><trkpt lat="42.1011320751063" lon="11.786480682692595"><ele>7.0</ele><time>2026-04-19T12:34:53.955Z</time></trkpt><trkpt lat="42.10102676219402" lon="11.786496668425878"><ele>7.0</ele><time>2026-04-19T12:34:54.955Z</time></trkpt><trkpt lat="42.10092274586235" lon="11.786510930896211"><ele>6.999999999999999</ele><time>2026-04-19T12:34:55.955Z</time></trkpt><trkpt lat="42.10081886643058" lon="11.78653858157188"><ele>6.999999999999999</ele><time>2026-04-19T12:34:56.955Z</time></trkpt><trkpt lat="42.10070961716581" lon="11.786586561569596"><ele>7.0</ele><time>2026-04-19T12:34:57.955Z</time></trkpt><trkpt lat="42.10060023335973" lon="11.786626312885243"><ele>7.0</ele><time>2026-04-19T12:34:58.955Z</time></trkpt><trkpt lat="42.10049391710604" lon="11.78669242549954"><ele>7.75</ele><time>2026-04-19T12:34:59.955Z</time></trkpt><trkpt lat="42.10039532457585" lon="11.786774739143707"><ele>8.5</ele><time>2026-04-19T12:35:00.955Z</time></trkpt><trkpt lat="42.10030172655906" lon="11.786871008594737"><ele>9.25</ele><time>2026-04-19T12:35:01.955Z</time></trkpt><trkpt lat="42.10020386205944" lon="11.786976386082578"><ele>10.0</ele><time>2026-04-19T12:35:02.955Z</time></trkpt><trkpt lat="42.100100269254746" lon="11.787085571857899"><ele>10.0</ele><time>2026-04-19T12:35:03.955Z</time></trkpt><trkpt lat="42.099999258964594" lon="11.787192778469645"><ele>10.0</ele><time>2026-04-19T12:35:04.955Z</time></trkpt><trkpt lat="42.099886546446896" lon="11.787314004513208"><ele>10.0</ele><time>2026-04-19T12:35:05.955Z</time></trkpt><trkpt lat="42.09976365071545" lon="11.787415423035451"><ele>10.0</ele><time>2026-04-19T12:35:06.955Z</time></trkpt><trkpt lat="42.09965126777859" lon="11.787540288179661"><ele>10.0</ele><time>2026-04-19T12:35:07.955Z</time></trkpt><trkpt lat="42.099543389184234" lon="11.787659158994297"><ele>10.0</ele><time>2026-04-19T12:35:08.955Z</time></trkpt><trkpt lat="42.099423752528736" lon="11.787779795052055"><ele>10.0</ele><time>2026-04-19T12:35:09.955Z</time></trkpt><trkpt lat="42.09930256683316" lon="11.787916683305587"><ele>10.0</ele><time>2026-04-19T12:35:10.955Z</time></trkpt><trkpt lat="42.0991797699792" lon="11.788041188565346"><ele>8.75</ele><time>2026-04-19T12:35:11.955Z</time></trkpt><trkpt lat="42.099061541119625" lon="11.788151453766785"><ele>7.5</ele><time>2026-04-19T12:35:12.955Z</time></trkpt><trkpt lat="42.09895407912028" lon="11.78826264843671"><ele>6.25</ele><time>2026-04-19T12:35:13.955Z</time></trkpt><trkpt lat="42.098857470224765" lon="11.788367127098804"><ele>5.0</ele><time>2026-04-19T12:35:14.955Z</time></trkpt><trkpt lat="42.09876239900261" lon="11.788465590875319"><ele>5.5</ele><time>2026-04-19T12:35:15.955Z</time></trkpt><trkpt lat="42.098661205087836" lon="11.788566915828167"><ele>6.0</ele><time>2026-04-19T12:35:16.955Z</time></trkpt><trkpt lat="42.098524883401126" lon="11.788615815670468"><ele>6.5</ele><time>2026-04-19T12:35:17.955Z</time></trkpt><trkpt lat="42.09837246326867" lon="11.788684757714568"><ele>7.0</ele><time>2026-04-19T12:35:18.955Z</time></trkpt><trkpt lat="42.09821716470312" lon="11.788756865693724"><ele>7.0</ele><time>2026-04-19T12:35:19.955Z</time></trkpt><trkpt lat="42.098050093442666" lon="11.788853034307271"><ele>7.0</ele><time>2026-04-19T12:35:20.955Z</time></trkpt><trkpt lat="42.09788225644997" lon="11.788930069920163"><ele>7.0</ele><time>2026-04-19T12:35:21.955Z</time></trkpt><trkpt lat="42.09772811060084" lon="11.788994101374806"><ele>7.0</ele><time>2026-04-19T12:35:22.955Z</time></trkpt><trkpt lat="42.09758051234423" lon="11.789062817822781"><ele>7.0</ele><time>2026-04-19T12:35:23.955Z</time></trkpt><trkpt lat="42.09744471588545" lon="11.789125020145608"><ele>7.0</ele><time>2026-04-19T12:35:24.955Z</time></trkpt><trkpt lat="42.097313322358175" lon="11.789180696742624"><ele>7.0</ele><time>2026-04-19T12:35:25.955Z</time></trkpt><trkpt lat="42.09720032194475" lon="11.789226431473084"><ele>7.000000000000001</ele><time>2026-04-19T12:35:26.956Z</time></trkpt><trkpt lat="42.09710697052817" lon="11.78926627359329"><ele>7.0</ele><time>2026-04-19T12:35:27.956Z</time></trkpt><trkpt lat="42.097031341417726" lon="11.789291608559108"><ele>7.0</ele><time>2026-04-19T12:35:28.956Z</time></trkpt><trkpt lat="42.09692318700221" lon="11.789342121662578"><ele>7.0</ele><time>2026-04-19T12:35:30.956Z</time></trkpt><trkpt lat="42.096863607476664" lon="11.789377119056732"><ele>7.000000000000001</ele><time>2026-04-19T12:35:31.956Z</time></trkpt><trkpt lat="42.0967961536859" lon="11.789429571770667"><ele>7.0</ele><time>2026-04-19T12:35:32.956Z</time></trkpt><trkpt lat="42.09671428493083" lon="11.789443485987036"><ele>7.0</ele><time>2026-04-19T12:35:33.956Z</time></trkpt><trkpt lat="42.09661820567524" lon="11.789466229099109"><ele>6.999999999999999</ele><time>2026-04-19T12:35:34.956Z</time></trkpt><trkpt lat="42.096502945173995" lon="11.789513291135384"><ele>6.999999999999999</ele><time>2026-04-19T12:35:35.956Z</time></trkpt><trkpt lat="42.09637795622646" lon="11.78950386176227"><ele>7.0</ele><time>2026-04-19T12:35:36.956Z</time></trkpt><trkpt lat="42.09629021713012" lon="11.789534324447374"><ele>7.0</ele><time>2026-04-19T12:35:37.951Z</time></trkpt><trkpt lat="42.0962047879431" lon="11.789551728989014"><ele>7.500000000000001</ele><time>2026-04-19T12:35:38.95Z</time></trkpt><trkpt lat="42.09612174393751" lon="11.789570391099756"><ele>8.0</ele><time>2026-04-19T12:35:39.951Z</time></trkpt><trkpt lat="42.09605356334116" lon="11.789591295535546"><ele>8.5</ele><time>2026-04-19T12:35:40.951Z</time></trkpt><trkpt lat="42.09598452153587" lon="11.78960925811507"><ele>9.0</ele><time>2026-04-19T12:35:41.95Z</time></trkpt><trkpt lat="42.095903529718164" lon="11.789624328580219"><ele>9.5</ele><time>2026-04-19T12:35:42.95Z</time></trkpt><trkpt lat="42.095827197198815" lon="11.78964176988734"><ele>10.0</ele><time>2026-04-19T12:35:43.951Z</time></trkpt><trkpt lat="42.09574811601961" lon="11.789666309101587"><ele>10.0</ele><time>2026-04-19T12:35:44.95Z</time></trkpt><trkpt lat="42.09566285295279" lon="11.78969208431487"><ele>10.0</ele><time>2026-04-19T12:35:45.95Z</time></trkpt><trkpt lat="42.09557639010643" lon="11.78970922106617"><ele>10.0</ele><time>2026-04-19T12:35:46.95Z</time></trkpt><trkpt lat="42.09548630403252" lon="11.789732584734171"><ele>10.0</ele><time>2026-04-19T12:35:47.95Z</time></trkpt><trkpt lat="42.09540002231245" lon="11.789753030035362"><ele>10.0</ele><time>2026-04-19T12:35:48.95Z</time></trkpt><trkpt lat="42.09532254468928" lon="11.789779449661037"><ele>10.0</ele><time>2026-04-19T12:35:49.95Z</time></trkpt><trkpt lat="42.09523981814284" lon="11.789799141839275"><ele>10.0</ele><time>2026-04-19T12:35:50.95Z</time></trkpt><trkpt lat="42.095149042669746" lon="11.789825002393718"><ele>10.0</ele><time>2026-04-19T12:35:51.95Z</time></trkpt><trkpt lat="42.095038518329574" lon="11.789855284414417"><ele>10.0</ele><time>2026-04-19T12:35:52.95Z</time></trkpt><trkpt lat="42.09491631193838" lon="11.789863264346502"><ele>10.0</ele><time>2026-04-19T12:35:53.95Z</time></trkpt><trkpt lat="42.09480479694624" lon="11.789915852284649"><ele>10.0</ele><time>2026-04-19T12:35:54.95Z</time></trkpt><trkpt lat="42.09471155994217" lon="11.789958542115292"><ele>9.6</ele><time>2026-04-19T12:35:55.95Z</time></trkpt><trkpt lat="42.09461812569168" lon="11.790028020792818"><ele>9.2</ele><time>2026-04-19T12:35:56.95Z</time></trkpt><trkpt lat="42.09453800201874" lon="11.790100641273638"><ele>8.8</ele><time>2026-04-19T12:35:57.95Z</time></trkpt><trkpt lat="42.09444899796983" lon="11.790191753851625"><ele>8.4</ele><time>2026-04-19T12:35:58.95Z</time></trkpt><trkpt lat="42.09434985557992" lon="11.790286666154111"><ele>8.0</ele><time>2026-04-19T12:35:59.95Z</time></trkpt><trkpt lat="42.09422593180741" lon="11.790343967045276"><ele>9.75</ele><time>2026-04-19T12:36:00.95Z</time></trkpt><trkpt lat="42.09411221337851" lon="11.790426955834052"><ele>11.5</ele><time>2026-04-19T12:36:01.95Z</time></trkpt><trkpt lat="42.09400252774812" lon="11.790491433928898"><ele>13.25</ele><time>2026-04-19T12:36:02.95Z</time></trkpt><trkpt lat="42.093894901331886" lon="11.790546879078686"><ele>15.0</ele><time>2026-04-19T12:36:03.95Z</time></trkpt><trkpt lat="42.09377857608862" lon="11.790590167128016"><ele>15.8</ele><time>2026-04-19T12:36:04.95Z</time></trkpt><trkpt lat="42.09366706538344" lon="11.790630146618389"><ele>16.6</ele><time>2026-04-19T12:36:05.95Z</time></trkpt><trkpt lat="42.0935658539804" lon="11.790668684883354"><ele>17.4</ele><time>2026-04-19T12:36:06.95Z</time></trkpt><trkpt lat="42.093461937587236" lon="11.790717102815716"><ele>18.2</ele><time>2026-04-19T12:36:07.95Z</time></trkpt><trkpt lat="42.093362192306614" lon="11.790760090475947"><ele>19.0</ele><time>2026-04-19T12:36:08.95Z</time></trkpt><trkpt lat="42.093273888453965" lon="11.790808080122941"><ele>18.599999999999998</ele><time>2026-04-19T12:36:09.95Z</time></trkpt><trkpt lat="42.09320348395242" lon="11.7908546482533"><ele>18.2</ele><time>2026-04-19T12:36:10.951Z</time></trkpt><trkpt lat="42.09312778642886" lon="11.790922104376817"><ele>17.799999999999997</ele><time>2026-04-19T12:36:11.951Z</time></trkpt><trkpt lat="42.09311829265034" lon="11.791033750963729"><ele>17.4</ele><time>2026-04-19T12:36:12.951Z</time></trkpt><trkpt lat="42.093035959731736" lon="11.791106001868028"><ele>17.0</ele><time>2026-04-19T12:36:13.951Z</time></trkpt><trkpt lat="42.09295180604469" lon="11.79117718932885"><ele>17.0</ele><time>2026-04-19T12:36:14.951Z</time></trkpt><trkpt lat="42.092848373209314" lon="11.791264685394605"><ele>17.0</ele><time>2026-04-19T12:36:15.951Z</time></trkpt><trkpt lat="42.09275266943508" lon="11.791346555997979"><ele>17.0</ele><time>2026-04-19T12:36:16.951Z</time></trkpt><trkpt lat="42.092645183561274" lon="11.791439586928117"><ele>17.0</ele><time>2026-04-19T12:36:17.951Z</time></trkpt><trkpt lat="42.09252159495803" lon="11.791546557333684"><ele>17.0</ele><time>2026-04-19T12:36:18.951Z</time></trkpt><trkpt lat="42.092425128016906" lon="11.791699332498437"><ele>17.0</ele><time>2026-04-19T12:36:19.951Z</time></trkpt><trkpt lat="42.09232445965464" lon="11.791795887643696"><ele>17.0</ele><time>2026-04-19T12:36:20.951Z</time></trkpt><trkpt lat="42.09222427326318" lon="11.791876125739451"><ele>17.0</ele><time>2026-04-19T12:36:21.951Z</time></trkpt><trkpt lat="42.09213342066939" lon="11.79195163754932"><ele>16.5</ele><time>2026-04-19T12:36:22.951Z</time></trkpt><trkpt lat="42.09204385858535" lon="11.79203661616286"><ele>16.0</ele><time>2026-04-19T12:36:23.951Z</time></trkpt><trkpt lat="42.09195375807063" lon="11.792132121987324"><ele>15.5</ele><time>2026-04-19T12:36:24.951Z</time></trkpt><trkpt lat="42.09186433072884" lon="11.792207791366097"><ele>15.0</ele><time>2026-04-19T12:36:25.951Z</time></trkpt><trkpt lat="42.09176426334751" lon="11.792297778101327"><ele>15.0</ele><time>2026-04-19T12:36:26.951Z</time></trkpt><trkpt lat="42.09165989106109" lon="11.79239467474814"><ele>15.0</ele><time>2026-04-19T12:36:27.951Z</time></trkpt><trkpt lat="42.09154154156002" lon="11.792442761812154"><ele>15.0</ele><time>2026-04-19T12:36:28.951Z</time></trkpt><trkpt lat="42.09144464617437" lon="11.792529965648239"><ele>15.0</ele><time>2026-04-19T12:36:29.951Z</time></trkpt><trkpt lat="42.091366076818574" lon="11.792601236682403"><ele>15.0</ele><time>2026-04-19T12:36:30.951Z</time></trkpt><trkpt lat="42.09128025343975" lon="11.792678842495334"><ele>15.0</ele><time>2026-04-19T12:36:32.951Z</time></trkpt><trkpt lat="42.091204934858176" lon="11.792738625140446"><ele>15.0</ele><time>2026-04-19T12:36:36.951Z</time></trkpt><trkpt lat="42.09111176053857" lon="11.792799382799227"><ele>15.0</ele><time>2026-04-19T12:36:39.951Z</time></trkpt><trkpt lat="42.09099927107397" lon="11.79277435254341"><ele>15.0</ele><time>2026-04-19T12:36:41.951Z</time></trkpt><trkpt lat="42.09093747507983" lon="11.792706603742351"><ele>14.5</ele><time>2026-04-19T12:36:42.951Z</time></trkpt><trkpt lat="42.09086231028993" lon="11.792611362544491"><ele>14.0</ele><time>2026-04-19T12:36:43.951Z</time></trkpt><trkpt lat="42.09079043552992" lon="11.792523509528898"><ele>13.5</ele><time>2026-04-19T12:36:44.951Z</time></trkpt><trkpt lat="42.090726222650325" lon="11.792445333304341"><ele>13.0</ele><time>2026-04-19T12:36:45.951Z</time></trkpt><trkpt lat="42.09066837222185" lon="11.792379823138992"><ele>12.5</ele><time>2026-04-19T12:36:46.951Z</time></trkpt><trkpt lat="42.09060826686811" lon="11.79232173063701"><ele>12.0</ele><time>2026-04-19T12:36:47.951Z</time></trkpt><trkpt lat="42.09054530794434" lon="11.792285776487079"><ele>11.333333333333334</ele><time>2026-04-19T12:36:48.951Z</time></trkpt><trkpt lat="42.090434610984175" lon="11.792284766230956"><ele>10.666666666666666</ele><time>2026-04-19T12:36:50.951Z</time></trkpt><trkpt lat="42.090373818455014" lon="11.792414612530592"><ele>10.0</ele><time>2026-04-19T12:36:52.951Z</time></trkpt><trkpt lat="42.090322583751394" lon="11.792471264199326"><ele>9.333333333333332</ele><time>2026-04-19T12:36:53.951Z</time></trkpt><trkpt lat="42.09028223539368" lon="11.792554205559142"><ele>8.666666666666666</ele><time>2026-04-19T12:36:54.951Z</time></trkpt><trkpt lat="42.09024114734811" lon="11.792639268914314"><ele>8.0</ele><time>2026-04-19T12:36:55.951Z</time></trkpt><trkpt lat="42.09019827751711" lon="11.792729239288114"><ele>8.0</ele><time>2026-04-19T12:36:56.951Z</time></trkpt><trkpt lat="42.09016000466981" lon="11.792809558962473"><ele>7.999999999999999</ele><time>2026-04-19T12:36:57.952Z</time></trkpt><trkpt lat="42.09012611726717" lon="11.79288768718752"><ele>8.0</ele><time>2026-04-19T12:36:58.952Z</time></trkpt><trkpt lat="42.090091486103056" lon="11.792963592208224"><ele>8.0</ele><time>2026-04-19T12:36:59.952Z</time></trkpt><trkpt lat="42.09005067520851" lon="11.793036347302863"><ele>7.999999999999999</ele><time>2026-04-19T12:37:00.952Z</time></trkpt><trkpt lat="42.09001310309088" lon="11.793116344593653"><ele>8.0</ele><time>2026-04-19T12:37:01.952Z</time></trkpt><trkpt lat="42.08996588176096" lon="11.79321485897668"><ele>8.0</ele><time>2026-04-19T12:37:02.952Z</time></trkpt><trkpt lat="42.089919645459965" lon="11.793312863535057"><ele>7.166666666666666</ele><time>2026-04-19T12:37:03.952Z</time></trkpt><trkpt lat="42.08987672853968" lon="11.79340309924655"><ele>6.333333333333333</ele><time>2026-04-19T12:37:04.952Z</time></trkpt><trkpt lat="42.08983302231367" lon="11.793494884112915"><ele>5.5</ele><time>2026-04-19T12:37:05.952Z</time></trkpt><trkpt lat="42.08978883404966" lon="11.793589184145025"><ele>4.666666666666666</ele><time>2026-04-19T12:37:06.952Z</time></trkpt><trkpt lat="42.08973973903109" lon="11.79369395063689"><ele>3.833333333333333</ele><time>2026-04-19T12:37:07.952Z</time></trkpt><trkpt lat="42.089686848538776" lon="11.793807109761751"><ele>3.0</ele><time>2026-04-19T12:37:08.952Z</time></trkpt><trkpt lat="42.08963693605272" lon="11.793914730494812"><ele>3.0</ele><time>2026-04-19T12:37:09.952Z</time></trkpt><trkpt lat="42.08958098043554" lon="11.79403249547201"><ele>3.0</ele><time>2026-04-19T12:37:10.952Z</time></trkpt><trkpt lat="42.08952615295677" lon="11.794147569535532"><ele>3.0</ele><time>2026-04-19T12:37:11.952Z</time></trkpt><trkpt lat="42.0894766229176" lon="11.794252995923596"><ele>3.0</ele><time>2026-04-19T12:37:12.952Z</time></trkpt><trkpt lat="42.089438821636186" lon="11.794331633649739"><ele>3.0</ele><time>2026-04-19T12:37:13.952Z</time></trkpt><trkpt lat="42.0893784118687" lon="11.794474993569308"><ele>3.8</ele><time>2026-04-19T12:37:15.952Z</time></trkpt><trkpt lat="42.089340208447624" lon="11.794570476687314"><ele>4.6</ele><time>2026-04-19T12:37:16.952Z</time></trkpt><trkpt lat="42.08928130984352" lon="11.794663508524017"><ele>5.3999999999999995</ele><time>2026-04-19T12:37:17.952Z</time></trkpt><trkpt lat="42.08922594493207" lon="11.794779918780225"><ele>6.199999999999999</ele><time>2026-04-19T12:37:18.952Z</time></trkpt><trkpt lat="42.08916278145271" lon="11.794912842296753"><ele>7.0</ele><time>2026-04-19T12:37:19.952Z</time></trkpt><trkpt lat="42.08909826740672" lon="11.795048763717212"><ele>6.0</ele><time>2026-04-19T12:37:20.952Z</time></trkpt><trkpt lat="42.089027917771546" lon="11.79519788741551"><ele>5.0</ele><time>2026-04-19T12:37:21.952Z</time></trkpt><trkpt lat="42.088959165448784" lon="11.795344965239178"><ele>4.0</ele><time>2026-04-19T12:37:22.952Z</time></trkpt><trkpt lat="42.088910567111306" lon="11.795492880669856"><ele>3.0</ele><time>2026-04-19T12:37:23.952Z</time></trkpt><trkpt lat="42.088848272266056" lon="11.795627073337123"><ele>3.0</ele><time>2026-04-19T12:37:24.952Z</time></trkpt><trkpt lat="42.08878415890623" lon="11.795764659424526"><ele>3.0</ele><time>2026-04-19T12:37:25.952Z</time></trkpt><trkpt lat="42.0887228870979" lon="11.795899670988115"><ele>3.0</ele><time>2026-04-19T12:37:26.952Z</time></trkpt><trkpt lat="42.08866538426563" lon="11.796020870068677"><ele>3.0</ele><time>2026-04-19T12:37:27.952Z</time></trkpt><trkpt lat="42.088612302267" lon="11.796135451248695"><ele>3.0</ele><time>2026-04-19T12:37:28.952Z</time></trkpt><trkpt lat="42.08856002430347" lon="11.796246152981714"><ele>2.8333333333333335</ele><time>2026-04-19T12:37:29.952Z</time></trkpt><trkpt lat="42.088507057957415" lon="11.796354927918145"><ele>2.6666666666666665</ele><time>2026-04-19T12:37:30.952Z</time></trkpt><trkpt lat="42.088459210506265" lon="11.796455090536742"><ele>2.5</ele><time>2026-04-19T12:37:31.952Z</time></trkpt><trkpt lat="42.088413438642924" lon="11.796551687792377"><ele>2.333333333333333</ele><time>2026-04-19T12:37:32.952Z</time></trkpt><trkpt lat="42.08835411382949" lon="11.796626723386542"><ele>2.1666666666666665</ele><time>2026-04-19T12:37:33.952Z</time></trkpt><trkpt lat="42.08831620460672" lon="11.79670672087242"><ele>2.0</ele><time>2026-04-19T12:37:34.952Z</time></trkpt><trkpt lat="42.08824767426609" lon="11.796808546560019"><ele>2.0</ele><time>2026-04-19T12:37:36.952Z</time></trkpt><trkpt lat="42.08817919935975" lon="11.796812216745504"><ele>2.0</ele><time>2026-04-19T12:37:40.952Z</time></trkpt><trkpt lat="42.08820812973433" lon="11.79672649796999"><ele>2.0</ele><time>2026-04-19T12:37:49.948Z</time></trkpt><trkpt lat="42.08826163117821" lon="11.7966010053015"><ele>2.0</ele><time>2026-04-19T12:37:51.948Z</time></trkpt><trkpt lat="42.088273643629314" lon="11.796415468484744"><ele>2.0</ele><time>2026-04-19T12:37:53.948Z</time></trkpt><trkpt lat="42.088285998469765" lon="11.796310887431735"><ele>2.142857142857143</ele><time>2026-04-19T12:37:54.948Z</time></trkpt><trkpt lat="42.08831257867313" lon="11.79623020452307"><ele>2.2857142857142856</ele><time>2026-04-19T12:37:55.948Z</time></trkpt><trkpt lat="42.08833046294102" lon="11.79613811439748"><ele>2.4285714285714284</ele><time>2026-04-19T12:37:56.948Z</time></trkpt><trkpt lat="42.08835797024377" lon="11.796049836514074"><ele>2.571428571428571</ele><time>2026-04-19T12:37:57.948Z</time></trkpt><trkpt lat="42.088384386363316" lon="11.795965852760931"><ele>2.7142857142857144</ele><time>2026-04-19T12:37:58.948Z</time></trkpt><trkpt lat="42.0884064455008" lon="11.795872856141276"><ele>2.8571428571428568</ele><time>2026-04-19T12:37:59.948Z</time></trkpt><trkpt lat="42.08842709964338" lon="11.795776288105213"><ele>3.0</ele><time>2026-04-19T12:38:00.948Z</time></trkpt><trkpt lat="42.088444986535116" lon="11.79568897190492"><ele>3.0</ele><time>2026-04-19T12:38:01.948Z</time></trkpt><trkpt lat="42.08845914037317" lon="11.795603606551765"><ele>3.0</ele><time>2026-04-19T12:38:02.948Z</time></trkpt><trkpt lat="42.088472757366915" lon="11.795519498436215"><ele>3.0</ele><time>2026-04-19T12:38:03.948Z</time></trkpt><trkpt lat="42.08848442000011" lon="11.795434887714006"><ele>3.0</ele><time>2026-04-19T12:38:04.948Z</time></trkpt><trkpt lat="42.08850016145075" lon="11.795348830952598"><ele>3.0</ele><time>2026-04-19T12:38:05.948Z</time></trkpt><trkpt lat="42.08851793247895" lon="11.795262346379317"><ele>3.0</ele><time>2026-04-19T12:38:06.948Z</time></trkpt><trkpt lat="42.08857945783762" lon="11.795112170325305"><ele>2.714285714285714</ele><time>2026-04-19T12:38:08.948Z</time></trkpt><trkpt lat="42.088617051497835" lon="11.795037605330918"><ele>2.4285714285714284</ele><time>2026-04-19T12:38:09.948Z</time></trkpt><trkpt lat="42.08865380104626" lon="11.794958204532877"><ele>2.142857142857143</ele><time>2026-04-19T12:38:10.948Z</time></trkpt><trkpt lat="42.08868809444985" lon="11.794874189959824"><ele>1.857142857142857</ele><time>2026-04-19T12:38:11.948Z</time></trkpt><trkpt lat="42.08872510337002" lon="11.794789204345525"><ele>1.5714285714285712</ele><time>2026-04-19T12:38:12.948Z</time></trkpt><trkpt lat="42.08876274789685" lon="11.79470668090032"><ele>1.2857142857142856</ele><time>2026-04-19T12:38:13.948Z</time></trkpt><trkpt lat="42.088802080907634" lon="11.794623919870467"><ele>1.0</ele><time>2026-04-19T12:38:14.948Z</time></trkpt><trkpt lat="42.088838380324454" lon="11.794538362625088"><ele>1.0</ele><time>2026-04-19T12:38:15.948Z</time></trkpt><trkpt lat="42.08887163342245" lon="11.794456139451977"><ele>0.9999999999999999</ele><time>2026-04-19T12:38:16.948Z</time></trkpt><trkpt lat="42.08890721306166" lon="11.794377331387464"><ele>1.0</ele><time>2026-04-19T12:38:17.948Z</time></trkpt><trkpt lat="42.088942972227784" lon="11.794300204499493"><ele>1.0</ele><time>2026-04-19T12:38:18.948Z</time></trkpt><trkpt lat="42.0889749879374" lon="11.794222393834149"><ele>0.9999999999999999</ele><time>2026-04-19T12:38:19.948Z</time></trkpt><trkpt lat="42.08900799532545" lon="11.794141651244184"><ele>1.0</ele><time>2026-04-19T12:38:20.948Z</time></trkpt><trkpt lat="42.089043387094" lon="11.794062427656527"><ele>1.0</ele><time>2026-04-19T12:38:21.948Z</time></trkpt><trkpt lat="42.089079979157084" lon="11.79398244005743"><ele>1.1428571428571428</ele><time>2026-04-19T12:38:22.948Z</time></trkpt><trkpt lat="42.08911866559676" lon="11.793908219758212"><ele>1.2857142857142856</ele><time>2026-04-19T12:38:23.948Z</time></trkpt><trkpt lat="42.08915870210868" lon="11.79383366434344"><ele>1.4285714285714284</ele><time>2026-04-19T12:38:24.948Z</time></trkpt><trkpt lat="42.089202303521375" lon="11.793759588586385"><ele>1.5714285714285714</ele><time>2026-04-19T12:38:25.948Z</time></trkpt><trkpt lat="42.08924482459787" lon="11.793687157126563"><ele>1.714285714285714</ele><time>2026-04-19T12:38:26.948Z</time></trkpt><trkpt lat="42.08928215659802" lon="11.793609630174496"><ele>1.857142857142857</ele><time>2026-04-19T12:38:27.948Z</time></trkpt><trkpt lat="42.08931962917589" lon="11.793534386420578"><ele>2.0</ele><time>2026-04-19T12:38:28.948Z</time></trkpt><trkpt lat="42.089357536632576" lon="11.793460692252731"><ele>2.0</ele><time>2026-04-19T12:38:29.948Z</time></trkpt><trkpt lat="42.0894252957994" lon="11.793328266690253"><ele>2.0</ele><time>2026-04-19T12:38:31.948Z</time></trkpt><trkpt lat="42.089486148198056" lon="11.793205387463587"><ele>2.0</ele><time>2026-04-19T12:38:33.948Z</time></trkpt><trkpt lat="42.08953503187777" lon="11.793082299705356"><ele>2.0</ele><time>2026-04-19T12:38:35.948Z</time></trkpt><trkpt lat="42.08956401418274" lon="11.792973535163489"><ele>2.0</ele><time>2026-04-19T12:38:37.948Z</time></trkpt><trkpt lat="42.08957101471085" lon="11.792861930848888"><ele>2.0</ele><time>2026-04-19T12:38:40.948Z</time></trkpt><trkpt lat="42.08959606776915" lon="11.79276775102564"><ele>2.0</ele><time>2026-04-19T12:38:42.949Z</time></trkpt><trkpt lat="42.08961915827721" lon="11.792667472930269"><ele>2.0</ele><time>2026-04-19T12:38:44.949Z</time></trkpt><trkpt lat="42.089654584047125" lon="11.792577311626419"><ele>2.0</ele><time>2026-04-19T12:38:46.949Z</time></trkpt><trkpt lat="42.08971686384194" lon="11.792538363147266"><ele>2.0</ele><time>2026-04-19T12:38:50.949Z</time></trkpt><trkpt lat="42.08977098173469" lon="11.792480204490081"><ele>2.0</ele><time>2026-04-19T12:39:03.949Z</time></trkpt><trkpt lat="42.08983222332473" lon="11.792449776792546"><ele>2.0</ele><time>2026-04-19T12:57:36.947Z</time></trkpt></trkseg></trk></gpx>